<?xml version="1.0" encoding="UTF-8" standalone="no" ?>
<gpx xmlns="http://www.topografix.com/GPX/1/1" xmlns:xsi="http://www.w3.org/2001/XMLSchema-instance" xsi:schemaLocation="http://www.topografix.com/GPX/1/1 http://www.topografix.com/GPX/1/1/gpx.xsd" version="1.1" creator="VisuGPX - https://www.visugpx.com">
  <metadata>
    <name>Foret evreux et saint michel</name>
    <desc><![CDATA[Suis pas aller a la transvolerienne du coup punition dans la foret d evreux dur!!!!!!]]></desc>
  </metadata>
  <trk>
    <name><![CDATA[2011-09-25 10:55]]></name>
    <desc><![CDATA[]]></desc>
    <trkseg>
      <trkpt lat="49.00163" lon="1.12129">
        <ele>113</ele>
        <time>2011-09-25T08:55:19Z</time>
      </trkpt>
      <trkpt lat="49.00163" lon="1.12129">
        <ele>113</ele>
        <time>2011-09-25T08:55:19Z</time>
      </trkpt>
      <trkpt lat="49.00163" lon="1.12129">
        <ele>113</ele>
        <time>2011-09-25T08:55:21Z</time>
      </trkpt>
      <trkpt lat="49.00172" lon="1.12125">
        <ele>111</ele>
        <time>2011-09-25T08:55:22Z</time>
      </trkpt>
      <trkpt lat="49.00172" lon="1.12125">
        <ele>111</ele>
        <time>2011-09-25T08:55:22Z</time>
      </trkpt>
      <trkpt lat="49.00172" lon="1.12125">
        <ele>111</ele>
        <time>2011-09-25T08:55:26Z</time>
      </trkpt>
      <trkpt lat="49.00178" lon="1.121">
        <ele>110</ele>
        <time>2011-09-25T08:55:27Z</time>
      </trkpt>
      <trkpt lat="49.00178" lon="1.121">
        <ele>110</ele>
        <time>2011-09-25T08:55:27Z</time>
      </trkpt>
      <trkpt lat="49.00178" lon="1.121">
        <ele>110</ele>
        <time>2011-09-25T08:55:29Z</time>
      </trkpt>
      <trkpt lat="49.0018" lon="1.12084">
        <ele>109</ele>
        <time>2011-09-25T08:55:30Z</time>
      </trkpt>
      <trkpt lat="49.0018" lon="1.12084">
        <ele>109</ele>
        <time>2011-09-25T08:55:30Z</time>
      </trkpt>
      <trkpt lat="49.0018" lon="1.12084">
        <ele>109</ele>
        <time>2011-09-25T08:55:47Z</time>
      </trkpt>
      <trkpt lat="49.00181" lon="1.12076">
        <ele>108</ele>
        <time>2011-09-25T08:56:12Z</time>
      </trkpt>
      <trkpt lat="49.00185" lon="1.12072">
        <ele>108</ele>
        <time>2011-09-25T08:56:35Z</time>
      </trkpt>
      <trkpt lat="49.00186" lon="1.12064">
        <ele>108</ele>
        <time>2011-09-25T08:56:38Z</time>
      </trkpt>
      <trkpt lat="49.00185" lon="1.12056">
        <ele>108</ele>
        <time>2011-09-25T08:56:41Z</time>
      </trkpt>
      <trkpt lat="49.00181" lon="1.12052">
        <ele>108</ele>
        <time>2011-09-25T08:56:46Z</time>
      </trkpt>
      <trkpt lat="49.00175" lon="1.12049">
        <ele>108</ele>
        <time>2011-09-25T08:56:49Z</time>
      </trkpt>
      <trkpt lat="49.0017" lon="1.12045">
        <ele>108</ele>
        <time>2011-09-25T08:56:51Z</time>
      </trkpt>
      <trkpt lat="49.00164" lon="1.12043">
        <ele>111</ele>
        <time>2011-09-25T08:56:53Z</time>
      </trkpt>
      <trkpt lat="49.00157" lon="1.12039">
        <ele>111</ele>
        <time>2011-09-25T08:56:55Z</time>
      </trkpt>
      <trkpt lat="49.00152" lon="1.12036">
        <ele>111</ele>
        <time>2011-09-25T08:56:57Z</time>
      </trkpt>
      <trkpt lat="49.00146" lon="1.12033">
        <ele>111</ele>
        <time>2011-09-25T08:56:59Z</time>
      </trkpt>
      <trkpt lat="49.00141" lon="1.1203">
        <ele>111</ele>
        <time>2011-09-25T08:57:01Z</time>
      </trkpt>
      <trkpt lat="49.00137" lon="1.12025">
        <ele>111</ele>
        <time>2011-09-25T08:57:03Z</time>
      </trkpt>
      <trkpt lat="49.00134" lon="1.12019">
        <ele>111</ele>
        <time>2011-09-25T08:57:05Z</time>
      </trkpt>
      <trkpt lat="49.00131" lon="1.12012">
        <ele>111</ele>
        <time>2011-09-25T08:57:07Z</time>
      </trkpt>
      <trkpt lat="49.00127" lon="1.12007">
        <ele>111</ele>
        <time>2011-09-25T08:57:09Z</time>
      </trkpt>
      <trkpt lat="49.00123" lon="1.12002">
        <ele>111</ele>
        <time>2011-09-25T08:57:11Z</time>
      </trkpt>
      <trkpt lat="49.00119" lon="1.12">
        <ele>111</ele>
        <time>2011-09-25T08:57:13Z</time>
      </trkpt>
      <trkpt lat="49.00113" lon="1.11994">
        <ele>112</ele>
        <time>2011-09-25T08:57:16Z</time>
      </trkpt>
      <trkpt lat="49.00109" lon="1.11988">
        <ele>113</ele>
        <time>2011-09-25T08:57:18Z</time>
      </trkpt>
      <trkpt lat="49.00099" lon="1.11982">
        <ele>113</ele>
        <time>2011-09-25T08:57:20Z</time>
      </trkpt>
      <trkpt lat="49.00091" lon="1.11978">
        <ele>113</ele>
        <time>2011-09-25T08:57:21Z</time>
      </trkpt>
      <trkpt lat="49.00083" lon="1.11976">
        <ele>114</ele>
        <time>2011-09-25T08:57:22Z</time>
      </trkpt>
      <trkpt lat="49.00076" lon="1.11974">
        <ele>114</ele>
        <time>2011-09-25T08:57:23Z</time>
      </trkpt>
      <trkpt lat="49.00068" lon="1.11974">
        <ele>115</ele>
        <time>2011-09-25T08:57:24Z</time>
      </trkpt>
      <trkpt lat="49.00062" lon="1.11973">
        <ele>115</ele>
        <time>2011-09-25T08:57:25Z</time>
      </trkpt>
      <trkpt lat="49.00056" lon="1.11974">
        <ele>115</ele>
        <time>2011-09-25T08:57:26Z</time>
      </trkpt>
      <trkpt lat="49.0005" lon="1.11973">
        <ele>115</ele>
        <time>2011-09-25T08:57:27Z</time>
      </trkpt>
      <trkpt lat="49.00046" lon="1.11972">
        <ele>115</ele>
        <time>2011-09-25T08:57:28Z</time>
      </trkpt>
      <trkpt lat="49.00038" lon="1.1197">
        <ele>116</ele>
        <time>2011-09-25T08:57:30Z</time>
      </trkpt>
      <trkpt lat="49.00029" lon="1.11967">
        <ele>116</ele>
        <time>2011-09-25T08:57:32Z</time>
      </trkpt>
      <trkpt lat="49.00022" lon="1.11964">
        <ele>116</ele>
        <time>2011-09-25T08:57:34Z</time>
      </trkpt>
      <trkpt lat="49.00015" lon="1.11961">
        <ele>116</ele>
        <time>2011-09-25T08:57:36Z</time>
      </trkpt>
      <trkpt lat="49.00008" lon="1.11957">
        <ele>116</ele>
        <time>2011-09-25T08:57:38Z</time>
      </trkpt>
      <trkpt lat="49" lon="1.11954">
        <ele>117</ele>
        <time>2011-09-25T08:57:40Z</time>
      </trkpt>
      <trkpt lat="48.99992" lon="1.11949">
        <ele>119</ele>
        <time>2011-09-25T08:57:42Z</time>
      </trkpt>
      <trkpt lat="48.99984" lon="1.11944">
        <ele>119</ele>
        <time>2011-09-25T08:57:44Z</time>
      </trkpt>
      <trkpt lat="48.99978" lon="1.11942">
        <ele>119</ele>
        <time>2011-09-25T08:57:45Z</time>
      </trkpt>
      <trkpt lat="48.99973" lon="1.1194">
        <ele>120</ele>
        <time>2011-09-25T08:57:46Z</time>
      </trkpt>
      <trkpt lat="48.99968" lon="1.11938">
        <ele>120</ele>
        <time>2011-09-25T08:57:47Z</time>
      </trkpt>
      <trkpt lat="48.99961" lon="1.11935">
        <ele>120</ele>
        <time>2011-09-25T08:57:49Z</time>
      </trkpt>
      <trkpt lat="48.99954" lon="1.11932">
        <ele>120</ele>
        <time>2011-09-25T08:57:51Z</time>
      </trkpt>
      <trkpt lat="48.99947" lon="1.1193">
        <ele>121</ele>
        <time>2011-09-25T08:57:53Z</time>
      </trkpt>
      <trkpt lat="48.99941" lon="1.11926">
        <ele>121</ele>
        <time>2011-09-25T08:57:55Z</time>
      </trkpt>
      <trkpt lat="48.99935" lon="1.11921">
        <ele>122</ele>
        <time>2011-09-25T08:57:57Z</time>
      </trkpt>
      <trkpt lat="48.99929" lon="1.11916">
        <ele>122</ele>
        <time>2011-09-25T08:57:59Z</time>
      </trkpt>
      <trkpt lat="48.99923" lon="1.1191">
        <ele>123</ele>
        <time>2011-09-25T08:58:01Z</time>
      </trkpt>
      <trkpt lat="48.99917" lon="1.11904">
        <ele>123</ele>
        <time>2011-09-25T08:58:03Z</time>
      </trkpt>
      <trkpt lat="48.9991" lon="1.119">
        <ele>123</ele>
        <time>2011-09-25T08:58:05Z</time>
      </trkpt>
      <trkpt lat="48.99904" lon="1.11894">
        <ele>123</ele>
        <time>2011-09-25T08:58:07Z</time>
      </trkpt>
      <trkpt lat="48.99897" lon="1.11889">
        <ele>123</ele>
        <time>2011-09-25T08:58:09Z</time>
      </trkpt>
      <trkpt lat="48.99891" lon="1.11884">
        <ele>123</ele>
        <time>2011-09-25T08:58:11Z</time>
      </trkpt>
      <trkpt lat="48.99884" lon="1.1188">
        <ele>123</ele>
        <time>2011-09-25T08:58:13Z</time>
      </trkpt>
      <trkpt lat="48.99877" lon="1.11875">
        <ele>123</ele>
        <time>2011-09-25T08:58:15Z</time>
      </trkpt>
      <trkpt lat="48.99869" lon="1.11872">
        <ele>123</ele>
        <time>2011-09-25T08:58:17Z</time>
      </trkpt>
      <trkpt lat="48.99861" lon="1.1187">
        <ele>123</ele>
        <time>2011-09-25T08:58:19Z</time>
      </trkpt>
      <trkpt lat="48.99854" lon="1.11869">
        <ele>123</ele>
        <time>2011-09-25T08:58:21Z</time>
      </trkpt>
      <trkpt lat="48.99848" lon="1.11868">
        <ele>123</ele>
        <time>2011-09-25T08:58:23Z</time>
      </trkpt>
      <trkpt lat="48.99842" lon="1.11868">
        <ele>123</ele>
        <time>2011-09-25T08:58:25Z</time>
      </trkpt>
      <trkpt lat="48.99836" lon="1.11868">
        <ele>123</ele>
        <time>2011-09-25T08:58:27Z</time>
      </trkpt>
      <trkpt lat="48.9983" lon="1.11869">
        <ele>123</ele>
        <time>2011-09-25T08:58:29Z</time>
      </trkpt>
      <trkpt lat="48.99824" lon="1.11869">
        <ele>123</ele>
        <time>2011-09-25T08:58:31Z</time>
      </trkpt>
      <trkpt lat="48.99819" lon="1.11868">
        <ele>123</ele>
        <time>2011-09-25T08:58:33Z</time>
      </trkpt>
      <trkpt lat="48.99811" lon="1.11868">
        <ele>123</ele>
        <time>2011-09-25T08:58:35Z</time>
      </trkpt>
      <trkpt lat="48.99804" lon="1.1187">
        <ele>123</ele>
        <time>2011-09-25T08:58:37Z</time>
      </trkpt>
      <trkpt lat="48.99797" lon="1.11872">
        <ele>123</ele>
        <time>2011-09-25T08:58:39Z</time>
      </trkpt>
      <trkpt lat="48.9979" lon="1.11871">
        <ele>124</ele>
        <time>2011-09-25T08:58:41Z</time>
      </trkpt>
      <trkpt lat="48.99784" lon="1.11868">
        <ele>124</ele>
        <time>2011-09-25T08:58:43Z</time>
      </trkpt>
      <trkpt lat="48.99778" lon="1.11864">
        <ele>124</ele>
        <time>2011-09-25T08:58:45Z</time>
      </trkpt>
      <trkpt lat="48.99774" lon="1.11863">
        <ele>124</ele>
        <time>2011-09-25T08:58:47Z</time>
      </trkpt>
      <trkpt lat="48.99768" lon="1.11864">
        <ele>124</ele>
        <time>2011-09-25T08:58:49Z</time>
      </trkpt>
      <trkpt lat="48.99763" lon="1.11873">
        <ele>124</ele>
        <time>2011-09-25T08:58:51Z</time>
      </trkpt>
      <trkpt lat="48.99758" lon="1.11881">
        <ele>124</ele>
        <time>2011-09-25T08:58:53Z</time>
      </trkpt>
      <trkpt lat="48.99754" lon="1.11888">
        <ele>124</ele>
        <time>2011-09-25T08:58:55Z</time>
      </trkpt>
      <trkpt lat="48.99748" lon="1.11892">
        <ele>124</ele>
        <time>2011-09-25T08:58:57Z</time>
      </trkpt>
      <trkpt lat="48.99742" lon="1.11894">
        <ele>124</ele>
        <time>2011-09-25T08:58:59Z</time>
      </trkpt>
      <trkpt lat="48.99737" lon="1.11895">
        <ele>124</ele>
        <time>2011-09-25T08:59:01Z</time>
      </trkpt>
      <trkpt lat="48.99731" lon="1.11898">
        <ele>124</ele>
        <time>2011-09-25T08:59:03Z</time>
      </trkpt>
      <trkpt lat="48.99726" lon="1.11899">
        <ele>124</ele>
        <time>2011-09-25T08:59:04Z</time>
      </trkpt>
      <trkpt lat="48.9972" lon="1.11901">
        <ele>124</ele>
        <time>2011-09-25T08:59:06Z</time>
      </trkpt>
      <trkpt lat="48.99715" lon="1.11901">
        <ele>124</ele>
        <time>2011-09-25T08:59:08Z</time>
      </trkpt>
      <trkpt lat="48.99708" lon="1.11902">
        <ele>124</ele>
        <time>2011-09-25T08:59:11Z</time>
      </trkpt>
      <trkpt lat="48.99702" lon="1.11904">
        <ele>124</ele>
        <time>2011-09-25T08:59:14Z</time>
      </trkpt>
      <trkpt lat="48.99695" lon="1.11905">
        <ele>124</ele>
        <time>2011-09-25T08:59:18Z</time>
      </trkpt>
      <trkpt lat="48.99688" lon="1.11905">
        <ele>124</ele>
        <time>2011-09-25T08:59:21Z</time>
      </trkpt>
      <trkpt lat="48.99682" lon="1.11906">
        <ele>124</ele>
        <time>2011-09-25T08:59:24Z</time>
      </trkpt>
      <trkpt lat="48.99675" lon="1.11902">
        <ele>124</ele>
        <time>2011-09-25T08:59:26Z</time>
      </trkpt>
      <trkpt lat="48.99667" lon="1.11898">
        <ele>124</ele>
        <time>2011-09-25T08:59:28Z</time>
      </trkpt>
      <trkpt lat="48.99659" lon="1.11891">
        <ele>124</ele>
        <time>2011-09-25T08:59:30Z</time>
      </trkpt>
      <trkpt lat="48.99655" lon="1.11887">
        <ele>124</ele>
        <time>2011-09-25T08:59:31Z</time>
      </trkpt>
      <trkpt lat="48.99651" lon="1.11884">
        <ele>124</ele>
        <time>2011-09-25T08:59:32Z</time>
      </trkpt>
      <trkpt lat="48.99643" lon="1.11879">
        <ele>124</ele>
        <time>2011-09-25T08:59:34Z</time>
      </trkpt>
      <trkpt lat="48.99638" lon="1.11876">
        <ele>124</ele>
        <time>2011-09-25T08:59:35Z</time>
      </trkpt>
      <trkpt lat="48.99632" lon="1.11874">
        <ele>125</ele>
        <time>2011-09-25T08:59:36Z</time>
      </trkpt>
      <trkpt lat="48.99626" lon="1.11872">
        <ele>125</ele>
        <time>2011-09-25T08:59:37Z</time>
      </trkpt>
      <trkpt lat="48.9962" lon="1.11871">
        <ele>125</ele>
        <time>2011-09-25T08:59:38Z</time>
      </trkpt>
      <trkpt lat="48.99615" lon="1.1187">
        <ele>125</ele>
        <time>2011-09-25T08:59:39Z</time>
      </trkpt>
      <trkpt lat="48.99609" lon="1.1187">
        <ele>125</ele>
        <time>2011-09-25T08:59:40Z</time>
      </trkpt>
      <trkpt lat="48.996" lon="1.11869">
        <ele>125</ele>
        <time>2011-09-25T08:59:42Z</time>
      </trkpt>
      <trkpt lat="48.99594" lon="1.11869">
        <ele>125</ele>
        <time>2011-09-25T08:59:43Z</time>
      </trkpt>
      <trkpt lat="48.99586" lon="1.1187">
        <ele>125</ele>
        <time>2011-09-25T08:59:45Z</time>
      </trkpt>
      <trkpt lat="48.9958" lon="1.1187">
        <ele>126</ele>
        <time>2011-09-25T08:59:47Z</time>
      </trkpt>
      <trkpt lat="48.99574" lon="1.11871">
        <ele>126</ele>
        <time>2011-09-25T08:59:49Z</time>
      </trkpt>
      <trkpt lat="48.99567" lon="1.11871">
        <ele>126</ele>
        <time>2011-09-25T08:59:51Z</time>
      </trkpt>
      <trkpt lat="48.99561" lon="1.11873">
        <ele>126</ele>
        <time>2011-09-25T08:59:52Z</time>
      </trkpt>
      <trkpt lat="48.99556" lon="1.11875">
        <ele>126</ele>
        <time>2011-09-25T08:59:53Z</time>
      </trkpt>
      <trkpt lat="48.9955" lon="1.11876">
        <ele>126</ele>
        <time>2011-09-25T08:59:54Z</time>
      </trkpt>
      <trkpt lat="48.99545" lon="1.11879">
        <ele>126</ele>
        <time>2011-09-25T08:59:55Z</time>
      </trkpt>
      <trkpt lat="48.9954" lon="1.11881">
        <ele>126</ele>
        <time>2011-09-25T08:59:56Z</time>
      </trkpt>
      <trkpt lat="48.99536" lon="1.11883">
        <ele>126</ele>
        <time>2011-09-25T08:59:57Z</time>
      </trkpt>
      <trkpt lat="48.99529" lon="1.11888">
        <ele>126</ele>
        <time>2011-09-25T08:59:59Z</time>
      </trkpt>
      <trkpt lat="48.99524" lon="1.11894">
        <ele>126</ele>
        <time>2011-09-25T09:00:01Z</time>
      </trkpt>
      <trkpt lat="48.99516" lon="1.11898">
        <ele>127</ele>
        <time>2011-09-25T09:00:03Z</time>
      </trkpt>
      <trkpt lat="48.99509" lon="1.11903">
        <ele>127</ele>
        <time>2011-09-25T09:00:05Z</time>
      </trkpt>
      <trkpt lat="48.99502" lon="1.11908">
        <ele>127</ele>
        <time>2011-09-25T09:00:07Z</time>
      </trkpt>
      <trkpt lat="48.99496" lon="1.11915">
        <ele>127</ele>
        <time>2011-09-25T09:00:09Z</time>
      </trkpt>
      <trkpt lat="48.9949" lon="1.11923">
        <ele>127</ele>
        <time>2011-09-25T09:00:11Z</time>
      </trkpt>
      <trkpt lat="48.99484" lon="1.1193">
        <ele>127</ele>
        <time>2011-09-25T09:00:13Z</time>
      </trkpt>
      <trkpt lat="48.99479" lon="1.11938">
        <ele>127</ele>
        <time>2011-09-25T09:00:15Z</time>
      </trkpt>
      <trkpt lat="48.99474" lon="1.11945">
        <ele>127</ele>
        <time>2011-09-25T09:00:17Z</time>
      </trkpt>
      <trkpt lat="48.99468" lon="1.11953">
        <ele>127</ele>
        <time>2011-09-25T09:00:19Z</time>
      </trkpt>
      <trkpt lat="48.99464" lon="1.1196">
        <ele>127</ele>
        <time>2011-09-25T09:00:21Z</time>
      </trkpt>
      <trkpt lat="48.99459" lon="1.11964">
        <ele>127</ele>
        <time>2011-09-25T09:00:22Z</time>
      </trkpt>
      <trkpt lat="48.99454" lon="1.11967">
        <ele>127</ele>
        <time>2011-09-25T09:00:23Z</time>
      </trkpt>
      <trkpt lat="48.9945" lon="1.11971">
        <ele>127</ele>
        <time>2011-09-25T09:00:24Z</time>
      </trkpt>
      <trkpt lat="48.99444" lon="1.11978">
        <ele>127</ele>
        <time>2011-09-25T09:00:26Z</time>
      </trkpt>
      <trkpt lat="48.99439" lon="1.11983">
        <ele>127</ele>
        <time>2011-09-25T09:00:27Z</time>
      </trkpt>
      <trkpt lat="48.99434" lon="1.11987">
        <ele>126</ele>
        <time>2011-09-25T09:00:28Z</time>
      </trkpt>
      <trkpt lat="48.9943" lon="1.11992">
        <ele>126</ele>
        <time>2011-09-25T09:00:29Z</time>
      </trkpt>
      <trkpt lat="48.99426" lon="1.11996">
        <ele>126</ele>
        <time>2011-09-25T09:00:30Z</time>
      </trkpt>
      <trkpt lat="48.99422" lon="1.12001">
        <ele>127</ele>
        <time>2011-09-25T09:00:31Z</time>
      </trkpt>
      <trkpt lat="48.99416" lon="1.12011">
        <ele>126</ele>
        <time>2011-09-25T09:00:33Z</time>
      </trkpt>
      <trkpt lat="48.99411" lon="1.1202">
        <ele>127</ele>
        <time>2011-09-25T09:00:35Z</time>
      </trkpt>
      <trkpt lat="48.99405" lon="1.12029">
        <ele>127</ele>
        <time>2011-09-25T09:00:37Z</time>
      </trkpt>
      <trkpt lat="48.994" lon="1.12033">
        <ele>127</ele>
        <time>2011-09-25T09:00:38Z</time>
      </trkpt>
      <trkpt lat="48.99393" lon="1.1204">
        <ele>127</ele>
        <time>2011-09-25T09:00:40Z</time>
      </trkpt>
      <trkpt lat="48.99386" lon="1.12047">
        <ele>127</ele>
        <time>2011-09-25T09:00:42Z</time>
      </trkpt>
      <trkpt lat="48.9938" lon="1.12055">
        <ele>127</ele>
        <time>2011-09-25T09:00:44Z</time>
      </trkpt>
      <trkpt lat="48.99375" lon="1.12063">
        <ele>127</ele>
        <time>2011-09-25T09:00:46Z</time>
      </trkpt>
      <trkpt lat="48.9937" lon="1.12071">
        <ele>127</ele>
        <time>2011-09-25T09:00:48Z</time>
      </trkpt>
      <trkpt lat="48.99368" lon="1.12079">
        <ele>127</ele>
        <time>2011-09-25T09:00:50Z</time>
      </trkpt>
      <trkpt lat="48.99365" lon="1.12087">
        <ele>128</ele>
        <time>2011-09-25T09:00:52Z</time>
      </trkpt>
      <trkpt lat="48.99361" lon="1.12095">
        <ele>128</ele>
        <time>2011-09-25T09:00:54Z</time>
      </trkpt>
      <trkpt lat="48.99358" lon="1.12103">
        <ele>128</ele>
        <time>2011-09-25T09:00:56Z</time>
      </trkpt>
      <trkpt lat="48.99354" lon="1.12114">
        <ele>128</ele>
        <time>2011-09-25T09:00:58Z</time>
      </trkpt>
      <trkpt lat="48.99351" lon="1.12121">
        <ele>128</ele>
        <time>2011-09-25T09:00:59Z</time>
      </trkpt>
      <trkpt lat="48.99345" lon="1.12129">
        <ele>128</ele>
        <time>2011-09-25T09:01:00Z</time>
      </trkpt>
      <trkpt lat="48.9934" lon="1.12136">
        <ele>128</ele>
        <time>2011-09-25T09:01:01Z</time>
      </trkpt>
      <trkpt lat="48.99336" lon="1.12145">
        <ele>128</ele>
        <time>2011-09-25T09:01:02Z</time>
      </trkpt>
      <trkpt lat="48.9933" lon="1.12154">
        <ele>127</ele>
        <time>2011-09-25T09:01:03Z</time>
      </trkpt>
      <trkpt lat="48.99324" lon="1.12163">
        <ele>128</ele>
        <time>2011-09-25T09:01:04Z</time>
      </trkpt>
      <trkpt lat="48.9932" lon="1.12172">
        <ele>128</ele>
        <time>2011-09-25T09:01:05Z</time>
      </trkpt>
      <trkpt lat="48.99316" lon="1.12179">
        <ele>128</ele>
        <time>2011-09-25T09:01:06Z</time>
      </trkpt>
      <trkpt lat="48.99312" lon="1.12186">
        <ele>128</ele>
        <time>2011-09-25T09:01:07Z</time>
      </trkpt>
      <trkpt lat="48.9931" lon="1.12192">
        <ele>128</ele>
        <time>2011-09-25T09:01:08Z</time>
      </trkpt>
      <trkpt lat="48.99307" lon="1.12198">
        <ele>128</ele>
        <time>2011-09-25T09:01:09Z</time>
      </trkpt>
      <trkpt lat="48.99303" lon="1.12203">
        <ele>128</ele>
        <time>2011-09-25T09:01:10Z</time>
      </trkpt>
      <trkpt lat="48.99299" lon="1.12207">
        <ele>128</ele>
        <time>2011-09-25T09:01:11Z</time>
      </trkpt>
      <trkpt lat="48.99294" lon="1.12217">
        <ele>128</ele>
        <time>2011-09-25T09:01:13Z</time>
      </trkpt>
      <trkpt lat="48.9929" lon="1.12226">
        <ele>128</ele>
        <time>2011-09-25T09:01:15Z</time>
      </trkpt>
      <trkpt lat="48.99286" lon="1.12237">
        <ele>128</ele>
        <time>2011-09-25T09:01:17Z</time>
      </trkpt>
      <trkpt lat="48.99282" lon="1.12248">
        <ele>128</ele>
        <time>2011-09-25T09:01:19Z</time>
      </trkpt>
      <trkpt lat="48.99277" lon="1.1226">
        <ele>129</ele>
        <time>2011-09-25T09:01:21Z</time>
      </trkpt>
      <trkpt lat="48.99274" lon="1.12272">
        <ele>129</ele>
        <time>2011-09-25T09:01:23Z</time>
      </trkpt>
      <trkpt lat="48.99272" lon="1.12285">
        <ele>129</ele>
        <time>2011-09-25T09:01:25Z</time>
      </trkpt>
      <trkpt lat="48.99269" lon="1.12297">
        <ele>130</ele>
        <time>2011-09-25T09:01:27Z</time>
      </trkpt>
      <trkpt lat="48.99267" lon="1.12309">
        <ele>130</ele>
        <time>2011-09-25T09:01:29Z</time>
      </trkpt>
      <trkpt lat="48.99265" lon="1.12322">
        <ele>130</ele>
        <time>2011-09-25T09:01:31Z</time>
      </trkpt>
      <trkpt lat="48.99264" lon="1.12333">
        <ele>130</ele>
        <time>2011-09-25T09:01:33Z</time>
      </trkpt>
      <trkpt lat="48.99264" lon="1.12344">
        <ele>131</ele>
        <time>2011-09-25T09:01:35Z</time>
      </trkpt>
      <trkpt lat="48.99263" lon="1.12357">
        <ele>131</ele>
        <time>2011-09-25T09:01:37Z</time>
      </trkpt>
      <trkpt lat="48.99263" lon="1.12369">
        <ele>131</ele>
        <time>2011-09-25T09:01:39Z</time>
      </trkpt>
      <trkpt lat="48.99262" lon="1.12382">
        <ele>131</ele>
        <time>2011-09-25T09:01:41Z</time>
      </trkpt>
      <trkpt lat="48.99261" lon="1.12395">
        <ele>130</ele>
        <time>2011-09-25T09:01:43Z</time>
      </trkpt>
      <trkpt lat="48.99261" lon="1.1241">
        <ele>130</ele>
        <time>2011-09-25T09:01:45Z</time>
      </trkpt>
      <trkpt lat="48.9926" lon="1.12418">
        <ele>130</ele>
        <time>2011-09-25T09:01:46Z</time>
      </trkpt>
      <trkpt lat="48.99258" lon="1.12426">
        <ele>130</ele>
        <time>2011-09-25T09:01:47Z</time>
      </trkpt>
      <trkpt lat="48.99258" lon="1.12434">
        <ele>130</ele>
        <time>2011-09-25T09:01:48Z</time>
      </trkpt>
      <trkpt lat="48.99256" lon="1.12442">
        <ele>130</ele>
        <time>2011-09-25T09:01:49Z</time>
      </trkpt>
      <trkpt lat="48.99254" lon="1.1245">
        <ele>130</ele>
        <time>2011-09-25T09:01:50Z</time>
      </trkpt>
      <trkpt lat="48.99251" lon="1.12458">
        <ele>130</ele>
        <time>2011-09-25T09:01:51Z</time>
      </trkpt>
      <trkpt lat="48.99249" lon="1.12465">
        <ele>128</ele>
        <time>2011-09-25T09:01:52Z</time>
      </trkpt>
      <trkpt lat="48.99247" lon="1.12472">
        <ele>128</ele>
        <time>2011-09-25T09:01:53Z</time>
      </trkpt>
      <trkpt lat="48.99246" lon="1.12479">
        <ele>128</ele>
        <time>2011-09-25T09:01:54Z</time>
      </trkpt>
      <trkpt lat="48.99245" lon="1.12486">
        <ele>128</ele>
        <time>2011-09-25T09:01:55Z</time>
      </trkpt>
      <trkpt lat="48.99245" lon="1.12493">
        <ele>128</ele>
        <time>2011-09-25T09:01:56Z</time>
      </trkpt>
      <trkpt lat="48.99243" lon="1.12501">
        <ele>128</ele>
        <time>2011-09-25T09:01:57Z</time>
      </trkpt>
      <trkpt lat="48.99241" lon="1.12509">
        <ele>128</ele>
        <time>2011-09-25T09:01:58Z</time>
      </trkpt>
      <trkpt lat="48.99241" lon="1.12516">
        <ele>128</ele>
        <time>2011-09-25T09:01:59Z</time>
      </trkpt>
      <trkpt lat="48.9924" lon="1.12523">
        <ele>128</ele>
        <time>2011-09-25T09:02:00Z</time>
      </trkpt>
      <trkpt lat="48.9924" lon="1.1253">
        <ele>128</ele>
        <time>2011-09-25T09:02:01Z</time>
      </trkpt>
      <trkpt lat="48.99239" lon="1.12537">
        <ele>128</ele>
        <time>2011-09-25T09:02:02Z</time>
      </trkpt>
      <trkpt lat="48.99238" lon="1.12544">
        <ele>129</ele>
        <time>2011-09-25T09:02:03Z</time>
      </trkpt>
      <trkpt lat="48.99238" lon="1.12551">
        <ele>129</ele>
        <time>2011-09-25T09:02:04Z</time>
      </trkpt>
      <trkpt lat="48.99238" lon="1.12558">
        <ele>129</ele>
        <time>2011-09-25T09:02:05Z</time>
      </trkpt>
      <trkpt lat="48.99238" lon="1.12565">
        <ele>129</ele>
        <time>2011-09-25T09:02:06Z</time>
      </trkpt>
      <trkpt lat="48.99238" lon="1.12572">
        <ele>129</ele>
        <time>2011-09-25T09:02:07Z</time>
      </trkpt>
      <trkpt lat="48.99238" lon="1.12579">
        <ele>129</ele>
        <time>2011-09-25T09:02:08Z</time>
      </trkpt>
      <trkpt lat="48.99238" lon="1.12587">
        <ele>129</ele>
        <time>2011-09-25T09:02:09Z</time>
      </trkpt>
      <trkpt lat="48.99238" lon="1.12594">
        <ele>129</ele>
        <time>2011-09-25T09:02:10Z</time>
      </trkpt>
      <trkpt lat="48.99237" lon="1.12601">
        <ele>129</ele>
        <time>2011-09-25T09:02:11Z</time>
      </trkpt>
      <trkpt lat="48.99236" lon="1.12608">
        <ele>130</ele>
        <time>2011-09-25T09:02:12Z</time>
      </trkpt>
      <trkpt lat="48.99236" lon="1.12616">
        <ele>130</ele>
        <time>2011-09-25T09:02:13Z</time>
      </trkpt>
      <trkpt lat="48.99234" lon="1.12623">
        <ele>130</ele>
        <time>2011-09-25T09:02:14Z</time>
      </trkpt>
      <trkpt lat="48.99234" lon="1.1263">
        <ele>130</ele>
        <time>2011-09-25T09:02:15Z</time>
      </trkpt>
      <trkpt lat="48.99234" lon="1.12637">
        <ele>130</ele>
        <time>2011-09-25T09:02:16Z</time>
      </trkpt>
      <trkpt lat="48.99234" lon="1.12645">
        <ele>130</ele>
        <time>2011-09-25T09:02:17Z</time>
      </trkpt>
      <trkpt lat="48.99233" lon="1.12652">
        <ele>130</ele>
        <time>2011-09-25T09:02:18Z</time>
      </trkpt>
      <trkpt lat="48.99234" lon="1.12659">
        <ele>130</ele>
        <time>2011-09-25T09:02:19Z</time>
      </trkpt>
      <trkpt lat="48.99234" lon="1.12666">
        <ele>130</ele>
        <time>2011-09-25T09:02:20Z</time>
      </trkpt>
      <trkpt lat="48.99234" lon="1.12674">
        <ele>130</ele>
        <time>2011-09-25T09:02:21Z</time>
      </trkpt>
      <trkpt lat="48.99234" lon="1.12682">
        <ele>130</ele>
        <time>2011-09-25T09:02:22Z</time>
      </trkpt>
      <trkpt lat="48.99234" lon="1.1269">
        <ele>130</ele>
        <time>2011-09-25T09:02:23Z</time>
      </trkpt>
      <trkpt lat="48.99236" lon="1.12702">
        <ele>131</ele>
        <time>2011-09-25T09:02:25Z</time>
      </trkpt>
      <trkpt lat="48.99237" lon="1.12714">
        <ele>131</ele>
        <time>2011-09-25T09:02:27Z</time>
      </trkpt>
      <trkpt lat="48.99235" lon="1.12725">
        <ele>131</ele>
        <time>2011-09-25T09:02:29Z</time>
      </trkpt>
      <trkpt lat="48.99231" lon="1.12731">
        <ele>131</ele>
        <time>2011-09-25T09:02:31Z</time>
      </trkpt>
      <trkpt lat="48.99225" lon="1.12735">
        <ele>131</ele>
        <time>2011-09-25T09:02:34Z</time>
      </trkpt>
      <trkpt lat="48.99219" lon="1.12733">
        <ele>131</ele>
        <time>2011-09-25T09:02:36Z</time>
      </trkpt>
      <trkpt lat="48.99212" lon="1.12732">
        <ele>131</ele>
        <time>2011-09-25T09:02:39Z</time>
      </trkpt>
      <trkpt lat="48.99207" lon="1.12731">
        <ele>131</ele>
        <time>2011-09-25T09:02:41Z</time>
      </trkpt>
      <trkpt lat="48.99201" lon="1.12731">
        <ele>131</ele>
        <time>2011-09-25T09:02:43Z</time>
      </trkpt>
      <trkpt lat="48.9919" lon="1.1273">
        <ele>131</ele>
        <time>2011-09-25T09:02:46Z</time>
      </trkpt>
      <trkpt lat="48.9919" lon="1.1273">
        <ele>131</ele>
        <time>2011-09-25T09:02:46Z</time>
      </trkpt>
      <trkpt lat="48.9919" lon="1.1273">
        <ele>131</ele>
        <time>2011-09-25T09:02:47Z</time>
      </trkpt>
      <trkpt lat="48.99184" lon="1.1273">
        <ele>131</ele>
        <time>2011-09-25T09:02:48Z</time>
      </trkpt>
      <trkpt lat="48.99175" lon="1.1273">
        <ele>131</ele>
        <time>2011-09-25T09:02:50Z</time>
      </trkpt>
      <trkpt lat="48.99168" lon="1.1273">
        <ele>131</ele>
        <time>2011-09-25T09:02:52Z</time>
      </trkpt>
      <trkpt lat="48.9916" lon="1.12724">
        <ele>134</ele>
        <time>2011-09-25T09:02:54Z</time>
      </trkpt>
      <trkpt lat="48.99156" lon="1.12718">
        <ele>134</ele>
        <time>2011-09-25T09:02:55Z</time>
      </trkpt>
      <trkpt lat="48.99153" lon="1.12706">
        <ele>134</ele>
        <time>2011-09-25T09:02:57Z</time>
      </trkpt>
      <trkpt lat="48.99148" lon="1.12695">
        <ele>134</ele>
        <time>2011-09-25T09:02:59Z</time>
      </trkpt>
      <trkpt lat="48.99145" lon="1.12689">
        <ele>134</ele>
        <time>2011-09-25T09:03:00Z</time>
      </trkpt>
      <trkpt lat="48.99143" lon="1.12683">
        <ele>134</ele>
        <time>2011-09-25T09:03:01Z</time>
      </trkpt>
      <trkpt lat="48.99141" lon="1.12676">
        <ele>134</ele>
        <time>2011-09-25T09:03:02Z</time>
      </trkpt>
      <trkpt lat="48.99138" lon="1.1267">
        <ele>134</ele>
        <time>2011-09-25T09:03:03Z</time>
      </trkpt>
      <trkpt lat="48.99136" lon="1.12664">
        <ele>133</ele>
        <time>2011-09-25T09:03:04Z</time>
      </trkpt>
      <trkpt lat="48.99133" lon="1.12657">
        <ele>134</ele>
        <time>2011-09-25T09:03:05Z</time>
      </trkpt>
      <trkpt lat="48.9913" lon="1.1265">
        <ele>134</ele>
        <time>2011-09-25T09:03:06Z</time>
      </trkpt>
      <trkpt lat="48.99127" lon="1.12644">
        <ele>134</ele>
        <time>2011-09-25T09:03:07Z</time>
      </trkpt>
      <trkpt lat="48.99123" lon="1.12638">
        <ele>134</ele>
        <time>2011-09-25T09:03:08Z</time>
      </trkpt>
      <trkpt lat="48.9912" lon="1.12632">
        <ele>134</ele>
        <time>2011-09-25T09:03:09Z</time>
      </trkpt>
      <trkpt lat="48.99117" lon="1.12626">
        <ele>134</ele>
        <time>2011-09-25T09:03:10Z</time>
      </trkpt>
      <trkpt lat="48.99115" lon="1.12619">
        <ele>134</ele>
        <time>2011-09-25T09:03:11Z</time>
      </trkpt>
      <trkpt lat="48.99112" lon="1.12611">
        <ele>134</ele>
        <time>2011-09-25T09:03:12Z</time>
      </trkpt>
      <trkpt lat="48.99109" lon="1.12604">
        <ele>134</ele>
        <time>2011-09-25T09:03:13Z</time>
      </trkpt>
      <trkpt lat="48.99105" lon="1.12597">
        <ele>134</ele>
        <time>2011-09-25T09:03:14Z</time>
      </trkpt>
      <trkpt lat="48.99101" lon="1.1259">
        <ele>135</ele>
        <time>2011-09-25T09:03:15Z</time>
      </trkpt>
      <trkpt lat="48.99098" lon="1.12583">
        <ele>134</ele>
        <time>2011-09-25T09:03:16Z</time>
      </trkpt>
      <trkpt lat="48.99096" lon="1.12577">
        <ele>134</ele>
        <time>2011-09-25T09:03:17Z</time>
      </trkpt>
      <trkpt lat="48.99093" lon="1.1257">
        <ele>134</ele>
        <time>2011-09-25T09:03:18Z</time>
      </trkpt>
      <trkpt lat="48.9909" lon="1.12564">
        <ele>133</ele>
        <time>2011-09-25T09:03:19Z</time>
      </trkpt>
      <trkpt lat="48.99088" lon="1.12558">
        <ele>133</ele>
        <time>2011-09-25T09:03:20Z</time>
      </trkpt>
      <trkpt lat="48.99084" lon="1.12546">
        <ele>132</ele>
        <time>2011-09-25T09:03:22Z</time>
      </trkpt>
      <trkpt lat="48.99082" lon="1.12539">
        <ele>136</ele>
        <time>2011-09-25T09:03:23Z</time>
      </trkpt>
      <trkpt lat="48.9908" lon="1.12532">
        <ele>135</ele>
        <time>2011-09-25T09:03:24Z</time>
      </trkpt>
      <trkpt lat="48.99078" lon="1.12524">
        <ele>135</ele>
        <time>2011-09-25T09:03:25Z</time>
      </trkpt>
      <trkpt lat="48.99076" lon="1.12517">
        <ele>134</ele>
        <time>2011-09-25T09:03:26Z</time>
      </trkpt>
      <trkpt lat="48.99074" lon="1.1251">
        <ele>134</ele>
        <time>2011-09-25T09:03:27Z</time>
      </trkpt>
      <trkpt lat="48.99072" lon="1.12504">
        <ele>134</ele>
        <time>2011-09-25T09:03:28Z</time>
      </trkpt>
      <trkpt lat="48.99071" lon="1.12496">
        <ele>133</ele>
        <time>2011-09-25T09:03:29Z</time>
      </trkpt>
      <trkpt lat="48.99069" lon="1.12488">
        <ele>133</ele>
        <time>2011-09-25T09:03:30Z</time>
      </trkpt>
      <trkpt lat="48.99068" lon="1.12479">
        <ele>134</ele>
        <time>2011-09-25T09:03:31Z</time>
      </trkpt>
      <trkpt lat="48.99066" lon="1.12471">
        <ele>134</ele>
        <time>2011-09-25T09:03:32Z</time>
      </trkpt>
      <trkpt lat="48.99064" lon="1.12463">
        <ele>134</ele>
        <time>2011-09-25T09:03:33Z</time>
      </trkpt>
      <trkpt lat="48.99062" lon="1.12456">
        <ele>134</ele>
        <time>2011-09-25T09:03:34Z</time>
      </trkpt>
      <trkpt lat="48.9906" lon="1.12449">
        <ele>134</ele>
        <time>2011-09-25T09:03:35Z</time>
      </trkpt>
      <trkpt lat="48.99058" lon="1.12442">
        <ele>134</ele>
        <time>2011-09-25T09:03:36Z</time>
      </trkpt>
      <trkpt lat="48.99057" lon="1.12434">
        <ele>134</ele>
        <time>2011-09-25T09:03:37Z</time>
      </trkpt>
      <trkpt lat="48.99055" lon="1.12427">
        <ele>134</ele>
        <time>2011-09-25T09:03:38Z</time>
      </trkpt>
      <trkpt lat="48.99052" lon="1.1242">
        <ele>134</ele>
        <time>2011-09-25T09:03:39Z</time>
      </trkpt>
      <trkpt lat="48.9905" lon="1.12413">
        <ele>134</ele>
        <time>2011-09-25T09:03:40Z</time>
      </trkpt>
      <trkpt lat="48.99048" lon="1.12406">
        <ele>134</ele>
        <time>2011-09-25T09:03:41Z</time>
      </trkpt>
      <trkpt lat="48.99047" lon="1.12398">
        <ele>134</ele>
        <time>2011-09-25T09:03:42Z</time>
      </trkpt>
      <trkpt lat="48.99046" lon="1.12391">
        <ele>134</ele>
        <time>2011-09-25T09:03:43Z</time>
      </trkpt>
      <trkpt lat="48.99044" lon="1.12384">
        <ele>134</ele>
        <time>2011-09-25T09:03:44Z</time>
      </trkpt>
      <trkpt lat="48.99042" lon="1.12377">
        <ele>134</ele>
        <time>2011-09-25T09:03:45Z</time>
      </trkpt>
      <trkpt lat="48.9904" lon="1.1237">
        <ele>134</ele>
        <time>2011-09-25T09:03:46Z</time>
      </trkpt>
      <trkpt lat="48.99038" lon="1.12364">
        <ele>134</ele>
        <time>2011-09-25T09:03:47Z</time>
      </trkpt>
      <trkpt lat="48.99035" lon="1.12352">
        <ele>134</ele>
        <time>2011-09-25T09:03:49Z</time>
      </trkpt>
      <trkpt lat="48.99031" lon="1.12342">
        <ele>135</ele>
        <time>2011-09-25T09:03:51Z</time>
      </trkpt>
      <trkpt lat="48.99028" lon="1.12331">
        <ele>135</ele>
        <time>2011-09-25T09:03:53Z</time>
      </trkpt>
      <trkpt lat="48.99023" lon="1.12317">
        <ele>135</ele>
        <time>2011-09-25T09:03:55Z</time>
      </trkpt>
      <trkpt lat="48.9902" lon="1.1231">
        <ele>135</ele>
        <time>2011-09-25T09:03:56Z</time>
      </trkpt>
      <trkpt lat="48.99016" lon="1.123">
        <ele>135</ele>
        <time>2011-09-25T09:03:57Z</time>
      </trkpt>
      <trkpt lat="48.99011" lon="1.1229">
        <ele>135</ele>
        <time>2011-09-25T09:03:58Z</time>
      </trkpt>
      <trkpt lat="48.99007" lon="1.12279">
        <ele>135</ele>
        <time>2011-09-25T09:03:59Z</time>
      </trkpt>
      <trkpt lat="48.99004" lon="1.1227">
        <ele>135</ele>
        <time>2011-09-25T09:04:00Z</time>
      </trkpt>
      <trkpt lat="48.99001" lon="1.12262">
        <ele>136</ele>
        <time>2011-09-25T09:04:01Z</time>
      </trkpt>
      <trkpt lat="48.98999" lon="1.12255">
        <ele>138</ele>
        <time>2011-09-25T09:04:02Z</time>
      </trkpt>
      <trkpt lat="48.98998" lon="1.12248">
        <ele>137</ele>
        <time>2011-09-25T09:04:03Z</time>
      </trkpt>
      <trkpt lat="48.98996" lon="1.12242">
        <ele>138</ele>
        <time>2011-09-25T09:04:04Z</time>
      </trkpt>
      <trkpt lat="48.98994" lon="1.12234">
        <ele>138</ele>
        <time>2011-09-25T09:04:05Z</time>
      </trkpt>
      <trkpt lat="48.98992" lon="1.12227">
        <ele>138</ele>
        <time>2011-09-25T09:04:06Z</time>
      </trkpt>
      <trkpt lat="48.9899" lon="1.12221">
        <ele>139</ele>
        <time>2011-09-25T09:04:07Z</time>
      </trkpt>
      <trkpt lat="48.98989" lon="1.12214">
        <ele>139</ele>
        <time>2011-09-25T09:04:08Z</time>
      </trkpt>
      <trkpt lat="48.98987" lon="1.12205">
        <ele>139</ele>
        <time>2011-09-25T09:04:09Z</time>
      </trkpt>
      <trkpt lat="48.98987" lon="1.12196">
        <ele>139</ele>
        <time>2011-09-25T09:04:10Z</time>
      </trkpt>
      <trkpt lat="48.98986" lon="1.12188">
        <ele>139</ele>
        <time>2011-09-25T09:04:11Z</time>
      </trkpt>
      <trkpt lat="48.98985" lon="1.1218">
        <ele>138</ele>
        <time>2011-09-25T09:04:12Z</time>
      </trkpt>
      <trkpt lat="48.98984" lon="1.12173">
        <ele>138</ele>
        <time>2011-09-25T09:04:13Z</time>
      </trkpt>
      <trkpt lat="48.98982" lon="1.1216">
        <ele>138</ele>
        <time>2011-09-25T09:04:15Z</time>
      </trkpt>
      <trkpt lat="48.98981" lon="1.12148">
        <ele>138</ele>
        <time>2011-09-25T09:04:17Z</time>
      </trkpt>
      <trkpt lat="48.98979" lon="1.12137">
        <ele>138</ele>
        <time>2011-09-25T09:04:19Z</time>
      </trkpt>
      <trkpt lat="48.98976" lon="1.12124">
        <ele>138</ele>
        <time>2011-09-25T09:04:21Z</time>
      </trkpt>
      <trkpt lat="48.98975" lon="1.12117">
        <ele>138</ele>
        <time>2011-09-25T09:04:22Z</time>
      </trkpt>
      <trkpt lat="48.98974" lon="1.1211">
        <ele>138</ele>
        <time>2011-09-25T09:04:23Z</time>
      </trkpt>
      <trkpt lat="48.98973" lon="1.12103">
        <ele>138</ele>
        <time>2011-09-25T09:04:24Z</time>
      </trkpt>
      <trkpt lat="48.98973" lon="1.12091">
        <ele>137</ele>
        <time>2011-09-25T09:04:26Z</time>
      </trkpt>
      <trkpt lat="48.98973" lon="1.12082">
        <ele>136</ele>
        <time>2011-09-25T09:04:28Z</time>
      </trkpt>
      <trkpt lat="48.98975" lon="1.12074">
        <ele>136</ele>
        <time>2011-09-25T09:04:30Z</time>
      </trkpt>
      <trkpt lat="48.98979" lon="1.12061">
        <ele>136</ele>
        <time>2011-09-25T09:04:33Z</time>
      </trkpt>
      <trkpt lat="48.98983" lon="1.1205">
        <ele>135</ele>
        <time>2011-09-25T09:04:35Z</time>
      </trkpt>
      <trkpt lat="48.98986" lon="1.12043">
        <ele>135</ele>
        <time>2011-09-25T09:04:36Z</time>
      </trkpt>
      <trkpt lat="48.9899" lon="1.12036">
        <ele>135</ele>
        <time>2011-09-25T09:04:37Z</time>
      </trkpt>
      <trkpt lat="48.98994" lon="1.12029">
        <ele>135</ele>
        <time>2011-09-25T09:04:38Z</time>
      </trkpt>
      <trkpt lat="48.98997" lon="1.12024">
        <ele>134</ele>
        <time>2011-09-25T09:04:39Z</time>
      </trkpt>
      <trkpt lat="48.99002" lon="1.12013">
        <ele>132</ele>
        <time>2011-09-25T09:04:41Z</time>
      </trkpt>
      <trkpt lat="48.99003" lon="1.12003">
        <ele>132</ele>
        <time>2011-09-25T09:04:43Z</time>
      </trkpt>
      <trkpt lat="48.99" lon="1.11996">
        <ele>131</ele>
        <time>2011-09-25T09:04:45Z</time>
      </trkpt>
      <trkpt lat="48.98996" lon="1.11988">
        <ele>131</ele>
        <time>2011-09-25T09:04:47Z</time>
      </trkpt>
      <trkpt lat="48.98992" lon="1.1198">
        <ele>130</ele>
        <time>2011-09-25T09:04:49Z</time>
      </trkpt>
      <trkpt lat="48.98987" lon="1.1197">
        <ele>129</ele>
        <time>2011-09-25T09:04:51Z</time>
      </trkpt>
      <trkpt lat="48.98982" lon="1.11961">
        <ele>129</ele>
        <time>2011-09-25T09:04:53Z</time>
      </trkpt>
      <trkpt lat="48.98976" lon="1.11954">
        <ele>128</ele>
        <time>2011-09-25T09:04:55Z</time>
      </trkpt>
      <trkpt lat="48.98972" lon="1.1195">
        <ele>128</ele>
        <time>2011-09-25T09:04:56Z</time>
      </trkpt>
      <trkpt lat="48.98964" lon="1.11943">
        <ele>128</ele>
        <time>2011-09-25T09:04:58Z</time>
      </trkpt>
      <trkpt lat="48.98961" lon="1.11931">
        <ele>127</ele>
        <time>2011-09-25T09:05:00Z</time>
      </trkpt>
      <trkpt lat="48.98958" lon="1.11917">
        <ele>127</ele>
        <time>2011-09-25T09:05:02Z</time>
      </trkpt>
      <trkpt lat="48.98963" lon="1.11909">
        <ele>119</ele>
        <time>2011-09-25T09:05:03Z</time>
      </trkpt>
      <trkpt lat="48.98968" lon="1.11903">
        <ele>118</ele>
        <time>2011-09-25T09:05:04Z</time>
      </trkpt>
      <trkpt lat="48.98974" lon="1.11896">
        <ele>118</ele>
        <time>2011-09-25T09:05:05Z</time>
      </trkpt>
      <trkpt lat="48.98979" lon="1.11888">
        <ele>117</ele>
        <time>2011-09-25T09:05:06Z</time>
      </trkpt>
      <trkpt lat="48.98984" lon="1.11882">
        <ele>117</ele>
        <time>2011-09-25T09:05:07Z</time>
      </trkpt>
      <trkpt lat="48.98989" lon="1.11879">
        <ele>117</ele>
        <time>2011-09-25T09:05:08Z</time>
      </trkpt>
      <trkpt lat="48.98995" lon="1.11877">
        <ele>116</ele>
        <time>2011-09-25T09:05:09Z</time>
      </trkpt>
      <trkpt lat="48.99" lon="1.11874">
        <ele>112</ele>
        <time>2011-09-25T09:05:10Z</time>
      </trkpt>
      <trkpt lat="48.99008" lon="1.1187">
        <ele>112</ele>
        <time>2011-09-25T09:05:12Z</time>
      </trkpt>
      <trkpt lat="48.99013" lon="1.11861">
        <ele>111</ele>
        <time>2011-09-25T09:05:14Z</time>
      </trkpt>
      <trkpt lat="48.99012" lon="1.11848">
        <ele>110</ele>
        <time>2011-09-25T09:05:16Z</time>
      </trkpt>
      <trkpt lat="48.99011" lon="1.11841">
        <ele>110</ele>
        <time>2011-09-25T09:05:17Z</time>
      </trkpt>
      <trkpt lat="48.99009" lon="1.11834">
        <ele>110</ele>
        <time>2011-09-25T09:05:18Z</time>
      </trkpt>
      <trkpt lat="48.99006" lon="1.11828">
        <ele>106</ele>
        <time>2011-09-25T09:05:19Z</time>
      </trkpt>
      <trkpt lat="48.99003" lon="1.11823">
        <ele>105</ele>
        <time>2011-09-25T09:05:20Z</time>
      </trkpt>
      <trkpt lat="48.98996" lon="1.11814">
        <ele>105</ele>
        <time>2011-09-25T09:05:22Z</time>
      </trkpt>
      <trkpt lat="48.98992" lon="1.11809">
        <ele>104</ele>
        <time>2011-09-25T09:05:23Z</time>
      </trkpt>
      <trkpt lat="48.98988" lon="1.11805">
        <ele>103</ele>
        <time>2011-09-25T09:05:24Z</time>
      </trkpt>
      <trkpt lat="48.98983" lon="1.11802">
        <ele>102</ele>
        <time>2011-09-25T09:05:25Z</time>
      </trkpt>
      <trkpt lat="48.98975" lon="1.11797">
        <ele>101</ele>
        <time>2011-09-25T09:05:27Z</time>
      </trkpt>
      <trkpt lat="48.9897" lon="1.11794">
        <ele>101</ele>
        <time>2011-09-25T09:05:28Z</time>
      </trkpt>
      <trkpt lat="48.98964" lon="1.11791">
        <ele>101</ele>
        <time>2011-09-25T09:05:29Z</time>
      </trkpt>
      <trkpt lat="48.98959" lon="1.11788">
        <ele>100</ele>
        <time>2011-09-25T09:05:30Z</time>
      </trkpt>
      <trkpt lat="48.98954" lon="1.11784">
        <ele>100</ele>
        <time>2011-09-25T09:05:31Z</time>
      </trkpt>
      <trkpt lat="48.9895" lon="1.11776">
        <ele>99</ele>
        <time>2011-09-25T09:05:33Z</time>
      </trkpt>
      <trkpt lat="48.98945" lon="1.11766">
        <ele>98</ele>
        <time>2011-09-25T09:05:35Z</time>
      </trkpt>
      <trkpt lat="48.98946" lon="1.11759">
        <ele>98</ele>
        <time>2011-09-25T09:05:36Z</time>
      </trkpt>
      <trkpt lat="48.9895" lon="1.11753">
        <ele>98</ele>
        <time>2011-09-25T09:05:37Z</time>
      </trkpt>
      <trkpt lat="48.98956" lon="1.11749">
        <ele>92</ele>
        <time>2011-09-25T09:05:38Z</time>
      </trkpt>
      <trkpt lat="48.9896" lon="1.1175">
        <ele>92</ele>
        <time>2011-09-25T09:05:39Z</time>
      </trkpt>
      <trkpt lat="48.98968" lon="1.1175">
        <ele>92</ele>
        <time>2011-09-25T09:05:41Z</time>
      </trkpt>
      <trkpt lat="48.98974" lon="1.1175">
        <ele>92</ele>
        <time>2011-09-25T09:05:43Z</time>
      </trkpt>
      <trkpt lat="48.98981" lon="1.1175">
        <ele>92</ele>
        <time>2011-09-25T09:05:45Z</time>
      </trkpt>
      <trkpt lat="48.98988" lon="1.11748">
        <ele>92</ele>
        <time>2011-09-25T09:05:47Z</time>
      </trkpt>
      <trkpt lat="48.98994" lon="1.11749">
        <ele>92</ele>
        <time>2011-09-25T09:05:49Z</time>
      </trkpt>
      <trkpt lat="48.99001" lon="1.1175">
        <ele>92</ele>
        <time>2011-09-25T09:05:51Z</time>
      </trkpt>
      <trkpt lat="48.99009" lon="1.11752">
        <ele>93</ele>
        <time>2011-09-25T09:05:53Z</time>
      </trkpt>
      <trkpt lat="48.99016" lon="1.11753">
        <ele>94</ele>
        <time>2011-09-25T09:05:55Z</time>
      </trkpt>
      <trkpt lat="48.99023" lon="1.11756">
        <ele>94</ele>
        <time>2011-09-25T09:05:57Z</time>
      </trkpt>
      <trkpt lat="48.99031" lon="1.11761">
        <ele>94</ele>
        <time>2011-09-25T09:05:59Z</time>
      </trkpt>
      <trkpt lat="48.99038" lon="1.11766">
        <ele>94</ele>
        <time>2011-09-25T09:06:01Z</time>
      </trkpt>
      <trkpt lat="48.99047" lon="1.11773">
        <ele>94</ele>
        <time>2011-09-25T09:06:03Z</time>
      </trkpt>
      <trkpt lat="48.99052" lon="1.11777">
        <ele>94</ele>
        <time>2011-09-25T09:06:04Z</time>
      </trkpt>
      <trkpt lat="48.99057" lon="1.11781">
        <ele>94</ele>
        <time>2011-09-25T09:06:05Z</time>
      </trkpt>
      <trkpt lat="48.99062" lon="1.11786">
        <ele>94</ele>
        <time>2011-09-25T09:06:06Z</time>
      </trkpt>
      <trkpt lat="48.99067" lon="1.11792">
        <ele>94</ele>
        <time>2011-09-25T09:06:07Z</time>
      </trkpt>
      <trkpt lat="48.99071" lon="1.11797">
        <ele>95</ele>
        <time>2011-09-25T09:06:08Z</time>
      </trkpt>
      <trkpt lat="48.99075" lon="1.11802">
        <ele>95</ele>
        <time>2011-09-25T09:06:09Z</time>
      </trkpt>
      <trkpt lat="48.9908" lon="1.11807">
        <ele>95</ele>
        <time>2011-09-25T09:06:10Z</time>
      </trkpt>
      <trkpt lat="48.99083" lon="1.11812">
        <ele>95</ele>
        <time>2011-09-25T09:06:11Z</time>
      </trkpt>
      <trkpt lat="48.99087" lon="1.11817">
        <ele>91</ele>
        <time>2011-09-25T09:06:12Z</time>
      </trkpt>
      <trkpt lat="48.99091" lon="1.11822">
        <ele>92</ele>
        <time>2011-09-25T09:06:13Z</time>
      </trkpt>
      <trkpt lat="48.99095" lon="1.11827">
        <ele>92</ele>
        <time>2011-09-25T09:06:14Z</time>
      </trkpt>
      <trkpt lat="48.99098" lon="1.11832">
        <ele>92</ele>
        <time>2011-09-25T09:06:15Z</time>
      </trkpt>
      <trkpt lat="48.99102" lon="1.11836">
        <ele>96</ele>
        <time>2011-09-25T09:06:16Z</time>
      </trkpt>
      <trkpt lat="48.99105" lon="1.11841">
        <ele>96</ele>
        <time>2011-09-25T09:06:17Z</time>
      </trkpt>
      <trkpt lat="48.99112" lon="1.11849">
        <ele>96</ele>
        <time>2011-09-25T09:06:19Z</time>
      </trkpt>
      <trkpt lat="48.99119" lon="1.11857">
        <ele>96</ele>
        <time>2011-09-25T09:06:21Z</time>
      </trkpt>
      <trkpt lat="48.99123" lon="1.11861">
        <ele>96</ele>
        <time>2011-09-25T09:06:22Z</time>
      </trkpt>
      <trkpt lat="48.99127" lon="1.11865">
        <ele>96</ele>
        <time>2011-09-25T09:06:23Z</time>
      </trkpt>
      <trkpt lat="48.99131" lon="1.1187">
        <ele>97</ele>
        <time>2011-09-25T09:06:24Z</time>
      </trkpt>
      <trkpt lat="48.99135" lon="1.11873">
        <ele>97</ele>
        <time>2011-09-25T09:06:25Z</time>
      </trkpt>
      <trkpt lat="48.9914" lon="1.11876">
        <ele>97</ele>
        <time>2011-09-25T09:06:26Z</time>
      </trkpt>
      <trkpt lat="48.99145" lon="1.11879">
        <ele>97</ele>
        <time>2011-09-25T09:06:27Z</time>
      </trkpt>
      <trkpt lat="48.9915" lon="1.11881">
        <ele>97</ele>
        <time>2011-09-25T09:06:28Z</time>
      </trkpt>
      <trkpt lat="48.99155" lon="1.11883">
        <ele>97</ele>
        <time>2011-09-25T09:06:29Z</time>
      </trkpt>
      <trkpt lat="48.9916" lon="1.11885">
        <ele>97</ele>
        <time>2011-09-25T09:06:30Z</time>
      </trkpt>
      <trkpt lat="48.99165" lon="1.11886">
        <ele>97</ele>
        <time>2011-09-25T09:06:31Z</time>
      </trkpt>
      <trkpt lat="48.9917" lon="1.11887">
        <ele>95</ele>
        <time>2011-09-25T09:06:32Z</time>
      </trkpt>
      <trkpt lat="48.99175" lon="1.11888">
        <ele>95</ele>
        <time>2011-09-25T09:06:33Z</time>
      </trkpt>
      <trkpt lat="48.99179" lon="1.11888">
        <ele>95</ele>
        <time>2011-09-25T09:06:34Z</time>
      </trkpt>
      <trkpt lat="48.99184" lon="1.11888">
        <ele>95</ele>
        <time>2011-09-25T09:06:35Z</time>
      </trkpt>
      <trkpt lat="48.99189" lon="1.11888">
        <ele>95</ele>
        <time>2011-09-25T09:06:36Z</time>
      </trkpt>
      <trkpt lat="48.99197" lon="1.11887">
        <ele>95</ele>
        <time>2011-09-25T09:06:38Z</time>
      </trkpt>
      <trkpt lat="48.99206" lon="1.11884">
        <ele>94</ele>
        <time>2011-09-25T09:06:40Z</time>
      </trkpt>
      <trkpt lat="48.9921" lon="1.11882">
        <ele>94</ele>
        <time>2011-09-25T09:06:41Z</time>
      </trkpt>
      <trkpt lat="48.99215" lon="1.1188">
        <ele>94</ele>
        <time>2011-09-25T09:06:42Z</time>
      </trkpt>
      <trkpt lat="48.99219" lon="1.11878">
        <ele>94</ele>
        <time>2011-09-25T09:06:43Z</time>
      </trkpt>
      <trkpt lat="48.99224" lon="1.11877">
        <ele>94</ele>
        <time>2011-09-25T09:06:44Z</time>
      </trkpt>
      <trkpt lat="48.99232" lon="1.11872">
        <ele>94</ele>
        <time>2011-09-25T09:06:46Z</time>
      </trkpt>
      <trkpt lat="48.9924" lon="1.11866">
        <ele>93</ele>
        <time>2011-09-25T09:06:48Z</time>
      </trkpt>
      <trkpt lat="48.99244" lon="1.11863">
        <ele>93</ele>
        <time>2011-09-25T09:06:49Z</time>
      </trkpt>
      <trkpt lat="48.99252" lon="1.11857">
        <ele>98</ele>
        <time>2011-09-25T09:06:51Z</time>
      </trkpt>
      <trkpt lat="48.99259" lon="1.1185">
        <ele>96</ele>
        <time>2011-09-25T09:06:53Z</time>
      </trkpt>
      <trkpt lat="48.99266" lon="1.11842">
        <ele>96</ele>
        <time>2011-09-25T09:06:55Z</time>
      </trkpt>
      <trkpt lat="48.9927" lon="1.1183">
        <ele>91</ele>
        <time>2011-09-25T09:06:57Z</time>
      </trkpt>
      <trkpt lat="48.99274" lon="1.11819">
        <ele>92</ele>
        <time>2011-09-25T09:06:59Z</time>
      </trkpt>
      <trkpt lat="48.99278" lon="1.11808">
        <ele>92</ele>
        <time>2011-09-25T09:07:01Z</time>
      </trkpt>
      <trkpt lat="48.99284" lon="1.11798">
        <ele>92</ele>
        <time>2011-09-25T09:07:03Z</time>
      </trkpt>
      <trkpt lat="48.99291" lon="1.11789">
        <ele>92</ele>
        <time>2011-09-25T09:07:05Z</time>
      </trkpt>
      <trkpt lat="48.99295" lon="1.11785">
        <ele>92</ele>
        <time>2011-09-25T09:07:06Z</time>
      </trkpt>
      <trkpt lat="48.99298" lon="1.1178">
        <ele>92</ele>
        <time>2011-09-25T09:07:07Z</time>
      </trkpt>
      <trkpt lat="48.99302" lon="1.11775">
        <ele>92</ele>
        <time>2011-09-25T09:07:08Z</time>
      </trkpt>
      <trkpt lat="48.99306" lon="1.11769">
        <ele>92</ele>
        <time>2011-09-25T09:07:09Z</time>
      </trkpt>
      <trkpt lat="48.9931" lon="1.11764">
        <ele>92</ele>
        <time>2011-09-25T09:07:10Z</time>
      </trkpt>
      <trkpt lat="48.99314" lon="1.11759">
        <ele>92</ele>
        <time>2011-09-25T09:07:11Z</time>
      </trkpt>
      <trkpt lat="48.99318" lon="1.11753">
        <ele>92</ele>
        <time>2011-09-25T09:07:12Z</time>
      </trkpt>
      <trkpt lat="48.99322" lon="1.11747">
        <ele>90</ele>
        <time>2011-09-25T09:07:13Z</time>
      </trkpt>
      <trkpt lat="48.99325" lon="1.11742">
        <ele>90</ele>
        <time>2011-09-25T09:07:14Z</time>
      </trkpt>
      <trkpt lat="48.99329" lon="1.11736">
        <ele>89</ele>
        <time>2011-09-25T09:07:15Z</time>
      </trkpt>
      <trkpt lat="48.99333" lon="1.1173">
        <ele>89</ele>
        <time>2011-09-25T09:07:16Z</time>
      </trkpt>
      <trkpt lat="48.99337" lon="1.11724">
        <ele>96</ele>
        <time>2011-09-25T09:07:17Z</time>
      </trkpt>
      <trkpt lat="48.99341" lon="1.11718">
        <ele>96</ele>
        <time>2011-09-25T09:07:18Z</time>
      </trkpt>
      <trkpt lat="48.99345" lon="1.11712">
        <ele>97</ele>
        <time>2011-09-25T09:07:19Z</time>
      </trkpt>
      <trkpt lat="48.99349" lon="1.11705">
        <ele>97</ele>
        <time>2011-09-25T09:07:20Z</time>
      </trkpt>
      <trkpt lat="48.99352" lon="1.11698">
        <ele>96</ele>
        <time>2011-09-25T09:07:21Z</time>
      </trkpt>
      <trkpt lat="48.99356" lon="1.11692">
        <ele>96</ele>
        <time>2011-09-25T09:07:22Z</time>
      </trkpt>
      <trkpt lat="48.9936" lon="1.11685">
        <ele>96</ele>
        <time>2011-09-25T09:07:23Z</time>
      </trkpt>
      <trkpt lat="48.99363" lon="1.11679">
        <ele>96</ele>
        <time>2011-09-25T09:07:24Z</time>
      </trkpt>
      <trkpt lat="48.99366" lon="1.11672">
        <ele>97</ele>
        <time>2011-09-25T09:07:25Z</time>
      </trkpt>
      <trkpt lat="48.99369" lon="1.11666">
        <ele>93</ele>
        <time>2011-09-25T09:07:26Z</time>
      </trkpt>
      <trkpt lat="48.99372" lon="1.11659">
        <ele>93</ele>
        <time>2011-09-25T09:07:27Z</time>
      </trkpt>
      <trkpt lat="48.99375" lon="1.11653">
        <ele>94</ele>
        <time>2011-09-25T09:07:28Z</time>
      </trkpt>
      <trkpt lat="48.99378" lon="1.11647">
        <ele>94</ele>
        <time>2011-09-25T09:07:29Z</time>
      </trkpt>
      <trkpt lat="48.99382" lon="1.11641">
        <ele>95</ele>
        <time>2011-09-25T09:07:30Z</time>
      </trkpt>
      <trkpt lat="48.99384" lon="1.11634">
        <ele>95</ele>
        <time>2011-09-25T09:07:31Z</time>
      </trkpt>
      <trkpt lat="48.99386" lon="1.11627">
        <ele>95</ele>
        <time>2011-09-25T09:07:32Z</time>
      </trkpt>
      <trkpt lat="48.99389" lon="1.1162">
        <ele>95</ele>
        <time>2011-09-25T09:07:33Z</time>
      </trkpt>
      <trkpt lat="48.99391" lon="1.11614">
        <ele>95</ele>
        <time>2011-09-25T09:07:34Z</time>
      </trkpt>
      <trkpt lat="48.99394" lon="1.11607">
        <ele>95</ele>
        <time>2011-09-25T09:07:35Z</time>
      </trkpt>
      <trkpt lat="48.99395" lon="1.116">
        <ele>95</ele>
        <time>2011-09-25T09:07:36Z</time>
      </trkpt>
      <trkpt lat="48.99396" lon="1.11592">
        <ele>95</ele>
        <time>2011-09-25T09:07:37Z</time>
      </trkpt>
      <trkpt lat="48.99397" lon="1.11585">
        <ele>96</ele>
        <time>2011-09-25T09:07:38Z</time>
      </trkpt>
      <trkpt lat="48.99398" lon="1.11578">
        <ele>95</ele>
        <time>2011-09-25T09:07:39Z</time>
      </trkpt>
      <trkpt lat="48.99398" lon="1.1157">
        <ele>94</ele>
        <time>2011-09-25T09:07:40Z</time>
      </trkpt>
      <trkpt lat="48.99398" lon="1.11558">
        <ele>94</ele>
        <time>2011-09-25T09:07:42Z</time>
      </trkpt>
      <trkpt lat="48.99396" lon="1.11547">
        <ele>93</ele>
        <time>2011-09-25T09:07:44Z</time>
      </trkpt>
      <trkpt lat="48.99394" lon="1.11535">
        <ele>93</ele>
        <time>2011-09-25T09:07:46Z</time>
      </trkpt>
      <trkpt lat="48.99392" lon="1.11523">
        <ele>94</ele>
        <time>2011-09-25T09:07:48Z</time>
      </trkpt>
      <trkpt lat="48.99388" lon="1.11512">
        <ele>94</ele>
        <time>2011-09-25T09:07:50Z</time>
      </trkpt>
      <trkpt lat="48.99385" lon="1.115">
        <ele>94</ele>
        <time>2011-09-25T09:07:52Z</time>
      </trkpt>
      <trkpt lat="48.99381" lon="1.11489">
        <ele>93</ele>
        <time>2011-09-25T09:07:54Z</time>
      </trkpt>
      <trkpt lat="48.99377" lon="1.11478">
        <ele>92</ele>
        <time>2011-09-25T09:07:56Z</time>
      </trkpt>
      <trkpt lat="48.99373" lon="1.11467">
        <ele>92</ele>
        <time>2011-09-25T09:07:58Z</time>
      </trkpt>
      <trkpt lat="48.99368" lon="1.11457">
        <ele>91</ele>
        <time>2011-09-25T09:08:00Z</time>
      </trkpt>
      <trkpt lat="48.99363" lon="1.11447">
        <ele>91</ele>
        <time>2011-09-25T09:08:02Z</time>
      </trkpt>
      <trkpt lat="48.99358" lon="1.11437">
        <ele>90</ele>
        <time>2011-09-25T09:08:04Z</time>
      </trkpt>
      <trkpt lat="48.99354" lon="1.11427">
        <ele>89</ele>
        <time>2011-09-25T09:08:06Z</time>
      </trkpt>
      <trkpt lat="48.99352" lon="1.11417">
        <ele>88</ele>
        <time>2011-09-25T09:08:08Z</time>
      </trkpt>
      <trkpt lat="48.99351" lon="1.11406">
        <ele>87</ele>
        <time>2011-09-25T09:08:10Z</time>
      </trkpt>
      <trkpt lat="48.99352" lon="1.11397">
        <ele>87</ele>
        <time>2011-09-25T09:08:12Z</time>
      </trkpt>
      <trkpt lat="48.99354" lon="1.1139">
        <ele>87</ele>
        <time>2011-09-25T09:08:14Z</time>
      </trkpt>
      <trkpt lat="48.99357" lon="1.11384">
        <ele>87</ele>
        <time>2011-09-25T09:08:16Z</time>
      </trkpt>
      <trkpt lat="48.99363" lon="1.11378">
        <ele>88</ele>
        <time>2011-09-25T09:08:19Z</time>
      </trkpt>
      <trkpt lat="48.99368" lon="1.11378">
        <ele>88</ele>
        <time>2011-09-25T09:08:21Z</time>
      </trkpt>
      <trkpt lat="48.99373" lon="1.11379">
        <ele>88</ele>
        <time>2011-09-25T09:08:23Z</time>
      </trkpt>
      <trkpt lat="48.99378" lon="1.11381">
        <ele>89</ele>
        <time>2011-09-25T09:08:25Z</time>
      </trkpt>
      <trkpt lat="48.99383" lon="1.11384">
        <ele>89</ele>
        <time>2011-09-25T09:08:27Z</time>
      </trkpt>
      <trkpt lat="48.99388" lon="1.11384">
        <ele>90</ele>
        <time>2011-09-25T09:08:30Z</time>
      </trkpt>
      <trkpt lat="48.99393" lon="1.11387">
        <ele>90</ele>
        <time>2011-09-25T09:08:33Z</time>
      </trkpt>
      <trkpt lat="48.99398" lon="1.11389">
        <ele>91</ele>
        <time>2011-09-25T09:08:36Z</time>
      </trkpt>
      <trkpt lat="48.99402" lon="1.11391">
        <ele>91</ele>
        <time>2011-09-25T09:08:39Z</time>
      </trkpt>
      <trkpt lat="48.99407" lon="1.11393">
        <ele>92</ele>
        <time>2011-09-25T09:08:42Z</time>
      </trkpt>
      <trkpt lat="48.99413" lon="1.11395">
        <ele>93</ele>
        <time>2011-09-25T09:08:46Z</time>
      </trkpt>
      <trkpt lat="48.99418" lon="1.11396">
        <ele>99</ele>
        <time>2011-09-25T09:08:49Z</time>
      </trkpt>
      <trkpt lat="48.99422" lon="1.11397">
        <ele>99</ele>
        <time>2011-09-25T09:08:52Z</time>
      </trkpt>
      <trkpt lat="48.99428" lon="1.11399">
        <ele>99</ele>
        <time>2011-09-25T09:08:56Z</time>
      </trkpt>
      <trkpt lat="48.99433" lon="1.11401">
        <ele>100</ele>
        <time>2011-09-25T09:08:59Z</time>
      </trkpt>
      <trkpt lat="48.99438" lon="1.11403">
        <ele>100</ele>
        <time>2011-09-25T09:09:02Z</time>
      </trkpt>
      <trkpt lat="48.99443" lon="1.11404">
        <ele>100</ele>
        <time>2011-09-25T09:09:05Z</time>
      </trkpt>
      <trkpt lat="48.99448" lon="1.11405">
        <ele>101</ele>
        <time>2011-09-25T09:09:08Z</time>
      </trkpt>
      <trkpt lat="48.99455" lon="1.11407">
        <ele>102</ele>
        <time>2011-09-25T09:09:13Z</time>
      </trkpt>
      <trkpt lat="48.9946" lon="1.11408">
        <ele>102</ele>
        <time>2011-09-25T09:09:17Z</time>
      </trkpt>
      <trkpt lat="48.99465" lon="1.11407">
        <ele>103</ele>
        <time>2011-09-25T09:09:21Z</time>
      </trkpt>
      <trkpt lat="48.99471" lon="1.11407">
        <ele>104</ele>
        <time>2011-09-25T09:09:25Z</time>
      </trkpt>
      <trkpt lat="48.99475" lon="1.11408">
        <ele>105</ele>
        <time>2011-09-25T09:09:28Z</time>
      </trkpt>
      <trkpt lat="48.9948" lon="1.11408">
        <ele>106</ele>
        <time>2011-09-25T09:09:32Z</time>
      </trkpt>
      <trkpt lat="48.99484" lon="1.11409">
        <ele>107</ele>
        <time>2011-09-25T09:09:35Z</time>
      </trkpt>
      <trkpt lat="48.99489" lon="1.1141">
        <ele>109</ele>
        <time>2011-09-25T09:09:38Z</time>
      </trkpt>
      <trkpt lat="48.99494" lon="1.11412">
        <ele>111</ele>
        <time>2011-09-25T09:09:41Z</time>
      </trkpt>
      <trkpt lat="48.99499" lon="1.11415">
        <ele>115</ele>
        <time>2011-09-25T09:09:45Z</time>
      </trkpt>
      <trkpt lat="48.99505" lon="1.11417">
        <ele>118</ele>
        <time>2011-09-25T09:09:49Z</time>
      </trkpt>
      <trkpt lat="48.99505" lon="1.11417">
        <ele>118</ele>
        <time>2011-09-25T09:09:49Z</time>
      </trkpt>
      <trkpt lat="48.99505" lon="1.11417">
        <ele>118</ele>
        <time>2011-09-25T09:09:50Z</time>
      </trkpt>
      <trkpt lat="48.99509" lon="1.11418">
        <ele>119</ele>
        <time>2011-09-25T09:09:52Z</time>
      </trkpt>
      <trkpt lat="48.99514" lon="1.11421">
        <ele>120</ele>
        <time>2011-09-25T09:09:55Z</time>
      </trkpt>
      <trkpt lat="48.99518" lon="1.11425">
        <ele>121</ele>
        <time>2011-09-25T09:09:58Z</time>
      </trkpt>
      <trkpt lat="48.99523" lon="1.1143">
        <ele>123</ele>
        <time>2011-09-25T09:10:02Z</time>
      </trkpt>
      <trkpt lat="48.9953" lon="1.11442">
        <ele>124</ele>
        <time>2011-09-25T09:10:10Z</time>
      </trkpt>
      <trkpt lat="48.99533" lon="1.11449">
        <ele>125</ele>
        <time>2011-09-25T09:10:14Z</time>
      </trkpt>
      <trkpt lat="48.99533" lon="1.11449">
        <ele>125</ele>
        <time>2011-09-25T09:10:14Z</time>
      </trkpt>
      <trkpt lat="48.99533" lon="1.11449">
        <ele>125</ele>
        <time>2011-09-25T09:10:18Z</time>
      </trkpt>
      <trkpt lat="48.99539" lon="1.11455">
        <ele>125</ele>
        <time>2011-09-25T09:10:19Z</time>
      </trkpt>
      <trkpt lat="48.99539" lon="1.11455">
        <ele>125</ele>
        <time>2011-09-25T09:10:19Z</time>
      </trkpt>
      <trkpt lat="48.99539" lon="1.11455">
        <ele>125</ele>
        <time>2011-09-25T09:10:20Z</time>
      </trkpt>
      <trkpt lat="48.99544" lon="1.11456">
        <ele>126</ele>
        <time>2011-09-25T09:10:22Z</time>
      </trkpt>
      <trkpt lat="48.99549" lon="1.11457">
        <ele>126</ele>
        <time>2011-09-25T09:10:24Z</time>
      </trkpt>
      <trkpt lat="48.99549" lon="1.11457">
        <ele>126</ele>
        <time>2011-09-25T09:10:24Z</time>
      </trkpt>
      <trkpt lat="48.99549" lon="1.11457">
        <ele>126</ele>
        <time>2011-09-25T09:10:28Z</time>
      </trkpt>
      <trkpt lat="48.99559" lon="1.11462">
        <ele>127</ele>
        <time>2011-09-25T09:10:29Z</time>
      </trkpt>
      <trkpt lat="48.99559" lon="1.11462">
        <ele>127</ele>
        <time>2011-09-25T09:10:29Z</time>
      </trkpt>
      <trkpt lat="48.99559" lon="1.11462">
        <ele>127</ele>
        <time>2011-09-25T09:10:32Z</time>
      </trkpt>
      <trkpt lat="48.99561" lon="1.1147">
        <ele>127</ele>
        <time>2011-09-25T09:10:33Z</time>
      </trkpt>
      <trkpt lat="48.99563" lon="1.11478">
        <ele>128</ele>
        <time>2011-09-25T09:10:36Z</time>
      </trkpt>
      <trkpt lat="48.99563" lon="1.11478">
        <ele>128</ele>
        <time>2011-09-25T09:10:36Z</time>
      </trkpt>
      <trkpt lat="48.99563" lon="1.11478">
        <ele>128</ele>
        <time>2011-09-25T09:10:37Z</time>
      </trkpt>
      <trkpt lat="48.99569" lon="1.11485">
        <ele>129</ele>
        <time>2011-09-25T09:10:40Z</time>
      </trkpt>
      <trkpt lat="48.99569" lon="1.11485">
        <ele>129</ele>
        <time>2011-09-25T09:10:40Z</time>
      </trkpt>
      <trkpt lat="48.99569" lon="1.11485">
        <ele>129</ele>
        <time>2011-09-25T09:10:41Z</time>
      </trkpt>
      <trkpt lat="48.99578" lon="1.11489">
        <ele>130</ele>
        <time>2011-09-25T09:10:46Z</time>
      </trkpt>
      <trkpt lat="48.99578" lon="1.11489">
        <ele>130</ele>
        <time>2011-09-25T09:10:46Z</time>
      </trkpt>
      <trkpt lat="48.99578" lon="1.11489">
        <ele>130</ele>
        <time>2011-09-25T09:10:49Z</time>
      </trkpt>
      <trkpt lat="48.99582" lon="1.11482">
        <ele>129</ele>
        <time>2011-09-25T09:10:50Z</time>
      </trkpt>
      <trkpt lat="48.99582" lon="1.11482">
        <ele>129</ele>
        <time>2011-09-25T09:10:50Z</time>
      </trkpt>
      <trkpt lat="48.99582" lon="1.11482">
        <ele>129</ele>
        <time>2011-09-25T09:10:52Z</time>
      </trkpt>
      <trkpt lat="48.99587" lon="1.11476">
        <ele>131</ele>
        <time>2011-09-25T09:10:53Z</time>
      </trkpt>
      <trkpt lat="48.99589" lon="1.1147">
        <ele>130</ele>
        <time>2011-09-25T09:10:55Z</time>
      </trkpt>
      <trkpt lat="48.99594" lon="1.11462">
        <ele>130</ele>
        <time>2011-09-25T09:10:58Z</time>
      </trkpt>
      <trkpt lat="48.99594" lon="1.11462">
        <ele>130</ele>
        <time>2011-09-25T09:10:58Z</time>
      </trkpt>
      <trkpt lat="48.99594" lon="1.11462">
        <ele>130</ele>
        <time>2011-09-25T09:10:59Z</time>
      </trkpt>
      <trkpt lat="48.99599" lon="1.11454">
        <ele>130</ele>
        <time>2011-09-25T09:11:01Z</time>
      </trkpt>
      <trkpt lat="48.99604" lon="1.11449">
        <ele>129</ele>
        <time>2011-09-25T09:11:03Z</time>
      </trkpt>
      <trkpt lat="48.99608" lon="1.11443">
        <ele>129</ele>
        <time>2011-09-25T09:11:05Z</time>
      </trkpt>
      <trkpt lat="48.99613" lon="1.11437">
        <ele>129</ele>
        <time>2011-09-25T09:11:07Z</time>
      </trkpt>
      <trkpt lat="48.99619" lon="1.11432">
        <ele>129</ele>
        <time>2011-09-25T09:11:09Z</time>
      </trkpt>
      <trkpt lat="48.99626" lon="1.11426">
        <ele>130</ele>
        <time>2011-09-25T09:11:11Z</time>
      </trkpt>
      <trkpt lat="48.99631" lon="1.11419">
        <ele>130</ele>
        <time>2011-09-25T09:11:13Z</time>
      </trkpt>
      <trkpt lat="48.99636" lon="1.11412">
        <ele>125</ele>
        <time>2011-09-25T09:11:15Z</time>
      </trkpt>
      <trkpt lat="48.99641" lon="1.11406">
        <ele>125</ele>
        <time>2011-09-25T09:11:17Z</time>
      </trkpt>
      <trkpt lat="48.99646" lon="1.114">
        <ele>125</ele>
        <time>2011-09-25T09:11:19Z</time>
      </trkpt>
      <trkpt lat="48.9965" lon="1.11393">
        <ele>125</ele>
        <time>2011-09-25T09:11:21Z</time>
      </trkpt>
      <trkpt lat="48.99655" lon="1.11387">
        <ele>124</ele>
        <time>2011-09-25T09:11:23Z</time>
      </trkpt>
      <trkpt lat="48.99659" lon="1.11381">
        <ele>124</ele>
        <time>2011-09-25T09:11:25Z</time>
      </trkpt>
      <trkpt lat="48.99663" lon="1.11375">
        <ele>123</ele>
        <time>2011-09-25T09:11:27Z</time>
      </trkpt>
      <trkpt lat="48.99668" lon="1.1137">
        <ele>127</ele>
        <time>2011-09-25T09:11:29Z</time>
      </trkpt>
      <trkpt lat="48.99675" lon="1.11364">
        <ele>127</ele>
        <time>2011-09-25T09:11:31Z</time>
      </trkpt>
      <trkpt lat="48.9968" lon="1.11358">
        <ele>127</ele>
        <time>2011-09-25T09:11:33Z</time>
      </trkpt>
      <trkpt lat="48.99685" lon="1.11352">
        <ele>126</ele>
        <time>2011-09-25T09:11:35Z</time>
      </trkpt>
      <trkpt lat="48.99689" lon="1.11345">
        <ele>126</ele>
        <time>2011-09-25T09:11:37Z</time>
      </trkpt>
      <trkpt lat="48.99696" lon="1.11339">
        <ele>127</ele>
        <time>2011-09-25T09:11:39Z</time>
      </trkpt>
      <trkpt lat="48.99703" lon="1.11331">
        <ele>121</ele>
        <time>2011-09-25T09:11:41Z</time>
      </trkpt>
      <trkpt lat="48.99706" lon="1.11327">
        <ele>121</ele>
        <time>2011-09-25T09:11:42Z</time>
      </trkpt>
      <trkpt lat="48.9971" lon="1.11322">
        <ele>121</ele>
        <time>2011-09-25T09:11:43Z</time>
      </trkpt>
      <trkpt lat="48.99714" lon="1.11316">
        <ele>121</ele>
        <time>2011-09-25T09:11:44Z</time>
      </trkpt>
      <trkpt lat="48.99717" lon="1.1131">
        <ele>120</ele>
        <time>2011-09-25T09:11:45Z</time>
      </trkpt>
      <trkpt lat="48.99721" lon="1.11303">
        <ele>120</ele>
        <time>2011-09-25T09:11:46Z</time>
      </trkpt>
      <trkpt lat="48.99725" lon="1.11296">
        <ele>120</ele>
        <time>2011-09-25T09:11:47Z</time>
      </trkpt>
      <trkpt lat="48.99729" lon="1.11289">
        <ele>119</ele>
        <time>2011-09-25T09:11:48Z</time>
      </trkpt>
      <trkpt lat="48.99733" lon="1.11282">
        <ele>119</ele>
        <time>2011-09-25T09:11:49Z</time>
      </trkpt>
      <trkpt lat="48.99737" lon="1.11275">
        <ele>119</ele>
        <time>2011-09-25T09:11:50Z</time>
      </trkpt>
      <trkpt lat="48.99741" lon="1.11269">
        <ele>119</ele>
        <time>2011-09-25T09:11:51Z</time>
      </trkpt>
      <trkpt lat="48.99744" lon="1.11262">
        <ele>119</ele>
        <time>2011-09-25T09:11:52Z</time>
      </trkpt>
      <trkpt lat="48.99748" lon="1.11257">
        <ele>120</ele>
        <time>2011-09-25T09:11:53Z</time>
      </trkpt>
      <trkpt lat="48.99751" lon="1.11251">
        <ele>120</ele>
        <time>2011-09-25T09:11:54Z</time>
      </trkpt>
      <trkpt lat="48.99754" lon="1.11245">
        <ele>120</ele>
        <time>2011-09-25T09:11:55Z</time>
      </trkpt>
      <trkpt lat="48.99758" lon="1.11239">
        <ele>119</ele>
        <time>2011-09-25T09:11:56Z</time>
      </trkpt>
      <trkpt lat="48.99761" lon="1.11234">
        <ele>119</ele>
        <time>2011-09-25T09:11:57Z</time>
      </trkpt>
      <trkpt lat="48.99764" lon="1.11229">
        <ele>119</ele>
        <time>2011-09-25T09:11:58Z</time>
      </trkpt>
      <trkpt lat="48.99768" lon="1.11225">
        <ele>118</ele>
        <time>2011-09-25T09:11:59Z</time>
      </trkpt>
      <trkpt lat="48.99771" lon="1.1122">
        <ele>118</ele>
        <time>2011-09-25T09:12:00Z</time>
      </trkpt>
      <trkpt lat="48.99778" lon="1.11211">
        <ele>118</ele>
        <time>2011-09-25T09:12:02Z</time>
      </trkpt>
      <trkpt lat="48.99783" lon="1.11202">
        <ele>117</ele>
        <time>2011-09-25T09:12:04Z</time>
      </trkpt>
      <trkpt lat="48.9979" lon="1.11192">
        <ele>117</ele>
        <time>2011-09-25T09:12:06Z</time>
      </trkpt>
      <trkpt lat="48.99793" lon="1.11188">
        <ele>117</ele>
        <time>2011-09-25T09:12:07Z</time>
      </trkpt>
      <trkpt lat="48.99798" lon="1.11183">
        <ele>118</ele>
        <time>2011-09-25T09:12:08Z</time>
      </trkpt>
      <trkpt lat="48.99802" lon="1.11177">
        <ele>118</ele>
        <time>2011-09-25T09:12:09Z</time>
      </trkpt>
      <trkpt lat="48.99806" lon="1.11172">
        <ele>118</ele>
        <time>2011-09-25T09:12:10Z</time>
      </trkpt>
      <trkpt lat="48.9981" lon="1.11166">
        <ele>111</ele>
        <time>2011-09-25T09:12:11Z</time>
      </trkpt>
      <trkpt lat="48.99814" lon="1.11159">
        <ele>112</ele>
        <time>2011-09-25T09:12:12Z</time>
      </trkpt>
      <trkpt lat="48.99819" lon="1.11152">
        <ele>112</ele>
        <time>2011-09-25T09:12:13Z</time>
      </trkpt>
      <trkpt lat="48.99824" lon="1.11145">
        <ele>111</ele>
        <time>2011-09-25T09:12:14Z</time>
      </trkpt>
      <trkpt lat="48.99831" lon="1.11137">
        <ele>110</ele>
        <time>2011-09-25T09:12:15Z</time>
      </trkpt>
      <trkpt lat="48.99837" lon="1.11129">
        <ele>114</ele>
        <time>2011-09-25T09:12:16Z</time>
      </trkpt>
      <trkpt lat="48.99842" lon="1.11122">
        <ele>113</ele>
        <time>2011-09-25T09:12:17Z</time>
      </trkpt>
      <trkpt lat="48.99848" lon="1.11115">
        <ele>112</ele>
        <time>2011-09-25T09:12:18Z</time>
      </trkpt>
      <trkpt lat="48.99854" lon="1.11108">
        <ele>112</ele>
        <time>2011-09-25T09:12:19Z</time>
      </trkpt>
      <trkpt lat="48.99859" lon="1.11101">
        <ele>111</ele>
        <time>2011-09-25T09:12:20Z</time>
      </trkpt>
      <trkpt lat="48.99864" lon="1.11095">
        <ele>111</ele>
        <time>2011-09-25T09:12:21Z</time>
      </trkpt>
      <trkpt lat="48.99869" lon="1.11091">
        <ele>111</ele>
        <time>2011-09-25T09:12:22Z</time>
      </trkpt>
      <trkpt lat="48.99874" lon="1.11087">
        <ele>112</ele>
        <time>2011-09-25T09:12:23Z</time>
      </trkpt>
      <trkpt lat="48.99879" lon="1.11086">
        <ele>112</ele>
        <time>2011-09-25T09:12:24Z</time>
      </trkpt>
      <trkpt lat="48.99884" lon="1.11086">
        <ele>112</ele>
        <time>2011-09-25T09:12:25Z</time>
      </trkpt>
      <trkpt lat="48.99888" lon="1.11086">
        <ele>112</ele>
        <time>2011-09-25T09:12:26Z</time>
      </trkpt>
      <trkpt lat="48.99893" lon="1.11087">
        <ele>112</ele>
        <time>2011-09-25T09:12:27Z</time>
      </trkpt>
      <trkpt lat="48.99899" lon="1.11088">
        <ele>112</ele>
        <time>2011-09-25T09:12:28Z</time>
      </trkpt>
      <trkpt lat="48.99904" lon="1.11088">
        <ele>112</ele>
        <time>2011-09-25T09:12:29Z</time>
      </trkpt>
      <trkpt lat="48.99909" lon="1.1109">
        <ele>111</ele>
        <time>2011-09-25T09:12:30Z</time>
      </trkpt>
      <trkpt lat="48.99914" lon="1.11092">
        <ele>111</ele>
        <time>2011-09-25T09:12:31Z</time>
      </trkpt>
      <trkpt lat="48.99918" lon="1.11095">
        <ele>110</ele>
        <time>2011-09-25T09:12:32Z</time>
      </trkpt>
      <trkpt lat="48.99926" lon="1.11099">
        <ele>110</ele>
        <time>2011-09-25T09:12:34Z</time>
      </trkpt>
      <trkpt lat="48.99932" lon="1.11105">
        <ele>111</ele>
        <time>2011-09-25T09:12:36Z</time>
      </trkpt>
      <trkpt lat="48.99938" lon="1.11109">
        <ele>111</ele>
        <time>2011-09-25T09:12:38Z</time>
      </trkpt>
      <trkpt lat="48.99944" lon="1.11114">
        <ele>111</ele>
        <time>2011-09-25T09:12:40Z</time>
      </trkpt>
      <trkpt lat="48.99949" lon="1.11118">
        <ele>111</ele>
        <time>2011-09-25T09:12:42Z</time>
      </trkpt>
      <trkpt lat="48.99956" lon="1.11121">
        <ele>111</ele>
        <time>2011-09-25T09:12:44Z</time>
      </trkpt>
      <trkpt lat="48.99956" lon="1.11121">
        <ele>111</ele>
        <time>2011-09-25T09:12:44Z</time>
      </trkpt>
      <trkpt lat="48.99956" lon="1.11121">
        <ele>111</ele>
        <time>2011-09-25T09:12:46Z</time>
      </trkpt>
      <trkpt lat="48.99964" lon="1.11124">
        <ele>110</ele>
        <time>2011-09-25T09:12:47Z</time>
      </trkpt>
      <trkpt lat="48.99964" lon="1.11124">
        <ele>110</ele>
        <time>2011-09-25T09:12:47Z</time>
      </trkpt>
      <trkpt lat="48.99964" lon="1.11124">
        <ele>110</ele>
        <time>2011-09-25T09:12:48Z</time>
      </trkpt>
      <trkpt lat="48.99973" lon="1.11129">
        <ele>110</ele>
        <time>2011-09-25T09:12:51Z</time>
      </trkpt>
      <trkpt lat="48.99981" lon="1.1113">
        <ele>110</ele>
        <time>2011-09-25T09:12:53Z</time>
      </trkpt>
      <trkpt lat="48.99988" lon="1.11132">
        <ele>110</ele>
        <time>2011-09-25T09:12:55Z</time>
      </trkpt>
      <trkpt lat="48.99994" lon="1.11133">
        <ele>110</ele>
        <time>2011-09-25T09:12:57Z</time>
      </trkpt>
      <trkpt lat="49" lon="1.11134">
        <ele>108</ele>
        <time>2011-09-25T09:12:59Z</time>
      </trkpt>
      <trkpt lat="49.00006" lon="1.11138">
        <ele>105</ele>
        <time>2011-09-25T09:13:01Z</time>
      </trkpt>
      <trkpt lat="49.00011" lon="1.11146">
        <ele>106</ele>
        <time>2011-09-25T09:13:03Z</time>
      </trkpt>
      <trkpt lat="49.00016" lon="1.11153">
        <ele>106</ele>
        <time>2011-09-25T09:13:05Z</time>
      </trkpt>
      <trkpt lat="49.00023" lon="1.11155">
        <ele>105</ele>
        <time>2011-09-25T09:13:07Z</time>
      </trkpt>
      <trkpt lat="49.00031" lon="1.11156">
        <ele>104</ele>
        <time>2011-09-25T09:13:09Z</time>
      </trkpt>
      <trkpt lat="49.00039" lon="1.11159">
        <ele>104</ele>
        <time>2011-09-25T09:13:11Z</time>
      </trkpt>
      <trkpt lat="49.00046" lon="1.11164">
        <ele>103</ele>
        <time>2011-09-25T09:13:13Z</time>
      </trkpt>
      <trkpt lat="49.00054" lon="1.11169">
        <ele>111</ele>
        <time>2011-09-25T09:13:15Z</time>
      </trkpt>
      <trkpt lat="49.00063" lon="1.11172">
        <ele>109</ele>
        <time>2011-09-25T09:13:17Z</time>
      </trkpt>
      <trkpt lat="49.00071" lon="1.11173">
        <ele>108</ele>
        <time>2011-09-25T09:13:19Z</time>
      </trkpt>
      <trkpt lat="49.00076" lon="1.11173">
        <ele>107</ele>
        <time>2011-09-25T09:13:20Z</time>
      </trkpt>
      <trkpt lat="49.00082" lon="1.11175">
        <ele>107</ele>
        <time>2011-09-25T09:13:21Z</time>
      </trkpt>
      <trkpt lat="49.00089" lon="1.11177">
        <ele>103</ele>
        <time>2011-09-25T09:13:22Z</time>
      </trkpt>
      <trkpt lat="49.00096" lon="1.11179">
        <ele>103</ele>
        <time>2011-09-25T09:13:23Z</time>
      </trkpt>
      <trkpt lat="49.00102" lon="1.11182">
        <ele>103</ele>
        <time>2011-09-25T09:13:24Z</time>
      </trkpt>
      <trkpt lat="49.00109" lon="1.11186">
        <ele>102</ele>
        <time>2011-09-25T09:13:25Z</time>
      </trkpt>
      <trkpt lat="49.00117" lon="1.11191">
        <ele>102</ele>
        <time>2011-09-25T09:13:26Z</time>
      </trkpt>
      <trkpt lat="49.00125" lon="1.11197">
        <ele>102</ele>
        <time>2011-09-25T09:13:27Z</time>
      </trkpt>
      <trkpt lat="49.00134" lon="1.11201">
        <ele>101</ele>
        <time>2011-09-25T09:13:28Z</time>
      </trkpt>
      <trkpt lat="49.00142" lon="1.11205">
        <ele>101</ele>
        <time>2011-09-25T09:13:29Z</time>
      </trkpt>
      <trkpt lat="49.0015" lon="1.11209">
        <ele>101</ele>
        <time>2011-09-25T09:13:30Z</time>
      </trkpt>
      <trkpt lat="49.00158" lon="1.11214">
        <ele>101</ele>
        <time>2011-09-25T09:13:31Z</time>
      </trkpt>
      <trkpt lat="49.00165" lon="1.11219">
        <ele>101</ele>
        <time>2011-09-25T09:13:32Z</time>
      </trkpt>
      <trkpt lat="49.00173" lon="1.11224">
        <ele>95</ele>
        <time>2011-09-25T09:13:33Z</time>
      </trkpt>
      <trkpt lat="49.00182" lon="1.11228">
        <ele>95</ele>
        <time>2011-09-25T09:13:34Z</time>
      </trkpt>
      <trkpt lat="49.00189" lon="1.11234">
        <ele>95</ele>
        <time>2011-09-25T09:13:35Z</time>
      </trkpt>
      <trkpt lat="49.00197" lon="1.1124">
        <ele>94</ele>
        <time>2011-09-25T09:13:36Z</time>
      </trkpt>
      <trkpt lat="49.00204" lon="1.11244">
        <ele>94</ele>
        <time>2011-09-25T09:13:37Z</time>
      </trkpt>
      <trkpt lat="49.0021" lon="1.11247">
        <ele>93</ele>
        <time>2011-09-25T09:13:38Z</time>
      </trkpt>
      <trkpt lat="49.00217" lon="1.11249">
        <ele>93</ele>
        <time>2011-09-25T09:13:39Z</time>
      </trkpt>
      <trkpt lat="49.00223" lon="1.11251">
        <ele>100</ele>
        <time>2011-09-25T09:13:40Z</time>
      </trkpt>
      <trkpt lat="49.00229" lon="1.11254">
        <ele>99</ele>
        <time>2011-09-25T09:13:41Z</time>
      </trkpt>
      <trkpt lat="49.00234" lon="1.11257">
        <ele>98</ele>
        <time>2011-09-25T09:13:42Z</time>
      </trkpt>
      <trkpt lat="49.00239" lon="1.1126">
        <ele>98</ele>
        <time>2011-09-25T09:13:43Z</time>
      </trkpt>
      <trkpt lat="49.00243" lon="1.11262">
        <ele>98</ele>
        <time>2011-09-25T09:13:44Z</time>
      </trkpt>
      <trkpt lat="49.00251" lon="1.11265">
        <ele>94</ele>
        <time>2011-09-25T09:13:46Z</time>
      </trkpt>
      <trkpt lat="49.00258" lon="1.11266">
        <ele>94</ele>
        <time>2011-09-25T09:13:48Z</time>
      </trkpt>
      <trkpt lat="49.00266" lon="1.11268">
        <ele>94</ele>
        <time>2011-09-25T09:13:50Z</time>
      </trkpt>
      <trkpt lat="49.00274" lon="1.1127">
        <ele>94</ele>
        <time>2011-09-25T09:13:52Z</time>
      </trkpt>
      <trkpt lat="49.00282" lon="1.11272">
        <ele>94</ele>
        <time>2011-09-25T09:13:54Z</time>
      </trkpt>
      <trkpt lat="49.0029" lon="1.11277">
        <ele>94</ele>
        <time>2011-09-25T09:13:56Z</time>
      </trkpt>
      <trkpt lat="49.00297" lon="1.11284">
        <ele>95</ele>
        <time>2011-09-25T09:13:58Z</time>
      </trkpt>
      <trkpt lat="49.00304" lon="1.1129">
        <ele>95</ele>
        <time>2011-09-25T09:14:00Z</time>
      </trkpt>
      <trkpt lat="49.00311" lon="1.11294">
        <ele>95</ele>
        <time>2011-09-25T09:14:02Z</time>
      </trkpt>
      <trkpt lat="49.00317" lon="1.11293">
        <ele>94</ele>
        <time>2011-09-25T09:14:04Z</time>
      </trkpt>
      <trkpt lat="49.00322" lon="1.11294">
        <ele>94</ele>
        <time>2011-09-25T09:14:06Z</time>
      </trkpt>
      <trkpt lat="49.00328" lon="1.11298">
        <ele>95</ele>
        <time>2011-09-25T09:14:08Z</time>
      </trkpt>
      <trkpt lat="49.00334" lon="1.11302">
        <ele>89</ele>
        <time>2011-09-25T09:14:10Z</time>
      </trkpt>
      <trkpt lat="49.00342" lon="1.11308">
        <ele>90</ele>
        <time>2011-09-25T09:14:12Z</time>
      </trkpt>
      <trkpt lat="49.00346" lon="1.11311">
        <ele>90</ele>
        <time>2011-09-25T09:14:13Z</time>
      </trkpt>
      <trkpt lat="49.0035" lon="1.11315">
        <ele>90</ele>
        <time>2011-09-25T09:14:14Z</time>
      </trkpt>
      <trkpt lat="49.00354" lon="1.11319">
        <ele>90</ele>
        <time>2011-09-25T09:14:15Z</time>
      </trkpt>
      <trkpt lat="49.00359" lon="1.11322">
        <ele>89</ele>
        <time>2011-09-25T09:14:16Z</time>
      </trkpt>
      <trkpt lat="49.00366" lon="1.11326">
        <ele>89</ele>
        <time>2011-09-25T09:14:18Z</time>
      </trkpt>
      <trkpt lat="49.00369" lon="1.11332">
        <ele>88</ele>
        <time>2011-09-25T09:14:21Z</time>
      </trkpt>
      <trkpt lat="49.0037" lon="1.11339">
        <ele>94</ele>
        <time>2011-09-25T09:14:25Z</time>
      </trkpt>
      <trkpt lat="49.0037" lon="1.11339">
        <ele>94</ele>
        <time>2011-09-25T09:14:25Z</time>
      </trkpt>
      <trkpt lat="49.0037" lon="1.11339">
        <ele>94</ele>
        <time>2011-09-25T09:14:29Z</time>
      </trkpt>
      <trkpt lat="49.00364" lon="1.11345">
        <ele>94</ele>
        <time>2011-09-25T09:14:33Z</time>
      </trkpt>
      <trkpt lat="49.00364" lon="1.11345">
        <ele>94</ele>
        <time>2011-09-25T09:14:33Z</time>
      </trkpt>
      <trkpt lat="49.00364" lon="1.11345">
        <ele>94</ele>
        <time>2011-09-25T09:14:36Z</time>
      </trkpt>
      <trkpt lat="49.00359" lon="1.11347">
        <ele>95</ele>
        <time>2011-09-25T09:14:37Z</time>
      </trkpt>
      <trkpt lat="49.00359" lon="1.11347">
        <ele>95</ele>
        <time>2011-09-25T09:14:37Z</time>
      </trkpt>
      <trkpt lat="49.00359" lon="1.11347">
        <ele>95</ele>
        <time>2011-09-25T09:14:39Z</time>
      </trkpt>
      <trkpt lat="49.00355" lon="1.11349">
        <ele>95</ele>
        <time>2011-09-25T09:14:40Z</time>
      </trkpt>
      <trkpt lat="49.00355" lon="1.11349">
        <ele>95</ele>
        <time>2011-09-25T09:14:40Z</time>
      </trkpt>
      <trkpt lat="49.00355" lon="1.11349">
        <ele>95</ele>
        <time>2011-09-25T09:14:45Z</time>
      </trkpt>
      <trkpt lat="49.00346" lon="1.11355">
        <ele>96</ele>
        <time>2011-09-25T09:14:46Z</time>
      </trkpt>
      <trkpt lat="49.00346" lon="1.11355">
        <ele>96</ele>
        <time>2011-09-25T09:14:46Z</time>
      </trkpt>
      <trkpt lat="49.00346" lon="1.11355">
        <ele>96</ele>
        <time>2011-09-25T09:14:51Z</time>
      </trkpt>
      <trkpt lat="49.00338" lon="1.11359">
        <ele>96</ele>
        <time>2011-09-25T09:14:52Z</time>
      </trkpt>
      <trkpt lat="49.00338" lon="1.11359">
        <ele>96</ele>
        <time>2011-09-25T09:14:52Z</time>
      </trkpt>
      <trkpt lat="49.00338" lon="1.11359">
        <ele>96</ele>
        <time>2011-09-25T09:14:58Z</time>
      </trkpt>
      <trkpt lat="49.00329" lon="1.11365">
        <ele>104</ele>
        <time>2011-09-25T09:14:59Z</time>
      </trkpt>
      <trkpt lat="49.00329" lon="1.11365">
        <ele>104</ele>
        <time>2011-09-25T09:14:59Z</time>
      </trkpt>
      <trkpt lat="49.00329" lon="1.11365">
        <ele>104</ele>
        <time>2011-09-25T09:15:15Z</time>
      </trkpt>
      <trkpt lat="49.00324" lon="1.11367">
        <ele>105</ele>
        <time>2011-09-25T09:15:16Z</time>
      </trkpt>
      <trkpt lat="49.00324" lon="1.11367">
        <ele>105</ele>
        <time>2011-09-25T09:15:16Z</time>
      </trkpt>
      <trkpt lat="49.00324" lon="1.11367">
        <ele>105</ele>
        <time>2011-09-25T09:15:20Z</time>
      </trkpt>
      <trkpt lat="49.00312" lon="1.11371">
        <ele>106</ele>
        <time>2011-09-25T09:15:21Z</time>
      </trkpt>
      <trkpt lat="49.00312" lon="1.11371">
        <ele>106</ele>
        <time>2011-09-25T09:15:21Z</time>
      </trkpt>
      <trkpt lat="49.00312" lon="1.11371">
        <ele>106</ele>
        <time>2011-09-25T09:15:23Z</time>
      </trkpt>
      <trkpt lat="49.00301" lon="1.11377">
        <ele>107</ele>
        <time>2011-09-25T09:15:24Z</time>
      </trkpt>
      <trkpt lat="49.00301" lon="1.11377">
        <ele>107</ele>
        <time>2011-09-25T09:15:24Z</time>
      </trkpt>
      <trkpt lat="49.00301" lon="1.11377">
        <ele>107</ele>
        <time>2011-09-25T09:15:27Z</time>
      </trkpt>
      <trkpt lat="49.00292" lon="1.11381">
        <ele>108</ele>
        <time>2011-09-25T09:15:28Z</time>
      </trkpt>
      <trkpt lat="49.00292" lon="1.11381">
        <ele>108</ele>
        <time>2011-09-25T09:15:28Z</time>
      </trkpt>
      <trkpt lat="49.00292" lon="1.11381">
        <ele>108</ele>
        <time>2011-09-25T09:15:30Z</time>
      </trkpt>
      <trkpt lat="49.00287" lon="1.11383">
        <ele>108</ele>
        <time>2011-09-25T09:15:31Z</time>
      </trkpt>
      <trkpt lat="49.00287" lon="1.11383">
        <ele>108</ele>
        <time>2011-09-25T09:15:31Z</time>
      </trkpt>
      <trkpt lat="49.00287" lon="1.11383">
        <ele>108</ele>
        <time>2011-09-25T09:15:33Z</time>
      </trkpt>
      <trkpt lat="49.00282" lon="1.11386">
        <ele>109</ele>
        <time>2011-09-25T09:15:34Z</time>
      </trkpt>
      <trkpt lat="49.00282" lon="1.11386">
        <ele>109</ele>
        <time>2011-09-25T09:15:34Z</time>
      </trkpt>
      <trkpt lat="49.00282" lon="1.11386">
        <ele>109</ele>
        <time>2011-09-25T09:15:41Z</time>
      </trkpt>
      <trkpt lat="49.00274" lon="1.11396">
        <ele>110</ele>
        <time>2011-09-25T09:15:42Z</time>
      </trkpt>
      <trkpt lat="49.00274" lon="1.11396">
        <ele>110</ele>
        <time>2011-09-25T09:15:42Z</time>
      </trkpt>
      <trkpt lat="49.00274" lon="1.11396">
        <ele>110</ele>
        <time>2011-09-25T09:15:45Z</time>
      </trkpt>
      <trkpt lat="49.00263" lon="1.11397">
        <ele>112</ele>
        <time>2011-09-25T09:15:46Z</time>
      </trkpt>
      <trkpt lat="49.00263" lon="1.11397">
        <ele>112</ele>
        <time>2011-09-25T09:15:46Z</time>
      </trkpt>
      <trkpt lat="49.00263" lon="1.11397">
        <ele>112</ele>
        <time>2011-09-25T09:15:50Z</time>
      </trkpt>
      <trkpt lat="49.00253" lon="1.11399">
        <ele>113</ele>
        <time>2011-09-25T09:15:51Z</time>
      </trkpt>
      <trkpt lat="49.00253" lon="1.11399">
        <ele>113</ele>
        <time>2011-09-25T09:15:51Z</time>
      </trkpt>
      <trkpt lat="49.00253" lon="1.11399">
        <ele>113</ele>
        <time>2011-09-25T09:15:56Z</time>
      </trkpt>
      <trkpt lat="49.00244" lon="1.11402">
        <ele>117</ele>
        <time>2011-09-25T09:15:57Z</time>
      </trkpt>
      <trkpt lat="49.00244" lon="1.11402">
        <ele>117</ele>
        <time>2011-09-25T09:15:57Z</time>
      </trkpt>
      <trkpt lat="49.00244" lon="1.11402">
        <ele>117</ele>
        <time>2011-09-25T09:16:03Z</time>
      </trkpt>
      <trkpt lat="49.00235" lon="1.11406">
        <ele>117</ele>
        <time>2011-09-25T09:16:04Z</time>
      </trkpt>
      <trkpt lat="49.00235" lon="1.11406">
        <ele>117</ele>
        <time>2011-09-25T09:16:04Z</time>
      </trkpt>
      <trkpt lat="49.00235" lon="1.11406">
        <ele>117</ele>
        <time>2011-09-25T09:16:09Z</time>
      </trkpt>
      <trkpt lat="49.00224" lon="1.11409">
        <ele>118</ele>
        <time>2011-09-25T09:16:10Z</time>
      </trkpt>
      <trkpt lat="49.00224" lon="1.11409">
        <ele>118</ele>
        <time>2011-09-25T09:16:10Z</time>
      </trkpt>
      <trkpt lat="49.00224" lon="1.11409">
        <ele>118</ele>
        <time>2011-09-25T09:16:13Z</time>
      </trkpt>
      <trkpt lat="49.00215" lon="1.11413">
        <ele>118</ele>
        <time>2011-09-25T09:16:14Z</time>
      </trkpt>
      <trkpt lat="49.00215" lon="1.11413">
        <ele>118</ele>
        <time>2011-09-25T09:16:14Z</time>
      </trkpt>
      <trkpt lat="49.00215" lon="1.11413">
        <ele>118</ele>
        <time>2011-09-25T09:16:18Z</time>
      </trkpt>
      <trkpt lat="49.00205" lon="1.11418">
        <ele>122</ele>
        <time>2011-09-25T09:16:19Z</time>
      </trkpt>
      <trkpt lat="49.00205" lon="1.11418">
        <ele>122</ele>
        <time>2011-09-25T09:16:19Z</time>
      </trkpt>
      <trkpt lat="49.00205" lon="1.11418">
        <ele>122</ele>
        <time>2011-09-25T09:16:24Z</time>
      </trkpt>
      <trkpt lat="49.00196" lon="1.11422">
        <ele>123</ele>
        <time>2011-09-25T09:16:25Z</time>
      </trkpt>
      <trkpt lat="49.00196" lon="1.11422">
        <ele>123</ele>
        <time>2011-09-25T09:16:25Z</time>
      </trkpt>
      <trkpt lat="49.00196" lon="1.11422">
        <ele>123</ele>
        <time>2011-09-25T09:16:28Z</time>
      </trkpt>
      <trkpt lat="49.00187" lon="1.11427">
        <ele>123</ele>
        <time>2011-09-25T09:16:29Z</time>
      </trkpt>
      <trkpt lat="49.00187" lon="1.11427">
        <ele>123</ele>
        <time>2011-09-25T09:16:29Z</time>
      </trkpt>
      <trkpt lat="49.00187" lon="1.11427">
        <ele>123</ele>
        <time>2011-09-25T09:16:32Z</time>
      </trkpt>
      <trkpt lat="49.00177" lon="1.11432">
        <ele>124</ele>
        <time>2011-09-25T09:16:33Z</time>
      </trkpt>
      <trkpt lat="49.00177" lon="1.11432">
        <ele>124</ele>
        <time>2011-09-25T09:16:33Z</time>
      </trkpt>
      <trkpt lat="49.00177" lon="1.11432">
        <ele>124</ele>
        <time>2011-09-25T09:16:36Z</time>
      </trkpt>
      <trkpt lat="49.00166" lon="1.11437">
        <ele>126</ele>
        <time>2011-09-25T09:16:37Z</time>
      </trkpt>
      <trkpt lat="49.00166" lon="1.11437">
        <ele>126</ele>
        <time>2011-09-25T09:16:37Z</time>
      </trkpt>
      <trkpt lat="49.00166" lon="1.11437">
        <ele>126</ele>
        <time>2011-09-25T09:16:39Z</time>
      </trkpt>
      <trkpt lat="49.00157" lon="1.11442">
        <ele>127</ele>
        <time>2011-09-25T09:16:40Z</time>
      </trkpt>
      <trkpt lat="49.00157" lon="1.11442">
        <ele>127</ele>
        <time>2011-09-25T09:16:40Z</time>
      </trkpt>
      <trkpt lat="49.00157" lon="1.11442">
        <ele>127</ele>
        <time>2011-09-25T09:16:43Z</time>
      </trkpt>
      <trkpt lat="49.00147" lon="1.11446">
        <ele>127</ele>
        <time>2011-09-25T09:16:44Z</time>
      </trkpt>
      <trkpt lat="49.00147" lon="1.11446">
        <ele>127</ele>
        <time>2011-09-25T09:16:44Z</time>
      </trkpt>
      <trkpt lat="49.00147" lon="1.11446">
        <ele>127</ele>
        <time>2011-09-25T09:16:47Z</time>
      </trkpt>
      <trkpt lat="49.00136" lon="1.1145">
        <ele>128</ele>
        <time>2011-09-25T09:16:48Z</time>
      </trkpt>
      <trkpt lat="49.00136" lon="1.1145">
        <ele>128</ele>
        <time>2011-09-25T09:16:48Z</time>
      </trkpt>
      <trkpt lat="49.00136" lon="1.1145">
        <ele>128</ele>
        <time>2011-09-25T09:16:51Z</time>
      </trkpt>
      <trkpt lat="49.00125" lon="1.11455">
        <ele>128</ele>
        <time>2011-09-25T09:16:52Z</time>
      </trkpt>
      <trkpt lat="49.00125" lon="1.11455">
        <ele>128</ele>
        <time>2011-09-25T09:16:52Z</time>
      </trkpt>
      <trkpt lat="49.00125" lon="1.11455">
        <ele>128</ele>
        <time>2011-09-25T09:16:55Z</time>
      </trkpt>
      <trkpt lat="49.00115" lon="1.11457">
        <ele>129</ele>
        <time>2011-09-25T09:16:56Z</time>
      </trkpt>
      <trkpt lat="49.00115" lon="1.11457">
        <ele>129</ele>
        <time>2011-09-25T09:16:56Z</time>
      </trkpt>
      <trkpt lat="49.00115" lon="1.11457">
        <ele>129</ele>
        <time>2011-09-25T09:17:00Z</time>
      </trkpt>
      <trkpt lat="49.00106" lon="1.1146">
        <ele>129</ele>
        <time>2011-09-25T09:17:01Z</time>
      </trkpt>
      <trkpt lat="49.00106" lon="1.1146">
        <ele>129</ele>
        <time>2011-09-25T09:17:01Z</time>
      </trkpt>
      <trkpt lat="49.00106" lon="1.1146">
        <ele>129</ele>
        <time>2011-09-25T09:17:02Z</time>
      </trkpt>
      <trkpt lat="49.00101" lon="1.11463">
        <ele>129</ele>
        <time>2011-09-25T09:17:03Z</time>
      </trkpt>
      <trkpt lat="49.00095" lon="1.11465">
        <ele>129</ele>
        <time>2011-09-25T09:17:05Z</time>
      </trkpt>
      <trkpt lat="49.0009" lon="1.11466">
        <ele>130</ele>
        <time>2011-09-25T09:17:07Z</time>
      </trkpt>
      <trkpt lat="49.00085" lon="1.11468">
        <ele>130</ele>
        <time>2011-09-25T09:17:09Z</time>
      </trkpt>
      <trkpt lat="49.0008" lon="1.11471">
        <ele>132</ele>
        <time>2011-09-25T09:17:11Z</time>
      </trkpt>
      <trkpt lat="49.00075" lon="1.11472">
        <ele>132</ele>
        <time>2011-09-25T09:17:13Z</time>
      </trkpt>
      <trkpt lat="49.0007" lon="1.11475">
        <ele>132</ele>
        <time>2011-09-25T09:17:15Z</time>
      </trkpt>
      <trkpt lat="49.00064" lon="1.11477">
        <ele>132</ele>
        <time>2011-09-25T09:17:17Z</time>
      </trkpt>
      <trkpt lat="49.00059" lon="1.1148">
        <ele>132</ele>
        <time>2011-09-25T09:17:19Z</time>
      </trkpt>
      <trkpt lat="49.00053" lon="1.11482">
        <ele>132</ele>
        <time>2011-09-25T09:17:21Z</time>
      </trkpt>
      <trkpt lat="49.00049" lon="1.11484">
        <ele>132</ele>
        <time>2011-09-25T09:17:23Z</time>
      </trkpt>
      <trkpt lat="49.00044" lon="1.11487">
        <ele>132</ele>
        <time>2011-09-25T09:17:25Z</time>
      </trkpt>
      <trkpt lat="49.00038" lon="1.1149">
        <ele>132</ele>
        <time>2011-09-25T09:17:27Z</time>
      </trkpt>
      <trkpt lat="49.0003" lon="1.11493">
        <ele>132</ele>
        <time>2011-09-25T09:17:29Z</time>
      </trkpt>
      <trkpt lat="49.00022" lon="1.11496">
        <ele>132</ele>
        <time>2011-09-25T09:17:31Z</time>
      </trkpt>
      <trkpt lat="49.0001" lon="1.11504">
        <ele>133</ele>
        <time>2011-09-25T09:17:36Z</time>
      </trkpt>
      <trkpt lat="49.0001" lon="1.11504">
        <ele>133</ele>
        <time>2011-09-25T09:17:36Z</time>
      </trkpt>
      <trkpt lat="49.0001" lon="1.11504">
        <ele>133</ele>
        <time>2011-09-25T09:17:38Z</time>
      </trkpt>
      <trkpt lat="49.00002" lon="1.11508">
        <ele>133</ele>
        <time>2011-09-25T09:17:39Z</time>
      </trkpt>
      <trkpt lat="48.99998" lon="1.1151">
        <ele>133</ele>
        <time>2011-09-25T09:17:41Z</time>
      </trkpt>
      <trkpt lat="48.99998" lon="1.1151">
        <ele>133</ele>
        <time>2011-09-25T09:17:41Z</time>
      </trkpt>
      <trkpt lat="48.99998" lon="1.1151">
        <ele>133</ele>
        <time>2011-09-25T09:17:45Z</time>
      </trkpt>
      <trkpt lat="48.99988" lon="1.11515">
        <ele>133</ele>
        <time>2011-09-25T09:17:46Z</time>
      </trkpt>
      <trkpt lat="48.99988" lon="1.11515">
        <ele>133</ele>
        <time>2011-09-25T09:17:46Z</time>
      </trkpt>
      <trkpt lat="48.99988" lon="1.11515">
        <ele>133</ele>
        <time>2011-09-25T09:17:50Z</time>
      </trkpt>
      <trkpt lat="48.9998" lon="1.11524">
        <ele>133</ele>
        <time>2011-09-25T09:17:51Z</time>
      </trkpt>
      <trkpt lat="48.9998" lon="1.11524">
        <ele>133</ele>
        <time>2011-09-25T09:17:51Z</time>
      </trkpt>
      <trkpt lat="48.9998" lon="1.11524">
        <ele>133</ele>
        <time>2011-09-25T09:17:56Z</time>
      </trkpt>
      <trkpt lat="48.99971" lon="1.11523">
        <ele>133</ele>
        <time>2011-09-25T09:17:57Z</time>
      </trkpt>
      <trkpt lat="48.99971" lon="1.11523">
        <ele>133</ele>
        <time>2011-09-25T09:17:57Z</time>
      </trkpt>
      <trkpt lat="48.99971" lon="1.11523">
        <ele>133</ele>
        <time>2011-09-25T09:17:58Z</time>
      </trkpt>
      <trkpt lat="48.99964" lon="1.11526">
        <ele>133</ele>
        <time>2011-09-25T09:17:59Z</time>
      </trkpt>
      <trkpt lat="48.99957" lon="1.11529">
        <ele>133</ele>
        <time>2011-09-25T09:18:01Z</time>
      </trkpt>
      <trkpt lat="48.99949" lon="1.11533">
        <ele>133</ele>
        <time>2011-09-25T09:18:03Z</time>
      </trkpt>
      <trkpt lat="48.99942" lon="1.11537">
        <ele>133</ele>
        <time>2011-09-25T09:18:05Z</time>
      </trkpt>
      <trkpt lat="48.99934" lon="1.11539">
        <ele>133</ele>
        <time>2011-09-25T09:18:07Z</time>
      </trkpt>
      <trkpt lat="48.99927" lon="1.11543">
        <ele>133</ele>
        <time>2011-09-25T09:18:09Z</time>
      </trkpt>
      <trkpt lat="48.9992" lon="1.11546">
        <ele>132</ele>
        <time>2011-09-25T09:18:11Z</time>
      </trkpt>
      <trkpt lat="48.99912" lon="1.11549">
        <ele>132</ele>
        <time>2011-09-25T09:18:13Z</time>
      </trkpt>
      <trkpt lat="48.99906" lon="1.11551">
        <ele>132</ele>
        <time>2011-09-25T09:18:15Z</time>
      </trkpt>
      <trkpt lat="48.99899" lon="1.11554">
        <ele>132</ele>
        <time>2011-09-25T09:18:17Z</time>
      </trkpt>
      <trkpt lat="48.99891" lon="1.11558">
        <ele>132</ele>
        <time>2011-09-25T09:18:19Z</time>
      </trkpt>
      <trkpt lat="48.99887" lon="1.1156">
        <ele>132</ele>
        <time>2011-09-25T09:18:20Z</time>
      </trkpt>
      <trkpt lat="48.99883" lon="1.11563">
        <ele>132</ele>
        <time>2011-09-25T09:18:21Z</time>
      </trkpt>
      <trkpt lat="48.99875" lon="1.11568">
        <ele>132</ele>
        <time>2011-09-25T09:18:23Z</time>
      </trkpt>
      <trkpt lat="48.99867" lon="1.11572">
        <ele>132</ele>
        <time>2011-09-25T09:18:25Z</time>
      </trkpt>
      <trkpt lat="48.99858" lon="1.11575">
        <ele>132</ele>
        <time>2011-09-25T09:18:27Z</time>
      </trkpt>
      <trkpt lat="48.99853" lon="1.11577">
        <ele>132</ele>
        <time>2011-09-25T09:18:28Z</time>
      </trkpt>
      <trkpt lat="48.99849" lon="1.11579">
        <ele>132</ele>
        <time>2011-09-25T09:18:29Z</time>
      </trkpt>
      <trkpt lat="48.9984" lon="1.11583">
        <ele>132</ele>
        <time>2011-09-25T09:18:31Z</time>
      </trkpt>
      <trkpt lat="48.99836" lon="1.11585">
        <ele>132</ele>
        <time>2011-09-25T09:18:32Z</time>
      </trkpt>
      <trkpt lat="48.99827" lon="1.11588">
        <ele>132</ele>
        <time>2011-09-25T09:18:34Z</time>
      </trkpt>
      <trkpt lat="48.99819" lon="1.11591">
        <ele>132</ele>
        <time>2011-09-25T09:18:36Z</time>
      </trkpt>
      <trkpt lat="48.99811" lon="1.11595">
        <ele>131</ele>
        <time>2011-09-25T09:18:38Z</time>
      </trkpt>
      <trkpt lat="48.99803" lon="1.11598">
        <ele>131</ele>
        <time>2011-09-25T09:18:40Z</time>
      </trkpt>
      <trkpt lat="48.99795" lon="1.11601">
        <ele>131</ele>
        <time>2011-09-25T09:18:42Z</time>
      </trkpt>
      <trkpt lat="48.99786" lon="1.11605">
        <ele>131</ele>
        <time>2011-09-25T09:18:44Z</time>
      </trkpt>
      <trkpt lat="48.99781" lon="1.11608">
        <ele>131</ele>
        <time>2011-09-25T09:18:45Z</time>
      </trkpt>
      <trkpt lat="48.99776" lon="1.11611">
        <ele>131</ele>
        <time>2011-09-25T09:18:46Z</time>
      </trkpt>
      <trkpt lat="48.99772" lon="1.11616">
        <ele>131</ele>
        <time>2011-09-25T09:18:47Z</time>
      </trkpt>
      <trkpt lat="48.99768" lon="1.11621">
        <ele>131</ele>
        <time>2011-09-25T09:18:48Z</time>
      </trkpt>
      <trkpt lat="48.99764" lon="1.11627">
        <ele>131</ele>
        <time>2011-09-25T09:18:49Z</time>
      </trkpt>
      <trkpt lat="48.9976" lon="1.11633">
        <ele>131</ele>
        <time>2011-09-25T09:18:50Z</time>
      </trkpt>
      <trkpt lat="48.99757" lon="1.1164">
        <ele>131</ele>
        <time>2011-09-25T09:18:51Z</time>
      </trkpt>
      <trkpt lat="48.99753" lon="1.11647">
        <ele>130</ele>
        <time>2011-09-25T09:18:52Z</time>
      </trkpt>
      <trkpt lat="48.99751" lon="1.11655">
        <ele>130</ele>
        <time>2011-09-25T09:18:53Z</time>
      </trkpt>
      <trkpt lat="48.99749" lon="1.11664">
        <ele>130</ele>
        <time>2011-09-25T09:18:54Z</time>
      </trkpt>
      <trkpt lat="48.99748" lon="1.11672">
        <ele>129</ele>
        <time>2011-09-25T09:18:55Z</time>
      </trkpt>
      <trkpt lat="48.99746" lon="1.11682">
        <ele>129</ele>
        <time>2011-09-25T09:18:56Z</time>
      </trkpt>
      <trkpt lat="48.99744" lon="1.11692">
        <ele>128</ele>
        <time>2011-09-25T09:18:57Z</time>
      </trkpt>
      <trkpt lat="48.99743" lon="1.11702">
        <ele>128</ele>
        <time>2011-09-25T09:18:58Z</time>
      </trkpt>
      <trkpt lat="48.99742" lon="1.1171">
        <ele>128</ele>
        <time>2011-09-25T09:18:59Z</time>
      </trkpt>
      <trkpt lat="48.99742" lon="1.11719">
        <ele>128</ele>
        <time>2011-09-25T09:19:00Z</time>
      </trkpt>
      <trkpt lat="48.99742" lon="1.11727">
        <ele>128</ele>
        <time>2011-09-25T09:19:01Z</time>
      </trkpt>
      <trkpt lat="48.99743" lon="1.11737">
        <ele>128</ele>
        <time>2011-09-25T09:19:02Z</time>
      </trkpt>
      <trkpt lat="48.99744" lon="1.11747">
        <ele>129</ele>
        <time>2011-09-25T09:19:03Z</time>
      </trkpt>
      <trkpt lat="48.99746" lon="1.11756">
        <ele>128</ele>
        <time>2011-09-25T09:19:04Z</time>
      </trkpt>
      <trkpt lat="48.99747" lon="1.11765">
        <ele>127</ele>
        <time>2011-09-25T09:19:05Z</time>
      </trkpt>
      <trkpt lat="48.99748" lon="1.11775">
        <ele>126</ele>
        <time>2011-09-25T09:19:06Z</time>
      </trkpt>
      <trkpt lat="48.99749" lon="1.11784">
        <ele>126</ele>
        <time>2011-09-25T09:19:07Z</time>
      </trkpt>
      <trkpt lat="48.9975" lon="1.11794">
        <ele>126</ele>
        <time>2011-09-25T09:19:08Z</time>
      </trkpt>
      <trkpt lat="48.9975" lon="1.11804">
        <ele>126</ele>
        <time>2011-09-25T09:19:09Z</time>
      </trkpt>
      <trkpt lat="48.9975" lon="1.11815">
        <ele>125</ele>
        <time>2011-09-25T09:19:10Z</time>
      </trkpt>
      <trkpt lat="48.99751" lon="1.11826">
        <ele>125</ele>
        <time>2011-09-25T09:19:11Z</time>
      </trkpt>
      <trkpt lat="48.99752" lon="1.11838">
        <ele>124</ele>
        <time>2011-09-25T09:19:12Z</time>
      </trkpt>
      <trkpt lat="48.99754" lon="1.1185">
        <ele>124</ele>
        <time>2011-09-25T09:19:13Z</time>
      </trkpt>
      <trkpt lat="48.99756" lon="1.1186">
        <ele>124</ele>
        <time>2011-09-25T09:19:14Z</time>
      </trkpt>
      <trkpt lat="48.99757" lon="1.11866">
        <ele>124</ele>
        <time>2011-09-25T09:19:15Z</time>
      </trkpt>
      <trkpt lat="48.99758" lon="1.11874">
        <ele>124</ele>
        <time>2011-09-25T09:19:16Z</time>
      </trkpt>
      <trkpt lat="48.99759" lon="1.11881">
        <ele>124</ele>
        <time>2011-09-25T09:19:17Z</time>
      </trkpt>
      <trkpt lat="48.99761" lon="1.11888">
        <ele>124</ele>
        <time>2011-09-25T09:19:18Z</time>
      </trkpt>
      <trkpt lat="48.99762" lon="1.11896">
        <ele>124</ele>
        <time>2011-09-25T09:19:19Z</time>
      </trkpt>
      <trkpt lat="48.99764" lon="1.11903">
        <ele>124</ele>
        <time>2011-09-25T09:19:20Z</time>
      </trkpt>
      <trkpt lat="48.99766" lon="1.11909">
        <ele>124</ele>
        <time>2011-09-25T09:19:21Z</time>
      </trkpt>
      <trkpt lat="48.99766" lon="1.11916">
        <ele>124</ele>
        <time>2011-09-25T09:19:22Z</time>
      </trkpt>
      <trkpt lat="48.99768" lon="1.11927">
        <ele>125</ele>
        <time>2011-09-25T09:19:24Z</time>
      </trkpt>
      <trkpt lat="48.99772" lon="1.11948">
        <ele>126</ele>
        <time>2011-09-25T09:19:29Z</time>
      </trkpt>
      <trkpt lat="48.99772" lon="1.11948">
        <ele>126</ele>
        <time>2011-09-25T09:19:29Z</time>
      </trkpt>
      <trkpt lat="48.99772" lon="1.11948">
        <ele>126</ele>
        <time>2011-09-25T09:19:31Z</time>
      </trkpt>
      <trkpt lat="48.99776" lon="1.11963">
        <ele>127</ele>
        <time>2011-09-25T09:19:32Z</time>
      </trkpt>
      <trkpt lat="48.99776" lon="1.11963">
        <ele>127</ele>
        <time>2011-09-25T09:19:32Z</time>
      </trkpt>
      <trkpt lat="48.99776" lon="1.11963">
        <ele>127</ele>
        <time>2011-09-25T09:19:34Z</time>
      </trkpt>
      <trkpt lat="48.99777" lon="1.11978">
        <ele>128</ele>
        <time>2011-09-25T09:19:35Z</time>
      </trkpt>
      <trkpt lat="48.99777" lon="1.11978">
        <ele>128</ele>
        <time>2011-09-25T09:19:35Z</time>
      </trkpt>
      <trkpt lat="48.99777" lon="1.11978">
        <ele>128</ele>
        <time>2011-09-25T09:19:37Z</time>
      </trkpt>
      <trkpt lat="48.99778" lon="1.11995">
        <ele>128</ele>
        <time>2011-09-25T09:19:38Z</time>
      </trkpt>
      <trkpt lat="48.99784" lon="1.12004">
        <ele>130</ele>
        <time>2011-09-25T09:19:42Z</time>
      </trkpt>
      <trkpt lat="48.99793" lon="1.12004">
        <ele>130</ele>
        <time>2011-09-25T09:19:44Z</time>
      </trkpt>
      <trkpt lat="48.99798" lon="1.12005">
        <ele>130</ele>
        <time>2011-09-25T09:19:45Z</time>
      </trkpt>
      <trkpt lat="48.99806" lon="1.12008">
        <ele>130</ele>
        <time>2011-09-25T09:19:47Z</time>
      </trkpt>
      <trkpt lat="48.99813" lon="1.1201">
        <ele>130</ele>
        <time>2011-09-25T09:19:49Z</time>
      </trkpt>
      <trkpt lat="48.9982" lon="1.1201">
        <ele>129</ele>
        <time>2011-09-25T09:19:51Z</time>
      </trkpt>
      <trkpt lat="48.99828" lon="1.12007">
        <ele>129</ele>
        <time>2011-09-25T09:19:53Z</time>
      </trkpt>
      <trkpt lat="48.99836" lon="1.12004">
        <ele>128</ele>
        <time>2011-09-25T09:19:55Z</time>
      </trkpt>
      <trkpt lat="48.99844" lon="1.12002">
        <ele>128</ele>
        <time>2011-09-25T09:19:57Z</time>
      </trkpt>
      <trkpt lat="48.99849" lon="1.12">
        <ele>128</ele>
        <time>2011-09-25T09:19:58Z</time>
      </trkpt>
      <trkpt lat="48.99853" lon="1.11997">
        <ele>126</ele>
        <time>2011-09-25T09:19:59Z</time>
      </trkpt>
      <trkpt lat="48.99857" lon="1.11994">
        <ele>126</ele>
        <time>2011-09-25T09:20:00Z</time>
      </trkpt>
      <trkpt lat="48.99865" lon="1.11988">
        <ele>126</ele>
        <time>2011-09-25T09:20:02Z</time>
      </trkpt>
      <trkpt lat="48.9987" lon="1.11987">
        <ele>125</ele>
        <time>2011-09-25T09:20:03Z</time>
      </trkpt>
      <trkpt lat="48.99876" lon="1.11988">
        <ele>125</ele>
        <time>2011-09-25T09:20:04Z</time>
      </trkpt>
      <trkpt lat="48.99881" lon="1.11989">
        <ele>125</ele>
        <time>2011-09-25T09:20:05Z</time>
      </trkpt>
      <trkpt lat="48.99886" lon="1.11991">
        <ele>125</ele>
        <time>2011-09-25T09:20:06Z</time>
      </trkpt>
      <trkpt lat="48.99891" lon="1.11995">
        <ele>125</ele>
        <time>2011-09-25T09:20:07Z</time>
      </trkpt>
      <trkpt lat="48.99895" lon="1.12">
        <ele>126</ele>
        <time>2011-09-25T09:20:08Z</time>
      </trkpt>
      <trkpt lat="48.99899" lon="1.12005">
        <ele>126</ele>
        <time>2011-09-25T09:20:09Z</time>
      </trkpt>
      <trkpt lat="48.99902" lon="1.12011">
        <ele>126</ele>
        <time>2011-09-25T09:20:10Z</time>
      </trkpt>
      <trkpt lat="48.99906" lon="1.12015">
        <ele>126</ele>
        <time>2011-09-25T09:20:11Z</time>
      </trkpt>
      <trkpt lat="48.9991" lon="1.12019">
        <ele>126</ele>
        <time>2011-09-25T09:20:12Z</time>
      </trkpt>
      <trkpt lat="48.99914" lon="1.12022">
        <ele>126</ele>
        <time>2011-09-25T09:20:13Z</time>
      </trkpt>
      <trkpt lat="48.99918" lon="1.12025">
        <ele>124</ele>
        <time>2011-09-25T09:20:14Z</time>
      </trkpt>
      <trkpt lat="48.99923" lon="1.12029">
        <ele>124</ele>
        <time>2011-09-25T09:20:15Z</time>
      </trkpt>
      <trkpt lat="48.99927" lon="1.12033">
        <ele>124</ele>
        <time>2011-09-25T09:20:16Z</time>
      </trkpt>
      <trkpt lat="48.99931" lon="1.12037">
        <ele>124</ele>
        <time>2011-09-25T09:20:17Z</time>
      </trkpt>
      <trkpt lat="48.99936" lon="1.12039">
        <ele>124</ele>
        <time>2011-09-25T09:20:18Z</time>
      </trkpt>
      <trkpt lat="48.99942" lon="1.1204">
        <ele>124</ele>
        <time>2011-09-25T09:20:19Z</time>
      </trkpt>
      <trkpt lat="48.99947" lon="1.1204">
        <ele>124</ele>
        <time>2011-09-25T09:20:20Z</time>
      </trkpt>
      <trkpt lat="48.99953" lon="1.12038">
        <ele>124</ele>
        <time>2011-09-25T09:20:21Z</time>
      </trkpt>
      <trkpt lat="48.99959" lon="1.12034">
        <ele>123</ele>
        <time>2011-09-25T09:20:22Z</time>
      </trkpt>
      <trkpt lat="48.99964" lon="1.1203">
        <ele>123</ele>
        <time>2011-09-25T09:20:23Z</time>
      </trkpt>
      <trkpt lat="48.9997" lon="1.12028">
        <ele>123</ele>
        <time>2011-09-25T09:20:24Z</time>
      </trkpt>
      <trkpt lat="48.99975" lon="1.12024">
        <ele>122</ele>
        <time>2011-09-25T09:20:25Z</time>
      </trkpt>
      <trkpt lat="48.9998" lon="1.12021">
        <ele>122</ele>
        <time>2011-09-25T09:20:26Z</time>
      </trkpt>
      <trkpt lat="48.99984" lon="1.12017">
        <ele>121</ele>
        <time>2011-09-25T09:20:27Z</time>
      </trkpt>
      <trkpt lat="48.99988" lon="1.12013">
        <ele>121</ele>
        <time>2011-09-25T09:20:28Z</time>
      </trkpt>
      <trkpt lat="48.99992" lon="1.12008">
        <ele>120</ele>
        <time>2011-09-25T09:20:29Z</time>
      </trkpt>
      <trkpt lat="48.99995" lon="1.12002">
        <ele>119</ele>
        <time>2011-09-25T09:20:30Z</time>
      </trkpt>
      <trkpt lat="48.99998" lon="1.11996">
        <ele>118</ele>
        <time>2011-09-25T09:20:31Z</time>
      </trkpt>
      <trkpt lat="49.00003" lon="1.11986">
        <ele>117</ele>
        <time>2011-09-25T09:20:35Z</time>
      </trkpt>
      <trkpt lat="49.00007" lon="1.11977">
        <ele>116</ele>
        <time>2011-09-25T09:20:38Z</time>
      </trkpt>
      <trkpt lat="49.0001" lon="1.11971">
        <ele>116</ele>
        <time>2011-09-25T09:20:39Z</time>
      </trkpt>
      <trkpt lat="49.00014" lon="1.11958">
        <ele>116</ele>
        <time>2011-09-25T09:20:41Z</time>
      </trkpt>
      <trkpt lat="49.0002" lon="1.1195">
        <ele>116</ele>
        <time>2011-09-25T09:20:43Z</time>
      </trkpt>
      <trkpt lat="49.00027" lon="1.1195">
        <ele>116</ele>
        <time>2011-09-25T09:20:45Z</time>
      </trkpt>
      <trkpt lat="49.00034" lon="1.11952">
        <ele>116</ele>
        <time>2011-09-25T09:20:47Z</time>
      </trkpt>
      <trkpt lat="49.0004" lon="1.11954">
        <ele>116</ele>
        <time>2011-09-25T09:20:50Z</time>
      </trkpt>
      <trkpt lat="49.0004" lon="1.11954">
        <ele>116</ele>
        <time>2011-09-25T09:20:50Z</time>
      </trkpt>
      <trkpt lat="49.0004" lon="1.11954">
        <ele>116</ele>
        <time>2011-09-25T09:20:51Z</time>
      </trkpt>
      <trkpt lat="49.00047" lon="1.11956">
        <ele>115</ele>
        <time>2011-09-25T09:20:53Z</time>
      </trkpt>
      <trkpt lat="49.00054" lon="1.11959">
        <ele>115</ele>
        <time>2011-09-25T09:20:55Z</time>
      </trkpt>
      <trkpt lat="49.0006" lon="1.11962">
        <ele>115</ele>
        <time>2011-09-25T09:20:57Z</time>
      </trkpt>
      <trkpt lat="49.00067" lon="1.11966">
        <ele>115</ele>
        <time>2011-09-25T09:20:59Z</time>
      </trkpt>
      <trkpt lat="49.00074" lon="1.1197">
        <ele>115</ele>
        <time>2011-09-25T09:21:01Z</time>
      </trkpt>
      <trkpt lat="49.00082" lon="1.11975">
        <ele>114</ele>
        <time>2011-09-25T09:21:03Z</time>
      </trkpt>
      <trkpt lat="49.00089" lon="1.1198">
        <ele>113</ele>
        <time>2011-09-25T09:21:05Z</time>
      </trkpt>
      <trkpt lat="49.00096" lon="1.11986">
        <ele>113</ele>
        <time>2011-09-25T09:21:07Z</time>
      </trkpt>
      <trkpt lat="49.00103" lon="1.1199">
        <ele>113</ele>
        <time>2011-09-25T09:21:09Z</time>
      </trkpt>
      <trkpt lat="49.00108" lon="1.11998">
        <ele>112</ele>
        <time>2011-09-25T09:21:11Z</time>
      </trkpt>
      <trkpt lat="49.00114" lon="1.12006">
        <ele>112</ele>
        <time>2011-09-25T09:21:13Z</time>
      </trkpt>
      <trkpt lat="49.0012" lon="1.12014">
        <ele>112</ele>
        <time>2011-09-25T09:21:15Z</time>
      </trkpt>
      <trkpt lat="49.00126" lon="1.12019">
        <ele>111</ele>
        <time>2011-09-25T09:21:17Z</time>
      </trkpt>
      <trkpt lat="49.00133" lon="1.12026">
        <ele>111</ele>
        <time>2011-09-25T09:21:19Z</time>
      </trkpt>
      <trkpt lat="49.0014" lon="1.12032">
        <ele>111</ele>
        <time>2011-09-25T09:21:21Z</time>
      </trkpt>
      <trkpt lat="49.00146" lon="1.12037">
        <ele>111</ele>
        <time>2011-09-25T09:21:23Z</time>
      </trkpt>
      <trkpt lat="49.00152" lon="1.12042">
        <ele>111</ele>
        <time>2011-09-25T09:21:25Z</time>
      </trkpt>
      <trkpt lat="49.00158" lon="1.12048">
        <ele>111</ele>
        <time>2011-09-25T09:21:27Z</time>
      </trkpt>
      <trkpt lat="49.00162" lon="1.12052">
        <ele>110</ele>
        <time>2011-09-25T09:21:29Z</time>
      </trkpt>
      <trkpt lat="49.00162" lon="1.12052">
        <ele>110</ele>
        <time>2011-09-25T09:21:29Z</time>
      </trkpt>
      <trkpt lat="49.00162" lon="1.12052">
        <ele>110</ele>
        <time>2011-09-25T09:21:31Z</time>
      </trkpt>
      <trkpt lat="49.00167" lon="1.12056">
        <ele>108</ele>
        <time>2011-09-25T09:21:33Z</time>
      </trkpt>
      <trkpt lat="49.00167" lon="1.12056">
        <ele>108</ele>
        <time>2011-09-25T09:21:33Z</time>
      </trkpt>
      <trkpt lat="49.00167" lon="1.12056">
        <ele>108</ele>
        <time>2011-09-25T09:21:34Z</time>
      </trkpt>
      <trkpt lat="49.00172" lon="1.12059">
        <ele>108</ele>
        <time>2011-09-25T09:21:35Z</time>
      </trkpt>
      <trkpt lat="49.00179" lon="1.12065">
        <ele>108</ele>
        <time>2011-09-25T09:21:37Z</time>
      </trkpt>
      <trkpt lat="49.00183" lon="1.12068">
        <ele>108</ele>
        <time>2011-09-25T09:21:38Z</time>
      </trkpt>
      <trkpt lat="49.00189" lon="1.12073">
        <ele>108</ele>
        <time>2011-09-25T09:21:40Z</time>
      </trkpt>
      <trkpt lat="49.00193" lon="1.12078">
        <ele>108</ele>
        <time>2011-09-25T09:21:42Z</time>
      </trkpt>
      <trkpt lat="49.00198" lon="1.12085">
        <ele>110</ele>
        <time>2011-09-25T09:21:45Z</time>
      </trkpt>
      <trkpt lat="49.00201" lon="1.1209">
        <ele>110</ele>
        <time>2011-09-25T09:21:47Z</time>
      </trkpt>
      <trkpt lat="49.00205" lon="1.12095">
        <ele>111</ele>
        <time>2011-09-25T09:21:49Z</time>
      </trkpt>
      <trkpt lat="49.0021" lon="1.12098">
        <ele>111</ele>
        <time>2011-09-25T09:21:51Z</time>
      </trkpt>
      <trkpt lat="49.00214" lon="1.12103">
        <ele>111</ele>
        <time>2011-09-25T09:21:53Z</time>
      </trkpt>
      <trkpt lat="49.0022" lon="1.12108">
        <ele>111</ele>
        <time>2011-09-25T09:21:56Z</time>
      </trkpt>
      <trkpt lat="49.00222" lon="1.12115">
        <ele>111</ele>
        <time>2011-09-25T09:21:59Z</time>
      </trkpt>
      <trkpt lat="49.00224" lon="1.12123">
        <ele>112</ele>
        <time>2011-09-25T09:22:01Z</time>
      </trkpt>
      <trkpt lat="49.00228" lon="1.1213">
        <ele>112</ele>
        <time>2011-09-25T09:22:03Z</time>
      </trkpt>
      <trkpt lat="49.00232" lon="1.12136">
        <ele>113</ele>
        <time>2011-09-25T09:22:05Z</time>
      </trkpt>
      <trkpt lat="49.00237" lon="1.12141">
        <ele>113</ele>
        <time>2011-09-25T09:22:07Z</time>
      </trkpt>
      <trkpt lat="49.00242" lon="1.12145">
        <ele>114</ele>
        <time>2011-09-25T09:22:09Z</time>
      </trkpt>
      <trkpt lat="49.00247" lon="1.12146">
        <ele>114</ele>
        <time>2011-09-25T09:22:11Z</time>
      </trkpt>
      <trkpt lat="49.00251" lon="1.1215">
        <ele>117</ele>
        <time>2011-09-25T09:22:13Z</time>
      </trkpt>
      <trkpt lat="49.00256" lon="1.12155">
        <ele>117</ele>
        <time>2011-09-25T09:22:16Z</time>
      </trkpt>
      <trkpt lat="49.0026" lon="1.12157">
        <ele>117</ele>
        <time>2011-09-25T09:22:18Z</time>
      </trkpt>
      <trkpt lat="49.00267" lon="1.12162">
        <ele>117</ele>
        <time>2011-09-25T09:22:21Z</time>
      </trkpt>
      <trkpt lat="49.00272" lon="1.12165">
        <ele>117</ele>
        <time>2011-09-25T09:22:23Z</time>
      </trkpt>
      <trkpt lat="49.00276" lon="1.12169">
        <ele>120</ele>
        <time>2011-09-25T09:22:25Z</time>
      </trkpt>
      <trkpt lat="49.00276" lon="1.12169">
        <ele>120</ele>
        <time>2011-09-25T09:22:25Z</time>
      </trkpt>
      <trkpt lat="49.00276" lon="1.12169">
        <ele>120</ele>
        <time>2011-09-25T09:22:26Z</time>
      </trkpt>
      <trkpt lat="49.00281" lon="1.12173">
        <ele>121</ele>
        <time>2011-09-25T09:22:27Z</time>
      </trkpt>
      <trkpt lat="49.00287" lon="1.12176">
        <ele>121</ele>
        <time>2011-09-25T09:22:29Z</time>
      </trkpt>
      <trkpt lat="49.00293" lon="1.1218">
        <ele>122</ele>
        <time>2011-09-25T09:22:31Z</time>
      </trkpt>
      <trkpt lat="49.00293" lon="1.1218">
        <ele>122</ele>
        <time>2011-09-25T09:22:31Z</time>
      </trkpt>
      <trkpt lat="49.00293" lon="1.1218">
        <ele>122</ele>
        <time>2011-09-25T09:22:32Z</time>
      </trkpt>
      <trkpt lat="49.00299" lon="1.12183">
        <ele>122</ele>
        <time>2011-09-25T09:22:33Z</time>
      </trkpt>
      <trkpt lat="49.00304" lon="1.12186">
        <ele>122</ele>
        <time>2011-09-25T09:22:35Z</time>
      </trkpt>
      <trkpt lat="49.00308" lon="1.12188">
        <ele>122</ele>
        <time>2011-09-25T09:22:37Z</time>
      </trkpt>
      <trkpt lat="49.00313" lon="1.12192">
        <ele>122</ele>
        <time>2011-09-25T09:22:39Z</time>
      </trkpt>
      <trkpt lat="49.00318" lon="1.12195">
        <ele>123</ele>
        <time>2011-09-25T09:22:41Z</time>
      </trkpt>
      <trkpt lat="49.00323" lon="1.12198">
        <ele>123</ele>
        <time>2011-09-25T09:22:43Z</time>
      </trkpt>
      <trkpt lat="49.00328" lon="1.12201">
        <ele>123</ele>
        <time>2011-09-25T09:22:45Z</time>
      </trkpt>
      <trkpt lat="49.00332" lon="1.12204">
        <ele>123</ele>
        <time>2011-09-25T09:22:47Z</time>
      </trkpt>
      <trkpt lat="49.00332" lon="1.12204">
        <ele>123</ele>
        <time>2011-09-25T09:22:47Z</time>
      </trkpt>
      <trkpt lat="49.00332" lon="1.12204">
        <ele>123</ele>
        <time>2011-09-25T09:22:48Z</time>
      </trkpt>
      <trkpt lat="49.00336" lon="1.12206">
        <ele>126</ele>
        <time>2011-09-25T09:22:49Z</time>
      </trkpt>
      <trkpt lat="49.0034" lon="1.1221">
        <ele>126</ele>
        <time>2011-09-25T09:22:51Z</time>
      </trkpt>
      <trkpt lat="49.00345" lon="1.12214">
        <ele>126</ele>
        <time>2011-09-25T09:22:53Z</time>
      </trkpt>
      <trkpt lat="49.00349" lon="1.12217">
        <ele>126</ele>
        <time>2011-09-25T09:22:55Z</time>
      </trkpt>
      <trkpt lat="49.00354" lon="1.12221">
        <ele>126</ele>
        <time>2011-09-25T09:22:57Z</time>
      </trkpt>
      <trkpt lat="49.00358" lon="1.12224">
        <ele>126</ele>
        <time>2011-09-25T09:22:59Z</time>
      </trkpt>
      <trkpt lat="49.00362" lon="1.12227">
        <ele>127</ele>
        <time>2011-09-25T09:23:01Z</time>
      </trkpt>
      <trkpt lat="49.00367" lon="1.12231">
        <ele>127</ele>
        <time>2011-09-25T09:23:03Z</time>
      </trkpt>
      <trkpt lat="49.00372" lon="1.12234">
        <ele>127</ele>
        <time>2011-09-25T09:23:05Z</time>
      </trkpt>
      <trkpt lat="49.00376" lon="1.12238">
        <ele>127</ele>
        <time>2011-09-25T09:23:07Z</time>
      </trkpt>
      <trkpt lat="49.00381" lon="1.12241">
        <ele>127</ele>
        <time>2011-09-25T09:23:09Z</time>
      </trkpt>
      <trkpt lat="49.00386" lon="1.12246">
        <ele>128</ele>
        <time>2011-09-25T09:23:11Z</time>
      </trkpt>
      <trkpt lat="49.00392" lon="1.12248">
        <ele>128</ele>
        <time>2011-09-25T09:23:13Z</time>
      </trkpt>
      <trkpt lat="49.00397" lon="1.1225">
        <ele>129</ele>
        <time>2011-09-25T09:23:15Z</time>
      </trkpt>
      <trkpt lat="49.00403" lon="1.12252">
        <ele>129</ele>
        <time>2011-09-25T09:23:17Z</time>
      </trkpt>
      <trkpt lat="49.00408" lon="1.12253">
        <ele>129</ele>
        <time>2011-09-25T09:23:19Z</time>
      </trkpt>
      <trkpt lat="49.00413" lon="1.12255">
        <ele>130</ele>
        <time>2011-09-25T09:23:21Z</time>
      </trkpt>
      <trkpt lat="49.00418" lon="1.12256">
        <ele>130</ele>
        <time>2011-09-25T09:23:23Z</time>
      </trkpt>
      <trkpt lat="49.00424" lon="1.12257">
        <ele>130</ele>
        <time>2011-09-25T09:23:25Z</time>
      </trkpt>
      <trkpt lat="49.00428" lon="1.12257">
        <ele>130</ele>
        <time>2011-09-25T09:23:27Z</time>
      </trkpt>
      <trkpt lat="49.00434" lon="1.12257">
        <ele>130</ele>
        <time>2011-09-25T09:23:29Z</time>
      </trkpt>
      <trkpt lat="49.00444" lon="1.12248">
        <ele>131</ele>
        <time>2011-09-25T09:23:35Z</time>
      </trkpt>
      <trkpt lat="49.00444" lon="1.12248">
        <ele>131</ele>
        <time>2011-09-25T09:23:35Z</time>
      </trkpt>
      <trkpt lat="49.00444" lon="1.12248">
        <ele>131</ele>
        <time>2011-09-25T09:23:37Z</time>
      </trkpt>
      <trkpt lat="49.00447" lon="1.12241">
        <ele>131</ele>
        <time>2011-09-25T09:23:38Z</time>
      </trkpt>
      <trkpt lat="49.00449" lon="1.12232">
        <ele>131</ele>
        <time>2011-09-25T09:23:41Z</time>
      </trkpt>
      <trkpt lat="49.00449" lon="1.12232">
        <ele>131</ele>
        <time>2011-09-25T09:23:41Z</time>
      </trkpt>
      <trkpt lat="49.00449" lon="1.12232">
        <ele>131</ele>
        <time>2011-09-25T09:23:42Z</time>
      </trkpt>
      <trkpt lat="49.0045" lon="1.12225">
        <ele>131</ele>
        <time>2011-09-25T09:23:43Z</time>
      </trkpt>
      <trkpt lat="49.00453" lon="1.12214">
        <ele>131</ele>
        <time>2011-09-25T09:23:46Z</time>
      </trkpt>
      <trkpt lat="49.00454" lon="1.12207">
        <ele>131</ele>
        <time>2011-09-25T09:23:48Z</time>
      </trkpt>
      <trkpt lat="49.00456" lon="1.122">
        <ele>131</ele>
        <time>2011-09-25T09:23:50Z</time>
      </trkpt>
      <trkpt lat="49.00458" lon="1.12192">
        <ele>131</ele>
        <time>2011-09-25T09:23:52Z</time>
      </trkpt>
      <trkpt lat="49.00459" lon="1.12183">
        <ele>131</ele>
        <time>2011-09-25T09:23:54Z</time>
      </trkpt>
      <trkpt lat="49.0046" lon="1.12175">
        <ele>131</ele>
        <time>2011-09-25T09:23:56Z</time>
      </trkpt>
      <trkpt lat="49.00461" lon="1.12166">
        <ele>131</ele>
        <time>2011-09-25T09:23:58Z</time>
      </trkpt>
      <trkpt lat="49.00462" lon="1.12156">
        <ele>131</ele>
        <time>2011-09-25T09:24:00Z</time>
      </trkpt>
      <trkpt lat="49.00464" lon="1.12146">
        <ele>131</ele>
        <time>2011-09-25T09:24:02Z</time>
      </trkpt>
      <trkpt lat="49.00465" lon="1.12136">
        <ele>131</ele>
        <time>2011-09-25T09:24:04Z</time>
      </trkpt>
      <trkpt lat="49.00467" lon="1.12124">
        <ele>131</ele>
        <time>2011-09-25T09:24:06Z</time>
      </trkpt>
      <trkpt lat="49.00469" lon="1.12112">
        <ele>131</ele>
        <time>2011-09-25T09:24:08Z</time>
      </trkpt>
      <trkpt lat="49.00471" lon="1.121">
        <ele>131</ele>
        <time>2011-09-25T09:24:10Z</time>
      </trkpt>
      <trkpt lat="49.00473" lon="1.12088">
        <ele>132</ele>
        <time>2011-09-25T09:24:12Z</time>
      </trkpt>
      <trkpt lat="49.00475" lon="1.12077">
        <ele>131</ele>
        <time>2011-09-25T09:24:14Z</time>
      </trkpt>
      <trkpt lat="49.00476" lon="1.12066">
        <ele>131</ele>
        <time>2011-09-25T09:24:16Z</time>
      </trkpt>
      <trkpt lat="49.00477" lon="1.12054">
        <ele>131</ele>
        <time>2011-09-25T09:24:18Z</time>
      </trkpt>
      <trkpt lat="49.0048" lon="1.12042">
        <ele>131</ele>
        <time>2011-09-25T09:24:20Z</time>
      </trkpt>
      <trkpt lat="49.00481" lon="1.12029">
        <ele>131</ele>
        <time>2011-09-25T09:24:22Z</time>
      </trkpt>
      <trkpt lat="49.00483" lon="1.12016">
        <ele>131</ele>
        <time>2011-09-25T09:24:24Z</time>
      </trkpt>
      <trkpt lat="49.00485" lon="1.12004">
        <ele>132</ele>
        <time>2011-09-25T09:24:26Z</time>
      </trkpt>
      <trkpt lat="49.00487" lon="1.11991">
        <ele>131</ele>
        <time>2011-09-25T09:24:28Z</time>
      </trkpt>
      <trkpt lat="49.0049" lon="1.11979">
        <ele>131</ele>
        <time>2011-09-25T09:24:30Z</time>
      </trkpt>
      <trkpt lat="49.00492" lon="1.11967">
        <ele>130</ele>
        <time>2011-09-25T09:24:32Z</time>
      </trkpt>
      <trkpt lat="49.00492" lon="1.1196">
        <ele>130</ele>
        <time>2011-09-25T09:24:33Z</time>
      </trkpt>
      <trkpt lat="49.00493" lon="1.11952">
        <ele>130</ele>
        <time>2011-09-25T09:24:34Z</time>
      </trkpt>
      <trkpt lat="49.00493" lon="1.11945">
        <ele>130</ele>
        <time>2011-09-25T09:24:35Z</time>
      </trkpt>
      <trkpt lat="49.00494" lon="1.11938">
        <ele>130</ele>
        <time>2011-09-25T09:24:36Z</time>
      </trkpt>
      <trkpt lat="49.00495" lon="1.1193">
        <ele>131</ele>
        <time>2011-09-25T09:24:37Z</time>
      </trkpt>
      <trkpt lat="49.00496" lon="1.11922">
        <ele>131</ele>
        <time>2011-09-25T09:24:38Z</time>
      </trkpt>
      <trkpt lat="49.00497" lon="1.11915">
        <ele>131</ele>
        <time>2011-09-25T09:24:39Z</time>
      </trkpt>
      <trkpt lat="49.00498" lon="1.11908">
        <ele>130</ele>
        <time>2011-09-25T09:24:40Z</time>
      </trkpt>
      <trkpt lat="49.00498" lon="1.11895">
        <ele>129</ele>
        <time>2011-09-25T09:24:42Z</time>
      </trkpt>
      <trkpt lat="49.00499" lon="1.11888">
        <ele>128</ele>
        <time>2011-09-25T09:24:43Z</time>
      </trkpt>
      <trkpt lat="49.005" lon="1.1188">
        <ele>133</ele>
        <time>2011-09-25T09:24:44Z</time>
      </trkpt>
      <trkpt lat="49.005" lon="1.11873">
        <ele>133</ele>
        <time>2011-09-25T09:24:45Z</time>
      </trkpt>
      <trkpt lat="49.00501" lon="1.1186">
        <ele>133</ele>
        <time>2011-09-25T09:24:47Z</time>
      </trkpt>
      <trkpt lat="49.00502" lon="1.11848">
        <ele>132</ele>
        <time>2011-09-25T09:24:49Z</time>
      </trkpt>
      <trkpt lat="49.00504" lon="1.11835">
        <ele>131</ele>
        <time>2011-09-25T09:24:51Z</time>
      </trkpt>
      <trkpt lat="49.00505" lon="1.11821">
        <ele>132</ele>
        <time>2011-09-25T09:24:53Z</time>
      </trkpt>
      <trkpt lat="49.00507" lon="1.11809">
        <ele>132</ele>
        <time>2011-09-25T09:24:55Z</time>
      </trkpt>
      <trkpt lat="49.00509" lon="1.11798">
        <ele>132</ele>
        <time>2011-09-25T09:24:57Z</time>
      </trkpt>
      <trkpt lat="49.00511" lon="1.11786">
        <ele>132</ele>
        <time>2011-09-25T09:24:59Z</time>
      </trkpt>
      <trkpt lat="49.00513" lon="1.11774">
        <ele>132</ele>
        <time>2011-09-25T09:25:01Z</time>
      </trkpt>
      <trkpt lat="49.00515" lon="1.11763">
        <ele>131</ele>
        <time>2011-09-25T09:25:03Z</time>
      </trkpt>
      <trkpt lat="49.00517" lon="1.1175">
        <ele>129</ele>
        <time>2011-09-25T09:25:05Z</time>
      </trkpt>
      <trkpt lat="49.00518" lon="1.11744">
        <ele>129</ele>
        <time>2011-09-25T09:25:06Z</time>
      </trkpt>
      <trkpt lat="49.00519" lon="1.11737">
        <ele>128</ele>
        <time>2011-09-25T09:25:07Z</time>
      </trkpt>
      <trkpt lat="49.00521" lon="1.11726">
        <ele>128</ele>
        <time>2011-09-25T09:25:09Z</time>
      </trkpt>
      <trkpt lat="49.00526" lon="1.11719">
        <ele>128</ele>
        <time>2011-09-25T09:25:11Z</time>
      </trkpt>
      <trkpt lat="49.0053" lon="1.11713">
        <ele>128</ele>
        <time>2011-09-25T09:25:13Z</time>
      </trkpt>
      <trkpt lat="49.00535" lon="1.11711">
        <ele>128</ele>
        <time>2011-09-25T09:25:15Z</time>
      </trkpt>
      <trkpt lat="49.00541" lon="1.1171">
        <ele>128</ele>
        <time>2011-09-25T09:25:17Z</time>
      </trkpt>
      <trkpt lat="49.00547" lon="1.11711">
        <ele>128</ele>
        <time>2011-09-25T09:25:19Z</time>
      </trkpt>
      <trkpt lat="49.00553" lon="1.11709">
        <ele>128</ele>
        <time>2011-09-25T09:25:21Z</time>
      </trkpt>
      <trkpt lat="49.00559" lon="1.11709">
        <ele>129</ele>
        <time>2011-09-25T09:25:23Z</time>
      </trkpt>
      <trkpt lat="49.00564" lon="1.11707">
        <ele>129</ele>
        <time>2011-09-25T09:25:25Z</time>
      </trkpt>
      <trkpt lat="49.00569" lon="1.11704">
        <ele>129</ele>
        <time>2011-09-25T09:25:27Z</time>
      </trkpt>
      <trkpt lat="49.00575" lon="1.11698">
        <ele>129</ele>
        <time>2011-09-25T09:25:29Z</time>
      </trkpt>
      <trkpt lat="49.00583" lon="1.11698">
        <ele>129</ele>
        <time>2011-09-25T09:25:31Z</time>
      </trkpt>
      <trkpt lat="49.0059" lon="1.11702">
        <ele>130</ele>
        <time>2011-09-25T09:25:33Z</time>
      </trkpt>
      <trkpt lat="49.00595" lon="1.1171">
        <ele>130</ele>
        <time>2011-09-25T09:25:35Z</time>
      </trkpt>
      <trkpt lat="49.00599" lon="1.11718">
        <ele>131</ele>
        <time>2011-09-25T09:25:37Z</time>
      </trkpt>
      <trkpt lat="49.00604" lon="1.11725">
        <ele>131</ele>
        <time>2011-09-25T09:25:39Z</time>
      </trkpt>
      <trkpt lat="49.0061" lon="1.11732">
        <ele>131</ele>
        <time>2011-09-25T09:25:41Z</time>
      </trkpt>
      <trkpt lat="49.00615" lon="1.11739">
        <ele>131</ele>
        <time>2011-09-25T09:25:43Z</time>
      </trkpt>
      <trkpt lat="49.00622" lon="1.11742">
        <ele>131</ele>
        <time>2011-09-25T09:25:45Z</time>
      </trkpt>
      <trkpt lat="49.00627" lon="1.11743">
        <ele>131</ele>
        <time>2011-09-25T09:25:46Z</time>
      </trkpt>
      <trkpt lat="49.00633" lon="1.11744">
        <ele>131</ele>
        <time>2011-09-25T09:25:47Z</time>
      </trkpt>
      <trkpt lat="49.00639" lon="1.11744">
        <ele>131</ele>
        <time>2011-09-25T09:25:48Z</time>
      </trkpt>
      <trkpt lat="49.00645" lon="1.11744">
        <ele>131</ele>
        <time>2011-09-25T09:25:49Z</time>
      </trkpt>
      <trkpt lat="49.0065" lon="1.11742">
        <ele>131</ele>
        <time>2011-09-25T09:25:50Z</time>
      </trkpt>
      <trkpt lat="49.00656" lon="1.11743">
        <ele>131</ele>
        <time>2011-09-25T09:25:51Z</time>
      </trkpt>
      <trkpt lat="49.00663" lon="1.11747">
        <ele>132</ele>
        <time>2011-09-25T09:25:53Z</time>
      </trkpt>
      <trkpt lat="49.0067" lon="1.1175">
        <ele>132</ele>
        <time>2011-09-25T09:25:55Z</time>
      </trkpt>
      <trkpt lat="49.00676" lon="1.1175">
        <ele>130</ele>
        <time>2011-09-25T09:25:57Z</time>
      </trkpt>
      <trkpt lat="49.00676" lon="1.1175">
        <ele>130</ele>
        <time>2011-09-25T09:25:57Z</time>
      </trkpt>
      <trkpt lat="49.00676" lon="1.1175">
        <ele>130</ele>
        <time>2011-09-25T09:26:20Z</time>
      </trkpt>
      <trkpt lat="49.00683" lon="1.11753">
        <ele>132</ele>
        <time>2011-09-25T09:26:21Z</time>
      </trkpt>
      <trkpt lat="49.00692" lon="1.11754">
        <ele>132</ele>
        <time>2011-09-25T09:26:23Z</time>
      </trkpt>
      <trkpt lat="49.00696" lon="1.11754">
        <ele>132</ele>
        <time>2011-09-25T09:26:24Z</time>
      </trkpt>
      <trkpt lat="49.00701" lon="1.11754">
        <ele>131</ele>
        <time>2011-09-25T09:26:25Z</time>
      </trkpt>
      <trkpt lat="49.00708" lon="1.11756">
        <ele>131</ele>
        <time>2011-09-25T09:26:27Z</time>
      </trkpt>
      <trkpt lat="49.00713" lon="1.11762">
        <ele>131</ele>
        <time>2011-09-25T09:26:29Z</time>
      </trkpt>
      <trkpt lat="49.0072" lon="1.11767">
        <ele>130</ele>
        <time>2011-09-25T09:26:31Z</time>
      </trkpt>
      <trkpt lat="49.00728" lon="1.11771">
        <ele>130</ele>
        <time>2011-09-25T09:26:33Z</time>
      </trkpt>
      <trkpt lat="49.00733" lon="1.11773">
        <ele>130</ele>
        <time>2011-09-25T09:26:34Z</time>
      </trkpt>
      <trkpt lat="49.00738" lon="1.11774">
        <ele>130</ele>
        <time>2011-09-25T09:26:35Z</time>
      </trkpt>
      <trkpt lat="49.00742" lon="1.11777">
        <ele>130</ele>
        <time>2011-09-25T09:26:36Z</time>
      </trkpt>
      <trkpt lat="49.00747" lon="1.11782">
        <ele>130</ele>
        <time>2011-09-25T09:26:37Z</time>
      </trkpt>
      <trkpt lat="49.00751" lon="1.11787">
        <ele>127</ele>
        <time>2011-09-25T09:26:38Z</time>
      </trkpt>
      <trkpt lat="49.00754" lon="1.11791">
        <ele>127</ele>
        <time>2011-09-25T09:26:39Z</time>
      </trkpt>
      <trkpt lat="49.00758" lon="1.11794">
        <ele>127</ele>
        <time>2011-09-25T09:26:40Z</time>
      </trkpt>
      <trkpt lat="49.00766" lon="1.11796">
        <ele>127</ele>
        <time>2011-09-25T09:26:42Z</time>
      </trkpt>
      <trkpt lat="49.00774" lon="1.11796">
        <ele>127</ele>
        <time>2011-09-25T09:26:44Z</time>
      </trkpt>
      <trkpt lat="49.00782" lon="1.11794">
        <ele>126</ele>
        <time>2011-09-25T09:26:46Z</time>
      </trkpt>
      <trkpt lat="49.00789" lon="1.11796">
        <ele>126</ele>
        <time>2011-09-25T09:26:48Z</time>
      </trkpt>
      <trkpt lat="49.00797" lon="1.11801">
        <ele>126</ele>
        <time>2011-09-25T09:26:50Z</time>
      </trkpt>
      <trkpt lat="49.00804" lon="1.11805">
        <ele>126</ele>
        <time>2011-09-25T09:26:52Z</time>
      </trkpt>
      <trkpt lat="49.00811" lon="1.11808">
        <ele>126</ele>
        <time>2011-09-25T09:26:54Z</time>
      </trkpt>
      <trkpt lat="49.00819" lon="1.11812">
        <ele>126</ele>
        <time>2011-09-25T09:26:56Z</time>
      </trkpt>
      <trkpt lat="49.00826" lon="1.11816">
        <ele>127</ele>
        <time>2011-09-25T09:26:58Z</time>
      </trkpt>
      <trkpt lat="49.00834" lon="1.11822">
        <ele>124</ele>
        <time>2011-09-25T09:27:00Z</time>
      </trkpt>
      <trkpt lat="49.00841" lon="1.11828">
        <ele>125</ele>
        <time>2011-09-25T09:27:02Z</time>
      </trkpt>
      <trkpt lat="49.00848" lon="1.11833">
        <ele>124</ele>
        <time>2011-09-25T09:27:04Z</time>
      </trkpt>
      <trkpt lat="49.00857" lon="1.11837">
        <ele>128</ele>
        <time>2011-09-25T09:27:05Z</time>
      </trkpt>
      <trkpt lat="49.00861" lon="1.11839">
        <ele>128</ele>
        <time>2011-09-25T09:27:06Z</time>
      </trkpt>
      <trkpt lat="49.00865" lon="1.1184">
        <ele>128</ele>
        <time>2011-09-25T09:27:07Z</time>
      </trkpt>
      <trkpt lat="49.0087" lon="1.11842">
        <ele>128</ele>
        <time>2011-09-25T09:27:08Z</time>
      </trkpt>
      <trkpt lat="49.00878" lon="1.11845">
        <ele>127</ele>
        <time>2011-09-25T09:27:10Z</time>
      </trkpt>
      <trkpt lat="49.00885" lon="1.11851">
        <ele>127</ele>
        <time>2011-09-25T09:27:12Z</time>
      </trkpt>
      <trkpt lat="49.00892" lon="1.11854">
        <ele>127</ele>
        <time>2011-09-25T09:27:14Z</time>
      </trkpt>
      <trkpt lat="49.009" lon="1.11854">
        <ele>126</ele>
        <time>2011-09-25T09:27:16Z</time>
      </trkpt>
      <trkpt lat="49.00905" lon="1.11854">
        <ele>126</ele>
        <time>2011-09-25T09:27:17Z</time>
      </trkpt>
      <trkpt lat="49.00912" lon="1.11856">
        <ele>126</ele>
        <time>2011-09-25T09:27:19Z</time>
      </trkpt>
      <trkpt lat="49.00918" lon="1.11861">
        <ele>123</ele>
        <time>2011-09-25T09:27:21Z</time>
      </trkpt>
      <trkpt lat="49.00923" lon="1.11864">
        <ele>123</ele>
        <time>2011-09-25T09:27:23Z</time>
      </trkpt>
      <trkpt lat="49.00931" lon="1.11866">
        <ele>123</ele>
        <time>2011-09-25T09:27:25Z</time>
      </trkpt>
      <trkpt lat="49.00939" lon="1.11868">
        <ele>123</ele>
        <time>2011-09-25T09:27:27Z</time>
      </trkpt>
      <trkpt lat="49.00943" lon="1.1187">
        <ele>123</ele>
        <time>2011-09-25T09:27:28Z</time>
      </trkpt>
      <trkpt lat="49.00951" lon="1.11875">
        <ele>123</ele>
        <time>2011-09-25T09:27:30Z</time>
      </trkpt>
      <trkpt lat="49.00955" lon="1.11879">
        <ele>123</ele>
        <time>2011-09-25T09:27:31Z</time>
      </trkpt>
      <trkpt lat="49.0096" lon="1.11886">
        <ele>123</ele>
        <time>2011-09-25T09:27:33Z</time>
      </trkpt>
      <trkpt lat="49.00969" lon="1.11888">
        <ele>123</ele>
        <time>2011-09-25T09:27:35Z</time>
      </trkpt>
      <trkpt lat="49.00974" lon="1.11888">
        <ele>123</ele>
        <time>2011-09-25T09:27:36Z</time>
      </trkpt>
      <trkpt lat="49.0098" lon="1.11888">
        <ele>123</ele>
        <time>2011-09-25T09:27:37Z</time>
      </trkpt>
      <trkpt lat="49.00985" lon="1.11888">
        <ele>123</ele>
        <time>2011-09-25T09:27:38Z</time>
      </trkpt>
      <trkpt lat="49.00994" lon="1.11889">
        <ele>123</ele>
        <time>2011-09-25T09:27:40Z</time>
      </trkpt>
      <trkpt lat="49.01" lon="1.11892">
        <ele>124</ele>
        <time>2011-09-25T09:27:42Z</time>
      </trkpt>
      <trkpt lat="49.01006" lon="1.11897">
        <ele>120</ele>
        <time>2011-09-25T09:27:46Z</time>
      </trkpt>
      <trkpt lat="49.01012" lon="1.119">
        <ele>120</ele>
        <time>2011-09-25T09:27:50Z</time>
      </trkpt>
      <trkpt lat="49.01017" lon="1.11902">
        <ele>120</ele>
        <time>2011-09-25T09:27:53Z</time>
      </trkpt>
      <trkpt lat="49.01024" lon="1.11902">
        <ele>118</ele>
        <time>2011-09-25T09:27:57Z</time>
      </trkpt>
      <trkpt lat="49.0103" lon="1.11903">
        <ele>118</ele>
        <time>2011-09-25T09:27:59Z</time>
      </trkpt>
      <trkpt lat="49.01036" lon="1.11906">
        <ele>117</ele>
        <time>2011-09-25T09:28:01Z</time>
      </trkpt>
      <trkpt lat="49.01043" lon="1.11908">
        <ele>117</ele>
        <time>2011-09-25T09:28:03Z</time>
      </trkpt>
      <trkpt lat="49.0105" lon="1.11911">
        <ele>117</ele>
        <time>2011-09-25T09:28:05Z</time>
      </trkpt>
      <trkpt lat="49.01058" lon="1.11912">
        <ele>117</ele>
        <time>2011-09-25T09:28:07Z</time>
      </trkpt>
      <trkpt lat="49.01066" lon="1.11916">
        <ele>117</ele>
        <time>2011-09-25T09:28:09Z</time>
      </trkpt>
      <trkpt lat="49.01073" lon="1.11921">
        <ele>123</ele>
        <time>2011-09-25T09:28:11Z</time>
      </trkpt>
      <trkpt lat="49.01081" lon="1.11922">
        <ele>122</ele>
        <time>2011-09-25T09:28:13Z</time>
      </trkpt>
      <trkpt lat="49.01086" lon="1.11923">
        <ele>119</ele>
        <time>2011-09-25T09:28:14Z</time>
      </trkpt>
      <trkpt lat="49.01094" lon="1.11926">
        <ele>119</ele>
        <time>2011-09-25T09:28:16Z</time>
      </trkpt>
      <trkpt lat="49.01098" lon="1.11936">
        <ele>119</ele>
        <time>2011-09-25T09:28:18Z</time>
      </trkpt>
      <trkpt lat="49.01103" lon="1.11947">
        <ele>119</ele>
        <time>2011-09-25T09:28:20Z</time>
      </trkpt>
      <trkpt lat="49.01107" lon="1.11958">
        <ele>119</ele>
        <time>2011-09-25T09:28:22Z</time>
      </trkpt>
      <trkpt lat="49.01109" lon="1.11967">
        <ele>120</ele>
        <time>2011-09-25T09:28:24Z</time>
      </trkpt>
      <trkpt lat="49.0111" lon="1.11975">
        <ele>121</ele>
        <time>2011-09-25T09:28:26Z</time>
      </trkpt>
      <trkpt lat="49.01113" lon="1.11981">
        <ele>121</ele>
        <time>2011-09-25T09:28:28Z</time>
      </trkpt>
      <trkpt lat="49.01122" lon="1.11984">
        <ele>120</ele>
        <time>2011-09-25T09:28:30Z</time>
      </trkpt>
      <trkpt lat="49.0113" lon="1.11987">
        <ele>120</ele>
        <time>2011-09-25T09:28:32Z</time>
      </trkpt>
      <trkpt lat="49.01138" lon="1.11985">
        <ele>119</ele>
        <time>2011-09-25T09:28:34Z</time>
      </trkpt>
      <trkpt lat="49.01145" lon="1.11984">
        <ele>119</ele>
        <time>2011-09-25T09:28:36Z</time>
      </trkpt>
      <trkpt lat="49.01153" lon="1.11985">
        <ele>119</ele>
        <time>2011-09-25T09:28:38Z</time>
      </trkpt>
      <trkpt lat="49.0116" lon="1.11985">
        <ele>119</ele>
        <time>2011-09-25T09:28:40Z</time>
      </trkpt>
      <trkpt lat="49.01167" lon="1.11985">
        <ele>114</ele>
        <time>2011-09-25T09:28:42Z</time>
      </trkpt>
      <trkpt lat="49.01174" lon="1.11985">
        <ele>113</ele>
        <time>2011-09-25T09:28:44Z</time>
      </trkpt>
      <trkpt lat="49.01181" lon="1.11984">
        <ele>112</ele>
        <time>2011-09-25T09:28:46Z</time>
      </trkpt>
      <trkpt lat="49.01188" lon="1.11984">
        <ele>111</ele>
        <time>2011-09-25T09:28:48Z</time>
      </trkpt>
      <trkpt lat="49.01195" lon="1.11986">
        <ele>110</ele>
        <time>2011-09-25T09:28:50Z</time>
      </trkpt>
      <trkpt lat="49.01203" lon="1.11988">
        <ele>110</ele>
        <time>2011-09-25T09:28:52Z</time>
      </trkpt>
      <trkpt lat="49.01207" lon="1.11989">
        <ele>110</ele>
        <time>2011-09-25T09:28:53Z</time>
      </trkpt>
      <trkpt lat="49.01212" lon="1.11991">
        <ele>109</ele>
        <time>2011-09-25T09:28:54Z</time>
      </trkpt>
      <trkpt lat="49.01218" lon="1.11996">
        <ele>110</ele>
        <time>2011-09-25T09:28:56Z</time>
      </trkpt>
      <trkpt lat="49.01224" lon="1.12002">
        <ele>120</ele>
        <time>2011-09-25T09:28:58Z</time>
      </trkpt>
      <trkpt lat="49.01228" lon="1.12009">
        <ele>120</ele>
        <time>2011-09-25T09:29:00Z</time>
      </trkpt>
      <trkpt lat="49.01231" lon="1.12018">
        <ele>120</ele>
        <time>2011-09-25T09:29:02Z</time>
      </trkpt>
      <trkpt lat="49.01233" lon="1.12027">
        <ele>121</ele>
        <time>2011-09-25T09:29:04Z</time>
      </trkpt>
      <trkpt lat="49.01233" lon="1.12036">
        <ele>121</ele>
        <time>2011-09-25T09:29:06Z</time>
      </trkpt>
      <trkpt lat="49.01234" lon="1.12043">
        <ele>122</ele>
        <time>2011-09-25T09:29:08Z</time>
      </trkpt>
      <trkpt lat="49.01236" lon="1.12051">
        <ele>123</ele>
        <time>2011-09-25T09:29:10Z</time>
      </trkpt>
      <trkpt lat="49.0124" lon="1.12058">
        <ele>123</ele>
        <time>2011-09-25T09:29:12Z</time>
      </trkpt>
      <trkpt lat="49.01242" lon="1.12066">
        <ele>124</ele>
        <time>2011-09-25T09:29:14Z</time>
      </trkpt>
      <trkpt lat="49.01242" lon="1.12074">
        <ele>125</ele>
        <time>2011-09-25T09:29:16Z</time>
      </trkpt>
      <trkpt lat="49.01241" lon="1.12081">
        <ele>125</ele>
        <time>2011-09-25T09:29:18Z</time>
      </trkpt>
      <trkpt lat="49.01239" lon="1.12087">
        <ele>127</ele>
        <time>2011-09-25T09:29:20Z</time>
      </trkpt>
      <trkpt lat="49.01236" lon="1.12095">
        <ele>127</ele>
        <time>2011-09-25T09:29:22Z</time>
      </trkpt>
      <trkpt lat="49.01233" lon="1.12104">
        <ele>128</ele>
        <time>2011-09-25T09:29:24Z</time>
      </trkpt>
      <trkpt lat="49.01231" lon="1.12113">
        <ele>128</ele>
        <time>2011-09-25T09:29:26Z</time>
      </trkpt>
      <trkpt lat="49.01229" lon="1.12123">
        <ele>128</ele>
        <time>2011-09-25T09:29:28Z</time>
      </trkpt>
      <trkpt lat="49.01227" lon="1.12133">
        <ele>128</ele>
        <time>2011-09-25T09:29:30Z</time>
      </trkpt>
      <trkpt lat="49.01224" lon="1.12142">
        <ele>128</ele>
        <time>2011-09-25T09:29:32Z</time>
      </trkpt>
      <trkpt lat="49.0122" lon="1.12151">
        <ele>129</ele>
        <time>2011-09-25T09:29:34Z</time>
      </trkpt>
      <trkpt lat="49.01217" lon="1.1216">
        <ele>129</ele>
        <time>2011-09-25T09:29:36Z</time>
      </trkpt>
      <trkpt lat="49.01215" lon="1.12169">
        <ele>130</ele>
        <time>2011-09-25T09:29:38Z</time>
      </trkpt>
      <trkpt lat="49.01213" lon="1.12179">
        <ele>130</ele>
        <time>2011-09-25T09:29:40Z</time>
      </trkpt>
      <trkpt lat="49.01212" lon="1.1219">
        <ele>130</ele>
        <time>2011-09-25T09:29:42Z</time>
      </trkpt>
      <trkpt lat="49.01213" lon="1.122">
        <ele>130</ele>
        <time>2011-09-25T09:29:44Z</time>
      </trkpt>
      <trkpt lat="49.01216" lon="1.1221">
        <ele>130</ele>
        <time>2011-09-25T09:29:46Z</time>
      </trkpt>
      <trkpt lat="49.01223" lon="1.12217">
        <ele>130</ele>
        <time>2011-09-25T09:29:48Z</time>
      </trkpt>
      <trkpt lat="49.01231" lon="1.12223">
        <ele>130</ele>
        <time>2011-09-25T09:29:50Z</time>
      </trkpt>
      <trkpt lat="49.01234" lon="1.12227">
        <ele>130</ele>
        <time>2011-09-25T09:29:51Z</time>
      </trkpt>
      <trkpt lat="49.01242" lon="1.12235">
        <ele>130</ele>
        <time>2011-09-25T09:29:53Z</time>
      </trkpt>
      <trkpt lat="49.01249" lon="1.12242">
        <ele>131</ele>
        <time>2011-09-25T09:29:55Z</time>
      </trkpt>
      <trkpt lat="49.01257" lon="1.12248">
        <ele>130</ele>
        <time>2011-09-25T09:29:57Z</time>
      </trkpt>
      <trkpt lat="49.01265" lon="1.12253">
        <ele>130</ele>
        <time>2011-09-25T09:29:59Z</time>
      </trkpt>
      <trkpt lat="49.01269" lon="1.12256">
        <ele>129</ele>
        <time>2011-09-25T09:30:00Z</time>
      </trkpt>
      <trkpt lat="49.01274" lon="1.1226">
        <ele>129</ele>
        <time>2011-09-25T09:30:01Z</time>
      </trkpt>
      <trkpt lat="49.01278" lon="1.12263">
        <ele>129</ele>
        <time>2011-09-25T09:30:02Z</time>
      </trkpt>
      <trkpt lat="49.01283" lon="1.12266">
        <ele>129</ele>
        <time>2011-09-25T09:30:03Z</time>
      </trkpt>
      <trkpt lat="49.01288" lon="1.12269">
        <ele>128</ele>
        <time>2011-09-25T09:30:04Z</time>
      </trkpt>
      <trkpt lat="49.01292" lon="1.12272">
        <ele>128</ele>
        <time>2011-09-25T09:30:05Z</time>
      </trkpt>
      <trkpt lat="49.01297" lon="1.12274">
        <ele>128</ele>
        <time>2011-09-25T09:30:06Z</time>
      </trkpt>
      <trkpt lat="49.01302" lon="1.12278">
        <ele>128</ele>
        <time>2011-09-25T09:30:07Z</time>
      </trkpt>
      <trkpt lat="49.01306" lon="1.12281">
        <ele>128</ele>
        <time>2011-09-25T09:30:08Z</time>
      </trkpt>
      <trkpt lat="49.01311" lon="1.12285">
        <ele>128</ele>
        <time>2011-09-25T09:30:09Z</time>
      </trkpt>
      <trkpt lat="49.01315" lon="1.12291">
        <ele>128</ele>
        <time>2011-09-25T09:30:10Z</time>
      </trkpt>
      <trkpt lat="49.01318" lon="1.12297">
        <ele>128</ele>
        <time>2011-09-25T09:30:11Z</time>
      </trkpt>
      <trkpt lat="49.0132" lon="1.12304">
        <ele>128</ele>
        <time>2011-09-25T09:30:12Z</time>
      </trkpt>
      <trkpt lat="49.01322" lon="1.12311">
        <ele>128</ele>
        <time>2011-09-25T09:30:13Z</time>
      </trkpt>
      <trkpt lat="49.01324" lon="1.12318">
        <ele>128</ele>
        <time>2011-09-25T09:30:14Z</time>
      </trkpt>
      <trkpt lat="49.01328" lon="1.1233">
        <ele>127</ele>
        <time>2011-09-25T09:30:16Z</time>
      </trkpt>
      <trkpt lat="49.01331" lon="1.12335">
        <ele>127</ele>
        <time>2011-09-25T09:30:17Z</time>
      </trkpt>
      <trkpt lat="49.01339" lon="1.12341">
        <ele>123</ele>
        <time>2011-09-25T09:30:19Z</time>
      </trkpt>
      <trkpt lat="49.01343" lon="1.12344">
        <ele>122</ele>
        <time>2011-09-25T09:30:20Z</time>
      </trkpt>
      <trkpt lat="49.01347" lon="1.12347">
        <ele>121</ele>
        <time>2011-09-25T09:30:21Z</time>
      </trkpt>
      <trkpt lat="49.01351" lon="1.1235">
        <ele>120</ele>
        <time>2011-09-25T09:30:22Z</time>
      </trkpt>
      <trkpt lat="49.01355" lon="1.12354">
        <ele>119</ele>
        <time>2011-09-25T09:30:23Z</time>
      </trkpt>
      <trkpt lat="49.01359" lon="1.12358">
        <ele>118</ele>
        <time>2011-09-25T09:30:24Z</time>
      </trkpt>
      <trkpt lat="49.01366" lon="1.12365">
        <ele>117</ele>
        <time>2011-09-25T09:30:26Z</time>
      </trkpt>
      <trkpt lat="49.01374" lon="1.12371">
        <ele>116</ele>
        <time>2011-09-25T09:30:28Z</time>
      </trkpt>
      <trkpt lat="49.01382" lon="1.12378">
        <ele>115</ele>
        <time>2011-09-25T09:30:30Z</time>
      </trkpt>
      <trkpt lat="49.01385" lon="1.12384">
        <ele>115</ele>
        <time>2011-09-25T09:30:31Z</time>
      </trkpt>
      <trkpt lat="49.01388" lon="1.12389">
        <ele>114</ele>
        <time>2011-09-25T09:30:32Z</time>
      </trkpt>
      <trkpt lat="49.01391" lon="1.12395">
        <ele>114</ele>
        <time>2011-09-25T09:30:33Z</time>
      </trkpt>
      <trkpt lat="49.01394" lon="1.12402">
        <ele>113</ele>
        <time>2011-09-25T09:30:34Z</time>
      </trkpt>
      <trkpt lat="49.01398" lon="1.12409">
        <ele>112</ele>
        <time>2011-09-25T09:30:35Z</time>
      </trkpt>
      <trkpt lat="49.01402" lon="1.12414">
        <ele>111</ele>
        <time>2011-09-25T09:30:36Z</time>
      </trkpt>
      <trkpt lat="49.01407" lon="1.12418">
        <ele>111</ele>
        <time>2011-09-25T09:30:37Z</time>
      </trkpt>
      <trkpt lat="49.01411" lon="1.12423">
        <ele>110</ele>
        <time>2011-09-25T09:30:38Z</time>
      </trkpt>
      <trkpt lat="49.01414" lon="1.12429">
        <ele>112</ele>
        <time>2011-09-25T09:30:39Z</time>
      </trkpt>
      <trkpt lat="49.01418" lon="1.12435">
        <ele>103</ele>
        <time>2011-09-25T09:30:40Z</time>
      </trkpt>
      <trkpt lat="49.0142" lon="1.12442">
        <ele>103</ele>
        <time>2011-09-25T09:30:41Z</time>
      </trkpt>
      <trkpt lat="49.01424" lon="1.12447">
        <ele>102</ele>
        <time>2011-09-25T09:30:42Z</time>
      </trkpt>
      <trkpt lat="49.01427" lon="1.12453">
        <ele>102</ele>
        <time>2011-09-25T09:30:43Z</time>
      </trkpt>
      <trkpt lat="49.01429" lon="1.12459">
        <ele>102</ele>
        <time>2011-09-25T09:30:44Z</time>
      </trkpt>
      <trkpt lat="49.01431" lon="1.12466">
        <ele>102</ele>
        <time>2011-09-25T09:30:45Z</time>
      </trkpt>
      <trkpt lat="49.01433" lon="1.12473">
        <ele>103</ele>
        <time>2011-09-25T09:30:46Z</time>
      </trkpt>
      <trkpt lat="49.01436" lon="1.12479">
        <ele>103</ele>
        <time>2011-09-25T09:30:47Z</time>
      </trkpt>
      <trkpt lat="49.01439" lon="1.12486">
        <ele>103</ele>
        <time>2011-09-25T09:30:48Z</time>
      </trkpt>
      <trkpt lat="49.01442" lon="1.12494">
        <ele>103</ele>
        <time>2011-09-25T09:30:49Z</time>
      </trkpt>
      <trkpt lat="49.01444" lon="1.125">
        <ele>105</ele>
        <time>2011-09-25T09:30:50Z</time>
      </trkpt>
      <trkpt lat="49.01446" lon="1.12506">
        <ele>104</ele>
        <time>2011-09-25T09:30:51Z</time>
      </trkpt>
      <trkpt lat="49.01449" lon="1.12511">
        <ele>104</ele>
        <time>2011-09-25T09:30:52Z</time>
      </trkpt>
      <trkpt lat="49.01456" lon="1.12517">
        <ele>102</ele>
        <time>2011-09-25T09:30:54Z</time>
      </trkpt>
      <trkpt lat="49.01461" lon="1.12522">
        <ele>101</ele>
        <time>2011-09-25T09:30:56Z</time>
      </trkpt>
      <trkpt lat="49.01467" lon="1.12527">
        <ele>100</ele>
        <time>2011-09-25T09:30:58Z</time>
      </trkpt>
      <trkpt lat="49.01472" lon="1.12534">
        <ele>100</ele>
        <time>2011-09-25T09:31:00Z</time>
      </trkpt>
      <trkpt lat="49.01473" lon="1.12543">
        <ele>100</ele>
        <time>2011-09-25T09:31:02Z</time>
      </trkpt>
      <trkpt lat="49.01474" lon="1.12553">
        <ele>100</ele>
        <time>2011-09-25T09:31:04Z</time>
      </trkpt>
      <trkpt lat="49.01475" lon="1.12563">
        <ele>100</ele>
        <time>2011-09-25T09:31:06Z</time>
      </trkpt>
      <trkpt lat="49.01476" lon="1.1257">
        <ele>99</ele>
        <time>2011-09-25T09:31:08Z</time>
      </trkpt>
      <trkpt lat="49.01477" lon="1.12578">
        <ele>99</ele>
        <time>2011-09-25T09:31:10Z</time>
      </trkpt>
      <trkpt lat="49.01479" lon="1.12587">
        <ele>100</ele>
        <time>2011-09-25T09:31:12Z</time>
      </trkpt>
      <trkpt lat="49.01479" lon="1.12596">
        <ele>100</ele>
        <time>2011-09-25T09:31:14Z</time>
      </trkpt>
      <trkpt lat="49.01482" lon="1.12606">
        <ele>101</ele>
        <time>2011-09-25T09:31:16Z</time>
      </trkpt>
      <trkpt lat="49.01483" lon="1.12615">
        <ele>101</ele>
        <time>2011-09-25T09:31:18Z</time>
      </trkpt>
      <trkpt lat="49.01484" lon="1.12624">
        <ele>102</ele>
        <time>2011-09-25T09:31:20Z</time>
      </trkpt>
      <trkpt lat="49.01485" lon="1.12632">
        <ele>101</ele>
        <time>2011-09-25T09:31:22Z</time>
      </trkpt>
      <trkpt lat="49.01488" lon="1.1264">
        <ele>101</ele>
        <time>2011-09-25T09:31:24Z</time>
      </trkpt>
      <trkpt lat="49.0149" lon="1.12649">
        <ele>100</ele>
        <time>2011-09-25T09:31:26Z</time>
      </trkpt>
      <trkpt lat="49.01491" lon="1.12658">
        <ele>98</ele>
        <time>2011-09-25T09:31:28Z</time>
      </trkpt>
      <trkpt lat="49.01491" lon="1.12665">
        <ele>97</ele>
        <time>2011-09-25T09:31:30Z</time>
      </trkpt>
      <trkpt lat="49.01488" lon="1.12671">
        <ele>98</ele>
        <time>2011-09-25T09:31:32Z</time>
      </trkpt>
      <trkpt lat="49.01485" lon="1.12676">
        <ele>100</ele>
        <time>2011-09-25T09:31:34Z</time>
      </trkpt>
      <trkpt lat="49.01482" lon="1.12684">
        <ele>101</ele>
        <time>2011-09-25T09:31:36Z</time>
      </trkpt>
      <trkpt lat="49.01481" lon="1.12692">
        <ele>102</ele>
        <time>2011-09-25T09:31:38Z</time>
      </trkpt>
      <trkpt lat="49.0148" lon="1.127">
        <ele>102</ele>
        <time>2011-09-25T09:31:40Z</time>
      </trkpt>
      <trkpt lat="49.0148" lon="1.12709">
        <ele>103</ele>
        <time>2011-09-25T09:31:42Z</time>
      </trkpt>
      <trkpt lat="49.01481" lon="1.12721">
        <ele>102</ele>
        <time>2011-09-25T09:31:44Z</time>
      </trkpt>
      <trkpt lat="49.0148" lon="1.1273">
        <ele>101</ele>
        <time>2011-09-25T09:31:46Z</time>
      </trkpt>
      <trkpt lat="49.0148" lon="1.12739">
        <ele>101</ele>
        <time>2011-09-25T09:31:48Z</time>
      </trkpt>
      <trkpt lat="49.01481" lon="1.12748">
        <ele>100</ele>
        <time>2011-09-25T09:31:50Z</time>
      </trkpt>
      <trkpt lat="49.01483" lon="1.12756">
        <ele>99</ele>
        <time>2011-09-25T09:31:52Z</time>
      </trkpt>
      <trkpt lat="49.01483" lon="1.12764">
        <ele>100</ele>
        <time>2011-09-25T09:31:54Z</time>
      </trkpt>
      <trkpt lat="49.01483" lon="1.12764">
        <ele>100</ele>
        <time>2011-09-25T09:31:54Z</time>
      </trkpt>
      <trkpt lat="49.01483" lon="1.12764">
        <ele>100</ele>
        <time>2011-09-25T09:31:56Z</time>
      </trkpt>
      <trkpt lat="49.01482" lon="1.12776">
        <ele>102</ele>
        <time>2011-09-25T09:31:57Z</time>
      </trkpt>
      <trkpt lat="49.01482" lon="1.12776">
        <ele>102</ele>
        <time>2011-09-25T09:31:57Z</time>
      </trkpt>
      <trkpt lat="49.01482" lon="1.12776">
        <ele>102</ele>
        <time>2011-09-25T09:31:58Z</time>
      </trkpt>
      <trkpt lat="49.01481" lon="1.12783">
        <ele>102</ele>
        <time>2011-09-25T09:31:59Z</time>
      </trkpt>
      <trkpt lat="49.0148" lon="1.12791">
        <ele>103</ele>
        <time>2011-09-25T09:32:01Z</time>
      </trkpt>
      <trkpt lat="49.01478" lon="1.12798">
        <ele>103</ele>
        <time>2011-09-25T09:32:03Z</time>
      </trkpt>
      <trkpt lat="49.01476" lon="1.12805">
        <ele>103</ele>
        <time>2011-09-25T09:32:05Z</time>
      </trkpt>
      <trkpt lat="49.01476" lon="1.12805">
        <ele>103</ele>
        <time>2011-09-25T09:32:05Z</time>
      </trkpt>
      <trkpt lat="49.01476" lon="1.12805">
        <ele>103</ele>
        <time>2011-09-25T09:32:06Z</time>
      </trkpt>
      <trkpt lat="49.01475" lon="1.12812">
        <ele>103</ele>
        <time>2011-09-25T09:32:07Z</time>
      </trkpt>
      <trkpt lat="49.01473" lon="1.12824">
        <ele>103</ele>
        <time>2011-09-25T09:32:10Z</time>
      </trkpt>
      <trkpt lat="49.01472" lon="1.12833">
        <ele>103</ele>
        <time>2011-09-25T09:32:12Z</time>
      </trkpt>
      <trkpt lat="49.01472" lon="1.12833">
        <ele>103</ele>
        <time>2011-09-25T09:32:12Z</time>
      </trkpt>
      <trkpt lat="49.01472" lon="1.12833">
        <ele>103</ele>
        <time>2011-09-25T09:32:14Z</time>
      </trkpt>
      <trkpt lat="49.01471" lon="1.12847">
        <ele>104</ele>
        <time>2011-09-25T09:32:15Z</time>
      </trkpt>
      <trkpt lat="49.0147" lon="1.12858">
        <ele>104</ele>
        <time>2011-09-25T09:32:17Z</time>
      </trkpt>
      <trkpt lat="49.0147" lon="1.12869">
        <ele>105</ele>
        <time>2011-09-25T09:32:19Z</time>
      </trkpt>
      <trkpt lat="49.0147" lon="1.12878">
        <ele>105</ele>
        <time>2011-09-25T09:32:21Z</time>
      </trkpt>
      <trkpt lat="49.0147" lon="1.12878">
        <ele>105</ele>
        <time>2011-09-25T09:32:21Z</time>
      </trkpt>
      <trkpt lat="49.0147" lon="1.12878">
        <ele>105</ele>
        <time>2011-09-25T09:32:22Z</time>
      </trkpt>
      <trkpt lat="49.0147" lon="1.12886">
        <ele>104</ele>
        <time>2011-09-25T09:32:23Z</time>
      </trkpt>
      <trkpt lat="49.0147" lon="1.12894">
        <ele>104</ele>
        <time>2011-09-25T09:32:25Z</time>
      </trkpt>
      <trkpt lat="49.0147" lon="1.12901">
        <ele>104</ele>
        <time>2011-09-25T09:32:27Z</time>
      </trkpt>
      <trkpt lat="49.01468" lon="1.12911">
        <ele>104</ele>
        <time>2011-09-25T09:32:30Z</time>
      </trkpt>
      <trkpt lat="49.01468" lon="1.12911">
        <ele>104</ele>
        <time>2011-09-25T09:32:30Z</time>
      </trkpt>
      <trkpt lat="49.01468" lon="1.12911">
        <ele>104</ele>
        <time>2011-09-25T09:32:35Z</time>
      </trkpt>
      <trkpt lat="49.01462" lon="1.12907">
        <ele>105</ele>
        <time>2011-09-25T09:32:36Z</time>
      </trkpt>
      <trkpt lat="49.01462" lon="1.12907">
        <ele>105</ele>
        <time>2011-09-25T09:32:36Z</time>
      </trkpt>
      <trkpt lat="49.01462" lon="1.12907">
        <ele>105</ele>
        <time>2011-09-25T09:32:41Z</time>
      </trkpt>
      <trkpt lat="49.01463" lon="1.12892">
        <ele>105</ele>
        <time>2011-09-25T09:32:42Z</time>
      </trkpt>
      <trkpt lat="49.01463" lon="1.12892">
        <ele>105</ele>
        <time>2011-09-25T09:32:42Z</time>
      </trkpt>
      <trkpt lat="49.01463" lon="1.12892">
        <ele>105</ele>
        <time>2011-09-25T09:32:44Z</time>
      </trkpt>
      <trkpt lat="49.01462" lon="1.12884">
        <ele>106</ele>
        <time>2011-09-25T09:32:45Z</time>
      </trkpt>
      <trkpt lat="49.01462" lon="1.12884">
        <ele>106</ele>
        <time>2011-09-25T09:32:45Z</time>
      </trkpt>
      <trkpt lat="49.01462" lon="1.12884">
        <ele>106</ele>
        <time>2011-09-25T09:32:50Z</time>
      </trkpt>
      <trkpt lat="49.01458" lon="1.1287">
        <ele>106</ele>
        <time>2011-09-25T09:32:51Z</time>
      </trkpt>
      <trkpt lat="49.01456" lon="1.12857">
        <ele>107</ele>
        <time>2011-09-25T09:32:56Z</time>
      </trkpt>
      <trkpt lat="49.01456" lon="1.12857">
        <ele>107</ele>
        <time>2011-09-25T09:32:56Z</time>
      </trkpt>
      <trkpt lat="49.01456" lon="1.12857">
        <ele>107</ele>
        <time>2011-09-25T09:32:57Z</time>
      </trkpt>
      <trkpt lat="49.01456" lon="1.12848">
        <ele>107</ele>
        <time>2011-09-25T09:32:59Z</time>
      </trkpt>
      <trkpt lat="49.01454" lon="1.1284">
        <ele>107</ele>
        <time>2011-09-25T09:33:01Z</time>
      </trkpt>
      <trkpt lat="49.01453" lon="1.12833">
        <ele>107</ele>
        <time>2011-09-25T09:33:03Z</time>
      </trkpt>
      <trkpt lat="49.01451" lon="1.12826">
        <ele>108</ele>
        <time>2011-09-25T09:33:05Z</time>
      </trkpt>
      <trkpt lat="49.01451" lon="1.12826">
        <ele>108</ele>
        <time>2011-09-25T09:33:05Z</time>
      </trkpt>
      <trkpt lat="49.01451" lon="1.12826">
        <ele>108</ele>
        <time>2011-09-25T09:33:06Z</time>
      </trkpt>
      <trkpt lat="49.01449" lon="1.12819">
        <ele>108</ele>
        <time>2011-09-25T09:33:07Z</time>
      </trkpt>
      <trkpt lat="49.01445" lon="1.12807">
        <ele>108</ele>
        <time>2011-09-25T09:33:11Z</time>
      </trkpt>
      <trkpt lat="49.01445" lon="1.12807">
        <ele>108</ele>
        <time>2011-09-25T09:33:11Z</time>
      </trkpt>
      <trkpt lat="49.01445" lon="1.12807">
        <ele>108</ele>
        <time>2011-09-25T09:33:12Z</time>
      </trkpt>
      <trkpt lat="49.01443" lon="1.128">
        <ele>108</ele>
        <time>2011-09-25T09:33:13Z</time>
      </trkpt>
      <trkpt lat="49.01442" lon="1.12792">
        <ele>108</ele>
        <time>2011-09-25T09:33:15Z</time>
      </trkpt>
      <trkpt lat="49.01441" lon="1.12784">
        <ele>108</ele>
        <time>2011-09-25T09:33:17Z</time>
      </trkpt>
      <trkpt lat="49.01439" lon="1.12777">
        <ele>109</ele>
        <time>2011-09-25T09:33:19Z</time>
      </trkpt>
      <trkpt lat="49.01437" lon="1.12769">
        <ele>110</ele>
        <time>2011-09-25T09:33:21Z</time>
      </trkpt>
      <trkpt lat="49.01435" lon="1.12762">
        <ele>111</ele>
        <time>2011-09-25T09:33:23Z</time>
      </trkpt>
      <trkpt lat="49.01431" lon="1.12747">
        <ele>112</ele>
        <time>2011-09-25T09:33:27Z</time>
      </trkpt>
      <trkpt lat="49.01428" lon="1.12735">
        <ele>112</ele>
        <time>2011-09-25T09:33:30Z</time>
      </trkpt>
      <trkpt lat="49.01427" lon="1.12727">
        <ele>111</ele>
        <time>2011-09-25T09:33:32Z</time>
      </trkpt>
      <trkpt lat="49.01426" lon="1.12717">
        <ele>110</ele>
        <time>2011-09-25T09:33:34Z</time>
      </trkpt>
      <trkpt lat="49.01424" lon="1.12708">
        <ele>110</ele>
        <time>2011-09-25T09:33:36Z</time>
      </trkpt>
      <trkpt lat="49.01421" lon="1.127">
        <ele>111</ele>
        <time>2011-09-25T09:33:38Z</time>
      </trkpt>
      <trkpt lat="49.0142" lon="1.12692">
        <ele>112</ele>
        <time>2011-09-25T09:33:40Z</time>
      </trkpt>
      <trkpt lat="49.01419" lon="1.12683">
        <ele>114</ele>
        <time>2011-09-25T09:33:42Z</time>
      </trkpt>
      <trkpt lat="49.01417" lon="1.12674">
        <ele>116</ele>
        <time>2011-09-25T09:33:44Z</time>
      </trkpt>
      <trkpt lat="49.01415" lon="1.12665">
        <ele>120</ele>
        <time>2011-09-25T09:33:46Z</time>
      </trkpt>
      <trkpt lat="49.01413" lon="1.12655">
        <ele>121</ele>
        <time>2011-09-25T09:33:48Z</time>
      </trkpt>
      <trkpt lat="49.0141" lon="1.12645">
        <ele>122</ele>
        <time>2011-09-25T09:33:50Z</time>
      </trkpt>
      <trkpt lat="49.01406" lon="1.12636">
        <ele>122</ele>
        <time>2011-09-25T09:33:52Z</time>
      </trkpt>
      <trkpt lat="49.01403" lon="1.12627">
        <ele>122</ele>
        <time>2011-09-25T09:33:54Z</time>
      </trkpt>
      <trkpt lat="49.01402" lon="1.12616">
        <ele>122</ele>
        <time>2011-09-25T09:33:56Z</time>
      </trkpt>
      <trkpt lat="49.01399" lon="1.12606">
        <ele>122</ele>
        <time>2011-09-25T09:33:58Z</time>
      </trkpt>
      <trkpt lat="49.01395" lon="1.12594">
        <ele>122</ele>
        <time>2011-09-25T09:34:00Z</time>
      </trkpt>
      <trkpt lat="49.01391" lon="1.12582">
        <ele>120</ele>
        <time>2011-09-25T09:34:02Z</time>
      </trkpt>
      <trkpt lat="49.0139" lon="1.1257">
        <ele>121</ele>
        <time>2011-09-25T09:34:04Z</time>
      </trkpt>
      <trkpt lat="49.01387" lon="1.12558">
        <ele>121</ele>
        <time>2011-09-25T09:34:06Z</time>
      </trkpt>
      <trkpt lat="49.01385" lon="1.12547">
        <ele>121</ele>
        <time>2011-09-25T09:34:08Z</time>
      </trkpt>
      <trkpt lat="49.01384" lon="1.12535">
        <ele>121</ele>
        <time>2011-09-25T09:34:10Z</time>
      </trkpt>
      <trkpt lat="49.01382" lon="1.12523">
        <ele>121</ele>
        <time>2011-09-25T09:34:12Z</time>
      </trkpt>
      <trkpt lat="49.0138" lon="1.1251">
        <ele>121</ele>
        <time>2011-09-25T09:34:14Z</time>
      </trkpt>
      <trkpt lat="49.01379" lon="1.12498">
        <ele>119</ele>
        <time>2011-09-25T09:34:16Z</time>
      </trkpt>
      <trkpt lat="49.01376" lon="1.12486">
        <ele>119</ele>
        <time>2011-09-25T09:34:18Z</time>
      </trkpt>
      <trkpt lat="49.01374" lon="1.12473">
        <ele>119</ele>
        <time>2011-09-25T09:34:20Z</time>
      </trkpt>
      <trkpt lat="49.01372" lon="1.12461">
        <ele>119</ele>
        <time>2011-09-25T09:34:22Z</time>
      </trkpt>
      <trkpt lat="49.0137" lon="1.12449">
        <ele>119</ele>
        <time>2011-09-25T09:34:24Z</time>
      </trkpt>
      <trkpt lat="49.01367" lon="1.12437">
        <ele>119</ele>
        <time>2011-09-25T09:34:26Z</time>
      </trkpt>
      <trkpt lat="49.01364" lon="1.12426">
        <ele>120</ele>
        <time>2011-09-25T09:34:28Z</time>
      </trkpt>
      <trkpt lat="49.01358" lon="1.12417">
        <ele>121</ele>
        <time>2011-09-25T09:34:30Z</time>
      </trkpt>
      <trkpt lat="49.01353" lon="1.12407">
        <ele>120</ele>
        <time>2011-09-25T09:34:32Z</time>
      </trkpt>
      <trkpt lat="49.01351" lon="1.12396">
        <ele>120</ele>
        <time>2011-09-25T09:34:34Z</time>
      </trkpt>
      <trkpt lat="49.01352" lon="1.12388">
        <ele>119</ele>
        <time>2011-09-25T09:34:36Z</time>
      </trkpt>
      <trkpt lat="49.01352" lon="1.12388">
        <ele>119</ele>
        <time>2011-09-25T09:34:36Z</time>
      </trkpt>
      <trkpt lat="49.01352" lon="1.12388">
        <ele>119</ele>
        <time>2011-09-25T09:34:41Z</time>
      </trkpt>
      <trkpt lat="49.01357" lon="1.12376">
        <ele>118</ele>
        <time>2011-09-25T09:34:42Z</time>
      </trkpt>
      <trkpt lat="49.01363" lon="1.12379">
        <ele>118</ele>
        <time>2011-09-25T09:34:45Z</time>
      </trkpt>
      <trkpt lat="49.01369" lon="1.12383">
        <ele>117</ele>
        <time>2011-09-25T09:34:47Z</time>
      </trkpt>
      <trkpt lat="49.01375" lon="1.12387">
        <ele>116</ele>
        <time>2011-09-25T09:34:49Z</time>
      </trkpt>
      <trkpt lat="49.01381" lon="1.12391">
        <ele>115</ele>
        <time>2011-09-25T09:34:51Z</time>
      </trkpt>
      <trkpt lat="49.01387" lon="1.12399">
        <ele>114</ele>
        <time>2011-09-25T09:34:53Z</time>
      </trkpt>
      <trkpt lat="49.01392" lon="1.12408">
        <ele>113</ele>
        <time>2011-09-25T09:34:55Z</time>
      </trkpt>
      <trkpt lat="49.01396" lon="1.12418">
        <ele>114</ele>
        <time>2011-09-25T09:34:57Z</time>
      </trkpt>
      <trkpt lat="49.01404" lon="1.12427">
        <ele>113</ele>
        <time>2011-09-25T09:34:59Z</time>
      </trkpt>
      <trkpt lat="49.01411" lon="1.12433">
        <ele>113</ele>
        <time>2011-09-25T09:35:01Z</time>
      </trkpt>
      <trkpt lat="49.01417" lon="1.12443">
        <ele>103</ele>
        <time>2011-09-25T09:35:03Z</time>
      </trkpt>
      <trkpt lat="49.01419" lon="1.1245">
        <ele>103</ele>
        <time>2011-09-25T09:35:04Z</time>
      </trkpt>
      <trkpt lat="49.01424" lon="1.1246">
        <ele>103</ele>
        <time>2011-09-25T09:35:06Z</time>
      </trkpt>
      <trkpt lat="49.01429" lon="1.12472">
        <ele>103</ele>
        <time>2011-09-25T09:35:08Z</time>
      </trkpt>
      <trkpt lat="49.01431" lon="1.12479">
        <ele>104</ele>
        <time>2011-09-25T09:35:09Z</time>
      </trkpt>
      <trkpt lat="49.01433" lon="1.12486">
        <ele>104</ele>
        <time>2011-09-25T09:35:10Z</time>
      </trkpt>
      <trkpt lat="49.01436" lon="1.12492">
        <ele>104</ele>
        <time>2011-09-25T09:35:11Z</time>
      </trkpt>
      <trkpt lat="49.01439" lon="1.12499">
        <ele>104</ele>
        <time>2011-09-25T09:35:12Z</time>
      </trkpt>
      <trkpt lat="49.01441" lon="1.12505">
        <ele>105</ele>
        <time>2011-09-25T09:35:13Z</time>
      </trkpt>
      <trkpt lat="49.01447" lon="1.12514">
        <ele>104</ele>
        <time>2011-09-25T09:35:15Z</time>
      </trkpt>
      <trkpt lat="49.01451" lon="1.12518">
        <ele>103</ele>
        <time>2011-09-25T09:35:16Z</time>
      </trkpt>
      <trkpt lat="49.01458" lon="1.12524">
        <ele>102</ele>
        <time>2011-09-25T09:35:18Z</time>
      </trkpt>
      <trkpt lat="49.01465" lon="1.1253">
        <ele>101</ele>
        <time>2011-09-25T09:35:20Z</time>
      </trkpt>
      <trkpt lat="49.01469" lon="1.12536">
        <ele>100</ele>
        <time>2011-09-25T09:35:22Z</time>
      </trkpt>
      <trkpt lat="49.01471" lon="1.12544">
        <ele>100</ele>
        <time>2011-09-25T09:35:24Z</time>
      </trkpt>
      <trkpt lat="49.01472" lon="1.12551">
        <ele>100</ele>
        <time>2011-09-25T09:35:26Z</time>
      </trkpt>
      <trkpt lat="49.01472" lon="1.12551">
        <ele>100</ele>
        <time>2011-09-25T09:35:26Z</time>
      </trkpt>
      <trkpt lat="49.01472" lon="1.12551">
        <ele>100</ele>
        <time>2011-09-25T09:35:27Z</time>
      </trkpt>
      <trkpt lat="49.01472" lon="1.12559">
        <ele>100</ele>
        <time>2011-09-25T09:35:28Z</time>
      </trkpt>
      <trkpt lat="49.01474" lon="1.12566">
        <ele>100</ele>
        <time>2011-09-25T09:35:30Z</time>
      </trkpt>
      <trkpt lat="49.01474" lon="1.12573">
        <ele>99</ele>
        <time>2011-09-25T09:35:32Z</time>
      </trkpt>
      <trkpt lat="49.01476" lon="1.12581">
        <ele>99</ele>
        <time>2011-09-25T09:35:34Z</time>
      </trkpt>
      <trkpt lat="49.0148" lon="1.1259">
        <ele>99</ele>
        <time>2011-09-25T09:35:36Z</time>
      </trkpt>
      <trkpt lat="49.01482" lon="1.12599">
        <ele>100</ele>
        <time>2011-09-25T09:35:38Z</time>
      </trkpt>
      <trkpt lat="49.01483" lon="1.12607">
        <ele>101</ele>
        <time>2011-09-25T09:35:40Z</time>
      </trkpt>
      <trkpt lat="49.01484" lon="1.12614">
        <ele>101</ele>
        <time>2011-09-25T09:35:42Z</time>
      </trkpt>
      <trkpt lat="49.01484" lon="1.12614">
        <ele>101</ele>
        <time>2011-09-25T09:35:42Z</time>
      </trkpt>
      <trkpt lat="49.01484" lon="1.12614">
        <ele>101</ele>
        <time>2011-09-25T09:35:43Z</time>
      </trkpt>
      <trkpt lat="49.01485" lon="1.12622">
        <ele>101</ele>
        <time>2011-09-25T09:35:45Z</time>
      </trkpt>
      <trkpt lat="49.01486" lon="1.1263">
        <ele>101</ele>
        <time>2011-09-25T09:35:47Z</time>
      </trkpt>
      <trkpt lat="49.01486" lon="1.12639">
        <ele>101</ele>
        <time>2011-09-25T09:35:49Z</time>
      </trkpt>
      <trkpt lat="49.01488" lon="1.1265">
        <ele>100</ele>
        <time>2011-09-25T09:35:51Z</time>
      </trkpt>
      <trkpt lat="49.0149" lon="1.12659">
        <ele>98</ele>
        <time>2011-09-25T09:35:53Z</time>
      </trkpt>
      <trkpt lat="49.0149" lon="1.12667">
        <ele>97</ele>
        <time>2011-09-25T09:35:55Z</time>
      </trkpt>
      <trkpt lat="49.0149" lon="1.12675">
        <ele>98</ele>
        <time>2011-09-25T09:35:57Z</time>
      </trkpt>
      <trkpt lat="49.01486" lon="1.12684">
        <ele>100</ele>
        <time>2011-09-25T09:36:00Z</time>
      </trkpt>
      <trkpt lat="49.01483" lon="1.1269">
        <ele>102</ele>
        <time>2011-09-25T09:36:02Z</time>
      </trkpt>
      <trkpt lat="49.01482" lon="1.12698">
        <ele>102</ele>
        <time>2011-09-25T09:36:04Z</time>
      </trkpt>
      <trkpt lat="49.0148" lon="1.12706">
        <ele>103</ele>
        <time>2011-09-25T09:36:06Z</time>
      </trkpt>
      <trkpt lat="49.0148" lon="1.12714">
        <ele>102</ele>
        <time>2011-09-25T09:36:08Z</time>
      </trkpt>
      <trkpt lat="49.01479" lon="1.12724">
        <ele>102</ele>
        <time>2011-09-25T09:36:10Z</time>
      </trkpt>
      <trkpt lat="49.01478" lon="1.12734">
        <ele>101</ele>
        <time>2011-09-25T09:36:12Z</time>
      </trkpt>
      <trkpt lat="49.01478" lon="1.12734">
        <ele>101</ele>
        <time>2011-09-25T09:36:12Z</time>
      </trkpt>
      <trkpt lat="49.01478" lon="1.12734">
        <ele>101</ele>
        <time>2011-09-25T09:36:13Z</time>
      </trkpt>
      <trkpt lat="49.01478" lon="1.12741">
        <ele>101</ele>
        <time>2011-09-25T09:36:14Z</time>
      </trkpt>
      <trkpt lat="49.01478" lon="1.12749">
        <ele>101</ele>
        <time>2011-09-25T09:36:16Z</time>
      </trkpt>
      <trkpt lat="49.01479" lon="1.12758">
        <ele>101</ele>
        <time>2011-09-25T09:36:19Z</time>
      </trkpt>
      <trkpt lat="49.01479" lon="1.12758">
        <ele>101</ele>
        <time>2011-09-25T09:36:19Z</time>
      </trkpt>
      <trkpt lat="49.01479" lon="1.12758">
        <ele>101</ele>
        <time>2011-09-25T09:36:21Z</time>
      </trkpt>
      <trkpt lat="49.01478" lon="1.12767">
        <ele>102</ele>
        <time>2011-09-25T09:36:22Z</time>
      </trkpt>
      <trkpt lat="49.01475" lon="1.12777">
        <ele>103</ele>
        <time>2011-09-25T09:36:25Z</time>
      </trkpt>
      <trkpt lat="49.01474" lon="1.12784">
        <ele>103</ele>
        <time>2011-09-25T09:36:27Z</time>
      </trkpt>
      <trkpt lat="49.01473" lon="1.1279">
        <ele>104</ele>
        <time>2011-09-25T09:36:29Z</time>
      </trkpt>
      <trkpt lat="49.0147" lon="1.12798">
        <ele>104</ele>
        <time>2011-09-25T09:36:32Z</time>
      </trkpt>
      <trkpt lat="49.01468" lon="1.12807">
        <ele>104</ele>
        <time>2011-09-25T09:36:35Z</time>
      </trkpt>
      <trkpt lat="49.01467" lon="1.12815">
        <ele>104</ele>
        <time>2011-09-25T09:36:37Z</time>
      </trkpt>
      <trkpt lat="49.01466" lon="1.12825">
        <ele>104</ele>
        <time>2011-09-25T09:36:39Z</time>
      </trkpt>
      <trkpt lat="49.01467" lon="1.12835">
        <ele>104</ele>
        <time>2011-09-25T09:36:41Z</time>
      </trkpt>
      <trkpt lat="49.01466" lon="1.12843">
        <ele>105</ele>
        <time>2011-09-25T09:36:43Z</time>
      </trkpt>
      <trkpt lat="49.01465" lon="1.12851">
        <ele>105</ele>
        <time>2011-09-25T09:36:45Z</time>
      </trkpt>
      <trkpt lat="49.01465" lon="1.12858">
        <ele>105</ele>
        <time>2011-09-25T09:36:47Z</time>
      </trkpt>
      <trkpt lat="49.01464" lon="1.12866">
        <ele>105</ele>
        <time>2011-09-25T09:36:49Z</time>
      </trkpt>
      <trkpt lat="49.01464" lon="1.12875">
        <ele>105</ele>
        <time>2011-09-25T09:36:51Z</time>
      </trkpt>
      <trkpt lat="49.01463" lon="1.12882">
        <ele>106</ele>
        <time>2011-09-25T09:36:53Z</time>
      </trkpt>
      <trkpt lat="49.01463" lon="1.12888">
        <ele>105</ele>
        <time>2011-09-25T09:36:55Z</time>
      </trkpt>
      <trkpt lat="49.01464" lon="1.12895">
        <ele>105</ele>
        <time>2011-09-25T09:36:57Z</time>
      </trkpt>
      <trkpt lat="49.01463" lon="1.12905">
        <ele>105</ele>
        <time>2011-09-25T09:37:00Z</time>
      </trkpt>
      <trkpt lat="49.01461" lon="1.12895">
        <ele>106</ele>
        <time>2011-09-25T09:37:14Z</time>
      </trkpt>
      <trkpt lat="49.0146" lon="1.12886">
        <ele>106</ele>
        <time>2011-09-25T09:37:17Z</time>
      </trkpt>
      <trkpt lat="49.01458" lon="1.12878">
        <ele>106</ele>
        <time>2011-09-25T09:37:20Z</time>
      </trkpt>
      <trkpt lat="49.01456" lon="1.12871">
        <ele>107</ele>
        <time>2011-09-25T09:37:23Z</time>
      </trkpt>
      <trkpt lat="49.01454" lon="1.12857">
        <ele>107</ele>
        <time>2011-09-25T09:37:28Z</time>
      </trkpt>
      <trkpt lat="49.01453" lon="1.12846">
        <ele>107</ele>
        <time>2011-09-25T09:37:31Z</time>
      </trkpt>
      <trkpt lat="49.01451" lon="1.1284">
        <ele>108</ele>
        <time>2011-09-25T09:37:33Z</time>
      </trkpt>
      <trkpt lat="49.01449" lon="1.12833">
        <ele>108</ele>
        <time>2011-09-25T09:37:35Z</time>
      </trkpt>
      <trkpt lat="49.01448" lon="1.12823">
        <ele>108</ele>
        <time>2011-09-25T09:37:38Z</time>
      </trkpt>
      <trkpt lat="49.01445" lon="1.12816">
        <ele>109</ele>
        <time>2011-09-25T09:37:40Z</time>
      </trkpt>
      <trkpt lat="49.01443" lon="1.12809">
        <ele>109</ele>
        <time>2011-09-25T09:37:42Z</time>
      </trkpt>
      <trkpt lat="49.0144" lon="1.128">
        <ele>109</ele>
        <time>2011-09-25T09:37:45Z</time>
      </trkpt>
      <trkpt lat="49.01438" lon="1.12794">
        <ele>109</ele>
        <time>2011-09-25T09:37:47Z</time>
      </trkpt>
      <trkpt lat="49.01436" lon="1.12787">
        <ele>109</ele>
        <time>2011-09-25T09:37:49Z</time>
      </trkpt>
      <trkpt lat="49.01434" lon="1.1278">
        <ele>109</ele>
        <time>2011-09-25T09:37:51Z</time>
      </trkpt>
      <trkpt lat="49.01434" lon="1.1278">
        <ele>109</ele>
        <time>2011-09-25T09:37:51Z</time>
      </trkpt>
      <trkpt lat="49.01434" lon="1.1278">
        <ele>109</ele>
        <time>2011-09-25T09:37:52Z</time>
      </trkpt>
      <trkpt lat="49.01432" lon="1.1277">
        <ele>110</ele>
        <time>2011-09-25T09:37:54Z</time>
      </trkpt>
      <trkpt lat="49.01429" lon="1.12764">
        <ele>112</ele>
        <time>2011-09-25T09:37:56Z</time>
      </trkpt>
      <trkpt lat="49.01423" lon="1.12758">
        <ele>114</ele>
        <time>2011-09-25T09:37:59Z</time>
      </trkpt>
      <trkpt lat="49.01416" lon="1.12758">
        <ele>119</ele>
        <time>2011-09-25T09:38:02Z</time>
      </trkpt>
      <trkpt lat="49.0141" lon="1.12762">
        <ele>120</ele>
        <time>2011-09-25T09:38:05Z</time>
      </trkpt>
      <trkpt lat="49.0141" lon="1.12762">
        <ele>120</ele>
        <time>2011-09-25T09:38:05Z</time>
      </trkpt>
      <trkpt lat="49.0141" lon="1.12762">
        <ele>120</ele>
        <time>2011-09-25T09:38:06Z</time>
      </trkpt>
      <trkpt lat="49.01406" lon="1.12768">
        <ele>121</ele>
        <time>2011-09-25T09:38:08Z</time>
      </trkpt>
      <trkpt lat="49.01406" lon="1.12768">
        <ele>121</ele>
        <time>2011-09-25T09:38:08Z</time>
      </trkpt>
      <trkpt lat="49.01406" lon="1.12768">
        <ele>121</ele>
        <time>2011-09-25T09:38:09Z</time>
      </trkpt>
      <trkpt lat="49.01402" lon="1.12774">
        <ele>121</ele>
        <time>2011-09-25T09:38:11Z</time>
      </trkpt>
      <trkpt lat="49.01396" lon="1.12778">
        <ele>122</ele>
        <time>2011-09-25T09:38:14Z</time>
      </trkpt>
      <trkpt lat="49.01392" lon="1.12783">
        <ele>122</ele>
        <time>2011-09-25T09:38:16Z</time>
      </trkpt>
      <trkpt lat="49.01387" lon="1.12788">
        <ele>122</ele>
        <time>2011-09-25T09:38:18Z</time>
      </trkpt>
      <trkpt lat="49.01382" lon="1.12792">
        <ele>123</ele>
        <time>2011-09-25T09:38:20Z</time>
      </trkpt>
      <trkpt lat="49.01378" lon="1.12796">
        <ele>123</ele>
        <time>2011-09-25T09:38:22Z</time>
      </trkpt>
      <trkpt lat="49.01373" lon="1.12801">
        <ele>123</ele>
        <time>2011-09-25T09:38:24Z</time>
      </trkpt>
      <trkpt lat="49.01373" lon="1.12801">
        <ele>123</ele>
        <time>2011-09-25T09:38:24Z</time>
      </trkpt>
      <trkpt lat="49.01373" lon="1.12801">
        <ele>123</ele>
        <time>2011-09-25T09:38:25Z</time>
      </trkpt>
      <trkpt lat="49.01368" lon="1.12806">
        <ele>123</ele>
        <time>2011-09-25T09:38:26Z</time>
      </trkpt>
      <trkpt lat="49.01364" lon="1.12813">
        <ele>124</ele>
        <time>2011-09-25T09:38:28Z</time>
      </trkpt>
      <trkpt lat="49.0136" lon="1.12819">
        <ele>124</ele>
        <time>2011-09-25T09:38:30Z</time>
      </trkpt>
      <trkpt lat="49.01355" lon="1.12823">
        <ele>124</ele>
        <time>2011-09-25T09:38:32Z</time>
      </trkpt>
      <trkpt lat="49.01352" lon="1.12828">
        <ele>125</ele>
        <time>2011-09-25T09:38:34Z</time>
      </trkpt>
      <trkpt lat="49.01348" lon="1.12831">
        <ele>125</ele>
        <time>2011-09-25T09:38:36Z</time>
      </trkpt>
      <trkpt lat="49.01342" lon="1.12837">
        <ele>126</ele>
        <time>2011-09-25T09:38:39Z</time>
      </trkpt>
      <trkpt lat="49.01337" lon="1.12842">
        <ele>126</ele>
        <time>2011-09-25T09:38:41Z</time>
      </trkpt>
      <trkpt lat="49.01333" lon="1.12848">
        <ele>127</ele>
        <time>2011-09-25T09:38:43Z</time>
      </trkpt>
      <trkpt lat="49.01327" lon="1.12854">
        <ele>128</ele>
        <time>2011-09-25T09:38:45Z</time>
      </trkpt>
      <trkpt lat="49.01323" lon="1.1286">
        <ele>128</ele>
        <time>2011-09-25T09:38:47Z</time>
      </trkpt>
      <trkpt lat="49.01318" lon="1.12867">
        <ele>128</ele>
        <time>2011-09-25T09:38:49Z</time>
      </trkpt>
      <trkpt lat="49.01312" lon="1.12874">
        <ele>128</ele>
        <time>2011-09-25T09:38:51Z</time>
      </trkpt>
      <trkpt lat="49.01307" lon="1.12881">
        <ele>128</ele>
        <time>2011-09-25T09:38:53Z</time>
      </trkpt>
      <trkpt lat="49.01302" lon="1.12888">
        <ele>128</ele>
        <time>2011-09-25T09:38:55Z</time>
      </trkpt>
      <trkpt lat="49.01296" lon="1.12896">
        <ele>128</ele>
        <time>2011-09-25T09:38:57Z</time>
      </trkpt>
      <trkpt lat="49.01289" lon="1.12904">
        <ele>128</ele>
        <time>2011-09-25T09:38:59Z</time>
      </trkpt>
      <trkpt lat="49.01283" lon="1.12912">
        <ele>128</ele>
        <time>2011-09-25T09:39:01Z</time>
      </trkpt>
      <trkpt lat="49.01277" lon="1.1292">
        <ele>128</ele>
        <time>2011-09-25T09:39:03Z</time>
      </trkpt>
      <trkpt lat="49.01271" lon="1.12928">
        <ele>128</ele>
        <time>2011-09-25T09:39:05Z</time>
      </trkpt>
      <trkpt lat="49.01265" lon="1.12935">
        <ele>128</ele>
        <time>2011-09-25T09:39:07Z</time>
      </trkpt>
      <trkpt lat="49.01262" lon="1.1294">
        <ele>128</ele>
        <time>2011-09-25T09:39:08Z</time>
      </trkpt>
      <trkpt lat="49.01258" lon="1.12944">
        <ele>128</ele>
        <time>2011-09-25T09:39:09Z</time>
      </trkpt>
      <trkpt lat="49.01252" lon="1.12954">
        <ele>128</ele>
        <time>2011-09-25T09:39:11Z</time>
      </trkpt>
      <trkpt lat="49.01246" lon="1.12962">
        <ele>130</ele>
        <time>2011-09-25T09:39:13Z</time>
      </trkpt>
      <trkpt lat="49.01239" lon="1.1297">
        <ele>130</ele>
        <time>2011-09-25T09:39:15Z</time>
      </trkpt>
      <trkpt lat="49.01233" lon="1.12978">
        <ele>130</ele>
        <time>2011-09-25T09:39:17Z</time>
      </trkpt>
      <trkpt lat="49.01227" lon="1.12987">
        <ele>130</ele>
        <time>2011-09-25T09:39:19Z</time>
      </trkpt>
      <trkpt lat="49.01221" lon="1.12994">
        <ele>130</ele>
        <time>2011-09-25T09:39:21Z</time>
      </trkpt>
      <trkpt lat="49.01215" lon="1.13002">
        <ele>130</ele>
        <time>2011-09-25T09:39:23Z</time>
      </trkpt>
      <trkpt lat="49.01209" lon="1.13009">
        <ele>130</ele>
        <time>2011-09-25T09:39:25Z</time>
      </trkpt>
      <trkpt lat="49.01203" lon="1.13018">
        <ele>130</ele>
        <time>2011-09-25T09:39:27Z</time>
      </trkpt>
      <trkpt lat="49.01195" lon="1.13026">
        <ele>130</ele>
        <time>2011-09-25T09:39:29Z</time>
      </trkpt>
      <trkpt lat="49.01192" lon="1.1303">
        <ele>130</ele>
        <time>2011-09-25T09:39:30Z</time>
      </trkpt>
      <trkpt lat="49.01187" lon="1.13034">
        <ele>130</ele>
        <time>2011-09-25T09:39:31Z</time>
      </trkpt>
      <trkpt lat="49.01182" lon="1.13039">
        <ele>130</ele>
        <time>2011-09-25T09:39:32Z</time>
      </trkpt>
      <trkpt lat="49.01178" lon="1.13044">
        <ele>130</ele>
        <time>2011-09-25T09:39:33Z</time>
      </trkpt>
      <trkpt lat="49.01173" lon="1.13048">
        <ele>130</ele>
        <time>2011-09-25T09:39:34Z</time>
      </trkpt>
      <trkpt lat="49.0117" lon="1.13053">
        <ele>130</ele>
        <time>2011-09-25T09:39:35Z</time>
      </trkpt>
      <trkpt lat="49.01166" lon="1.13057">
        <ele>132</ele>
        <time>2011-09-25T09:39:36Z</time>
      </trkpt>
      <trkpt lat="49.01162" lon="1.13062">
        <ele>131</ele>
        <time>2011-09-25T09:39:37Z</time>
      </trkpt>
      <trkpt lat="49.01159" lon="1.13067">
        <ele>131</ele>
        <time>2011-09-25T09:39:38Z</time>
      </trkpt>
      <trkpt lat="49.01156" lon="1.13073">
        <ele>131</ele>
        <time>2011-09-25T09:39:39Z</time>
      </trkpt>
      <trkpt lat="49.01152" lon="1.13079">
        <ele>131</ele>
        <time>2011-09-25T09:39:40Z</time>
      </trkpt>
      <trkpt lat="49.01148" lon="1.13085">
        <ele>131</ele>
        <time>2011-09-25T09:39:41Z</time>
      </trkpt>
      <trkpt lat="49.01145" lon="1.13092">
        <ele>131</ele>
        <time>2011-09-25T09:39:42Z</time>
      </trkpt>
      <trkpt lat="49.01141" lon="1.13097">
        <ele>132</ele>
        <time>2011-09-25T09:39:43Z</time>
      </trkpt>
      <trkpt lat="49.01137" lon="1.13103">
        <ele>132</ele>
        <time>2011-09-25T09:39:44Z</time>
      </trkpt>
      <trkpt lat="49.01134" lon="1.13108">
        <ele>132</ele>
        <time>2011-09-25T09:39:45Z</time>
      </trkpt>
      <trkpt lat="49.0113" lon="1.13114">
        <ele>132</ele>
        <time>2011-09-25T09:39:46Z</time>
      </trkpt>
      <trkpt lat="49.01127" lon="1.13119">
        <ele>132</ele>
        <time>2011-09-25T09:39:47Z</time>
      </trkpt>
      <trkpt lat="49.01123" lon="1.13123">
        <ele>132</ele>
        <time>2011-09-25T09:39:48Z</time>
      </trkpt>
      <trkpt lat="49.01119" lon="1.13126">
        <ele>132</ele>
        <time>2011-09-25T09:39:49Z</time>
      </trkpt>
      <trkpt lat="49.01113" lon="1.13136">
        <ele>132</ele>
        <time>2011-09-25T09:39:51Z</time>
      </trkpt>
      <trkpt lat="49.01107" lon="1.13144">
        <ele>132</ele>
        <time>2011-09-25T09:39:53Z</time>
      </trkpt>
      <trkpt lat="49.011" lon="1.13152">
        <ele>132</ele>
        <time>2011-09-25T09:39:55Z</time>
      </trkpt>
      <trkpt lat="49.01094" lon="1.1316">
        <ele>132</ele>
        <time>2011-09-25T09:39:57Z</time>
      </trkpt>
      <trkpt lat="49.01088" lon="1.13168">
        <ele>132</ele>
        <time>2011-09-25T09:39:59Z</time>
      </trkpt>
      <trkpt lat="49.01082" lon="1.13176">
        <ele>132</ele>
        <time>2011-09-25T09:40:01Z</time>
      </trkpt>
      <trkpt lat="49.01076" lon="1.13184">
        <ele>132</ele>
        <time>2011-09-25T09:40:03Z</time>
      </trkpt>
      <trkpt lat="49.01069" lon="1.13192">
        <ele>132</ele>
        <time>2011-09-25T09:40:05Z</time>
      </trkpt>
      <trkpt lat="49.01062" lon="1.13201">
        <ele>132</ele>
        <time>2011-09-25T09:40:07Z</time>
      </trkpt>
      <trkpt lat="49.01059" lon="1.13205">
        <ele>132</ele>
        <time>2011-09-25T09:40:08Z</time>
      </trkpt>
      <trkpt lat="49.01055" lon="1.1321">
        <ele>133</ele>
        <time>2011-09-25T09:40:09Z</time>
      </trkpt>
      <trkpt lat="49.01052" lon="1.13215">
        <ele>133</ele>
        <time>2011-09-25T09:40:10Z</time>
      </trkpt>
      <trkpt lat="49.01048" lon="1.1322">
        <ele>133</ele>
        <time>2011-09-25T09:40:11Z</time>
      </trkpt>
      <trkpt lat="49.01045" lon="1.13226">
        <ele>133</ele>
        <time>2011-09-25T09:40:12Z</time>
      </trkpt>
      <trkpt lat="49.01041" lon="1.13232">
        <ele>132</ele>
        <time>2011-09-25T09:40:13Z</time>
      </trkpt>
      <trkpt lat="49.01038" lon="1.13237">
        <ele>132</ele>
        <time>2011-09-25T09:40:14Z</time>
      </trkpt>
      <trkpt lat="49.01034" lon="1.13242">
        <ele>132</ele>
        <time>2011-09-25T09:40:15Z</time>
      </trkpt>
      <trkpt lat="49.01028" lon="1.1325">
        <ele>133</ele>
        <time>2011-09-25T09:40:17Z</time>
      </trkpt>
      <trkpt lat="49.01023" lon="1.13257">
        <ele>132</ele>
        <time>2011-09-25T09:40:19Z</time>
      </trkpt>
      <trkpt lat="49.01018" lon="1.13265">
        <ele>132</ele>
        <time>2011-09-25T09:40:21Z</time>
      </trkpt>
      <trkpt lat="49.01013" lon="1.13272">
        <ele>133</ele>
        <time>2011-09-25T09:40:23Z</time>
      </trkpt>
      <trkpt lat="49.01008" lon="1.1328">
        <ele>133</ele>
        <time>2011-09-25T09:40:25Z</time>
      </trkpt>
      <trkpt lat="49.01002" lon="1.1329">
        <ele>133</ele>
        <time>2011-09-25T09:40:27Z</time>
      </trkpt>
      <trkpt lat="49.00999" lon="1.13295">
        <ele>133</ele>
        <time>2011-09-25T09:40:28Z</time>
      </trkpt>
      <trkpt lat="49.00995" lon="1.133">
        <ele>133</ele>
        <time>2011-09-25T09:40:29Z</time>
      </trkpt>
      <trkpt lat="49.00992" lon="1.13304">
        <ele>133</ele>
        <time>2011-09-25T09:40:30Z</time>
      </trkpt>
      <trkpt lat="49.00988" lon="1.13309">
        <ele>133</ele>
        <time>2011-09-25T09:40:31Z</time>
      </trkpt>
      <trkpt lat="49.00982" lon="1.13318">
        <ele>133</ele>
        <time>2011-09-25T09:40:33Z</time>
      </trkpt>
      <trkpt lat="49.00976" lon="1.13328">
        <ele>133</ele>
        <time>2011-09-25T09:40:35Z</time>
      </trkpt>
      <trkpt lat="49.00969" lon="1.13337">
        <ele>133</ele>
        <time>2011-09-25T09:40:37Z</time>
      </trkpt>
      <trkpt lat="49.00966" lon="1.13342">
        <ele>133</ele>
        <time>2011-09-25T09:40:38Z</time>
      </trkpt>
      <trkpt lat="49.00962" lon="1.13346">
        <ele>133</ele>
        <time>2011-09-25T09:40:39Z</time>
      </trkpt>
      <trkpt lat="49.00955" lon="1.13355">
        <ele>133</ele>
        <time>2011-09-25T09:40:41Z</time>
      </trkpt>
      <trkpt lat="49.00952" lon="1.13359">
        <ele>133</ele>
        <time>2011-09-25T09:40:42Z</time>
      </trkpt>
      <trkpt lat="49.00948" lon="1.13364">
        <ele>134</ele>
        <time>2011-09-25T09:40:43Z</time>
      </trkpt>
      <trkpt lat="49.00944" lon="1.13368">
        <ele>134</ele>
        <time>2011-09-25T09:40:44Z</time>
      </trkpt>
      <trkpt lat="49.00941" lon="1.13372">
        <ele>134</ele>
        <time>2011-09-25T09:40:45Z</time>
      </trkpt>
      <trkpt lat="49.00935" lon="1.1338">
        <ele>134</ele>
        <time>2011-09-25T09:40:47Z</time>
      </trkpt>
      <trkpt lat="49.00929" lon="1.13388">
        <ele>134</ele>
        <time>2011-09-25T09:40:49Z</time>
      </trkpt>
      <trkpt lat="49.00918" lon="1.13402">
        <ele>134</ele>
        <time>2011-09-25T09:40:54Z</time>
      </trkpt>
      <trkpt lat="49.00918" lon="1.13402">
        <ele>134</ele>
        <time>2011-09-25T09:40:54Z</time>
      </trkpt>
      <trkpt lat="49.00918" lon="1.13402">
        <ele>134</ele>
        <time>2011-09-25T09:40:55Z</time>
      </trkpt>
      <trkpt lat="49.00916" lon="1.13408">
        <ele>135</ele>
        <time>2011-09-25T09:40:56Z</time>
      </trkpt>
      <trkpt lat="49.00916" lon="1.13408">
        <ele>135</ele>
        <time>2011-09-25T09:40:56Z</time>
      </trkpt>
      <trkpt lat="49.00916" lon="1.13408">
        <ele>135</ele>
        <time>2011-09-25T09:40:57Z</time>
      </trkpt>
      <trkpt lat="49.00922" lon="1.1341">
        <ele>134</ele>
        <time>2011-09-25T09:41:01Z</time>
      </trkpt>
      <trkpt lat="49.00928" lon="1.13407">
        <ele>134</ele>
        <time>2011-09-25T09:41:03Z</time>
      </trkpt>
      <trkpt lat="49.00935" lon="1.13403">
        <ele>133</ele>
        <time>2011-09-25T09:41:05Z</time>
      </trkpt>
      <trkpt lat="49.00942" lon="1.13399">
        <ele>133</ele>
        <time>2011-09-25T09:41:07Z</time>
      </trkpt>
      <trkpt lat="49.00949" lon="1.13396">
        <ele>133</ele>
        <time>2011-09-25T09:41:09Z</time>
      </trkpt>
      <trkpt lat="49.00957" lon="1.13391">
        <ele>133</ele>
        <time>2011-09-25T09:41:11Z</time>
      </trkpt>
      <trkpt lat="49.00964" lon="1.13386">
        <ele>133</ele>
        <time>2011-09-25T09:41:13Z</time>
      </trkpt>
      <trkpt lat="49.00972" lon="1.1338">
        <ele>133</ele>
        <time>2011-09-25T09:41:15Z</time>
      </trkpt>
      <trkpt lat="49.0098" lon="1.13376">
        <ele>133</ele>
        <time>2011-09-25T09:41:17Z</time>
      </trkpt>
      <trkpt lat="49.00988" lon="1.13372">
        <ele>133</ele>
        <time>2011-09-25T09:41:19Z</time>
      </trkpt>
      <trkpt lat="49.00992" lon="1.13371">
        <ele>133</ele>
        <time>2011-09-25T09:41:20Z</time>
      </trkpt>
      <trkpt lat="49.00996" lon="1.13369">
        <ele>133</ele>
        <time>2011-09-25T09:41:21Z</time>
      </trkpt>
      <trkpt lat="49.01001" lon="1.13367">
        <ele>132</ele>
        <time>2011-09-25T09:41:22Z</time>
      </trkpt>
      <trkpt lat="49.01005" lon="1.13365">
        <ele>132</ele>
        <time>2011-09-25T09:41:23Z</time>
      </trkpt>
      <trkpt lat="49.0101" lon="1.13362">
        <ele>132</ele>
        <time>2011-09-25T09:41:24Z</time>
      </trkpt>
      <trkpt lat="49.01018" lon="1.13358">
        <ele>132</ele>
        <time>2011-09-25T09:41:26Z</time>
      </trkpt>
      <trkpt lat="49.01026" lon="1.13354">
        <ele>132</ele>
        <time>2011-09-25T09:41:28Z</time>
      </trkpt>
      <trkpt lat="49.01034" lon="1.1335">
        <ele>132</ele>
        <time>2011-09-25T09:41:30Z</time>
      </trkpt>
      <trkpt lat="49.01043" lon="1.13352">
        <ele>132</ele>
        <time>2011-09-25T09:41:32Z</time>
      </trkpt>
      <trkpt lat="49.01051" lon="1.13356">
        <ele>132</ele>
        <time>2011-09-25T09:41:34Z</time>
      </trkpt>
      <trkpt lat="49.01056" lon="1.13358">
        <ele>132</ele>
        <time>2011-09-25T09:41:35Z</time>
      </trkpt>
      <trkpt lat="49.0106" lon="1.1336">
        <ele>132</ele>
        <time>2011-09-25T09:41:36Z</time>
      </trkpt>
      <trkpt lat="49.01065" lon="1.13363">
        <ele>132</ele>
        <time>2011-09-25T09:41:37Z</time>
      </trkpt>
      <trkpt lat="49.01069" lon="1.13366">
        <ele>132</ele>
        <time>2011-09-25T09:41:38Z</time>
      </trkpt>
      <trkpt lat="49.01074" lon="1.1337">
        <ele>132</ele>
        <time>2011-09-25T09:41:39Z</time>
      </trkpt>
      <trkpt lat="49.01079" lon="1.13372">
        <ele>132</ele>
        <time>2011-09-25T09:41:40Z</time>
      </trkpt>
      <trkpt lat="49.01083" lon="1.13374">
        <ele>132</ele>
        <time>2011-09-25T09:41:41Z</time>
      </trkpt>
      <trkpt lat="49.01088" lon="1.13377">
        <ele>132</ele>
        <time>2011-09-25T09:41:42Z</time>
      </trkpt>
      <trkpt lat="49.01092" lon="1.13379">
        <ele>132</ele>
        <time>2011-09-25T09:41:43Z</time>
      </trkpt>
      <trkpt lat="49.01096" lon="1.13382">
        <ele>132</ele>
        <time>2011-09-25T09:41:44Z</time>
      </trkpt>
      <trkpt lat="49.011" lon="1.13385">
        <ele>132</ele>
        <time>2011-09-25T09:41:45Z</time>
      </trkpt>
      <trkpt lat="49.01104" lon="1.13388">
        <ele>132</ele>
        <time>2011-09-25T09:41:46Z</time>
      </trkpt>
      <trkpt lat="49.01109" lon="1.13391">
        <ele>131</ele>
        <time>2011-09-25T09:41:47Z</time>
      </trkpt>
      <trkpt lat="49.01113" lon="1.13394">
        <ele>131</ele>
        <time>2011-09-25T09:41:48Z</time>
      </trkpt>
      <trkpt lat="49.01118" lon="1.13396">
        <ele>131</ele>
        <time>2011-09-25T09:41:49Z</time>
      </trkpt>
      <trkpt lat="49.01122" lon="1.13398">
        <ele>131</ele>
        <time>2011-09-25T09:41:50Z</time>
      </trkpt>
      <trkpt lat="49.01126" lon="1.134">
        <ele>131</ele>
        <time>2011-09-25T09:41:51Z</time>
      </trkpt>
      <trkpt lat="49.01131" lon="1.13402">
        <ele>131</ele>
        <time>2011-09-25T09:41:52Z</time>
      </trkpt>
      <trkpt lat="49.01136" lon="1.13404">
        <ele>131</ele>
        <time>2011-09-25T09:41:53Z</time>
      </trkpt>
      <trkpt lat="49.0114" lon="1.13406">
        <ele>131</ele>
        <time>2011-09-25T09:41:54Z</time>
      </trkpt>
      <trkpt lat="49.01145" lon="1.13408">
        <ele>131</ele>
        <time>2011-09-25T09:41:55Z</time>
      </trkpt>
      <trkpt lat="49.0115" lon="1.1341">
        <ele>131</ele>
        <time>2011-09-25T09:41:56Z</time>
      </trkpt>
      <trkpt lat="49.01155" lon="1.13412">
        <ele>130</ele>
        <time>2011-09-25T09:41:57Z</time>
      </trkpt>
      <trkpt lat="49.0116" lon="1.13414">
        <ele>130</ele>
        <time>2011-09-25T09:41:58Z</time>
      </trkpt>
      <trkpt lat="49.01165" lon="1.13416">
        <ele>130</ele>
        <time>2011-09-25T09:41:59Z</time>
      </trkpt>
      <trkpt lat="49.0117" lon="1.13419">
        <ele>130</ele>
        <time>2011-09-25T09:42:00Z</time>
      </trkpt>
      <trkpt lat="49.01176" lon="1.13422">
        <ele>130</ele>
        <time>2011-09-25T09:42:01Z</time>
      </trkpt>
      <trkpt lat="49.01181" lon="1.13424">
        <ele>129</ele>
        <time>2011-09-25T09:42:02Z</time>
      </trkpt>
      <trkpt lat="49.01185" lon="1.13426">
        <ele>129</ele>
        <time>2011-09-25T09:42:03Z</time>
      </trkpt>
      <trkpt lat="49.0119" lon="1.13427">
        <ele>129</ele>
        <time>2011-09-25T09:42:04Z</time>
      </trkpt>
      <trkpt lat="49.01198" lon="1.1343">
        <ele>129</ele>
        <time>2011-09-25T09:42:06Z</time>
      </trkpt>
      <trkpt lat="49.01202" lon="1.13433">
        <ele>129</ele>
        <time>2011-09-25T09:42:07Z</time>
      </trkpt>
      <trkpt lat="49.01207" lon="1.13436">
        <ele>129</ele>
        <time>2011-09-25T09:42:08Z</time>
      </trkpt>
      <trkpt lat="49.01211" lon="1.13439">
        <ele>129</ele>
        <time>2011-09-25T09:42:09Z</time>
      </trkpt>
      <trkpt lat="49.01216" lon="1.13442">
        <ele>129</ele>
        <time>2011-09-25T09:42:10Z</time>
      </trkpt>
      <trkpt lat="49.01221" lon="1.13444">
        <ele>129</ele>
        <time>2011-09-25T09:42:11Z</time>
      </trkpt>
      <trkpt lat="49.01227" lon="1.13446">
        <ele>129</ele>
        <time>2011-09-25T09:42:12Z</time>
      </trkpt>
      <trkpt lat="49.01232" lon="1.13449">
        <ele>129</ele>
        <time>2011-09-25T09:42:13Z</time>
      </trkpt>
      <trkpt lat="49.01237" lon="1.13452">
        <ele>129</ele>
        <time>2011-09-25T09:42:14Z</time>
      </trkpt>
      <trkpt lat="49.01242" lon="1.13455">
        <ele>129</ele>
        <time>2011-09-25T09:42:15Z</time>
      </trkpt>
      <trkpt lat="49.01246" lon="1.13458">
        <ele>129</ele>
        <time>2011-09-25T09:42:16Z</time>
      </trkpt>
      <trkpt lat="49.01251" lon="1.13462">
        <ele>129</ele>
        <time>2011-09-25T09:42:17Z</time>
      </trkpt>
      <trkpt lat="49.01256" lon="1.13466">
        <ele>129</ele>
        <time>2011-09-25T09:42:18Z</time>
      </trkpt>
      <trkpt lat="49.01261" lon="1.13469">
        <ele>129</ele>
        <time>2011-09-25T09:42:19Z</time>
      </trkpt>
      <trkpt lat="49.01265" lon="1.13473">
        <ele>129</ele>
        <time>2011-09-25T09:42:20Z</time>
      </trkpt>
      <trkpt lat="49.0127" lon="1.13476">
        <ele>129</ele>
        <time>2011-09-25T09:42:21Z</time>
      </trkpt>
      <trkpt lat="49.01277" lon="1.13483">
        <ele>129</ele>
        <time>2011-09-25T09:42:23Z</time>
      </trkpt>
      <trkpt lat="49.01281" lon="1.13487">
        <ele>128</ele>
        <time>2011-09-25T09:42:24Z</time>
      </trkpt>
      <trkpt lat="49.01285" lon="1.13491">
        <ele>128</ele>
        <time>2011-09-25T09:42:25Z</time>
      </trkpt>
      <trkpt lat="49.01292" lon="1.13497">
        <ele>128</ele>
        <time>2011-09-25T09:42:27Z</time>
      </trkpt>
      <trkpt lat="49.01299" lon="1.13501">
        <ele>127</ele>
        <time>2011-09-25T09:42:29Z</time>
      </trkpt>
      <trkpt lat="49.01306" lon="1.13506">
        <ele>127</ele>
        <time>2011-09-25T09:42:31Z</time>
      </trkpt>
      <trkpt lat="49.01316" lon="1.13515">
        <ele>127</ele>
        <time>2011-09-25T09:42:33Z</time>
      </trkpt>
      <trkpt lat="49.01322" lon="1.13521">
        <ele>127</ele>
        <time>2011-09-25T09:42:34Z</time>
      </trkpt>
      <trkpt lat="49.01327" lon="1.13525">
        <ele>126</ele>
        <time>2011-09-25T09:42:35Z</time>
      </trkpt>
      <trkpt lat="49.01332" lon="1.13528">
        <ele>126</ele>
        <time>2011-09-25T09:42:36Z</time>
      </trkpt>
      <trkpt lat="49.01339" lon="1.13531">
        <ele>126</ele>
        <time>2011-09-25T09:42:37Z</time>
      </trkpt>
      <trkpt lat="49.01345" lon="1.13534">
        <ele>126</ele>
        <time>2011-09-25T09:42:38Z</time>
      </trkpt>
      <trkpt lat="49.01352" lon="1.13537">
        <ele>126</ele>
        <time>2011-09-25T09:42:39Z</time>
      </trkpt>
      <trkpt lat="49.01358" lon="1.13539">
        <ele>126</ele>
        <time>2011-09-25T09:42:40Z</time>
      </trkpt>
      <trkpt lat="49.01364" lon="1.13542">
        <ele>126</ele>
        <time>2011-09-25T09:42:41Z</time>
      </trkpt>
      <trkpt lat="49.01369" lon="1.13544">
        <ele>126</ele>
        <time>2011-09-25T09:42:42Z</time>
      </trkpt>
      <trkpt lat="49.01373" lon="1.13547">
        <ele>126</ele>
        <time>2011-09-25T09:42:43Z</time>
      </trkpt>
      <trkpt lat="49.01378" lon="1.13549">
        <ele>126</ele>
        <time>2011-09-25T09:42:44Z</time>
      </trkpt>
      <trkpt lat="49.01384" lon="1.13554">
        <ele>126</ele>
        <time>2011-09-25T09:42:46Z</time>
      </trkpt>
      <trkpt lat="49.01389" lon="1.13562">
        <ele>125</ele>
        <time>2011-09-25T09:42:48Z</time>
      </trkpt>
      <trkpt lat="49.01394" lon="1.13571">
        <ele>125</ele>
        <time>2011-09-25T09:42:50Z</time>
      </trkpt>
      <trkpt lat="49.014" lon="1.1358">
        <ele>125</ele>
        <time>2011-09-25T09:42:52Z</time>
      </trkpt>
      <trkpt lat="49.01404" lon="1.13586">
        <ele>124</ele>
        <time>2011-09-25T09:42:53Z</time>
      </trkpt>
      <trkpt lat="49.01407" lon="1.1359">
        <ele>124</ele>
        <time>2011-09-25T09:42:54Z</time>
      </trkpt>
      <trkpt lat="49.0141" lon="1.13596">
        <ele>124</ele>
        <time>2011-09-25T09:42:55Z</time>
      </trkpt>
      <trkpt lat="49.01415" lon="1.13599">
        <ele>124</ele>
        <time>2011-09-25T09:42:56Z</time>
      </trkpt>
      <trkpt lat="49.0142" lon="1.13602">
        <ele>124</ele>
        <time>2011-09-25T09:42:57Z</time>
      </trkpt>
      <trkpt lat="49.01426" lon="1.13603">
        <ele>124</ele>
        <time>2011-09-25T09:42:58Z</time>
      </trkpt>
      <trkpt lat="49.0143" lon="1.13604">
        <ele>124</ele>
        <time>2011-09-25T09:42:59Z</time>
      </trkpt>
      <trkpt lat="49.01435" lon="1.13606">
        <ele>124</ele>
        <time>2011-09-25T09:43:00Z</time>
      </trkpt>
      <trkpt lat="49.01444" lon="1.13608">
        <ele>123</ele>
        <time>2011-09-25T09:43:02Z</time>
      </trkpt>
      <trkpt lat="49.01451" lon="1.13611">
        <ele>123</ele>
        <time>2011-09-25T09:43:04Z</time>
      </trkpt>
      <trkpt lat="49.01459" lon="1.13613">
        <ele>123</ele>
        <time>2011-09-25T09:43:06Z</time>
      </trkpt>
      <trkpt lat="49.01464" lon="1.13614">
        <ele>123</ele>
        <time>2011-09-25T09:43:07Z</time>
      </trkpt>
      <trkpt lat="49.01469" lon="1.13615">
        <ele>123</ele>
        <time>2011-09-25T09:43:08Z</time>
      </trkpt>
      <trkpt lat="49.01474" lon="1.13616">
        <ele>123</ele>
        <time>2011-09-25T09:43:09Z</time>
      </trkpt>
      <trkpt lat="49.01479" lon="1.13618">
        <ele>123</ele>
        <time>2011-09-25T09:43:10Z</time>
      </trkpt>
      <trkpt lat="49.01485" lon="1.13621">
        <ele>123</ele>
        <time>2011-09-25T09:43:11Z</time>
      </trkpt>
      <trkpt lat="49.01492" lon="1.13624">
        <ele>123</ele>
        <time>2011-09-25T09:43:12Z</time>
      </trkpt>
      <trkpt lat="49.01498" lon="1.13628">
        <ele>123</ele>
        <time>2011-09-25T09:43:13Z</time>
      </trkpt>
      <trkpt lat="49.01504" lon="1.13631">
        <ele>114</ele>
        <time>2011-09-25T09:43:14Z</time>
      </trkpt>
      <trkpt lat="49.01511" lon="1.13635">
        <ele>113</ele>
        <time>2011-09-25T09:43:15Z</time>
      </trkpt>
      <trkpt lat="49.01517" lon="1.13638">
        <ele>113</ele>
        <time>2011-09-25T09:43:16Z</time>
      </trkpt>
      <trkpt lat="49.01523" lon="1.13641">
        <ele>112</ele>
        <time>2011-09-25T09:43:17Z</time>
      </trkpt>
      <trkpt lat="49.01528" lon="1.13645">
        <ele>111</ele>
        <time>2011-09-25T09:43:18Z</time>
      </trkpt>
      <trkpt lat="49.01534" lon="1.13649">
        <ele>110</ele>
        <time>2011-09-25T09:43:19Z</time>
      </trkpt>
      <trkpt lat="49.01538" lon="1.13654">
        <ele>110</ele>
        <time>2011-09-25T09:43:20Z</time>
      </trkpt>
      <trkpt lat="49.01542" lon="1.13659">
        <ele>109</ele>
        <time>2011-09-25T09:43:21Z</time>
      </trkpt>
      <trkpt lat="49.01546" lon="1.13663">
        <ele>108</ele>
        <time>2011-09-25T09:43:22Z</time>
      </trkpt>
      <trkpt lat="49.01551" lon="1.13671">
        <ele>108</ele>
        <time>2011-09-25T09:43:24Z</time>
      </trkpt>
      <trkpt lat="49.01556" lon="1.13678">
        <ele>108</ele>
        <time>2011-09-25T09:43:26Z</time>
      </trkpt>
      <trkpt lat="49.01564" lon="1.1368">
        <ele>106</ele>
        <time>2011-09-25T09:43:28Z</time>
      </trkpt>
      <trkpt lat="49.0157" lon="1.13679">
        <ele>104</ele>
        <time>2011-09-25T09:43:29Z</time>
      </trkpt>
      <trkpt lat="49.01576" lon="1.13678">
        <ele>103</ele>
        <time>2011-09-25T09:43:30Z</time>
      </trkpt>
      <trkpt lat="49.01583" lon="1.13677">
        <ele>102</ele>
        <time>2011-09-25T09:43:31Z</time>
      </trkpt>
      <trkpt lat="49.01589" lon="1.13678">
        <ele>95</ele>
        <time>2011-09-25T09:43:32Z</time>
      </trkpt>
      <trkpt lat="49.01595" lon="1.13679">
        <ele>94</ele>
        <time>2011-09-25T09:43:33Z</time>
      </trkpt>
      <trkpt lat="49.01601" lon="1.1368">
        <ele>94</ele>
        <time>2011-09-25T09:43:34Z</time>
      </trkpt>
      <trkpt lat="49.01606" lon="1.13681">
        <ele>93</ele>
        <time>2011-09-25T09:43:35Z</time>
      </trkpt>
      <trkpt lat="49.01612" lon="1.13682">
        <ele>92</ele>
        <time>2011-09-25T09:43:36Z</time>
      </trkpt>
      <trkpt lat="49.01618" lon="1.13684">
        <ele>92</ele>
        <time>2011-09-25T09:43:37Z</time>
      </trkpt>
      <trkpt lat="49.01624" lon="1.13686">
        <ele>91</ele>
        <time>2011-09-25T09:43:38Z</time>
      </trkpt>
      <trkpt lat="49.01629" lon="1.13688">
        <ele>91</ele>
        <time>2011-09-25T09:43:39Z</time>
      </trkpt>
      <trkpt lat="49.01634" lon="1.13688">
        <ele>90</ele>
        <time>2011-09-25T09:43:40Z</time>
      </trkpt>
      <trkpt lat="49.01642" lon="1.13685">
        <ele>89</ele>
        <time>2011-09-25T09:43:42Z</time>
      </trkpt>
      <trkpt lat="49.01646" lon="1.13679">
        <ele>88</ele>
        <time>2011-09-25T09:43:44Z</time>
      </trkpt>
      <trkpt lat="49.01648" lon="1.13669">
        <ele>87</ele>
        <time>2011-09-25T09:43:46Z</time>
      </trkpt>
      <trkpt lat="49.01648" lon="1.13657">
        <ele>86</ele>
        <time>2011-09-25T09:43:48Z</time>
      </trkpt>
      <trkpt lat="49.01649" lon="1.13645">
        <ele>86</ele>
        <time>2011-09-25T09:43:50Z</time>
      </trkpt>
      <trkpt lat="49.01648" lon="1.13632">
        <ele>87</ele>
        <time>2011-09-25T09:43:52Z</time>
      </trkpt>
      <trkpt lat="49.01648" lon="1.13625">
        <ele>87</ele>
        <time>2011-09-25T09:43:53Z</time>
      </trkpt>
      <trkpt lat="49.01648" lon="1.13618">
        <ele>87</ele>
        <time>2011-09-25T09:43:54Z</time>
      </trkpt>
      <trkpt lat="49.01648" lon="1.13611">
        <ele>87</ele>
        <time>2011-09-25T09:43:55Z</time>
      </trkpt>
      <trkpt lat="49.01647" lon="1.13604">
        <ele>86</ele>
        <time>2011-09-25T09:43:56Z</time>
      </trkpt>
      <trkpt lat="49.01648" lon="1.13597">
        <ele>86</ele>
        <time>2011-09-25T09:43:57Z</time>
      </trkpt>
      <trkpt lat="49.01648" lon="1.13583">
        <ele>84</ele>
        <time>2011-09-25T09:43:59Z</time>
      </trkpt>
      <trkpt lat="49.01648" lon="1.13576">
        <ele>85</ele>
        <time>2011-09-25T09:44:00Z</time>
      </trkpt>
      <trkpt lat="49.01648" lon="1.13568">
        <ele>85</ele>
        <time>2011-09-25T09:44:01Z</time>
      </trkpt>
      <trkpt lat="49.01648" lon="1.13561">
        <ele>85</ele>
        <time>2011-09-25T09:44:02Z</time>
      </trkpt>
      <trkpt lat="49.01648" lon="1.13553">
        <ele>85</ele>
        <time>2011-09-25T09:44:03Z</time>
      </trkpt>
      <trkpt lat="49.01648" lon="1.13544">
        <ele>85</ele>
        <time>2011-09-25T09:44:04Z</time>
      </trkpt>
      <trkpt lat="49.01648" lon="1.13536">
        <ele>85</ele>
        <time>2011-09-25T09:44:05Z</time>
      </trkpt>
      <trkpt lat="49.01647" lon="1.13528">
        <ele>85</ele>
        <time>2011-09-25T09:44:06Z</time>
      </trkpt>
      <trkpt lat="49.01647" lon="1.13519">
        <ele>84</ele>
        <time>2011-09-25T09:44:07Z</time>
      </trkpt>
      <trkpt lat="49.01647" lon="1.1351">
        <ele>84</ele>
        <time>2011-09-25T09:44:08Z</time>
      </trkpt>
      <trkpt lat="49.01647" lon="1.13502">
        <ele>84</ele>
        <time>2011-09-25T09:44:09Z</time>
      </trkpt>
      <trkpt lat="49.01648" lon="1.13493">
        <ele>82</ele>
        <time>2011-09-25T09:44:10Z</time>
      </trkpt>
      <trkpt lat="49.01648" lon="1.13484">
        <ele>83</ele>
        <time>2011-09-25T09:44:11Z</time>
      </trkpt>
      <trkpt lat="49.0165" lon="1.13476">
        <ele>83</ele>
        <time>2011-09-25T09:44:12Z</time>
      </trkpt>
      <trkpt lat="49.0165" lon="1.13467">
        <ele>83</ele>
        <time>2011-09-25T09:44:13Z</time>
      </trkpt>
      <trkpt lat="49.01651" lon="1.13458">
        <ele>83</ele>
        <time>2011-09-25T09:44:14Z</time>
      </trkpt>
      <trkpt lat="49.01652" lon="1.13449">
        <ele>83</ele>
        <time>2011-09-25T09:44:15Z</time>
      </trkpt>
      <trkpt lat="49.01653" lon="1.1344">
        <ele>82</ele>
        <time>2011-09-25T09:44:16Z</time>
      </trkpt>
      <trkpt lat="49.01654" lon="1.1343">
        <ele>81</ele>
        <time>2011-09-25T09:44:17Z</time>
      </trkpt>
      <trkpt lat="49.01656" lon="1.13421">
        <ele>80</ele>
        <time>2011-09-25T09:44:18Z</time>
      </trkpt>
      <trkpt lat="49.01657" lon="1.13412">
        <ele>79</ele>
        <time>2011-09-25T09:44:19Z</time>
      </trkpt>
      <trkpt lat="49.01659" lon="1.13402">
        <ele>80</ele>
        <time>2011-09-25T09:44:20Z</time>
      </trkpt>
      <trkpt lat="49.0166" lon="1.13393">
        <ele>81</ele>
        <time>2011-09-25T09:44:21Z</time>
      </trkpt>
      <trkpt lat="49.01662" lon="1.13384">
        <ele>81</ele>
        <time>2011-09-25T09:44:22Z</time>
      </trkpt>
      <trkpt lat="49.01664" lon="1.13374">
        <ele>81</ele>
        <time>2011-09-25T09:44:23Z</time>
      </trkpt>
      <trkpt lat="49.01666" lon="1.13365">
        <ele>81</ele>
        <time>2011-09-25T09:44:24Z</time>
      </trkpt>
      <trkpt lat="49.01668" lon="1.13355">
        <ele>75</ele>
        <time>2011-09-25T09:44:25Z</time>
      </trkpt>
      <trkpt lat="49.0167" lon="1.13346">
        <ele>76</ele>
        <time>2011-09-25T09:44:26Z</time>
      </trkpt>
      <trkpt lat="49.01673" lon="1.13337">
        <ele>77</ele>
        <time>2011-09-25T09:44:27Z</time>
      </trkpt>
      <trkpt lat="49.01675" lon="1.13328">
        <ele>76</ele>
        <time>2011-09-25T09:44:28Z</time>
      </trkpt>
      <trkpt lat="49.01677" lon="1.1332">
        <ele>76</ele>
        <time>2011-09-25T09:44:29Z</time>
      </trkpt>
      <trkpt lat="49.01679" lon="1.1331">
        <ele>75</ele>
        <time>2011-09-25T09:44:30Z</time>
      </trkpt>
      <trkpt lat="49.01681" lon="1.13301">
        <ele>75</ele>
        <time>2011-09-25T09:44:31Z</time>
      </trkpt>
      <trkpt lat="49.01683" lon="1.13292">
        <ele>75</ele>
        <time>2011-09-25T09:44:32Z</time>
      </trkpt>
      <trkpt lat="49.01686" lon="1.13283">
        <ele>75</ele>
        <time>2011-09-25T09:44:33Z</time>
      </trkpt>
      <trkpt lat="49.01689" lon="1.13274">
        <ele>75</ele>
        <time>2011-09-25T09:44:34Z</time>
      </trkpt>
      <trkpt lat="49.01692" lon="1.13265">
        <ele>75</ele>
        <time>2011-09-25T09:44:35Z</time>
      </trkpt>
      <trkpt lat="49.01695" lon="1.13257">
        <ele>74</ele>
        <time>2011-09-25T09:44:36Z</time>
      </trkpt>
      <trkpt lat="49.01697" lon="1.13248">
        <ele>74</ele>
        <time>2011-09-25T09:44:37Z</time>
      </trkpt>
      <trkpt lat="49.017" lon="1.1324">
        <ele>74</ele>
        <time>2011-09-25T09:44:38Z</time>
      </trkpt>
      <trkpt lat="49.01703" lon="1.13231">
        <ele>73</ele>
        <time>2011-09-25T09:44:39Z</time>
      </trkpt>
      <trkpt lat="49.01706" lon="1.13223">
        <ele>73</ele>
        <time>2011-09-25T09:44:40Z</time>
      </trkpt>
      <trkpt lat="49.01709" lon="1.13214">
        <ele>73</ele>
        <time>2011-09-25T09:44:41Z</time>
      </trkpt>
      <trkpt lat="49.01712" lon="1.13206">
        <ele>73</ele>
        <time>2011-09-25T09:44:42Z</time>
      </trkpt>
      <trkpt lat="49.01716" lon="1.13198">
        <ele>73</ele>
        <time>2011-09-25T09:44:43Z</time>
      </trkpt>
      <trkpt lat="49.01719" lon="1.13189">
        <ele>73</ele>
        <time>2011-09-25T09:44:44Z</time>
      </trkpt>
      <trkpt lat="49.01723" lon="1.13181">
        <ele>73</ele>
        <time>2011-09-25T09:44:45Z</time>
      </trkpt>
      <trkpt lat="49.01727" lon="1.13174">
        <ele>72</ele>
        <time>2011-09-25T09:44:46Z</time>
      </trkpt>
      <trkpt lat="49.0173" lon="1.13165">
        <ele>71</ele>
        <time>2011-09-25T09:44:47Z</time>
      </trkpt>
      <trkpt lat="49.01734" lon="1.13157">
        <ele>71</ele>
        <time>2011-09-25T09:44:48Z</time>
      </trkpt>
      <trkpt lat="49.01738" lon="1.13149">
        <ele>71</ele>
        <time>2011-09-25T09:44:49Z</time>
      </trkpt>
      <trkpt lat="49.01742" lon="1.13141">
        <ele>71</ele>
        <time>2011-09-25T09:44:50Z</time>
      </trkpt>
      <trkpt lat="49.01746" lon="1.13133">
        <ele>71</ele>
        <time>2011-09-25T09:44:51Z</time>
      </trkpt>
      <trkpt lat="49.0175" lon="1.13126">
        <ele>71</ele>
        <time>2011-09-25T09:44:52Z</time>
      </trkpt>
      <trkpt lat="49.01754" lon="1.13118">
        <ele>70</ele>
        <time>2011-09-25T09:44:53Z</time>
      </trkpt>
      <trkpt lat="49.01758" lon="1.13111">
        <ele>70</ele>
        <time>2011-09-25T09:44:54Z</time>
      </trkpt>
      <trkpt lat="49.01762" lon="1.13103">
        <ele>70</ele>
        <time>2011-09-25T09:44:55Z</time>
      </trkpt>
      <trkpt lat="49.01766" lon="1.13095">
        <ele>70</ele>
        <time>2011-09-25T09:44:56Z</time>
      </trkpt>
      <trkpt lat="49.01771" lon="1.13088">
        <ele>70</ele>
        <time>2011-09-25T09:44:57Z</time>
      </trkpt>
      <trkpt lat="49.01776" lon="1.13081">
        <ele>70</ele>
        <time>2011-09-25T09:44:58Z</time>
      </trkpt>
      <trkpt lat="49.0178" lon="1.13074">
        <ele>70</ele>
        <time>2011-09-25T09:44:59Z</time>
      </trkpt>
      <trkpt lat="49.01785" lon="1.13067">
        <ele>70</ele>
        <time>2011-09-25T09:45:00Z</time>
      </trkpt>
      <trkpt lat="49.0179" lon="1.1306">
        <ele>70</ele>
        <time>2011-09-25T09:45:01Z</time>
      </trkpt>
      <trkpt lat="49.01795" lon="1.13053">
        <ele>70</ele>
        <time>2011-09-25T09:45:02Z</time>
      </trkpt>
      <trkpt lat="49.018" lon="1.13046">
        <ele>70</ele>
        <time>2011-09-25T09:45:03Z</time>
      </trkpt>
      <trkpt lat="49.01806" lon="1.1304">
        <ele>70</ele>
        <time>2011-09-25T09:45:04Z</time>
      </trkpt>
      <trkpt lat="49.01811" lon="1.13033">
        <ele>71</ele>
        <time>2011-09-25T09:45:05Z</time>
      </trkpt>
      <trkpt lat="49.01816" lon="1.13026">
        <ele>71</ele>
        <time>2011-09-25T09:45:06Z</time>
      </trkpt>
      <trkpt lat="49.01822" lon="1.1302">
        <ele>71</ele>
        <time>2011-09-25T09:45:07Z</time>
      </trkpt>
      <trkpt lat="49.01827" lon="1.13014">
        <ele>71</ele>
        <time>2011-09-25T09:45:08Z</time>
      </trkpt>
      <trkpt lat="49.01833" lon="1.13008">
        <ele>71</ele>
        <time>2011-09-25T09:45:09Z</time>
      </trkpt>
      <trkpt lat="49.01839" lon="1.13001">
        <ele>72</ele>
        <time>2011-09-25T09:45:10Z</time>
      </trkpt>
      <trkpt lat="49.01845" lon="1.12995">
        <ele>72</ele>
        <time>2011-09-25T09:45:11Z</time>
      </trkpt>
      <trkpt lat="49.01851" lon="1.12989">
        <ele>71</ele>
        <time>2011-09-25T09:45:12Z</time>
      </trkpt>
      <trkpt lat="49.01857" lon="1.12983">
        <ele>71</ele>
        <time>2011-09-25T09:45:13Z</time>
      </trkpt>
      <trkpt lat="49.01863" lon="1.12978">
        <ele>71</ele>
        <time>2011-09-25T09:45:14Z</time>
      </trkpt>
      <trkpt lat="49.0187" lon="1.12972">
        <ele>71</ele>
        <time>2011-09-25T09:45:15Z</time>
      </trkpt>
      <trkpt lat="49.01876" lon="1.12967">
        <ele>71</ele>
        <time>2011-09-25T09:45:16Z</time>
      </trkpt>
      <trkpt lat="49.01882" lon="1.12961">
        <ele>71</ele>
        <time>2011-09-25T09:45:17Z</time>
      </trkpt>
      <trkpt lat="49.01888" lon="1.12956">
        <ele>71</ele>
        <time>2011-09-25T09:45:18Z</time>
      </trkpt>
      <trkpt lat="49.01894" lon="1.12951">
        <ele>71</ele>
        <time>2011-09-25T09:45:19Z</time>
      </trkpt>
      <trkpt lat="49.019" lon="1.12946">
        <ele>72</ele>
        <time>2011-09-25T09:45:20Z</time>
      </trkpt>
      <trkpt lat="49.01907" lon="1.12941">
        <ele>72</ele>
        <time>2011-09-25T09:45:21Z</time>
      </trkpt>
      <trkpt lat="49.01913" lon="1.12936">
        <ele>72</ele>
        <time>2011-09-25T09:45:22Z</time>
      </trkpt>
      <trkpt lat="49.01919" lon="1.12931">
        <ele>72</ele>
        <time>2011-09-25T09:45:23Z</time>
      </trkpt>
      <trkpt lat="49.01925" lon="1.12925">
        <ele>72</ele>
        <time>2011-09-25T09:45:24Z</time>
      </trkpt>
      <trkpt lat="49.01932" lon="1.1292">
        <ele>72</ele>
        <time>2011-09-25T09:45:25Z</time>
      </trkpt>
      <trkpt lat="49.01938" lon="1.12915">
        <ele>72</ele>
        <time>2011-09-25T09:45:26Z</time>
      </trkpt>
      <trkpt lat="49.01944" lon="1.1291">
        <ele>72</ele>
        <time>2011-09-25T09:45:27Z</time>
      </trkpt>
      <trkpt lat="49.01951" lon="1.12905">
        <ele>72</ele>
        <time>2011-09-25T09:45:28Z</time>
      </trkpt>
      <trkpt lat="49.01957" lon="1.12901">
        <ele>72</ele>
        <time>2011-09-25T09:45:29Z</time>
      </trkpt>
      <trkpt lat="49.01964" lon="1.12895">
        <ele>72</ele>
        <time>2011-09-25T09:45:30Z</time>
      </trkpt>
      <trkpt lat="49.0197" lon="1.12889">
        <ele>72</ele>
        <time>2011-09-25T09:45:31Z</time>
      </trkpt>
      <trkpt lat="49.01976" lon="1.12884">
        <ele>72</ele>
        <time>2011-09-25T09:45:32Z</time>
      </trkpt>
      <trkpt lat="49.01983" lon="1.12879">
        <ele>72</ele>
        <time>2011-09-25T09:45:33Z</time>
      </trkpt>
      <trkpt lat="49.0199" lon="1.12874">
        <ele>72</ele>
        <time>2011-09-25T09:45:34Z</time>
      </trkpt>
      <trkpt lat="49.01996" lon="1.12868">
        <ele>72</ele>
        <time>2011-09-25T09:45:35Z</time>
      </trkpt>
      <trkpt lat="49.02002" lon="1.12863">
        <ele>71</ele>
        <time>2011-09-25T09:45:36Z</time>
      </trkpt>
      <trkpt lat="49.02009" lon="1.12857">
        <ele>71</ele>
        <time>2011-09-25T09:45:37Z</time>
      </trkpt>
      <trkpt lat="49.02015" lon="1.12852">
        <ele>71</ele>
        <time>2011-09-25T09:45:38Z</time>
      </trkpt>
      <trkpt lat="49.02022" lon="1.12846">
        <ele>71</ele>
        <time>2011-09-25T09:45:39Z</time>
      </trkpt>
      <trkpt lat="49.02029" lon="1.12839">
        <ele>71</ele>
        <time>2011-09-25T09:45:40Z</time>
      </trkpt>
      <trkpt lat="49.02035" lon="1.12833">
        <ele>71</ele>
        <time>2011-09-25T09:45:41Z</time>
      </trkpt>
      <trkpt lat="49.02042" lon="1.12827">
        <ele>71</ele>
        <time>2011-09-25T09:45:42Z</time>
      </trkpt>
      <trkpt lat="49.02048" lon="1.12821">
        <ele>71</ele>
        <time>2011-09-25T09:45:43Z</time>
      </trkpt>
      <trkpt lat="49.02055" lon="1.12814">
        <ele>71</ele>
        <time>2011-09-25T09:45:44Z</time>
      </trkpt>
      <trkpt lat="49.02061" lon="1.12807">
        <ele>71</ele>
        <time>2011-09-25T09:45:45Z</time>
      </trkpt>
      <trkpt lat="49.02068" lon="1.128">
        <ele>71</ele>
        <time>2011-09-25T09:45:46Z</time>
      </trkpt>
      <trkpt lat="49.02073" lon="1.12793">
        <ele>71</ele>
        <time>2011-09-25T09:45:47Z</time>
      </trkpt>
      <trkpt lat="49.02079" lon="1.12785">
        <ele>71</ele>
        <time>2011-09-25T09:45:48Z</time>
      </trkpt>
      <trkpt lat="49.02086" lon="1.12777">
        <ele>70</ele>
        <time>2011-09-25T09:45:49Z</time>
      </trkpt>
      <trkpt lat="49.02092" lon="1.1277">
        <ele>71</ele>
        <time>2011-09-25T09:45:50Z</time>
      </trkpt>
      <trkpt lat="49.02098" lon="1.12762">
        <ele>71</ele>
        <time>2011-09-25T09:45:51Z</time>
      </trkpt>
      <trkpt lat="49.02104" lon="1.12754">
        <ele>71</ele>
        <time>2011-09-25T09:45:52Z</time>
      </trkpt>
      <trkpt lat="49.0211" lon="1.12746">
        <ele>71</ele>
        <time>2011-09-25T09:45:53Z</time>
      </trkpt>
      <trkpt lat="49.02116" lon="1.12738">
        <ele>70</ele>
        <time>2011-09-25T09:45:54Z</time>
      </trkpt>
      <trkpt lat="49.02123" lon="1.1273">
        <ele>70</ele>
        <time>2011-09-25T09:45:55Z</time>
      </trkpt>
      <trkpt lat="49.02129" lon="1.12722">
        <ele>70</ele>
        <time>2011-09-25T09:45:56Z</time>
      </trkpt>
      <trkpt lat="49.02135" lon="1.12714">
        <ele>70</ele>
        <time>2011-09-25T09:45:57Z</time>
      </trkpt>
      <trkpt lat="49.0214" lon="1.12706">
        <ele>70</ele>
        <time>2011-09-25T09:45:58Z</time>
      </trkpt>
      <trkpt lat="49.02146" lon="1.12697">
        <ele>70</ele>
        <time>2011-09-25T09:45:59Z</time>
      </trkpt>
      <trkpt lat="49.02152" lon="1.12689">
        <ele>70</ele>
        <time>2011-09-25T09:46:00Z</time>
      </trkpt>
      <trkpt lat="49.02157" lon="1.1268">
        <ele>71</ele>
        <time>2011-09-25T09:46:01Z</time>
      </trkpt>
      <trkpt lat="49.02162" lon="1.12672">
        <ele>71</ele>
        <time>2011-09-25T09:46:02Z</time>
      </trkpt>
      <trkpt lat="49.02167" lon="1.12664">
        <ele>71</ele>
        <time>2011-09-25T09:46:03Z</time>
      </trkpt>
      <trkpt lat="49.02173" lon="1.12656">
        <ele>70</ele>
        <time>2011-09-25T09:46:04Z</time>
      </trkpt>
      <trkpt lat="49.02178" lon="1.12648">
        <ele>69</ele>
        <time>2011-09-25T09:46:05Z</time>
      </trkpt>
      <trkpt lat="49.02183" lon="1.1264">
        <ele>69</ele>
        <time>2011-09-25T09:46:06Z</time>
      </trkpt>
      <trkpt lat="49.02188" lon="1.12632">
        <ele>69</ele>
        <time>2011-09-25T09:46:07Z</time>
      </trkpt>
      <trkpt lat="49.02194" lon="1.12624">
        <ele>69</ele>
        <time>2011-09-25T09:46:08Z</time>
      </trkpt>
      <trkpt lat="49.02199" lon="1.12616">
        <ele>69</ele>
        <time>2011-09-25T09:46:09Z</time>
      </trkpt>
      <trkpt lat="49.02204" lon="1.12607">
        <ele>69</ele>
        <time>2011-09-25T09:46:10Z</time>
      </trkpt>
      <trkpt lat="49.02209" lon="1.12599">
        <ele>69</ele>
        <time>2011-09-25T09:46:11Z</time>
      </trkpt>
      <trkpt lat="49.02214" lon="1.12591">
        <ele>69</ele>
        <time>2011-09-25T09:46:12Z</time>
      </trkpt>
      <trkpt lat="49.02219" lon="1.12583">
        <ele>69</ele>
        <time>2011-09-25T09:46:13Z</time>
      </trkpt>
      <trkpt lat="49.02224" lon="1.12575">
        <ele>69</ele>
        <time>2011-09-25T09:46:14Z</time>
      </trkpt>
      <trkpt lat="49.02229" lon="1.12567">
        <ele>69</ele>
        <time>2011-09-25T09:46:15Z</time>
      </trkpt>
      <trkpt lat="49.02234" lon="1.12558">
        <ele>69</ele>
        <time>2011-09-25T09:46:16Z</time>
      </trkpt>
      <trkpt lat="49.02239" lon="1.12551">
        <ele>69</ele>
        <time>2011-09-25T09:46:17Z</time>
      </trkpt>
      <trkpt lat="49.02244" lon="1.12543">
        <ele>69</ele>
        <time>2011-09-25T09:46:18Z</time>
      </trkpt>
      <trkpt lat="49.02249" lon="1.12535">
        <ele>69</ele>
        <time>2011-09-25T09:46:19Z</time>
      </trkpt>
      <trkpt lat="49.02254" lon="1.12528">
        <ele>69</ele>
        <time>2011-09-25T09:46:20Z</time>
      </trkpt>
      <trkpt lat="49.02259" lon="1.1252">
        <ele>69</ele>
        <time>2011-09-25T09:46:21Z</time>
      </trkpt>
      <trkpt lat="49.02263" lon="1.12513">
        <ele>69</ele>
        <time>2011-09-25T09:46:22Z</time>
      </trkpt>
      <trkpt lat="49.02268" lon="1.12506">
        <ele>69</ele>
        <time>2011-09-25T09:46:23Z</time>
      </trkpt>
      <trkpt lat="49.02273" lon="1.12498">
        <ele>69</ele>
        <time>2011-09-25T09:46:24Z</time>
      </trkpt>
      <trkpt lat="49.02278" lon="1.12491">
        <ele>69</ele>
        <time>2011-09-25T09:46:25Z</time>
      </trkpt>
      <trkpt lat="49.02282" lon="1.12484">
        <ele>69</ele>
        <time>2011-09-25T09:46:26Z</time>
      </trkpt>
      <trkpt lat="49.02287" lon="1.12477">
        <ele>69</ele>
        <time>2011-09-25T09:46:27Z</time>
      </trkpt>
      <trkpt lat="49.02292" lon="1.1247">
        <ele>69</ele>
        <time>2011-09-25T09:46:28Z</time>
      </trkpt>
      <trkpt lat="49.02297" lon="1.12464">
        <ele>69</ele>
        <time>2011-09-25T09:46:29Z</time>
      </trkpt>
      <trkpt lat="49.02302" lon="1.12457">
        <ele>69</ele>
        <time>2011-09-25T09:46:30Z</time>
      </trkpt>
      <trkpt lat="49.02307" lon="1.12451">
        <ele>69</ele>
        <time>2011-09-25T09:46:31Z</time>
      </trkpt>
      <trkpt lat="49.02312" lon="1.12445">
        <ele>70</ele>
        <time>2011-09-25T09:46:32Z</time>
      </trkpt>
      <trkpt lat="49.02316" lon="1.12439">
        <ele>70</ele>
        <time>2011-09-25T09:46:33Z</time>
      </trkpt>
      <trkpt lat="49.02321" lon="1.12433">
        <ele>70</ele>
        <time>2011-09-25T09:46:34Z</time>
      </trkpt>
      <trkpt lat="49.02325" lon="1.12428">
        <ele>70</ele>
        <time>2011-09-25T09:46:35Z</time>
      </trkpt>
      <trkpt lat="49.0233" lon="1.12422">
        <ele>71</ele>
        <time>2011-09-25T09:46:36Z</time>
      </trkpt>
      <trkpt lat="49.02335" lon="1.12417">
        <ele>71</ele>
        <time>2011-09-25T09:46:37Z</time>
      </trkpt>
      <trkpt lat="49.02341" lon="1.12412">
        <ele>71</ele>
        <time>2011-09-25T09:46:38Z</time>
      </trkpt>
      <trkpt lat="49.02346" lon="1.12407">
        <ele>71</ele>
        <time>2011-09-25T09:46:39Z</time>
      </trkpt>
      <trkpt lat="49.02351" lon="1.12402">
        <ele>71</ele>
        <time>2011-09-25T09:46:40Z</time>
      </trkpt>
      <trkpt lat="49.02357" lon="1.12398">
        <ele>71</ele>
        <time>2011-09-25T09:46:41Z</time>
      </trkpt>
      <trkpt lat="49.02362" lon="1.12393">
        <ele>72</ele>
        <time>2011-09-25T09:46:42Z</time>
      </trkpt>
      <trkpt lat="49.02368" lon="1.12388">
        <ele>72</ele>
        <time>2011-09-25T09:46:43Z</time>
      </trkpt>
      <trkpt lat="49.02374" lon="1.12384">
        <ele>72</ele>
        <time>2011-09-25T09:46:44Z</time>
      </trkpt>
      <trkpt lat="49.02379" lon="1.1238">
        <ele>72</ele>
        <time>2011-09-25T09:46:45Z</time>
      </trkpt>
      <trkpt lat="49.02384" lon="1.12376">
        <ele>72</ele>
        <time>2011-09-25T09:46:46Z</time>
      </trkpt>
      <trkpt lat="49.0239" lon="1.12372">
        <ele>72</ele>
        <time>2011-09-25T09:46:47Z</time>
      </trkpt>
      <trkpt lat="49.02395" lon="1.12369">
        <ele>72</ele>
        <time>2011-09-25T09:46:48Z</time>
      </trkpt>
      <trkpt lat="49.02399" lon="1.12366">
        <ele>72</ele>
        <time>2011-09-25T09:46:49Z</time>
      </trkpt>
      <trkpt lat="49.02404" lon="1.12363">
        <ele>73</ele>
        <time>2011-09-25T09:46:50Z</time>
      </trkpt>
      <trkpt lat="49.02408" lon="1.1236">
        <ele>73</ele>
        <time>2011-09-25T09:46:51Z</time>
      </trkpt>
      <trkpt lat="49.02413" lon="1.12357">
        <ele>73</ele>
        <time>2011-09-25T09:46:52Z</time>
      </trkpt>
      <trkpt lat="49.02417" lon="1.12354">
        <ele>74</ele>
        <time>2011-09-25T09:46:53Z</time>
      </trkpt>
      <trkpt lat="49.02425" lon="1.12349">
        <ele>74</ele>
        <time>2011-09-25T09:46:55Z</time>
      </trkpt>
      <trkpt lat="49.02433" lon="1.12345">
        <ele>74</ele>
        <time>2011-09-25T09:46:57Z</time>
      </trkpt>
      <trkpt lat="49.02441" lon="1.12341">
        <ele>74</ele>
        <time>2011-09-25T09:46:59Z</time>
      </trkpt>
      <trkpt lat="49.02445" lon="1.12338">
        <ele>74</ele>
        <time>2011-09-25T09:47:00Z</time>
      </trkpt>
      <trkpt lat="49.0245" lon="1.12336">
        <ele>74</ele>
        <time>2011-09-25T09:47:01Z</time>
      </trkpt>
      <trkpt lat="49.02455" lon="1.12334">
        <ele>74</ele>
        <time>2011-09-25T09:47:02Z</time>
      </trkpt>
      <trkpt lat="49.0246" lon="1.12331">
        <ele>75</ele>
        <time>2011-09-25T09:47:03Z</time>
      </trkpt>
      <trkpt lat="49.02465" lon="1.12329">
        <ele>75</ele>
        <time>2011-09-25T09:47:04Z</time>
      </trkpt>
      <trkpt lat="49.0247" lon="1.12327">
        <ele>75</ele>
        <time>2011-09-25T09:47:05Z</time>
      </trkpt>
      <trkpt lat="49.02475" lon="1.12325">
        <ele>75</ele>
        <time>2011-09-25T09:47:06Z</time>
      </trkpt>
      <trkpt lat="49.0248" lon="1.12323">
        <ele>75</ele>
        <time>2011-09-25T09:47:07Z</time>
      </trkpt>
      <trkpt lat="49.02485" lon="1.12321">
        <ele>75</ele>
        <time>2011-09-25T09:47:08Z</time>
      </trkpt>
      <trkpt lat="49.02491" lon="1.12319">
        <ele>75</ele>
        <time>2011-09-25T09:47:09Z</time>
      </trkpt>
      <trkpt lat="49.02496" lon="1.12317">
        <ele>75</ele>
        <time>2011-09-25T09:47:10Z</time>
      </trkpt>
      <trkpt lat="49.02502" lon="1.12316">
        <ele>75</ele>
        <time>2011-09-25T09:47:11Z</time>
      </trkpt>
      <trkpt lat="49.02507" lon="1.12314">
        <ele>75</ele>
        <time>2011-09-25T09:47:12Z</time>
      </trkpt>
      <trkpt lat="49.02513" lon="1.12313">
        <ele>75</ele>
        <time>2011-09-25T09:47:13Z</time>
      </trkpt>
      <trkpt lat="49.02518" lon="1.12312">
        <ele>75</ele>
        <time>2011-09-25T09:47:14Z</time>
      </trkpt>
      <trkpt lat="49.02524" lon="1.1231">
        <ele>75</ele>
        <time>2011-09-25T09:47:15Z</time>
      </trkpt>
      <trkpt lat="49.0253" lon="1.1231">
        <ele>75</ele>
        <time>2011-09-25T09:47:16Z</time>
      </trkpt>
      <trkpt lat="49.02535" lon="1.12309">
        <ele>75</ele>
        <time>2011-09-25T09:47:17Z</time>
      </trkpt>
      <trkpt lat="49.02541" lon="1.12308">
        <ele>75</ele>
        <time>2011-09-25T09:47:18Z</time>
      </trkpt>
      <trkpt lat="49.02546" lon="1.12308">
        <ele>75</ele>
        <time>2011-09-25T09:47:19Z</time>
      </trkpt>
      <trkpt lat="49.02552" lon="1.12307">
        <ele>75</ele>
        <time>2011-09-25T09:47:20Z</time>
      </trkpt>
      <trkpt lat="49.02557" lon="1.12307">
        <ele>75</ele>
        <time>2011-09-25T09:47:21Z</time>
      </trkpt>
      <trkpt lat="49.02563" lon="1.12306">
        <ele>75</ele>
        <time>2011-09-25T09:47:22Z</time>
      </trkpt>
      <trkpt lat="49.02568" lon="1.12306">
        <ele>75</ele>
        <time>2011-09-25T09:47:23Z</time>
      </trkpt>
      <trkpt lat="49.02574" lon="1.12306">
        <ele>75</ele>
        <time>2011-09-25T09:47:24Z</time>
      </trkpt>
      <trkpt lat="49.0258" lon="1.12305">
        <ele>75</ele>
        <time>2011-09-25T09:47:25Z</time>
      </trkpt>
      <trkpt lat="49.02586" lon="1.12305">
        <ele>76</ele>
        <time>2011-09-25T09:47:26Z</time>
      </trkpt>
      <trkpt lat="49.02591" lon="1.12305">
        <ele>76</ele>
        <time>2011-09-25T09:47:27Z</time>
      </trkpt>
      <trkpt lat="49.02597" lon="1.12305">
        <ele>76</ele>
        <time>2011-09-25T09:47:28Z</time>
      </trkpt>
      <trkpt lat="49.02602" lon="1.12306">
        <ele>76</ele>
        <time>2011-09-25T09:47:29Z</time>
      </trkpt>
      <trkpt lat="49.02608" lon="1.12307">
        <ele>76</ele>
        <time>2011-09-25T09:47:30Z</time>
      </trkpt>
      <trkpt lat="49.02614" lon="1.12308">
        <ele>76</ele>
        <time>2011-09-25T09:47:31Z</time>
      </trkpt>
      <trkpt lat="49.02619" lon="1.12309">
        <ele>76</ele>
        <time>2011-09-25T09:47:32Z</time>
      </trkpt>
      <trkpt lat="49.02625" lon="1.12311">
        <ele>77</ele>
        <time>2011-09-25T09:47:33Z</time>
      </trkpt>
      <trkpt lat="49.02631" lon="1.12313">
        <ele>77</ele>
        <time>2011-09-25T09:47:34Z</time>
      </trkpt>
      <trkpt lat="49.02638" lon="1.12314">
        <ele>77</ele>
        <time>2011-09-25T09:47:35Z</time>
      </trkpt>
      <trkpt lat="49.02645" lon="1.12316">
        <ele>77</ele>
        <time>2011-09-25T09:47:36Z</time>
      </trkpt>
      <trkpt lat="49.02652" lon="1.12316">
        <ele>77</ele>
        <time>2011-09-25T09:47:37Z</time>
      </trkpt>
      <trkpt lat="49.02659" lon="1.12317">
        <ele>77</ele>
        <time>2011-09-25T09:47:38Z</time>
      </trkpt>
      <trkpt lat="49.02666" lon="1.12318">
        <ele>77</ele>
        <time>2011-09-25T09:47:39Z</time>
      </trkpt>
      <trkpt lat="49.02672" lon="1.1232">
        <ele>79</ele>
        <time>2011-09-25T09:47:40Z</time>
      </trkpt>
      <trkpt lat="49.02679" lon="1.12321">
        <ele>79</ele>
        <time>2011-09-25T09:47:41Z</time>
      </trkpt>
      <trkpt lat="49.02685" lon="1.12322">
        <ele>79</ele>
        <time>2011-09-25T09:47:42Z</time>
      </trkpt>
      <trkpt lat="49.02691" lon="1.12323">
        <ele>79</ele>
        <time>2011-09-25T09:47:43Z</time>
      </trkpt>
      <trkpt lat="49.02698" lon="1.12324">
        <ele>79</ele>
        <time>2011-09-25T09:47:44Z</time>
      </trkpt>
      <trkpt lat="49.02704" lon="1.12324">
        <ele>80</ele>
        <time>2011-09-25T09:47:45Z</time>
      </trkpt>
      <trkpt lat="49.02711" lon="1.12325">
        <ele>80</ele>
        <time>2011-09-25T09:47:46Z</time>
      </trkpt>
      <trkpt lat="49.02717" lon="1.12326">
        <ele>80</ele>
        <time>2011-09-25T09:47:47Z</time>
      </trkpt>
      <trkpt lat="49.02724" lon="1.12328">
        <ele>80</ele>
        <time>2011-09-25T09:47:48Z</time>
      </trkpt>
      <trkpt lat="49.0273" lon="1.12329">
        <ele>80</ele>
        <time>2011-09-25T09:47:49Z</time>
      </trkpt>
      <trkpt lat="49.02737" lon="1.1233">
        <ele>80</ele>
        <time>2011-09-25T09:47:50Z</time>
      </trkpt>
      <trkpt lat="49.02743" lon="1.12331">
        <ele>81</ele>
        <time>2011-09-25T09:47:51Z</time>
      </trkpt>
      <trkpt lat="49.02749" lon="1.12332">
        <ele>81</ele>
        <time>2011-09-25T09:47:52Z</time>
      </trkpt>
      <trkpt lat="49.02756" lon="1.12333">
        <ele>81</ele>
        <time>2011-09-25T09:47:53Z</time>
      </trkpt>
      <trkpt lat="49.02762" lon="1.12334">
        <ele>80</ele>
        <time>2011-09-25T09:47:54Z</time>
      </trkpt>
      <trkpt lat="49.02769" lon="1.12335">
        <ele>80</ele>
        <time>2011-09-25T09:47:55Z</time>
      </trkpt>
      <trkpt lat="49.02775" lon="1.12336">
        <ele>80</ele>
        <time>2011-09-25T09:47:56Z</time>
      </trkpt>
      <trkpt lat="49.02782" lon="1.12337">
        <ele>80</ele>
        <time>2011-09-25T09:47:57Z</time>
      </trkpt>
      <trkpt lat="49.02788" lon="1.12338">
        <ele>80</ele>
        <time>2011-09-25T09:47:58Z</time>
      </trkpt>
      <trkpt lat="49.02795" lon="1.12339">
        <ele>80</ele>
        <time>2011-09-25T09:47:59Z</time>
      </trkpt>
      <trkpt lat="49.02802" lon="1.1234">
        <ele>80</ele>
        <time>2011-09-25T09:48:00Z</time>
      </trkpt>
      <trkpt lat="49.02808" lon="1.1234">
        <ele>81</ele>
        <time>2011-09-25T09:48:01Z</time>
      </trkpt>
      <trkpt lat="49.02815" lon="1.12341">
        <ele>81</ele>
        <time>2011-09-25T09:48:02Z</time>
      </trkpt>
      <trkpt lat="49.02821" lon="1.12342">
        <ele>81</ele>
        <time>2011-09-25T09:48:03Z</time>
      </trkpt>
      <trkpt lat="49.02827" lon="1.12343">
        <ele>82</ele>
        <time>2011-09-25T09:48:04Z</time>
      </trkpt>
      <trkpt lat="49.02834" lon="1.12344">
        <ele>83</ele>
        <time>2011-09-25T09:48:05Z</time>
      </trkpt>
      <trkpt lat="49.0284" lon="1.12346">
        <ele>83</ele>
        <time>2011-09-25T09:48:06Z</time>
      </trkpt>
      <trkpt lat="49.02846" lon="1.12347">
        <ele>83</ele>
        <time>2011-09-25T09:48:07Z</time>
      </trkpt>
      <trkpt lat="49.02853" lon="1.12348">
        <ele>83</ele>
        <time>2011-09-25T09:48:08Z</time>
      </trkpt>
      <trkpt lat="49.02859" lon="1.12349">
        <ele>83</ele>
        <time>2011-09-25T09:48:09Z</time>
      </trkpt>
      <trkpt lat="49.02865" lon="1.12351">
        <ele>83</ele>
        <time>2011-09-25T09:48:10Z</time>
      </trkpt>
      <trkpt lat="49.02871" lon="1.12352">
        <ele>83</ele>
        <time>2011-09-25T09:48:11Z</time>
      </trkpt>
      <trkpt lat="49.02877" lon="1.12354">
        <ele>83</ele>
        <time>2011-09-25T09:48:12Z</time>
      </trkpt>
      <trkpt lat="49.02883" lon="1.12355">
        <ele>83</ele>
        <time>2011-09-25T09:48:13Z</time>
      </trkpt>
      <trkpt lat="49.02889" lon="1.12356">
        <ele>83</ele>
        <time>2011-09-25T09:48:14Z</time>
      </trkpt>
      <trkpt lat="49.02895" lon="1.12357">
        <ele>83</ele>
        <time>2011-09-25T09:48:15Z</time>
      </trkpt>
      <trkpt lat="49.02902" lon="1.12358">
        <ele>83</ele>
        <time>2011-09-25T09:48:16Z</time>
      </trkpt>
      <trkpt lat="49.02908" lon="1.1236">
        <ele>83</ele>
        <time>2011-09-25T09:48:17Z</time>
      </trkpt>
      <trkpt lat="49.02914" lon="1.12361">
        <ele>83</ele>
        <time>2011-09-25T09:48:18Z</time>
      </trkpt>
      <trkpt lat="49.0292" lon="1.12362">
        <ele>85</ele>
        <time>2011-09-25T09:48:19Z</time>
      </trkpt>
      <trkpt lat="49.02925" lon="1.12362">
        <ele>85</ele>
        <time>2011-09-25T09:48:20Z</time>
      </trkpt>
      <trkpt lat="49.02931" lon="1.12364">
        <ele>85</ele>
        <time>2011-09-25T09:48:21Z</time>
      </trkpt>
      <trkpt lat="49.02937" lon="1.12365">
        <ele>85</ele>
        <time>2011-09-25T09:48:22Z</time>
      </trkpt>
      <trkpt lat="49.02943" lon="1.12365">
        <ele>85</ele>
        <time>2011-09-25T09:48:23Z</time>
      </trkpt>
      <trkpt lat="49.02949" lon="1.12366">
        <ele>85</ele>
        <time>2011-09-25T09:48:24Z</time>
      </trkpt>
      <trkpt lat="49.02955" lon="1.12367">
        <ele>86</ele>
        <time>2011-09-25T09:48:25Z</time>
      </trkpt>
      <trkpt lat="49.02961" lon="1.12368">
        <ele>86</ele>
        <time>2011-09-25T09:48:26Z</time>
      </trkpt>
      <trkpt lat="49.02967" lon="1.1237">
        <ele>86</ele>
        <time>2011-09-25T09:48:27Z</time>
      </trkpt>
      <trkpt lat="49.02973" lon="1.12371">
        <ele>86</ele>
        <time>2011-09-25T09:48:28Z</time>
      </trkpt>
      <trkpt lat="49.02979" lon="1.12372">
        <ele>86</ele>
        <time>2011-09-25T09:48:29Z</time>
      </trkpt>
      <trkpt lat="49.02985" lon="1.12373">
        <ele>86</ele>
        <time>2011-09-25T09:48:30Z</time>
      </trkpt>
      <trkpt lat="49.02991" lon="1.12374">
        <ele>86</ele>
        <time>2011-09-25T09:48:31Z</time>
      </trkpt>
      <trkpt lat="49.02997" lon="1.12375">
        <ele>86</ele>
        <time>2011-09-25T09:48:32Z</time>
      </trkpt>
      <trkpt lat="49.03004" lon="1.12376">
        <ele>88</ele>
        <time>2011-09-25T09:48:33Z</time>
      </trkpt>
      <trkpt lat="49.0301" lon="1.12377">
        <ele>88</ele>
        <time>2011-09-25T09:48:34Z</time>
      </trkpt>
      <trkpt lat="49.03016" lon="1.12378">
        <ele>88</ele>
        <time>2011-09-25T09:48:35Z</time>
      </trkpt>
      <trkpt lat="49.03022" lon="1.12379">
        <ele>88</ele>
        <time>2011-09-25T09:48:36Z</time>
      </trkpt>
      <trkpt lat="49.03028" lon="1.1238">
        <ele>88</ele>
        <time>2011-09-25T09:48:37Z</time>
      </trkpt>
      <trkpt lat="49.03034" lon="1.12382">
        <ele>88</ele>
        <time>2011-09-25T09:48:38Z</time>
      </trkpt>
      <trkpt lat="49.0304" lon="1.12382">
        <ele>88</ele>
        <time>2011-09-25T09:48:39Z</time>
      </trkpt>
      <trkpt lat="49.03046" lon="1.12383">
        <ele>88</ele>
        <time>2011-09-25T09:48:40Z</time>
      </trkpt>
      <trkpt lat="49.03052" lon="1.12384">
        <ele>88</ele>
        <time>2011-09-25T09:48:41Z</time>
      </trkpt>
      <trkpt lat="49.03058" lon="1.12384">
        <ele>88</ele>
        <time>2011-09-25T09:48:42Z</time>
      </trkpt>
      <trkpt lat="49.03064" lon="1.12384">
        <ele>88</ele>
        <time>2011-09-25T09:48:43Z</time>
      </trkpt>
      <trkpt lat="49.0307" lon="1.12384">
        <ele>89</ele>
        <time>2011-09-25T09:48:44Z</time>
      </trkpt>
      <trkpt lat="49.03076" lon="1.12384">
        <ele>89</ele>
        <time>2011-09-25T09:48:45Z</time>
      </trkpt>
      <trkpt lat="49.03082" lon="1.12384">
        <ele>89</ele>
        <time>2011-09-25T09:48:46Z</time>
      </trkpt>
      <trkpt lat="49.03089" lon="1.12383">
        <ele>89</ele>
        <time>2011-09-25T09:48:47Z</time>
      </trkpt>
      <trkpt lat="49.03095" lon="1.12383">
        <ele>89</ele>
        <time>2011-09-25T09:48:48Z</time>
      </trkpt>
      <trkpt lat="49.03101" lon="1.12382">
        <ele>89</ele>
        <time>2011-09-25T09:48:49Z</time>
      </trkpt>
      <trkpt lat="49.03108" lon="1.12381">
        <ele>89</ele>
        <time>2011-09-25T09:48:50Z</time>
      </trkpt>
      <trkpt lat="49.03114" lon="1.1238">
        <ele>89</ele>
        <time>2011-09-25T09:48:51Z</time>
      </trkpt>
      <trkpt lat="49.0312" lon="1.1238">
        <ele>89</ele>
        <time>2011-09-25T09:48:52Z</time>
      </trkpt>
      <trkpt lat="49.03127" lon="1.12379">
        <ele>88</ele>
        <time>2011-09-25T09:48:53Z</time>
      </trkpt>
      <trkpt lat="49.03133" lon="1.12378">
        <ele>88</ele>
        <time>2011-09-25T09:48:54Z</time>
      </trkpt>
      <trkpt lat="49.0314" lon="1.12376">
        <ele>88</ele>
        <time>2011-09-25T09:48:55Z</time>
      </trkpt>
      <trkpt lat="49.03146" lon="1.12375">
        <ele>88</ele>
        <time>2011-09-25T09:48:56Z</time>
      </trkpt>
      <trkpt lat="49.03152" lon="1.12374">
        <ele>88</ele>
        <time>2011-09-25T09:48:57Z</time>
      </trkpt>
      <trkpt lat="49.03159" lon="1.12372">
        <ele>88</ele>
        <time>2011-09-25T09:48:58Z</time>
      </trkpt>
      <trkpt lat="49.03165" lon="1.1237">
        <ele>88</ele>
        <time>2011-09-25T09:48:59Z</time>
      </trkpt>
      <trkpt lat="49.03172" lon="1.12368">
        <ele>87</ele>
        <time>2011-09-25T09:49:00Z</time>
      </trkpt>
      <trkpt lat="49.03178" lon="1.12366">
        <ele>87</ele>
        <time>2011-09-25T09:49:01Z</time>
      </trkpt>
      <trkpt lat="49.03185" lon="1.12364">
        <ele>87</ele>
        <time>2011-09-25T09:49:02Z</time>
      </trkpt>
      <trkpt lat="49.03191" lon="1.12361">
        <ele>87</ele>
        <time>2011-09-25T09:49:03Z</time>
      </trkpt>
      <trkpt lat="49.03198" lon="1.12359">
        <ele>87</ele>
        <time>2011-09-25T09:49:04Z</time>
      </trkpt>
      <trkpt lat="49.03204" lon="1.12356">
        <ele>87</ele>
        <time>2011-09-25T09:49:05Z</time>
      </trkpt>
      <trkpt lat="49.0321" lon="1.12354">
        <ele>87</ele>
        <time>2011-09-25T09:49:06Z</time>
      </trkpt>
      <trkpt lat="49.03216" lon="1.12351">
        <ele>87</ele>
        <time>2011-09-25T09:49:07Z</time>
      </trkpt>
      <trkpt lat="49.03222" lon="1.12348">
        <ele>87</ele>
        <time>2011-09-25T09:49:08Z</time>
      </trkpt>
      <trkpt lat="49.03228" lon="1.12345">
        <ele>87</ele>
        <time>2011-09-25T09:49:09Z</time>
      </trkpt>
      <trkpt lat="49.03234" lon="1.12341">
        <ele>87</ele>
        <time>2011-09-25T09:49:10Z</time>
      </trkpt>
      <trkpt lat="49.0324" lon="1.12337">
        <ele>87</ele>
        <time>2011-09-25T09:49:11Z</time>
      </trkpt>
      <trkpt lat="49.03245" lon="1.12334">
        <ele>87</ele>
        <time>2011-09-25T09:49:12Z</time>
      </trkpt>
      <trkpt lat="49.03251" lon="1.1233">
        <ele>87</ele>
        <time>2011-09-25T09:49:13Z</time>
      </trkpt>
      <trkpt lat="49.03257" lon="1.12326">
        <ele>88</ele>
        <time>2011-09-25T09:49:14Z</time>
      </trkpt>
      <trkpt lat="49.03262" lon="1.12322">
        <ele>88</ele>
        <time>2011-09-25T09:49:15Z</time>
      </trkpt>
      <trkpt lat="49.03268" lon="1.12318">
        <ele>88</ele>
        <time>2011-09-25T09:49:16Z</time>
      </trkpt>
      <trkpt lat="49.03274" lon="1.12314">
        <ele>88</ele>
        <time>2011-09-25T09:49:17Z</time>
      </trkpt>
      <trkpt lat="49.03279" lon="1.12309">
        <ele>88</ele>
        <time>2011-09-25T09:49:18Z</time>
      </trkpt>
      <trkpt lat="49.03285" lon="1.12305">
        <ele>88</ele>
        <time>2011-09-25T09:49:19Z</time>
      </trkpt>
      <trkpt lat="49.03291" lon="1.123">
        <ele>89</ele>
        <time>2011-09-25T09:49:20Z</time>
      </trkpt>
      <trkpt lat="49.03297" lon="1.12296">
        <ele>89</ele>
        <time>2011-09-25T09:49:21Z</time>
      </trkpt>
      <trkpt lat="49.03302" lon="1.12292">
        <ele>89</ele>
        <time>2011-09-25T09:49:22Z</time>
      </trkpt>
      <trkpt lat="49.03307" lon="1.12287">
        <ele>89</ele>
        <time>2011-09-25T09:49:23Z</time>
      </trkpt>
      <trkpt lat="49.03313" lon="1.12283">
        <ele>89</ele>
        <time>2011-09-25T09:49:24Z</time>
      </trkpt>
      <trkpt lat="49.03318" lon="1.12277">
        <ele>89</ele>
        <time>2011-09-25T09:49:25Z</time>
      </trkpt>
      <trkpt lat="49.03323" lon="1.12272">
        <ele>89</ele>
        <time>2011-09-25T09:49:26Z</time>
      </trkpt>
      <trkpt lat="49.03328" lon="1.12266">
        <ele>88</ele>
        <time>2011-09-25T09:49:27Z</time>
      </trkpt>
      <trkpt lat="49.03334" lon="1.1226">
        <ele>89</ele>
        <time>2011-09-25T09:49:28Z</time>
      </trkpt>
      <trkpt lat="49.03339" lon="1.12254">
        <ele>89</ele>
        <time>2011-09-25T09:49:29Z</time>
      </trkpt>
      <trkpt lat="49.03344" lon="1.12248">
        <ele>88</ele>
        <time>2011-09-25T09:49:30Z</time>
      </trkpt>
      <trkpt lat="49.03349" lon="1.12242">
        <ele>88</ele>
        <time>2011-09-25T09:49:31Z</time>
      </trkpt>
      <trkpt lat="49.03354" lon="1.12236">
        <ele>87</ele>
        <time>2011-09-25T09:49:32Z</time>
      </trkpt>
      <trkpt lat="49.0336" lon="1.12229">
        <ele>87</ele>
        <time>2011-09-25T09:49:33Z</time>
      </trkpt>
      <trkpt lat="49.03364" lon="1.12223">
        <ele>87</ele>
        <time>2011-09-25T09:49:34Z</time>
      </trkpt>
      <trkpt lat="49.03369" lon="1.12216">
        <ele>87</ele>
        <time>2011-09-25T09:49:35Z</time>
      </trkpt>
      <trkpt lat="49.03374" lon="1.1221">
        <ele>87</ele>
        <time>2011-09-25T09:49:36Z</time>
      </trkpt>
      <trkpt lat="49.03379" lon="1.12203">
        <ele>87</ele>
        <time>2011-09-25T09:49:37Z</time>
      </trkpt>
      <trkpt lat="49.03384" lon="1.12196">
        <ele>87</ele>
        <time>2011-09-25T09:49:38Z</time>
      </trkpt>
      <trkpt lat="49.03389" lon="1.12189">
        <ele>87</ele>
        <time>2011-09-25T09:49:39Z</time>
      </trkpt>
      <trkpt lat="49.03394" lon="1.12182">
        <ele>87</ele>
        <time>2011-09-25T09:49:40Z</time>
      </trkpt>
      <trkpt lat="49.03398" lon="1.12175">
        <ele>87</ele>
        <time>2011-09-25T09:49:41Z</time>
      </trkpt>
      <trkpt lat="49.03403" lon="1.12168">
        <ele>86</ele>
        <time>2011-09-25T09:49:42Z</time>
      </trkpt>
      <trkpt lat="49.03407" lon="1.12161">
        <ele>87</ele>
        <time>2011-09-25T09:49:43Z</time>
      </trkpt>
      <trkpt lat="49.03411" lon="1.12154">
        <ele>87</ele>
        <time>2011-09-25T09:49:44Z</time>
      </trkpt>
      <trkpt lat="49.03415" lon="1.12147">
        <ele>87</ele>
        <time>2011-09-25T09:49:45Z</time>
      </trkpt>
      <trkpt lat="49.03418" lon="1.12141">
        <ele>88</ele>
        <time>2011-09-25T09:49:46Z</time>
      </trkpt>
      <trkpt lat="49.03422" lon="1.12134">
        <ele>88</ele>
        <time>2011-09-25T09:49:47Z</time>
      </trkpt>
      <trkpt lat="49.03425" lon="1.12128">
        <ele>89</ele>
        <time>2011-09-25T09:49:48Z</time>
      </trkpt>
      <trkpt lat="49.03428" lon="1.12122">
        <ele>89</ele>
        <time>2011-09-25T09:49:49Z</time>
      </trkpt>
      <trkpt lat="49.03433" lon="1.12112">
        <ele>89</ele>
        <time>2011-09-25T09:49:51Z</time>
      </trkpt>
      <trkpt lat="49.03437" lon="1.12101">
        <ele>89</ele>
        <time>2011-09-25T09:49:53Z</time>
      </trkpt>
      <trkpt lat="49.03442" lon="1.1209">
        <ele>89</ele>
        <time>2011-09-25T09:49:55Z</time>
      </trkpt>
      <trkpt lat="49.03445" lon="1.12084">
        <ele>90</ele>
        <time>2011-09-25T09:49:56Z</time>
      </trkpt>
      <trkpt lat="49.03452" lon="1.12075">
        <ele>92</ele>
        <time>2011-09-25T09:49:58Z</time>
      </trkpt>
      <trkpt lat="49.03457" lon="1.12066">
        <ele>92</ele>
        <time>2011-09-25T09:50:00Z</time>
      </trkpt>
      <trkpt lat="49.0346" lon="1.1206">
        <ele>93</ele>
        <time>2011-09-25T09:50:02Z</time>
      </trkpt>
      <trkpt lat="49.03465" lon="1.12056">
        <ele>93</ele>
        <time>2011-09-25T09:50:07Z</time>
      </trkpt>
      <trkpt lat="49.03464" lon="1.12067">
        <ele>93</ele>
        <time>2011-09-25T09:50:10Z</time>
      </trkpt>
      <trkpt lat="49.03459" lon="1.12078">
        <ele>92</ele>
        <time>2011-09-25T09:50:12Z</time>
      </trkpt>
      <trkpt lat="49.03456" lon="1.12085">
        <ele>90</ele>
        <time>2011-09-25T09:50:13Z</time>
      </trkpt>
      <trkpt lat="49.03453" lon="1.12094">
        <ele>90</ele>
        <time>2011-09-25T09:50:14Z</time>
      </trkpt>
      <trkpt lat="49.0345" lon="1.12103">
        <ele>90</ele>
        <time>2011-09-25T09:50:15Z</time>
      </trkpt>
      <trkpt lat="49.03446" lon="1.12114">
        <ele>89</ele>
        <time>2011-09-25T09:50:16Z</time>
      </trkpt>
      <trkpt lat="49.03442" lon="1.12125">
        <ele>89</ele>
        <time>2011-09-25T09:50:17Z</time>
      </trkpt>
      <trkpt lat="49.03438" lon="1.12136">
        <ele>89</ele>
        <time>2011-09-25T09:50:18Z</time>
      </trkpt>
      <trkpt lat="49.03433" lon="1.12148">
        <ele>88</ele>
        <time>2011-09-25T09:50:19Z</time>
      </trkpt>
      <trkpt lat="49.03428" lon="1.12159">
        <ele>87</ele>
        <time>2011-09-25T09:50:20Z</time>
      </trkpt>
      <trkpt lat="49.03423" lon="1.1217">
        <ele>86</ele>
        <time>2011-09-25T09:50:21Z</time>
      </trkpt>
      <trkpt lat="49.03419" lon="1.12179">
        <ele>86</ele>
        <time>2011-09-25T09:50:22Z</time>
      </trkpt>
      <trkpt lat="49.03414" lon="1.12187">
        <ele>87</ele>
        <time>2011-09-25T09:50:23Z</time>
      </trkpt>
      <trkpt lat="49.03411" lon="1.12192">
        <ele>87</ele>
        <time>2011-09-25T09:50:24Z</time>
      </trkpt>
      <trkpt lat="49.03408" lon="1.12198">
        <ele>87</ele>
        <time>2011-09-25T09:50:25Z</time>
      </trkpt>
      <trkpt lat="49.03401" lon="1.12206">
        <ele>87</ele>
        <time>2011-09-25T09:50:27Z</time>
      </trkpt>
      <trkpt lat="49.03395" lon="1.12215">
        <ele>87</ele>
        <time>2011-09-25T09:50:29Z</time>
      </trkpt>
      <trkpt lat="49.0339" lon="1.12223">
        <ele>87</ele>
        <time>2011-09-25T09:50:31Z</time>
      </trkpt>
      <trkpt lat="49.03387" lon="1.12232">
        <ele>87</ele>
        <time>2011-09-25T09:50:33Z</time>
      </trkpt>
      <trkpt lat="49.03383" lon="1.12244">
        <ele>87</ele>
        <time>2011-09-25T09:50:52Z</time>
      </trkpt>
      <trkpt lat="49.0338" lon="1.12249">
        <ele>87</ele>
        <time>2011-09-25T09:50:54Z</time>
      </trkpt>
      <trkpt lat="49.03376" lon="1.12254">
        <ele>90</ele>
        <time>2011-09-25T09:50:58Z</time>
      </trkpt>
      <trkpt lat="49.03372" lon="1.12262">
        <ele>91</ele>
        <time>2011-09-25T09:51:01Z</time>
      </trkpt>
      <trkpt lat="49.03369" lon="1.12268">
        <ele>91</ele>
        <time>2011-09-25T09:51:03Z</time>
      </trkpt>
      <trkpt lat="49.03367" lon="1.12276">
        <ele>91</ele>
        <time>2011-09-25T09:51:05Z</time>
      </trkpt>
      <trkpt lat="49.03366" lon="1.12283">
        <ele>91</ele>
        <time>2011-09-25T09:51:07Z</time>
      </trkpt>
      <trkpt lat="49.03364" lon="1.1229">
        <ele>91</ele>
        <time>2011-09-25T09:51:09Z</time>
      </trkpt>
      <trkpt lat="49.03362" lon="1.12298">
        <ele>92</ele>
        <time>2011-09-25T09:51:12Z</time>
      </trkpt>
      <trkpt lat="49.0336" lon="1.12306">
        <ele>92</ele>
        <time>2011-09-25T09:51:15Z</time>
      </trkpt>
      <trkpt lat="49.03358" lon="1.12314">
        <ele>92</ele>
        <time>2011-09-25T09:51:18Z</time>
      </trkpt>
      <trkpt lat="49.03358" lon="1.12314">
        <ele>92</ele>
        <time>2011-09-25T09:51:18Z</time>
      </trkpt>
      <trkpt lat="49.03358" lon="1.12314">
        <ele>92</ele>
        <time>2011-09-25T09:51:21Z</time>
      </trkpt>
      <trkpt lat="49.03358" lon="1.12323">
        <ele>92</ele>
        <time>2011-09-25T09:51:22Z</time>
      </trkpt>
      <trkpt lat="49.03358" lon="1.12323">
        <ele>92</ele>
        <time>2011-09-25T09:51:22Z</time>
      </trkpt>
      <trkpt lat="49.03358" lon="1.12323">
        <ele>92</ele>
        <time>2011-09-25T09:51:23Z</time>
      </trkpt>
      <trkpt lat="49.0336" lon="1.12331">
        <ele>92</ele>
        <time>2011-09-25T09:51:25Z</time>
      </trkpt>
      <trkpt lat="49.03362" lon="1.12338">
        <ele>96</ele>
        <time>2011-09-25T09:51:27Z</time>
      </trkpt>
      <trkpt lat="49.03364" lon="1.12347">
        <ele>96</ele>
        <time>2011-09-25T09:51:30Z</time>
      </trkpt>
      <trkpt lat="49.03366" lon="1.12355">
        <ele>97</ele>
        <time>2011-09-25T09:51:33Z</time>
      </trkpt>
      <trkpt lat="49.03368" lon="1.12363">
        <ele>97</ele>
        <time>2011-09-25T09:51:36Z</time>
      </trkpt>
      <trkpt lat="49.03368" lon="1.12363">
        <ele>97</ele>
        <time>2011-09-25T09:51:36Z</time>
      </trkpt>
      <trkpt lat="49.03368" lon="1.12363">
        <ele>97</ele>
        <time>2011-09-25T09:51:38Z</time>
      </trkpt>
      <trkpt lat="49.0337" lon="1.12371">
        <ele>98</ele>
        <time>2011-09-25T09:51:39Z</time>
      </trkpt>
      <trkpt lat="49.03372" lon="1.1238">
        <ele>98</ele>
        <time>2011-09-25T09:51:42Z</time>
      </trkpt>
      <trkpt lat="49.03374" lon="1.12389">
        <ele>98</ele>
        <time>2011-09-25T09:51:45Z</time>
      </trkpt>
      <trkpt lat="49.03377" lon="1.12397">
        <ele>99</ele>
        <time>2011-09-25T09:51:48Z</time>
      </trkpt>
      <trkpt lat="49.0338" lon="1.12403">
        <ele>99</ele>
        <time>2011-09-25T09:51:51Z</time>
      </trkpt>
      <trkpt lat="49.03384" lon="1.12411">
        <ele>100</ele>
        <time>2011-09-25T09:51:55Z</time>
      </trkpt>
      <trkpt lat="49.03387" lon="1.12418">
        <ele>104</ele>
        <time>2011-09-25T09:51:58Z</time>
      </trkpt>
      <trkpt lat="49.03392" lon="1.12423">
        <ele>105</ele>
        <time>2011-09-25T09:52:01Z</time>
      </trkpt>
      <trkpt lat="49.03396" lon="1.12427">
        <ele>106</ele>
        <time>2011-09-25T09:52:04Z</time>
      </trkpt>
      <trkpt lat="49.034" lon="1.12432">
        <ele>106</ele>
        <time>2011-09-25T09:52:07Z</time>
      </trkpt>
      <trkpt lat="49.03404" lon="1.12438">
        <ele>106</ele>
        <time>2011-09-25T09:52:10Z</time>
      </trkpt>
      <trkpt lat="49.03407" lon="1.12443">
        <ele>106</ele>
        <time>2011-09-25T09:52:13Z</time>
      </trkpt>
      <trkpt lat="49.0341" lon="1.1245">
        <ele>107</ele>
        <time>2011-09-25T09:52:16Z</time>
      </trkpt>
      <trkpt lat="49.03413" lon="1.12459">
        <ele>107</ele>
        <time>2011-09-25T09:52:20Z</time>
      </trkpt>
      <trkpt lat="49.03413" lon="1.12459">
        <ele>107</ele>
        <time>2011-09-25T09:52:20Z</time>
      </trkpt>
      <trkpt lat="49.03413" lon="1.12459">
        <ele>107</ele>
        <time>2011-09-25T09:52:23Z</time>
      </trkpt>
      <trkpt lat="49.03416" lon="1.12466">
        <ele>108</ele>
        <time>2011-09-25T09:52:24Z</time>
      </trkpt>
      <trkpt lat="49.03418" lon="1.12475">
        <ele>114</ele>
        <time>2011-09-25T09:52:29Z</time>
      </trkpt>
      <trkpt lat="49.03418" lon="1.12475">
        <ele>114</ele>
        <time>2011-09-25T09:52:29Z</time>
      </trkpt>
      <trkpt lat="49.03418" lon="1.12475">
        <ele>114</ele>
        <time>2011-09-25T09:52:30Z</time>
      </trkpt>
      <trkpt lat="49.0342" lon="1.12483">
        <ele>115</ele>
        <time>2011-09-25T09:52:32Z</time>
      </trkpt>
      <trkpt lat="49.03422" lon="1.1249">
        <ele>115</ele>
        <time>2011-09-25T09:52:35Z</time>
      </trkpt>
      <trkpt lat="49.03423" lon="1.125">
        <ele>117</ele>
        <time>2011-09-25T09:52:38Z</time>
      </trkpt>
      <trkpt lat="49.03424" lon="1.12508">
        <ele>120</ele>
        <time>2011-09-25T09:52:40Z</time>
      </trkpt>
      <trkpt lat="49.03426" lon="1.12515">
        <ele>121</ele>
        <time>2011-09-25T09:52:43Z</time>
      </trkpt>
      <trkpt lat="49.03426" lon="1.12522">
        <ele>122</ele>
        <time>2011-09-25T09:52:46Z</time>
      </trkpt>
      <trkpt lat="49.03426" lon="1.12531">
        <ele>123</ele>
        <time>2011-09-25T09:52:50Z</time>
      </trkpt>
      <trkpt lat="49.03427" lon="1.1254">
        <ele>124</ele>
        <time>2011-09-25T09:52:54Z</time>
      </trkpt>
      <trkpt lat="49.03427" lon="1.12548">
        <ele>125</ele>
        <time>2011-09-25T09:52:57Z</time>
      </trkpt>
      <trkpt lat="49.0343" lon="1.12556">
        <ele>126</ele>
        <time>2011-09-25T09:53:00Z</time>
      </trkpt>
      <trkpt lat="49.03434" lon="1.12563">
        <ele>126</ele>
        <time>2011-09-25T09:53:03Z</time>
      </trkpt>
      <trkpt lat="49.03438" lon="1.12567">
        <ele>126</ele>
        <time>2011-09-25T09:53:05Z</time>
      </trkpt>
      <trkpt lat="49.03442" lon="1.1257">
        <ele>127</ele>
        <time>2011-09-25T09:53:07Z</time>
      </trkpt>
      <trkpt lat="49.03446" lon="1.12575">
        <ele>127</ele>
        <time>2011-09-25T09:53:10Z</time>
      </trkpt>
      <trkpt lat="49.0345" lon="1.12581">
        <ele>127</ele>
        <time>2011-09-25T09:53:14Z</time>
      </trkpt>
      <trkpt lat="49.03455" lon="1.12585">
        <ele>132</ele>
        <time>2011-09-25T09:53:17Z</time>
      </trkpt>
      <trkpt lat="49.03459" lon="1.12589">
        <ele>132</ele>
        <time>2011-09-25T09:53:20Z</time>
      </trkpt>
      <trkpt lat="49.03464" lon="1.12594">
        <ele>132</ele>
        <time>2011-09-25T09:53:23Z</time>
      </trkpt>
      <trkpt lat="49.0347" lon="1.12598">
        <ele>133</ele>
        <time>2011-09-25T09:53:26Z</time>
      </trkpt>
      <trkpt lat="49.03474" lon="1.12601">
        <ele>133</ele>
        <time>2011-09-25T09:53:28Z</time>
      </trkpt>
      <trkpt lat="49.0348" lon="1.12606">
        <ele>133</ele>
        <time>2011-09-25T09:53:31Z</time>
      </trkpt>
      <trkpt lat="49.03485" lon="1.12611">
        <ele>133</ele>
        <time>2011-09-25T09:53:33Z</time>
      </trkpt>
      <trkpt lat="49.0349" lon="1.12616">
        <ele>133</ele>
        <time>2011-09-25T09:53:35Z</time>
      </trkpt>
      <trkpt lat="49.03496" lon="1.12619">
        <ele>133</ele>
        <time>2011-09-25T09:53:37Z</time>
      </trkpt>
      <trkpt lat="49.03502" lon="1.1262">
        <ele>134</ele>
        <time>2011-09-25T09:53:39Z</time>
      </trkpt>
      <trkpt lat="49.03507" lon="1.12621">
        <ele>134</ele>
        <time>2011-09-25T09:53:41Z</time>
      </trkpt>
      <trkpt lat="49.03512" lon="1.12622">
        <ele>134</ele>
        <time>2011-09-25T09:53:43Z</time>
      </trkpt>
      <trkpt lat="49.03518" lon="1.12622">
        <ele>134</ele>
        <time>2011-09-25T09:53:45Z</time>
      </trkpt>
      <trkpt lat="49.03525" lon="1.12622">
        <ele>134</ele>
        <time>2011-09-25T09:53:47Z</time>
      </trkpt>
      <trkpt lat="49.03531" lon="1.12619">
        <ele>134</ele>
        <time>2011-09-25T09:53:49Z</time>
      </trkpt>
      <trkpt lat="49.03536" lon="1.12614">
        <ele>134</ele>
        <time>2011-09-25T09:53:51Z</time>
      </trkpt>
      <trkpt lat="49.0354" lon="1.12608">
        <ele>134</ele>
        <time>2011-09-25T09:53:53Z</time>
      </trkpt>
      <trkpt lat="49.03545" lon="1.126">
        <ele>134</ele>
        <time>2011-09-25T09:53:55Z</time>
      </trkpt>
      <trkpt lat="49.0355" lon="1.12593">
        <ele>133</ele>
        <time>2011-09-25T09:53:57Z</time>
      </trkpt>
      <trkpt lat="49.03556" lon="1.12586">
        <ele>133</ele>
        <time>2011-09-25T09:53:59Z</time>
      </trkpt>
      <trkpt lat="49.03564" lon="1.1258">
        <ele>131</ele>
        <time>2011-09-25T09:54:01Z</time>
      </trkpt>
      <trkpt lat="49.03572" lon="1.12577">
        <ele>131</ele>
        <time>2011-09-25T09:54:03Z</time>
      </trkpt>
      <trkpt lat="49.03577" lon="1.12576">
        <ele>132</ele>
        <time>2011-09-25T09:54:04Z</time>
      </trkpt>
      <trkpt lat="49.03582" lon="1.12574">
        <ele>132</ele>
        <time>2011-09-25T09:54:05Z</time>
      </trkpt>
      <trkpt lat="49.03586" lon="1.12572">
        <ele>132</ele>
        <time>2011-09-25T09:54:06Z</time>
      </trkpt>
      <trkpt lat="49.03591" lon="1.1257">
        <ele>132</ele>
        <time>2011-09-25T09:54:07Z</time>
      </trkpt>
      <trkpt lat="49.03596" lon="1.12567">
        <ele>132</ele>
        <time>2011-09-25T09:54:08Z</time>
      </trkpt>
      <trkpt lat="49.03601" lon="1.12564">
        <ele>132</ele>
        <time>2011-09-25T09:54:09Z</time>
      </trkpt>
      <trkpt lat="49.03606" lon="1.12561">
        <ele>132</ele>
        <time>2011-09-25T09:54:10Z</time>
      </trkpt>
      <trkpt lat="49.0361" lon="1.12558">
        <ele>132</ele>
        <time>2011-09-25T09:54:11Z</time>
      </trkpt>
      <trkpt lat="49.03614" lon="1.12555">
        <ele>132</ele>
        <time>2011-09-25T09:54:12Z</time>
      </trkpt>
      <trkpt lat="49.03619" lon="1.12551">
        <ele>132</ele>
        <time>2011-09-25T09:54:13Z</time>
      </trkpt>
      <trkpt lat="49.03624" lon="1.12546">
        <ele>132</ele>
        <time>2011-09-25T09:54:14Z</time>
      </trkpt>
      <trkpt lat="49.03628" lon="1.1254">
        <ele>132</ele>
        <time>2011-09-25T09:54:15Z</time>
      </trkpt>
      <trkpt lat="49.03633" lon="1.12533">
        <ele>132</ele>
        <time>2011-09-25T09:54:16Z</time>
      </trkpt>
      <trkpt lat="49.03636" lon="1.12526">
        <ele>132</ele>
        <time>2011-09-25T09:54:17Z</time>
      </trkpt>
      <trkpt lat="49.0364" lon="1.12518">
        <ele>132</ele>
        <time>2011-09-25T09:54:18Z</time>
      </trkpt>
      <trkpt lat="49.03644" lon="1.12511">
        <ele>132</ele>
        <time>2011-09-25T09:54:19Z</time>
      </trkpt>
      <trkpt lat="49.03648" lon="1.12505">
        <ele>133</ele>
        <time>2011-09-25T09:54:20Z</time>
      </trkpt>
      <trkpt lat="49.03652" lon="1.12499">
        <ele>130</ele>
        <time>2011-09-25T09:54:21Z</time>
      </trkpt>
      <trkpt lat="49.03655" lon="1.12493">
        <ele>130</ele>
        <time>2011-09-25T09:54:22Z</time>
      </trkpt>
      <trkpt lat="49.03658" lon="1.12487">
        <ele>130</ele>
        <time>2011-09-25T09:54:23Z</time>
      </trkpt>
      <trkpt lat="49.0366" lon="1.1248">
        <ele>129</ele>
        <time>2011-09-25T09:54:24Z</time>
      </trkpt>
      <trkpt lat="49.03663" lon="1.12474">
        <ele>129</ele>
        <time>2011-09-25T09:54:25Z</time>
      </trkpt>
      <trkpt lat="49.03666" lon="1.12468">
        <ele>128</ele>
        <time>2011-09-25T09:54:26Z</time>
      </trkpt>
      <trkpt lat="49.0367" lon="1.12462">
        <ele>134</ele>
        <time>2011-09-25T09:54:27Z</time>
      </trkpt>
      <trkpt lat="49.03674" lon="1.12449">
        <ele>133</ele>
        <time>2011-09-25T09:54:29Z</time>
      </trkpt>
      <trkpt lat="49.03676" lon="1.12442">
        <ele>133</ele>
        <time>2011-09-25T09:54:30Z</time>
      </trkpt>
      <trkpt lat="49.03679" lon="1.12436">
        <ele>133</ele>
        <time>2011-09-25T09:54:31Z</time>
      </trkpt>
      <trkpt lat="49.03681" lon="1.12429">
        <ele>133</ele>
        <time>2011-09-25T09:54:32Z</time>
      </trkpt>
      <trkpt lat="49.03685" lon="1.12418">
        <ele>133</ele>
        <time>2011-09-25T09:54:34Z</time>
      </trkpt>
      <trkpt lat="49.03688" lon="1.12408">
        <ele>132</ele>
        <time>2011-09-25T09:54:36Z</time>
      </trkpt>
      <trkpt lat="49.0369" lon="1.12401">
        <ele>132</ele>
        <time>2011-09-25T09:54:44Z</time>
      </trkpt>
      <trkpt lat="49.03687" lon="1.12406">
        <ele>132</ele>
        <time>2011-09-25T09:54:47Z</time>
      </trkpt>
      <trkpt lat="49.03683" lon="1.12399">
        <ele>132</ele>
        <time>2011-09-25T09:54:50Z</time>
      </trkpt>
      <trkpt lat="49.03684" lon="1.12389">
        <ele>132</ele>
        <time>2011-09-25T09:54:52Z</time>
      </trkpt>
      <trkpt lat="49.03684" lon="1.12377">
        <ele>132</ele>
        <time>2011-09-25T09:54:54Z</time>
      </trkpt>
      <trkpt lat="49.03684" lon="1.12364">
        <ele>131</ele>
        <time>2011-09-25T09:54:56Z</time>
      </trkpt>
      <trkpt lat="49.03683" lon="1.12352">
        <ele>130</ele>
        <time>2011-09-25T09:54:58Z</time>
      </trkpt>
      <trkpt lat="49.03682" lon="1.12338">
        <ele>129</ele>
        <time>2011-09-25T09:55:00Z</time>
      </trkpt>
      <trkpt lat="49.03682" lon="1.12324">
        <ele>129</ele>
        <time>2011-09-25T09:55:02Z</time>
      </trkpt>
      <trkpt lat="49.03682" lon="1.12317">
        <ele>129</ele>
        <time>2011-09-25T09:55:03Z</time>
      </trkpt>
      <trkpt lat="49.03683" lon="1.12309">
        <ele>130</ele>
        <time>2011-09-25T09:55:04Z</time>
      </trkpt>
      <trkpt lat="49.03684" lon="1.12302">
        <ele>130</ele>
        <time>2011-09-25T09:55:05Z</time>
      </trkpt>
      <trkpt lat="49.03684" lon="1.12294">
        <ele>130</ele>
        <time>2011-09-25T09:55:06Z</time>
      </trkpt>
      <trkpt lat="49.03684" lon="1.12286">
        <ele>130</ele>
        <time>2011-09-25T09:55:07Z</time>
      </trkpt>
      <trkpt lat="49.03684" lon="1.12278">
        <ele>130</ele>
        <time>2011-09-25T09:55:08Z</time>
      </trkpt>
      <trkpt lat="49.03685" lon="1.12269">
        <ele>129</ele>
        <time>2011-09-25T09:55:09Z</time>
      </trkpt>
      <trkpt lat="49.03684" lon="1.12259">
        <ele>129</ele>
        <time>2011-09-25T09:55:10Z</time>
      </trkpt>
      <trkpt lat="49.03683" lon="1.12248">
        <ele>128</ele>
        <time>2011-09-25T09:55:11Z</time>
      </trkpt>
      <trkpt lat="49.03681" lon="1.12237">
        <ele>128</ele>
        <time>2011-09-25T09:55:12Z</time>
      </trkpt>
      <trkpt lat="49.0368" lon="1.12227">
        <ele>129</ele>
        <time>2011-09-25T09:55:13Z</time>
      </trkpt>
      <trkpt lat="49.03679" lon="1.12216">
        <ele>130</ele>
        <time>2011-09-25T09:55:14Z</time>
      </trkpt>
      <trkpt lat="49.03678" lon="1.12205">
        <ele>130</ele>
        <time>2011-09-25T09:55:15Z</time>
      </trkpt>
      <trkpt lat="49.03676" lon="1.12194">
        <ele>129</ele>
        <time>2011-09-25T09:55:16Z</time>
      </trkpt>
      <trkpt lat="49.03675" lon="1.12184">
        <ele>129</ele>
        <time>2011-09-25T09:55:17Z</time>
      </trkpt>
      <trkpt lat="49.03674" lon="1.12173">
        <ele>127</ele>
        <time>2011-09-25T09:55:18Z</time>
      </trkpt>
      <trkpt lat="49.03672" lon="1.12161">
        <ele>127</ele>
        <time>2011-09-25T09:55:19Z</time>
      </trkpt>
      <trkpt lat="49.0367" lon="1.12149">
        <ele>128</ele>
        <time>2011-09-25T09:55:20Z</time>
      </trkpt>
      <trkpt lat="49.03669" lon="1.12136">
        <ele>129</ele>
        <time>2011-09-25T09:55:21Z</time>
      </trkpt>
      <trkpt lat="49.03668" lon="1.12124">
        <ele>129</ele>
        <time>2011-09-25T09:55:22Z</time>
      </trkpt>
      <trkpt lat="49.03662" lon="1.12112">
        <ele>117</ele>
        <time>2011-09-25T09:55:23Z</time>
      </trkpt>
      <trkpt lat="49.03658" lon="1.12099">
        <ele>119</ele>
        <time>2011-09-25T09:55:24Z</time>
      </trkpt>
      <trkpt lat="49.03654" lon="1.12084">
        <ele>119</ele>
        <time>2011-09-25T09:55:25Z</time>
      </trkpt>
      <trkpt lat="49.03648" lon="1.12069">
        <ele>118</ele>
        <time>2011-09-25T09:55:26Z</time>
      </trkpt>
      <trkpt lat="49.03643" lon="1.12054">
        <ele>116</ele>
        <time>2011-09-25T09:55:27Z</time>
      </trkpt>
      <trkpt lat="49.03637" lon="1.12041">
        <ele>115</ele>
        <time>2011-09-25T09:55:28Z</time>
      </trkpt>
      <trkpt lat="49.03633" lon="1.1203">
        <ele>115</ele>
        <time>2011-09-25T09:55:29Z</time>
      </trkpt>
      <trkpt lat="49.03629" lon="1.1202">
        <ele>115</ele>
        <time>2011-09-25T09:55:30Z</time>
      </trkpt>
      <trkpt lat="49.03626" lon="1.1201">
        <ele>114</ele>
        <time>2011-09-25T09:55:31Z</time>
      </trkpt>
      <trkpt lat="49.03622" lon="1.12">
        <ele>114</ele>
        <time>2011-09-25T09:55:32Z</time>
      </trkpt>
      <trkpt lat="49.03619" lon="1.11991">
        <ele>113</ele>
        <time>2011-09-25T09:55:33Z</time>
      </trkpt>
      <trkpt lat="49.03616" lon="1.11981">
        <ele>112</ele>
        <time>2011-09-25T09:55:34Z</time>
      </trkpt>
      <trkpt lat="49.03614" lon="1.11972">
        <ele>112</ele>
        <time>2011-09-25T09:55:35Z</time>
      </trkpt>
      <trkpt lat="49.03611" lon="1.11964">
        <ele>112</ele>
        <time>2011-09-25T09:55:36Z</time>
      </trkpt>
      <trkpt lat="49.03609" lon="1.11957">
        <ele>111</ele>
        <time>2011-09-25T09:55:37Z</time>
      </trkpt>
      <trkpt lat="49.03607" lon="1.1195">
        <ele>111</ele>
        <time>2011-09-25T09:55:38Z</time>
      </trkpt>
      <trkpt lat="49.03604" lon="1.11943">
        <ele>110</ele>
        <time>2011-09-25T09:55:39Z</time>
      </trkpt>
      <trkpt lat="49.03601" lon="1.11937">
        <ele>109</ele>
        <time>2011-09-25T09:55:40Z</time>
      </trkpt>
      <trkpt lat="49.03599" lon="1.1193">
        <ele>108</ele>
        <time>2011-09-25T09:55:41Z</time>
      </trkpt>
      <trkpt lat="49.03598" lon="1.11921">
        <ele>107</ele>
        <time>2011-09-25T09:55:42Z</time>
      </trkpt>
      <trkpt lat="49.03595" lon="1.11915">
        <ele>104</ele>
        <time>2011-09-25T09:55:43Z</time>
      </trkpt>
      <trkpt lat="49.03593" lon="1.11909">
        <ele>104</ele>
        <time>2011-09-25T09:55:44Z</time>
      </trkpt>
      <trkpt lat="49.0359" lon="1.11903">
        <ele>105</ele>
        <time>2011-09-25T09:55:45Z</time>
      </trkpt>
      <trkpt lat="49.03588" lon="1.11896">
        <ele>105</ele>
        <time>2011-09-25T09:55:46Z</time>
      </trkpt>
      <trkpt lat="49.03587" lon="1.11889">
        <ele>105</ele>
        <time>2011-09-25T09:55:47Z</time>
      </trkpt>
      <trkpt lat="49.03587" lon="1.11882">
        <ele>105</ele>
        <time>2011-09-25T09:55:48Z</time>
      </trkpt>
      <trkpt lat="49.03587" lon="1.11874">
        <ele>105</ele>
        <time>2011-09-25T09:55:49Z</time>
      </trkpt>
      <trkpt lat="49.03589" lon="1.11866">
        <ele>105</ele>
        <time>2011-09-25T09:55:50Z</time>
      </trkpt>
      <trkpt lat="49.03591" lon="1.11858">
        <ele>104</ele>
        <time>2011-09-25T09:55:51Z</time>
      </trkpt>
      <trkpt lat="49.03593" lon="1.1185">
        <ele>103</ele>
        <time>2011-09-25T09:55:52Z</time>
      </trkpt>
      <trkpt lat="49.03595" lon="1.11843">
        <ele>103</ele>
        <time>2011-09-25T09:55:53Z</time>
      </trkpt>
      <trkpt lat="49.03598" lon="1.11836">
        <ele>103</ele>
        <time>2011-09-25T09:55:54Z</time>
      </trkpt>
      <trkpt lat="49.03602" lon="1.11828">
        <ele>100</ele>
        <time>2011-09-25T09:55:55Z</time>
      </trkpt>
      <trkpt lat="49.03605" lon="1.11822">
        <ele>100</ele>
        <time>2011-09-25T09:55:56Z</time>
      </trkpt>
      <trkpt lat="49.03608" lon="1.11816">
        <ele>100</ele>
        <time>2011-09-25T09:55:57Z</time>
      </trkpt>
      <trkpt lat="49.03611" lon="1.11811">
        <ele>100</ele>
        <time>2011-09-25T09:55:58Z</time>
      </trkpt>
      <trkpt lat="49.03615" lon="1.11806">
        <ele>101</ele>
        <time>2011-09-25T09:55:59Z</time>
      </trkpt>
      <trkpt lat="49.03624" lon="1.11801">
        <ele>101</ele>
        <time>2011-09-25T09:56:01Z</time>
      </trkpt>
      <trkpt lat="49.03628" lon="1.11798">
        <ele>101</ele>
        <time>2011-09-25T09:56:02Z</time>
      </trkpt>
      <trkpt lat="49.03633" lon="1.11797">
        <ele>101</ele>
        <time>2011-09-25T09:56:03Z</time>
      </trkpt>
      <trkpt lat="49.03638" lon="1.11796">
        <ele>101</ele>
        <time>2011-09-25T09:56:04Z</time>
      </trkpt>
      <trkpt lat="49.03644" lon="1.11796">
        <ele>101</ele>
        <time>2011-09-25T09:56:05Z</time>
      </trkpt>
      <trkpt lat="49.0365" lon="1.11798">
        <ele>102</ele>
        <time>2011-09-25T09:56:06Z</time>
      </trkpt>
      <trkpt lat="49.03655" lon="1.118">
        <ele>102</ele>
        <time>2011-09-25T09:56:07Z</time>
      </trkpt>
      <trkpt lat="49.0366" lon="1.11802">
        <ele>103</ele>
        <time>2011-09-25T09:56:08Z</time>
      </trkpt>
      <trkpt lat="49.03665" lon="1.11805">
        <ele>103</ele>
        <time>2011-09-25T09:56:09Z</time>
      </trkpt>
      <trkpt lat="49.03671" lon="1.11806">
        <ele>104</ele>
        <time>2011-09-25T09:56:10Z</time>
      </trkpt>
      <trkpt lat="49.03676" lon="1.11808">
        <ele>105</ele>
        <time>2011-09-25T09:56:11Z</time>
      </trkpt>
      <trkpt lat="49.03681" lon="1.11811">
        <ele>105</ele>
        <time>2011-09-25T09:56:12Z</time>
      </trkpt>
      <trkpt lat="49.03686" lon="1.11813">
        <ele>105</ele>
        <time>2011-09-25T09:56:13Z</time>
      </trkpt>
      <trkpt lat="49.03691" lon="1.11817">
        <ele>105</ele>
        <time>2011-09-25T09:56:14Z</time>
      </trkpt>
      <trkpt lat="49.03696" lon="1.11821">
        <ele>105</ele>
        <time>2011-09-25T09:56:15Z</time>
      </trkpt>
      <trkpt lat="49.037" lon="1.11824">
        <ele>105</ele>
        <time>2011-09-25T09:56:16Z</time>
      </trkpt>
      <trkpt lat="49.03705" lon="1.11825">
        <ele>104</ele>
        <time>2011-09-25T09:56:17Z</time>
      </trkpt>
      <trkpt lat="49.0371" lon="1.11826">
        <ele>104</ele>
        <time>2011-09-25T09:56:18Z</time>
      </trkpt>
      <trkpt lat="49.03715" lon="1.11828">
        <ele>104</ele>
        <time>2011-09-25T09:56:19Z</time>
      </trkpt>
      <trkpt lat="49.0372" lon="1.11829">
        <ele>104</ele>
        <time>2011-09-25T09:56:20Z</time>
      </trkpt>
      <trkpt lat="49.03725" lon="1.1183">
        <ele>104</ele>
        <time>2011-09-25T09:56:21Z</time>
      </trkpt>
      <trkpt lat="49.0373" lon="1.1183">
        <ele>105</ele>
        <time>2011-09-25T09:56:22Z</time>
      </trkpt>
      <trkpt lat="49.03735" lon="1.11831">
        <ele>105</ele>
        <time>2011-09-25T09:56:23Z</time>
      </trkpt>
      <trkpt lat="49.0374" lon="1.11832">
        <ele>105</ele>
        <time>2011-09-25T09:56:24Z</time>
      </trkpt>
      <trkpt lat="49.03745" lon="1.11832">
        <ele>105</ele>
        <time>2011-09-25T09:56:25Z</time>
      </trkpt>
      <trkpt lat="49.0375" lon="1.11833">
        <ele>106</ele>
        <time>2011-09-25T09:56:26Z</time>
      </trkpt>
      <trkpt lat="49.03755" lon="1.11833">
        <ele>105</ele>
        <time>2011-09-25T09:56:27Z</time>
      </trkpt>
      <trkpt lat="49.0376" lon="1.11834">
        <ele>109</ele>
        <time>2011-09-25T09:56:28Z</time>
      </trkpt>
      <trkpt lat="49.03765" lon="1.11834">
        <ele>110</ele>
        <time>2011-09-25T09:56:29Z</time>
      </trkpt>
      <trkpt lat="49.03771" lon="1.11835">
        <ele>111</ele>
        <time>2011-09-25T09:56:30Z</time>
      </trkpt>
      <trkpt lat="49.03776" lon="1.11835">
        <ele>111</ele>
        <time>2011-09-25T09:56:31Z</time>
      </trkpt>
      <trkpt lat="49.03782" lon="1.11834">
        <ele>112</ele>
        <time>2011-09-25T09:56:32Z</time>
      </trkpt>
      <trkpt lat="49.03787" lon="1.11834">
        <ele>112</ele>
        <time>2011-09-25T09:56:33Z</time>
      </trkpt>
      <trkpt lat="49.03792" lon="1.11834">
        <ele>112</ele>
        <time>2011-09-25T09:56:34Z</time>
      </trkpt>
      <trkpt lat="49.03797" lon="1.11833">
        <ele>104</ele>
        <time>2011-09-25T09:56:35Z</time>
      </trkpt>
      <trkpt lat="49.03802" lon="1.11833">
        <ele>105</ele>
        <time>2011-09-25T09:56:36Z</time>
      </trkpt>
      <trkpt lat="49.03808" lon="1.11833">
        <ele>105</ele>
        <time>2011-09-25T09:56:37Z</time>
      </trkpt>
      <trkpt lat="49.03813" lon="1.11833">
        <ele>105</ele>
        <time>2011-09-25T09:56:38Z</time>
      </trkpt>
      <trkpt lat="49.03818" lon="1.11832">
        <ele>105</ele>
        <time>2011-09-25T09:56:39Z</time>
      </trkpt>
      <trkpt lat="49.03823" lon="1.11831">
        <ele>106</ele>
        <time>2011-09-25T09:56:40Z</time>
      </trkpt>
      <trkpt lat="49.03828" lon="1.11828">
        <ele>106</ele>
        <time>2011-09-25T09:56:41Z</time>
      </trkpt>
      <trkpt lat="49.03833" lon="1.11826">
        <ele>106</ele>
        <time>2011-09-25T09:56:42Z</time>
      </trkpt>
      <trkpt lat="49.03838" lon="1.11823">
        <ele>109</ele>
        <time>2011-09-25T09:56:43Z</time>
      </trkpt>
      <trkpt lat="49.03842" lon="1.11819">
        <ele>110</ele>
        <time>2011-09-25T09:56:44Z</time>
      </trkpt>
      <trkpt lat="49.03847" lon="1.11815">
        <ele>111</ele>
        <time>2011-09-25T09:56:45Z</time>
      </trkpt>
      <trkpt lat="49.03851" lon="1.1181">
        <ele>112</ele>
        <time>2011-09-25T09:56:46Z</time>
      </trkpt>
      <trkpt lat="49.03853" lon="1.11804">
        <ele>112</ele>
        <time>2011-09-25T09:56:47Z</time>
      </trkpt>
      <trkpt lat="49.03854" lon="1.11797">
        <ele>112</ele>
        <time>2011-09-25T09:56:48Z</time>
      </trkpt>
      <trkpt lat="49.03856" lon="1.1179">
        <ele>112</ele>
        <time>2011-09-25T09:56:49Z</time>
      </trkpt>
      <trkpt lat="49.03856" lon="1.11783">
        <ele>111</ele>
        <time>2011-09-25T09:56:50Z</time>
      </trkpt>
      <trkpt lat="49.03856" lon="1.11776">
        <ele>111</ele>
        <time>2011-09-25T09:56:51Z</time>
      </trkpt>
      <trkpt lat="49.03856" lon="1.11768">
        <ele>110</ele>
        <time>2011-09-25T09:56:52Z</time>
      </trkpt>
      <trkpt lat="49.03854" lon="1.11756">
        <ele>109</ele>
        <time>2011-09-25T09:56:54Z</time>
      </trkpt>
      <trkpt lat="49.03852" lon="1.11747">
        <ele>107</ele>
        <time>2011-09-25T09:56:56Z</time>
      </trkpt>
      <trkpt lat="49.03852" lon="1.11737">
        <ele>108</ele>
        <time>2011-09-25T09:56:58Z</time>
      </trkpt>
      <trkpt lat="49.03852" lon="1.11725">
        <ele>109</ele>
        <time>2011-09-25T09:57:00Z</time>
      </trkpt>
      <trkpt lat="49.03853" lon="1.11712">
        <ele>110</ele>
        <time>2011-09-25T09:57:02Z</time>
      </trkpt>
      <trkpt lat="49.03854" lon="1.11704">
        <ele>110</ele>
        <time>2011-09-25T09:57:03Z</time>
      </trkpt>
      <trkpt lat="49.03854" lon="1.11697">
        <ele>110</ele>
        <time>2011-09-25T09:57:04Z</time>
      </trkpt>
      <trkpt lat="49.03854" lon="1.11689">
        <ele>110</ele>
        <time>2011-09-25T09:57:05Z</time>
      </trkpt>
      <trkpt lat="49.03854" lon="1.11681">
        <ele>109</ele>
        <time>2011-09-25T09:57:06Z</time>
      </trkpt>
      <trkpt lat="49.03854" lon="1.11674">
        <ele>109</ele>
        <time>2011-09-25T09:57:07Z</time>
      </trkpt>
      <trkpt lat="49.03853" lon="1.11666">
        <ele>110</ele>
        <time>2011-09-25T09:57:08Z</time>
      </trkpt>
      <trkpt lat="49.03852" lon="1.11659">
        <ele>110</ele>
        <time>2011-09-25T09:57:09Z</time>
      </trkpt>
      <trkpt lat="49.03851" lon="1.11651">
        <ele>110</ele>
        <time>2011-09-25T09:57:10Z</time>
      </trkpt>
      <trkpt lat="49.0385" lon="1.11644">
        <ele>111</ele>
        <time>2011-09-25T09:57:11Z</time>
      </trkpt>
      <trkpt lat="49.03849" lon="1.11636">
        <ele>111</ele>
        <time>2011-09-25T09:57:12Z</time>
      </trkpt>
      <trkpt lat="49.03846" lon="1.11629">
        <ele>112</ele>
        <time>2011-09-25T09:57:13Z</time>
      </trkpt>
      <trkpt lat="49.03844" lon="1.11621">
        <ele>112</ele>
        <time>2011-09-25T09:57:14Z</time>
      </trkpt>
      <trkpt lat="49.03842" lon="1.11613">
        <ele>111</ele>
        <time>2011-09-25T09:57:15Z</time>
      </trkpt>
      <trkpt lat="49.0384" lon="1.11605">
        <ele>111</ele>
        <time>2011-09-25T09:57:16Z</time>
      </trkpt>
      <trkpt lat="49.03837" lon="1.11598">
        <ele>110</ele>
        <time>2011-09-25T09:57:17Z</time>
      </trkpt>
      <trkpt lat="49.03835" lon="1.1159">
        <ele>109</ele>
        <time>2011-09-25T09:57:18Z</time>
      </trkpt>
      <trkpt lat="49.03833" lon="1.11582">
        <ele>107</ele>
        <time>2011-09-25T09:57:19Z</time>
      </trkpt>
      <trkpt lat="49.0383" lon="1.11575">
        <ele>107</ele>
        <time>2011-09-25T09:57:20Z</time>
      </trkpt>
      <trkpt lat="49.03828" lon="1.11568">
        <ele>106</ele>
        <time>2011-09-25T09:57:21Z</time>
      </trkpt>
      <trkpt lat="49.03826" lon="1.11561">
        <ele>106</ele>
        <time>2011-09-25T09:57:22Z</time>
      </trkpt>
      <trkpt lat="49.03824" lon="1.11554">
        <ele>106</ele>
        <time>2011-09-25T09:57:23Z</time>
      </trkpt>
      <trkpt lat="49.03822" lon="1.11547">
        <ele>106</ele>
        <time>2011-09-25T09:57:24Z</time>
      </trkpt>
      <trkpt lat="49.0382" lon="1.1154">
        <ele>107</ele>
        <time>2011-09-25T09:57:25Z</time>
      </trkpt>
      <trkpt lat="49.03817" lon="1.11534">
        <ele>107</ele>
        <time>2011-09-25T09:57:26Z</time>
      </trkpt>
      <trkpt lat="49.03815" lon="1.11527">
        <ele>107</ele>
        <time>2011-09-25T09:57:27Z</time>
      </trkpt>
      <trkpt lat="49.03812" lon="1.1152">
        <ele>107</ele>
        <time>2011-09-25T09:57:28Z</time>
      </trkpt>
      <trkpt lat="49.0381" lon="1.11513">
        <ele>107</ele>
        <time>2011-09-25T09:57:29Z</time>
      </trkpt>
      <trkpt lat="49.03808" lon="1.11506">
        <ele>107</ele>
        <time>2011-09-25T09:57:30Z</time>
      </trkpt>
      <trkpt lat="49.03807" lon="1.11499">
        <ele>110</ele>
        <time>2011-09-25T09:57:31Z</time>
      </trkpt>
      <trkpt lat="49.03805" lon="1.11492">
        <ele>109</ele>
        <time>2011-09-25T09:57:32Z</time>
      </trkpt>
      <trkpt lat="49.03804" lon="1.11485">
        <ele>109</ele>
        <time>2011-09-25T09:57:33Z</time>
      </trkpt>
      <trkpt lat="49.03801" lon="1.11478">
        <ele>109</ele>
        <time>2011-09-25T09:57:34Z</time>
      </trkpt>
      <trkpt lat="49.03799" lon="1.11471">
        <ele>109</ele>
        <time>2011-09-25T09:57:35Z</time>
      </trkpt>
      <trkpt lat="49.03797" lon="1.11463">
        <ele>109</ele>
        <time>2011-09-25T09:57:36Z</time>
      </trkpt>
      <trkpt lat="49.03794" lon="1.11456">
        <ele>109</ele>
        <time>2011-09-25T09:57:37Z</time>
      </trkpt>
      <trkpt lat="49.03792" lon="1.11449">
        <ele>109</ele>
        <time>2011-09-25T09:57:38Z</time>
      </trkpt>
      <trkpt lat="49.0379" lon="1.11441">
        <ele>109</ele>
        <time>2011-09-25T09:57:39Z</time>
      </trkpt>
      <trkpt lat="49.03787" lon="1.11433">
        <ele>109</ele>
        <time>2011-09-25T09:57:40Z</time>
      </trkpt>
      <trkpt lat="49.03785" lon="1.11426">
        <ele>109</ele>
        <time>2011-09-25T09:57:41Z</time>
      </trkpt>
      <trkpt lat="49.03782" lon="1.11418">
        <ele>109</ele>
        <time>2011-09-25T09:57:42Z</time>
      </trkpt>
      <trkpt lat="49.0378" lon="1.1141">
        <ele>110</ele>
        <time>2011-09-25T09:57:43Z</time>
      </trkpt>
      <trkpt lat="49.03778" lon="1.11403">
        <ele>110</ele>
        <time>2011-09-25T09:57:44Z</time>
      </trkpt>
      <trkpt lat="49.03776" lon="1.11396">
        <ele>110</ele>
        <time>2011-09-25T09:57:45Z</time>
      </trkpt>
      <trkpt lat="49.03775" lon="1.11389">
        <ele>110</ele>
        <time>2011-09-25T09:57:46Z</time>
      </trkpt>
      <trkpt lat="49.03773" lon="1.11376">
        <ele>110</ele>
        <time>2011-09-25T09:57:48Z</time>
      </trkpt>
      <trkpt lat="49.03775" lon="1.11368">
        <ele>111</ele>
        <time>2011-09-25T09:57:50Z</time>
      </trkpt>
      <trkpt lat="49.03777" lon="1.11362">
        <ele>111</ele>
        <time>2011-09-25T09:57:53Z</time>
      </trkpt>
      <trkpt lat="49.03781" lon="1.11367">
        <ele>111</ele>
        <time>2011-09-25T09:58:02Z</time>
      </trkpt>
      <trkpt lat="49.03781" lon="1.11367">
        <ele>111</ele>
        <time>2011-09-25T09:58:02Z</time>
      </trkpt>
      <trkpt lat="49.03781" lon="1.11367">
        <ele>111</ele>
        <time>2011-09-25T09:58:03Z</time>
      </trkpt>
      <trkpt lat="49.03784" lon="1.11373">
        <ele>111</ele>
        <time>2011-09-25T09:58:05Z</time>
      </trkpt>
      <trkpt lat="49.0379" lon="1.11383">
        <ele>112</ele>
        <time>2011-09-25T09:58:09Z</time>
      </trkpt>
      <trkpt lat="49.03794" lon="1.11388">
        <ele>112</ele>
        <time>2011-09-25T09:58:11Z</time>
      </trkpt>
      <trkpt lat="49.03797" lon="1.11393">
        <ele>113</ele>
        <time>2011-09-25T09:58:13Z</time>
      </trkpt>
      <trkpt lat="49.038" lon="1.11398">
        <ele>113</ele>
        <time>2011-09-25T09:58:15Z</time>
      </trkpt>
      <trkpt lat="49.03804" lon="1.11405">
        <ele>113</ele>
        <time>2011-09-25T09:58:18Z</time>
      </trkpt>
      <trkpt lat="49.03808" lon="1.1141">
        <ele>114</ele>
        <time>2011-09-25T09:58:20Z</time>
      </trkpt>
      <trkpt lat="49.03811" lon="1.11417">
        <ele>112</ele>
        <time>2011-09-25T09:58:22Z</time>
      </trkpt>
      <trkpt lat="49.03814" lon="1.11425">
        <ele>113</ele>
        <time>2011-09-25T09:58:24Z</time>
      </trkpt>
      <trkpt lat="49.03818" lon="1.11432">
        <ele>113</ele>
        <time>2011-09-25T09:58:26Z</time>
      </trkpt>
      <trkpt lat="49.03821" lon="1.11441">
        <ele>112</ele>
        <time>2011-09-25T09:58:28Z</time>
      </trkpt>
      <trkpt lat="49.03824" lon="1.11449">
        <ele>112</ele>
        <time>2011-09-25T09:58:30Z</time>
      </trkpt>
      <trkpt lat="49.03828" lon="1.11456">
        <ele>111</ele>
        <time>2011-09-25T09:58:32Z</time>
      </trkpt>
      <trkpt lat="49.03832" lon="1.11463">
        <ele>111</ele>
        <time>2011-09-25T09:58:34Z</time>
      </trkpt>
      <trkpt lat="49.03836" lon="1.11469">
        <ele>120</ele>
        <time>2011-09-25T09:58:36Z</time>
      </trkpt>
      <trkpt lat="49.0384" lon="1.11474">
        <ele>119</ele>
        <time>2011-09-25T09:58:38Z</time>
      </trkpt>
      <trkpt lat="49.03844" lon="1.1148">
        <ele>119</ele>
        <time>2011-09-25T09:58:40Z</time>
      </trkpt>
      <trkpt lat="49.03847" lon="1.11487">
        <ele>118</ele>
        <time>2011-09-25T09:58:42Z</time>
      </trkpt>
      <trkpt lat="49.0385" lon="1.11493">
        <ele>118</ele>
        <time>2011-09-25T09:58:44Z</time>
      </trkpt>
      <trkpt lat="49.03854" lon="1.11499">
        <ele>119</ele>
        <time>2011-09-25T09:58:46Z</time>
      </trkpt>
      <trkpt lat="49.03856" lon="1.11507">
        <ele>116</ele>
        <time>2011-09-25T09:58:48Z</time>
      </trkpt>
      <trkpt lat="49.03859" lon="1.11515">
        <ele>117</ele>
        <time>2011-09-25T09:58:50Z</time>
      </trkpt>
      <trkpt lat="49.03863" lon="1.11523">
        <ele>118</ele>
        <time>2011-09-25T09:58:52Z</time>
      </trkpt>
      <trkpt lat="49.03868" lon="1.11532">
        <ele>118</ele>
        <time>2011-09-25T09:58:54Z</time>
      </trkpt>
      <trkpt lat="49.03872" lon="1.1154">
        <ele>118</ele>
        <time>2011-09-25T09:58:56Z</time>
      </trkpt>
      <trkpt lat="49.03875" lon="1.11548">
        <ele>118</ele>
        <time>2011-09-25T09:58:58Z</time>
      </trkpt>
      <trkpt lat="49.03879" lon="1.11555">
        <ele>119</ele>
        <time>2011-09-25T09:59:00Z</time>
      </trkpt>
      <trkpt lat="49.03884" lon="1.11561">
        <ele>119</ele>
        <time>2011-09-25T09:59:02Z</time>
      </trkpt>
      <trkpt lat="49.03888" lon="1.11568">
        <ele>120</ele>
        <time>2011-09-25T09:59:04Z</time>
      </trkpt>
      <trkpt lat="49.03891" lon="1.11575">
        <ele>120</ele>
        <time>2011-09-25T09:59:06Z</time>
      </trkpt>
      <trkpt lat="49.03895" lon="1.11582">
        <ele>121</ele>
        <time>2011-09-25T09:59:08Z</time>
      </trkpt>
      <trkpt lat="49.03898" lon="1.11589">
        <ele>119</ele>
        <time>2011-09-25T09:59:10Z</time>
      </trkpt>
      <trkpt lat="49.039" lon="1.11596">
        <ele>119</ele>
        <time>2011-09-25T09:59:12Z</time>
      </trkpt>
      <trkpt lat="49.03903" lon="1.11602">
        <ele>119</ele>
        <time>2011-09-25T09:59:14Z</time>
      </trkpt>
      <trkpt lat="49.03905" lon="1.1161">
        <ele>118</ele>
        <time>2011-09-25T09:59:16Z</time>
      </trkpt>
      <trkpt lat="49.03907" lon="1.11616">
        <ele>118</ele>
        <time>2011-09-25T09:59:18Z</time>
      </trkpt>
      <trkpt lat="49.03908" lon="1.11626">
        <ele>117</ele>
        <time>2011-09-25T09:59:21Z</time>
      </trkpt>
      <trkpt lat="49.03911" lon="1.11634">
        <ele>118</ele>
        <time>2011-09-25T09:59:24Z</time>
      </trkpt>
      <trkpt lat="49.03913" lon="1.11643">
        <ele>118</ele>
        <time>2011-09-25T09:59:27Z</time>
      </trkpt>
      <trkpt lat="49.03916" lon="1.11651">
        <ele>119</ele>
        <time>2011-09-25T09:59:30Z</time>
      </trkpt>
      <trkpt lat="49.03918" lon="1.1166">
        <ele>124</ele>
        <time>2011-09-25T09:59:33Z</time>
      </trkpt>
      <trkpt lat="49.03918" lon="1.1166">
        <ele>124</ele>
        <time>2011-09-25T09:59:33Z</time>
      </trkpt>
      <trkpt lat="49.03918" lon="1.1166">
        <ele>124</ele>
        <time>2011-09-25T09:59:34Z</time>
      </trkpt>
      <trkpt lat="49.0392" lon="1.1167">
        <ele>123</ele>
        <time>2011-09-25T09:59:37Z</time>
      </trkpt>
      <trkpt lat="49.03923" lon="1.11678">
        <ele>125</ele>
        <time>2011-09-25T09:59:40Z</time>
      </trkpt>
      <trkpt lat="49.03926" lon="1.11685">
        <ele>126</ele>
        <time>2011-09-25T09:59:42Z</time>
      </trkpt>
      <trkpt lat="49.0393" lon="1.11691">
        <ele>127</ele>
        <time>2011-09-25T09:59:44Z</time>
      </trkpt>
      <trkpt lat="49.03934" lon="1.11694">
        <ele>127</ele>
        <time>2011-09-25T09:59:46Z</time>
      </trkpt>
      <trkpt lat="49.0394" lon="1.11696">
        <ele>128</ele>
        <time>2011-09-25T09:59:48Z</time>
      </trkpt>
      <trkpt lat="49.03944" lon="1.11698">
        <ele>128</ele>
        <time>2011-09-25T09:59:50Z</time>
      </trkpt>
      <trkpt lat="49.03949" lon="1.117">
        <ele>129</ele>
        <time>2011-09-25T09:59:52Z</time>
      </trkpt>
      <trkpt lat="49.03955" lon="1.11702">
        <ele>129</ele>
        <time>2011-09-25T09:59:55Z</time>
      </trkpt>
      <trkpt lat="49.03961" lon="1.11706">
        <ele>130</ele>
        <time>2011-09-25T09:59:58Z</time>
      </trkpt>
      <trkpt lat="49.03966" lon="1.11709">
        <ele>130</ele>
        <time>2011-09-25T10:00:01Z</time>
      </trkpt>
      <trkpt lat="49.03971" lon="1.11711">
        <ele>131</ele>
        <time>2011-09-25T10:00:04Z</time>
      </trkpt>
      <trkpt lat="49.03978" lon="1.1171">
        <ele>131</ele>
        <time>2011-09-25T10:00:08Z</time>
      </trkpt>
      <trkpt lat="49.03981" lon="1.11705">
        <ele>132</ele>
        <time>2011-09-25T10:00:11Z</time>
      </trkpt>
      <trkpt lat="49.03981" lon="1.11705">
        <ele>132</ele>
        <time>2011-09-25T10:00:11Z</time>
      </trkpt>
      <trkpt lat="49.03981" lon="1.11705">
        <ele>132</ele>
        <time>2011-09-25T10:00:12Z</time>
      </trkpt>
      <trkpt lat="49.03983" lon="1.11697">
        <ele>132</ele>
        <time>2011-09-25T10:00:14Z</time>
      </trkpt>
      <trkpt lat="49.03984" lon="1.11688">
        <ele>133</ele>
        <time>2011-09-25T10:00:17Z</time>
      </trkpt>
      <trkpt lat="49.03985" lon="1.11679">
        <ele>133</ele>
        <time>2011-09-25T10:00:20Z</time>
      </trkpt>
      <trkpt lat="49.03987" lon="1.11669">
        <ele>135</ele>
        <time>2011-09-25T10:00:23Z</time>
      </trkpt>
      <trkpt lat="49.03988" lon="1.1166">
        <ele>135</ele>
        <time>2011-09-25T10:00:25Z</time>
      </trkpt>
      <trkpt lat="49.03989" lon="1.11651">
        <ele>134</ele>
        <time>2011-09-25T10:00:27Z</time>
      </trkpt>
      <trkpt lat="49.0399" lon="1.11641">
        <ele>134</ele>
        <time>2011-09-25T10:00:29Z</time>
      </trkpt>
      <trkpt lat="49.03992" lon="1.1163">
        <ele>133</ele>
        <time>2011-09-25T10:00:31Z</time>
      </trkpt>
      <trkpt lat="49.03993" lon="1.1162">
        <ele>133</ele>
        <time>2011-09-25T10:00:33Z</time>
      </trkpt>
      <trkpt lat="49.03994" lon="1.1161">
        <ele>134</ele>
        <time>2011-09-25T10:00:35Z</time>
      </trkpt>
      <trkpt lat="49.03997" lon="1.116">
        <ele>135</ele>
        <time>2011-09-25T10:00:37Z</time>
      </trkpt>
      <trkpt lat="49.03998" lon="1.1159">
        <ele>136</ele>
        <time>2011-09-25T10:00:39Z</time>
      </trkpt>
      <trkpt lat="49.04" lon="1.11581">
        <ele>138</ele>
        <time>2011-09-25T10:00:41Z</time>
      </trkpt>
      <trkpt lat="49.04002" lon="1.11571">
        <ele>139</ele>
        <time>2011-09-25T10:00:43Z</time>
      </trkpt>
      <trkpt lat="49.04003" lon="1.11561">
        <ele>139</ele>
        <time>2011-09-25T10:00:45Z</time>
      </trkpt>
      <trkpt lat="49.04005" lon="1.1155">
        <ele>139</ele>
        <time>2011-09-25T10:00:47Z</time>
      </trkpt>
      <trkpt lat="49.04005" lon="1.1154">
        <ele>140</ele>
        <time>2011-09-25T10:00:49Z</time>
      </trkpt>
      <trkpt lat="49.04007" lon="1.1153">
        <ele>140</ele>
        <time>2011-09-25T10:00:51Z</time>
      </trkpt>
      <trkpt lat="49.04009" lon="1.1152">
        <ele>140</ele>
        <time>2011-09-25T10:00:53Z</time>
      </trkpt>
      <trkpt lat="49.0401" lon="1.11509">
        <ele>140</ele>
        <time>2011-09-25T10:00:55Z</time>
      </trkpt>
      <trkpt lat="49.04012" lon="1.11498">
        <ele>140</ele>
        <time>2011-09-25T10:00:57Z</time>
      </trkpt>
      <trkpt lat="49.04014" lon="1.11487">
        <ele>140</ele>
        <time>2011-09-25T10:00:59Z</time>
      </trkpt>
      <trkpt lat="49.04015" lon="1.11478">
        <ele>140</ele>
        <time>2011-09-25T10:01:01Z</time>
      </trkpt>
      <trkpt lat="49.04016" lon="1.11467">
        <ele>140</ele>
        <time>2011-09-25T10:01:03Z</time>
      </trkpt>
      <trkpt lat="49.04017" lon="1.11456">
        <ele>140</ele>
        <time>2011-09-25T10:01:05Z</time>
      </trkpt>
      <trkpt lat="49.04017" lon="1.11444">
        <ele>140</ele>
        <time>2011-09-25T10:01:07Z</time>
      </trkpt>
      <trkpt lat="49.04018" lon="1.11432">
        <ele>139</ele>
        <time>2011-09-25T10:01:09Z</time>
      </trkpt>
      <trkpt lat="49.04019" lon="1.11425">
        <ele>139</ele>
        <time>2011-09-25T10:01:10Z</time>
      </trkpt>
      <trkpt lat="49.04021" lon="1.11418">
        <ele>139</ele>
        <time>2011-09-25T10:01:11Z</time>
      </trkpt>
      <trkpt lat="49.04024" lon="1.11411">
        <ele>139</ele>
        <time>2011-09-25T10:01:12Z</time>
      </trkpt>
      <trkpt lat="49.04026" lon="1.11405">
        <ele>139</ele>
        <time>2011-09-25T10:01:13Z</time>
      </trkpt>
      <trkpt lat="49.04032" lon="1.11399">
        <ele>139</ele>
        <time>2011-09-25T10:01:15Z</time>
      </trkpt>
      <trkpt lat="49.04037" lon="1.11399">
        <ele>139</ele>
        <time>2011-09-25T10:01:17Z</time>
      </trkpt>
      <trkpt lat="49.04043" lon="1.11401">
        <ele>139</ele>
        <time>2011-09-25T10:01:19Z</time>
      </trkpt>
      <trkpt lat="49.04049" lon="1.11404">
        <ele>139</ele>
        <time>2011-09-25T10:01:21Z</time>
      </trkpt>
      <trkpt lat="49.04056" lon="1.11408">
        <ele>139</ele>
        <time>2011-09-25T10:01:23Z</time>
      </trkpt>
      <trkpt lat="49.04061" lon="1.11414">
        <ele>140</ele>
        <time>2011-09-25T10:01:25Z</time>
      </trkpt>
      <trkpt lat="49.04066" lon="1.11422">
        <ele>140</ele>
        <time>2011-09-25T10:01:27Z</time>
      </trkpt>
      <trkpt lat="49.04072" lon="1.1143">
        <ele>140</ele>
        <time>2011-09-25T10:01:29Z</time>
      </trkpt>
      <trkpt lat="49.04079" lon="1.11435">
        <ele>140</ele>
        <time>2011-09-25T10:01:31Z</time>
      </trkpt>
      <trkpt lat="49.04085" lon="1.11442">
        <ele>141</ele>
        <time>2011-09-25T10:01:33Z</time>
      </trkpt>
      <trkpt lat="49.04092" lon="1.11447">
        <ele>141</ele>
        <time>2011-09-25T10:01:35Z</time>
      </trkpt>
      <trkpt lat="49.04098" lon="1.11452">
        <ele>140</ele>
        <time>2011-09-25T10:01:37Z</time>
      </trkpt>
      <trkpt lat="49.04106" lon="1.11459">
        <ele>140</ele>
        <time>2011-09-25T10:01:39Z</time>
      </trkpt>
      <trkpt lat="49.04112" lon="1.11466">
        <ele>140</ele>
        <time>2011-09-25T10:01:41Z</time>
      </trkpt>
      <trkpt lat="49.04117" lon="1.11474">
        <ele>140</ele>
        <time>2011-09-25T10:01:43Z</time>
      </trkpt>
      <trkpt lat="49.04122" lon="1.11482">
        <ele>140</ele>
        <time>2011-09-25T10:01:45Z</time>
      </trkpt>
      <trkpt lat="49.04127" lon="1.1149">
        <ele>140</ele>
        <time>2011-09-25T10:01:47Z</time>
      </trkpt>
      <trkpt lat="49.04133" lon="1.115">
        <ele>140</ele>
        <time>2011-09-25T10:01:49Z</time>
      </trkpt>
      <trkpt lat="49.04138" lon="1.11509">
        <ele>140</ele>
        <time>2011-09-25T10:01:51Z</time>
      </trkpt>
      <trkpt lat="49.04144" lon="1.11517">
        <ele>140</ele>
        <time>2011-09-25T10:01:53Z</time>
      </trkpt>
      <trkpt lat="49.04151" lon="1.11525">
        <ele>140</ele>
        <time>2011-09-25T10:01:55Z</time>
      </trkpt>
      <trkpt lat="49.04158" lon="1.11533">
        <ele>140</ele>
        <time>2011-09-25T10:01:57Z</time>
      </trkpt>
      <trkpt lat="49.04163" lon="1.1154">
        <ele>140</ele>
        <time>2011-09-25T10:01:59Z</time>
      </trkpt>
      <trkpt lat="49.0417" lon="1.11544">
        <ele>140</ele>
        <time>2011-09-25T10:02:01Z</time>
      </trkpt>
      <trkpt lat="49.04174" lon="1.1155">
        <ele>140</ele>
        <time>2011-09-25T10:02:03Z</time>
      </trkpt>
      <trkpt lat="49.04177" lon="1.11556">
        <ele>140</ele>
        <time>2011-09-25T10:02:05Z</time>
      </trkpt>
      <trkpt lat="49.04179" lon="1.11564">
        <ele>140</ele>
        <time>2011-09-25T10:02:07Z</time>
      </trkpt>
      <trkpt lat="49.0418" lon="1.11574">
        <ele>140</ele>
        <time>2011-09-25T10:02:09Z</time>
      </trkpt>
      <trkpt lat="49.04178" lon="1.11583">
        <ele>140</ele>
        <time>2011-09-25T10:02:11Z</time>
      </trkpt>
      <trkpt lat="49.04176" lon="1.11593">
        <ele>140</ele>
        <time>2011-09-25T10:02:13Z</time>
      </trkpt>
      <trkpt lat="49.04173" lon="1.11604">
        <ele>140</ele>
        <time>2011-09-25T10:02:15Z</time>
      </trkpt>
      <trkpt lat="49.04171" lon="1.11616">
        <ele>140</ele>
        <time>2011-09-25T10:02:17Z</time>
      </trkpt>
      <trkpt lat="49.04168" lon="1.11628">
        <ele>140</ele>
        <time>2011-09-25T10:02:19Z</time>
      </trkpt>
      <trkpt lat="49.04165" lon="1.11641">
        <ele>141</ele>
        <time>2011-09-25T10:02:21Z</time>
      </trkpt>
      <trkpt lat="49.04164" lon="1.11648">
        <ele>141</ele>
        <time>2011-09-25T10:02:22Z</time>
      </trkpt>
      <trkpt lat="49.04162" lon="1.11654">
        <ele>141</ele>
        <time>2011-09-25T10:02:23Z</time>
      </trkpt>
      <trkpt lat="49.04161" lon="1.11661">
        <ele>141</ele>
        <time>2011-09-25T10:02:24Z</time>
      </trkpt>
      <trkpt lat="49.04159" lon="1.11667">
        <ele>141</ele>
        <time>2011-09-25T10:02:25Z</time>
      </trkpt>
      <trkpt lat="49.04156" lon="1.1168">
        <ele>141</ele>
        <time>2011-09-25T10:02:27Z</time>
      </trkpt>
      <trkpt lat="49.04153" lon="1.11692">
        <ele>141</ele>
        <time>2011-09-25T10:02:29Z</time>
      </trkpt>
      <trkpt lat="49.04152" lon="1.11699">
        <ele>141</ele>
        <time>2011-09-25T10:02:30Z</time>
      </trkpt>
      <trkpt lat="49.04151" lon="1.11706">
        <ele>141</ele>
        <time>2011-09-25T10:02:31Z</time>
      </trkpt>
      <trkpt lat="49.04149" lon="1.11712">
        <ele>141</ele>
        <time>2011-09-25T10:02:32Z</time>
      </trkpt>
      <trkpt lat="49.04148" lon="1.11719">
        <ele>141</ele>
        <time>2011-09-25T10:02:33Z</time>
      </trkpt>
      <trkpt lat="49.04146" lon="1.11726">
        <ele>141</ele>
        <time>2011-09-25T10:02:34Z</time>
      </trkpt>
      <trkpt lat="49.04144" lon="1.11732">
        <ele>141</ele>
        <time>2011-09-25T10:02:35Z</time>
      </trkpt>
      <trkpt lat="49.04142" lon="1.11739">
        <ele>141</ele>
        <time>2011-09-25T10:02:36Z</time>
      </trkpt>
      <trkpt lat="49.0414" lon="1.11746">
        <ele>141</ele>
        <time>2011-09-25T10:02:37Z</time>
      </trkpt>
      <trkpt lat="49.04137" lon="1.11752">
        <ele>142</ele>
        <time>2011-09-25T10:02:38Z</time>
      </trkpt>
      <trkpt lat="49.04135" lon="1.11759">
        <ele>142</ele>
        <time>2011-09-25T10:02:39Z</time>
      </trkpt>
      <trkpt lat="49.04133" lon="1.11765">
        <ele>142</ele>
        <time>2011-09-25T10:02:40Z</time>
      </trkpt>
      <trkpt lat="49.04131" lon="1.11772">
        <ele>142</ele>
        <time>2011-09-25T10:02:41Z</time>
      </trkpt>
      <trkpt lat="49.04129" lon="1.11778">
        <ele>142</ele>
        <time>2011-09-25T10:02:42Z</time>
      </trkpt>
      <trkpt lat="49.04125" lon="1.1179">
        <ele>142</ele>
        <time>2011-09-25T10:02:44Z</time>
      </trkpt>
      <trkpt lat="49.04121" lon="1.11802">
        <ele>142</ele>
        <time>2011-09-25T10:02:46Z</time>
      </trkpt>
      <trkpt lat="49.04116" lon="1.11814">
        <ele>142</ele>
        <time>2011-09-25T10:02:48Z</time>
      </trkpt>
      <trkpt lat="49.04112" lon="1.11826">
        <ele>142</ele>
        <time>2011-09-25T10:02:50Z</time>
      </trkpt>
      <trkpt lat="49.0411" lon="1.11832">
        <ele>142</ele>
        <time>2011-09-25T10:02:51Z</time>
      </trkpt>
      <trkpt lat="49.04107" lon="1.11839">
        <ele>142</ele>
        <time>2011-09-25T10:02:52Z</time>
      </trkpt>
      <trkpt lat="49.04104" lon="1.11845">
        <ele>142</ele>
        <time>2011-09-25T10:02:53Z</time>
      </trkpt>
      <trkpt lat="49.04101" lon="1.11851">
        <ele>142</ele>
        <time>2011-09-25T10:02:54Z</time>
      </trkpt>
      <trkpt lat="49.04096" lon="1.11862">
        <ele>142</ele>
        <time>2011-09-25T10:02:56Z</time>
      </trkpt>
      <trkpt lat="49.04094" lon="1.11872">
        <ele>142</ele>
        <time>2011-09-25T10:02:58Z</time>
      </trkpt>
      <trkpt lat="49.04094" lon="1.11882">
        <ele>142</ele>
        <time>2011-09-25T10:03:00Z</time>
      </trkpt>
      <trkpt lat="49.04098" lon="1.11889">
        <ele>142</ele>
        <time>2011-09-25T10:03:02Z</time>
      </trkpt>
      <trkpt lat="49.04105" lon="1.11896">
        <ele>142</ele>
        <time>2011-09-25T10:03:04Z</time>
      </trkpt>
      <trkpt lat="49.0411" lon="1.11905">
        <ele>142</ele>
        <time>2011-09-25T10:03:06Z</time>
      </trkpt>
      <trkpt lat="49.04117" lon="1.11915">
        <ele>142</ele>
        <time>2011-09-25T10:03:08Z</time>
      </trkpt>
      <trkpt lat="49.04121" lon="1.1192">
        <ele>143</ele>
        <time>2011-09-25T10:03:09Z</time>
      </trkpt>
      <trkpt lat="49.04125" lon="1.11925">
        <ele>143</ele>
        <time>2011-09-25T10:03:10Z</time>
      </trkpt>
      <trkpt lat="49.04129" lon="1.11931">
        <ele>142</ele>
        <time>2011-09-25T10:03:11Z</time>
      </trkpt>
      <trkpt lat="49.04132" lon="1.11936">
        <ele>142</ele>
        <time>2011-09-25T10:03:12Z</time>
      </trkpt>
      <trkpt lat="49.04136" lon="1.11941">
        <ele>142</ele>
        <time>2011-09-25T10:03:13Z</time>
      </trkpt>
      <trkpt lat="49.04139" lon="1.11947">
        <ele>142</ele>
        <time>2011-09-25T10:03:14Z</time>
      </trkpt>
      <trkpt lat="49.04142" lon="1.11954">
        <ele>142</ele>
        <time>2011-09-25T10:03:15Z</time>
      </trkpt>
      <trkpt lat="49.04145" lon="1.1196">
        <ele>143</ele>
        <time>2011-09-25T10:03:16Z</time>
      </trkpt>
      <trkpt lat="49.04148" lon="1.11966">
        <ele>143</ele>
        <time>2011-09-25T10:03:17Z</time>
      </trkpt>
      <trkpt lat="49.04151" lon="1.11972">
        <ele>143</ele>
        <time>2011-09-25T10:03:18Z</time>
      </trkpt>
      <trkpt lat="49.04154" lon="1.11977">
        <ele>143</ele>
        <time>2011-09-25T10:03:19Z</time>
      </trkpt>
      <trkpt lat="49.04157" lon="1.11982">
        <ele>143</ele>
        <time>2011-09-25T10:03:20Z</time>
      </trkpt>
      <trkpt lat="49.0416" lon="1.11988">
        <ele>143</ele>
        <time>2011-09-25T10:03:21Z</time>
      </trkpt>
      <trkpt lat="49.04165" lon="1.11998">
        <ele>143</ele>
        <time>2011-09-25T10:03:23Z</time>
      </trkpt>
      <trkpt lat="49.04171" lon="1.12008">
        <ele>143</ele>
        <time>2011-09-25T10:03:25Z</time>
      </trkpt>
      <trkpt lat="49.04177" lon="1.12018">
        <ele>144</ele>
        <time>2011-09-25T10:03:27Z</time>
      </trkpt>
      <trkpt lat="49.04182" lon="1.12027">
        <ele>144</ele>
        <time>2011-09-25T10:03:29Z</time>
      </trkpt>
      <trkpt lat="49.04185" lon="1.12032">
        <ele>144</ele>
        <time>2011-09-25T10:03:30Z</time>
      </trkpt>
      <trkpt lat="49.04188" lon="1.12037">
        <ele>144</ele>
        <time>2011-09-25T10:03:31Z</time>
      </trkpt>
      <trkpt lat="49.04191" lon="1.12043">
        <ele>144</ele>
        <time>2011-09-25T10:03:32Z</time>
      </trkpt>
      <trkpt lat="49.04194" lon="1.12048">
        <ele>144</ele>
        <time>2011-09-25T10:03:33Z</time>
      </trkpt>
      <trkpt lat="49.04197" lon="1.12053">
        <ele>144</ele>
        <time>2011-09-25T10:03:34Z</time>
      </trkpt>
      <trkpt lat="49.042" lon="1.12058">
        <ele>144</ele>
        <time>2011-09-25T10:03:35Z</time>
      </trkpt>
      <trkpt lat="49.04203" lon="1.12064">
        <ele>145</ele>
        <time>2011-09-25T10:03:36Z</time>
      </trkpt>
      <trkpt lat="49.04206" lon="1.12069">
        <ele>145</ele>
        <time>2011-09-25T10:03:37Z</time>
      </trkpt>
      <trkpt lat="49.04209" lon="1.12074">
        <ele>145</ele>
        <time>2011-09-25T10:03:38Z</time>
      </trkpt>
      <trkpt lat="49.04212" lon="1.12079">
        <ele>145</ele>
        <time>2011-09-25T10:03:39Z</time>
      </trkpt>
      <trkpt lat="49.04215" lon="1.12084">
        <ele>145</ele>
        <time>2011-09-25T10:03:40Z</time>
      </trkpt>
      <trkpt lat="49.04218" lon="1.1209">
        <ele>146</ele>
        <time>2011-09-25T10:03:41Z</time>
      </trkpt>
      <trkpt lat="49.04221" lon="1.12096">
        <ele>146</ele>
        <time>2011-09-25T10:03:42Z</time>
      </trkpt>
      <trkpt lat="49.04223" lon="1.12103">
        <ele>146</ele>
        <time>2011-09-25T10:03:43Z</time>
      </trkpt>
      <trkpt lat="49.04226" lon="1.1211">
        <ele>146</ele>
        <time>2011-09-25T10:03:44Z</time>
      </trkpt>
      <trkpt lat="49.04228" lon="1.12117">
        <ele>146</ele>
        <time>2011-09-25T10:03:45Z</time>
      </trkpt>
      <trkpt lat="49.0423" lon="1.12124">
        <ele>146</ele>
        <time>2011-09-25T10:03:46Z</time>
      </trkpt>
      <trkpt lat="49.04232" lon="1.12131">
        <ele>146</ele>
        <time>2011-09-25T10:03:47Z</time>
      </trkpt>
      <trkpt lat="49.04232" lon="1.12138">
        <ele>146</ele>
        <time>2011-09-25T10:03:48Z</time>
      </trkpt>
      <trkpt lat="49.04232" lon="1.12146">
        <ele>146</ele>
        <time>2011-09-25T10:03:49Z</time>
      </trkpt>
      <trkpt lat="49.04233" lon="1.12153">
        <ele>146</ele>
        <time>2011-09-25T10:03:50Z</time>
      </trkpt>
      <trkpt lat="49.04233" lon="1.1216">
        <ele>147</ele>
        <time>2011-09-25T10:03:51Z</time>
      </trkpt>
      <trkpt lat="49.04232" lon="1.12168">
        <ele>146</ele>
        <time>2011-09-25T10:03:52Z</time>
      </trkpt>
      <trkpt lat="49.0423" lon="1.12175">
        <ele>146</ele>
        <time>2011-09-25T10:03:53Z</time>
      </trkpt>
      <trkpt lat="49.04229" lon="1.12182">
        <ele>146</ele>
        <time>2011-09-25T10:03:54Z</time>
      </trkpt>
      <trkpt lat="49.04228" lon="1.12188">
        <ele>146</ele>
        <time>2011-09-25T10:03:55Z</time>
      </trkpt>
      <trkpt lat="49.04227" lon="1.12196">
        <ele>146</ele>
        <time>2011-09-25T10:03:56Z</time>
      </trkpt>
      <trkpt lat="49.04227" lon="1.12203">
        <ele>145</ele>
        <time>2011-09-25T10:03:57Z</time>
      </trkpt>
      <trkpt lat="49.04227" lon="1.1221">
        <ele>145</ele>
        <time>2011-09-25T10:03:58Z</time>
      </trkpt>
      <trkpt lat="49.04228" lon="1.12217">
        <ele>145</ele>
        <time>2011-09-25T10:03:59Z</time>
      </trkpt>
      <trkpt lat="49.04228" lon="1.12224">
        <ele>145</ele>
        <time>2011-09-25T10:04:00Z</time>
      </trkpt>
      <trkpt lat="49.04228" lon="1.12232">
        <ele>145</ele>
        <time>2011-09-25T10:04:01Z</time>
      </trkpt>
      <trkpt lat="49.04228" lon="1.12239">
        <ele>145</ele>
        <time>2011-09-25T10:04:02Z</time>
      </trkpt>
      <trkpt lat="49.04228" lon="1.12247">
        <ele>145</ele>
        <time>2011-09-25T10:04:03Z</time>
      </trkpt>
      <trkpt lat="49.04228" lon="1.12254">
        <ele>144</ele>
        <time>2011-09-25T10:04:04Z</time>
      </trkpt>
      <trkpt lat="49.04228" lon="1.12262">
        <ele>144</ele>
        <time>2011-09-25T10:04:05Z</time>
      </trkpt>
      <trkpt lat="49.04229" lon="1.1227">
        <ele>144</ele>
        <time>2011-09-25T10:04:06Z</time>
      </trkpt>
      <trkpt lat="49.04231" lon="1.12277">
        <ele>144</ele>
        <time>2011-09-25T10:04:07Z</time>
      </trkpt>
      <trkpt lat="49.04233" lon="1.12285">
        <ele>144</ele>
        <time>2011-09-25T10:04:08Z</time>
      </trkpt>
      <trkpt lat="49.04234" lon="1.12292">
        <ele>144</ele>
        <time>2011-09-25T10:04:09Z</time>
      </trkpt>
      <trkpt lat="49.04236" lon="1.12299">
        <ele>144</ele>
        <time>2011-09-25T10:04:10Z</time>
      </trkpt>
      <trkpt lat="49.04238" lon="1.12307">
        <ele>144</ele>
        <time>2011-09-25T10:04:11Z</time>
      </trkpt>
      <trkpt lat="49.04239" lon="1.12314">
        <ele>144</ele>
        <time>2011-09-25T10:04:12Z</time>
      </trkpt>
      <trkpt lat="49.04241" lon="1.12322">
        <ele>144</ele>
        <time>2011-09-25T10:04:13Z</time>
      </trkpt>
      <trkpt lat="49.04242" lon="1.12331">
        <ele>145</ele>
        <time>2011-09-25T10:04:14Z</time>
      </trkpt>
      <trkpt lat="49.04242" lon="1.12339">
        <ele>144</ele>
        <time>2011-09-25T10:04:15Z</time>
      </trkpt>
      <trkpt lat="49.04243" lon="1.12347">
        <ele>144</ele>
        <time>2011-09-25T10:04:16Z</time>
      </trkpt>
      <trkpt lat="49.04243" lon="1.12355">
        <ele>143</ele>
        <time>2011-09-25T10:04:17Z</time>
      </trkpt>
      <trkpt lat="49.04243" lon="1.12362">
        <ele>143</ele>
        <time>2011-09-25T10:04:18Z</time>
      </trkpt>
      <trkpt lat="49.04243" lon="1.12371">
        <ele>143</ele>
        <time>2011-09-25T10:04:20Z</time>
      </trkpt>
      <trkpt lat="49.04249" lon="1.12377">
        <ele>143</ele>
        <time>2011-09-25T10:04:22Z</time>
      </trkpt>
      <trkpt lat="49.04256" lon="1.12377">
        <ele>143</ele>
        <time>2011-09-25T10:04:24Z</time>
      </trkpt>
      <trkpt lat="49.04262" lon="1.12373">
        <ele>143</ele>
        <time>2011-09-25T10:04:26Z</time>
      </trkpt>
      <trkpt lat="49.04268" lon="1.12371">
        <ele>143</ele>
        <time>2011-09-25T10:04:28Z</time>
      </trkpt>
      <trkpt lat="49.04272" lon="1.12369">
        <ele>143</ele>
        <time>2011-09-25T10:04:29Z</time>
      </trkpt>
      <trkpt lat="49.04278" lon="1.12366">
        <ele>143</ele>
        <time>2011-09-25T10:04:31Z</time>
      </trkpt>
      <trkpt lat="49.04283" lon="1.12363">
        <ele>143</ele>
        <time>2011-09-25T10:04:34Z</time>
      </trkpt>
      <trkpt lat="49.04283" lon="1.12363">
        <ele>143</ele>
        <time>2011-09-25T10:04:34Z</time>
      </trkpt>
      <trkpt lat="49.04283" lon="1.12363">
        <ele>143</ele>
        <time>2011-09-25T10:04:35Z</time>
      </trkpt>
      <trkpt lat="49.04288" lon="1.12358">
        <ele>143</ele>
        <time>2011-09-25T10:04:37Z</time>
      </trkpt>
      <trkpt lat="49.04288" lon="1.12358">
        <ele>143</ele>
        <time>2011-09-25T10:04:37Z</time>
      </trkpt>
      <trkpt lat="49.04288" lon="1.12358">
        <ele>143</ele>
        <time>2011-09-25T10:04:43Z</time>
      </trkpt>
      <trkpt lat="49.04294" lon="1.12352">
        <ele>143</ele>
        <time>2011-09-25T10:04:44Z</time>
      </trkpt>
      <trkpt lat="49.04299" lon="1.12347">
        <ele>143</ele>
        <time>2011-09-25T10:04:47Z</time>
      </trkpt>
      <trkpt lat="49.04299" lon="1.12347">
        <ele>143</ele>
        <time>2011-09-25T10:04:47Z</time>
      </trkpt>
      <trkpt lat="49.04299" lon="1.12347">
        <ele>143</ele>
        <time>2011-09-25T10:04:48Z</time>
      </trkpt>
      <trkpt lat="49.04304" lon="1.12343">
        <ele>143</ele>
        <time>2011-09-25T10:04:49Z</time>
      </trkpt>
      <trkpt lat="49.04306" lon="1.12336">
        <ele>143</ele>
        <time>2011-09-25T10:04:51Z</time>
      </trkpt>
      <trkpt lat="49.04309" lon="1.12325">
        <ele>144</ele>
        <time>2011-09-25T10:04:53Z</time>
      </trkpt>
      <trkpt lat="49.04312" lon="1.12315">
        <ele>144</ele>
        <time>2011-09-25T10:04:55Z</time>
      </trkpt>
      <trkpt lat="49.04313" lon="1.12303">
        <ele>144</ele>
        <time>2011-09-25T10:04:57Z</time>
      </trkpt>
      <trkpt lat="49.04315" lon="1.12291">
        <ele>144</ele>
        <time>2011-09-25T10:04:59Z</time>
      </trkpt>
      <trkpt lat="49.04316" lon="1.12278">
        <ele>144</ele>
        <time>2011-09-25T10:05:01Z</time>
      </trkpt>
      <trkpt lat="49.0432" lon="1.12265">
        <ele>144</ele>
        <time>2011-09-25T10:05:03Z</time>
      </trkpt>
      <trkpt lat="49.04323" lon="1.12258">
        <ele>143</ele>
        <time>2011-09-25T10:05:04Z</time>
      </trkpt>
      <trkpt lat="49.04326" lon="1.12251">
        <ele>143</ele>
        <time>2011-09-25T10:05:05Z</time>
      </trkpt>
      <trkpt lat="49.04329" lon="1.12244">
        <ele>143</ele>
        <time>2011-09-25T10:05:06Z</time>
      </trkpt>
      <trkpt lat="49.04331" lon="1.12236">
        <ele>144</ele>
        <time>2011-09-25T10:05:07Z</time>
      </trkpt>
      <trkpt lat="49.04333" lon="1.12228">
        <ele>144</ele>
        <time>2011-09-25T10:05:08Z</time>
      </trkpt>
      <trkpt lat="49.04335" lon="1.12221">
        <ele>140</ele>
        <time>2011-09-25T10:05:09Z</time>
      </trkpt>
      <trkpt lat="49.04337" lon="1.12212">
        <ele>140</ele>
        <time>2011-09-25T10:05:10Z</time>
      </trkpt>
      <trkpt lat="49.04338" lon="1.12203">
        <ele>140</ele>
        <time>2011-09-25T10:05:11Z</time>
      </trkpt>
      <trkpt lat="49.0434" lon="1.12194">
        <ele>140</ele>
        <time>2011-09-25T10:05:12Z</time>
      </trkpt>
      <trkpt lat="49.04343" lon="1.12186">
        <ele>140</ele>
        <time>2011-09-25T10:05:13Z</time>
      </trkpt>
      <trkpt lat="49.04345" lon="1.12178">
        <ele>141</ele>
        <time>2011-09-25T10:05:14Z</time>
      </trkpt>
      <trkpt lat="49.04346" lon="1.12169">
        <ele>141</ele>
        <time>2011-09-25T10:05:15Z</time>
      </trkpt>
      <trkpt lat="49.04347" lon="1.12161">
        <ele>140</ele>
        <time>2011-09-25T10:05:16Z</time>
      </trkpt>
      <trkpt lat="49.04349" lon="1.12153">
        <ele>139</ele>
        <time>2011-09-25T10:05:17Z</time>
      </trkpt>
      <trkpt lat="49.0435" lon="1.12145">
        <ele>138</ele>
        <time>2011-09-25T10:05:18Z</time>
      </trkpt>
      <trkpt lat="49.04351" lon="1.12138">
        <ele>137</ele>
        <time>2011-09-25T10:05:19Z</time>
      </trkpt>
      <trkpt lat="49.04352" lon="1.12129">
        <ele>137</ele>
        <time>2011-09-25T10:05:20Z</time>
      </trkpt>
      <trkpt lat="49.04353" lon="1.12121">
        <ele>137</ele>
        <time>2011-09-25T10:05:21Z</time>
      </trkpt>
      <trkpt lat="49.04352" lon="1.12113">
        <ele>137</ele>
        <time>2011-09-25T10:05:22Z</time>
      </trkpt>
      <trkpt lat="49.0435" lon="1.12104">
        <ele>137</ele>
        <time>2011-09-25T10:05:23Z</time>
      </trkpt>
      <trkpt lat="49.04348" lon="1.12096">
        <ele>137</ele>
        <time>2011-09-25T10:05:24Z</time>
      </trkpt>
      <trkpt lat="49.04345" lon="1.12088">
        <ele>138</ele>
        <time>2011-09-25T10:05:25Z</time>
      </trkpt>
      <trkpt lat="49.04343" lon="1.1208">
        <ele>138</ele>
        <time>2011-09-25T10:05:26Z</time>
      </trkpt>
      <trkpt lat="49.0434" lon="1.12072">
        <ele>137</ele>
        <time>2011-09-25T10:05:27Z</time>
      </trkpt>
      <trkpt lat="49.04338" lon="1.12064">
        <ele>137</ele>
        <time>2011-09-25T10:05:28Z</time>
      </trkpt>
      <trkpt lat="49.04335" lon="1.12056">
        <ele>136</ele>
        <time>2011-09-25T10:05:29Z</time>
      </trkpt>
      <trkpt lat="49.04332" lon="1.12049">
        <ele>141</ele>
        <time>2011-09-25T10:05:30Z</time>
      </trkpt>
      <trkpt lat="49.04329" lon="1.12042">
        <ele>141</ele>
        <time>2011-09-25T10:05:31Z</time>
      </trkpt>
      <trkpt lat="49.04326" lon="1.12034">
        <ele>141</ele>
        <time>2011-09-25T10:05:32Z</time>
      </trkpt>
      <trkpt lat="49.04325" lon="1.12025">
        <ele>141</ele>
        <time>2011-09-25T10:05:33Z</time>
      </trkpt>
      <trkpt lat="49.04324" lon="1.12017">
        <ele>141</ele>
        <time>2011-09-25T10:05:34Z</time>
      </trkpt>
      <trkpt lat="49.0432" lon="1.1201">
        <ele>141</ele>
        <time>2011-09-25T10:05:35Z</time>
      </trkpt>
      <trkpt lat="49.04316" lon="1.12004">
        <ele>141</ele>
        <time>2011-09-25T10:05:36Z</time>
      </trkpt>
      <trkpt lat="49.04313" lon="1.11997">
        <ele>141</ele>
        <time>2011-09-25T10:05:37Z</time>
      </trkpt>
      <trkpt lat="49.04309" lon="1.1199">
        <ele>141</ele>
        <time>2011-09-25T10:05:38Z</time>
      </trkpt>
      <trkpt lat="49.04306" lon="1.11983">
        <ele>141</ele>
        <time>2011-09-25T10:05:39Z</time>
      </trkpt>
      <trkpt lat="49.04304" lon="1.11975">
        <ele>141</ele>
        <time>2011-09-25T10:05:40Z</time>
      </trkpt>
      <trkpt lat="49.04303" lon="1.11967">
        <ele>141</ele>
        <time>2011-09-25T10:05:41Z</time>
      </trkpt>
      <trkpt lat="49.043" lon="1.1196">
        <ele>141</ele>
        <time>2011-09-25T10:05:42Z</time>
      </trkpt>
      <trkpt lat="49.04296" lon="1.11953">
        <ele>141</ele>
        <time>2011-09-25T10:05:43Z</time>
      </trkpt>
      <trkpt lat="49.04294" lon="1.11946">
        <ele>141</ele>
        <time>2011-09-25T10:05:44Z</time>
      </trkpt>
      <trkpt lat="49.0429" lon="1.11939">
        <ele>141</ele>
        <time>2011-09-25T10:05:45Z</time>
      </trkpt>
      <trkpt lat="49.04287" lon="1.11932">
        <ele>142</ele>
        <time>2011-09-25T10:05:46Z</time>
      </trkpt>
      <trkpt lat="49.04284" lon="1.11925">
        <ele>142</ele>
        <time>2011-09-25T10:05:47Z</time>
      </trkpt>
      <trkpt lat="49.04282" lon="1.11918">
        <ele>142</ele>
        <time>2011-09-25T10:05:48Z</time>
      </trkpt>
      <trkpt lat="49.04278" lon="1.11911">
        <ele>141</ele>
        <time>2011-09-25T10:05:49Z</time>
      </trkpt>
      <trkpt lat="49.04274" lon="1.11905">
        <ele>141</ele>
        <time>2011-09-25T10:05:50Z</time>
      </trkpt>
      <trkpt lat="49.04271" lon="1.11897">
        <ele>141</ele>
        <time>2011-09-25T10:05:51Z</time>
      </trkpt>
      <trkpt lat="49.04268" lon="1.1189">
        <ele>141</ele>
        <time>2011-09-25T10:05:52Z</time>
      </trkpt>
      <trkpt lat="49.04264" lon="1.11884">
        <ele>141</ele>
        <time>2011-09-25T10:05:53Z</time>
      </trkpt>
      <trkpt lat="49.04261" lon="1.11877">
        <ele>141</ele>
        <time>2011-09-25T10:05:54Z</time>
      </trkpt>
      <trkpt lat="49.04259" lon="1.1187">
        <ele>140</ele>
        <time>2011-09-25T10:05:55Z</time>
      </trkpt>
      <trkpt lat="49.04258" lon="1.11862">
        <ele>140</ele>
        <time>2011-09-25T10:05:56Z</time>
      </trkpt>
      <trkpt lat="49.04257" lon="1.11854">
        <ele>140</ele>
        <time>2011-09-25T10:05:57Z</time>
      </trkpt>
      <trkpt lat="49.04257" lon="1.11847">
        <ele>140</ele>
        <time>2011-09-25T10:05:58Z</time>
      </trkpt>
      <trkpt lat="49.04258" lon="1.11839">
        <ele>140</ele>
        <time>2011-09-25T10:05:59Z</time>
      </trkpt>
      <trkpt lat="49.0426" lon="1.11832">
        <ele>140</ele>
        <time>2011-09-25T10:06:00Z</time>
      </trkpt>
      <trkpt lat="49.04264" lon="1.11818">
        <ele>139</ele>
        <time>2011-09-25T10:06:04Z</time>
      </trkpt>
      <trkpt lat="49.04264" lon="1.11818">
        <ele>139</ele>
        <time>2011-09-25T10:06:04Z</time>
      </trkpt>
      <trkpt lat="49.04264" lon="1.11818">
        <ele>139</ele>
        <time>2011-09-25T10:06:08Z</time>
      </trkpt>
      <trkpt lat="49.04266" lon="1.11812">
        <ele>138</ele>
        <time>2011-09-25T10:06:09Z</time>
      </trkpt>
      <trkpt lat="49.04271" lon="1.11807">
        <ele>138</ele>
        <time>2011-09-25T10:06:11Z</time>
      </trkpt>
      <trkpt lat="49.04277" lon="1.11798">
        <ele>138</ele>
        <time>2011-09-25T10:06:13Z</time>
      </trkpt>
      <trkpt lat="49.04285" lon="1.11792">
        <ele>137</ele>
        <time>2011-09-25T10:06:15Z</time>
      </trkpt>
      <trkpt lat="49.04292" lon="1.11785">
        <ele>137</ele>
        <time>2011-09-25T10:06:17Z</time>
      </trkpt>
      <trkpt lat="49.04295" lon="1.1178">
        <ele>137</ele>
        <time>2011-09-25T10:06:18Z</time>
      </trkpt>
      <trkpt lat="49.04298" lon="1.11774">
        <ele>137</ele>
        <time>2011-09-25T10:06:19Z</time>
      </trkpt>
      <trkpt lat="49.04299" lon="1.11767">
        <ele>137</ele>
        <time>2011-09-25T10:06:20Z</time>
      </trkpt>
      <trkpt lat="49.043" lon="1.1176">
        <ele>136</ele>
        <time>2011-09-25T10:06:21Z</time>
      </trkpt>
      <trkpt lat="49.04296" lon="1.11748">
        <ele>136</ele>
        <time>2011-09-25T10:06:23Z</time>
      </trkpt>
      <trkpt lat="49.0429" lon="1.11738">
        <ele>137</ele>
        <time>2011-09-25T10:06:25Z</time>
      </trkpt>
      <trkpt lat="49.04287" lon="1.11732">
        <ele>137</ele>
        <time>2011-09-25T10:06:26Z</time>
      </trkpt>
      <trkpt lat="49.04284" lon="1.11727">
        <ele>137</ele>
        <time>2011-09-25T10:06:27Z</time>
      </trkpt>
      <trkpt lat="49.0428" lon="1.11721">
        <ele>137</ele>
        <time>2011-09-25T10:06:28Z</time>
      </trkpt>
      <trkpt lat="49.04277" lon="1.11716">
        <ele>137</ele>
        <time>2011-09-25T10:06:29Z</time>
      </trkpt>
      <trkpt lat="49.04273" lon="1.1171">
        <ele>137</ele>
        <time>2011-09-25T10:06:30Z</time>
      </trkpt>
      <trkpt lat="49.0427" lon="1.11704">
        <ele>137</ele>
        <time>2011-09-25T10:06:31Z</time>
      </trkpt>
      <trkpt lat="49.04266" lon="1.11698">
        <ele>137</ele>
        <time>2011-09-25T10:06:32Z</time>
      </trkpt>
      <trkpt lat="49.04263" lon="1.11692">
        <ele>137</ele>
        <time>2011-09-25T10:06:33Z</time>
      </trkpt>
      <trkpt lat="49.04259" lon="1.11686">
        <ele>138</ele>
        <time>2011-09-25T10:06:34Z</time>
      </trkpt>
      <trkpt lat="49.04256" lon="1.1168">
        <ele>138</ele>
        <time>2011-09-25T10:06:35Z</time>
      </trkpt>
      <trkpt lat="49.04252" lon="1.11674">
        <ele>138</ele>
        <time>2011-09-25T10:06:36Z</time>
      </trkpt>
      <trkpt lat="49.04249" lon="1.11668">
        <ele>139</ele>
        <time>2011-09-25T10:06:37Z</time>
      </trkpt>
      <trkpt lat="49.04247" lon="1.11662">
        <ele>139</ele>
        <time>2011-09-25T10:06:38Z</time>
      </trkpt>
      <trkpt lat="49.04244" lon="1.11657">
        <ele>139</ele>
        <time>2011-09-25T10:06:39Z</time>
      </trkpt>
      <trkpt lat="49.04241" lon="1.11651">
        <ele>139</ele>
        <time>2011-09-25T10:06:40Z</time>
      </trkpt>
      <trkpt lat="49.04237" lon="1.11646">
        <ele>139</ele>
        <time>2011-09-25T10:06:41Z</time>
      </trkpt>
      <trkpt lat="49.04234" lon="1.1164">
        <ele>139</ele>
        <time>2011-09-25T10:06:42Z</time>
      </trkpt>
      <trkpt lat="49.04231" lon="1.11634">
        <ele>139</ele>
        <time>2011-09-25T10:06:43Z</time>
      </trkpt>
      <trkpt lat="49.04228" lon="1.11628">
        <ele>139</ele>
        <time>2011-09-25T10:06:44Z</time>
      </trkpt>
      <trkpt lat="49.04225" lon="1.11622">
        <ele>139</ele>
        <time>2011-09-25T10:06:45Z</time>
      </trkpt>
      <trkpt lat="49.04222" lon="1.11617">
        <ele>140</ele>
        <time>2011-09-25T10:06:46Z</time>
      </trkpt>
      <trkpt lat="49.04218" lon="1.11611">
        <ele>140</ele>
        <time>2011-09-25T10:06:47Z</time>
      </trkpt>
      <trkpt lat="49.04215" lon="1.11606">
        <ele>140</ele>
        <time>2011-09-25T10:06:48Z</time>
      </trkpt>
      <trkpt lat="49.04211" lon="1.11601">
        <ele>140</ele>
        <time>2011-09-25T10:06:49Z</time>
      </trkpt>
      <trkpt lat="49.04207" lon="1.11597">
        <ele>140</ele>
        <time>2011-09-25T10:06:50Z</time>
      </trkpt>
      <trkpt lat="49.042" lon="1.11592">
        <ele>140</ele>
        <time>2011-09-25T10:06:52Z</time>
      </trkpt>
      <trkpt lat="49.04196" lon="1.11587">
        <ele>140</ele>
        <time>2011-09-25T10:06:54Z</time>
      </trkpt>
      <trkpt lat="49.04197" lon="1.11577">
        <ele>140</ele>
        <time>2011-09-25T10:06:57Z</time>
      </trkpt>
      <trkpt lat="49.042" lon="1.11569">
        <ele>140</ele>
        <time>2011-09-25T10:06:59Z</time>
      </trkpt>
      <trkpt lat="49.04204" lon="1.1156">
        <ele>139</ele>
        <time>2011-09-25T10:07:01Z</time>
      </trkpt>
      <trkpt lat="49.0421" lon="1.11549">
        <ele>139</ele>
        <time>2011-09-25T10:07:03Z</time>
      </trkpt>
      <trkpt lat="49.04213" lon="1.11543">
        <ele>139</ele>
        <time>2011-09-25T10:07:04Z</time>
      </trkpt>
      <trkpt lat="49.04217" lon="1.11537">
        <ele>139</ele>
        <time>2011-09-25T10:07:05Z</time>
      </trkpt>
      <trkpt lat="49.0422" lon="1.11531">
        <ele>139</ele>
        <time>2011-09-25T10:07:06Z</time>
      </trkpt>
      <trkpt lat="49.04224" lon="1.11524">
        <ele>139</ele>
        <time>2011-09-25T10:07:07Z</time>
      </trkpt>
      <trkpt lat="49.04228" lon="1.11517">
        <ele>139</ele>
        <time>2011-09-25T10:07:08Z</time>
      </trkpt>
      <trkpt lat="49.04233" lon="1.1151">
        <ele>139</ele>
        <time>2011-09-25T10:07:09Z</time>
      </trkpt>
      <trkpt lat="49.04237" lon="1.11504">
        <ele>139</ele>
        <time>2011-09-25T10:07:10Z</time>
      </trkpt>
      <trkpt lat="49.04241" lon="1.11497">
        <ele>138</ele>
        <time>2011-09-25T10:07:11Z</time>
      </trkpt>
      <trkpt lat="49.04246" lon="1.1149">
        <ele>138</ele>
        <time>2011-09-25T10:07:12Z</time>
      </trkpt>
      <trkpt lat="49.0425" lon="1.11483">
        <ele>138</ele>
        <time>2011-09-25T10:07:13Z</time>
      </trkpt>
      <trkpt lat="49.04255" lon="1.11476">
        <ele>136</ele>
        <time>2011-09-25T10:07:14Z</time>
      </trkpt>
      <trkpt lat="49.0426" lon="1.1147">
        <ele>135</ele>
        <time>2011-09-25T10:07:15Z</time>
      </trkpt>
      <trkpt lat="49.04265" lon="1.11462">
        <ele>135</ele>
        <time>2011-09-25T10:07:16Z</time>
      </trkpt>
      <trkpt lat="49.04271" lon="1.11456">
        <ele>135</ele>
        <time>2011-09-25T10:07:17Z</time>
      </trkpt>
      <trkpt lat="49.04277" lon="1.11448">
        <ele>135</ele>
        <time>2011-09-25T10:07:18Z</time>
      </trkpt>
      <trkpt lat="49.04284" lon="1.11441">
        <ele>134</ele>
        <time>2011-09-25T10:07:19Z</time>
      </trkpt>
      <trkpt lat="49.0429" lon="1.11432">
        <ele>134</ele>
        <time>2011-09-25T10:07:20Z</time>
      </trkpt>
      <trkpt lat="49.04297" lon="1.11423">
        <ele>134</ele>
        <time>2011-09-25T10:07:21Z</time>
      </trkpt>
      <trkpt lat="49.04304" lon="1.11414">
        <ele>133</ele>
        <time>2011-09-25T10:07:22Z</time>
      </trkpt>
      <trkpt lat="49.04312" lon="1.11405">
        <ele>133</ele>
        <time>2011-09-25T10:07:23Z</time>
      </trkpt>
      <trkpt lat="49.04318" lon="1.11396">
        <ele>133</ele>
        <time>2011-09-25T10:07:24Z</time>
      </trkpt>
      <trkpt lat="49.04325" lon="1.11387">
        <ele>133</ele>
        <time>2011-09-25T10:07:25Z</time>
      </trkpt>
      <trkpt lat="49.04331" lon="1.1138">
        <ele>133</ele>
        <time>2011-09-25T10:07:26Z</time>
      </trkpt>
      <trkpt lat="49.04337" lon="1.11373">
        <ele>132</ele>
        <time>2011-09-25T10:07:27Z</time>
      </trkpt>
      <trkpt lat="49.04342" lon="1.11368">
        <ele>132</ele>
        <time>2011-09-25T10:07:28Z</time>
      </trkpt>
      <trkpt lat="49.04347" lon="1.11362">
        <ele>132</ele>
        <time>2011-09-25T10:07:29Z</time>
      </trkpt>
      <trkpt lat="49.04351" lon="1.11356">
        <ele>132</ele>
        <time>2011-09-25T10:07:30Z</time>
      </trkpt>
      <trkpt lat="49.04355" lon="1.1135">
        <ele>133</ele>
        <time>2011-09-25T10:07:31Z</time>
      </trkpt>
      <trkpt lat="49.04358" lon="1.11345">
        <ele>133</ele>
        <time>2011-09-25T10:07:32Z</time>
      </trkpt>
      <trkpt lat="49.04362" lon="1.1134">
        <ele>133</ele>
        <time>2011-09-25T10:07:33Z</time>
      </trkpt>
      <trkpt lat="49.04366" lon="1.11335">
        <ele>133</ele>
        <time>2011-09-25T10:07:34Z</time>
      </trkpt>
      <trkpt lat="49.04369" lon="1.11329">
        <ele>133</ele>
        <time>2011-09-25T10:07:35Z</time>
      </trkpt>
      <trkpt lat="49.04372" lon="1.11324">
        <ele>133</ele>
        <time>2011-09-25T10:07:36Z</time>
      </trkpt>
      <trkpt lat="49.04376" lon="1.11318">
        <ele>133</ele>
        <time>2011-09-25T10:07:37Z</time>
      </trkpt>
      <trkpt lat="49.0438" lon="1.11313">
        <ele>134</ele>
        <time>2011-09-25T10:07:38Z</time>
      </trkpt>
      <trkpt lat="49.04383" lon="1.11307">
        <ele>134</ele>
        <time>2011-09-25T10:07:39Z</time>
      </trkpt>
      <trkpt lat="49.04387" lon="1.113">
        <ele>134</ele>
        <time>2011-09-25T10:07:40Z</time>
      </trkpt>
      <trkpt lat="49.0439" lon="1.11294">
        <ele>134</ele>
        <time>2011-09-25T10:07:41Z</time>
      </trkpt>
      <trkpt lat="49.04394" lon="1.11288">
        <ele>134</ele>
        <time>2011-09-25T10:07:42Z</time>
      </trkpt>
      <trkpt lat="49.04398" lon="1.11282">
        <ele>134</ele>
        <time>2011-09-25T10:07:43Z</time>
      </trkpt>
      <trkpt lat="49.04401" lon="1.11276">
        <ele>134</ele>
        <time>2011-09-25T10:07:44Z</time>
      </trkpt>
      <trkpt lat="49.04404" lon="1.11269">
        <ele>134</ele>
        <time>2011-09-25T10:07:45Z</time>
      </trkpt>
      <trkpt lat="49.04407" lon="1.11263">
        <ele>134</ele>
        <time>2011-09-25T10:07:46Z</time>
      </trkpt>
      <trkpt lat="49.0441" lon="1.11256">
        <ele>135</ele>
        <time>2011-09-25T10:07:47Z</time>
      </trkpt>
      <trkpt lat="49.04414" lon="1.1125">
        <ele>135</ele>
        <time>2011-09-25T10:07:48Z</time>
      </trkpt>
      <trkpt lat="49.04418" lon="1.11244">
        <ele>135</ele>
        <time>2011-09-25T10:07:49Z</time>
      </trkpt>
      <trkpt lat="49.04422" lon="1.11238">
        <ele>136</ele>
        <time>2011-09-25T10:07:50Z</time>
      </trkpt>
      <trkpt lat="49.04426" lon="1.11232">
        <ele>136</ele>
        <time>2011-09-25T10:07:51Z</time>
      </trkpt>
      <trkpt lat="49.0443" lon="1.11226">
        <ele>136</ele>
        <time>2011-09-25T10:07:52Z</time>
      </trkpt>
      <trkpt lat="49.04434" lon="1.11219">
        <ele>136</ele>
        <time>2011-09-25T10:07:53Z</time>
      </trkpt>
      <trkpt lat="49.04438" lon="1.11212">
        <ele>136</ele>
        <time>2011-09-25T10:07:54Z</time>
      </trkpt>
      <trkpt lat="49.04441" lon="1.11204">
        <ele>136</ele>
        <time>2011-09-25T10:07:55Z</time>
      </trkpt>
      <trkpt lat="49.04444" lon="1.11196">
        <ele>136</ele>
        <time>2011-09-25T10:07:56Z</time>
      </trkpt>
      <trkpt lat="49.04448" lon="1.11188">
        <ele>136</ele>
        <time>2011-09-25T10:07:57Z</time>
      </trkpt>
      <trkpt lat="49.04452" lon="1.11182">
        <ele>136</ele>
        <time>2011-09-25T10:07:58Z</time>
      </trkpt>
      <trkpt lat="49.04456" lon="1.11175">
        <ele>136</ele>
        <time>2011-09-25T10:07:59Z</time>
      </trkpt>
      <trkpt lat="49.04459" lon="1.11167">
        <ele>136</ele>
        <time>2011-09-25T10:08:00Z</time>
      </trkpt>
      <trkpt lat="49.04463" lon="1.1116">
        <ele>136</ele>
        <time>2011-09-25T10:08:01Z</time>
      </trkpt>
      <trkpt lat="49.04466" lon="1.11152">
        <ele>136</ele>
        <time>2011-09-25T10:08:02Z</time>
      </trkpt>
      <trkpt lat="49.0447" lon="1.11145">
        <ele>136</ele>
        <time>2011-09-25T10:08:03Z</time>
      </trkpt>
      <trkpt lat="49.04473" lon="1.11138">
        <ele>136</ele>
        <time>2011-09-25T10:08:04Z</time>
      </trkpt>
      <trkpt lat="49.04476" lon="1.11131">
        <ele>136</ele>
        <time>2011-09-25T10:08:05Z</time>
      </trkpt>
      <trkpt lat="49.04478" lon="1.11124">
        <ele>136</ele>
        <time>2011-09-25T10:08:06Z</time>
      </trkpt>
      <trkpt lat="49.04479" lon="1.11117">
        <ele>136</ele>
        <time>2011-09-25T10:08:07Z</time>
      </trkpt>
      <trkpt lat="49.04479" lon="1.11109">
        <ele>136</ele>
        <time>2011-09-25T10:08:08Z</time>
      </trkpt>
      <trkpt lat="49.04478" lon="1.11101">
        <ele>136</ele>
        <time>2011-09-25T10:08:09Z</time>
      </trkpt>
      <trkpt lat="49.04477" lon="1.11092">
        <ele>136</ele>
        <time>2011-09-25T10:08:10Z</time>
      </trkpt>
      <trkpt lat="49.04477" lon="1.11083">
        <ele>135</ele>
        <time>2011-09-25T10:08:11Z</time>
      </trkpt>
      <trkpt lat="49.04476" lon="1.11074">
        <ele>135</ele>
        <time>2011-09-25T10:08:12Z</time>
      </trkpt>
      <trkpt lat="49.04476" lon="1.11065">
        <ele>135</ele>
        <time>2011-09-25T10:08:13Z</time>
      </trkpt>
      <trkpt lat="49.04476" lon="1.11056">
        <ele>134</ele>
        <time>2011-09-25T10:08:14Z</time>
      </trkpt>
      <trkpt lat="49.04476" lon="1.11048">
        <ele>134</ele>
        <time>2011-09-25T10:08:15Z</time>
      </trkpt>
      <trkpt lat="49.04476" lon="1.11039">
        <ele>134</ele>
        <time>2011-09-25T10:08:16Z</time>
      </trkpt>
      <trkpt lat="49.04477" lon="1.1103">
        <ele>134</ele>
        <time>2011-09-25T10:08:17Z</time>
      </trkpt>
      <trkpt lat="49.04477" lon="1.11021">
        <ele>134</ele>
        <time>2011-09-25T10:08:18Z</time>
      </trkpt>
      <trkpt lat="49.04477" lon="1.11012">
        <ele>134</ele>
        <time>2011-09-25T10:08:19Z</time>
      </trkpt>
      <trkpt lat="49.04478" lon="1.11003">
        <ele>135</ele>
        <time>2011-09-25T10:08:20Z</time>
      </trkpt>
      <trkpt lat="49.04479" lon="1.10995">
        <ele>134</ele>
        <time>2011-09-25T10:08:21Z</time>
      </trkpt>
      <trkpt lat="49.04479" lon="1.10986">
        <ele>134</ele>
        <time>2011-09-25T10:08:22Z</time>
      </trkpt>
      <trkpt lat="49.0448" lon="1.10977">
        <ele>134</ele>
        <time>2011-09-25T10:08:23Z</time>
      </trkpt>
      <trkpt lat="49.0448" lon="1.10968">
        <ele>134</ele>
        <time>2011-09-25T10:08:24Z</time>
      </trkpt>
      <trkpt lat="49.0448" lon="1.10959">
        <ele>134</ele>
        <time>2011-09-25T10:08:25Z</time>
      </trkpt>
      <trkpt lat="49.04481" lon="1.10949">
        <ele>134</ele>
        <time>2011-09-25T10:08:26Z</time>
      </trkpt>
      <trkpt lat="49.04481" lon="1.1094">
        <ele>134</ele>
        <time>2011-09-25T10:08:27Z</time>
      </trkpt>
      <trkpt lat="49.04482" lon="1.1093">
        <ele>134</ele>
        <time>2011-09-25T10:08:28Z</time>
      </trkpt>
      <trkpt lat="49.04482" lon="1.1092">
        <ele>134</ele>
        <time>2011-09-25T10:08:29Z</time>
      </trkpt>
      <trkpt lat="49.04482" lon="1.1091">
        <ele>134</ele>
        <time>2011-09-25T10:08:30Z</time>
      </trkpt>
      <trkpt lat="49.04482" lon="1.109">
        <ele>134</ele>
        <time>2011-09-25T10:08:31Z</time>
      </trkpt>
      <trkpt lat="49.04482" lon="1.1089">
        <ele>133</ele>
        <time>2011-09-25T10:08:32Z</time>
      </trkpt>
      <trkpt lat="49.04483" lon="1.10881">
        <ele>133</ele>
        <time>2011-09-25T10:08:33Z</time>
      </trkpt>
      <trkpt lat="49.04485" lon="1.10871">
        <ele>133</ele>
        <time>2011-09-25T10:08:34Z</time>
      </trkpt>
      <trkpt lat="49.04486" lon="1.10862">
        <ele>133</ele>
        <time>2011-09-25T10:08:35Z</time>
      </trkpt>
      <trkpt lat="49.04486" lon="1.10852">
        <ele>133</ele>
        <time>2011-09-25T10:08:36Z</time>
      </trkpt>
      <trkpt lat="49.04487" lon="1.10844">
        <ele>133</ele>
        <time>2011-09-25T10:08:37Z</time>
      </trkpt>
      <trkpt lat="49.04487" lon="1.10835">
        <ele>133</ele>
        <time>2011-09-25T10:08:38Z</time>
      </trkpt>
      <trkpt lat="49.04487" lon="1.10826">
        <ele>133</ele>
        <time>2011-09-25T10:08:39Z</time>
      </trkpt>
      <trkpt lat="49.04488" lon="1.10817">
        <ele>133</ele>
        <time>2011-09-25T10:08:40Z</time>
      </trkpt>
      <trkpt lat="49.04488" lon="1.10808">
        <ele>133</ele>
        <time>2011-09-25T10:08:41Z</time>
      </trkpt>
      <trkpt lat="49.04489" lon="1.10799">
        <ele>133</ele>
        <time>2011-09-25T10:08:42Z</time>
      </trkpt>
      <trkpt lat="49.0449" lon="1.1079">
        <ele>133</ele>
        <time>2011-09-25T10:08:43Z</time>
      </trkpt>
      <trkpt lat="49.04491" lon="1.10782">
        <ele>133</ele>
        <time>2011-09-25T10:08:44Z</time>
      </trkpt>
      <trkpt lat="49.04491" lon="1.10774">
        <ele>133</ele>
        <time>2011-09-25T10:08:45Z</time>
      </trkpt>
      <trkpt lat="49.04491" lon="1.10765">
        <ele>134</ele>
        <time>2011-09-25T10:08:46Z</time>
      </trkpt>
      <trkpt lat="49.04492" lon="1.10757">
        <ele>134</ele>
        <time>2011-09-25T10:08:47Z</time>
      </trkpt>
      <trkpt lat="49.04492" lon="1.10749">
        <ele>135</ele>
        <time>2011-09-25T10:08:48Z</time>
      </trkpt>
      <trkpt lat="49.04493" lon="1.1074">
        <ele>135</ele>
        <time>2011-09-25T10:08:49Z</time>
      </trkpt>
      <trkpt lat="49.04493" lon="1.10732">
        <ele>135</ele>
        <time>2011-09-25T10:08:50Z</time>
      </trkpt>
      <trkpt lat="49.04494" lon="1.10723">
        <ele>135</ele>
        <time>2011-09-25T10:08:51Z</time>
      </trkpt>
      <trkpt lat="49.04495" lon="1.10715">
        <ele>135</ele>
        <time>2011-09-25T10:08:52Z</time>
      </trkpt>
      <trkpt lat="49.04496" lon="1.10706">
        <ele>135</ele>
        <time>2011-09-25T10:08:53Z</time>
      </trkpt>
      <trkpt lat="49.04497" lon="1.10698">
        <ele>135</ele>
        <time>2011-09-25T10:08:54Z</time>
      </trkpt>
      <trkpt lat="49.04498" lon="1.1069">
        <ele>135</ele>
        <time>2011-09-25T10:08:55Z</time>
      </trkpt>
      <trkpt lat="49.04499" lon="1.10681">
        <ele>135</ele>
        <time>2011-09-25T10:08:56Z</time>
      </trkpt>
      <trkpt lat="49.045" lon="1.10673">
        <ele>136</ele>
        <time>2011-09-25T10:08:57Z</time>
      </trkpt>
      <trkpt lat="49.045" lon="1.10666">
        <ele>136</ele>
        <time>2011-09-25T10:08:58Z</time>
      </trkpt>
      <trkpt lat="49.045" lon="1.10659">
        <ele>136</ele>
        <time>2011-09-25T10:08:59Z</time>
      </trkpt>
      <trkpt lat="49.04501" lon="1.10652">
        <ele>136</ele>
        <time>2011-09-25T10:09:00Z</time>
      </trkpt>
      <trkpt lat="49.04502" lon="1.10645">
        <ele>137</ele>
        <time>2011-09-25T10:09:01Z</time>
      </trkpt>
      <trkpt lat="49.04502" lon="1.10638">
        <ele>137</ele>
        <time>2011-09-25T10:09:02Z</time>
      </trkpt>
      <trkpt lat="49.04502" lon="1.10624">
        <ele>137</ele>
        <time>2011-09-25T10:09:04Z</time>
      </trkpt>
      <trkpt lat="49.04502" lon="1.10612">
        <ele>136</ele>
        <time>2011-09-25T10:09:06Z</time>
      </trkpt>
      <trkpt lat="49.04502" lon="1.10603">
        <ele>136</ele>
        <time>2011-09-25T10:09:08Z</time>
      </trkpt>
      <trkpt lat="49.04494" lon="1.10601">
        <ele>136</ele>
        <time>2011-09-25T10:09:13Z</time>
      </trkpt>
      <trkpt lat="49.0449" lon="1.10608">
        <ele>136</ele>
        <time>2011-09-25T10:09:15Z</time>
      </trkpt>
      <trkpt lat="49.04484" lon="1.10617">
        <ele>136</ele>
        <time>2011-09-25T10:09:17Z</time>
      </trkpt>
      <trkpt lat="49.0448" lon="1.10628">
        <ele>136</ele>
        <time>2011-09-25T10:09:19Z</time>
      </trkpt>
      <trkpt lat="49.04475" lon="1.10639">
        <ele>136</ele>
        <time>2011-09-25T10:09:21Z</time>
      </trkpt>
      <trkpt lat="49.04473" lon="1.10645">
        <ele>136</ele>
        <time>2011-09-25T10:09:22Z</time>
      </trkpt>
      <trkpt lat="49.0447" lon="1.10652">
        <ele>136</ele>
        <time>2011-09-25T10:09:23Z</time>
      </trkpt>
      <trkpt lat="49.04468" lon="1.10658">
        <ele>136</ele>
        <time>2011-09-25T10:09:24Z</time>
      </trkpt>
      <trkpt lat="49.04465" lon="1.10665">
        <ele>136</ele>
        <time>2011-09-25T10:09:25Z</time>
      </trkpt>
      <trkpt lat="49.04462" lon="1.10672">
        <ele>135</ele>
        <time>2011-09-25T10:09:26Z</time>
      </trkpt>
      <trkpt lat="49.04459" lon="1.10678">
        <ele>135</ele>
        <time>2011-09-25T10:09:27Z</time>
      </trkpt>
      <trkpt lat="49.04457" lon="1.10684">
        <ele>135</ele>
        <time>2011-09-25T10:09:28Z</time>
      </trkpt>
      <trkpt lat="49.04456" lon="1.10691">
        <ele>135</ele>
        <time>2011-09-25T10:09:29Z</time>
      </trkpt>
      <trkpt lat="49.04452" lon="1.10703">
        <ele>134</ele>
        <time>2011-09-25T10:09:31Z</time>
      </trkpt>
      <trkpt lat="49.04449" lon="1.10716">
        <ele>134</ele>
        <time>2011-09-25T10:09:33Z</time>
      </trkpt>
      <trkpt lat="49.04447" lon="1.10723">
        <ele>134</ele>
        <time>2011-09-25T10:09:34Z</time>
      </trkpt>
      <trkpt lat="49.04444" lon="1.1073">
        <ele>133</ele>
        <time>2011-09-25T10:09:35Z</time>
      </trkpt>
      <trkpt lat="49.04442" lon="1.10737">
        <ele>133</ele>
        <time>2011-09-25T10:09:36Z</time>
      </trkpt>
      <trkpt lat="49.04439" lon="1.10743">
        <ele>133</ele>
        <time>2011-09-25T10:09:37Z</time>
      </trkpt>
      <trkpt lat="49.04438" lon="1.1075">
        <ele>132</ele>
        <time>2011-09-25T10:09:38Z</time>
      </trkpt>
      <trkpt lat="49.04436" lon="1.10756">
        <ele>131</ele>
        <time>2011-09-25T10:09:39Z</time>
      </trkpt>
      <trkpt lat="49.04433" lon="1.10762">
        <ele>131</ele>
        <time>2011-09-25T10:09:40Z</time>
      </trkpt>
      <trkpt lat="49.04431" lon="1.10769">
        <ele>131</ele>
        <time>2011-09-25T10:09:41Z</time>
      </trkpt>
      <trkpt lat="49.04429" lon="1.10776">
        <ele>131</ele>
        <time>2011-09-25T10:09:42Z</time>
      </trkpt>
      <trkpt lat="49.04427" lon="1.10783">
        <ele>131</ele>
        <time>2011-09-25T10:09:43Z</time>
      </trkpt>
      <trkpt lat="49.04425" lon="1.1079">
        <ele>131</ele>
        <time>2011-09-25T10:09:44Z</time>
      </trkpt>
      <trkpt lat="49.04423" lon="1.10798">
        <ele>131</ele>
        <time>2011-09-25T10:09:45Z</time>
      </trkpt>
      <trkpt lat="49.0442" lon="1.10806">
        <ele>131</ele>
        <time>2011-09-25T10:09:46Z</time>
      </trkpt>
      <trkpt lat="49.04418" lon="1.10815">
        <ele>131</ele>
        <time>2011-09-25T10:09:47Z</time>
      </trkpt>
      <trkpt lat="49.04416" lon="1.10825">
        <ele>130</ele>
        <time>2011-09-25T10:09:48Z</time>
      </trkpt>
      <trkpt lat="49.04413" lon="1.10832">
        <ele>130</ele>
        <time>2011-09-25T10:09:49Z</time>
      </trkpt>
      <trkpt lat="49.0441" lon="1.10843">
        <ele>129</ele>
        <time>2011-09-25T10:09:51Z</time>
      </trkpt>
      <trkpt lat="49.04407" lon="1.10852">
        <ele>128</ele>
        <time>2011-09-25T10:09:53Z</time>
      </trkpt>
      <trkpt lat="49.04404" lon="1.10861">
        <ele>128</ele>
        <time>2011-09-25T10:09:55Z</time>
      </trkpt>
      <trkpt lat="49.04402" lon="1.10871">
        <ele>127</ele>
        <time>2011-09-25T10:09:57Z</time>
      </trkpt>
      <trkpt lat="49.044" lon="1.10881">
        <ele>127</ele>
        <time>2011-09-25T10:09:59Z</time>
      </trkpt>
      <trkpt lat="49.04397" lon="1.10887">
        <ele>127</ele>
        <time>2011-09-25T10:10:01Z</time>
      </trkpt>
      <trkpt lat="49.04392" lon="1.10894">
        <ele>127</ele>
        <time>2011-09-25T10:10:03Z</time>
      </trkpt>
      <trkpt lat="49.04387" lon="1.10905">
        <ele>127</ele>
        <time>2011-09-25T10:10:05Z</time>
      </trkpt>
      <trkpt lat="49.04385" lon="1.10912">
        <ele>127</ele>
        <time>2011-09-25T10:10:06Z</time>
      </trkpt>
      <trkpt lat="49.04383" lon="1.10918">
        <ele>127</ele>
        <time>2011-09-25T10:10:07Z</time>
      </trkpt>
      <trkpt lat="49.04379" lon="1.10923">
        <ele>127</ele>
        <time>2011-09-25T10:10:08Z</time>
      </trkpt>
      <trkpt lat="49.04375" lon="1.10926">
        <ele>127</ele>
        <time>2011-09-25T10:10:09Z</time>
      </trkpt>
      <trkpt lat="49.04367" lon="1.1093">
        <ele>126</ele>
        <time>2011-09-25T10:10:11Z</time>
      </trkpt>
      <trkpt lat="49.04362" lon="1.1093">
        <ele>126</ele>
        <time>2011-09-25T10:10:12Z</time>
      </trkpt>
      <trkpt lat="49.04358" lon="1.1093">
        <ele>125</ele>
        <time>2011-09-25T10:10:13Z</time>
      </trkpt>
      <trkpt lat="49.04353" lon="1.1093">
        <ele>125</ele>
        <time>2011-09-25T10:10:14Z</time>
      </trkpt>
      <trkpt lat="49.04348" lon="1.10928">
        <ele>124</ele>
        <time>2011-09-25T10:10:15Z</time>
      </trkpt>
      <trkpt lat="49.04343" lon="1.10925">
        <ele>123</ele>
        <time>2011-09-25T10:10:16Z</time>
      </trkpt>
      <trkpt lat="49.04337" lon="1.10923">
        <ele>123</ele>
        <time>2011-09-25T10:10:17Z</time>
      </trkpt>
      <trkpt lat="49.04331" lon="1.10921">
        <ele>121</ele>
        <time>2011-09-25T10:10:18Z</time>
      </trkpt>
      <trkpt lat="49.04331" lon="1.10921">
        <ele>121</ele>
        <time>2011-09-25T10:10:18Z</time>
      </trkpt>
      <trkpt lat="49.04331" lon="1.10921">
        <ele>121</ele>
        <time>2011-09-25T10:10:20Z</time>
      </trkpt>
      <trkpt lat="49.04322" lon="1.10915">
        <ele>121</ele>
        <time>2011-09-25T10:10:21Z</time>
      </trkpt>
      <trkpt lat="49.04316" lon="1.10912">
        <ele>121</ele>
        <time>2011-09-25T10:10:23Z</time>
      </trkpt>
      <trkpt lat="49.04311" lon="1.10913">
        <ele>120</ele>
        <time>2011-09-25T10:10:25Z</time>
      </trkpt>
      <trkpt lat="49.04304" lon="1.10915">
        <ele>120</ele>
        <time>2011-09-25T10:10:27Z</time>
      </trkpt>
      <trkpt lat="49.04298" lon="1.10914">
        <ele>120</ele>
        <time>2011-09-25T10:10:29Z</time>
      </trkpt>
      <trkpt lat="49.04292" lon="1.1091">
        <ele>120</ele>
        <time>2011-09-25T10:10:31Z</time>
      </trkpt>
      <trkpt lat="49.04284" lon="1.10908">
        <ele>119</ele>
        <time>2011-09-25T10:10:33Z</time>
      </trkpt>
      <trkpt lat="49.04276" lon="1.10909">
        <ele>119</ele>
        <time>2011-09-25T10:10:35Z</time>
      </trkpt>
      <trkpt lat="49.0427" lon="1.10912">
        <ele>119</ele>
        <time>2011-09-25T10:10:36Z</time>
      </trkpt>
      <trkpt lat="49.04265" lon="1.10914">
        <ele>118</ele>
        <time>2011-09-25T10:10:37Z</time>
      </trkpt>
      <trkpt lat="49.04261" lon="1.10918">
        <ele>118</ele>
        <time>2011-09-25T10:10:38Z</time>
      </trkpt>
      <trkpt lat="49.04258" lon="1.10925">
        <ele>118</ele>
        <time>2011-09-25T10:10:39Z</time>
      </trkpt>
      <trkpt lat="49.04254" lon="1.10932">
        <ele>118</ele>
        <time>2011-09-25T10:10:40Z</time>
      </trkpt>
      <trkpt lat="49.04251" lon="1.10938">
        <ele>119</ele>
        <time>2011-09-25T10:10:41Z</time>
      </trkpt>
      <trkpt lat="49.04247" lon="1.10946">
        <ele>116</ele>
        <time>2011-09-25T10:10:42Z</time>
      </trkpt>
      <trkpt lat="49.04243" lon="1.10951">
        <ele>116</ele>
        <time>2011-09-25T10:10:43Z</time>
      </trkpt>
      <trkpt lat="49.04239" lon="1.10957">
        <ele>117</ele>
        <time>2011-09-25T10:10:44Z</time>
      </trkpt>
      <trkpt lat="49.04234" lon="1.10962">
        <ele>117</ele>
        <time>2011-09-25T10:10:45Z</time>
      </trkpt>
      <trkpt lat="49.04229" lon="1.10966">
        <ele>117</ele>
        <time>2011-09-25T10:10:46Z</time>
      </trkpt>
      <trkpt lat="49.04224" lon="1.10971">
        <ele>117</ele>
        <time>2011-09-25T10:10:47Z</time>
      </trkpt>
      <trkpt lat="49.04219" lon="1.10975">
        <ele>116</ele>
        <time>2011-09-25T10:10:48Z</time>
      </trkpt>
      <trkpt lat="49.04214" lon="1.1098">
        <ele>116</ele>
        <time>2011-09-25T10:10:49Z</time>
      </trkpt>
      <trkpt lat="49.04209" lon="1.10985">
        <ele>116</ele>
        <time>2011-09-25T10:10:50Z</time>
      </trkpt>
      <trkpt lat="49.04204" lon="1.1099">
        <ele>116</ele>
        <time>2011-09-25T10:10:51Z</time>
      </trkpt>
      <trkpt lat="49.04199" lon="1.10993">
        <ele>115</ele>
        <time>2011-09-25T10:10:52Z</time>
      </trkpt>
      <trkpt lat="49.04195" lon="1.10996">
        <ele>115</ele>
        <time>2011-09-25T10:10:53Z</time>
      </trkpt>
      <trkpt lat="49.0419" lon="1.10999">
        <ele>115</ele>
        <time>2011-09-25T10:10:54Z</time>
      </trkpt>
      <trkpt lat="49.04186" lon="1.11003">
        <ele>117</ele>
        <time>2011-09-25T10:10:55Z</time>
      </trkpt>
      <trkpt lat="49.04182" lon="1.11006">
        <ele>117</ele>
        <time>2011-09-25T10:10:56Z</time>
      </trkpt>
      <trkpt lat="49.04178" lon="1.11009">
        <ele>117</ele>
        <time>2011-09-25T10:10:57Z</time>
      </trkpt>
      <trkpt lat="49.04173" lon="1.11012">
        <ele>116</ele>
        <time>2011-09-25T10:10:58Z</time>
      </trkpt>
      <trkpt lat="49.04168" lon="1.11015">
        <ele>117</ele>
        <time>2011-09-25T10:10:59Z</time>
      </trkpt>
      <trkpt lat="49.04163" lon="1.11018">
        <ele>115</ele>
        <time>2011-09-25T10:11:00Z</time>
      </trkpt>
      <trkpt lat="49.04158" lon="1.1102">
        <ele>115</ele>
        <time>2011-09-25T10:11:01Z</time>
      </trkpt>
      <trkpt lat="49.04153" lon="1.11022">
        <ele>115</ele>
        <time>2011-09-25T10:11:02Z</time>
      </trkpt>
      <trkpt lat="49.04148" lon="1.11024">
        <ele>116</ele>
        <time>2011-09-25T10:11:03Z</time>
      </trkpt>
      <trkpt lat="49.04143" lon="1.11027">
        <ele>116</ele>
        <time>2011-09-25T10:11:04Z</time>
      </trkpt>
      <trkpt lat="49.04138" lon="1.1103">
        <ele>116</ele>
        <time>2011-09-25T10:11:05Z</time>
      </trkpt>
      <trkpt lat="49.04133" lon="1.11031">
        <ele>116</ele>
        <time>2011-09-25T10:11:06Z</time>
      </trkpt>
      <trkpt lat="49.04127" lon="1.11033">
        <ele>116</ele>
        <time>2011-09-25T10:11:07Z</time>
      </trkpt>
      <trkpt lat="49.04122" lon="1.11034">
        <ele>116</ele>
        <time>2011-09-25T10:11:08Z</time>
      </trkpt>
      <trkpt lat="49.04118" lon="1.11036">
        <ele>116</ele>
        <time>2011-09-25T10:11:09Z</time>
      </trkpt>
      <trkpt lat="49.04109" lon="1.11038">
        <ele>116</ele>
        <time>2011-09-25T10:11:11Z</time>
      </trkpt>
      <trkpt lat="49.04101" lon="1.1104">
        <ele>116</ele>
        <time>2011-09-25T10:11:13Z</time>
      </trkpt>
      <trkpt lat="49.04092" lon="1.11041">
        <ele>116</ele>
        <time>2011-09-25T10:11:15Z</time>
      </trkpt>
      <trkpt lat="49.04084" lon="1.11041">
        <ele>116</ele>
        <time>2011-09-25T10:11:17Z</time>
      </trkpt>
      <trkpt lat="49.04079" lon="1.11041">
        <ele>116</ele>
        <time>2011-09-25T10:11:18Z</time>
      </trkpt>
      <trkpt lat="49.04074" lon="1.11041">
        <ele>116</ele>
        <time>2011-09-25T10:11:19Z</time>
      </trkpt>
      <trkpt lat="49.04069" lon="1.11041">
        <ele>116</ele>
        <time>2011-09-25T10:11:20Z</time>
      </trkpt>
      <trkpt lat="49.04064" lon="1.11042">
        <ele>116</ele>
        <time>2011-09-25T10:11:21Z</time>
      </trkpt>
      <trkpt lat="49.04059" lon="1.11044">
        <ele>116</ele>
        <time>2011-09-25T10:11:22Z</time>
      </trkpt>
      <trkpt lat="49.04052" lon="1.11046">
        <ele>116</ele>
        <time>2011-09-25T10:11:23Z</time>
      </trkpt>
      <trkpt lat="49.04046" lon="1.11049">
        <ele>116</ele>
        <time>2011-09-25T10:11:24Z</time>
      </trkpt>
      <trkpt lat="49.04039" lon="1.11052">
        <ele>116</ele>
        <time>2011-09-25T10:11:25Z</time>
      </trkpt>
      <trkpt lat="49.04032" lon="1.11055">
        <ele>116</ele>
        <time>2011-09-25T10:11:26Z</time>
      </trkpt>
      <trkpt lat="49.04026" lon="1.11057">
        <ele>116</ele>
        <time>2011-09-25T10:11:27Z</time>
      </trkpt>
      <trkpt lat="49.04019" lon="1.1106">
        <ele>117</ele>
        <time>2011-09-25T10:11:28Z</time>
      </trkpt>
      <trkpt lat="49.04013" lon="1.11063">
        <ele>117</ele>
        <time>2011-09-25T10:11:29Z</time>
      </trkpt>
      <trkpt lat="49.04006" lon="1.11065">
        <ele>117</ele>
        <time>2011-09-25T10:11:30Z</time>
      </trkpt>
      <trkpt lat="49.04" lon="1.11067">
        <ele>117</ele>
        <time>2011-09-25T10:11:31Z</time>
      </trkpt>
      <trkpt lat="49.03993" lon="1.11067">
        <ele>116</ele>
        <time>2011-09-25T10:11:32Z</time>
      </trkpt>
      <trkpt lat="49.03986" lon="1.11067">
        <ele>116</ele>
        <time>2011-09-25T10:11:33Z</time>
      </trkpt>
      <trkpt lat="49.0398" lon="1.11068">
        <ele>116</ele>
        <time>2011-09-25T10:11:34Z</time>
      </trkpt>
      <trkpt lat="49.03973" lon="1.11069">
        <ele>115</ele>
        <time>2011-09-25T10:11:35Z</time>
      </trkpt>
      <trkpt lat="49.03967" lon="1.11071">
        <ele>115</ele>
        <time>2011-09-25T10:11:36Z</time>
      </trkpt>
      <trkpt lat="49.0396" lon="1.11073">
        <ele>115</ele>
        <time>2011-09-25T10:11:37Z</time>
      </trkpt>
      <trkpt lat="49.03954" lon="1.11074">
        <ele>114</ele>
        <time>2011-09-25T10:11:38Z</time>
      </trkpt>
      <trkpt lat="49.03948" lon="1.11076">
        <ele>114</ele>
        <time>2011-09-25T10:11:39Z</time>
      </trkpt>
      <trkpt lat="49.03941" lon="1.11077">
        <ele>114</ele>
        <time>2011-09-25T10:11:40Z</time>
      </trkpt>
      <trkpt lat="49.03934" lon="1.11077">
        <ele>114</ele>
        <time>2011-09-25T10:11:41Z</time>
      </trkpt>
      <trkpt lat="49.03928" lon="1.11077">
        <ele>114</ele>
        <time>2011-09-25T10:11:42Z</time>
      </trkpt>
      <trkpt lat="49.03921" lon="1.11077">
        <ele>114</ele>
        <time>2011-09-25T10:11:43Z</time>
      </trkpt>
      <trkpt lat="49.03914" lon="1.11076">
        <ele>113</ele>
        <time>2011-09-25T10:11:44Z</time>
      </trkpt>
      <trkpt lat="49.03907" lon="1.11076">
        <ele>112</ele>
        <time>2011-09-25T10:11:45Z</time>
      </trkpt>
      <trkpt lat="49.039" lon="1.11076">
        <ele>111</ele>
        <time>2011-09-25T10:11:46Z</time>
      </trkpt>
      <trkpt lat="49.03894" lon="1.11077">
        <ele>111</ele>
        <time>2011-09-25T10:11:47Z</time>
      </trkpt>
      <trkpt lat="49.03887" lon="1.11077">
        <ele>111</ele>
        <time>2011-09-25T10:11:48Z</time>
      </trkpt>
      <trkpt lat="49.03881" lon="1.11077">
        <ele>110</ele>
        <time>2011-09-25T10:11:49Z</time>
      </trkpt>
      <trkpt lat="49.03875" lon="1.11077">
        <ele>110</ele>
        <time>2011-09-25T10:11:50Z</time>
      </trkpt>
      <trkpt lat="49.03869" lon="1.11078">
        <ele>110</ele>
        <time>2011-09-25T10:11:51Z</time>
      </trkpt>
      <trkpt lat="49.03863" lon="1.11082">
        <ele>109</ele>
        <time>2011-09-25T10:11:52Z</time>
      </trkpt>
      <trkpt lat="49.03858" lon="1.11087">
        <ele>113</ele>
        <time>2011-09-25T10:11:53Z</time>
      </trkpt>
      <trkpt lat="49.03854" lon="1.11093">
        <ele>112</ele>
        <time>2011-09-25T10:11:54Z</time>
      </trkpt>
      <trkpt lat="49.0385" lon="1.11098">
        <ele>112</ele>
        <time>2011-09-25T10:11:55Z</time>
      </trkpt>
      <trkpt lat="49.03846" lon="1.11104">
        <ele>113</ele>
        <time>2011-09-25T10:11:56Z</time>
      </trkpt>
      <trkpt lat="49.03842" lon="1.1111">
        <ele>113</ele>
        <time>2011-09-25T10:11:57Z</time>
      </trkpt>
      <trkpt lat="49.03838" lon="1.11116">
        <ele>113</ele>
        <time>2011-09-25T10:11:58Z</time>
      </trkpt>
      <trkpt lat="49.03835" lon="1.11122">
        <ele>114</ele>
        <time>2011-09-25T10:11:59Z</time>
      </trkpt>
      <trkpt lat="49.03831" lon="1.1113">
        <ele>109</ele>
        <time>2011-09-25T10:12:00Z</time>
      </trkpt>
      <trkpt lat="49.03827" lon="1.11137">
        <ele>110</ele>
        <time>2011-09-25T10:12:01Z</time>
      </trkpt>
      <trkpt lat="49.03823" lon="1.11144">
        <ele>110</ele>
        <time>2011-09-25T10:12:02Z</time>
      </trkpt>
      <trkpt lat="49.03819" lon="1.11152">
        <ele>110</ele>
        <time>2011-09-25T10:12:03Z</time>
      </trkpt>
      <trkpt lat="49.03815" lon="1.11158">
        <ele>110</ele>
        <time>2011-09-25T10:12:04Z</time>
      </trkpt>
      <trkpt lat="49.03811" lon="1.11166">
        <ele>110</ele>
        <time>2011-09-25T10:12:05Z</time>
      </trkpt>
      <trkpt lat="49.03808" lon="1.11175">
        <ele>112</ele>
        <time>2011-09-25T10:12:06Z</time>
      </trkpt>
      <trkpt lat="49.03805" lon="1.11183">
        <ele>111</ele>
        <time>2011-09-25T10:12:07Z</time>
      </trkpt>
      <trkpt lat="49.03801" lon="1.1119">
        <ele>111</ele>
        <time>2011-09-25T10:12:08Z</time>
      </trkpt>
      <trkpt lat="49.03798" lon="1.11199">
        <ele>111</ele>
        <time>2011-09-25T10:12:09Z</time>
      </trkpt>
      <trkpt lat="49.03796" lon="1.11208">
        <ele>111</ele>
        <time>2011-09-25T10:12:10Z</time>
      </trkpt>
      <trkpt lat="49.03793" lon="1.11217">
        <ele>111</ele>
        <time>2011-09-25T10:12:11Z</time>
      </trkpt>
      <trkpt lat="49.03791" lon="1.11227">
        <ele>111</ele>
        <time>2011-09-25T10:12:12Z</time>
      </trkpt>
      <trkpt lat="49.03789" lon="1.11236">
        <ele>111</ele>
        <time>2011-09-25T10:12:13Z</time>
      </trkpt>
      <trkpt lat="49.03788" lon="1.11245">
        <ele>111</ele>
        <time>2011-09-25T10:12:14Z</time>
      </trkpt>
      <trkpt lat="49.03785" lon="1.11254">
        <ele>112</ele>
        <time>2011-09-25T10:12:15Z</time>
      </trkpt>
      <trkpt lat="49.03783" lon="1.11263">
        <ele>112</ele>
        <time>2011-09-25T10:12:16Z</time>
      </trkpt>
      <trkpt lat="49.0378" lon="1.11272">
        <ele>111</ele>
        <time>2011-09-25T10:12:17Z</time>
      </trkpt>
      <trkpt lat="49.03779" lon="1.11282">
        <ele>112</ele>
        <time>2011-09-25T10:12:18Z</time>
      </trkpt>
      <trkpt lat="49.03778" lon="1.11291">
        <ele>111</ele>
        <time>2011-09-25T10:12:19Z</time>
      </trkpt>
      <trkpt lat="49.03776" lon="1.11299">
        <ele>111</ele>
        <time>2011-09-25T10:12:20Z</time>
      </trkpt>
      <trkpt lat="49.03775" lon="1.11306">
        <ele>111</ele>
        <time>2011-09-25T10:12:21Z</time>
      </trkpt>
      <trkpt lat="49.03776" lon="1.1132">
        <ele>111</ele>
        <time>2011-09-25T10:12:23Z</time>
      </trkpt>
      <trkpt lat="49.03779" lon="1.11325">
        <ele>111</ele>
        <time>2011-09-25T10:12:24Z</time>
      </trkpt>
      <trkpt lat="49.03783" lon="1.11333">
        <ele>112</ele>
        <time>2011-09-25T10:12:26Z</time>
      </trkpt>
      <trkpt lat="49.03787" lon="1.1134">
        <ele>112</ele>
        <time>2011-09-25T10:12:28Z</time>
      </trkpt>
      <trkpt lat="49.03791" lon="1.11347">
        <ele>113</ele>
        <time>2011-09-25T10:12:30Z</time>
      </trkpt>
      <trkpt lat="49.03794" lon="1.11354">
        <ele>113</ele>
        <time>2011-09-25T10:12:32Z</time>
      </trkpt>
      <trkpt lat="49.03797" lon="1.11359">
        <ele>113</ele>
        <time>2011-09-25T10:12:34Z</time>
      </trkpt>
      <trkpt lat="49.03801" lon="1.11365">
        <ele>114</ele>
        <time>2011-09-25T10:12:36Z</time>
      </trkpt>
      <trkpt lat="49.03806" lon="1.11372">
        <ele>114</ele>
        <time>2011-09-25T10:12:38Z</time>
      </trkpt>
      <trkpt lat="49.0381" lon="1.11379">
        <ele>114</ele>
        <time>2011-09-25T10:12:40Z</time>
      </trkpt>
      <trkpt lat="49.03814" lon="1.11385">
        <ele>114</ele>
        <time>2011-09-25T10:12:42Z</time>
      </trkpt>
      <trkpt lat="49.03817" lon="1.11392">
        <ele>114</ele>
        <time>2011-09-25T10:12:44Z</time>
      </trkpt>
      <trkpt lat="49.0382" lon="1.114">
        <ele>115</ele>
        <time>2011-09-25T10:12:46Z</time>
      </trkpt>
      <trkpt lat="49.03824" lon="1.11408">
        <ele>116</ele>
        <time>2011-09-25T10:12:48Z</time>
      </trkpt>
      <trkpt lat="49.03828" lon="1.11416">
        <ele>117</ele>
        <time>2011-09-25T10:12:50Z</time>
      </trkpt>
      <trkpt lat="49.03833" lon="1.11426">
        <ele>115</ele>
        <time>2011-09-25T10:12:52Z</time>
      </trkpt>
      <trkpt lat="49.03837" lon="1.11435">
        <ele>120</ele>
        <time>2011-09-25T10:12:54Z</time>
      </trkpt>
      <trkpt lat="49.03841" lon="1.11444">
        <ele>121</ele>
        <time>2011-09-25T10:12:56Z</time>
      </trkpt>
      <trkpt lat="49.03846" lon="1.11452">
        <ele>121</ele>
        <time>2011-09-25T10:12:58Z</time>
      </trkpt>
      <trkpt lat="49.03851" lon="1.1146">
        <ele>121</ele>
        <time>2011-09-25T10:13:00Z</time>
      </trkpt>
      <trkpt lat="49.03854" lon="1.11468">
        <ele>121</ele>
        <time>2011-09-25T10:13:02Z</time>
      </trkpt>
      <trkpt lat="49.03858" lon="1.11485">
        <ele>120</ele>
        <time>2011-09-25T10:13:25Z</time>
      </trkpt>
      <trkpt lat="49.03858" lon="1.11485">
        <ele>120</ele>
        <time>2011-09-25T10:13:25Z</time>
      </trkpt>
      <trkpt lat="49.03858" lon="1.11485">
        <ele>120</ele>
        <time>2011-09-25T10:13:27Z</time>
      </trkpt>
      <trkpt lat="49.0386" lon="1.11494">
        <ele>120</ele>
        <time>2011-09-25T10:13:29Z</time>
      </trkpt>
      <trkpt lat="49.03862" lon="1.11501">
        <ele>117</ele>
        <time>2011-09-25T10:13:31Z</time>
      </trkpt>
      <trkpt lat="49.03866" lon="1.11509">
        <ele>118</ele>
        <time>2011-09-25T10:13:33Z</time>
      </trkpt>
      <trkpt lat="49.03869" lon="1.11518">
        <ele>118</ele>
        <time>2011-09-25T10:13:35Z</time>
      </trkpt>
      <trkpt lat="49.0387" lon="1.11526">
        <ele>118</ele>
        <time>2011-09-25T10:13:37Z</time>
      </trkpt>
      <trkpt lat="49.03873" lon="1.11535">
        <ele>118</ele>
        <time>2011-09-25T10:13:39Z</time>
      </trkpt>
      <trkpt lat="49.03876" lon="1.11543">
        <ele>119</ele>
        <time>2011-09-25T10:13:41Z</time>
      </trkpt>
      <trkpt lat="49.0388" lon="1.11551">
        <ele>119</ele>
        <time>2011-09-25T10:13:43Z</time>
      </trkpt>
      <trkpt lat="49.03884" lon="1.11558">
        <ele>119</ele>
        <time>2011-09-25T10:13:45Z</time>
      </trkpt>
      <trkpt lat="49.03888" lon="1.11566">
        <ele>120</ele>
        <time>2011-09-25T10:13:47Z</time>
      </trkpt>
      <trkpt lat="49.03892" lon="1.11574">
        <ele>120</ele>
        <time>2011-09-25T10:13:49Z</time>
      </trkpt>
      <trkpt lat="49.03896" lon="1.11581">
        <ele>121</ele>
        <time>2011-09-25T10:13:51Z</time>
      </trkpt>
      <trkpt lat="49.03899" lon="1.11589">
        <ele>119</ele>
        <time>2011-09-25T10:13:53Z</time>
      </trkpt>
      <trkpt lat="49.03902" lon="1.11596">
        <ele>119</ele>
        <time>2011-09-25T10:13:56Z</time>
      </trkpt>
      <trkpt lat="49.03904" lon="1.11604">
        <ele>119</ele>
        <time>2011-09-25T10:13:59Z</time>
      </trkpt>
      <trkpt lat="49.03906" lon="1.11613">
        <ele>118</ele>
        <time>2011-09-25T10:14:02Z</time>
      </trkpt>
      <trkpt lat="49.03908" lon="1.11619">
        <ele>118</ele>
        <time>2011-09-25T10:14:04Z</time>
      </trkpt>
      <trkpt lat="49.0391" lon="1.11626">
        <ele>118</ele>
        <time>2011-09-25T10:14:06Z</time>
      </trkpt>
      <trkpt lat="49.03912" lon="1.11632">
        <ele>118</ele>
        <time>2011-09-25T10:14:08Z</time>
      </trkpt>
      <trkpt lat="49.03914" lon="1.1164">
        <ele>118</ele>
        <time>2011-09-25T10:14:10Z</time>
      </trkpt>
      <trkpt lat="49.03916" lon="1.11648">
        <ele>119</ele>
        <time>2011-09-25T10:14:12Z</time>
      </trkpt>
      <trkpt lat="49.03918" lon="1.11654">
        <ele>125</ele>
        <time>2011-09-25T10:14:14Z</time>
      </trkpt>
      <trkpt lat="49.0392" lon="1.11663">
        <ele>124</ele>
        <time>2011-09-25T10:14:17Z</time>
      </trkpt>
      <trkpt lat="49.03922" lon="1.1167">
        <ele>124</ele>
        <time>2011-09-25T10:14:19Z</time>
      </trkpt>
      <trkpt lat="49.03924" lon="1.11677">
        <ele>125</ele>
        <time>2011-09-25T10:14:21Z</time>
      </trkpt>
      <trkpt lat="49.03924" lon="1.11677">
        <ele>125</ele>
        <time>2011-09-25T10:14:21Z</time>
      </trkpt>
      <trkpt lat="49.03924" lon="1.11677">
        <ele>125</ele>
        <time>2011-09-25T10:14:22Z</time>
      </trkpt>
      <trkpt lat="49.03928" lon="1.11685">
        <ele>126</ele>
        <time>2011-09-25T10:14:24Z</time>
      </trkpt>
      <trkpt lat="49.03932" lon="1.11689">
        <ele>127</ele>
        <time>2011-09-25T10:14:26Z</time>
      </trkpt>
      <trkpt lat="49.03938" lon="1.11692">
        <ele>128</ele>
        <time>2011-09-25T10:14:28Z</time>
      </trkpt>
      <trkpt lat="49.03943" lon="1.11695">
        <ele>128</ele>
        <time>2011-09-25T10:14:31Z</time>
      </trkpt>
      <trkpt lat="49.03949" lon="1.11699">
        <ele>129</ele>
        <time>2011-09-25T10:14:34Z</time>
      </trkpt>
      <trkpt lat="49.03954" lon="1.117">
        <ele>129</ele>
        <time>2011-09-25T10:14:36Z</time>
      </trkpt>
      <trkpt lat="49.03958" lon="1.11703">
        <ele>130</ele>
        <time>2011-09-25T10:14:38Z</time>
      </trkpt>
      <trkpt lat="49.03962" lon="1.11706">
        <ele>130</ele>
        <time>2011-09-25T10:14:40Z</time>
      </trkpt>
      <trkpt lat="49.03967" lon="1.1171">
        <ele>131</ele>
        <time>2011-09-25T10:14:43Z</time>
      </trkpt>
      <trkpt lat="49.03972" lon="1.11716">
        <ele>131</ele>
        <time>2011-09-25T10:14:46Z</time>
      </trkpt>
      <trkpt lat="49.03975" lon="1.11724">
        <ele>131</ele>
        <time>2011-09-25T10:14:49Z</time>
      </trkpt>
      <trkpt lat="49.03976" lon="1.11732">
        <ele>132</ele>
        <time>2011-09-25T10:14:52Z</time>
      </trkpt>
      <trkpt lat="49.03976" lon="1.11732">
        <ele>132</ele>
        <time>2011-09-25T10:14:52Z</time>
      </trkpt>
      <trkpt lat="49.03976" lon="1.11732">
        <ele>132</ele>
        <time>2011-09-25T10:14:53Z</time>
      </trkpt>
      <trkpt lat="49.03975" lon="1.1174">
        <ele>132</ele>
        <time>2011-09-25T10:14:55Z</time>
      </trkpt>
      <trkpt lat="49.03974" lon="1.11749">
        <ele>132</ele>
        <time>2011-09-25T10:14:58Z</time>
      </trkpt>
      <trkpt lat="49.03972" lon="1.11758">
        <ele>132</ele>
        <time>2011-09-25T10:15:01Z</time>
      </trkpt>
      <trkpt lat="49.03972" lon="1.11758">
        <ele>132</ele>
        <time>2011-09-25T10:15:01Z</time>
      </trkpt>
      <trkpt lat="49.03972" lon="1.11758">
        <ele>132</ele>
        <time>2011-09-25T10:15:03Z</time>
      </trkpt>
      <trkpt lat="49.03971" lon="1.11766">
        <ele>132</ele>
        <time>2011-09-25T10:15:04Z</time>
      </trkpt>
      <trkpt lat="49.0397" lon="1.11773">
        <ele>132</ele>
        <time>2011-09-25T10:15:07Z</time>
      </trkpt>
      <trkpt lat="49.03969" lon="1.11781">
        <ele>132</ele>
        <time>2011-09-25T10:15:09Z</time>
      </trkpt>
      <trkpt lat="49.03966" lon="1.1179">
        <ele>131</ele>
        <time>2011-09-25T10:15:12Z</time>
      </trkpt>
      <trkpt lat="49.03963" lon="1.11797">
        <ele>131</ele>
        <time>2011-09-25T10:15:14Z</time>
      </trkpt>
      <trkpt lat="49.0396" lon="1.11805">
        <ele>131</ele>
        <time>2011-09-25T10:15:16Z</time>
      </trkpt>
      <trkpt lat="49.03955" lon="1.11812">
        <ele>131</ele>
        <time>2011-09-25T10:15:18Z</time>
      </trkpt>
      <trkpt lat="49.0395" lon="1.11818">
        <ele>130</ele>
        <time>2011-09-25T10:15:20Z</time>
      </trkpt>
      <trkpt lat="49.03945" lon="1.11825">
        <ele>130</ele>
        <time>2011-09-25T10:15:22Z</time>
      </trkpt>
      <trkpt lat="49.0394" lon="1.11835">
        <ele>131</ele>
        <time>2011-09-25T10:15:24Z</time>
      </trkpt>
      <trkpt lat="49.03936" lon="1.11846">
        <ele>131</ele>
        <time>2011-09-25T10:15:26Z</time>
      </trkpt>
      <trkpt lat="49.03932" lon="1.11857">
        <ele>132</ele>
        <time>2011-09-25T10:15:28Z</time>
      </trkpt>
      <trkpt lat="49.03928" lon="1.11866">
        <ele>132</ele>
        <time>2011-09-25T10:15:30Z</time>
      </trkpt>
      <trkpt lat="49.03923" lon="1.11873">
        <ele>133</ele>
        <time>2011-09-25T10:15:32Z</time>
      </trkpt>
      <trkpt lat="49.03919" lon="1.11882">
        <ele>133</ele>
        <time>2011-09-25T10:15:34Z</time>
      </trkpt>
      <trkpt lat="49.03915" lon="1.11894">
        <ele>127</ele>
        <time>2011-09-25T10:15:36Z</time>
      </trkpt>
      <trkpt lat="49.03912" lon="1.11906">
        <ele>129</ele>
        <time>2011-09-25T10:15:38Z</time>
      </trkpt>
      <trkpt lat="49.03908" lon="1.11918">
        <ele>133</ele>
        <time>2011-09-25T10:15:40Z</time>
      </trkpt>
      <trkpt lat="49.03903" lon="1.11929">
        <ele>133</ele>
        <time>2011-09-25T10:15:42Z</time>
      </trkpt>
      <trkpt lat="49.03896" lon="1.11939">
        <ele>133</ele>
        <time>2011-09-25T10:15:44Z</time>
      </trkpt>
      <trkpt lat="49.03893" lon="1.11943">
        <ele>133</ele>
        <time>2011-09-25T10:15:45Z</time>
      </trkpt>
      <trkpt lat="49.03889" lon="1.11947">
        <ele>133</ele>
        <time>2011-09-25T10:15:46Z</time>
      </trkpt>
      <trkpt lat="49.03882" lon="1.11956">
        <ele>133</ele>
        <time>2011-09-25T10:15:48Z</time>
      </trkpt>
      <trkpt lat="49.03878" lon="1.1196">
        <ele>133</ele>
        <time>2011-09-25T10:15:49Z</time>
      </trkpt>
      <trkpt lat="49.03875" lon="1.11965">
        <ele>134</ele>
        <time>2011-09-25T10:15:50Z</time>
      </trkpt>
      <trkpt lat="49.03872" lon="1.1197">
        <ele>134</ele>
        <time>2011-09-25T10:15:51Z</time>
      </trkpt>
      <trkpt lat="49.03863" lon="1.11972">
        <ele>134</ele>
        <time>2011-09-25T10:15:53Z</time>
      </trkpt>
      <trkpt lat="49.03853" lon="1.11972">
        <ele>134</ele>
        <time>2011-09-25T10:15:55Z</time>
      </trkpt>
      <trkpt lat="49.03848" lon="1.11972">
        <ele>134</ele>
        <time>2011-09-25T10:15:56Z</time>
      </trkpt>
      <trkpt lat="49.03842" lon="1.11969">
        <ele>133</ele>
        <time>2011-09-25T10:15:57Z</time>
      </trkpt>
      <trkpt lat="49.03836" lon="1.11966">
        <ele>133</ele>
        <time>2011-09-25T10:15:58Z</time>
      </trkpt>
      <trkpt lat="49.03832" lon="1.11965">
        <ele>131</ele>
        <time>2011-09-25T10:15:59Z</time>
      </trkpt>
      <trkpt lat="49.03823" lon="1.11963">
        <ele>131</ele>
        <time>2011-09-25T10:16:01Z</time>
      </trkpt>
      <trkpt lat="49.03814" lon="1.11964">
        <ele>131</ele>
        <time>2011-09-25T10:16:03Z</time>
      </trkpt>
      <trkpt lat="49.0381" lon="1.11963">
        <ele>131</ele>
        <time>2011-09-25T10:16:04Z</time>
      </trkpt>
      <trkpt lat="49.03804" lon="1.11962">
        <ele>131</ele>
        <time>2011-09-25T10:16:05Z</time>
      </trkpt>
      <trkpt lat="49.038" lon="1.11961">
        <ele>131</ele>
        <time>2011-09-25T10:16:06Z</time>
      </trkpt>
      <trkpt lat="49.03795" lon="1.11959">
        <ele>130</ele>
        <time>2011-09-25T10:16:07Z</time>
      </trkpt>
      <trkpt lat="49.03791" lon="1.11957">
        <ele>130</ele>
        <time>2011-09-25T10:16:08Z</time>
      </trkpt>
      <trkpt lat="49.03786" lon="1.11956">
        <ele>130</ele>
        <time>2011-09-25T10:16:09Z</time>
      </trkpt>
      <trkpt lat="49.03778" lon="1.11951">
        <ele>130</ele>
        <time>2011-09-25T10:16:11Z</time>
      </trkpt>
      <trkpt lat="49.03774" lon="1.11948">
        <ele>129</ele>
        <time>2011-09-25T10:16:12Z</time>
      </trkpt>
      <trkpt lat="49.0377" lon="1.11944">
        <ele>129</ele>
        <time>2011-09-25T10:16:13Z</time>
      </trkpt>
      <trkpt lat="49.03765" lon="1.1194">
        <ele>128</ele>
        <time>2011-09-25T10:16:14Z</time>
      </trkpt>
      <trkpt lat="49.03761" lon="1.11938">
        <ele>128</ele>
        <time>2011-09-25T10:16:15Z</time>
      </trkpt>
      <trkpt lat="49.03756" lon="1.11936">
        <ele>127</ele>
        <time>2011-09-25T10:16:16Z</time>
      </trkpt>
      <trkpt lat="49.0375" lon="1.11935">
        <ele>127</ele>
        <time>2011-09-25T10:16:17Z</time>
      </trkpt>
      <trkpt lat="49.03746" lon="1.11934">
        <ele>125</ele>
        <time>2011-09-25T10:16:18Z</time>
      </trkpt>
      <trkpt lat="49.03738" lon="1.11935">
        <ele>125</ele>
        <time>2011-09-25T10:16:20Z</time>
      </trkpt>
      <trkpt lat="49.03732" lon="1.11935">
        <ele>125</ele>
        <time>2011-09-25T10:16:22Z</time>
      </trkpt>
      <trkpt lat="49.03726" lon="1.11934">
        <ele>125</ele>
        <time>2011-09-25T10:16:24Z</time>
      </trkpt>
      <trkpt lat="49.03718" lon="1.11933">
        <ele>125</ele>
        <time>2011-09-25T10:16:26Z</time>
      </trkpt>
      <trkpt lat="49.03709" lon="1.11932">
        <ele>125</ele>
        <time>2011-09-25T10:16:28Z</time>
      </trkpt>
      <trkpt lat="49.03701" lon="1.1193">
        <ele>125</ele>
        <time>2011-09-25T10:16:30Z</time>
      </trkpt>
      <trkpt lat="49.03693" lon="1.11926">
        <ele>124</ele>
        <time>2011-09-25T10:16:32Z</time>
      </trkpt>
      <trkpt lat="49.03685" lon="1.11923">
        <ele>123</ele>
        <time>2011-09-25T10:16:34Z</time>
      </trkpt>
      <trkpt lat="49.0368" lon="1.11923">
        <ele>123</ele>
        <time>2011-09-25T10:16:36Z</time>
      </trkpt>
      <trkpt lat="49.03676" lon="1.1193">
        <ele>123</ele>
        <time>2011-09-25T10:16:39Z</time>
      </trkpt>
      <trkpt lat="49.03673" lon="1.11937">
        <ele>124</ele>
        <time>2011-09-25T10:16:41Z</time>
      </trkpt>
      <trkpt lat="49.03668" lon="1.11945">
        <ele>124</ele>
        <time>2011-09-25T10:16:43Z</time>
      </trkpt>
      <trkpt lat="49.03668" lon="1.11954">
        <ele>125</ele>
        <time>2011-09-25T10:16:45Z</time>
      </trkpt>
      <trkpt lat="49.03665" lon="1.11961">
        <ele>117</ele>
        <time>2011-09-25T10:16:47Z</time>
      </trkpt>
      <trkpt lat="49.03659" lon="1.11962">
        <ele>116</ele>
        <time>2011-09-25T10:16:49Z</time>
      </trkpt>
      <trkpt lat="49.03653" lon="1.11961">
        <ele>116</ele>
        <time>2011-09-25T10:16:51Z</time>
      </trkpt>
      <trkpt lat="49.03648" lon="1.1196">
        <ele>115</ele>
        <time>2011-09-25T10:16:53Z</time>
      </trkpt>
      <trkpt lat="49.03642" lon="1.1196">
        <ele>115</ele>
        <time>2011-09-25T10:16:55Z</time>
      </trkpt>
      <trkpt lat="49.03637" lon="1.11958">
        <ele>114</ele>
        <time>2011-09-25T10:16:57Z</time>
      </trkpt>
      <trkpt lat="49.03632" lon="1.11951">
        <ele>114</ele>
        <time>2011-09-25T10:16:59Z</time>
      </trkpt>
      <trkpt lat="49.03629" lon="1.11942">
        <ele>113</ele>
        <time>2011-09-25T10:17:01Z</time>
      </trkpt>
      <trkpt lat="49.03624" lon="1.11935">
        <ele>112</ele>
        <time>2011-09-25T10:17:03Z</time>
      </trkpt>
      <trkpt lat="49.03619" lon="1.11935">
        <ele>112</ele>
        <time>2011-09-25T10:17:05Z</time>
      </trkpt>
      <trkpt lat="49.03615" lon="1.1194">
        <ele>111</ele>
        <time>2011-09-25T10:17:07Z</time>
      </trkpt>
      <trkpt lat="49.03611" lon="1.11949">
        <ele>111</ele>
        <time>2011-09-25T10:17:09Z</time>
      </trkpt>
      <trkpt lat="49.03606" lon="1.11958">
        <ele>111</ele>
        <time>2011-09-25T10:17:11Z</time>
      </trkpt>
      <trkpt lat="49.03602" lon="1.1197">
        <ele>111</ele>
        <time>2011-09-25T10:17:13Z</time>
      </trkpt>
      <trkpt lat="49.03601" lon="1.11982">
        <ele>110</ele>
        <time>2011-09-25T10:17:15Z</time>
      </trkpt>
      <trkpt lat="49.036" lon="1.11995">
        <ele>109</ele>
        <time>2011-09-25T10:17:17Z</time>
      </trkpt>
      <trkpt lat="49.03599" lon="1.12008">
        <ele>110</ele>
        <time>2011-09-25T10:17:19Z</time>
      </trkpt>
      <trkpt lat="49.03598" lon="1.12023">
        <ele>110</ele>
        <time>2011-09-25T10:17:21Z</time>
      </trkpt>
      <trkpt lat="49.03597" lon="1.12032">
        <ele>111</ele>
        <time>2011-09-25T10:17:22Z</time>
      </trkpt>
      <trkpt lat="49.03596" lon="1.12041">
        <ele>111</ele>
        <time>2011-09-25T10:17:23Z</time>
      </trkpt>
      <trkpt lat="49.03594" lon="1.12051">
        <ele>110</ele>
        <time>2011-09-25T10:17:24Z</time>
      </trkpt>
      <trkpt lat="49.03592" lon="1.12062">
        <ele>109</ele>
        <time>2011-09-25T10:17:25Z</time>
      </trkpt>
      <trkpt lat="49.0359" lon="1.12073">
        <ele>107</ele>
        <time>2011-09-25T10:17:26Z</time>
      </trkpt>
      <trkpt lat="49.03588" lon="1.12082">
        <ele>104</ele>
        <time>2011-09-25T10:17:27Z</time>
      </trkpt>
      <trkpt lat="49.03585" lon="1.12091">
        <ele>105</ele>
        <time>2011-09-25T10:17:28Z</time>
      </trkpt>
      <trkpt lat="49.03583" lon="1.12101">
        <ele>99</ele>
        <time>2011-09-25T10:17:29Z</time>
      </trkpt>
      <trkpt lat="49.0358" lon="1.1211">
        <ele>98</ele>
        <time>2011-09-25T10:17:30Z</time>
      </trkpt>
      <trkpt lat="49.03578" lon="1.12119">
        <ele>98</ele>
        <time>2011-09-25T10:17:31Z</time>
      </trkpt>
      <trkpt lat="49.03575" lon="1.12128">
        <ele>98</ele>
        <time>2011-09-25T10:17:32Z</time>
      </trkpt>
      <trkpt lat="49.03682" lon="1.12204">
        <ele>130</ele>
        <time>2011-09-25T10:17:43Z</time>
      </trkpt>
      <trkpt lat="49.03663" lon="1.12206">
        <ele>117</ele>
        <time>2011-09-25T10:17:44Z</time>
      </trkpt>
      <trkpt lat="49.03634" lon="1.12207">
        <ele>113</ele>
        <time>2011-09-25T10:17:45Z</time>
      </trkpt>
      <trkpt lat="49.03619" lon="1.1221">
        <ele>111</ele>
        <time>2011-09-25T10:17:46Z</time>
      </trkpt>
      <trkpt lat="49.03609" lon="1.12213">
        <ele>110</ele>
        <time>2011-09-25T10:17:47Z</time>
      </trkpt>
      <trkpt lat="49.03609" lon="1.12222">
        <ele>109</ele>
        <time>2011-09-25T10:17:49Z</time>
      </trkpt>
      <trkpt lat="49.03607" lon="1.1223">
        <ele>109</ele>
        <time>2011-09-25T10:17:51Z</time>
      </trkpt>
      <trkpt lat="49.03606" lon="1.12237">
        <ele>108</ele>
        <time>2011-09-25T10:17:53Z</time>
      </trkpt>
      <trkpt lat="49.03603" lon="1.12246">
        <ele>107</ele>
        <time>2011-09-25T10:17:56Z</time>
      </trkpt>
      <trkpt lat="49.03603" lon="1.12246">
        <ele>107</ele>
        <time>2011-09-25T10:17:56Z</time>
      </trkpt>
      <trkpt lat="49.03603" lon="1.12246">
        <ele>107</ele>
        <time>2011-09-25T10:17:57Z</time>
      </trkpt>
      <trkpt lat="49.03599" lon="1.12257">
        <ele>106</ele>
        <time>2011-09-25T10:18:00Z</time>
      </trkpt>
      <trkpt lat="49.03592" lon="1.12264">
        <ele>105</ele>
        <time>2011-09-25T10:18:02Z</time>
      </trkpt>
      <trkpt lat="49.03587" lon="1.12268">
        <ele>106</ele>
        <time>2011-09-25T10:18:03Z</time>
      </trkpt>
      <trkpt lat="49.03584" lon="1.12273">
        <ele>106</ele>
        <time>2011-09-25T10:18:04Z</time>
      </trkpt>
      <trkpt lat="49.0358" lon="1.12278">
        <ele>96</ele>
        <time>2011-09-25T10:18:05Z</time>
      </trkpt>
      <trkpt lat="49.03577" lon="1.12284">
        <ele>96</ele>
        <time>2011-09-25T10:18:06Z</time>
      </trkpt>
      <trkpt lat="49.03574" lon="1.1229">
        <ele>96</ele>
        <time>2011-09-25T10:18:07Z</time>
      </trkpt>
      <trkpt lat="49.03572" lon="1.12297">
        <ele>96</ele>
        <time>2011-09-25T10:18:08Z</time>
      </trkpt>
      <trkpt lat="49.03571" lon="1.12304">
        <ele>96</ele>
        <time>2011-09-25T10:18:09Z</time>
      </trkpt>
      <trkpt lat="49.03568" lon="1.12316">
        <ele>97</ele>
        <time>2011-09-25T10:18:11Z</time>
      </trkpt>
      <trkpt lat="49.03564" lon="1.12328">
        <ele>97</ele>
        <time>2011-09-25T10:18:13Z</time>
      </trkpt>
      <trkpt lat="49.03561" lon="1.12341">
        <ele>100</ele>
        <time>2011-09-25T10:18:15Z</time>
      </trkpt>
      <trkpt lat="49.03557" lon="1.12352">
        <ele>100</ele>
        <time>2011-09-25T10:18:17Z</time>
      </trkpt>
      <trkpt lat="49.03552" lon="1.12364">
        <ele>100</ele>
        <time>2011-09-25T10:18:19Z</time>
      </trkpt>
      <trkpt lat="49.03547" lon="1.12374">
        <ele>100</ele>
        <time>2011-09-25T10:18:21Z</time>
      </trkpt>
      <trkpt lat="49.03542" lon="1.12385">
        <ele>101</ele>
        <time>2011-09-25T10:18:23Z</time>
      </trkpt>
      <trkpt lat="49.03537" lon="1.12389">
        <ele>101</ele>
        <time>2011-09-25T10:18:24Z</time>
      </trkpt>
      <trkpt lat="49.03532" lon="1.12391">
        <ele>100</ele>
        <time>2011-09-25T10:18:25Z</time>
      </trkpt>
      <trkpt lat="49.03527" lon="1.12392">
        <ele>100</ele>
        <time>2011-09-25T10:18:26Z</time>
      </trkpt>
      <trkpt lat="49.03522" lon="1.12392">
        <ele>100</ele>
        <time>2011-09-25T10:18:27Z</time>
      </trkpt>
      <trkpt lat="49.03515" lon="1.12391">
        <ele>100</ele>
        <time>2011-09-25T10:18:28Z</time>
      </trkpt>
      <trkpt lat="49.03509" lon="1.1239">
        <ele>99</ele>
        <time>2011-09-25T10:18:29Z</time>
      </trkpt>
      <trkpt lat="49.03503" lon="1.12387">
        <ele>99</ele>
        <time>2011-09-25T10:18:30Z</time>
      </trkpt>
      <trkpt lat="49.03498" lon="1.12384">
        <ele>98</ele>
        <time>2011-09-25T10:18:31Z</time>
      </trkpt>
      <trkpt lat="49.03492" lon="1.12382">
        <ele>98</ele>
        <time>2011-09-25T10:18:32Z</time>
      </trkpt>
      <trkpt lat="49.03486" lon="1.1238">
        <ele>98</ele>
        <time>2011-09-25T10:18:33Z</time>
      </trkpt>
      <trkpt lat="49.0348" lon="1.12377">
        <ele>98</ele>
        <time>2011-09-25T10:18:34Z</time>
      </trkpt>
      <trkpt lat="49.03474" lon="1.12374">
        <ele>98</ele>
        <time>2011-09-25T10:18:35Z</time>
      </trkpt>
      <trkpt lat="49.0347" lon="1.1237">
        <ele>98</ele>
        <time>2011-09-25T10:18:36Z</time>
      </trkpt>
      <trkpt lat="49.03466" lon="1.12366">
        <ele>98</ele>
        <time>2011-09-25T10:18:37Z</time>
      </trkpt>
      <trkpt lat="49.03462" lon="1.12362">
        <ele>98</ele>
        <time>2011-09-25T10:18:38Z</time>
      </trkpt>
      <trkpt lat="49.03458" lon="1.12357">
        <ele>98</ele>
        <time>2011-09-25T10:18:39Z</time>
      </trkpt>
      <trkpt lat="49.03452" lon="1.12347">
        <ele>98</ele>
        <time>2011-09-25T10:18:41Z</time>
      </trkpt>
      <trkpt lat="49.03449" lon="1.12341">
        <ele>98</ele>
        <time>2011-09-25T10:18:42Z</time>
      </trkpt>
      <trkpt lat="49.03446" lon="1.12336">
        <ele>98</ele>
        <time>2011-09-25T10:18:43Z</time>
      </trkpt>
      <trkpt lat="49.03442" lon="1.1233">
        <ele>93</ele>
        <time>2011-09-25T10:18:44Z</time>
      </trkpt>
      <trkpt lat="49.0344" lon="1.12324">
        <ele>93</ele>
        <time>2011-09-25T10:18:45Z</time>
      </trkpt>
      <trkpt lat="49.03437" lon="1.12317">
        <ele>93</ele>
        <time>2011-09-25T10:18:46Z</time>
      </trkpt>
      <trkpt lat="49.03434" lon="1.1231">
        <ele>93</ele>
        <time>2011-09-25T10:18:47Z</time>
      </trkpt>
      <trkpt lat="49.03431" lon="1.12303">
        <ele>92</ele>
        <time>2011-09-25T10:18:48Z</time>
      </trkpt>
      <trkpt lat="49.03429" lon="1.12296">
        <ele>92</ele>
        <time>2011-09-25T10:18:49Z</time>
      </trkpt>
      <trkpt lat="49.03427" lon="1.12289">
        <ele>91</ele>
        <time>2011-09-25T10:18:50Z</time>
      </trkpt>
      <trkpt lat="49.03424" lon="1.12282">
        <ele>91</ele>
        <time>2011-09-25T10:18:51Z</time>
      </trkpt>
      <trkpt lat="49.03421" lon="1.12276">
        <ele>90</ele>
        <time>2011-09-25T10:18:52Z</time>
      </trkpt>
      <trkpt lat="49.03419" lon="1.1227">
        <ele>90</ele>
        <time>2011-09-25T10:18:53Z</time>
      </trkpt>
      <trkpt lat="49.03415" lon="1.12264">
        <ele>90</ele>
        <time>2011-09-25T10:18:54Z</time>
      </trkpt>
      <trkpt lat="49.03409" lon="1.12255">
        <ele>89</ele>
        <time>2011-09-25T10:18:56Z</time>
      </trkpt>
      <trkpt lat="49.03403" lon="1.12248">
        <ele>88</ele>
        <time>2011-09-25T10:18:58Z</time>
      </trkpt>
      <trkpt lat="49.03397" lon="1.12244">
        <ele>87</ele>
        <time>2011-09-25T10:19:00Z</time>
      </trkpt>
      <trkpt lat="49.03393" lon="1.12242">
        <ele>87</ele>
        <time>2011-09-25T10:19:02Z</time>
      </trkpt>
      <trkpt lat="49.03393" lon="1.12242">
        <ele>87</ele>
        <time>2011-09-25T10:19:02Z</time>
      </trkpt>
      <trkpt lat="49.03393" lon="1.12242">
        <ele>87</ele>
        <time>2011-09-25T10:19:07Z</time>
      </trkpt>
      <trkpt lat="49.03382" lon="1.12246">
        <ele>87</ele>
        <time>2011-09-25T10:19:08Z</time>
      </trkpt>
      <trkpt lat="49.03375" lon="1.12256">
        <ele>90</ele>
        <time>2011-09-25T10:19:13Z</time>
      </trkpt>
      <trkpt lat="49.03371" lon="1.12263">
        <ele>91</ele>
        <time>2011-09-25T10:19:16Z</time>
      </trkpt>
      <trkpt lat="49.03369" lon="1.1227">
        <ele>91</ele>
        <time>2011-09-25T10:19:18Z</time>
      </trkpt>
      <trkpt lat="49.03367" lon="1.12282">
        <ele>91</ele>
        <time>2011-09-25T10:19:21Z</time>
      </trkpt>
      <trkpt lat="49.03365" lon="1.12289">
        <ele>91</ele>
        <time>2011-09-25T10:19:23Z</time>
      </trkpt>
      <trkpt lat="49.03362" lon="1.12295">
        <ele>92</ele>
        <time>2011-09-25T10:19:25Z</time>
      </trkpt>
      <trkpt lat="49.0336" lon="1.12302">
        <ele>92</ele>
        <time>2011-09-25T10:19:28Z</time>
      </trkpt>
      <trkpt lat="49.03358" lon="1.12315">
        <ele>92</ele>
        <time>2011-09-25T10:19:34Z</time>
      </trkpt>
      <trkpt lat="49.03358" lon="1.12322">
        <ele>92</ele>
        <time>2011-09-25T10:19:37Z</time>
      </trkpt>
      <trkpt lat="49.0336" lon="1.1233">
        <ele>92</ele>
        <time>2011-09-25T10:19:40Z</time>
      </trkpt>
      <trkpt lat="49.03361" lon="1.12339">
        <ele>96</ele>
        <time>2011-09-25T10:19:43Z</time>
      </trkpt>
      <trkpt lat="49.03361" lon="1.12339">
        <ele>96</ele>
        <time>2011-09-25T10:19:43Z</time>
      </trkpt>
      <trkpt lat="49.03361" lon="1.12339">
        <ele>96</ele>
        <time>2011-09-25T10:19:46Z</time>
      </trkpt>
      <trkpt lat="49.03364" lon="1.12351">
        <ele>97</ele>
        <time>2011-09-25T10:19:47Z</time>
      </trkpt>
      <trkpt lat="49.03364" lon="1.12351">
        <ele>97</ele>
        <time>2011-09-25T10:19:47Z</time>
      </trkpt>
      <trkpt lat="49.03364" lon="1.12351">
        <ele>97</ele>
        <time>2011-09-25T10:19:48Z</time>
      </trkpt>
      <trkpt lat="49.03365" lon="1.1236">
        <ele>97</ele>
        <time>2011-09-25T10:19:50Z</time>
      </trkpt>
      <trkpt lat="49.03368" lon="1.12369">
        <ele>97</ele>
        <time>2011-09-25T10:19:53Z</time>
      </trkpt>
      <trkpt lat="49.03369" lon="1.12378">
        <ele>98</ele>
        <time>2011-09-25T10:19:56Z</time>
      </trkpt>
      <trkpt lat="49.0337" lon="1.1239">
        <ele>98</ele>
        <time>2011-09-25T10:20:00Z</time>
      </trkpt>
      <trkpt lat="49.0337" lon="1.1239">
        <ele>98</ele>
        <time>2011-09-25T10:20:00Z</time>
      </trkpt>
      <trkpt lat="49.0337" lon="1.1239">
        <ele>98</ele>
        <time>2011-09-25T10:20:01Z</time>
      </trkpt>
      <trkpt lat="49.03374" lon="1.12397">
        <ele>99</ele>
        <time>2011-09-25T10:20:03Z</time>
      </trkpt>
      <trkpt lat="49.03378" lon="1.12403">
        <ele>99</ele>
        <time>2011-09-25T10:20:06Z</time>
      </trkpt>
      <trkpt lat="49.03382" lon="1.1241">
        <ele>100</ele>
        <time>2011-09-25T10:20:09Z</time>
      </trkpt>
      <trkpt lat="49.03386" lon="1.12415">
        <ele>101</ele>
        <time>2011-09-25T10:20:12Z</time>
      </trkpt>
      <trkpt lat="49.03389" lon="1.12421">
        <ele>105</ele>
        <time>2011-09-25T10:20:15Z</time>
      </trkpt>
      <trkpt lat="49.03392" lon="1.12426">
        <ele>105</ele>
        <time>2011-09-25T10:20:18Z</time>
      </trkpt>
      <trkpt lat="49.03392" lon="1.12426">
        <ele>105</ele>
        <time>2011-09-25T10:20:18Z</time>
      </trkpt>
      <trkpt lat="49.03392" lon="1.12426">
        <ele>105</ele>
        <time>2011-09-25T10:20:19Z</time>
      </trkpt>
      <trkpt lat="49.03397" lon="1.12435">
        <ele>106</ele>
        <time>2011-09-25T10:20:24Z</time>
      </trkpt>
      <trkpt lat="49.034" lon="1.12442">
        <ele>106</ele>
        <time>2011-09-25T10:20:28Z</time>
      </trkpt>
      <trkpt lat="49.03404" lon="1.12448">
        <ele>106</ele>
        <time>2011-09-25T10:20:32Z</time>
      </trkpt>
      <trkpt lat="49.03408" lon="1.12457">
        <ele>107</ele>
        <time>2011-09-25T10:20:37Z</time>
      </trkpt>
      <trkpt lat="49.03411" lon="1.12468">
        <ele>108</ele>
        <time>2011-09-25T10:20:42Z</time>
      </trkpt>
      <trkpt lat="49.03415" lon="1.12476">
        <ele>109</ele>
        <time>2011-09-25T10:20:46Z</time>
      </trkpt>
      <trkpt lat="49.03417" lon="1.12485">
        <ele>115</ele>
        <time>2011-09-25T10:20:50Z</time>
      </trkpt>
      <trkpt lat="49.03419" lon="1.12491">
        <ele>116</ele>
        <time>2011-09-25T10:20:53Z</time>
      </trkpt>
      <trkpt lat="49.03421" lon="1.12498">
        <ele>116</ele>
        <time>2011-09-25T10:20:56Z</time>
      </trkpt>
      <trkpt lat="49.03422" lon="1.12506">
        <ele>119</ele>
        <time>2011-09-25T10:20:59Z</time>
      </trkpt>
      <trkpt lat="49.03423" lon="1.12514">
        <ele>121</ele>
        <time>2011-09-25T10:21:03Z</time>
      </trkpt>
      <trkpt lat="49.03424" lon="1.12522">
        <ele>122</ele>
        <time>2011-09-25T10:21:06Z</time>
      </trkpt>
      <trkpt lat="49.03423" lon="1.1253">
        <ele>123</ele>
        <time>2011-09-25T10:21:09Z</time>
      </trkpt>
      <trkpt lat="49.03424" lon="1.12539">
        <ele>124</ele>
        <time>2011-09-25T10:21:13Z</time>
      </trkpt>
      <trkpt lat="49.03424" lon="1.12548">
        <ele>125</ele>
        <time>2011-09-25T10:21:17Z</time>
      </trkpt>
      <trkpt lat="49.03426" lon="1.12555">
        <ele>126</ele>
        <time>2011-09-25T10:21:20Z</time>
      </trkpt>
      <trkpt lat="49.03426" lon="1.12555">
        <ele>126</ele>
        <time>2011-09-25T10:21:20Z</time>
      </trkpt>
      <trkpt lat="49.03426" lon="1.12555">
        <ele>126</ele>
        <time>2011-09-25T10:21:21Z</time>
      </trkpt>
      <trkpt lat="49.03428" lon="1.12561">
        <ele>126</ele>
        <time>2011-09-25T10:21:23Z</time>
      </trkpt>
      <trkpt lat="49.03433" lon="1.12569">
        <ele>127</ele>
        <time>2011-09-25T10:21:27Z</time>
      </trkpt>
      <trkpt lat="49.0344" lon="1.12576">
        <ele>127</ele>
        <time>2011-09-25T10:21:31Z</time>
      </trkpt>
      <trkpt lat="49.03444" lon="1.1258">
        <ele>127</ele>
        <time>2011-09-25T10:21:33Z</time>
      </trkpt>
      <trkpt lat="49.03444" lon="1.1258">
        <ele>127</ele>
        <time>2011-09-25T10:21:33Z</time>
      </trkpt>
      <trkpt lat="49.03444" lon="1.1258">
        <ele>127</ele>
        <time>2011-09-25T10:21:34Z</time>
      </trkpt>
      <trkpt lat="49.0345" lon="1.12584">
        <ele>132</ele>
        <time>2011-09-25T10:21:36Z</time>
      </trkpt>
      <trkpt lat="49.0346" lon="1.12594">
        <ele>132</ele>
        <time>2011-09-25T10:21:43Z</time>
      </trkpt>
      <trkpt lat="49.0346" lon="1.12594">
        <ele>132</ele>
        <time>2011-09-25T10:21:43Z</time>
      </trkpt>
      <trkpt lat="49.0346" lon="1.12594">
        <ele>132</ele>
        <time>2011-09-25T10:21:46Z</time>
      </trkpt>
      <trkpt lat="49.03468" lon="1.126">
        <ele>133</ele>
        <time>2011-09-25T10:21:47Z</time>
      </trkpt>
      <trkpt lat="49.03473" lon="1.12603">
        <ele>133</ele>
        <time>2011-09-25T10:21:49Z</time>
      </trkpt>
      <trkpt lat="49.03478" lon="1.12607">
        <ele>133</ele>
        <time>2011-09-25T10:21:51Z</time>
      </trkpt>
      <trkpt lat="49.03484" lon="1.12612">
        <ele>133</ele>
        <time>2011-09-25T10:21:53Z</time>
      </trkpt>
      <trkpt lat="49.0349" lon="1.12616">
        <ele>133</ele>
        <time>2011-09-25T10:21:55Z</time>
      </trkpt>
      <trkpt lat="49.03497" lon="1.1262">
        <ele>133</ele>
        <time>2011-09-25T10:21:57Z</time>
      </trkpt>
      <trkpt lat="49.03502" lon="1.12622">
        <ele>134</ele>
        <time>2011-09-25T10:21:59Z</time>
      </trkpt>
      <trkpt lat="49.03508" lon="1.12623">
        <ele>134</ele>
        <time>2011-09-25T10:22:01Z</time>
      </trkpt>
      <trkpt lat="49.03514" lon="1.12623">
        <ele>134</ele>
        <time>2011-09-25T10:22:03Z</time>
      </trkpt>
      <trkpt lat="49.0352" lon="1.12623">
        <ele>134</ele>
        <time>2011-09-25T10:22:05Z</time>
      </trkpt>
      <trkpt lat="49.03526" lon="1.12623">
        <ele>134</ele>
        <time>2011-09-25T10:22:07Z</time>
      </trkpt>
      <trkpt lat="49.03532" lon="1.12622">
        <ele>134</ele>
        <time>2011-09-25T10:22:09Z</time>
      </trkpt>
      <trkpt lat="49.03537" lon="1.12617">
        <ele>134</ele>
        <time>2011-09-25T10:22:11Z</time>
      </trkpt>
      <trkpt lat="49.03542" lon="1.12609">
        <ele>134</ele>
        <time>2011-09-25T10:22:13Z</time>
      </trkpt>
      <trkpt lat="49.03548" lon="1.12601">
        <ele>134</ele>
        <time>2011-09-25T10:22:15Z</time>
      </trkpt>
      <trkpt lat="49.03554" lon="1.12592">
        <ele>133</ele>
        <time>2011-09-25T10:22:17Z</time>
      </trkpt>
      <trkpt lat="49.03559" lon="1.12583">
        <ele>130</ele>
        <time>2011-09-25T10:22:19Z</time>
      </trkpt>
      <trkpt lat="49.03564" lon="1.12577">
        <ele>131</ele>
        <time>2011-09-25T10:22:21Z</time>
      </trkpt>
      <trkpt lat="49.03571" lon="1.12572">
        <ele>131</ele>
        <time>2011-09-25T10:22:23Z</time>
      </trkpt>
      <trkpt lat="49.03578" lon="1.12569">
        <ele>131</ele>
        <time>2011-09-25T10:22:25Z</time>
      </trkpt>
      <trkpt lat="49.03586" lon="1.12566">
        <ele>132</ele>
        <time>2011-09-25T10:22:27Z</time>
      </trkpt>
      <trkpt lat="49.03594" lon="1.12563">
        <ele>132</ele>
        <time>2011-09-25T10:22:29Z</time>
      </trkpt>
      <trkpt lat="49.03601" lon="1.12559">
        <ele>132</ele>
        <time>2011-09-25T10:22:31Z</time>
      </trkpt>
      <trkpt lat="49.03608" lon="1.12554">
        <ele>132</ele>
        <time>2011-09-25T10:22:33Z</time>
      </trkpt>
      <trkpt lat="49.03614" lon="1.12548">
        <ele>132</ele>
        <time>2011-09-25T10:22:35Z</time>
      </trkpt>
      <trkpt lat="49.03622" lon="1.12543">
        <ele>132</ele>
        <time>2011-09-25T10:22:37Z</time>
      </trkpt>
      <trkpt lat="49.03629" lon="1.12534">
        <ele>132</ele>
        <time>2011-09-25T10:22:39Z</time>
      </trkpt>
      <trkpt lat="49.03633" lon="1.12528">
        <ele>132</ele>
        <time>2011-09-25T10:22:40Z</time>
      </trkpt>
      <trkpt lat="49.03636" lon="1.12523">
        <ele>132</ele>
        <time>2011-09-25T10:22:41Z</time>
      </trkpt>
      <trkpt lat="49.03639" lon="1.12517">
        <ele>132</ele>
        <time>2011-09-25T10:22:42Z</time>
      </trkpt>
      <trkpt lat="49.03642" lon="1.12512">
        <ele>132</ele>
        <time>2011-09-25T10:22:43Z</time>
      </trkpt>
      <trkpt lat="49.03644" lon="1.12506">
        <ele>132</ele>
        <time>2011-09-25T10:22:44Z</time>
      </trkpt>
      <trkpt lat="49.0365" lon="1.12497">
        <ele>130</ele>
        <time>2011-09-25T10:22:46Z</time>
      </trkpt>
      <trkpt lat="49.03656" lon="1.12487">
        <ele>130</ele>
        <time>2011-09-25T10:22:48Z</time>
      </trkpt>
      <trkpt lat="49.03661" lon="1.12476">
        <ele>129</ele>
        <time>2011-09-25T10:22:50Z</time>
      </trkpt>
      <trkpt lat="49.03666" lon="1.12466">
        <ele>128</ele>
        <time>2011-09-25T10:22:52Z</time>
      </trkpt>
      <trkpt lat="49.03671" lon="1.12456">
        <ele>134</ele>
        <time>2011-09-25T10:22:54Z</time>
      </trkpt>
      <trkpt lat="49.03674" lon="1.12447">
        <ele>133</ele>
        <time>2011-09-25T10:22:56Z</time>
      </trkpt>
      <trkpt lat="49.03677" lon="1.12438">
        <ele>133</ele>
        <time>2011-09-25T10:22:58Z</time>
      </trkpt>
      <trkpt lat="49.0368" lon="1.12429">
        <ele>133</ele>
        <time>2011-09-25T10:23:00Z</time>
      </trkpt>
      <trkpt lat="49.03682" lon="1.12421">
        <ele>132</ele>
        <time>2011-09-25T10:23:02Z</time>
      </trkpt>
      <trkpt lat="49.03685" lon="1.12412">
        <ele>132</ele>
        <time>2011-09-25T10:23:04Z</time>
      </trkpt>
      <trkpt lat="49.03687" lon="1.12404">
        <ele>132</ele>
        <time>2011-09-25T10:23:06Z</time>
      </trkpt>
      <trkpt lat="49.03689" lon="1.12384">
        <ele>132</ele>
        <time>2011-09-25T10:23:07Z</time>
      </trkpt>
      <trkpt lat="49.0369" lon="1.12375">
        <ele>132</ele>
        <time>2011-09-25T10:23:08Z</time>
      </trkpt>
      <trkpt lat="49.03684" lon="1.12362">
        <ele>131</ele>
        <time>2011-09-25T10:23:09Z</time>
      </trkpt>
      <trkpt lat="49.03683" lon="1.12353">
        <ele>131</ele>
        <time>2011-09-25T10:23:10Z</time>
      </trkpt>
      <trkpt lat="49.03683" lon="1.12345">
        <ele>130</ele>
        <time>2011-09-25T10:23:11Z</time>
      </trkpt>
      <trkpt lat="49.03682" lon="1.12334">
        <ele>129</ele>
        <time>2011-09-25T10:23:13Z</time>
      </trkpt>
      <trkpt lat="49.03682" lon="1.12324">
        <ele>129</ele>
        <time>2011-09-25T10:23:15Z</time>
      </trkpt>
      <trkpt lat="49.03681" lon="1.12312">
        <ele>130</ele>
        <time>2011-09-25T10:23:17Z</time>
      </trkpt>
      <trkpt lat="49.03682" lon="1.12298">
        <ele>130</ele>
        <time>2011-09-25T10:23:19Z</time>
      </trkpt>
      <trkpt lat="49.03683" lon="1.12285">
        <ele>130</ele>
        <time>2011-09-25T10:23:21Z</time>
      </trkpt>
      <trkpt lat="49.03682" lon="1.12277">
        <ele>130</ele>
        <time>2011-09-25T10:23:22Z</time>
      </trkpt>
      <trkpt lat="49.03682" lon="1.12269">
        <ele>129</ele>
        <time>2011-09-25T10:23:23Z</time>
      </trkpt>
      <trkpt lat="49.03682" lon="1.1226">
        <ele>128</ele>
        <time>2011-09-25T10:23:24Z</time>
      </trkpt>
      <trkpt lat="49.03681" lon="1.12252">
        <ele>128</ele>
        <time>2011-09-25T10:23:25Z</time>
      </trkpt>
      <trkpt lat="49.0368" lon="1.12242">
        <ele>128</ele>
        <time>2011-09-25T10:23:26Z</time>
      </trkpt>
      <trkpt lat="49.03679" lon="1.12231">
        <ele>129</ele>
        <time>2011-09-25T10:23:27Z</time>
      </trkpt>
      <trkpt lat="49.03677" lon="1.12221">
        <ele>129</ele>
        <time>2011-09-25T10:23:28Z</time>
      </trkpt>
      <trkpt lat="49.03675" lon="1.1221">
        <ele>130</ele>
        <time>2011-09-25T10:23:29Z</time>
      </trkpt>
      <trkpt lat="49.03674" lon="1.122">
        <ele>130</ele>
        <time>2011-09-25T10:23:30Z</time>
      </trkpt>
      <trkpt lat="49.03673" lon="1.12189">
        <ele>129</ele>
        <time>2011-09-25T10:23:31Z</time>
      </trkpt>
      <trkpt lat="49.03672" lon="1.12179">
        <ele>128</ele>
        <time>2011-09-25T10:23:32Z</time>
      </trkpt>
      <trkpt lat="49.0367" lon="1.12168">
        <ele>126</ele>
        <time>2011-09-25T10:23:33Z</time>
      </trkpt>
      <trkpt lat="49.03669" lon="1.12158">
        <ele>127</ele>
        <time>2011-09-25T10:23:34Z</time>
      </trkpt>
      <trkpt lat="49.03668" lon="1.12147">
        <ele>128</ele>
        <time>2011-09-25T10:23:35Z</time>
      </trkpt>
      <trkpt lat="49.03666" lon="1.12135">
        <ele>118</ele>
        <time>2011-09-25T10:23:36Z</time>
      </trkpt>
      <trkpt lat="49.03664" lon="1.12122">
        <ele>117</ele>
        <time>2011-09-25T10:23:37Z</time>
      </trkpt>
      <trkpt lat="49.03661" lon="1.12108">
        <ele>118</ele>
        <time>2011-09-25T10:23:38Z</time>
      </trkpt>
      <trkpt lat="49.03658" lon="1.12094">
        <ele>119</ele>
        <time>2011-09-25T10:23:39Z</time>
      </trkpt>
      <trkpt lat="49.03655" lon="1.1208">
        <ele>120</ele>
        <time>2011-09-25T10:23:40Z</time>
      </trkpt>
      <trkpt lat="49.03651" lon="1.12066">
        <ele>118</ele>
        <time>2011-09-25T10:23:41Z</time>
      </trkpt>
      <trkpt lat="49.03647" lon="1.12052">
        <ele>116</ele>
        <time>2011-09-25T10:23:42Z</time>
      </trkpt>
      <trkpt lat="49.03644" lon="1.12039">
        <ele>116</ele>
        <time>2011-09-25T10:23:43Z</time>
      </trkpt>
      <trkpt lat="49.03641" lon="1.12028">
        <ele>116</ele>
        <time>2011-09-25T10:23:44Z</time>
      </trkpt>
      <trkpt lat="49.03638" lon="1.12017">
        <ele>116</ele>
        <time>2011-09-25T10:23:45Z</time>
      </trkpt>
      <trkpt lat="49.03635" lon="1.12008">
        <ele>116</ele>
        <time>2011-09-25T10:23:46Z</time>
      </trkpt>
      <trkpt lat="49.03631" lon="1.12">
        <ele>115</ele>
        <time>2011-09-25T10:23:47Z</time>
      </trkpt>
      <trkpt lat="49.03627" lon="1.11992">
        <ele>114</ele>
        <time>2011-09-25T10:23:48Z</time>
      </trkpt>
      <trkpt lat="49.03625" lon="1.11983">
        <ele>113</ele>
        <time>2011-09-25T10:23:49Z</time>
      </trkpt>
      <trkpt lat="49.03622" lon="1.11974">
        <ele>113</ele>
        <time>2011-09-25T10:23:50Z</time>
      </trkpt>
      <trkpt lat="49.0362" lon="1.11966">
        <ele>113</ele>
        <time>2011-09-25T10:23:51Z</time>
      </trkpt>
      <trkpt lat="49.03616" lon="1.1196">
        <ele>112</ele>
        <time>2011-09-25T10:23:52Z</time>
      </trkpt>
      <trkpt lat="49.03614" lon="1.11954">
        <ele>112</ele>
        <time>2011-09-25T10:23:53Z</time>
      </trkpt>
      <trkpt lat="49.03609" lon="1.11946">
        <ele>111</ele>
        <time>2011-09-25T10:23:55Z</time>
      </trkpt>
      <trkpt lat="49.03605" lon="1.11937">
        <ele>110</ele>
        <time>2011-09-25T10:23:57Z</time>
      </trkpt>
      <trkpt lat="49.03601" lon="1.11928">
        <ele>108</ele>
        <time>2011-09-25T10:23:59Z</time>
      </trkpt>
      <trkpt lat="49.03597" lon="1.11918">
        <ele>107</ele>
        <time>2011-09-25T10:24:01Z</time>
      </trkpt>
      <trkpt lat="49.03593" lon="1.11909">
        <ele>104</ele>
        <time>2011-09-25T10:24:03Z</time>
      </trkpt>
      <trkpt lat="49.0359" lon="1.119">
        <ele>105</ele>
        <time>2011-09-25T10:24:05Z</time>
      </trkpt>
      <trkpt lat="49.03589" lon="1.11891">
        <ele>105</ele>
        <time>2011-09-25T10:24:07Z</time>
      </trkpt>
      <trkpt lat="49.03589" lon="1.11879">
        <ele>105</ele>
        <time>2011-09-25T10:24:09Z</time>
      </trkpt>
      <trkpt lat="49.0359" lon="1.11873">
        <ele>105</ele>
        <time>2011-09-25T10:24:10Z</time>
      </trkpt>
      <trkpt lat="49.03592" lon="1.11866">
        <ele>105</ele>
        <time>2011-09-25T10:24:11Z</time>
      </trkpt>
      <trkpt lat="49.03594" lon="1.11858">
        <ele>104</ele>
        <time>2011-09-25T10:24:12Z</time>
      </trkpt>
      <trkpt lat="49.03596" lon="1.1185">
        <ele>104</ele>
        <time>2011-09-25T10:24:13Z</time>
      </trkpt>
      <trkpt lat="49.036" lon="1.11843">
        <ele>103</ele>
        <time>2011-09-25T10:24:14Z</time>
      </trkpt>
      <trkpt lat="49.03603" lon="1.11837">
        <ele>103</ele>
        <time>2011-09-25T10:24:15Z</time>
      </trkpt>
      <trkpt lat="49.03607" lon="1.1183">
        <ele>100</ele>
        <time>2011-09-25T10:24:16Z</time>
      </trkpt>
      <trkpt lat="49.0361" lon="1.11824">
        <ele>101</ele>
        <time>2011-09-25T10:24:17Z</time>
      </trkpt>
      <trkpt lat="49.03613" lon="1.11816">
        <ele>101</ele>
        <time>2011-09-25T10:24:19Z</time>
      </trkpt>
      <trkpt lat="49.03354" lon="1.117">
        <ele>105</ele>
        <time>2011-09-25T10:24:29Z</time>
      </trkpt>
      <trkpt lat="49.03291" lon="1.11675">
        <ele>106</ele>
        <time>2011-09-25T10:24:30Z</time>
      </trkpt>
      <trkpt lat="49.03224" lon="1.1165">
        <ele>109</ele>
        <time>2011-09-25T10:24:31Z</time>
      </trkpt>
      <trkpt lat="49.03161" lon="1.11625">
        <ele>109</ele>
        <time>2011-09-25T10:24:32Z</time>
      </trkpt>
      <trkpt lat="49.0309" lon="1.11607">
        <ele>109</ele>
        <time>2011-09-25T10:24:33Z</time>
      </trkpt>
      <trkpt lat="49.03032" lon="1.11594">
        <ele>107</ele>
        <time>2011-09-25T10:24:34Z</time>
      </trkpt>
      <trkpt lat="49.02978" lon="1.11577">
        <ele>106</ele>
        <time>2011-09-25T10:24:35Z</time>
      </trkpt>
      <trkpt lat="49.02922" lon="1.11558">
        <ele>104</ele>
        <time>2011-09-25T10:24:36Z</time>
      </trkpt>
      <trkpt lat="49.0287" lon="1.11542">
        <ele>104</ele>
        <time>2011-09-25T10:24:37Z</time>
      </trkpt>
      <trkpt lat="49.02818" lon="1.11525">
        <ele>106</ele>
        <time>2011-09-25T10:24:38Z</time>
      </trkpt>
      <trkpt lat="49.02828" lon="1.11579">
        <ele>103</ele>
        <time>2011-09-25T10:24:39Z</time>
      </trkpt>
      <trkpt lat="49.03617" lon="1.11913">
        <ele>108</ele>
        <time>2011-09-25T10:24:47Z</time>
      </trkpt>
      <trkpt lat="49.03558" lon="1.11924">
        <ele>100</ele>
        <time>2011-09-25T10:24:48Z</time>
      </trkpt>
      <trkpt lat="49.03543" lon="1.11913">
        <ele>98</ele>
        <time>2011-09-25T10:24:49Z</time>
      </trkpt>
      <trkpt lat="49.0354" lon="1.11905">
        <ele>98</ele>
        <time>2011-09-25T10:24:50Z</time>
      </trkpt>
      <trkpt lat="49.03535" lon="1.11915">
        <ele>97</ele>
        <time>2011-09-25T10:24:54Z</time>
      </trkpt>
      <trkpt lat="49.0353" lon="1.11926">
        <ele>98</ele>
        <time>2011-09-25T10:24:56Z</time>
      </trkpt>
      <trkpt lat="49.03527" lon="1.11932">
        <ele>98</ele>
        <time>2011-09-25T10:24:57Z</time>
      </trkpt>
      <trkpt lat="49.03524" lon="1.11937">
        <ele>98</ele>
        <time>2011-09-25T10:24:58Z</time>
      </trkpt>
      <trkpt lat="49.03521" lon="1.11943">
        <ele>98</ele>
        <time>2011-09-25T10:24:59Z</time>
      </trkpt>
      <trkpt lat="49.03518" lon="1.11949">
        <ele>98</ele>
        <time>2011-09-25T10:25:00Z</time>
      </trkpt>
      <trkpt lat="49.03515" lon="1.11954">
        <ele>98</ele>
        <time>2011-09-25T10:25:01Z</time>
      </trkpt>
      <trkpt lat="49.03511" lon="1.1196">
        <ele>98</ele>
        <time>2011-09-25T10:25:02Z</time>
      </trkpt>
      <trkpt lat="49.03508" lon="1.11966">
        <ele>98</ele>
        <time>2011-09-25T10:25:03Z</time>
      </trkpt>
      <trkpt lat="49.03505" lon="1.11972">
        <ele>98</ele>
        <time>2011-09-25T10:25:04Z</time>
      </trkpt>
      <trkpt lat="49.03502" lon="1.11978">
        <ele>98</ele>
        <time>2011-09-25T10:25:05Z</time>
      </trkpt>
      <trkpt lat="49.03498" lon="1.11984">
        <ele>95</ele>
        <time>2011-09-25T10:25:06Z</time>
      </trkpt>
      <trkpt lat="49.03495" lon="1.11991">
        <ele>95</ele>
        <time>2011-09-25T10:25:07Z</time>
      </trkpt>
      <trkpt lat="49.03492" lon="1.11997">
        <ele>96</ele>
        <time>2011-09-25T10:25:08Z</time>
      </trkpt>
      <trkpt lat="49.03489" lon="1.12002">
        <ele>95</ele>
        <time>2011-09-25T10:25:09Z</time>
      </trkpt>
      <trkpt lat="49.03486" lon="1.12008">
        <ele>94</ele>
        <time>2011-09-25T10:25:10Z</time>
      </trkpt>
      <trkpt lat="49.03482" lon="1.1202">
        <ele>94</ele>
        <time>2011-09-25T10:25:12Z</time>
      </trkpt>
      <trkpt lat="49.03478" lon="1.12029">
        <ele>94</ele>
        <time>2011-09-25T10:25:14Z</time>
      </trkpt>
      <trkpt lat="49.03472" lon="1.12037">
        <ele>93</ele>
        <time>2011-09-25T10:25:16Z</time>
      </trkpt>
      <trkpt lat="49.03467" lon="1.12046">
        <ele>93</ele>
        <time>2011-09-25T10:25:18Z</time>
      </trkpt>
      <trkpt lat="49.03462" lon="1.12055">
        <ele>93</ele>
        <time>2011-09-25T10:25:20Z</time>
      </trkpt>
      <trkpt lat="49.03458" lon="1.12064">
        <ele>92</ele>
        <time>2011-09-25T10:25:22Z</time>
      </trkpt>
      <trkpt lat="49.03452" lon="1.12074">
        <ele>92</ele>
        <time>2011-09-25T10:25:24Z</time>
      </trkpt>
      <trkpt lat="49.03447" lon="1.12083">
        <ele>92</ele>
        <time>2011-09-25T10:25:26Z</time>
      </trkpt>
      <trkpt lat="49.03441" lon="1.12093">
        <ele>89</ele>
        <time>2011-09-25T10:25:28Z</time>
      </trkpt>
      <trkpt lat="49.03436" lon="1.12104">
        <ele>89</ele>
        <time>2011-09-25T10:25:30Z</time>
      </trkpt>
      <trkpt lat="49.03433" lon="1.1211">
        <ele>89</ele>
        <time>2011-09-25T10:25:31Z</time>
      </trkpt>
      <trkpt lat="49.0343" lon="1.12116">
        <ele>89</ele>
        <time>2011-09-25T10:25:32Z</time>
      </trkpt>
      <trkpt lat="49.03426" lon="1.12122">
        <ele>89</ele>
        <time>2011-09-25T10:25:33Z</time>
      </trkpt>
      <trkpt lat="49.03423" lon="1.12129">
        <ele>89</ele>
        <time>2011-09-25T10:25:34Z</time>
      </trkpt>
      <trkpt lat="49.03419" lon="1.12135">
        <ele>88</ele>
        <time>2011-09-25T10:25:35Z</time>
      </trkpt>
      <trkpt lat="49.03415" lon="1.12142">
        <ele>87</ele>
        <time>2011-09-25T10:25:36Z</time>
      </trkpt>
      <trkpt lat="49.03411" lon="1.12148">
        <ele>87</ele>
        <time>2011-09-25T10:25:37Z</time>
      </trkpt>
      <trkpt lat="49.03407" lon="1.12155">
        <ele>87</ele>
        <time>2011-09-25T10:25:38Z</time>
      </trkpt>
      <trkpt lat="49.03403" lon="1.12161">
        <ele>87</ele>
        <time>2011-09-25T10:25:39Z</time>
      </trkpt>
      <trkpt lat="49.03399" lon="1.12168">
        <ele>86</ele>
        <time>2011-09-25T10:25:40Z</time>
      </trkpt>
      <trkpt lat="49.03395" lon="1.12174">
        <ele>87</ele>
        <time>2011-09-25T10:25:41Z</time>
      </trkpt>
      <trkpt lat="49.03391" lon="1.1218">
        <ele>87</ele>
        <time>2011-09-25T10:25:42Z</time>
      </trkpt>
      <trkpt lat="49.03387" lon="1.12186">
        <ele>87</ele>
        <time>2011-09-25T10:25:43Z</time>
      </trkpt>
      <trkpt lat="49.03383" lon="1.12192">
        <ele>87</ele>
        <time>2011-09-25T10:25:44Z</time>
      </trkpt>
      <trkpt lat="49.03379" lon="1.12198">
        <ele>87</ele>
        <time>2011-09-25T10:25:45Z</time>
      </trkpt>
      <trkpt lat="49.03374" lon="1.12203">
        <ele>87</ele>
        <time>2011-09-25T10:25:46Z</time>
      </trkpt>
      <trkpt lat="49.0337" lon="1.12209">
        <ele>87</ele>
        <time>2011-09-25T10:25:47Z</time>
      </trkpt>
      <trkpt lat="49.03366" lon="1.12215">
        <ele>87</ele>
        <time>2011-09-25T10:25:48Z</time>
      </trkpt>
      <trkpt lat="49.03361" lon="1.1222">
        <ele>87</ele>
        <time>2011-09-25T10:25:49Z</time>
      </trkpt>
      <trkpt lat="49.03356" lon="1.12225">
        <ele>87</ele>
        <time>2011-09-25T10:25:50Z</time>
      </trkpt>
      <trkpt lat="49.03352" lon="1.12231">
        <ele>87</ele>
        <time>2011-09-25T10:25:51Z</time>
      </trkpt>
      <trkpt lat="49.03348" lon="1.12236">
        <ele>87</ele>
        <time>2011-09-25T10:25:52Z</time>
      </trkpt>
      <trkpt lat="49.03343" lon="1.12242">
        <ele>88</ele>
        <time>2011-09-25T10:25:53Z</time>
      </trkpt>
      <trkpt lat="49.03339" lon="1.12247">
        <ele>88</ele>
        <time>2011-09-25T10:25:54Z</time>
      </trkpt>
      <trkpt lat="49.03334" lon="1.12253">
        <ele>88</ele>
        <time>2011-09-25T10:25:55Z</time>
      </trkpt>
      <trkpt lat="49.03329" lon="1.12258">
        <ele>88</ele>
        <time>2011-09-25T10:25:56Z</time>
      </trkpt>
      <trkpt lat="49.03324" lon="1.12264">
        <ele>88</ele>
        <time>2011-09-25T10:25:57Z</time>
      </trkpt>
      <trkpt lat="49.03318" lon="1.1227">
        <ele>88</ele>
        <time>2011-09-25T10:25:58Z</time>
      </trkpt>
      <trkpt lat="49.03313" lon="1.12275">
        <ele>89</ele>
        <time>2011-09-25T10:25:59Z</time>
      </trkpt>
      <trkpt lat="49.03307" lon="1.1228">
        <ele>89</ele>
        <time>2011-09-25T10:26:00Z</time>
      </trkpt>
      <trkpt lat="49.03302" lon="1.12286">
        <ele>89</ele>
        <time>2011-09-25T10:26:01Z</time>
      </trkpt>
      <trkpt lat="49.03296" lon="1.1229">
        <ele>89</ele>
        <time>2011-09-25T10:26:02Z</time>
      </trkpt>
      <trkpt lat="49.0329" lon="1.12295">
        <ele>89</ele>
        <time>2011-09-25T10:26:03Z</time>
      </trkpt>
      <trkpt lat="49.03284" lon="1.123">
        <ele>88</ele>
        <time>2011-09-25T10:26:04Z</time>
      </trkpt>
      <trkpt lat="49.03278" lon="1.12304">
        <ele>88</ele>
        <time>2011-09-25T10:26:05Z</time>
      </trkpt>
      <trkpt lat="49.03272" lon="1.12309">
        <ele>88</ele>
        <time>2011-09-25T10:26:06Z</time>
      </trkpt>
      <trkpt lat="49.03266" lon="1.12314">
        <ele>88</ele>
        <time>2011-09-25T10:26:07Z</time>
      </trkpt>
      <trkpt lat="49.0326" lon="1.12319">
        <ele>88</ele>
        <time>2011-09-25T10:26:08Z</time>
      </trkpt>
      <trkpt lat="49.03253" lon="1.12323">
        <ele>88</ele>
        <time>2011-09-25T10:26:09Z</time>
      </trkpt>
      <trkpt lat="49.03246" lon="1.12328">
        <ele>87</ele>
        <time>2011-09-25T10:26:10Z</time>
      </trkpt>
      <trkpt lat="49.03239" lon="1.12332">
        <ele>88</ele>
        <time>2011-09-25T10:26:11Z</time>
      </trkpt>
      <trkpt lat="49.03232" lon="1.12336">
        <ele>87</ele>
        <time>2011-09-25T10:26:12Z</time>
      </trkpt>
      <trkpt lat="49.03225" lon="1.1234">
        <ele>87</ele>
        <time>2011-09-25T10:26:13Z</time>
      </trkpt>
      <trkpt lat="49.03219" lon="1.12344">
        <ele>87</ele>
        <time>2011-09-25T10:26:14Z</time>
      </trkpt>
      <trkpt lat="49.03212" lon="1.12347">
        <ele>87</ele>
        <time>2011-09-25T10:26:15Z</time>
      </trkpt>
      <trkpt lat="49.03204" lon="1.1235">
        <ele>87</ele>
        <time>2011-09-25T10:26:16Z</time>
      </trkpt>
      <trkpt lat="49.03197" lon="1.12353">
        <ele>87</ele>
        <time>2011-09-25T10:26:17Z</time>
      </trkpt>
      <trkpt lat="49.0319" lon="1.12356">
        <ele>87</ele>
        <time>2011-09-25T10:26:18Z</time>
      </trkpt>
      <trkpt lat="49.03183" lon="1.12359">
        <ele>87</ele>
        <time>2011-09-25T10:26:19Z</time>
      </trkpt>
      <trkpt lat="49.03176" lon="1.12361">
        <ele>87</ele>
        <time>2011-09-25T10:26:20Z</time>
      </trkpt>
      <trkpt lat="49.03168" lon="1.12363">
        <ele>87</ele>
        <time>2011-09-25T10:26:21Z</time>
      </trkpt>
      <trkpt lat="49.0316" lon="1.12366">
        <ele>88</ele>
        <time>2011-09-25T10:26:22Z</time>
      </trkpt>
      <trkpt lat="49.03152" lon="1.12368">
        <ele>88</ele>
        <time>2011-09-25T10:26:23Z</time>
      </trkpt>
      <trkpt lat="49.03144" lon="1.1237">
        <ele>88</ele>
        <time>2011-09-25T10:26:24Z</time>
      </trkpt>
      <trkpt lat="49.03137" lon="1.12372">
        <ele>88</ele>
        <time>2011-09-25T10:26:25Z</time>
      </trkpt>
      <trkpt lat="49.03129" lon="1.12374">
        <ele>88</ele>
        <time>2011-09-25T10:26:26Z</time>
      </trkpt>
      <trkpt lat="49.03121" lon="1.12375">
        <ele>89</ele>
        <time>2011-09-25T10:26:27Z</time>
      </trkpt>
      <trkpt lat="49.03114" lon="1.12376">
        <ele>89</ele>
        <time>2011-09-25T10:26:28Z</time>
      </trkpt>
      <trkpt lat="49.03106" lon="1.12378">
        <ele>89</ele>
        <time>2011-09-25T10:26:29Z</time>
      </trkpt>
      <trkpt lat="49.03098" lon="1.12379">
        <ele>89</ele>
        <time>2011-09-25T10:26:30Z</time>
      </trkpt>
      <trkpt lat="49.03091" lon="1.12379">
        <ele>89</ele>
        <time>2011-09-25T10:26:31Z</time>
      </trkpt>
      <trkpt lat="49.03083" lon="1.1238">
        <ele>89</ele>
        <time>2011-09-25T10:26:32Z</time>
      </trkpt>
      <trkpt lat="49.03076" lon="1.1238">
        <ele>89</ele>
        <time>2011-09-25T10:26:33Z</time>
      </trkpt>
      <trkpt lat="49.03068" lon="1.1238">
        <ele>89</ele>
        <time>2011-09-25T10:26:34Z</time>
      </trkpt>
      <trkpt lat="49.0306" lon="1.1238">
        <ele>88</ele>
        <time>2011-09-25T10:26:35Z</time>
      </trkpt>
      <trkpt lat="49.03053" lon="1.1238">
        <ele>88</ele>
        <time>2011-09-25T10:26:36Z</time>
      </trkpt>
      <trkpt lat="49.03045" lon="1.1238">
        <ele>88</ele>
        <time>2011-09-25T10:26:37Z</time>
      </trkpt>
      <trkpt lat="49.03037" lon="1.12378">
        <ele>88</ele>
        <time>2011-09-25T10:26:38Z</time>
      </trkpt>
      <trkpt lat="49.03029" lon="1.12377">
        <ele>88</ele>
        <time>2011-09-25T10:26:39Z</time>
      </trkpt>
      <trkpt lat="49.03021" lon="1.12377">
        <ele>88</ele>
        <time>2011-09-25T10:26:40Z</time>
      </trkpt>
      <trkpt lat="49.03014" lon="1.12375">
        <ele>88</ele>
        <time>2011-09-25T10:26:41Z</time>
      </trkpt>
      <trkpt lat="49.03006" lon="1.12374">
        <ele>88</ele>
        <time>2011-09-25T10:26:42Z</time>
      </trkpt>
      <trkpt lat="49.02998" lon="1.12373">
        <ele>86</ele>
        <time>2011-09-25T10:26:43Z</time>
      </trkpt>
      <trkpt lat="49.0299" lon="1.12372">
        <ele>86</ele>
        <time>2011-09-25T10:26:44Z</time>
      </trkpt>
      <trkpt lat="49.02983" lon="1.1237">
        <ele>86</ele>
        <time>2011-09-25T10:26:45Z</time>
      </trkpt>
      <trkpt lat="49.02975" lon="1.12369">
        <ele>86</ele>
        <time>2011-09-25T10:26:46Z</time>
      </trkpt>
      <trkpt lat="49.02967" lon="1.12368">
        <ele>86</ele>
        <time>2011-09-25T10:26:47Z</time>
      </trkpt>
      <trkpt lat="49.02959" lon="1.12366">
        <ele>86</ele>
        <time>2011-09-25T10:26:48Z</time>
      </trkpt>
      <trkpt lat="49.02951" lon="1.12365">
        <ele>85</ele>
        <time>2011-09-25T10:26:49Z</time>
      </trkpt>
      <trkpt lat="49.02944" lon="1.12364">
        <ele>85</ele>
        <time>2011-09-25T10:26:50Z</time>
      </trkpt>
      <trkpt lat="49.02936" lon="1.12362">
        <ele>85</ele>
        <time>2011-09-25T10:26:51Z</time>
      </trkpt>
      <trkpt lat="49.02928" lon="1.12361">
        <ele>85</ele>
        <time>2011-09-25T10:26:52Z</time>
      </trkpt>
      <trkpt lat="49.0292" lon="1.1236">
        <ele>85</ele>
        <time>2011-09-25T10:26:53Z</time>
      </trkpt>
      <trkpt lat="49.02912" lon="1.12358">
        <ele>83</ele>
        <time>2011-09-25T10:26:54Z</time>
      </trkpt>
      <trkpt lat="49.02903" lon="1.12357">
        <ele>83</ele>
        <time>2011-09-25T10:26:55Z</time>
      </trkpt>
      <trkpt lat="49.02895" lon="1.12355">
        <ele>83</ele>
        <time>2011-09-25T10:26:56Z</time>
      </trkpt>
      <trkpt lat="49.02887" lon="1.12354">
        <ele>83</ele>
        <time>2011-09-25T10:26:57Z</time>
      </trkpt>
      <trkpt lat="49.02878" lon="1.12353">
        <ele>83</ele>
        <time>2011-09-25T10:26:58Z</time>
      </trkpt>
      <trkpt lat="49.0287" lon="1.12352">
        <ele>83</ele>
        <time>2011-09-25T10:26:59Z</time>
      </trkpt>
      <trkpt lat="49.02862" lon="1.12351">
        <ele>83</ele>
        <time>2011-09-25T10:27:00Z</time>
      </trkpt>
      <trkpt lat="49.02854" lon="1.12349">
        <ele>82</ele>
        <time>2011-09-25T10:27:01Z</time>
      </trkpt>
      <trkpt lat="49.02846" lon="1.12348">
        <ele>83</ele>
        <time>2011-09-25T10:27:02Z</time>
      </trkpt>
      <trkpt lat="49.02838" lon="1.12347">
        <ele>83</ele>
        <time>2011-09-25T10:27:03Z</time>
      </trkpt>
      <trkpt lat="49.0283" lon="1.12346">
        <ele>81</ele>
        <time>2011-09-25T10:27:04Z</time>
      </trkpt>
      <trkpt lat="49.02821" lon="1.12345">
        <ele>81</ele>
        <time>2011-09-25T10:27:05Z</time>
      </trkpt>
      <trkpt lat="49.02813" lon="1.12344">
        <ele>81</ele>
        <time>2011-09-25T10:27:06Z</time>
      </trkpt>
      <trkpt lat="49.02806" lon="1.12342">
        <ele>81</ele>
        <time>2011-09-25T10:27:07Z</time>
      </trkpt>
      <trkpt lat="49.02798" lon="1.1234">
        <ele>80</ele>
        <time>2011-09-25T10:27:08Z</time>
      </trkpt>
      <trkpt lat="49.0279" lon="1.12339">
        <ele>80</ele>
        <time>2011-09-25T10:27:09Z</time>
      </trkpt>
      <trkpt lat="49.02782" lon="1.12337">
        <ele>80</ele>
        <time>2011-09-25T10:27:10Z</time>
      </trkpt>
      <trkpt lat="49.02774" lon="1.12336">
        <ele>80</ele>
        <time>2011-09-25T10:27:11Z</time>
      </trkpt>
      <trkpt lat="49.02765" lon="1.12335">
        <ele>80</ele>
        <time>2011-09-25T10:27:12Z</time>
      </trkpt>
      <trkpt lat="49.02757" lon="1.12334">
        <ele>81</ele>
        <time>2011-09-25T10:27:13Z</time>
      </trkpt>
      <trkpt lat="49.02749" lon="1.12333">
        <ele>81</ele>
        <time>2011-09-25T10:27:14Z</time>
      </trkpt>
      <trkpt lat="49.02742" lon="1.12331">
        <ele>81</ele>
        <time>2011-09-25T10:27:15Z</time>
      </trkpt>
      <trkpt lat="49.02734" lon="1.1233">
        <ele>80</ele>
        <time>2011-09-25T10:27:16Z</time>
      </trkpt>
      <trkpt lat="49.02726" lon="1.12329">
        <ele>80</ele>
        <time>2011-09-25T10:27:17Z</time>
      </trkpt>
      <trkpt lat="49.02719" lon="1.12327">
        <ele>80</ele>
        <time>2011-09-25T10:27:18Z</time>
      </trkpt>
      <trkpt lat="49.02711" lon="1.12325">
        <ele>80</ele>
        <time>2011-09-25T10:27:19Z</time>
      </trkpt>
      <trkpt lat="49.02703" lon="1.12324">
        <ele>80</ele>
        <time>2011-09-25T10:27:20Z</time>
      </trkpt>
      <trkpt lat="49.02695" lon="1.12322">
        <ele>79</ele>
        <time>2011-09-25T10:27:21Z</time>
      </trkpt>
      <trkpt lat="49.02687" lon="1.12321">
        <ele>79</ele>
        <time>2011-09-25T10:27:22Z</time>
      </trkpt>
      <trkpt lat="49.02679" lon="1.12319">
        <ele>79</ele>
        <time>2011-09-25T10:27:23Z</time>
      </trkpt>
      <trkpt lat="49.02671" lon="1.12318">
        <ele>79</ele>
        <time>2011-09-25T10:27:24Z</time>
      </trkpt>
      <trkpt lat="49.02663" lon="1.12316">
        <ele>77</ele>
        <time>2011-09-25T10:27:25Z</time>
      </trkpt>
      <trkpt lat="49.02655" lon="1.12314">
        <ele>77</ele>
        <time>2011-09-25T10:27:26Z</time>
      </trkpt>
      <trkpt lat="49.02647" lon="1.12312">
        <ele>77</ele>
        <time>2011-09-25T10:27:27Z</time>
      </trkpt>
      <trkpt lat="49.02639" lon="1.12311">
        <ele>77</ele>
        <time>2011-09-25T10:27:28Z</time>
      </trkpt>
      <trkpt lat="49.02631" lon="1.1231">
        <ele>77</ele>
        <time>2011-09-25T10:27:29Z</time>
      </trkpt>
      <trkpt lat="49.02623" lon="1.12309">
        <ele>77</ele>
        <time>2011-09-25T10:27:30Z</time>
      </trkpt>
      <trkpt lat="49.02615" lon="1.12309">
        <ele>76</ele>
        <time>2011-09-25T10:27:31Z</time>
      </trkpt>
      <trkpt lat="49.02607" lon="1.12308">
        <ele>76</ele>
        <time>2011-09-25T10:27:32Z</time>
      </trkpt>
      <trkpt lat="49.02599" lon="1.12308">
        <ele>76</ele>
        <time>2011-09-25T10:27:33Z</time>
      </trkpt>
      <trkpt lat="49.02591" lon="1.12308">
        <ele>76</ele>
        <time>2011-09-25T10:27:34Z</time>
      </trkpt>
      <trkpt lat="49.02583" lon="1.12308">
        <ele>75</ele>
        <time>2011-09-25T10:27:35Z</time>
      </trkpt>
      <trkpt lat="49.02575" lon="1.12307">
        <ele>75</ele>
        <time>2011-09-25T10:27:36Z</time>
      </trkpt>
      <trkpt lat="49.02567" lon="1.12308">
        <ele>75</ele>
        <time>2011-09-25T10:27:37Z</time>
      </trkpt>
      <trkpt lat="49.02559" lon="1.12308">
        <ele>75</ele>
        <time>2011-09-25T10:27:38Z</time>
      </trkpt>
      <trkpt lat="49.02552" lon="1.12309">
        <ele>75</ele>
        <time>2011-09-25T10:27:39Z</time>
      </trkpt>
      <trkpt lat="49.02544" lon="1.1231">
        <ele>75</ele>
        <time>2011-09-25T10:27:40Z</time>
      </trkpt>
      <trkpt lat="49.02536" lon="1.12311">
        <ele>75</ele>
        <time>2011-09-25T10:27:41Z</time>
      </trkpt>
      <trkpt lat="49.02529" lon="1.12313">
        <ele>75</ele>
        <time>2011-09-25T10:27:42Z</time>
      </trkpt>
      <trkpt lat="49.02521" lon="1.12314">
        <ele>75</ele>
        <time>2011-09-25T10:27:43Z</time>
      </trkpt>
      <trkpt lat="49.02513" lon="1.12316">
        <ele>75</ele>
        <time>2011-09-25T10:27:44Z</time>
      </trkpt>
      <trkpt lat="49.02506" lon="1.12318">
        <ele>75</ele>
        <time>2011-09-25T10:27:45Z</time>
      </trkpt>
      <trkpt lat="49.02498" lon="1.1232">
        <ele>75</ele>
        <time>2011-09-25T10:27:46Z</time>
      </trkpt>
      <trkpt lat="49.0249" lon="1.12322">
        <ele>75</ele>
        <time>2011-09-25T10:27:47Z</time>
      </trkpt>
      <trkpt lat="49.02482" lon="1.12324">
        <ele>75</ele>
        <time>2011-09-25T10:27:48Z</time>
      </trkpt>
      <trkpt lat="49.02475" lon="1.12327">
        <ele>75</ele>
        <time>2011-09-25T10:27:49Z</time>
      </trkpt>
      <trkpt lat="49.02467" lon="1.1233">
        <ele>75</ele>
        <time>2011-09-25T10:27:50Z</time>
      </trkpt>
      <trkpt lat="49.0246" lon="1.12334">
        <ele>74</ele>
        <time>2011-09-25T10:27:51Z</time>
      </trkpt>
      <trkpt lat="49.02452" lon="1.12337">
        <ele>74</ele>
        <time>2011-09-25T10:27:52Z</time>
      </trkpt>
      <trkpt lat="49.02445" lon="1.12341">
        <ele>74</ele>
        <time>2011-09-25T10:27:53Z</time>
      </trkpt>
      <trkpt lat="49.02438" lon="1.12344">
        <ele>74</ele>
        <time>2011-09-25T10:27:54Z</time>
      </trkpt>
      <trkpt lat="49.0243" lon="1.12348">
        <ele>74</ele>
        <time>2011-09-25T10:27:55Z</time>
      </trkpt>
      <trkpt lat="49.02423" lon="1.12352">
        <ele>74</ele>
        <time>2011-09-25T10:27:56Z</time>
      </trkpt>
      <trkpt lat="49.02417" lon="1.12356">
        <ele>74</ele>
        <time>2011-09-25T10:27:57Z</time>
      </trkpt>
      <trkpt lat="49.0241" lon="1.1236">
        <ele>73</ele>
        <time>2011-09-25T10:27:58Z</time>
      </trkpt>
      <trkpt lat="49.02404" lon="1.12363">
        <ele>73</ele>
        <time>2011-09-25T10:27:59Z</time>
      </trkpt>
      <trkpt lat="49.02398" lon="1.12367">
        <ele>72</ele>
        <time>2011-09-25T10:28:00Z</time>
      </trkpt>
      <trkpt lat="49.02392" lon="1.12371">
        <ele>72</ele>
        <time>2011-09-25T10:28:01Z</time>
      </trkpt>
      <trkpt lat="49.02385" lon="1.12376">
        <ele>72</ele>
        <time>2011-09-25T10:28:02Z</time>
      </trkpt>
      <trkpt lat="49.02378" lon="1.12381">
        <ele>72</ele>
        <time>2011-09-25T10:28:03Z</time>
      </trkpt>
      <trkpt lat="49.02371" lon="1.12386">
        <ele>72</ele>
        <time>2011-09-25T10:28:04Z</time>
      </trkpt>
      <trkpt lat="49.02365" lon="1.12391">
        <ele>72</ele>
        <time>2011-09-25T10:28:05Z</time>
      </trkpt>
      <trkpt lat="49.02358" lon="1.12397">
        <ele>71</ele>
        <time>2011-09-25T10:28:06Z</time>
      </trkpt>
      <trkpt lat="49.02352" lon="1.12402">
        <ele>71</ele>
        <time>2011-09-25T10:28:07Z</time>
      </trkpt>
      <trkpt lat="49.02345" lon="1.12408">
        <ele>71</ele>
        <time>2011-09-25T10:28:08Z</time>
      </trkpt>
      <trkpt lat="49.02339" lon="1.12414">
        <ele>71</ele>
        <time>2011-09-25T10:28:09Z</time>
      </trkpt>
      <trkpt lat="49.02332" lon="1.1242">
        <ele>71</ele>
        <time>2011-09-25T10:28:10Z</time>
      </trkpt>
      <trkpt lat="49.02326" lon="1.12427">
        <ele>70</ele>
        <time>2011-09-25T10:28:11Z</time>
      </trkpt>
      <trkpt lat="49.0232" lon="1.12433">
        <ele>70</ele>
        <time>2011-09-25T10:28:12Z</time>
      </trkpt>
      <trkpt lat="49.02315" lon="1.1244">
        <ele>70</ele>
        <time>2011-09-25T10:28:13Z</time>
      </trkpt>
      <trkpt lat="49.02309" lon="1.12446">
        <ele>69</ele>
        <time>2011-09-25T10:28:14Z</time>
      </trkpt>
      <trkpt lat="49.02303" lon="1.12454">
        <ele>69</ele>
        <time>2011-09-25T10:28:15Z</time>
      </trkpt>
      <trkpt lat="49.02298" lon="1.12461">
        <ele>69</ele>
        <time>2011-09-25T10:28:16Z</time>
      </trkpt>
      <trkpt lat="49.02292" lon="1.12468">
        <ele>69</ele>
        <time>2011-09-25T10:28:17Z</time>
      </trkpt>
      <trkpt lat="49.02287" lon="1.12476">
        <ele>69</ele>
        <time>2011-09-25T10:28:18Z</time>
      </trkpt>
      <trkpt lat="49.02282" lon="1.12483">
        <ele>69</ele>
        <time>2011-09-25T10:28:19Z</time>
      </trkpt>
      <trkpt lat="49.02276" lon="1.12491">
        <ele>69</ele>
        <time>2011-09-25T10:28:20Z</time>
      </trkpt>
      <trkpt lat="49.02271" lon="1.12498">
        <ele>70</ele>
        <time>2011-09-25T10:28:21Z</time>
      </trkpt>
      <trkpt lat="49.02266" lon="1.12506">
        <ele>69</ele>
        <time>2011-09-25T10:28:22Z</time>
      </trkpt>
      <trkpt lat="49.02261" lon="1.12514">
        <ele>69</ele>
        <time>2011-09-25T10:28:23Z</time>
      </trkpt>
      <trkpt lat="49.02255" lon="1.12521">
        <ele>69</ele>
        <time>2011-09-25T10:28:24Z</time>
      </trkpt>
      <trkpt lat="49.0225" lon="1.12529">
        <ele>69</ele>
        <time>2011-09-25T10:28:25Z</time>
      </trkpt>
      <trkpt lat="49.02245" lon="1.12537">
        <ele>69</ele>
        <time>2011-09-25T10:28:26Z</time>
      </trkpt>
      <trkpt lat="49.0224" lon="1.12545">
        <ele>69</ele>
        <time>2011-09-25T10:28:27Z</time>
      </trkpt>
      <trkpt lat="49.02234" lon="1.12553">
        <ele>69</ele>
        <time>2011-09-25T10:28:28Z</time>
      </trkpt>
      <trkpt lat="49.02229" lon="1.12561">
        <ele>69</ele>
        <time>2011-09-25T10:28:29Z</time>
      </trkpt>
      <trkpt lat="49.02224" lon="1.1257">
        <ele>69</ele>
        <time>2011-09-25T10:28:30Z</time>
      </trkpt>
      <trkpt lat="49.02218" lon="1.12579">
        <ele>69</ele>
        <time>2011-09-25T10:28:31Z</time>
      </trkpt>
      <trkpt lat="49.02214" lon="1.12587">
        <ele>69</ele>
        <time>2011-09-25T10:28:32Z</time>
      </trkpt>
      <trkpt lat="49.02208" lon="1.12596">
        <ele>68</ele>
        <time>2011-09-25T10:28:33Z</time>
      </trkpt>
      <trkpt lat="49.02203" lon="1.12605">
        <ele>69</ele>
        <time>2011-09-25T10:28:34Z</time>
      </trkpt>
      <trkpt lat="49.02198" lon="1.12613">
        <ele>69</ele>
        <time>2011-09-25T10:28:35Z</time>
      </trkpt>
      <trkpt lat="49.02193" lon="1.12622">
        <ele>69</ele>
        <time>2011-09-25T10:28:36Z</time>
      </trkpt>
      <trkpt lat="49.02187" lon="1.1263">
        <ele>69</ele>
        <time>2011-09-25T10:28:37Z</time>
      </trkpt>
      <trkpt lat="49.02182" lon="1.12638">
        <ele>69</ele>
        <time>2011-09-25T10:28:38Z</time>
      </trkpt>
      <trkpt lat="49.02177" lon="1.12646">
        <ele>69</ele>
        <time>2011-09-25T10:28:39Z</time>
      </trkpt>
      <trkpt lat="49.02172" lon="1.12654">
        <ele>70</ele>
        <time>2011-09-25T10:28:40Z</time>
      </trkpt>
      <trkpt lat="49.02166" lon="1.12662">
        <ele>71</ele>
        <time>2011-09-25T10:28:41Z</time>
      </trkpt>
      <trkpt lat="49.02161" lon="1.1267">
        <ele>71</ele>
        <time>2011-09-25T10:28:42Z</time>
      </trkpt>
      <trkpt lat="49.02156" lon="1.12678">
        <ele>71</ele>
        <time>2011-09-25T10:28:43Z</time>
      </trkpt>
      <trkpt lat="49.02151" lon="1.12686">
        <ele>70</ele>
        <time>2011-09-25T10:28:44Z</time>
      </trkpt>
      <trkpt lat="49.02146" lon="1.12695">
        <ele>70</ele>
        <time>2011-09-25T10:28:45Z</time>
      </trkpt>
      <trkpt lat="49.02141" lon="1.12703">
        <ele>70</ele>
        <time>2011-09-25T10:28:46Z</time>
      </trkpt>
      <trkpt lat="49.02135" lon="1.12711">
        <ele>70</ele>
        <time>2011-09-25T10:28:47Z</time>
      </trkpt>
      <trkpt lat="49.0213" lon="1.12719">
        <ele>70</ele>
        <time>2011-09-25T10:28:48Z</time>
      </trkpt>
      <trkpt lat="49.02124" lon="1.12726">
        <ele>70</ele>
        <time>2011-09-25T10:28:49Z</time>
      </trkpt>
      <trkpt lat="49.02119" lon="1.12734">
        <ele>70</ele>
        <time>2011-09-25T10:28:50Z</time>
      </trkpt>
      <trkpt lat="49.02114" lon="1.12741">
        <ele>70</ele>
        <time>2011-09-25T10:28:51Z</time>
      </trkpt>
      <trkpt lat="49.02107" lon="1.12748">
        <ele>71</ele>
        <time>2011-09-25T10:28:52Z</time>
      </trkpt>
      <trkpt lat="49.02102" lon="1.12755">
        <ele>71</ele>
        <time>2011-09-25T10:28:53Z</time>
      </trkpt>
      <trkpt lat="49.02096" lon="1.12762">
        <ele>71</ele>
        <time>2011-09-25T10:28:54Z</time>
      </trkpt>
      <trkpt lat="49.0209" lon="1.12769">
        <ele>71</ele>
        <time>2011-09-25T10:28:55Z</time>
      </trkpt>
      <trkpt lat="49.02085" lon="1.12776">
        <ele>70</ele>
        <time>2011-09-25T10:28:56Z</time>
      </trkpt>
      <trkpt lat="49.02079" lon="1.12783">
        <ele>71</ele>
        <time>2011-09-25T10:28:57Z</time>
      </trkpt>
      <trkpt lat="49.02074" lon="1.1279">
        <ele>71</ele>
        <time>2011-09-25T10:28:58Z</time>
      </trkpt>
      <trkpt lat="49.02068" lon="1.12796">
        <ele>71</ele>
        <time>2011-09-25T10:28:59Z</time>
      </trkpt>
      <trkpt lat="49.02062" lon="1.12802">
        <ele>71</ele>
        <time>2011-09-25T10:29:00Z</time>
      </trkpt>
      <trkpt lat="49.02057" lon="1.12808">
        <ele>71</ele>
        <time>2011-09-25T10:29:01Z</time>
      </trkpt>
      <trkpt lat="49.02051" lon="1.12814">
        <ele>71</ele>
        <time>2011-09-25T10:29:02Z</time>
      </trkpt>
      <trkpt lat="49.02046" lon="1.12819">
        <ele>71</ele>
        <time>2011-09-25T10:29:03Z</time>
      </trkpt>
      <trkpt lat="49.0204" lon="1.12825">
        <ele>71</ele>
        <time>2011-09-25T10:29:04Z</time>
      </trkpt>
      <trkpt lat="49.02035" lon="1.12831">
        <ele>71</ele>
        <time>2011-09-25T10:29:05Z</time>
      </trkpt>
      <trkpt lat="49.02029" lon="1.12836">
        <ele>71</ele>
        <time>2011-09-25T10:29:06Z</time>
      </trkpt>
      <trkpt lat="49.02023" lon="1.12842">
        <ele>71</ele>
        <time>2011-09-25T10:29:07Z</time>
      </trkpt>
      <trkpt lat="49.02017" lon="1.12847">
        <ele>71</ele>
        <time>2011-09-25T10:29:08Z</time>
      </trkpt>
      <trkpt lat="49.02011" lon="1.12852">
        <ele>71</ele>
        <time>2011-09-25T10:29:09Z</time>
      </trkpt>
      <trkpt lat="49.02005" lon="1.12858">
        <ele>71</ele>
        <time>2011-09-25T10:29:10Z</time>
      </trkpt>
      <trkpt lat="49.01999" lon="1.12862">
        <ele>72</ele>
        <time>2011-09-25T10:29:11Z</time>
      </trkpt>
      <trkpt lat="49.01993" lon="1.12867">
        <ele>72</ele>
        <time>2011-09-25T10:29:12Z</time>
      </trkpt>
      <trkpt lat="49.01988" lon="1.12872">
        <ele>72</ele>
        <time>2011-09-25T10:29:13Z</time>
      </trkpt>
      <trkpt lat="49.01982" lon="1.12877">
        <ele>72</ele>
        <time>2011-09-25T10:29:14Z</time>
      </trkpt>
      <trkpt lat="49.01976" lon="1.12882">
        <ele>72</ele>
        <time>2011-09-25T10:29:15Z</time>
      </trkpt>
      <trkpt lat="49.0197" lon="1.12886">
        <ele>72</ele>
        <time>2011-09-25T10:29:16Z</time>
      </trkpt>
      <trkpt lat="49.01964" lon="1.12892">
        <ele>72</ele>
        <time>2011-09-25T10:29:17Z</time>
      </trkpt>
      <trkpt lat="49.01958" lon="1.12896">
        <ele>72</ele>
        <time>2011-09-25T10:29:18Z</time>
      </trkpt>
      <trkpt lat="49.01952" lon="1.12901">
        <ele>72</ele>
        <time>2011-09-25T10:29:19Z</time>
      </trkpt>
      <trkpt lat="49.01946" lon="1.12905">
        <ele>72</ele>
        <time>2011-09-25T10:29:20Z</time>
      </trkpt>
      <trkpt lat="49.01941" lon="1.1291">
        <ele>72</ele>
        <time>2011-09-25T10:29:21Z</time>
      </trkpt>
      <trkpt lat="49.01935" lon="1.12914">
        <ele>72</ele>
        <time>2011-09-25T10:29:22Z</time>
      </trkpt>
      <trkpt lat="49.01929" lon="1.12919">
        <ele>72</ele>
        <time>2011-09-25T10:29:23Z</time>
      </trkpt>
      <trkpt lat="49.01923" lon="1.12923">
        <ele>72</ele>
        <time>2011-09-25T10:29:24Z</time>
      </trkpt>
      <trkpt lat="49.01917" lon="1.12928">
        <ele>72</ele>
        <time>2011-09-25T10:29:25Z</time>
      </trkpt>
      <trkpt lat="49.01911" lon="1.12933">
        <ele>72</ele>
        <time>2011-09-25T10:29:26Z</time>
      </trkpt>
      <trkpt lat="49.01905" lon="1.12938">
        <ele>72</ele>
        <time>2011-09-25T10:29:27Z</time>
      </trkpt>
      <trkpt lat="49.019" lon="1.12942">
        <ele>72</ele>
        <time>2011-09-25T10:29:28Z</time>
      </trkpt>
      <trkpt lat="49.01894" lon="1.12947">
        <ele>71</ele>
        <time>2011-09-25T10:29:29Z</time>
      </trkpt>
      <trkpt lat="49.01888" lon="1.12952">
        <ele>71</ele>
        <time>2011-09-25T10:29:30Z</time>
      </trkpt>
      <trkpt lat="49.01882" lon="1.12957">
        <ele>71</ele>
        <time>2011-09-25T10:29:31Z</time>
      </trkpt>
      <trkpt lat="49.01876" lon="1.12962">
        <ele>71</ele>
        <time>2011-09-25T10:29:32Z</time>
      </trkpt>
      <trkpt lat="49.0187" lon="1.12967">
        <ele>71</ele>
        <time>2011-09-25T10:29:33Z</time>
      </trkpt>
      <trkpt lat="49.01864" lon="1.12972">
        <ele>71</ele>
        <time>2011-09-25T10:29:34Z</time>
      </trkpt>
      <trkpt lat="49.01858" lon="1.12978">
        <ele>71</ele>
        <time>2011-09-25T10:29:35Z</time>
      </trkpt>
      <trkpt lat="49.01852" lon="1.12983">
        <ele>71</ele>
        <time>2011-09-25T10:29:36Z</time>
      </trkpt>
      <trkpt lat="49.01847" lon="1.12988">
        <ele>72</ele>
        <time>2011-09-25T10:29:37Z</time>
      </trkpt>
      <trkpt lat="49.01841" lon="1.12994">
        <ele>72</ele>
        <time>2011-09-25T10:29:38Z</time>
      </trkpt>
      <trkpt lat="49.01836" lon="1.12999">
        <ele>72</ele>
        <time>2011-09-25T10:29:39Z</time>
      </trkpt>
      <trkpt lat="49.01831" lon="1.13005">
        <ele>72</ele>
        <time>2011-09-25T10:29:40Z</time>
      </trkpt>
      <trkpt lat="49.01825" lon="1.13011">
        <ele>71</ele>
        <time>2011-09-25T10:29:41Z</time>
      </trkpt>
      <trkpt lat="49.0182" lon="1.13017">
        <ele>71</ele>
        <time>2011-09-25T10:29:42Z</time>
      </trkpt>
      <trkpt lat="49.01815" lon="1.13023">
        <ele>71</ele>
        <time>2011-09-25T10:29:43Z</time>
      </trkpt>
      <trkpt lat="49.0181" lon="1.13029">
        <ele>71</ele>
        <time>2011-09-25T10:29:44Z</time>
      </trkpt>
      <trkpt lat="49.01805" lon="1.13035">
        <ele>70</ele>
        <time>2011-09-25T10:29:45Z</time>
      </trkpt>
      <trkpt lat="49.01799" lon="1.13042">
        <ele>70</ele>
        <time>2011-09-25T10:29:46Z</time>
      </trkpt>
      <trkpt lat="49.01795" lon="1.13048">
        <ele>70</ele>
        <time>2011-09-25T10:29:47Z</time>
      </trkpt>
      <trkpt lat="49.0179" lon="1.13054">
        <ele>70</ele>
        <time>2011-09-25T10:29:48Z</time>
      </trkpt>
      <trkpt lat="49.01785" lon="1.13061">
        <ele>70</ele>
        <time>2011-09-25T10:29:49Z</time>
      </trkpt>
      <trkpt lat="49.0178" lon="1.13067">
        <ele>70</ele>
        <time>2011-09-25T10:29:50Z</time>
      </trkpt>
      <trkpt lat="49.01776" lon="1.13074">
        <ele>70</ele>
        <time>2011-09-25T10:29:51Z</time>
      </trkpt>
      <trkpt lat="49.01772" lon="1.1308">
        <ele>70</ele>
        <time>2011-09-25T10:29:52Z</time>
      </trkpt>
      <trkpt lat="49.01768" lon="1.13088">
        <ele>70</ele>
        <time>2011-09-25T10:29:53Z</time>
      </trkpt>
      <trkpt lat="49.01763" lon="1.13095">
        <ele>70</ele>
        <time>2011-09-25T10:29:54Z</time>
      </trkpt>
      <trkpt lat="49.01759" lon="1.13102">
        <ele>70</ele>
        <time>2011-09-25T10:29:55Z</time>
      </trkpt>
      <trkpt lat="49.01754" lon="1.1311">
        <ele>70</ele>
        <time>2011-09-25T10:29:56Z</time>
      </trkpt>
      <trkpt lat="49.0175" lon="1.13118">
        <ele>71</ele>
        <time>2011-09-25T10:29:57Z</time>
      </trkpt>
      <trkpt lat="49.01746" lon="1.13126">
        <ele>71</ele>
        <time>2011-09-25T10:29:58Z</time>
      </trkpt>
      <trkpt lat="49.01741" lon="1.13134">
        <ele>71</ele>
        <time>2011-09-25T10:29:59Z</time>
      </trkpt>
      <trkpt lat="49.01737" lon="1.13142">
        <ele>71</ele>
        <time>2011-09-25T10:30:00Z</time>
      </trkpt>
      <trkpt lat="49.01733" lon="1.13149">
        <ele>71</ele>
        <time>2011-09-25T10:30:01Z</time>
      </trkpt>
      <trkpt lat="49.01729" lon="1.13157">
        <ele>71</ele>
        <time>2011-09-25T10:30:02Z</time>
      </trkpt>
      <trkpt lat="49.01726" lon="1.13165">
        <ele>71</ele>
        <time>2011-09-25T10:30:03Z</time>
      </trkpt>
      <trkpt lat="49.01722" lon="1.13173">
        <ele>73</ele>
        <time>2011-09-25T10:30:04Z</time>
      </trkpt>
      <trkpt lat="49.01718" lon="1.13182">
        <ele>73</ele>
        <time>2011-09-25T10:30:05Z</time>
      </trkpt>
      <trkpt lat="49.01714" lon="1.1319">
        <ele>73</ele>
        <time>2011-09-25T10:30:06Z</time>
      </trkpt>
      <trkpt lat="49.0171" lon="1.13198">
        <ele>73</ele>
        <time>2011-09-25T10:30:07Z</time>
      </trkpt>
      <trkpt lat="49.01707" lon="1.13207">
        <ele>73</ele>
        <time>2011-09-25T10:30:08Z</time>
      </trkpt>
      <trkpt lat="49.01703" lon="1.13215">
        <ele>73</ele>
        <time>2011-09-25T10:30:09Z</time>
      </trkpt>
      <trkpt lat="49.017" lon="1.13224">
        <ele>73</ele>
        <time>2011-09-25T10:30:10Z</time>
      </trkpt>
      <trkpt lat="49.01697" lon="1.13233">
        <ele>74</ele>
        <time>2011-09-25T10:30:11Z</time>
      </trkpt>
      <trkpt lat="49.01694" lon="1.13241">
        <ele>74</ele>
        <time>2011-09-25T10:30:12Z</time>
      </trkpt>
      <trkpt lat="49.01691" lon="1.1325">
        <ele>75</ele>
        <time>2011-09-25T10:30:13Z</time>
      </trkpt>
      <trkpt lat="49.01688" lon="1.13259">
        <ele>75</ele>
        <time>2011-09-25T10:30:14Z</time>
      </trkpt>
      <trkpt lat="49.01685" lon="1.13268">
        <ele>75</ele>
        <time>2011-09-25T10:30:15Z</time>
      </trkpt>
      <trkpt lat="49.01682" lon="1.13277">
        <ele>75</ele>
        <time>2011-09-25T10:30:16Z</time>
      </trkpt>
      <trkpt lat="49.01679" lon="1.13286">
        <ele>75</ele>
        <time>2011-09-25T10:30:17Z</time>
      </trkpt>
      <trkpt lat="49.01677" lon="1.13295">
        <ele>75</ele>
        <time>2011-09-25T10:30:18Z</time>
      </trkpt>
      <trkpt lat="49.01674" lon="1.13304">
        <ele>75</ele>
        <time>2011-09-25T10:30:19Z</time>
      </trkpt>
      <trkpt lat="49.01671" lon="1.13313">
        <ele>76</ele>
        <time>2011-09-25T10:30:20Z</time>
      </trkpt>
      <trkpt lat="49.01669" lon="1.13322">
        <ele>76</ele>
        <time>2011-09-25T10:30:21Z</time>
      </trkpt>
      <trkpt lat="49.01667" lon="1.13332">
        <ele>78</ele>
        <time>2011-09-25T10:30:22Z</time>
      </trkpt>
      <trkpt lat="49.01665" lon="1.13342">
        <ele>80</ele>
        <time>2011-09-25T10:30:23Z</time>
      </trkpt>
      <trkpt lat="49.01663" lon="1.13351">
        <ele>81</ele>
        <time>2011-09-25T10:30:24Z</time>
      </trkpt>
      <trkpt lat="49.01662" lon="1.13361">
        <ele>81</ele>
        <time>2011-09-25T10:30:25Z</time>
      </trkpt>
      <trkpt lat="49.01659" lon="1.13371">
        <ele>81</ele>
        <time>2011-09-25T10:30:26Z</time>
      </trkpt>
      <trkpt lat="49.01658" lon="1.13381">
        <ele>81</ele>
        <time>2011-09-25T10:30:27Z</time>
      </trkpt>
      <trkpt lat="49.01656" lon="1.1339">
        <ele>81</ele>
        <time>2011-09-25T10:30:28Z</time>
      </trkpt>
      <trkpt lat="49.01654" lon="1.134">
        <ele>81</ele>
        <time>2011-09-25T10:30:29Z</time>
      </trkpt>
      <trkpt lat="49.01653" lon="1.1341">
        <ele>80</ele>
        <time>2011-09-25T10:30:30Z</time>
      </trkpt>
      <trkpt lat="49.0165" lon="1.13419">
        <ele>81</ele>
        <time>2011-09-25T10:30:31Z</time>
      </trkpt>
      <trkpt lat="49.01648" lon="1.13429">
        <ele>82</ele>
        <time>2011-09-25T10:30:32Z</time>
      </trkpt>
      <trkpt lat="49.01646" lon="1.13438">
        <ele>82</ele>
        <time>2011-09-25T10:30:33Z</time>
      </trkpt>
      <trkpt lat="49.01645" lon="1.13447">
        <ele>83</ele>
        <time>2011-09-25T10:30:34Z</time>
      </trkpt>
      <trkpt lat="49.01644" lon="1.13455">
        <ele>83</ele>
        <time>2011-09-25T10:30:35Z</time>
      </trkpt>
      <trkpt lat="49.01642" lon="1.13463">
        <ele>83</ele>
        <time>2011-09-25T10:30:36Z</time>
      </trkpt>
      <trkpt lat="49.01642" lon="1.1347">
        <ele>83</ele>
        <time>2011-09-25T10:30:37Z</time>
      </trkpt>
      <trkpt lat="49.01641" lon="1.13477">
        <ele>84</ele>
        <time>2011-09-25T10:30:38Z</time>
      </trkpt>
      <trkpt lat="49.0164" lon="1.1349">
        <ele>83</ele>
        <time>2011-09-25T10:30:40Z</time>
      </trkpt>
      <trkpt lat="49.01639" lon="1.13503">
        <ele>85</ele>
        <time>2011-09-25T10:30:42Z</time>
      </trkpt>
      <trkpt lat="49.01639" lon="1.13511">
        <ele>85</ele>
        <time>2011-09-25T10:30:43Z</time>
      </trkpt>
      <trkpt lat="49.01638" lon="1.13518">
        <ele>85</ele>
        <time>2011-09-25T10:30:44Z</time>
      </trkpt>
      <trkpt lat="49.01639" lon="1.13527">
        <ele>86</ele>
        <time>2011-09-25T10:30:45Z</time>
      </trkpt>
      <trkpt lat="49.01639" lon="1.13534">
        <ele>86</ele>
        <time>2011-09-25T10:30:46Z</time>
      </trkpt>
      <trkpt lat="49.01639" lon="1.13543">
        <ele>86</ele>
        <time>2011-09-25T10:30:47Z</time>
      </trkpt>
      <trkpt lat="49.0164" lon="1.13551">
        <ele>86</ele>
        <time>2011-09-25T10:30:48Z</time>
      </trkpt>
      <trkpt lat="49.0164" lon="1.1356">
        <ele>86</ele>
        <time>2011-09-25T10:30:49Z</time>
      </trkpt>
      <trkpt lat="49.0164" lon="1.13569">
        <ele>86</ele>
        <time>2011-09-25T10:30:50Z</time>
      </trkpt>
      <trkpt lat="49.0164" lon="1.13578">
        <ele>86</ele>
        <time>2011-09-25T10:30:51Z</time>
      </trkpt>
      <trkpt lat="49.01641" lon="1.13586">
        <ele>86</ele>
        <time>2011-09-25T10:30:52Z</time>
      </trkpt>
      <trkpt lat="49.01641" lon="1.13594">
        <ele>87</ele>
        <time>2011-09-25T10:30:53Z</time>
      </trkpt>
      <trkpt lat="49.01641" lon="1.13603">
        <ele>87</ele>
        <time>2011-09-25T10:30:54Z</time>
      </trkpt>
      <trkpt lat="49.01641" lon="1.13611">
        <ele>87</ele>
        <time>2011-09-25T10:30:55Z</time>
      </trkpt>
      <trkpt lat="49.01642" lon="1.13619">
        <ele>87</ele>
        <time>2011-09-25T10:30:56Z</time>
      </trkpt>
      <trkpt lat="49.01644" lon="1.13627">
        <ele>87</ele>
        <time>2011-09-25T10:30:57Z</time>
      </trkpt>
      <trkpt lat="49.01645" lon="1.13635">
        <ele>87</ele>
        <time>2011-09-25T10:30:58Z</time>
      </trkpt>
      <trkpt lat="49.01646" lon="1.13642">
        <ele>87</ele>
        <time>2011-09-25T10:30:59Z</time>
      </trkpt>
      <trkpt lat="49.01647" lon="1.1365">
        <ele>86</ele>
        <time>2011-09-25T10:31:00Z</time>
      </trkpt>
      <trkpt lat="49.01648" lon="1.13657">
        <ele>86</ele>
        <time>2011-09-25T10:31:01Z</time>
      </trkpt>
      <trkpt lat="49.01648" lon="1.13664">
        <ele>86</ele>
        <time>2011-09-25T10:31:02Z</time>
      </trkpt>
      <trkpt lat="49.01649" lon="1.13671">
        <ele>87</ele>
        <time>2011-09-25T10:31:03Z</time>
      </trkpt>
      <trkpt lat="49.01645" lon="1.13682">
        <ele>88</ele>
        <time>2011-09-25T10:31:05Z</time>
      </trkpt>
      <trkpt lat="49.01638" lon="1.13686">
        <ele>89</ele>
        <time>2011-09-25T10:31:07Z</time>
      </trkpt>
      <trkpt lat="49.01631" lon="1.13689">
        <ele>90</ele>
        <time>2011-09-25T10:31:09Z</time>
      </trkpt>
      <trkpt lat="49.01623" lon="1.13689">
        <ele>91</ele>
        <time>2011-09-25T10:31:11Z</time>
      </trkpt>
      <trkpt lat="49.01618" lon="1.1369">
        <ele>92</ele>
        <time>2011-09-25T10:31:13Z</time>
      </trkpt>
      <trkpt lat="49.01611" lon="1.13689">
        <ele>93</ele>
        <time>2011-09-25T10:31:16Z</time>
      </trkpt>
      <trkpt lat="49.01605" lon="1.13687">
        <ele>93</ele>
        <time>2011-09-25T10:31:18Z</time>
      </trkpt>
      <trkpt lat="49.01599" lon="1.13685">
        <ele>94</ele>
        <time>2011-09-25T10:31:20Z</time>
      </trkpt>
      <trkpt lat="49.01593" lon="1.13684">
        <ele>94</ele>
        <time>2011-09-25T10:31:22Z</time>
      </trkpt>
      <trkpt lat="49.01587" lon="1.13682">
        <ele>95</ele>
        <time>2011-09-25T10:31:24Z</time>
      </trkpt>
      <trkpt lat="49.01581" lon="1.13681">
        <ele>103</ele>
        <time>2011-09-25T10:31:26Z</time>
      </trkpt>
      <trkpt lat="49.01575" lon="1.1368">
        <ele>104</ele>
        <time>2011-09-25T10:31:28Z</time>
      </trkpt>
      <trkpt lat="49.01567" lon="1.13681">
        <ele>105</ele>
        <time>2011-09-25T10:31:30Z</time>
      </trkpt>
      <trkpt lat="49.01561" lon="1.13682">
        <ele>107</ele>
        <time>2011-09-25T10:31:32Z</time>
      </trkpt>
      <trkpt lat="49.01555" lon="1.1368">
        <ele>108</ele>
        <time>2011-09-25T10:31:35Z</time>
      </trkpt>
      <trkpt lat="49.01551" lon="1.13673">
        <ele>109</ele>
        <time>2011-09-25T10:31:39Z</time>
      </trkpt>
      <trkpt lat="49.01546" lon="1.13666">
        <ele>108</ele>
        <time>2011-09-25T10:31:42Z</time>
      </trkpt>
      <trkpt lat="49.01541" lon="1.13662">
        <ele>109</ele>
        <time>2011-09-25T10:31:44Z</time>
      </trkpt>
      <trkpt lat="49.01537" lon="1.13659">
        <ele>110</ele>
        <time>2011-09-25T10:31:46Z</time>
      </trkpt>
      <trkpt lat="49.01531" lon="1.13655">
        <ele>111</ele>
        <time>2011-09-25T10:31:49Z</time>
      </trkpt>
      <trkpt lat="49.01526" lon="1.13652">
        <ele>112</ele>
        <time>2011-09-25T10:31:51Z</time>
      </trkpt>
      <trkpt lat="49.01522" lon="1.1365">
        <ele>113</ele>
        <time>2011-09-25T10:31:53Z</time>
      </trkpt>
      <trkpt lat="49.01516" lon="1.13646">
        <ele>114</ele>
        <time>2011-09-25T10:31:56Z</time>
      </trkpt>
      <trkpt lat="49.0151" lon="1.13642">
        <ele>114</ele>
        <time>2011-09-25T10:31:59Z</time>
      </trkpt>
      <trkpt lat="49.01503" lon="1.1364">
        <ele>114</ele>
        <time>2011-09-25T10:32:02Z</time>
      </trkpt>
      <trkpt lat="49.01498" lon="1.13636">
        <ele>123</ele>
        <time>2011-09-25T10:32:05Z</time>
      </trkpt>
      <trkpt lat="49.01494" lon="1.13634">
        <ele>123</ele>
        <time>2011-09-25T10:32:07Z</time>
      </trkpt>
      <trkpt lat="49.01488" lon="1.13631">
        <ele>123</ele>
        <time>2011-09-25T10:32:10Z</time>
      </trkpt>
      <trkpt lat="49.01483" lon="1.13627">
        <ele>123</ele>
        <time>2011-09-25T10:32:13Z</time>
      </trkpt>
      <trkpt lat="49.01477" lon="1.13623">
        <ele>123</ele>
        <time>2011-09-25T10:32:16Z</time>
      </trkpt>
      <trkpt lat="49.01473" lon="1.13621">
        <ele>123</ele>
        <time>2011-09-25T10:32:18Z</time>
      </trkpt>
      <trkpt lat="49.01467" lon="1.13618">
        <ele>123</ele>
        <time>2011-09-25T10:32:21Z</time>
      </trkpt>
      <trkpt lat="49.01461" lon="1.13616">
        <ele>123</ele>
        <time>2011-09-25T10:32:24Z</time>
      </trkpt>
      <trkpt lat="49.01457" lon="1.13614">
        <ele>123</ele>
        <time>2011-09-25T10:32:26Z</time>
      </trkpt>
      <trkpt lat="49.01452" lon="1.13613">
        <ele>123</ele>
        <time>2011-09-25T10:32:28Z</time>
      </trkpt>
      <trkpt lat="49.01446" lon="1.13611">
        <ele>123</ele>
        <time>2011-09-25T10:32:31Z</time>
      </trkpt>
      <trkpt lat="49.01439" lon="1.13609">
        <ele>123</ele>
        <time>2011-09-25T10:32:34Z</time>
      </trkpt>
      <trkpt lat="49.01433" lon="1.13607">
        <ele>124</ele>
        <time>2011-09-25T10:32:37Z</time>
      </trkpt>
      <trkpt lat="49.01426" lon="1.13607">
        <ele>124</ele>
        <time>2011-09-25T10:32:40Z</time>
      </trkpt>
      <trkpt lat="49.0142" lon="1.13605">
        <ele>124</ele>
        <time>2011-09-25T10:32:43Z</time>
      </trkpt>
      <trkpt lat="49.01414" lon="1.13602">
        <ele>124</ele>
        <time>2011-09-25T10:32:46Z</time>
      </trkpt>
      <trkpt lat="49.01414" lon="1.13602">
        <ele>124</ele>
        <time>2011-09-25T10:32:46Z</time>
      </trkpt>
      <trkpt lat="49.01414" lon="1.13602">
        <ele>124</ele>
        <time>2011-09-25T10:32:50Z</time>
      </trkpt>
      <trkpt lat="49.01407" lon="1.13593">
        <ele>124</ele>
        <time>2011-09-25T10:32:51Z</time>
      </trkpt>
      <trkpt lat="49.01407" lon="1.13593">
        <ele>124</ele>
        <time>2011-09-25T10:32:51Z</time>
      </trkpt>
      <trkpt lat="49.01407" lon="1.13593">
        <ele>124</ele>
        <time>2011-09-25T10:32:55Z</time>
      </trkpt>
      <trkpt lat="49.01401" lon="1.13583">
        <ele>125</ele>
        <time>2011-09-25T10:32:56Z</time>
      </trkpt>
      <trkpt lat="49.01401" lon="1.13583">
        <ele>125</ele>
        <time>2011-09-25T10:32:56Z</time>
      </trkpt>
      <trkpt lat="49.01401" lon="1.13583">
        <ele>125</ele>
        <time>2011-09-25T10:33:00Z</time>
      </trkpt>
      <trkpt lat="49.01396" lon="1.13571">
        <ele>125</ele>
        <time>2011-09-25T10:33:01Z</time>
      </trkpt>
      <trkpt lat="49.01396" lon="1.13571">
        <ele>125</ele>
        <time>2011-09-25T10:33:01Z</time>
      </trkpt>
      <trkpt lat="49.01396" lon="1.13571">
        <ele>125</ele>
        <time>2011-09-25T10:33:05Z</time>
      </trkpt>
      <trkpt lat="49.01393" lon="1.13557">
        <ele>126</ele>
        <time>2011-09-25T10:33:06Z</time>
      </trkpt>
      <trkpt lat="49.01393" lon="1.13557">
        <ele>126</ele>
        <time>2011-09-25T10:33:06Z</time>
      </trkpt>
      <trkpt lat="49.01393" lon="1.13557">
        <ele>126</ele>
        <time>2011-09-25T10:33:09Z</time>
      </trkpt>
      <trkpt lat="49.01388" lon="1.13544">
        <ele>126</ele>
        <time>2011-09-25T10:33:10Z</time>
      </trkpt>
      <trkpt lat="49.01388" lon="1.13544">
        <ele>126</ele>
        <time>2011-09-25T10:33:10Z</time>
      </trkpt>
      <trkpt lat="49.01388" lon="1.13544">
        <ele>126</ele>
        <time>2011-09-25T10:33:12Z</time>
      </trkpt>
      <trkpt lat="49.01383" lon="1.13536">
        <ele>126</ele>
        <time>2011-09-25T10:33:13Z</time>
      </trkpt>
      <trkpt lat="49.01383" lon="1.13536">
        <ele>126</ele>
        <time>2011-09-25T10:33:13Z</time>
      </trkpt>
      <trkpt lat="49.01383" lon="1.13536">
        <ele>126</ele>
        <time>2011-09-25T10:33:15Z</time>
      </trkpt>
      <trkpt lat="49.01379" lon="1.13526">
        <ele>126</ele>
        <time>2011-09-25T10:33:16Z</time>
      </trkpt>
      <trkpt lat="49.01377" lon="1.13519">
        <ele>127</ele>
        <time>2011-09-25T10:33:18Z</time>
      </trkpt>
      <trkpt lat="49.01374" lon="1.13511">
        <ele>127</ele>
        <time>2011-09-25T10:33:20Z</time>
      </trkpt>
      <trkpt lat="49.01372" lon="1.13502">
        <ele>127</ele>
        <time>2011-09-25T10:33:22Z</time>
      </trkpt>
      <trkpt lat="49.01369" lon="1.13492">
        <ele>129</ele>
        <time>2011-09-25T10:33:24Z</time>
      </trkpt>
      <trkpt lat="49.01367" lon="1.13483">
        <ele>129</ele>
        <time>2011-09-25T10:33:26Z</time>
      </trkpt>
      <trkpt lat="49.01364" lon="1.13472">
        <ele>129</ele>
        <time>2011-09-25T10:33:28Z</time>
      </trkpt>
      <trkpt lat="49.01359" lon="1.13464">
        <ele>129</ele>
        <time>2011-09-25T10:33:30Z</time>
      </trkpt>
      <trkpt lat="49.01355" lon="1.13455">
        <ele>129</ele>
        <time>2011-09-25T10:33:32Z</time>
      </trkpt>
      <trkpt lat="49.01351" lon="1.13443">
        <ele>129</ele>
        <time>2011-09-25T10:33:34Z</time>
      </trkpt>
      <trkpt lat="49.01348" lon="1.13431">
        <ele>130</ele>
        <time>2011-09-25T10:33:36Z</time>
      </trkpt>
      <trkpt lat="49.01344" lon="1.1342">
        <ele>130</ele>
        <time>2011-09-25T10:33:38Z</time>
      </trkpt>
      <trkpt lat="49.01341" lon="1.13408">
        <ele>130</ele>
        <time>2011-09-25T10:33:40Z</time>
      </trkpt>
      <trkpt lat="49.01337" lon="1.13395">
        <ele>130</ele>
        <time>2011-09-25T10:33:42Z</time>
      </trkpt>
      <trkpt lat="49.01336" lon="1.13388">
        <ele>130</ele>
        <time>2011-09-25T10:33:43Z</time>
      </trkpt>
      <trkpt lat="49.01332" lon="1.13377">
        <ele>130</ele>
        <time>2011-09-25T10:33:45Z</time>
      </trkpt>
      <trkpt lat="49.01328" lon="1.13366">
        <ele>130</ele>
        <time>2011-09-25T10:33:47Z</time>
      </trkpt>
      <trkpt lat="49.01324" lon="1.13356">
        <ele>130</ele>
        <time>2011-09-25T10:33:49Z</time>
      </trkpt>
      <trkpt lat="49.01322" lon="1.1335">
        <ele>130</ele>
        <time>2011-09-25T10:33:50Z</time>
      </trkpt>
      <trkpt lat="49.0132" lon="1.13337">
        <ele>130</ele>
        <time>2011-09-25T10:33:52Z</time>
      </trkpt>
      <trkpt lat="49.01318" lon="1.1333">
        <ele>130</ele>
        <time>2011-09-25T10:33:53Z</time>
      </trkpt>
      <trkpt lat="49.01316" lon="1.13322">
        <ele>130</ele>
        <time>2011-09-25T10:33:54Z</time>
      </trkpt>
      <trkpt lat="49.01314" lon="1.13315">
        <ele>130</ele>
        <time>2011-09-25T10:33:55Z</time>
      </trkpt>
      <trkpt lat="49.01312" lon="1.13307">
        <ele>130</ele>
        <time>2011-09-25T10:33:56Z</time>
      </trkpt>
      <trkpt lat="49.01309" lon="1.133">
        <ele>130</ele>
        <time>2011-09-25T10:33:57Z</time>
      </trkpt>
      <trkpt lat="49.01307" lon="1.13294">
        <ele>129</ele>
        <time>2011-09-25T10:33:58Z</time>
      </trkpt>
      <trkpt lat="49.01304" lon="1.13287">
        <ele>129</ele>
        <time>2011-09-25T10:33:59Z</time>
      </trkpt>
      <trkpt lat="49.01302" lon="1.13281">
        <ele>129</ele>
        <time>2011-09-25T10:34:00Z</time>
      </trkpt>
      <trkpt lat="49.013" lon="1.13274">
        <ele>129</ele>
        <time>2011-09-25T10:34:01Z</time>
      </trkpt>
      <trkpt lat="49.01297" lon="1.13267">
        <ele>129</ele>
        <time>2011-09-25T10:34:02Z</time>
      </trkpt>
      <trkpt lat="49.01295" lon="1.1326">
        <ele>129</ele>
        <time>2011-09-25T10:34:03Z</time>
      </trkpt>
      <trkpt lat="49.01292" lon="1.13253">
        <ele>129</ele>
        <time>2011-09-25T10:34:04Z</time>
      </trkpt>
      <trkpt lat="49.0129" lon="1.13246">
        <ele>129</ele>
        <time>2011-09-25T10:34:05Z</time>
      </trkpt>
      <trkpt lat="49.01288" lon="1.13239">
        <ele>129</ele>
        <time>2011-09-25T10:34:06Z</time>
      </trkpt>
      <trkpt lat="49.01286" lon="1.13231">
        <ele>129</ele>
        <time>2011-09-25T10:34:07Z</time>
      </trkpt>
      <trkpt lat="49.01283" lon="1.13224">
        <ele>129</ele>
        <time>2011-09-25T10:34:08Z</time>
      </trkpt>
      <trkpt lat="49.0128" lon="1.13216">
        <ele>129</ele>
        <time>2011-09-25T10:34:09Z</time>
      </trkpt>
      <trkpt lat="49.01277" lon="1.13208">
        <ele>130</ele>
        <time>2011-09-25T10:34:10Z</time>
      </trkpt>
      <trkpt lat="49.01274" lon="1.13201">
        <ele>130</ele>
        <time>2011-09-25T10:34:11Z</time>
      </trkpt>
      <trkpt lat="49.01272" lon="1.13193">
        <ele>130</ele>
        <time>2011-09-25T10:34:12Z</time>
      </trkpt>
      <trkpt lat="49.0127" lon="1.13186">
        <ele>130</ele>
        <time>2011-09-25T10:34:13Z</time>
      </trkpt>
      <trkpt lat="49.01267" lon="1.13179">
        <ele>130</ele>
        <time>2011-09-25T10:34:14Z</time>
      </trkpt>
      <trkpt lat="49.01265" lon="1.13171">
        <ele>130</ele>
        <time>2011-09-25T10:34:15Z</time>
      </trkpt>
      <trkpt lat="49.01263" lon="1.13163">
        <ele>129</ele>
        <time>2011-09-25T10:34:16Z</time>
      </trkpt>
      <trkpt lat="49.01261" lon="1.13156">
        <ele>129</ele>
        <time>2011-09-25T10:34:17Z</time>
      </trkpt>
      <trkpt lat="49.01258" lon="1.13148">
        <ele>129</ele>
        <time>2011-09-25T10:34:18Z</time>
      </trkpt>
      <trkpt lat="49.01256" lon="1.1314">
        <ele>129</ele>
        <time>2011-09-25T10:34:19Z</time>
      </trkpt>
      <trkpt lat="49.01254" lon="1.13133">
        <ele>129</ele>
        <time>2011-09-25T10:34:20Z</time>
      </trkpt>
      <trkpt lat="49.01251" lon="1.13125">
        <ele>129</ele>
        <time>2011-09-25T10:34:21Z</time>
      </trkpt>
      <trkpt lat="49.01247" lon="1.13118">
        <ele>130</ele>
        <time>2011-09-25T10:34:22Z</time>
      </trkpt>
      <trkpt lat="49.01243" lon="1.13112">
        <ele>130</ele>
        <time>2011-09-25T10:34:23Z</time>
      </trkpt>
      <trkpt lat="49.01238" lon="1.13105">
        <ele>129</ele>
        <time>2011-09-25T10:34:24Z</time>
      </trkpt>
      <trkpt lat="49.01234" lon="1.13099">
        <ele>129</ele>
        <time>2011-09-25T10:34:25Z</time>
      </trkpt>
      <trkpt lat="49.0123" lon="1.13092">
        <ele>129</ele>
        <time>2011-09-25T10:34:26Z</time>
      </trkpt>
      <trkpt lat="49.01226" lon="1.13086">
        <ele>129</ele>
        <time>2011-09-25T10:34:27Z</time>
      </trkpt>
      <trkpt lat="49.01222" lon="1.1308">
        <ele>129</ele>
        <time>2011-09-25T10:34:28Z</time>
      </trkpt>
      <trkpt lat="49.01217" lon="1.13073">
        <ele>130</ele>
        <time>2011-09-25T10:34:29Z</time>
      </trkpt>
      <trkpt lat="49.01213" lon="1.13066">
        <ele>130</ele>
        <time>2011-09-25T10:34:30Z</time>
      </trkpt>
      <trkpt lat="49.01208" lon="1.1306">
        <ele>130</ele>
        <time>2011-09-25T10:34:31Z</time>
      </trkpt>
      <trkpt lat="49.01204" lon="1.13054">
        <ele>130</ele>
        <time>2011-09-25T10:34:32Z</time>
      </trkpt>
      <trkpt lat="49.01199" lon="1.13049">
        <ele>130</ele>
        <time>2011-09-25T10:34:33Z</time>
      </trkpt>
      <trkpt lat="49.01194" lon="1.13044">
        <ele>130</ele>
        <time>2011-09-25T10:34:34Z</time>
      </trkpt>
      <trkpt lat="49.01191" lon="1.13039">
        <ele>130</ele>
        <time>2011-09-25T10:34:35Z</time>
      </trkpt>
      <trkpt lat="49.01187" lon="1.13033">
        <ele>130</ele>
        <time>2011-09-25T10:34:37Z</time>
      </trkpt>
      <trkpt lat="49.01187" lon="1.13033">
        <ele>130</ele>
        <time>2011-09-25T10:34:37Z</time>
      </trkpt>
      <trkpt lat="49.01187" lon="1.13033">
        <ele>130</ele>
        <time>2011-09-25T10:34:44Z</time>
      </trkpt>
      <trkpt lat="49.01188" lon="1.13041">
        <ele>130</ele>
        <time>2011-09-25T10:34:47Z</time>
      </trkpt>
      <trkpt lat="49.01184" lon="1.13048">
        <ele>130</ele>
        <time>2011-09-25T10:34:49Z</time>
      </trkpt>
      <trkpt lat="49.01178" lon="1.13055">
        <ele>130</ele>
        <time>2011-09-25T10:34:51Z</time>
      </trkpt>
      <trkpt lat="49.01172" lon="1.13062">
        <ele>131</ele>
        <time>2011-09-25T10:34:53Z</time>
      </trkpt>
      <trkpt lat="49.01166" lon="1.1307">
        <ele>131</ele>
        <time>2011-09-25T10:34:55Z</time>
      </trkpt>
      <trkpt lat="49.01162" lon="1.13074">
        <ele>131</ele>
        <time>2011-09-25T10:34:56Z</time>
      </trkpt>
      <trkpt lat="49.01159" lon="1.13079">
        <ele>131</ele>
        <time>2011-09-25T10:34:57Z</time>
      </trkpt>
      <trkpt lat="49.01155" lon="1.13083">
        <ele>131</ele>
        <time>2011-09-25T10:34:58Z</time>
      </trkpt>
      <trkpt lat="49.01151" lon="1.13088">
        <ele>131</ele>
        <time>2011-09-25T10:34:59Z</time>
      </trkpt>
      <trkpt lat="49.01147" lon="1.13093">
        <ele>131</ele>
        <time>2011-09-25T10:35:00Z</time>
      </trkpt>
      <trkpt lat="49.01143" lon="1.13099">
        <ele>132</ele>
        <time>2011-09-25T10:35:01Z</time>
      </trkpt>
      <trkpt lat="49.01139" lon="1.13105">
        <ele>132</ele>
        <time>2011-09-25T10:35:02Z</time>
      </trkpt>
      <trkpt lat="49.01135" lon="1.13111">
        <ele>132</ele>
        <time>2011-09-25T10:35:03Z</time>
      </trkpt>
      <trkpt lat="49.01131" lon="1.13117">
        <ele>132</ele>
        <time>2011-09-25T10:35:04Z</time>
      </trkpt>
      <trkpt lat="49.01127" lon="1.13122">
        <ele>132</ele>
        <time>2011-09-25T10:35:05Z</time>
      </trkpt>
      <trkpt lat="49.01123" lon="1.13127">
        <ele>132</ele>
        <time>2011-09-25T10:35:06Z</time>
      </trkpt>
      <trkpt lat="49.01119" lon="1.13132">
        <ele>132</ele>
        <time>2011-09-25T10:35:07Z</time>
      </trkpt>
      <trkpt lat="49.01115" lon="1.13137">
        <ele>132</ele>
        <time>2011-09-25T10:35:08Z</time>
      </trkpt>
      <trkpt lat="49.01111" lon="1.13142">
        <ele>132</ele>
        <time>2011-09-25T10:35:09Z</time>
      </trkpt>
      <trkpt lat="49.01108" lon="1.13147">
        <ele>132</ele>
        <time>2011-09-25T10:35:10Z</time>
      </trkpt>
      <trkpt lat="49.01103" lon="1.13155">
        <ele>132</ele>
        <time>2011-09-25T10:35:12Z</time>
      </trkpt>
      <trkpt lat="49.01098" lon="1.13163">
        <ele>132</ele>
        <time>2011-09-25T10:35:14Z</time>
      </trkpt>
      <trkpt lat="49.01091" lon="1.13172">
        <ele>132</ele>
        <time>2011-09-25T10:35:16Z</time>
      </trkpt>
      <trkpt lat="49.01084" lon="1.13181">
        <ele>132</ele>
        <time>2011-09-25T10:35:18Z</time>
      </trkpt>
      <trkpt lat="49.01077" lon="1.13189">
        <ele>132</ele>
        <time>2011-09-25T10:35:20Z</time>
      </trkpt>
      <trkpt lat="49.0107" lon="1.13198">
        <ele>132</ele>
        <time>2011-09-25T10:35:22Z</time>
      </trkpt>
      <trkpt lat="49.01064" lon="1.13206">
        <ele>132</ele>
        <time>2011-09-25T10:35:24Z</time>
      </trkpt>
      <trkpt lat="49.01058" lon="1.13215">
        <ele>133</ele>
        <time>2011-09-25T10:35:26Z</time>
      </trkpt>
      <trkpt lat="49.01051" lon="1.13223">
        <ele>133</ele>
        <time>2011-09-25T10:35:28Z</time>
      </trkpt>
      <trkpt lat="49.01044" lon="1.13232">
        <ele>133</ele>
        <time>2011-09-25T10:35:30Z</time>
      </trkpt>
      <trkpt lat="49.01039" lon="1.13241">
        <ele>132</ele>
        <time>2011-09-25T10:35:32Z</time>
      </trkpt>
      <trkpt lat="49.01033" lon="1.1325">
        <ele>133</ele>
        <time>2011-09-25T10:35:34Z</time>
      </trkpt>
      <trkpt lat="49.01026" lon="1.13259">
        <ele>133</ele>
        <time>2011-09-25T10:35:36Z</time>
      </trkpt>
      <trkpt lat="49.01022" lon="1.13264">
        <ele>133</ele>
        <time>2011-09-25T10:35:37Z</time>
      </trkpt>
      <trkpt lat="49.01019" lon="1.13269">
        <ele>133</ele>
        <time>2011-09-25T10:35:38Z</time>
      </trkpt>
      <trkpt lat="49.01016" lon="1.13274">
        <ele>133</ele>
        <time>2011-09-25T10:35:39Z</time>
      </trkpt>
      <trkpt lat="49.01012" lon="1.13278">
        <ele>133</ele>
        <time>2011-09-25T10:35:40Z</time>
      </trkpt>
      <trkpt lat="49.01009" lon="1.13283">
        <ele>133</ele>
        <time>2011-09-25T10:35:41Z</time>
      </trkpt>
      <trkpt lat="49.01005" lon="1.13287">
        <ele>133</ele>
        <time>2011-09-25T10:35:42Z</time>
      </trkpt>
      <trkpt lat="49.01001" lon="1.13292">
        <ele>133</ele>
        <time>2011-09-25T10:35:43Z</time>
      </trkpt>
      <trkpt lat="49.00997" lon="1.13298">
        <ele>133</ele>
        <time>2011-09-25T10:35:44Z</time>
      </trkpt>
      <trkpt lat="49.00993" lon="1.13303">
        <ele>133</ele>
        <time>2011-09-25T10:35:45Z</time>
      </trkpt>
      <trkpt lat="49.00988" lon="1.13308">
        <ele>133</ele>
        <time>2011-09-25T10:35:46Z</time>
      </trkpt>
      <trkpt lat="49.00984" lon="1.13313">
        <ele>133</ele>
        <time>2011-09-25T10:35:47Z</time>
      </trkpt>
      <trkpt lat="49.0098" lon="1.13319">
        <ele>133</ele>
        <time>2011-09-25T10:35:48Z</time>
      </trkpt>
      <trkpt lat="49.00977" lon="1.13324">
        <ele>133</ele>
        <time>2011-09-25T10:35:49Z</time>
      </trkpt>
      <trkpt lat="49.00973" lon="1.13329">
        <ele>133</ele>
        <time>2011-09-25T10:35:50Z</time>
      </trkpt>
      <trkpt lat="49.00969" lon="1.13334">
        <ele>133</ele>
        <time>2011-09-25T10:35:51Z</time>
      </trkpt>
      <trkpt lat="49.00965" lon="1.13339">
        <ele>133</ele>
        <time>2011-09-25T10:35:52Z</time>
      </trkpt>
      <trkpt lat="49.00961" lon="1.13345">
        <ele>133</ele>
        <time>2011-09-25T10:35:53Z</time>
      </trkpt>
      <trkpt lat="49.00957" lon="1.13349">
        <ele>133</ele>
        <time>2011-09-25T10:35:54Z</time>
      </trkpt>
      <trkpt lat="49.00953" lon="1.13354">
        <ele>134</ele>
        <time>2011-09-25T10:35:55Z</time>
      </trkpt>
      <trkpt lat="49.0095" lon="1.1336">
        <ele>134</ele>
        <time>2011-09-25T10:35:56Z</time>
      </trkpt>
      <trkpt lat="49.00946" lon="1.13366">
        <ele>134</ele>
        <time>2011-09-25T10:35:57Z</time>
      </trkpt>
      <trkpt lat="49.00943" lon="1.13372">
        <ele>133</ele>
        <time>2011-09-25T10:35:58Z</time>
      </trkpt>
      <trkpt lat="49.00939" lon="1.13377">
        <ele>134</ele>
        <time>2011-09-25T10:35:59Z</time>
      </trkpt>
      <trkpt lat="49.00935" lon="1.13383">
        <ele>134</ele>
        <time>2011-09-25T10:36:00Z</time>
      </trkpt>
      <trkpt lat="49.00931" lon="1.13388">
        <ele>134</ele>
        <time>2011-09-25T10:36:01Z</time>
      </trkpt>
      <trkpt lat="49.00927" lon="1.13394">
        <ele>134</ele>
        <time>2011-09-25T10:36:02Z</time>
      </trkpt>
      <trkpt lat="49.00923" lon="1.134">
        <ele>134</ele>
        <time>2011-09-25T10:36:03Z</time>
      </trkpt>
      <trkpt lat="49.00918" lon="1.13405">
        <ele>134</ele>
        <time>2011-09-25T10:36:04Z</time>
      </trkpt>
      <trkpt lat="49.00914" lon="1.1341">
        <ele>134</ele>
        <time>2011-09-25T10:36:05Z</time>
      </trkpt>
      <trkpt lat="49.00909" lon="1.13415">
        <ele>134</ele>
        <time>2011-09-25T10:36:06Z</time>
      </trkpt>
      <trkpt lat="49.00905" lon="1.1342">
        <ele>135</ele>
        <time>2011-09-25T10:36:07Z</time>
      </trkpt>
      <trkpt lat="49.009" lon="1.13424">
        <ele>135</ele>
        <time>2011-09-25T10:36:08Z</time>
      </trkpt>
      <trkpt lat="49.00895" lon="1.13426">
        <ele>135</ele>
        <time>2011-09-25T10:36:09Z</time>
      </trkpt>
      <trkpt lat="49.00889" lon="1.1343">
        <ele>135</ele>
        <time>2011-09-25T10:36:10Z</time>
      </trkpt>
      <trkpt lat="49.00884" lon="1.13433">
        <ele>135</ele>
        <time>2011-09-25T10:36:11Z</time>
      </trkpt>
      <trkpt lat="49.00879" lon="1.13436">
        <ele>135</ele>
        <time>2011-09-25T10:36:12Z</time>
      </trkpt>
      <trkpt lat="49.00874" lon="1.13439">
        <ele>135</ele>
        <time>2011-09-25T10:36:13Z</time>
      </trkpt>
      <trkpt lat="49.00868" lon="1.13443">
        <ele>135</ele>
        <time>2011-09-25T10:36:14Z</time>
      </trkpt>
      <trkpt lat="49.00863" lon="1.13446">
        <ele>135</ele>
        <time>2011-09-25T10:36:15Z</time>
      </trkpt>
      <trkpt lat="49.00858" lon="1.13448">
        <ele>136</ele>
        <time>2011-09-25T10:36:16Z</time>
      </trkpt>
      <trkpt lat="49.00853" lon="1.13451">
        <ele>136</ele>
        <time>2011-09-25T10:36:17Z</time>
      </trkpt>
      <trkpt lat="49.00848" lon="1.13454">
        <ele>136</ele>
        <time>2011-09-25T10:36:18Z</time>
      </trkpt>
      <trkpt lat="49.00843" lon="1.13458">
        <ele>136</ele>
        <time>2011-09-25T10:36:19Z</time>
      </trkpt>
      <trkpt lat="49.00838" lon="1.13461">
        <ele>136</ele>
        <time>2011-09-25T10:36:20Z</time>
      </trkpt>
      <trkpt lat="49.00832" lon="1.13464">
        <ele>136</ele>
        <time>2011-09-25T10:36:21Z</time>
      </trkpt>
      <trkpt lat="49.00827" lon="1.13468">
        <ele>136</ele>
        <time>2011-09-25T10:36:22Z</time>
      </trkpt>
      <trkpt lat="49.00822" lon="1.13471">
        <ele>136</ele>
        <time>2011-09-25T10:36:23Z</time>
      </trkpt>
      <trkpt lat="49.00818" lon="1.13474">
        <ele>136</ele>
        <time>2011-09-25T10:36:24Z</time>
      </trkpt>
      <trkpt lat="49.00813" lon="1.13477">
        <ele>136</ele>
        <time>2011-09-25T10:36:25Z</time>
      </trkpt>
      <trkpt lat="49.00808" lon="1.1348">
        <ele>136</ele>
        <time>2011-09-25T10:36:26Z</time>
      </trkpt>
      <trkpt lat="49.00803" lon="1.13482">
        <ele>136</ele>
        <time>2011-09-25T10:36:27Z</time>
      </trkpt>
      <trkpt lat="49.00798" lon="1.13485">
        <ele>136</ele>
        <time>2011-09-25T10:36:28Z</time>
      </trkpt>
      <trkpt lat="49.00792" lon="1.13487">
        <ele>136</ele>
        <time>2011-09-25T10:36:29Z</time>
      </trkpt>
      <trkpt lat="49.00787" lon="1.1349">
        <ele>136</ele>
        <time>2011-09-25T10:36:30Z</time>
      </trkpt>
      <trkpt lat="49.00782" lon="1.13492">
        <ele>136</ele>
        <time>2011-09-25T10:36:31Z</time>
      </trkpt>
      <trkpt lat="49.00777" lon="1.13496">
        <ele>136</ele>
        <time>2011-09-25T10:36:32Z</time>
      </trkpt>
      <trkpt lat="49.00772" lon="1.13499">
        <ele>136</ele>
        <time>2011-09-25T10:36:33Z</time>
      </trkpt>
      <trkpt lat="49.00767" lon="1.13502">
        <ele>135</ele>
        <time>2011-09-25T10:36:34Z</time>
      </trkpt>
      <trkpt lat="49.00762" lon="1.13504">
        <ele>135</ele>
        <time>2011-09-25T10:36:35Z</time>
      </trkpt>
      <trkpt lat="49.00756" lon="1.13508">
        <ele>135</ele>
        <time>2011-09-25T10:36:36Z</time>
      </trkpt>
      <trkpt lat="49.0075" lon="1.13511">
        <ele>135</ele>
        <time>2011-09-25T10:36:37Z</time>
      </trkpt>
      <trkpt lat="49.00745" lon="1.13514">
        <ele>135</ele>
        <time>2011-09-25T10:36:38Z</time>
      </trkpt>
      <trkpt lat="49.00738" lon="1.13518">
        <ele>135</ele>
        <time>2011-09-25T10:36:39Z</time>
      </trkpt>
      <trkpt lat="49.00732" lon="1.13521">
        <ele>135</ele>
        <time>2011-09-25T10:36:40Z</time>
      </trkpt>
      <trkpt lat="49.00726" lon="1.13526">
        <ele>135</ele>
        <time>2011-09-25T10:36:41Z</time>
      </trkpt>
      <trkpt lat="49.00719" lon="1.1353">
        <ele>135</ele>
        <time>2011-09-25T10:36:42Z</time>
      </trkpt>
      <trkpt lat="49.00712" lon="1.13534">
        <ele>135</ele>
        <time>2011-09-25T10:36:43Z</time>
      </trkpt>
      <trkpt lat="49.00706" lon="1.13538">
        <ele>135</ele>
        <time>2011-09-25T10:36:44Z</time>
      </trkpt>
      <trkpt lat="49.007" lon="1.13542">
        <ele>134</ele>
        <time>2011-09-25T10:36:45Z</time>
      </trkpt>
      <trkpt lat="49.00695" lon="1.13545">
        <ele>134</ele>
        <time>2011-09-25T10:36:46Z</time>
      </trkpt>
      <trkpt lat="49.0069" lon="1.13548">
        <ele>134</ele>
        <time>2011-09-25T10:36:47Z</time>
      </trkpt>
      <trkpt lat="49.00685" lon="1.13552">
        <ele>134</ele>
        <time>2011-09-25T10:36:48Z</time>
      </trkpt>
      <trkpt lat="49.00679" lon="1.13555">
        <ele>134</ele>
        <time>2011-09-25T10:36:49Z</time>
      </trkpt>
      <trkpt lat="49.00673" lon="1.13558">
        <ele>134</ele>
        <time>2011-09-25T10:36:50Z</time>
      </trkpt>
      <trkpt lat="49.00667" lon="1.13561">
        <ele>134</ele>
        <time>2011-09-25T10:36:51Z</time>
      </trkpt>
      <trkpt lat="49.00661" lon="1.13565">
        <ele>134</ele>
        <time>2011-09-25T10:36:52Z</time>
      </trkpt>
      <trkpt lat="49.00656" lon="1.13568">
        <ele>134</ele>
        <time>2011-09-25T10:36:53Z</time>
      </trkpt>
      <trkpt lat="49.0065" lon="1.13571">
        <ele>134</ele>
        <time>2011-09-25T10:36:54Z</time>
      </trkpt>
      <trkpt lat="49.00644" lon="1.13574">
        <ele>134</ele>
        <time>2011-09-25T10:36:55Z</time>
      </trkpt>
      <trkpt lat="49.00639" lon="1.13578">
        <ele>134</ele>
        <time>2011-09-25T10:36:56Z</time>
      </trkpt>
      <trkpt lat="49.00633" lon="1.13581">
        <ele>133</ele>
        <time>2011-09-25T10:36:57Z</time>
      </trkpt>
      <trkpt lat="49.00627" lon="1.13583">
        <ele>133</ele>
        <time>2011-09-25T10:36:58Z</time>
      </trkpt>
      <trkpt lat="49.00616" lon="1.13586">
        <ele>132</ele>
        <time>2011-09-25T10:37:00Z</time>
      </trkpt>
      <trkpt lat="49.0061" lon="1.13588">
        <ele>132</ele>
        <time>2011-09-25T10:37:01Z</time>
      </trkpt>
      <trkpt lat="49.00604" lon="1.1359">
        <ele>132</ele>
        <time>2011-09-25T10:37:02Z</time>
      </trkpt>
      <trkpt lat="49.00598" lon="1.13591">
        <ele>132</ele>
        <time>2011-09-25T10:37:03Z</time>
      </trkpt>
      <trkpt lat="49.00592" lon="1.13594">
        <ele>132</ele>
        <time>2011-09-25T10:37:04Z</time>
      </trkpt>
      <trkpt lat="49.00587" lon="1.13597">
        <ele>132</ele>
        <time>2011-09-25T10:37:05Z</time>
      </trkpt>
      <trkpt lat="49.00582" lon="1.13601">
        <ele>132</ele>
        <time>2011-09-25T10:37:06Z</time>
      </trkpt>
      <trkpt lat="49.00576" lon="1.13605">
        <ele>132</ele>
        <time>2011-09-25T10:37:07Z</time>
      </trkpt>
      <trkpt lat="49.00571" lon="1.13607">
        <ele>132</ele>
        <time>2011-09-25T10:37:08Z</time>
      </trkpt>
      <trkpt lat="49.00564" lon="1.13611">
        <ele>133</ele>
        <time>2011-09-25T10:37:09Z</time>
      </trkpt>
      <trkpt lat="49.00558" lon="1.13615">
        <ele>133</ele>
        <time>2011-09-25T10:37:10Z</time>
      </trkpt>
      <trkpt lat="49.00552" lon="1.13618">
        <ele>133</ele>
        <time>2011-09-25T10:37:11Z</time>
      </trkpt>
      <trkpt lat="49.00546" lon="1.13621">
        <ele>133</ele>
        <time>2011-09-25T10:37:12Z</time>
      </trkpt>
      <trkpt lat="49.00541" lon="1.13624">
        <ele>133</ele>
        <time>2011-09-25T10:37:13Z</time>
      </trkpt>
      <trkpt lat="49.00537" lon="1.13627">
        <ele>133</ele>
        <time>2011-09-25T10:37:14Z</time>
      </trkpt>
      <trkpt lat="49.00532" lon="1.13631">
        <ele>133</ele>
        <time>2011-09-25T10:37:15Z</time>
      </trkpt>
      <trkpt lat="49.00528" lon="1.13634">
        <ele>133</ele>
        <time>2011-09-25T10:37:16Z</time>
      </trkpt>
      <trkpt lat="49.00523" lon="1.13639">
        <ele>133</ele>
        <time>2011-09-25T10:37:17Z</time>
      </trkpt>
      <trkpt lat="49.00518" lon="1.13641">
        <ele>133</ele>
        <time>2011-09-25T10:37:18Z</time>
      </trkpt>
      <trkpt lat="49.00513" lon="1.13644">
        <ele>133</ele>
        <time>2011-09-25T10:37:19Z</time>
      </trkpt>
      <trkpt lat="49.00508" lon="1.13647">
        <ele>133</ele>
        <time>2011-09-25T10:37:20Z</time>
      </trkpt>
      <trkpt lat="49.00504" lon="1.1365">
        <ele>133</ele>
        <time>2011-09-25T10:37:21Z</time>
      </trkpt>
      <trkpt lat="49.00499" lon="1.13653">
        <ele>133</ele>
        <time>2011-09-25T10:37:22Z</time>
      </trkpt>
      <trkpt lat="49.00494" lon="1.13656">
        <ele>133</ele>
        <time>2011-09-25T10:37:23Z</time>
      </trkpt>
      <trkpt lat="49.00489" lon="1.1366">
        <ele>133</ele>
        <time>2011-09-25T10:37:24Z</time>
      </trkpt>
      <trkpt lat="49.00484" lon="1.13664">
        <ele>133</ele>
        <time>2011-09-25T10:37:25Z</time>
      </trkpt>
      <trkpt lat="49.0048" lon="1.13667">
        <ele>133</ele>
        <time>2011-09-25T10:37:26Z</time>
      </trkpt>
      <trkpt lat="49.00476" lon="1.1367">
        <ele>133</ele>
        <time>2011-09-25T10:37:27Z</time>
      </trkpt>
      <trkpt lat="49.00471" lon="1.13672">
        <ele>133</ele>
        <time>2011-09-25T10:37:28Z</time>
      </trkpt>
      <trkpt lat="49.00467" lon="1.13674">
        <ele>133</ele>
        <time>2011-09-25T10:37:29Z</time>
      </trkpt>
      <trkpt lat="49.00459" lon="1.13671">
        <ele>133</ele>
        <time>2011-09-25T10:37:31Z</time>
      </trkpt>
      <trkpt lat="49.00455" lon="1.13668">
        <ele>133</ele>
        <time>2011-09-25T10:37:32Z</time>
      </trkpt>
      <trkpt lat="49.0045" lon="1.13658">
        <ele>133</ele>
        <time>2011-09-25T10:37:34Z</time>
      </trkpt>
      <trkpt lat="49.00448" lon="1.13646">
        <ele>134</ele>
        <time>2011-09-25T10:37:36Z</time>
      </trkpt>
      <trkpt lat="49.00445" lon="1.13636">
        <ele>134</ele>
        <time>2011-09-25T10:37:38Z</time>
      </trkpt>
      <trkpt lat="49.0044" lon="1.13625">
        <ele>134</ele>
        <time>2011-09-25T10:37:40Z</time>
      </trkpt>
      <trkpt lat="49.00435" lon="1.13614">
        <ele>134</ele>
        <time>2011-09-25T10:37:42Z</time>
      </trkpt>
      <trkpt lat="49.0043" lon="1.13604">
        <ele>134</ele>
        <time>2011-09-25T10:37:44Z</time>
      </trkpt>
      <trkpt lat="49.00425" lon="1.13593">
        <ele>134</ele>
        <time>2011-09-25T10:37:46Z</time>
      </trkpt>
      <trkpt lat="49.00423" lon="1.13587">
        <ele>135</ele>
        <time>2011-09-25T10:37:47Z</time>
      </trkpt>
      <trkpt lat="49.0042" lon="1.13581">
        <ele>135</ele>
        <time>2011-09-25T10:37:48Z</time>
      </trkpt>
      <trkpt lat="49.00418" lon="1.13575">
        <ele>135</ele>
        <time>2011-09-25T10:37:49Z</time>
      </trkpt>
      <trkpt lat="49.00416" lon="1.13568">
        <ele>136</ele>
        <time>2011-09-25T10:37:50Z</time>
      </trkpt>
      <trkpt lat="49.00415" lon="1.13555">
        <ele>136</ele>
        <time>2011-09-25T10:37:52Z</time>
      </trkpt>
      <trkpt lat="49.00412" lon="1.13542">
        <ele>136</ele>
        <time>2011-09-25T10:37:54Z</time>
      </trkpt>
      <trkpt lat="49.0041" lon="1.13535">
        <ele>136</ele>
        <time>2011-09-25T10:37:55Z</time>
      </trkpt>
      <trkpt lat="49.00408" lon="1.13522">
        <ele>137</ele>
        <time>2011-09-25T10:37:57Z</time>
      </trkpt>
      <trkpt lat="49.00405" lon="1.1351">
        <ele>137</ele>
        <time>2011-09-25T10:37:59Z</time>
      </trkpt>
      <trkpt lat="49.00402" lon="1.13497">
        <ele>138</ele>
        <time>2011-09-25T10:38:01Z</time>
      </trkpt>
      <trkpt lat="49.00398" lon="1.13485">
        <ele>137</ele>
        <time>2011-09-25T10:38:03Z</time>
      </trkpt>
      <trkpt lat="49.00395" lon="1.13472">
        <ele>137</ele>
        <time>2011-09-25T10:38:05Z</time>
      </trkpt>
      <trkpt lat="49.00393" lon="1.1346">
        <ele>137</ele>
        <time>2011-09-25T10:38:07Z</time>
      </trkpt>
      <trkpt lat="49.0039" lon="1.13448">
        <ele>137</ele>
        <time>2011-09-25T10:38:09Z</time>
      </trkpt>
      <trkpt lat="49.00386" lon="1.13435">
        <ele>137</ele>
        <time>2011-09-25T10:38:11Z</time>
      </trkpt>
      <trkpt lat="49.00383" lon="1.13422">
        <ele>137</ele>
        <time>2011-09-25T10:38:13Z</time>
      </trkpt>
      <trkpt lat="49.0038" lon="1.1341">
        <ele>137</ele>
        <time>2011-09-25T10:38:15Z</time>
      </trkpt>
      <trkpt lat="49.00378" lon="1.13397">
        <ele>137</ele>
        <time>2011-09-25T10:38:17Z</time>
      </trkpt>
      <trkpt lat="49.00374" lon="1.13384">
        <ele>137</ele>
        <time>2011-09-25T10:38:19Z</time>
      </trkpt>
      <trkpt lat="49.00372" lon="1.13378">
        <ele>137</ele>
        <time>2011-09-25T10:38:20Z</time>
      </trkpt>
      <trkpt lat="49.0037" lon="1.13372">
        <ele>137</ele>
        <time>2011-09-25T10:38:21Z</time>
      </trkpt>
      <trkpt lat="49.00366" lon="1.13361">
        <ele>137</ele>
        <time>2011-09-25T10:38:23Z</time>
      </trkpt>
      <trkpt lat="49.00364" lon="1.13349">
        <ele>137</ele>
        <time>2011-09-25T10:38:25Z</time>
      </trkpt>
      <trkpt lat="49.0036" lon="1.13337">
        <ele>137</ele>
        <time>2011-09-25T10:38:27Z</time>
      </trkpt>
      <trkpt lat="49.00357" lon="1.13326">
        <ele>137</ele>
        <time>2011-09-25T10:38:29Z</time>
      </trkpt>
      <trkpt lat="49.00355" lon="1.13314">
        <ele>137</ele>
        <time>2011-09-25T10:38:31Z</time>
      </trkpt>
      <trkpt lat="49.00354" lon="1.13301">
        <ele>137</ele>
        <time>2011-09-25T10:38:33Z</time>
      </trkpt>
      <trkpt lat="49.00352" lon="1.13294">
        <ele>137</ele>
        <time>2011-09-25T10:38:34Z</time>
      </trkpt>
      <trkpt lat="49.00351" lon="1.13287">
        <ele>137</ele>
        <time>2011-09-25T10:38:35Z</time>
      </trkpt>
      <trkpt lat="49.0035" lon="1.1328">
        <ele>137</ele>
        <time>2011-09-25T10:38:36Z</time>
      </trkpt>
      <trkpt lat="49.00348" lon="1.13273">
        <ele>137</ele>
        <time>2011-09-25T10:38:37Z</time>
      </trkpt>
      <trkpt lat="49.00346" lon="1.13266">
        <ele>137</ele>
        <time>2011-09-25T10:38:38Z</time>
      </trkpt>
      <trkpt lat="49.00345" lon="1.13258">
        <ele>137</ele>
        <time>2011-09-25T10:38:39Z</time>
      </trkpt>
      <trkpt lat="49.00345" lon="1.13251">
        <ele>137</ele>
        <time>2011-09-25T10:38:40Z</time>
      </trkpt>
      <trkpt lat="49.00345" lon="1.13243">
        <ele>137</ele>
        <time>2011-09-25T10:38:41Z</time>
      </trkpt>
      <trkpt lat="49.00346" lon="1.13235">
        <ele>137</ele>
        <time>2011-09-25T10:38:42Z</time>
      </trkpt>
      <trkpt lat="49.00347" lon="1.13227">
        <ele>137</ele>
        <time>2011-09-25T10:38:43Z</time>
      </trkpt>
      <trkpt lat="49.00348" lon="1.1322">
        <ele>137</ele>
        <time>2011-09-25T10:38:44Z</time>
      </trkpt>
      <trkpt lat="49.00349" lon="1.13212">
        <ele>137</ele>
        <time>2011-09-25T10:38:45Z</time>
      </trkpt>
      <trkpt lat="49.0035" lon="1.13204">
        <ele>138</ele>
        <time>2011-09-25T10:38:46Z</time>
      </trkpt>
      <trkpt lat="49.00351" lon="1.13197">
        <ele>138</ele>
        <time>2011-09-25T10:38:47Z</time>
      </trkpt>
      <trkpt lat="49.00352" lon="1.13189">
        <ele>138</ele>
        <time>2011-09-25T10:38:48Z</time>
      </trkpt>
      <trkpt lat="49.00353" lon="1.13181">
        <ele>138</ele>
        <time>2011-09-25T10:38:49Z</time>
      </trkpt>
      <trkpt lat="49.00354" lon="1.13173">
        <ele>138</ele>
        <time>2011-09-25T10:38:50Z</time>
      </trkpt>
      <trkpt lat="49.00355" lon="1.13165">
        <ele>138</ele>
        <time>2011-09-25T10:38:51Z</time>
      </trkpt>
      <trkpt lat="49.00357" lon="1.13156">
        <ele>138</ele>
        <time>2011-09-25T10:38:52Z</time>
      </trkpt>
      <trkpt lat="49.00358" lon="1.13148">
        <ele>138</ele>
        <time>2011-09-25T10:38:53Z</time>
      </trkpt>
      <trkpt lat="49.00359" lon="1.1314">
        <ele>138</ele>
        <time>2011-09-25T10:38:54Z</time>
      </trkpt>
      <trkpt lat="49.0036" lon="1.13132">
        <ele>138</ele>
        <time>2011-09-25T10:38:55Z</time>
      </trkpt>
      <trkpt lat="49.0036" lon="1.13124">
        <ele>138</ele>
        <time>2011-09-25T10:38:56Z</time>
      </trkpt>
      <trkpt lat="49.00361" lon="1.13115">
        <ele>138</ele>
        <time>2011-09-25T10:38:57Z</time>
      </trkpt>
      <trkpt lat="49.00362" lon="1.13107">
        <ele>138</ele>
        <time>2011-09-25T10:38:58Z</time>
      </trkpt>
      <trkpt lat="49.00363" lon="1.13099">
        <ele>138</ele>
        <time>2011-09-25T10:38:59Z</time>
      </trkpt>
      <trkpt lat="49.00365" lon="1.13091">
        <ele>138</ele>
        <time>2011-09-25T10:39:00Z</time>
      </trkpt>
      <trkpt lat="49.00366" lon="1.13084">
        <ele>138</ele>
        <time>2011-09-25T10:39:01Z</time>
      </trkpt>
      <trkpt lat="49.00367" lon="1.13076">
        <ele>137</ele>
        <time>2011-09-25T10:39:02Z</time>
      </trkpt>
      <trkpt lat="49.00367" lon="1.13068">
        <ele>137</ele>
        <time>2011-09-25T10:39:03Z</time>
      </trkpt>
      <trkpt lat="49.00368" lon="1.13061">
        <ele>137</ele>
        <time>2011-09-25T10:39:04Z</time>
      </trkpt>
      <trkpt lat="49.00368" lon="1.13053">
        <ele>137</ele>
        <time>2011-09-25T10:39:05Z</time>
      </trkpt>
      <trkpt lat="49.00369" lon="1.13045">
        <ele>137</ele>
        <time>2011-09-25T10:39:06Z</time>
      </trkpt>
      <trkpt lat="49.0037" lon="1.13036">
        <ele>137</ele>
        <time>2011-09-25T10:39:07Z</time>
      </trkpt>
      <trkpt lat="49.00371" lon="1.13028">
        <ele>137</ele>
        <time>2011-09-25T10:39:08Z</time>
      </trkpt>
      <trkpt lat="49.00372" lon="1.13021">
        <ele>137</ele>
        <time>2011-09-25T10:39:09Z</time>
      </trkpt>
      <trkpt lat="49.00373" lon="1.13013">
        <ele>137</ele>
        <time>2011-09-25T10:39:10Z</time>
      </trkpt>
      <trkpt lat="49.00374" lon="1.13005">
        <ele>137</ele>
        <time>2011-09-25T10:39:11Z</time>
      </trkpt>
      <trkpt lat="49.00375" lon="1.12997">
        <ele>137</ele>
        <time>2011-09-25T10:39:12Z</time>
      </trkpt>
      <trkpt lat="49.00376" lon="1.12989">
        <ele>137</ele>
        <time>2011-09-25T10:39:13Z</time>
      </trkpt>
      <trkpt lat="49.00376" lon="1.1298">
        <ele>137</ele>
        <time>2011-09-25T10:39:14Z</time>
      </trkpt>
      <trkpt lat="49.00378" lon="1.12972">
        <ele>137</ele>
        <time>2011-09-25T10:39:15Z</time>
      </trkpt>
      <trkpt lat="49.0038" lon="1.12963">
        <ele>137</ele>
        <time>2011-09-25T10:39:16Z</time>
      </trkpt>
      <trkpt lat="49.00382" lon="1.12955">
        <ele>137</ele>
        <time>2011-09-25T10:39:17Z</time>
      </trkpt>
      <trkpt lat="49.00384" lon="1.12946">
        <ele>137</ele>
        <time>2011-09-25T10:39:18Z</time>
      </trkpt>
      <trkpt lat="49.00386" lon="1.12938">
        <ele>137</ele>
        <time>2011-09-25T10:39:19Z</time>
      </trkpt>
      <trkpt lat="49.00387" lon="1.12929">
        <ele>137</ele>
        <time>2011-09-25T10:39:20Z</time>
      </trkpt>
      <trkpt lat="49.00389" lon="1.12921">
        <ele>137</ele>
        <time>2011-09-25T10:39:21Z</time>
      </trkpt>
      <trkpt lat="49.0039" lon="1.12913">
        <ele>137</ele>
        <time>2011-09-25T10:39:22Z</time>
      </trkpt>
      <trkpt lat="49.00391" lon="1.12904">
        <ele>137</ele>
        <time>2011-09-25T10:39:23Z</time>
      </trkpt>
      <trkpt lat="49.00392" lon="1.12896">
        <ele>137</ele>
        <time>2011-09-25T10:39:24Z</time>
      </trkpt>
      <trkpt lat="49.00393" lon="1.12887">
        <ele>137</ele>
        <time>2011-09-25T10:39:25Z</time>
      </trkpt>
      <trkpt lat="49.00393" lon="1.12878">
        <ele>137</ele>
        <time>2011-09-25T10:39:26Z</time>
      </trkpt>
      <trkpt lat="49.00393" lon="1.1287">
        <ele>137</ele>
        <time>2011-09-25T10:39:27Z</time>
      </trkpt>
      <trkpt lat="49.00394" lon="1.12861">
        <ele>137</ele>
        <time>2011-09-25T10:39:28Z</time>
      </trkpt>
      <trkpt lat="49.00394" lon="1.12853">
        <ele>137</ele>
        <time>2011-09-25T10:39:29Z</time>
      </trkpt>
      <trkpt lat="49.00396" lon="1.12844">
        <ele>136</ele>
        <time>2011-09-25T10:39:30Z</time>
      </trkpt>
      <trkpt lat="49.00396" lon="1.12835">
        <ele>136</ele>
        <time>2011-09-25T10:39:31Z</time>
      </trkpt>
      <trkpt lat="49.00396" lon="1.12827">
        <ele>136</ele>
        <time>2011-09-25T10:39:32Z</time>
      </trkpt>
      <trkpt lat="49.00396" lon="1.12818">
        <ele>136</ele>
        <time>2011-09-25T10:39:33Z</time>
      </trkpt>
      <trkpt lat="49.00397" lon="1.12809">
        <ele>136</ele>
        <time>2011-09-25T10:39:34Z</time>
      </trkpt>
      <trkpt lat="49.00398" lon="1.12801">
        <ele>136</ele>
        <time>2011-09-25T10:39:35Z</time>
      </trkpt>
      <trkpt lat="49.00399" lon="1.12793">
        <ele>136</ele>
        <time>2011-09-25T10:39:36Z</time>
      </trkpt>
      <trkpt lat="49.004" lon="1.12784">
        <ele>136</ele>
        <time>2011-09-25T10:39:37Z</time>
      </trkpt>
      <trkpt lat="49.00401" lon="1.12774">
        <ele>136</ele>
        <time>2011-09-25T10:39:38Z</time>
      </trkpt>
      <trkpt lat="49.00402" lon="1.12766">
        <ele>136</ele>
        <time>2011-09-25T10:39:39Z</time>
      </trkpt>
      <trkpt lat="49.00402" lon="1.12756">
        <ele>136</ele>
        <time>2011-09-25T10:39:40Z</time>
      </trkpt>
      <trkpt lat="49.00402" lon="1.12747">
        <ele>135</ele>
        <time>2011-09-25T10:39:41Z</time>
      </trkpt>
      <trkpt lat="49.00402" lon="1.12738">
        <ele>135</ele>
        <time>2011-09-25T10:39:42Z</time>
      </trkpt>
      <trkpt lat="49.00402" lon="1.12729">
        <ele>135</ele>
        <time>2011-09-25T10:39:43Z</time>
      </trkpt>
      <trkpt lat="49.00403" lon="1.1272">
        <ele>136</ele>
        <time>2011-09-25T10:39:44Z</time>
      </trkpt>
      <trkpt lat="49.00402" lon="1.1271">
        <ele>136</ele>
        <time>2011-09-25T10:39:45Z</time>
      </trkpt>
      <trkpt lat="49.00402" lon="1.12701">
        <ele>136</ele>
        <time>2011-09-25T10:39:46Z</time>
      </trkpt>
      <trkpt lat="49.00403" lon="1.12692">
        <ele>135</ele>
        <time>2011-09-25T10:39:47Z</time>
      </trkpt>
      <trkpt lat="49.00403" lon="1.12683">
        <ele>135</ele>
        <time>2011-09-25T10:39:48Z</time>
      </trkpt>
      <trkpt lat="49.00404" lon="1.12675">
        <ele>135</ele>
        <time>2011-09-25T10:39:49Z</time>
      </trkpt>
      <trkpt lat="49.00402" lon="1.12664">
        <ele>135</ele>
        <time>2011-09-25T10:39:51Z</time>
      </trkpt>
      <trkpt lat="49.00396" lon="1.12661">
        <ele>135</ele>
        <time>2011-09-25T10:39:53Z</time>
      </trkpt>
      <trkpt lat="49.00391" lon="1.12663">
        <ele>135</ele>
        <time>2011-09-25T10:39:55Z</time>
      </trkpt>
      <trkpt lat="49.00384" lon="1.12665">
        <ele>135</ele>
        <time>2011-09-25T10:39:57Z</time>
      </trkpt>
      <trkpt lat="49.00376" lon="1.1266">
        <ele>135</ele>
        <time>2011-09-25T10:39:59Z</time>
      </trkpt>
      <trkpt lat="49.00369" lon="1.12654">
        <ele>135</ele>
        <time>2011-09-25T10:40:01Z</time>
      </trkpt>
      <trkpt lat="49.00362" lon="1.1265">
        <ele>135</ele>
        <time>2011-09-25T10:40:03Z</time>
      </trkpt>
      <trkpt lat="49.00355" lon="1.1265">
        <ele>136</ele>
        <time>2011-09-25T10:40:05Z</time>
      </trkpt>
      <trkpt lat="49.0035" lon="1.1265">
        <ele>136</ele>
        <time>2011-09-25T10:40:07Z</time>
      </trkpt>
      <trkpt lat="49.00343" lon="1.1265">
        <ele>136</ele>
        <time>2011-09-25T10:40:09Z</time>
      </trkpt>
      <trkpt lat="49.00337" lon="1.12652">
        <ele>136</ele>
        <time>2011-09-25T10:40:11Z</time>
      </trkpt>
      <trkpt lat="49.00329" lon="1.12652">
        <ele>136</ele>
        <time>2011-09-25T10:40:13Z</time>
      </trkpt>
      <trkpt lat="49.00322" lon="1.1265">
        <ele>136</ele>
        <time>2011-09-25T10:40:15Z</time>
      </trkpt>
      <trkpt lat="49.00318" lon="1.12645">
        <ele>136</ele>
        <time>2011-09-25T10:40:17Z</time>
      </trkpt>
      <trkpt lat="49.00314" lon="1.12638">
        <ele>136</ele>
        <time>2011-09-25T10:40:19Z</time>
      </trkpt>
      <trkpt lat="49.00309" lon="1.12632">
        <ele>136</ele>
        <time>2011-09-25T10:40:21Z</time>
      </trkpt>
      <trkpt lat="49.00304" lon="1.12626">
        <ele>136</ele>
        <time>2011-09-25T10:40:23Z</time>
      </trkpt>
      <trkpt lat="49.00299" lon="1.12619">
        <ele>136</ele>
        <time>2011-09-25T10:40:25Z</time>
      </trkpt>
      <trkpt lat="49.00294" lon="1.12614">
        <ele>136</ele>
        <time>2011-09-25T10:40:27Z</time>
      </trkpt>
      <trkpt lat="49.00288" lon="1.12613">
        <ele>136</ele>
        <time>2011-09-25T10:40:29Z</time>
      </trkpt>
      <trkpt lat="49.00282" lon="1.12614">
        <ele>136</ele>
        <time>2011-09-25T10:40:31Z</time>
      </trkpt>
      <trkpt lat="49.00278" lon="1.1261">
        <ele>136</ele>
        <time>2011-09-25T10:40:33Z</time>
      </trkpt>
      <trkpt lat="49.00275" lon="1.12603">
        <ele>136</ele>
        <time>2011-09-25T10:40:35Z</time>
      </trkpt>
      <trkpt lat="49.00271" lon="1.12595">
        <ele>136</ele>
        <time>2011-09-25T10:40:37Z</time>
      </trkpt>
      <trkpt lat="49.00265" lon="1.12586">
        <ele>136</ele>
        <time>2011-09-25T10:40:39Z</time>
      </trkpt>
      <trkpt lat="49.00259" lon="1.12578">
        <ele>136</ele>
        <time>2011-09-25T10:40:41Z</time>
      </trkpt>
      <trkpt lat="49.00252" lon="1.12573">
        <ele>136</ele>
        <time>2011-09-25T10:40:43Z</time>
      </trkpt>
      <trkpt lat="49.00246" lon="1.1257">
        <ele>135</ele>
        <time>2011-09-25T10:40:45Z</time>
      </trkpt>
      <trkpt lat="49.00242" lon="1.12566">
        <ele>135</ele>
        <time>2011-09-25T10:40:47Z</time>
      </trkpt>
      <trkpt lat="49.00237" lon="1.1256">
        <ele>135</ele>
        <time>2011-09-25T10:40:49Z</time>
      </trkpt>
      <trkpt lat="49.00231" lon="1.12556">
        <ele>134</ele>
        <time>2011-09-25T10:40:51Z</time>
      </trkpt>
      <trkpt lat="49.00226" lon="1.12557">
        <ele>134</ele>
        <time>2011-09-25T10:40:53Z</time>
      </trkpt>
      <trkpt lat="49.0022" lon="1.12558">
        <ele>134</ele>
        <time>2011-09-25T10:40:55Z</time>
      </trkpt>
      <trkpt lat="49.00213" lon="1.12556">
        <ele>134</ele>
        <time>2011-09-25T10:40:57Z</time>
      </trkpt>
      <trkpt lat="49.00206" lon="1.12553">
        <ele>134</ele>
        <time>2011-09-25T10:40:59Z</time>
      </trkpt>
      <trkpt lat="49.002" lon="1.12555">
        <ele>134</ele>
        <time>2011-09-25T10:41:01Z</time>
      </trkpt>
      <trkpt lat="49.00195" lon="1.12552">
        <ele>133</ele>
        <time>2011-09-25T10:41:03Z</time>
      </trkpt>
      <trkpt lat="49.00191" lon="1.12546">
        <ele>133</ele>
        <time>2011-09-25T10:41:05Z</time>
      </trkpt>
      <trkpt lat="49.00185" lon="1.12539">
        <ele>133</ele>
        <time>2011-09-25T10:41:07Z</time>
      </trkpt>
      <trkpt lat="49.00183" lon="1.12529">
        <ele>133</ele>
        <time>2011-09-25T10:41:09Z</time>
      </trkpt>
      <trkpt lat="49.0018" lon="1.12518">
        <ele>133</ele>
        <time>2011-09-25T10:41:11Z</time>
      </trkpt>
      <trkpt lat="49.00178" lon="1.12507">
        <ele>132</ele>
        <time>2011-09-25T10:41:13Z</time>
      </trkpt>
      <trkpt lat="49.00176" lon="1.12497">
        <ele>132</ele>
        <time>2011-09-25T10:41:15Z</time>
      </trkpt>
      <trkpt lat="49.00175" lon="1.12485">
        <ele>132</ele>
        <time>2011-09-25T10:41:17Z</time>
      </trkpt>
      <trkpt lat="49.00172" lon="1.12475">
        <ele>132</ele>
        <time>2011-09-25T10:41:19Z</time>
      </trkpt>
      <trkpt lat="49.00173" lon="1.12464">
        <ele>132</ele>
        <time>2011-09-25T10:41:21Z</time>
      </trkpt>
      <trkpt lat="49.00174" lon="1.12453">
        <ele>132</ele>
        <time>2011-09-25T10:41:23Z</time>
      </trkpt>
      <trkpt lat="49.00172" lon="1.12441">
        <ele>132</ele>
        <time>2011-09-25T10:41:25Z</time>
      </trkpt>
      <trkpt lat="49.00172" lon="1.12428">
        <ele>132</ele>
        <time>2011-09-25T10:41:27Z</time>
      </trkpt>
      <trkpt lat="49.00172" lon="1.12414">
        <ele>131</ele>
        <time>2011-09-25T10:41:29Z</time>
      </trkpt>
      <trkpt lat="49.00172" lon="1.12401">
        <ele>131</ele>
        <time>2011-09-25T10:41:31Z</time>
      </trkpt>
      <trkpt lat="49.00172" lon="1.12388">
        <ele>131</ele>
        <time>2011-09-25T10:41:33Z</time>
      </trkpt>
      <trkpt lat="49.00172" lon="1.1238">
        <ele>130</ele>
        <time>2011-09-25T10:41:34Z</time>
      </trkpt>
      <trkpt lat="49.00172" lon="1.12372">
        <ele>130</ele>
        <time>2011-09-25T10:41:35Z</time>
      </trkpt>
      <trkpt lat="49.0017" lon="1.12364">
        <ele>130</ele>
        <time>2011-09-25T10:41:36Z</time>
      </trkpt>
      <trkpt lat="49.0017" lon="1.12356">
        <ele>129</ele>
        <time>2011-09-25T10:41:37Z</time>
      </trkpt>
      <trkpt lat="49.00169" lon="1.12348">
        <ele>129</ele>
        <time>2011-09-25T10:41:38Z</time>
      </trkpt>
      <trkpt lat="49.00169" lon="1.12341">
        <ele>128</ele>
        <time>2011-09-25T10:41:39Z</time>
      </trkpt>
      <trkpt lat="49.00169" lon="1.12332">
        <ele>127</ele>
        <time>2011-09-25T10:41:41Z</time>
      </trkpt>
      <trkpt lat="49.00167" lon="1.12324">
        <ele>126</ele>
        <time>2011-09-25T10:41:43Z</time>
      </trkpt>
      <trkpt lat="49.00167" lon="1.12314">
        <ele>126</ele>
        <time>2011-09-25T10:41:45Z</time>
      </trkpt>
      <trkpt lat="49.00169" lon="1.12305">
        <ele>126</ele>
        <time>2011-09-25T10:41:47Z</time>
      </trkpt>
      <trkpt lat="49.00174" lon="1.12298">
        <ele>125</ele>
        <time>2011-09-25T10:41:49Z</time>
      </trkpt>
      <trkpt lat="49.00179" lon="1.1229">
        <ele>125</ele>
        <time>2011-09-25T10:41:51Z</time>
      </trkpt>
      <trkpt lat="49.00182" lon="1.1228">
        <ele>124</ele>
        <time>2011-09-25T10:41:53Z</time>
      </trkpt>
      <trkpt lat="49.00182" lon="1.12273">
        <ele>124</ele>
        <time>2011-09-25T10:41:54Z</time>
      </trkpt>
      <trkpt lat="49.00183" lon="1.1226">
        <ele>123</ele>
        <time>2011-09-25T10:41:56Z</time>
      </trkpt>
      <trkpt lat="49.00184" lon="1.12249">
        <ele>120</ele>
        <time>2011-09-25T10:41:58Z</time>
      </trkpt>
      <trkpt lat="49.00187" lon="1.12241">
        <ele>120</ele>
        <time>2011-09-25T10:42:00Z</time>
      </trkpt>
      <trkpt lat="49.00193" lon="1.12233">
        <ele>120</ele>
        <time>2011-09-25T10:42:02Z</time>
      </trkpt>
      <trkpt lat="49.00199" lon="1.12222">
        <ele>119</ele>
        <time>2011-09-25T10:42:04Z</time>
      </trkpt>
      <trkpt lat="49.00202" lon="1.12217">
        <ele>119</ele>
        <time>2011-09-25T10:42:05Z</time>
      </trkpt>
      <trkpt lat="49.00206" lon="1.12209">
        <ele>119</ele>
        <time>2011-09-25T10:42:06Z</time>
      </trkpt>
      <trkpt lat="49.00209" lon="1.12202">
        <ele>118</ele>
        <time>2011-09-25T10:42:07Z</time>
      </trkpt>
      <trkpt lat="49.00212" lon="1.12195">
        <ele>118</ele>
        <time>2011-09-25T10:42:08Z</time>
      </trkpt>
      <trkpt lat="49.00216" lon="1.12183">
        <ele>118</ele>
        <time>2011-09-25T10:42:10Z</time>
      </trkpt>
      <trkpt lat="49.00218" lon="1.12172">
        <ele>118</ele>
        <time>2011-09-25T10:42:12Z</time>
      </trkpt>
      <trkpt lat="49.00219" lon="1.12161">
        <ele>113</ele>
        <time>2011-09-25T10:42:14Z</time>
      </trkpt>
      <trkpt lat="49.00218" lon="1.12151">
        <ele>113</ele>
        <time>2011-09-25T10:42:16Z</time>
      </trkpt>
      <trkpt lat="49.00218" lon="1.12142">
        <ele>113</ele>
        <time>2011-09-25T10:42:18Z</time>
      </trkpt>
      <trkpt lat="49.00219" lon="1.12134">
        <ele>112</ele>
        <time>2011-09-25T10:42:20Z</time>
      </trkpt>
      <trkpt lat="49.0022" lon="1.12126">
        <ele>112</ele>
        <time>2011-09-25T10:42:22Z</time>
      </trkpt>
      <trkpt lat="49.00223" lon="1.12119">
        <ele>112</ele>
        <time>2011-09-25T10:42:24Z</time>
      </trkpt>
      <trkpt lat="49.00228" lon="1.12111">
        <ele>111</ele>
        <time>2011-09-25T10:42:26Z</time>
      </trkpt>
      <trkpt lat="49.0023" lon="1.12102">
        <ele>111</ele>
        <time>2011-09-25T10:42:28Z</time>
      </trkpt>
      <trkpt lat="49.00229" lon="1.12091">
        <ele>111</ele>
        <time>2011-09-25T10:42:30Z</time>
      </trkpt>
      <trkpt lat="49.00226" lon="1.12082">
        <ele>108</ele>
        <time>2011-09-25T10:42:32Z</time>
      </trkpt>
      <trkpt lat="49.00219" lon="1.12076">
        <ele>108</ele>
        <time>2011-09-25T10:42:34Z</time>
      </trkpt>
      <trkpt lat="49.00213" lon="1.1207">
        <ele>108</ele>
        <time>2011-09-25T10:42:36Z</time>
      </trkpt>
      <trkpt lat="49.0021" lon="1.12066">
        <ele>108</ele>
        <time>2011-09-25T10:42:40Z</time>
      </trkpt>
      <trkpt lat="49.0021" lon="1.12057">
        <ele>108</ele>
        <time>2011-09-25T10:42:43Z</time>
      </trkpt>
      <trkpt lat="49.00212" lon="1.1205">
        <ele>108</ele>
        <time>2011-09-25T10:42:45Z</time>
      </trkpt>
      <trkpt lat="49.00215" lon="1.12042">
        <ele>108</ele>
        <time>2011-09-25T10:42:47Z</time>
      </trkpt>
      <trkpt lat="49.00218" lon="1.12034">
        <ele>108</ele>
        <time>2011-09-25T10:42:49Z</time>
      </trkpt>
      <trkpt lat="49.0022" lon="1.12026">
        <ele>107</ele>
        <time>2011-09-25T10:42:51Z</time>
      </trkpt>
      <trkpt lat="49.00219" lon="1.12019">
        <ele>107</ele>
        <time>2011-09-25T10:42:53Z</time>
      </trkpt>
      <trkpt lat="49.0022" lon="1.1201">
        <ele>107</ele>
        <time>2011-09-25T10:42:56Z</time>
      </trkpt>
      <trkpt lat="49.0022" lon="1.12002">
        <ele>107</ele>
        <time>2011-09-25T10:42:59Z</time>
      </trkpt>
      <trkpt lat="49.0022" lon="1.11992">
        <ele>107</ele>
        <time>2011-09-25T10:43:02Z</time>
      </trkpt>
      <trkpt lat="49.00218" lon="1.11983">
        <ele>107</ele>
        <time>2011-09-25T10:43:05Z</time>
      </trkpt>
      <trkpt lat="49.00214" lon="1.11978">
        <ele>108</ele>
        <time>2011-09-25T10:43:07Z</time>
      </trkpt>
      <trkpt lat="49.0021" lon="1.1197">
        <ele>108</ele>
        <time>2011-09-25T10:43:10Z</time>
      </trkpt>
      <trkpt lat="49.0021" lon="1.1197">
        <ele>108</ele>
        <time>2011-09-25T10:43:10Z</time>
      </trkpt>
      <trkpt lat="49.0021" lon="1.1197">
        <ele>108</ele>
        <time>2011-09-25T10:43:13Z</time>
      </trkpt>
      <trkpt lat="49.00207" lon="1.11958">
        <ele>108</ele>
        <time>2011-09-25T10:43:14Z</time>
      </trkpt>
      <trkpt lat="49.00207" lon="1.11958">
        <ele>108</ele>
        <time>2011-09-25T10:43:14Z</time>
      </trkpt>
      <trkpt lat="49.00207" lon="1.11958">
        <ele>108</ele>
        <time>2011-09-25T10:43:18Z</time>
      </trkpt>
      <trkpt lat="49.00204" lon="1.11944">
        <ele>109</ele>
        <time>2011-09-25T10:43:19Z</time>
      </trkpt>
      <trkpt lat="49.00199" lon="1.11926">
        <ele>110</ele>
        <time>2011-09-25T10:43:25Z</time>
      </trkpt>
      <trkpt lat="49.00199" lon="1.11926">
        <ele>110</ele>
        <time>2011-09-25T10:43:25Z</time>
      </trkpt>
      <trkpt lat="49.00199" lon="1.11926">
        <ele>110</ele>
        <time>2011-09-25T10:43:28Z</time>
      </trkpt>
      <trkpt lat="49.00197" lon="1.11912">
        <ele>112</ele>
        <time>2011-09-25T10:43:29Z</time>
      </trkpt>
      <trkpt lat="49.00195" lon="1.11903">
        <ele>113</ele>
        <time>2011-09-25T10:43:32Z</time>
      </trkpt>
      <trkpt lat="49.00195" lon="1.11896">
        <ele>113</ele>
        <time>2011-09-25T10:43:34Z</time>
      </trkpt>
      <trkpt lat="49.00194" lon="1.11889">
        <ele>113</ele>
        <time>2011-09-25T10:43:36Z</time>
      </trkpt>
      <trkpt lat="49.00193" lon="1.11882">
        <ele>113</ele>
        <time>2011-09-25T10:43:38Z</time>
      </trkpt>
      <trkpt lat="49.00193" lon="1.11882">
        <ele>113</ele>
        <time>2011-09-25T10:43:38Z</time>
      </trkpt>
      <trkpt lat="49.00193" lon="1.11882">
        <ele>113</ele>
        <time>2011-09-25T10:43:39Z</time>
      </trkpt>
      <trkpt lat="49.00193" lon="1.11875">
        <ele>113</ele>
        <time>2011-09-25T10:43:40Z</time>
      </trkpt>
      <trkpt lat="49.00193" lon="1.11867">
        <ele>114</ele>
        <time>2011-09-25T10:43:42Z</time>
      </trkpt>
      <trkpt lat="49.00193" lon="1.11867">
        <ele>114</ele>
        <time>2011-09-25T10:43:42Z</time>
      </trkpt>
      <trkpt lat="49.00193" lon="1.11867">
        <ele>114</ele>
        <time>2011-09-25T10:43:45Z</time>
      </trkpt>
      <trkpt lat="49.00192" lon="1.1185">
        <ele>115</ele>
        <time>2011-09-25T10:43:46Z</time>
      </trkpt>
      <trkpt lat="49.00192" lon="1.11841">
        <ele>115</ele>
        <time>2011-09-25T10:43:48Z</time>
      </trkpt>
      <trkpt lat="49.00192" lon="1.11831">
        <ele>118</ele>
        <time>2011-09-25T10:43:50Z</time>
      </trkpt>
      <trkpt lat="49.00192" lon="1.1182">
        <ele>118</ele>
        <time>2011-09-25T10:43:52Z</time>
      </trkpt>
      <trkpt lat="49.0019" lon="1.1181">
        <ele>118</ele>
        <time>2011-09-25T10:43:54Z</time>
      </trkpt>
      <trkpt lat="49.00188" lon="1.118">
        <ele>118</ele>
        <time>2011-09-25T10:43:56Z</time>
      </trkpt>
      <trkpt lat="49.00187" lon="1.1179">
        <ele>119</ele>
        <time>2011-09-25T10:43:58Z</time>
      </trkpt>
      <trkpt lat="49.00186" lon="1.1178">
        <ele>119</ele>
        <time>2011-09-25T10:44:00Z</time>
      </trkpt>
      <trkpt lat="49.00184" lon="1.1177">
        <ele>120</ele>
        <time>2011-09-25T10:44:02Z</time>
      </trkpt>
      <trkpt lat="49.00183" lon="1.1176">
        <ele>121</ele>
        <time>2011-09-25T10:44:04Z</time>
      </trkpt>
      <trkpt lat="49.00179" lon="1.11749">
        <ele>124</ele>
        <time>2011-09-25T10:44:06Z</time>
      </trkpt>
      <trkpt lat="49.00174" lon="1.1174">
        <ele>124</ele>
        <time>2011-09-25T10:44:08Z</time>
      </trkpt>
      <trkpt lat="49.0017" lon="1.1173">
        <ele>124</ele>
        <time>2011-09-25T10:44:10Z</time>
      </trkpt>
      <trkpt lat="49.00166" lon="1.1172">
        <ele>127</ele>
        <time>2011-09-25T10:44:12Z</time>
      </trkpt>
      <trkpt lat="49.00164" lon="1.11711">
        <ele>128</ele>
        <time>2011-09-25T10:44:14Z</time>
      </trkpt>
      <trkpt lat="49.00162" lon="1.11701">
        <ele>128</ele>
        <time>2011-09-25T10:44:16Z</time>
      </trkpt>
      <trkpt lat="49.00159" lon="1.11691">
        <ele>128</ele>
        <time>2011-09-25T10:44:18Z</time>
      </trkpt>
      <trkpt lat="49.00157" lon="1.11681">
        <ele>128</ele>
        <time>2011-09-25T10:44:20Z</time>
      </trkpt>
      <trkpt lat="49.00155" lon="1.11671">
        <ele>128</ele>
        <time>2011-09-25T10:44:22Z</time>
      </trkpt>
      <trkpt lat="49.00154" lon="1.1166">
        <ele>129</ele>
        <time>2011-09-25T10:44:24Z</time>
      </trkpt>
      <trkpt lat="49.0015" lon="1.11649">
        <ele>129</ele>
        <time>2011-09-25T10:44:26Z</time>
      </trkpt>
      <trkpt lat="49.00146" lon="1.11638">
        <ele>130</ele>
        <time>2011-09-25T10:44:28Z</time>
      </trkpt>
      <trkpt lat="49.00143" lon="1.11627">
        <ele>130</ele>
        <time>2011-09-25T10:44:30Z</time>
      </trkpt>
      <trkpt lat="49.00143" lon="1.11617">
        <ele>130</ele>
        <time>2011-09-25T10:44:32Z</time>
      </trkpt>
      <trkpt lat="49.0014" lon="1.11607">
        <ele>130</ele>
        <time>2011-09-25T10:44:34Z</time>
      </trkpt>
      <trkpt lat="49.00138" lon="1.11596">
        <ele>130</ele>
        <time>2011-09-25T10:44:36Z</time>
      </trkpt>
      <trkpt lat="49.00135" lon="1.11585">
        <ele>130</ele>
        <time>2011-09-25T10:44:38Z</time>
      </trkpt>
      <trkpt lat="49.00133" lon="1.11574">
        <ele>131</ele>
        <time>2011-09-25T10:44:40Z</time>
      </trkpt>
      <trkpt lat="49.00131" lon="1.11562">
        <ele>131</ele>
        <time>2011-09-25T10:44:42Z</time>
      </trkpt>
      <trkpt lat="49.00129" lon="1.11549">
        <ele>131</ele>
        <time>2011-09-25T10:44:44Z</time>
      </trkpt>
      <trkpt lat="49.00128" lon="1.11536">
        <ele>131</ele>
        <time>2011-09-25T10:44:46Z</time>
      </trkpt>
      <trkpt lat="49.00126" lon="1.11522">
        <ele>131</ele>
        <time>2011-09-25T10:44:48Z</time>
      </trkpt>
      <trkpt lat="49.00123" lon="1.1151">
        <ele>131</ele>
        <time>2011-09-25T10:44:50Z</time>
      </trkpt>
      <trkpt lat="49.0012" lon="1.11499">
        <ele>129</ele>
        <time>2011-09-25T10:44:52Z</time>
      </trkpt>
      <trkpt lat="49.00117" lon="1.1149">
        <ele>129</ele>
        <time>2011-09-25T10:44:54Z</time>
      </trkpt>
      <trkpt lat="49.00112" lon="1.11485">
        <ele>129</ele>
        <time>2011-09-25T10:44:56Z</time>
      </trkpt>
      <trkpt lat="49.00107" lon="1.11484">
        <ele>130</ele>
        <time>2011-09-25T10:44:58Z</time>
      </trkpt>
      <trkpt lat="49.00101" lon="1.11486">
        <ele>130</ele>
        <time>2011-09-25T10:45:00Z</time>
      </trkpt>
      <trkpt lat="49.00094" lon="1.11488">
        <ele>130</ele>
        <time>2011-09-25T10:45:02Z</time>
      </trkpt>
      <trkpt lat="49.00089" lon="1.11489">
        <ele>131</ele>
        <time>2011-09-25T10:45:03Z</time>
      </trkpt>
      <trkpt lat="49.0008" lon="1.11492">
        <ele>132</ele>
        <time>2011-09-25T10:45:05Z</time>
      </trkpt>
      <trkpt lat="49.00072" lon="1.11494">
        <ele>132</ele>
        <time>2011-09-25T10:45:07Z</time>
      </trkpt>
      <trkpt lat="49.00065" lon="1.11497">
        <ele>132</ele>
        <time>2011-09-25T10:45:09Z</time>
      </trkpt>
      <trkpt lat="49.00057" lon="1.115">
        <ele>132</ele>
        <time>2011-09-25T10:45:11Z</time>
      </trkpt>
      <trkpt lat="49.0005" lon="1.11501">
        <ele>133</ele>
        <time>2011-09-25T10:45:13Z</time>
      </trkpt>
      <trkpt lat="49.00043" lon="1.11504">
        <ele>133</ele>
        <time>2011-09-25T10:45:15Z</time>
      </trkpt>
      <trkpt lat="49.00036" lon="1.11506">
        <ele>133</ele>
        <time>2011-09-25T10:45:17Z</time>
      </trkpt>
      <trkpt lat="49.00028" lon="1.11509">
        <ele>133</ele>
        <time>2011-09-25T10:45:19Z</time>
      </trkpt>
      <trkpt lat="49.00021" lon="1.11512">
        <ele>133</ele>
        <time>2011-09-25T10:45:21Z</time>
      </trkpt>
      <trkpt lat="49.00013" lon="1.11514">
        <ele>133</ele>
        <time>2011-09-25T10:45:23Z</time>
      </trkpt>
      <trkpt lat="49.00006" lon="1.11517">
        <ele>133</ele>
        <time>2011-09-25T10:45:25Z</time>
      </trkpt>
      <trkpt lat="48.99998" lon="1.1152">
        <ele>133</ele>
        <time>2011-09-25T10:45:27Z</time>
      </trkpt>
      <trkpt lat="48.99989" lon="1.11523">
        <ele>133</ele>
        <time>2011-09-25T10:45:29Z</time>
      </trkpt>
      <trkpt lat="48.99981" lon="1.11527">
        <ele>133</ele>
        <time>2011-09-25T10:45:31Z</time>
      </trkpt>
      <trkpt lat="48.99974" lon="1.1153">
        <ele>133</ele>
        <time>2011-09-25T10:45:33Z</time>
      </trkpt>
      <trkpt lat="48.99969" lon="1.11535">
        <ele>133</ele>
        <time>2011-09-25T10:45:35Z</time>
      </trkpt>
      <trkpt lat="48.99969" lon="1.11535">
        <ele>133</ele>
        <time>2011-09-25T10:45:35Z</time>
      </trkpt>
      <trkpt lat="48.99969" lon="1.11535">
        <ele>133</ele>
        <time>2011-09-25T10:45:36Z</time>
      </trkpt>
      <trkpt lat="48.99961" lon="1.11535">
        <ele>133</ele>
        <time>2011-09-25T10:45:41Z</time>
      </trkpt>
      <trkpt lat="48.99956" lon="1.11537">
        <ele>133</ele>
        <time>2011-09-25T10:45:43Z</time>
      </trkpt>
      <trkpt lat="48.9995" lon="1.1154">
        <ele>133</ele>
        <time>2011-09-25T10:45:45Z</time>
      </trkpt>
      <trkpt lat="48.99944" lon="1.11543">
        <ele>133</ele>
        <time>2011-09-25T10:45:47Z</time>
      </trkpt>
      <trkpt lat="48.99936" lon="1.11546">
        <ele>133</ele>
        <time>2011-09-25T10:45:49Z</time>
      </trkpt>
      <trkpt lat="48.9993" lon="1.1155">
        <ele>133</ele>
        <time>2011-09-25T10:45:51Z</time>
      </trkpt>
      <trkpt lat="48.99922" lon="1.11553">
        <ele>132</ele>
        <time>2011-09-25T10:45:53Z</time>
      </trkpt>
      <trkpt lat="48.99915" lon="1.11557">
        <ele>132</ele>
        <time>2011-09-25T10:45:55Z</time>
      </trkpt>
      <trkpt lat="48.9991" lon="1.11559">
        <ele>132</ele>
        <time>2011-09-25T10:45:56Z</time>
      </trkpt>
      <trkpt lat="48.99906" lon="1.11561">
        <ele>132</ele>
        <time>2011-09-25T10:45:57Z</time>
      </trkpt>
      <trkpt lat="48.99902" lon="1.11563">
        <ele>132</ele>
        <time>2011-09-25T10:45:58Z</time>
      </trkpt>
      <trkpt lat="48.99894" lon="1.11567">
        <ele>132</ele>
        <time>2011-09-25T10:46:00Z</time>
      </trkpt>
      <trkpt lat="48.99886" lon="1.11571">
        <ele>132</ele>
        <time>2011-09-25T10:46:02Z</time>
      </trkpt>
      <trkpt lat="48.99877" lon="1.11574">
        <ele>132</ele>
        <time>2011-09-25T10:46:04Z</time>
      </trkpt>
      <trkpt lat="48.99869" lon="1.11577">
        <ele>132</ele>
        <time>2011-09-25T10:46:06Z</time>
      </trkpt>
      <trkpt lat="48.9986" lon="1.1158">
        <ele>132</ele>
        <time>2011-09-25T10:46:08Z</time>
      </trkpt>
      <trkpt lat="48.99852" lon="1.11584">
        <ele>132</ele>
        <time>2011-09-25T10:46:10Z</time>
      </trkpt>
      <trkpt lat="48.99847" lon="1.11586">
        <ele>132</ele>
        <time>2011-09-25T10:46:11Z</time>
      </trkpt>
      <trkpt lat="48.9984" lon="1.1159">
        <ele>132</ele>
        <time>2011-09-25T10:46:13Z</time>
      </trkpt>
      <trkpt lat="48.99832" lon="1.11595">
        <ele>132</ele>
        <time>2011-09-25T10:46:15Z</time>
      </trkpt>
      <trkpt lat="48.99823" lon="1.11599">
        <ele>131</ele>
        <time>2011-09-25T10:46:17Z</time>
      </trkpt>
      <trkpt lat="48.99818" lon="1.11601">
        <ele>131</ele>
        <time>2011-09-25T10:46:18Z</time>
      </trkpt>
      <trkpt lat="48.99814" lon="1.11604">
        <ele>131</ele>
        <time>2011-09-25T10:46:19Z</time>
      </trkpt>
      <trkpt lat="48.99809" lon="1.11606">
        <ele>131</ele>
        <time>2011-09-25T10:46:20Z</time>
      </trkpt>
      <trkpt lat="48.99804" lon="1.11608">
        <ele>131</ele>
        <time>2011-09-25T10:46:21Z</time>
      </trkpt>
      <trkpt lat="48.99799" lon="1.1161">
        <ele>131</ele>
        <time>2011-09-25T10:46:22Z</time>
      </trkpt>
      <trkpt lat="48.99787" lon="1.1162">
        <ele>131</ele>
        <time>2011-09-25T10:46:34Z</time>
      </trkpt>
      <trkpt lat="48.99779" lon="1.11624">
        <ele>131</ele>
        <time>2011-09-25T10:46:36Z</time>
      </trkpt>
      <trkpt lat="48.99772" lon="1.11627">
        <ele>131</ele>
        <time>2011-09-25T10:46:38Z</time>
      </trkpt>
      <trkpt lat="48.99765" lon="1.1163">
        <ele>131</ele>
        <time>2011-09-25T10:46:40Z</time>
      </trkpt>
      <trkpt lat="48.99759" lon="1.11634">
        <ele>131</ele>
        <time>2011-09-25T10:46:42Z</time>
      </trkpt>
      <trkpt lat="48.99753" lon="1.11638">
        <ele>131</ele>
        <time>2011-09-25T10:46:44Z</time>
      </trkpt>
      <trkpt lat="48.99749" lon="1.11645">
        <ele>129</ele>
        <time>2011-09-25T10:46:46Z</time>
      </trkpt>
      <trkpt lat="48.99746" lon="1.11654">
        <ele>129</ele>
        <time>2011-09-25T10:46:48Z</time>
      </trkpt>
      <trkpt lat="48.99746" lon="1.11666">
        <ele>130</ele>
        <time>2011-09-25T10:46:50Z</time>
      </trkpt>
      <trkpt lat="48.99747" lon="1.11673">
        <ele>129</ele>
        <time>2011-09-25T10:46:51Z</time>
      </trkpt>
      <trkpt lat="48.99748" lon="1.1168">
        <ele>129</ele>
        <time>2011-09-25T10:46:52Z</time>
      </trkpt>
      <trkpt lat="48.99748" lon="1.11687">
        <ele>129</ele>
        <time>2011-09-25T10:46:53Z</time>
      </trkpt>
      <trkpt lat="48.99749" lon="1.11695">
        <ele>128</ele>
        <time>2011-09-25T10:46:54Z</time>
      </trkpt>
      <trkpt lat="48.9975" lon="1.11704">
        <ele>130</ele>
        <time>2011-09-25T10:46:55Z</time>
      </trkpt>
      <trkpt lat="48.99751" lon="1.11712">
        <ele>130</ele>
        <time>2011-09-25T10:46:56Z</time>
      </trkpt>
      <trkpt lat="48.99752" lon="1.1172">
        <ele>130</ele>
        <time>2011-09-25T10:46:57Z</time>
      </trkpt>
      <trkpt lat="48.99753" lon="1.11728">
        <ele>130</ele>
        <time>2011-09-25T10:46:58Z</time>
      </trkpt>
      <trkpt lat="48.99754" lon="1.11736">
        <ele>130</ele>
        <time>2011-09-25T10:46:59Z</time>
      </trkpt>
      <trkpt lat="48.99754" lon="1.11744">
        <ele>129</ele>
        <time>2011-09-25T10:47:00Z</time>
      </trkpt>
      <trkpt lat="48.99755" lon="1.11753">
        <ele>128</ele>
        <time>2011-09-25T10:47:01Z</time>
      </trkpt>
      <trkpt lat="48.99756" lon="1.11761">
        <ele>128</ele>
        <time>2011-09-25T10:47:02Z</time>
      </trkpt>
      <trkpt lat="48.99757" lon="1.1177">
        <ele>128</ele>
        <time>2011-09-25T10:47:03Z</time>
      </trkpt>
      <trkpt lat="48.99758" lon="1.11778">
        <ele>127</ele>
        <time>2011-09-25T10:47:04Z</time>
      </trkpt>
      <trkpt lat="48.99759" lon="1.11787">
        <ele>127</ele>
        <time>2011-09-25T10:47:05Z</time>
      </trkpt>
      <trkpt lat="48.99761" lon="1.11796">
        <ele>126</ele>
        <time>2011-09-25T10:47:06Z</time>
      </trkpt>
      <trkpt lat="48.99762" lon="1.11804">
        <ele>126</ele>
        <time>2011-09-25T10:47:07Z</time>
      </trkpt>
      <trkpt lat="48.99763" lon="1.11812">
        <ele>126</ele>
        <time>2011-09-25T10:47:08Z</time>
      </trkpt>
      <trkpt lat="48.99765" lon="1.11821">
        <ele>125</ele>
        <time>2011-09-25T10:47:09Z</time>
      </trkpt>
      <trkpt lat="48.99766" lon="1.11828">
        <ele>125</ele>
        <time>2011-09-25T10:47:10Z</time>
      </trkpt>
      <trkpt lat="48.99768" lon="1.11837">
        <ele>124</ele>
        <time>2011-09-25T10:47:12Z</time>
      </trkpt>
      <trkpt lat="48.99768" lon="1.11845">
        <ele>124</ele>
        <time>2011-09-25T10:47:14Z</time>
      </trkpt>
      <trkpt lat="48.99767" lon="1.11853">
        <ele>124</ele>
        <time>2011-09-25T10:47:16Z</time>
      </trkpt>
      <trkpt lat="48.99763" lon="1.11861">
        <ele>124</ele>
        <time>2011-09-25T10:47:18Z</time>
      </trkpt>
      <trkpt lat="48.99758" lon="1.11869">
        <ele>124</ele>
        <time>2011-09-25T10:47:20Z</time>
      </trkpt>
      <trkpt lat="48.99752" lon="1.11872">
        <ele>124</ele>
        <time>2011-09-25T10:47:22Z</time>
      </trkpt>
      <trkpt lat="48.99744" lon="1.11873">
        <ele>124</ele>
        <time>2011-09-25T10:47:24Z</time>
      </trkpt>
      <trkpt lat="48.99736" lon="1.11874">
        <ele>124</ele>
        <time>2011-09-25T10:47:26Z</time>
      </trkpt>
      <trkpt lat="48.99729" lon="1.11876">
        <ele>124</ele>
        <time>2011-09-25T10:47:28Z</time>
      </trkpt>
      <trkpt lat="48.99722" lon="1.11876">
        <ele>124</ele>
        <time>2011-09-25T10:47:30Z</time>
      </trkpt>
      <trkpt lat="48.99714" lon="1.11877">
        <ele>124</ele>
        <time>2011-09-25T10:47:32Z</time>
      </trkpt>
      <trkpt lat="48.99707" lon="1.11879">
        <ele>124</ele>
        <time>2011-09-25T10:47:34Z</time>
      </trkpt>
      <trkpt lat="48.99699" lon="1.11882">
        <ele>124</ele>
        <time>2011-09-25T10:47:36Z</time>
      </trkpt>
      <trkpt lat="48.99692" lon="1.11882">
        <ele>123</ele>
        <time>2011-09-25T10:47:38Z</time>
      </trkpt>
      <trkpt lat="48.99684" lon="1.11882">
        <ele>123</ele>
        <time>2011-09-25T10:47:40Z</time>
      </trkpt>
      <trkpt lat="48.9968" lon="1.11881">
        <ele>123</ele>
        <time>2011-09-25T10:47:41Z</time>
      </trkpt>
      <trkpt lat="48.99672" lon="1.11883">
        <ele>123</ele>
        <time>2011-09-25T10:47:43Z</time>
      </trkpt>
      <trkpt lat="48.99665" lon="1.11886">
        <ele>124</ele>
        <time>2011-09-25T10:47:45Z</time>
      </trkpt>
      <trkpt lat="48.99658" lon="1.11887">
        <ele>124</ele>
        <time>2011-09-25T10:47:47Z</time>
      </trkpt>
      <trkpt lat="48.9965" lon="1.11885">
        <ele>124</ele>
        <time>2011-09-25T10:47:49Z</time>
      </trkpt>
      <trkpt lat="48.99642" lon="1.11881">
        <ele>124</ele>
        <time>2011-09-25T10:47:51Z</time>
      </trkpt>
      <trkpt lat="48.99635" lon="1.11876">
        <ele>125</ele>
        <time>2011-09-25T10:47:53Z</time>
      </trkpt>
      <trkpt lat="48.99627" lon="1.11872">
        <ele>125</ele>
        <time>2011-09-25T10:47:55Z</time>
      </trkpt>
      <trkpt lat="48.9962" lon="1.11868">
        <ele>125</ele>
        <time>2011-09-25T10:47:57Z</time>
      </trkpt>
      <trkpt lat="48.99613" lon="1.11865">
        <ele>125</ele>
        <time>2011-09-25T10:47:59Z</time>
      </trkpt>
      <trkpt lat="48.99605" lon="1.11862">
        <ele>125</ele>
        <time>2011-09-25T10:48:01Z</time>
      </trkpt>
      <trkpt lat="48.99596" lon="1.1186">
        <ele>125</ele>
        <time>2011-09-25T10:48:03Z</time>
      </trkpt>
      <trkpt lat="48.99588" lon="1.11858">
        <ele>125</ele>
        <time>2011-09-25T10:48:05Z</time>
      </trkpt>
      <trkpt lat="48.99579" lon="1.11859">
        <ele>126</ele>
        <time>2011-09-25T10:48:07Z</time>
      </trkpt>
      <trkpt lat="48.99575" lon="1.1186">
        <ele>126</ele>
        <time>2011-09-25T10:48:08Z</time>
      </trkpt>
      <trkpt lat="48.99566" lon="1.11862">
        <ele>126</ele>
        <time>2011-09-25T10:48:10Z</time>
      </trkpt>
      <trkpt lat="48.99558" lon="1.11865">
        <ele>126</ele>
        <time>2011-09-25T10:48:12Z</time>
      </trkpt>
      <trkpt lat="48.9955" lon="1.11868">
        <ele>126</ele>
        <time>2011-09-25T10:48:14Z</time>
      </trkpt>
      <trkpt lat="48.99543" lon="1.11871">
        <ele>126</ele>
        <time>2011-09-25T10:48:16Z</time>
      </trkpt>
      <trkpt lat="48.99535" lon="1.11875">
        <ele>126</ele>
        <time>2011-09-25T10:48:18Z</time>
      </trkpt>
      <trkpt lat="48.99527" lon="1.1188">
        <ele>126</ele>
        <time>2011-09-25T10:48:20Z</time>
      </trkpt>
      <trkpt lat="48.99519" lon="1.11885">
        <ele>126</ele>
        <time>2011-09-25T10:48:22Z</time>
      </trkpt>
      <trkpt lat="48.9951" lon="1.11889">
        <ele>126</ele>
        <time>2011-09-25T10:48:24Z</time>
      </trkpt>
      <trkpt lat="48.99506" lon="1.11892">
        <ele>126</ele>
        <time>2011-09-25T10:48:25Z</time>
      </trkpt>
      <trkpt lat="48.99502" lon="1.11896">
        <ele>127</ele>
        <time>2011-09-25T10:48:26Z</time>
      </trkpt>
      <trkpt lat="48.99498" lon="1.11901">
        <ele>126</ele>
        <time>2011-09-25T10:48:27Z</time>
      </trkpt>
      <trkpt lat="48.99494" lon="1.11906">
        <ele>126</ele>
        <time>2011-09-25T10:48:28Z</time>
      </trkpt>
      <trkpt lat="48.99489" lon="1.1191">
        <ele>126</ele>
        <time>2011-09-25T10:48:29Z</time>
      </trkpt>
      <trkpt lat="48.99484" lon="1.11915">
        <ele>126</ele>
        <time>2011-09-25T10:48:30Z</time>
      </trkpt>
      <trkpt lat="48.99478" lon="1.1192">
        <ele>127</ele>
        <time>2011-09-25T10:48:31Z</time>
      </trkpt>
      <trkpt lat="48.99473" lon="1.11925">
        <ele>127</ele>
        <time>2011-09-25T10:48:32Z</time>
      </trkpt>
      <trkpt lat="48.99468" lon="1.11931">
        <ele>127</ele>
        <time>2011-09-25T10:48:33Z</time>
      </trkpt>
      <trkpt lat="48.99464" lon="1.11936">
        <ele>127</ele>
        <time>2011-09-25T10:48:34Z</time>
      </trkpt>
      <trkpt lat="48.99459" lon="1.11942">
        <ele>127</ele>
        <time>2011-09-25T10:48:35Z</time>
      </trkpt>
      <trkpt lat="48.99456" lon="1.11948">
        <ele>127</ele>
        <time>2011-09-25T10:48:36Z</time>
      </trkpt>
      <trkpt lat="48.99451" lon="1.11951">
        <ele>126</ele>
        <time>2011-09-25T10:48:37Z</time>
      </trkpt>
      <trkpt lat="48.99446" lon="1.11955">
        <ele>126</ele>
        <time>2011-09-25T10:48:38Z</time>
      </trkpt>
      <trkpt lat="48.99441" lon="1.11959">
        <ele>126</ele>
        <time>2011-09-25T10:48:39Z</time>
      </trkpt>
      <trkpt lat="48.99436" lon="1.11964">
        <ele>126</ele>
        <time>2011-09-25T10:48:40Z</time>
      </trkpt>
      <trkpt lat="48.99433" lon="1.11969">
        <ele>126</ele>
        <time>2011-09-25T10:48:41Z</time>
      </trkpt>
      <trkpt lat="48.99429" lon="1.11975">
        <ele>126</ele>
        <time>2011-09-25T10:48:42Z</time>
      </trkpt>
      <trkpt lat="48.99426" lon="1.1198">
        <ele>126</ele>
        <time>2011-09-25T10:48:43Z</time>
      </trkpt>
      <trkpt lat="48.99422" lon="1.11985">
        <ele>126</ele>
        <time>2011-09-25T10:48:44Z</time>
      </trkpt>
      <trkpt lat="48.99417" lon="1.11989">
        <ele>126</ele>
        <time>2011-09-25T10:48:45Z</time>
      </trkpt>
      <trkpt lat="48.99413" lon="1.11994">
        <ele>125</ele>
        <time>2011-09-25T10:48:46Z</time>
      </trkpt>
      <trkpt lat="48.99409" lon="1.11999">
        <ele>125</ele>
        <time>2011-09-25T10:48:47Z</time>
      </trkpt>
      <trkpt lat="48.99404" lon="1.12006">
        <ele>126</ele>
        <time>2011-09-25T10:48:48Z</time>
      </trkpt>
      <trkpt lat="48.994" lon="1.12011">
        <ele>126</ele>
        <time>2011-09-25T10:48:49Z</time>
      </trkpt>
      <trkpt lat="48.99396" lon="1.12017">
        <ele>127</ele>
        <time>2011-09-25T10:48:50Z</time>
      </trkpt>
      <trkpt lat="48.99392" lon="1.12023">
        <ele>127</ele>
        <time>2011-09-25T10:48:51Z</time>
      </trkpt>
      <trkpt lat="48.99388" lon="1.12029">
        <ele>127</ele>
        <time>2011-09-25T10:48:52Z</time>
      </trkpt>
      <trkpt lat="48.99384" lon="1.12034">
        <ele>127</ele>
        <time>2011-09-25T10:48:53Z</time>
      </trkpt>
      <trkpt lat="48.99379" lon="1.12039">
        <ele>127</ele>
        <time>2011-09-25T10:48:54Z</time>
      </trkpt>
      <trkpt lat="48.99375" lon="1.12045">
        <ele>127</ele>
        <time>2011-09-25T10:48:55Z</time>
      </trkpt>
      <trkpt lat="48.99371" lon="1.12051">
        <ele>127</ele>
        <time>2011-09-25T10:48:56Z</time>
      </trkpt>
      <trkpt lat="48.99367" lon="1.12056">
        <ele>127</ele>
        <time>2011-09-25T10:48:57Z</time>
      </trkpt>
      <trkpt lat="48.99363" lon="1.12062">
        <ele>127</ele>
        <time>2011-09-25T10:48:58Z</time>
      </trkpt>
      <trkpt lat="48.99358" lon="1.12067">
        <ele>127</ele>
        <time>2011-09-25T10:48:59Z</time>
      </trkpt>
      <trkpt lat="48.99354" lon="1.12073">
        <ele>127</ele>
        <time>2011-09-25T10:49:00Z</time>
      </trkpt>
      <trkpt lat="48.9935" lon="1.12078">
        <ele>126</ele>
        <time>2011-09-25T10:49:01Z</time>
      </trkpt>
      <trkpt lat="48.99347" lon="1.12085">
        <ele>127</ele>
        <time>2011-09-25T10:49:02Z</time>
      </trkpt>
      <trkpt lat="48.99344" lon="1.12092">
        <ele>127</ele>
        <time>2011-09-25T10:49:03Z</time>
      </trkpt>
      <trkpt lat="48.9934" lon="1.12099">
        <ele>127</ele>
        <time>2011-09-25T10:49:04Z</time>
      </trkpt>
      <trkpt lat="48.99337" lon="1.12106">
        <ele>128</ele>
        <time>2011-09-25T10:49:05Z</time>
      </trkpt>
      <trkpt lat="48.99335" lon="1.12113">
        <ele>128</ele>
        <time>2011-09-25T10:49:06Z</time>
      </trkpt>
      <trkpt lat="48.99332" lon="1.12121">
        <ele>127</ele>
        <time>2011-09-25T10:49:07Z</time>
      </trkpt>
      <trkpt lat="48.99329" lon="1.12129">
        <ele>127</ele>
        <time>2011-09-25T10:49:08Z</time>
      </trkpt>
      <trkpt lat="48.99325" lon="1.12136">
        <ele>127</ele>
        <time>2011-09-25T10:49:09Z</time>
      </trkpt>
      <trkpt lat="48.99322" lon="1.12144">
        <ele>127</ele>
        <time>2011-09-25T10:49:10Z</time>
      </trkpt>
      <trkpt lat="48.99319" lon="1.12152">
        <ele>127</ele>
        <time>2011-09-25T10:49:11Z</time>
      </trkpt>
      <trkpt lat="48.99315" lon="1.1216">
        <ele>127</ele>
        <time>2011-09-25T10:49:12Z</time>
      </trkpt>
      <trkpt lat="48.99311" lon="1.12167">
        <ele>128</ele>
        <time>2011-09-25T10:49:13Z</time>
      </trkpt>
      <trkpt lat="48.99307" lon="1.12175">
        <ele>128</ele>
        <time>2011-09-25T10:49:14Z</time>
      </trkpt>
      <trkpt lat="48.99304" lon="1.12183">
        <ele>128</ele>
        <time>2011-09-25T10:49:15Z</time>
      </trkpt>
      <trkpt lat="48.99301" lon="1.12191">
        <ele>128</ele>
        <time>2011-09-25T10:49:16Z</time>
      </trkpt>
      <trkpt lat="48.99298" lon="1.12198">
        <ele>128</ele>
        <time>2011-09-25T10:49:17Z</time>
      </trkpt>
      <trkpt lat="48.99294" lon="1.12203">
        <ele>128</ele>
        <time>2011-09-25T10:49:18Z</time>
      </trkpt>
      <trkpt lat="48.9929" lon="1.12208">
        <ele>128</ele>
        <time>2011-09-25T10:49:19Z</time>
      </trkpt>
      <trkpt lat="48.99287" lon="1.12214">
        <ele>128</ele>
        <time>2011-09-25T10:49:20Z</time>
      </trkpt>
      <trkpt lat="48.99284" lon="1.1222">
        <ele>128</ele>
        <time>2011-09-25T10:49:21Z</time>
      </trkpt>
      <trkpt lat="48.99279" lon="1.12225">
        <ele>128</ele>
        <time>2011-09-25T10:49:22Z</time>
      </trkpt>
      <trkpt lat="48.99275" lon="1.12231">
        <ele>128</ele>
        <time>2011-09-25T10:49:23Z</time>
      </trkpt>
      <trkpt lat="48.99272" lon="1.12238">
        <ele>128</ele>
        <time>2011-09-25T10:49:24Z</time>
      </trkpt>
      <trkpt lat="48.99269" lon="1.12245">
        <ele>128</ele>
        <time>2011-09-25T10:49:25Z</time>
      </trkpt>
      <trkpt lat="48.99267" lon="1.12252">
        <ele>128</ele>
        <time>2011-09-25T10:49:26Z</time>
      </trkpt>
      <trkpt lat="48.99265" lon="1.1226">
        <ele>128</ele>
        <time>2011-09-25T10:49:27Z</time>
      </trkpt>
      <trkpt lat="48.99264" lon="1.12268">
        <ele>129</ele>
        <time>2011-09-25T10:49:28Z</time>
      </trkpt>
      <trkpt lat="48.99262" lon="1.12276">
        <ele>129</ele>
        <time>2011-09-25T10:49:29Z</time>
      </trkpt>
      <trkpt lat="48.9926" lon="1.12284">
        <ele>129</ele>
        <time>2011-09-25T10:49:30Z</time>
      </trkpt>
      <trkpt lat="48.99259" lon="1.12292">
        <ele>129</ele>
        <time>2011-09-25T10:49:31Z</time>
      </trkpt>
      <trkpt lat="48.99258" lon="1.123">
        <ele>130</ele>
        <time>2011-09-25T10:49:32Z</time>
      </trkpt>
      <trkpt lat="48.99256" lon="1.12308">
        <ele>130</ele>
        <time>2011-09-25T10:49:33Z</time>
      </trkpt>
      <trkpt lat="48.99255" lon="1.12316">
        <ele>130</ele>
        <time>2011-09-25T10:49:34Z</time>
      </trkpt>
      <trkpt lat="48.99254" lon="1.12323">
        <ele>130</ele>
        <time>2011-09-25T10:49:35Z</time>
      </trkpt>
      <trkpt lat="48.99253" lon="1.12337">
        <ele>130</ele>
        <time>2011-09-25T10:49:37Z</time>
      </trkpt>
      <trkpt lat="48.99252" lon="1.12344">
        <ele>130</ele>
        <time>2011-09-25T10:49:38Z</time>
      </trkpt>
      <trkpt lat="48.99251" lon="1.12352">
        <ele>131</ele>
        <time>2011-09-25T10:49:39Z</time>
      </trkpt>
      <trkpt lat="48.99251" lon="1.1236">
        <ele>131</ele>
        <time>2011-09-25T10:49:40Z</time>
      </trkpt>
      <trkpt lat="48.9925" lon="1.12368">
        <ele>129</ele>
        <time>2011-09-25T10:49:41Z</time>
      </trkpt>
      <trkpt lat="48.99249" lon="1.12377">
        <ele>129</ele>
        <time>2011-09-25T10:49:42Z</time>
      </trkpt>
      <trkpt lat="48.99248" lon="1.12386">
        <ele>129</ele>
        <time>2011-09-25T10:49:43Z</time>
      </trkpt>
      <trkpt lat="48.99247" lon="1.12395">
        <ele>129</ele>
        <time>2011-09-25T10:49:44Z</time>
      </trkpt>
      <trkpt lat="48.99246" lon="1.12403">
        <ele>129</ele>
        <time>2011-09-25T10:49:45Z</time>
      </trkpt>
      <trkpt lat="48.99245" lon="1.12411">
        <ele>129</ele>
        <time>2011-09-25T10:49:46Z</time>
      </trkpt>
      <trkpt lat="48.99245" lon="1.12419">
        <ele>129</ele>
        <time>2011-09-25T10:49:47Z</time>
      </trkpt>
      <trkpt lat="48.99244" lon="1.12428">
        <ele>129</ele>
        <time>2011-09-25T10:49:48Z</time>
      </trkpt>
      <trkpt lat="48.99245" lon="1.12438">
        <ele>128</ele>
        <time>2011-09-25T10:49:49Z</time>
      </trkpt>
      <trkpt lat="48.99244" lon="1.12447">
        <ele>128</ele>
        <time>2011-09-25T10:49:50Z</time>
      </trkpt>
      <trkpt lat="48.99244" lon="1.12456">
        <ele>128</ele>
        <time>2011-09-25T10:49:51Z</time>
      </trkpt>
      <trkpt lat="48.99244" lon="1.12464">
        <ele>128</ele>
        <time>2011-09-25T10:49:52Z</time>
      </trkpt>
      <trkpt lat="48.99244" lon="1.12473">
        <ele>128</ele>
        <time>2011-09-25T10:49:53Z</time>
      </trkpt>
      <trkpt lat="48.99244" lon="1.12481">
        <ele>128</ele>
        <time>2011-09-25T10:49:54Z</time>
      </trkpt>
      <trkpt lat="48.99244" lon="1.12489">
        <ele>128</ele>
        <time>2011-09-25T10:49:55Z</time>
      </trkpt>
      <trkpt lat="48.99243" lon="1.12498">
        <ele>128</ele>
        <time>2011-09-25T10:49:56Z</time>
      </trkpt>
      <trkpt lat="48.99243" lon="1.12506">
        <ele>128</ele>
        <time>2011-09-25T10:49:57Z</time>
      </trkpt>
      <trkpt lat="48.99244" lon="1.12515">
        <ele>128</ele>
        <time>2011-09-25T10:49:58Z</time>
      </trkpt>
      <trkpt lat="48.99245" lon="1.12525">
        <ele>128</ele>
        <time>2011-09-25T10:49:59Z</time>
      </trkpt>
      <trkpt lat="48.99245" lon="1.12535">
        <ele>128</ele>
        <time>2011-09-25T10:50:00Z</time>
      </trkpt>
      <trkpt lat="48.99245" lon="1.12544">
        <ele>129</ele>
        <time>2011-09-25T10:50:01Z</time>
      </trkpt>
      <trkpt lat="48.99245" lon="1.12554">
        <ele>129</ele>
        <time>2011-09-25T10:50:02Z</time>
      </trkpt>
      <trkpt lat="48.99245" lon="1.12563">
        <ele>129</ele>
        <time>2011-09-25T10:50:03Z</time>
      </trkpt>
      <trkpt lat="48.99245" lon="1.12572">
        <ele>129</ele>
        <time>2011-09-25T10:50:04Z</time>
      </trkpt>
      <trkpt lat="48.99244" lon="1.12582">
        <ele>129</ele>
        <time>2011-09-25T10:50:05Z</time>
      </trkpt>
      <trkpt lat="48.99243" lon="1.12591">
        <ele>129</ele>
        <time>2011-09-25T10:50:06Z</time>
      </trkpt>
      <trkpt lat="48.99242" lon="1.12601">
        <ele>129</ele>
        <time>2011-09-25T10:50:07Z</time>
      </trkpt>
      <trkpt lat="48.99242" lon="1.1261">
        <ele>130</ele>
        <time>2011-09-25T10:50:08Z</time>
      </trkpt>
      <trkpt lat="48.99241" lon="1.1262">
        <ele>130</ele>
        <time>2011-09-25T10:50:09Z</time>
      </trkpt>
      <trkpt lat="48.9924" lon="1.12628">
        <ele>130</ele>
        <time>2011-09-25T10:50:10Z</time>
      </trkpt>
      <trkpt lat="48.9924" lon="1.12637">
        <ele>130</ele>
        <time>2011-09-25T10:50:11Z</time>
      </trkpt>
      <trkpt lat="48.9924" lon="1.12646">
        <ele>130</ele>
        <time>2011-09-25T10:50:12Z</time>
      </trkpt>
      <trkpt lat="48.9924" lon="1.12655">
        <ele>130</ele>
        <time>2011-09-25T10:50:13Z</time>
      </trkpt>
      <trkpt lat="48.9924" lon="1.12664">
        <ele>130</ele>
        <time>2011-09-25T10:50:14Z</time>
      </trkpt>
      <trkpt lat="48.9924" lon="1.12672">
        <ele>130</ele>
        <time>2011-09-25T10:50:15Z</time>
      </trkpt>
      <trkpt lat="48.99241" lon="1.12681">
        <ele>130</ele>
        <time>2011-09-25T10:50:16Z</time>
      </trkpt>
      <trkpt lat="48.9924" lon="1.1269">
        <ele>130</ele>
        <time>2011-09-25T10:50:17Z</time>
      </trkpt>
      <trkpt lat="48.99238" lon="1.12698">
        <ele>130</ele>
        <time>2011-09-25T10:50:18Z</time>
      </trkpt>
      <trkpt lat="48.99238" lon="1.12706">
        <ele>131</ele>
        <time>2011-09-25T10:50:19Z</time>
      </trkpt>
      <trkpt lat="48.99238" lon="1.12714">
        <ele>131</ele>
        <time>2011-09-25T10:50:20Z</time>
      </trkpt>
      <trkpt lat="48.99239" lon="1.12722">
        <ele>130</ele>
        <time>2011-09-25T10:50:21Z</time>
      </trkpt>
      <trkpt lat="48.99239" lon="1.12729">
        <ele>130</ele>
        <time>2011-09-25T10:50:22Z</time>
      </trkpt>
      <trkpt lat="48.99237" lon="1.12739">
        <ele>130</ele>
        <time>2011-09-25T10:50:24Z</time>
      </trkpt>
      <trkpt lat="48.99232" lon="1.12742">
        <ele>130</ele>
        <time>2011-09-25T10:50:26Z</time>
      </trkpt>
      <trkpt lat="48.99224" lon="1.12742">
        <ele>131</ele>
        <time>2011-09-25T10:50:28Z</time>
      </trkpt>
      <trkpt lat="48.99217" lon="1.1274">
        <ele>131</ele>
        <time>2011-09-25T10:50:30Z</time>
      </trkpt>
      <trkpt lat="48.99208" lon="1.12738">
        <ele>131</ele>
        <time>2011-09-25T10:50:32Z</time>
      </trkpt>
      <trkpt lat="48.99203" lon="1.12738">
        <ele>131</ele>
        <time>2011-09-25T10:50:33Z</time>
      </trkpt>
      <trkpt lat="48.99198" lon="1.12737">
        <ele>131</ele>
        <time>2011-09-25T10:50:34Z</time>
      </trkpt>
      <trkpt lat="48.99194" lon="1.12736">
        <ele>131</ele>
        <time>2011-09-25T10:50:35Z</time>
      </trkpt>
      <trkpt lat="48.99189" lon="1.12736">
        <ele>131</ele>
        <time>2011-09-25T10:50:36Z</time>
      </trkpt>
      <trkpt lat="48.99184" lon="1.12734">
        <ele>131</ele>
        <time>2011-09-25T10:50:37Z</time>
      </trkpt>
      <trkpt lat="48.99178" lon="1.12733">
        <ele>131</ele>
        <time>2011-09-25T10:50:38Z</time>
      </trkpt>
      <trkpt lat="48.99173" lon="1.12732">
        <ele>131</ele>
        <time>2011-09-25T10:50:39Z</time>
      </trkpt>
      <trkpt lat="48.99165" lon="1.12732">
        <ele>133</ele>
        <time>2011-09-25T10:50:41Z</time>
      </trkpt>
      <trkpt lat="48.9916" lon="1.12731">
        <ele>133</ele>
        <time>2011-09-25T10:50:42Z</time>
      </trkpt>
      <trkpt lat="48.99153" lon="1.12727">
        <ele>134</ele>
        <time>2011-09-25T10:50:44Z</time>
      </trkpt>
      <trkpt lat="48.99148" lon="1.12719">
        <ele>134</ele>
        <time>2011-09-25T10:50:46Z</time>
      </trkpt>
      <trkpt lat="48.99144" lon="1.12707">
        <ele>134</ele>
        <time>2011-09-25T10:50:48Z</time>
      </trkpt>
      <trkpt lat="48.9914" lon="1.12694">
        <ele>134</ele>
        <time>2011-09-25T10:50:50Z</time>
      </trkpt>
      <trkpt lat="48.99138" lon="1.12687">
        <ele>134</ele>
        <time>2011-09-25T10:50:51Z</time>
      </trkpt>
      <trkpt lat="48.99136" lon="1.12679">
        <ele>134</ele>
        <time>2011-09-25T10:50:52Z</time>
      </trkpt>
      <trkpt lat="48.99134" lon="1.12672">
        <ele>134</ele>
        <time>2011-09-25T10:50:53Z</time>
      </trkpt>
      <trkpt lat="48.99133" lon="1.12664">
        <ele>134</ele>
        <time>2011-09-25T10:50:54Z</time>
      </trkpt>
      <trkpt lat="48.99131" lon="1.12657">
        <ele>134</ele>
        <time>2011-09-25T10:50:55Z</time>
      </trkpt>
      <trkpt lat="48.99129" lon="1.12649">
        <ele>134</ele>
        <time>2011-09-25T10:50:56Z</time>
      </trkpt>
      <trkpt lat="48.99126" lon="1.12642">
        <ele>134</ele>
        <time>2011-09-25T10:50:57Z</time>
      </trkpt>
      <trkpt lat="48.99124" lon="1.12634">
        <ele>134</ele>
        <time>2011-09-25T10:50:58Z</time>
      </trkpt>
      <trkpt lat="48.99123" lon="1.12627">
        <ele>134</ele>
        <time>2011-09-25T10:50:59Z</time>
      </trkpt>
      <trkpt lat="48.99121" lon="1.12619">
        <ele>134</ele>
        <time>2011-09-25T10:51:00Z</time>
      </trkpt>
      <trkpt lat="48.99119" lon="1.12612">
        <ele>134</ele>
        <time>2011-09-25T10:51:01Z</time>
      </trkpt>
      <trkpt lat="48.99118" lon="1.12605">
        <ele>134</ele>
        <time>2011-09-25T10:51:02Z</time>
      </trkpt>
      <trkpt lat="48.99116" lon="1.12597">
        <ele>134</ele>
        <time>2011-09-25T10:51:03Z</time>
      </trkpt>
      <trkpt lat="48.99114" lon="1.12589">
        <ele>134</ele>
        <time>2011-09-25T10:51:04Z</time>
      </trkpt>
      <trkpt lat="48.99113" lon="1.12581">
        <ele>133</ele>
        <time>2011-09-25T10:51:05Z</time>
      </trkpt>
      <trkpt lat="48.99111" lon="1.12574">
        <ele>133</ele>
        <time>2011-09-25T10:51:06Z</time>
      </trkpt>
      <trkpt lat="48.99109" lon="1.12566">
        <ele>132</ele>
        <time>2011-09-25T10:51:07Z</time>
      </trkpt>
      <trkpt lat="48.99108" lon="1.12559">
        <ele>132</ele>
        <time>2011-09-25T10:51:08Z</time>
      </trkpt>
      <trkpt lat="48.99107" lon="1.12552">
        <ele>132</ele>
        <time>2011-09-25T10:51:09Z</time>
      </trkpt>
      <trkpt lat="48.99105" lon="1.12545">
        <ele>132</ele>
        <time>2011-09-25T10:51:10Z</time>
      </trkpt>
      <trkpt lat="48.99104" lon="1.12537">
        <ele>132</ele>
        <time>2011-09-25T10:51:11Z</time>
      </trkpt>
      <trkpt lat="48.99102" lon="1.12529">
        <ele>132</ele>
        <time>2011-09-25T10:51:12Z</time>
      </trkpt>
      <trkpt lat="48.991" lon="1.12522">
        <ele>132</ele>
        <time>2011-09-25T10:51:13Z</time>
      </trkpt>
      <trkpt lat="48.99099" lon="1.12514">
        <ele>132</ele>
        <time>2011-09-25T10:51:14Z</time>
      </trkpt>
      <trkpt lat="48.99096" lon="1.12506">
        <ele>132</ele>
        <time>2011-09-25T10:51:15Z</time>
      </trkpt>
      <trkpt lat="48.99094" lon="1.12498">
        <ele>131</ele>
        <time>2011-09-25T10:51:16Z</time>
      </trkpt>
      <trkpt lat="48.99091" lon="1.1249">
        <ele>131</ele>
        <time>2011-09-25T10:51:17Z</time>
      </trkpt>
      <trkpt lat="48.99089" lon="1.12482">
        <ele>131</ele>
        <time>2011-09-25T10:51:18Z</time>
      </trkpt>
      <trkpt lat="48.99087" lon="1.12473">
        <ele>130</ele>
        <time>2011-09-25T10:51:19Z</time>
      </trkpt>
      <trkpt lat="48.99085" lon="1.12465">
        <ele>130</ele>
        <time>2011-09-25T10:51:20Z</time>
      </trkpt>
      <trkpt lat="48.99083" lon="1.12457">
        <ele>134</ele>
        <time>2011-09-25T10:51:21Z</time>
      </trkpt>
      <trkpt lat="48.9908" lon="1.12448">
        <ele>133</ele>
        <time>2011-09-25T10:51:22Z</time>
      </trkpt>
      <trkpt lat="48.99078" lon="1.1244">
        <ele>133</ele>
        <time>2011-09-25T10:51:23Z</time>
      </trkpt>
      <trkpt lat="48.99075" lon="1.12432">
        <ele>133</ele>
        <time>2011-09-25T10:51:24Z</time>
      </trkpt>
      <trkpt lat="48.99072" lon="1.12424">
        <ele>133</ele>
        <time>2011-09-25T10:51:25Z</time>
      </trkpt>
      <trkpt lat="48.99069" lon="1.12415">
        <ele>132</ele>
        <time>2011-09-25T10:51:26Z</time>
      </trkpt>
      <trkpt lat="48.99067" lon="1.12407">
        <ele>133</ele>
        <time>2011-09-25T10:51:27Z</time>
      </trkpt>
      <trkpt lat="48.99064" lon="1.12399">
        <ele>133</ele>
        <time>2011-09-25T10:51:28Z</time>
      </trkpt>
      <trkpt lat="48.99062" lon="1.12391">
        <ele>133</ele>
        <time>2011-09-25T10:51:29Z</time>
      </trkpt>
      <trkpt lat="48.99061" lon="1.12384">
        <ele>134</ele>
        <time>2011-09-25T10:51:30Z</time>
      </trkpt>
      <trkpt lat="48.99058" lon="1.12375">
        <ele>134</ele>
        <time>2011-09-25T10:51:31Z</time>
      </trkpt>
      <trkpt lat="48.99056" lon="1.12366">
        <ele>134</ele>
        <time>2011-09-25T10:51:32Z</time>
      </trkpt>
      <trkpt lat="48.99054" lon="1.12358">
        <ele>134</ele>
        <time>2011-09-25T10:51:33Z</time>
      </trkpt>
      <trkpt lat="48.99053" lon="1.1235">
        <ele>134</ele>
        <time>2011-09-25T10:51:34Z</time>
      </trkpt>
      <trkpt lat="48.9905" lon="1.12342">
        <ele>134</ele>
        <time>2011-09-25T10:51:35Z</time>
      </trkpt>
      <trkpt lat="48.99047" lon="1.12334">
        <ele>134</ele>
        <time>2011-09-25T10:51:36Z</time>
      </trkpt>
      <trkpt lat="48.99045" lon="1.12326">
        <ele>134</ele>
        <time>2011-09-25T10:51:37Z</time>
      </trkpt>
      <trkpt lat="48.99042" lon="1.12318">
        <ele>134</ele>
        <time>2011-09-25T10:51:38Z</time>
      </trkpt>
      <trkpt lat="48.99041" lon="1.12311">
        <ele>134</ele>
        <time>2011-09-25T10:51:39Z</time>
      </trkpt>
      <trkpt lat="48.99038" lon="1.12304">
        <ele>134</ele>
        <time>2011-09-25T10:51:40Z</time>
      </trkpt>
      <trkpt lat="48.99035" lon="1.12296">
        <ele>134</ele>
        <time>2011-09-25T10:51:41Z</time>
      </trkpt>
      <trkpt lat="48.99032" lon="1.12288">
        <ele>134</ele>
        <time>2011-09-25T10:51:42Z</time>
      </trkpt>
      <trkpt lat="48.9903" lon="1.12281">
        <ele>134</ele>
        <time>2011-09-25T10:51:43Z</time>
      </trkpt>
      <trkpt lat="48.99029" lon="1.12273">
        <ele>134</ele>
        <time>2011-09-25T10:51:44Z</time>
      </trkpt>
      <trkpt lat="48.99027" lon="1.12266">
        <ele>134</ele>
        <time>2011-09-25T10:51:45Z</time>
      </trkpt>
      <trkpt lat="48.99025" lon="1.12258">
        <ele>135</ele>
        <time>2011-09-25T10:51:46Z</time>
      </trkpt>
      <trkpt lat="48.99024" lon="1.12251">
        <ele>135</ele>
        <time>2011-09-25T10:51:47Z</time>
      </trkpt>
      <trkpt lat="48.99022" lon="1.12243">
        <ele>135</ele>
        <time>2011-09-25T10:51:48Z</time>
      </trkpt>
      <trkpt lat="48.9902" lon="1.12235">
        <ele>135</ele>
        <time>2011-09-25T10:51:49Z</time>
      </trkpt>
      <trkpt lat="48.99018" lon="1.12227">
        <ele>135</ele>
        <time>2011-09-25T10:51:50Z</time>
      </trkpt>
      <trkpt lat="48.99017" lon="1.12218">
        <ele>135</ele>
        <time>2011-09-25T10:51:51Z</time>
      </trkpt>
      <trkpt lat="48.99016" lon="1.1221">
        <ele>135</ele>
        <time>2011-09-25T10:51:52Z</time>
      </trkpt>
      <trkpt lat="48.99014" lon="1.12202">
        <ele>135</ele>
        <time>2011-09-25T10:51:53Z</time>
      </trkpt>
      <trkpt lat="48.99012" lon="1.12194">
        <ele>135</ele>
        <time>2011-09-25T10:51:54Z</time>
      </trkpt>
      <trkpt lat="48.9901" lon="1.12186">
        <ele>135</ele>
        <time>2011-09-25T10:51:55Z</time>
      </trkpt>
      <trkpt lat="48.99008" lon="1.12177">
        <ele>136</ele>
        <time>2011-09-25T10:51:56Z</time>
      </trkpt>
      <trkpt lat="48.99006" lon="1.12169">
        <ele>136</ele>
        <time>2011-09-25T10:51:57Z</time>
      </trkpt>
      <trkpt lat="48.99004" lon="1.12161">
        <ele>136</ele>
        <time>2011-09-25T10:51:58Z</time>
      </trkpt>
      <trkpt lat="48.99001" lon="1.12153">
        <ele>136</ele>
        <time>2011-09-25T10:51:59Z</time>
      </trkpt>
      <trkpt lat="48.98999" lon="1.12146">
        <ele>138</ele>
        <time>2011-09-25T10:52:00Z</time>
      </trkpt>
      <trkpt lat="48.98997" lon="1.12138">
        <ele>138</ele>
        <time>2011-09-25T10:52:01Z</time>
      </trkpt>
      <trkpt lat="48.98996" lon="1.1213">
        <ele>138</ele>
        <time>2011-09-25T10:52:02Z</time>
      </trkpt>
      <trkpt lat="48.98994" lon="1.12118">
        <ele>137</ele>
        <time>2011-09-25T10:52:04Z</time>
      </trkpt>
      <trkpt lat="48.98992" lon="1.12107">
        <ele>137</ele>
        <time>2011-09-25T10:52:06Z</time>
      </trkpt>
      <trkpt lat="48.9899" lon="1.12098">
        <ele>137</ele>
        <time>2011-09-25T10:52:08Z</time>
      </trkpt>
      <trkpt lat="48.98988" lon="1.12087">
        <ele>136</ele>
        <time>2011-09-25T10:52:10Z</time>
      </trkpt>
      <trkpt lat="48.98987" lon="1.12076">
        <ele>135</ele>
        <time>2011-09-25T10:52:12Z</time>
      </trkpt>
      <trkpt lat="48.98986" lon="1.12068">
        <ele>136</ele>
        <time>2011-09-25T10:52:14Z</time>
      </trkpt>
      <trkpt lat="48.98987" lon="1.12061">
        <ele>136</ele>
        <time>2011-09-25T10:52:16Z</time>
      </trkpt>
      <trkpt lat="48.98987" lon="1.12052">
        <ele>135</ele>
        <time>2011-09-25T10:52:19Z</time>
      </trkpt>
      <trkpt lat="48.98988" lon="1.12045">
        <ele>135</ele>
        <time>2011-09-25T10:52:22Z</time>
      </trkpt>
      <trkpt lat="48.98988" lon="1.12045">
        <ele>135</ele>
        <time>2011-09-25T10:52:22Z</time>
      </trkpt>
      <trkpt lat="48.98988" lon="1.12045">
        <ele>135</ele>
        <time>2011-09-25T10:52:23Z</time>
      </trkpt>
      <trkpt lat="48.9899" lon="1.12038">
        <ele>135</ele>
        <time>2011-09-25T10:52:25Z</time>
      </trkpt>
      <trkpt lat="48.98994" lon="1.12033">
        <ele>135</ele>
        <time>2011-09-25T10:52:27Z</time>
      </trkpt>
      <trkpt lat="48.98999" lon="1.12028">
        <ele>135</ele>
        <time>2011-09-25T10:52:29Z</time>
      </trkpt>
      <trkpt lat="48.99004" lon="1.12025">
        <ele>132</ele>
        <time>2011-09-25T10:52:31Z</time>
      </trkpt>
      <trkpt lat="48.99008" lon="1.12019">
        <ele>132</ele>
        <time>2011-09-25T10:52:33Z</time>
      </trkpt>
      <trkpt lat="48.99011" lon="1.1201">
        <ele>132</ele>
        <time>2011-09-25T10:52:35Z</time>
      </trkpt>
      <trkpt lat="48.99011" lon="1.12001">
        <ele>132</ele>
        <time>2011-09-25T10:52:37Z</time>
      </trkpt>
      <trkpt lat="48.9901" lon="1.11994">
        <ele>129</ele>
        <time>2011-09-25T10:52:39Z</time>
      </trkpt>
      <trkpt lat="48.99008" lon="1.11985">
        <ele>128</ele>
        <time>2011-09-25T10:52:41Z</time>
      </trkpt>
      <trkpt lat="48.99005" lon="1.11972">
        <ele>126</ele>
        <time>2011-09-25T10:52:43Z</time>
      </trkpt>
      <trkpt lat="48.99004" lon="1.11964">
        <ele>125</ele>
        <time>2011-09-25T10:52:44Z</time>
      </trkpt>
      <trkpt lat="48.99002" lon="1.11957">
        <ele>125</ele>
        <time>2011-09-25T10:52:45Z</time>
      </trkpt>
      <trkpt lat="48.99" lon="1.1195">
        <ele>124</ele>
        <time>2011-09-25T10:52:46Z</time>
      </trkpt>
      <trkpt lat="48.98995" lon="1.11945">
        <ele>127</ele>
        <time>2011-09-25T10:52:47Z</time>
      </trkpt>
      <trkpt lat="48.9899" lon="1.1194">
        <ele>127</ele>
        <time>2011-09-25T10:52:48Z</time>
      </trkpt>
      <trkpt lat="48.98986" lon="1.11935">
        <ele>127</ele>
        <time>2011-09-25T10:52:49Z</time>
      </trkpt>
      <trkpt lat="48.9898" lon="1.11931">
        <ele>127</ele>
        <time>2011-09-25T10:52:50Z</time>
      </trkpt>
      <trkpt lat="48.98975" lon="1.11927">
        <ele>127</ele>
        <time>2011-09-25T10:52:51Z</time>
      </trkpt>
      <trkpt lat="48.98972" lon="1.11921">
        <ele>127</ele>
        <time>2011-09-25T10:52:52Z</time>
      </trkpt>
      <trkpt lat="48.98972" lon="1.11914">
        <ele>119</ele>
        <time>2011-09-25T10:52:53Z</time>
      </trkpt>
      <trkpt lat="48.98974" lon="1.11908">
        <ele>119</ele>
        <time>2011-09-25T10:52:54Z</time>
      </trkpt>
      <trkpt lat="48.98977" lon="1.11901">
        <ele>119</ele>
        <time>2011-09-25T10:52:55Z</time>
      </trkpt>
      <trkpt lat="48.98982" lon="1.11894">
        <ele>118</ele>
        <time>2011-09-25T10:52:56Z</time>
      </trkpt>
      <trkpt lat="48.98988" lon="1.11887">
        <ele>118</ele>
        <time>2011-09-25T10:52:57Z</time>
      </trkpt>
      <trkpt lat="48.98994" lon="1.11881">
        <ele>117</ele>
        <time>2011-09-25T10:52:58Z</time>
      </trkpt>
      <trkpt lat="48.99" lon="1.11877">
        <ele>113</ele>
        <time>2011-09-25T10:52:59Z</time>
      </trkpt>
      <trkpt lat="48.99005" lon="1.11874">
        <ele>112</ele>
        <time>2011-09-25T10:53:00Z</time>
      </trkpt>
      <trkpt lat="48.99011" lon="1.11873">
        <ele>112</ele>
        <time>2011-09-25T10:53:01Z</time>
      </trkpt>
      <trkpt lat="48.99017" lon="1.11872">
        <ele>111</ele>
        <time>2011-09-25T10:53:02Z</time>
      </trkpt>
      <trkpt lat="48.99022" lon="1.11872">
        <ele>111</ele>
        <time>2011-09-25T10:53:03Z</time>
      </trkpt>
      <trkpt lat="48.99027" lon="1.11869">
        <ele>110</ele>
        <time>2011-09-25T10:53:04Z</time>
      </trkpt>
      <trkpt lat="48.99031" lon="1.11864">
        <ele>110</ele>
        <time>2011-09-25T10:53:05Z</time>
      </trkpt>
      <trkpt lat="48.99034" lon="1.11858">
        <ele>109</ele>
        <time>2011-09-25T10:53:06Z</time>
      </trkpt>
      <trkpt lat="48.99033" lon="1.11849">
        <ele>109</ele>
        <time>2011-09-25T10:53:07Z</time>
      </trkpt>
      <trkpt lat="48.99032" lon="1.11841">
        <ele>108</ele>
        <time>2011-09-25T10:53:08Z</time>
      </trkpt>
      <trkpt lat="48.9903" lon="1.11834">
        <ele>108</ele>
        <time>2011-09-25T10:53:09Z</time>
      </trkpt>
      <trkpt lat="48.99026" lon="1.11827">
        <ele>101</ele>
        <time>2011-09-25T10:53:10Z</time>
      </trkpt>
      <trkpt lat="48.99021" lon="1.11822">
        <ele>101</ele>
        <time>2011-09-25T10:53:11Z</time>
      </trkpt>
      <trkpt lat="48.99017" lon="1.11817">
        <ele>101</ele>
        <time>2011-09-25T10:53:12Z</time>
      </trkpt>
      <trkpt lat="48.99011" lon="1.11812">
        <ele>101</ele>
        <time>2011-09-25T10:53:13Z</time>
      </trkpt>
      <trkpt lat="48.99005" lon="1.11808">
        <ele>101</ele>
        <time>2011-09-25T10:53:14Z</time>
      </trkpt>
      <trkpt lat="48.98999" lon="1.11804">
        <ele>103</ele>
        <time>2011-09-25T10:53:15Z</time>
      </trkpt>
      <trkpt lat="48.98992" lon="1.11801">
        <ele>102</ele>
        <time>2011-09-25T10:53:16Z</time>
      </trkpt>
      <trkpt lat="48.98986" lon="1.11799">
        <ele>102</ele>
        <time>2011-09-25T10:53:17Z</time>
      </trkpt>
      <trkpt lat="48.98981" lon="1.11796">
        <ele>101</ele>
        <time>2011-09-25T10:53:18Z</time>
      </trkpt>
      <trkpt lat="48.98976" lon="1.11793">
        <ele>101</ele>
        <time>2011-09-25T10:53:19Z</time>
      </trkpt>
      <trkpt lat="48.98971" lon="1.1179">
        <ele>101</ele>
        <time>2011-09-25T10:53:20Z</time>
      </trkpt>
      <trkpt lat="48.98965" lon="1.11788">
        <ele>100</ele>
        <time>2011-09-25T10:53:21Z</time>
      </trkpt>
      <trkpt lat="48.98961" lon="1.11785">
        <ele>100</ele>
        <time>2011-09-25T10:53:22Z</time>
      </trkpt>
      <trkpt lat="48.98956" lon="1.11781">
        <ele>100</ele>
        <time>2011-09-25T10:53:23Z</time>
      </trkpt>
      <trkpt lat="48.98952" lon="1.11776">
        <ele>99</ele>
        <time>2011-09-25T10:53:24Z</time>
      </trkpt>
      <trkpt lat="48.9895" lon="1.11765">
        <ele>98</ele>
        <time>2011-09-25T10:53:26Z</time>
      </trkpt>
      <trkpt lat="48.98953" lon="1.11759">
        <ele>98</ele>
        <time>2011-09-25T10:53:28Z</time>
      </trkpt>
      <trkpt lat="48.9896" lon="1.11757">
        <ele>98</ele>
        <time>2011-09-25T10:53:30Z</time>
      </trkpt>
      <trkpt lat="48.98966" lon="1.11757">
        <ele>98</ele>
        <time>2011-09-25T10:53:32Z</time>
      </trkpt>
      <trkpt lat="48.98973" lon="1.11756">
        <ele>97</ele>
        <time>2011-09-25T10:53:34Z</time>
      </trkpt>
      <trkpt lat="48.98979" lon="1.11755">
        <ele>97</ele>
        <time>2011-09-25T10:53:36Z</time>
      </trkpt>
      <trkpt lat="48.98985" lon="1.11755">
        <ele>96</ele>
        <time>2011-09-25T10:53:38Z</time>
      </trkpt>
      <trkpt lat="48.98992" lon="1.11755">
        <ele>95</ele>
        <time>2011-09-25T10:53:40Z</time>
      </trkpt>
      <trkpt lat="48.98999" lon="1.11755">
        <ele>94</ele>
        <time>2011-09-25T10:53:42Z</time>
      </trkpt>
      <trkpt lat="48.99005" lon="1.11756">
        <ele>93</ele>
        <time>2011-09-25T10:53:44Z</time>
      </trkpt>
      <trkpt lat="48.9901" lon="1.11757">
        <ele>94</ele>
        <time>2011-09-25T10:53:46Z</time>
      </trkpt>
      <trkpt lat="48.99016" lon="1.11756">
        <ele>94</ele>
        <time>2011-09-25T10:53:48Z</time>
      </trkpt>
      <trkpt lat="48.99022" lon="1.11759">
        <ele>94</ele>
        <time>2011-09-25T10:53:50Z</time>
      </trkpt>
      <trkpt lat="48.99029" lon="1.11762">
        <ele>94</ele>
        <time>2011-09-25T10:53:52Z</time>
      </trkpt>
      <trkpt lat="48.99037" lon="1.11766">
        <ele>94</ele>
        <time>2011-09-25T10:53:54Z</time>
      </trkpt>
      <trkpt lat="48.99045" lon="1.11771">
        <ele>94</ele>
        <time>2011-09-25T10:53:56Z</time>
      </trkpt>
      <trkpt lat="48.99049" lon="1.11774">
        <ele>94</ele>
        <time>2011-09-25T10:53:57Z</time>
      </trkpt>
      <trkpt lat="48.99053" lon="1.11777">
        <ele>94</ele>
        <time>2011-09-25T10:53:58Z</time>
      </trkpt>
      <trkpt lat="48.99057" lon="1.1178">
        <ele>94</ele>
        <time>2011-09-25T10:53:59Z</time>
      </trkpt>
      <trkpt lat="48.99061" lon="1.11784">
        <ele>94</ele>
        <time>2011-09-25T10:54:00Z</time>
      </trkpt>
      <trkpt lat="48.99065" lon="1.11789">
        <ele>94</ele>
        <time>2011-09-25T10:54:01Z</time>
      </trkpt>
      <trkpt lat="48.99069" lon="1.11793">
        <ele>94</ele>
        <time>2011-09-25T10:54:02Z</time>
      </trkpt>
      <trkpt lat="48.99073" lon="1.11796">
        <ele>94</ele>
        <time>2011-09-25T10:54:03Z</time>
      </trkpt>
      <trkpt lat="48.99077" lon="1.118">
        <ele>95</ele>
        <time>2011-09-25T10:54:04Z</time>
      </trkpt>
      <trkpt lat="48.99081" lon="1.11804">
        <ele>95</ele>
        <time>2011-09-25T10:54:05Z</time>
      </trkpt>
      <trkpt lat="48.99084" lon="1.11808">
        <ele>90</ele>
        <time>2011-09-25T10:54:06Z</time>
      </trkpt>
      <trkpt lat="48.99088" lon="1.11813">
        <ele>91</ele>
        <time>2011-09-25T10:54:07Z</time>
      </trkpt>
      <trkpt lat="48.99091" lon="1.11817">
        <ele>91</ele>
        <time>2011-09-25T10:54:08Z</time>
      </trkpt>
      <trkpt lat="48.99095" lon="1.11821">
        <ele>91</ele>
        <time>2011-09-25T10:54:09Z</time>
      </trkpt>
      <trkpt lat="48.99099" lon="1.11825">
        <ele>91</ele>
        <time>2011-09-25T10:54:10Z</time>
      </trkpt>
      <trkpt lat="48.99102" lon="1.11829">
        <ele>91</ele>
        <time>2011-09-25T10:54:11Z</time>
      </trkpt>
      <trkpt lat="48.99106" lon="1.11833">
        <ele>91</ele>
        <time>2011-09-25T10:54:12Z</time>
      </trkpt>
      <trkpt lat="48.99109" lon="1.11838">
        <ele>96</ele>
        <time>2011-09-25T10:54:13Z</time>
      </trkpt>
      <trkpt lat="48.99113" lon="1.11842">
        <ele>96</ele>
        <time>2011-09-25T10:54:14Z</time>
      </trkpt>
      <trkpt lat="48.9912" lon="1.1185">
        <ele>96</ele>
        <time>2011-09-25T10:54:16Z</time>
      </trkpt>
      <trkpt lat="48.99124" lon="1.11855">
        <ele>96</ele>
        <time>2011-09-25T10:54:17Z</time>
      </trkpt>
      <trkpt lat="48.99128" lon="1.11859">
        <ele>96</ele>
        <time>2011-09-25T10:54:18Z</time>
      </trkpt>
      <trkpt lat="48.99132" lon="1.11863">
        <ele>96</ele>
        <time>2011-09-25T10:54:19Z</time>
      </trkpt>
      <trkpt lat="48.99137" lon="1.11866">
        <ele>96</ele>
        <time>2011-09-25T10:54:20Z</time>
      </trkpt>
      <trkpt lat="48.99141" lon="1.11868">
        <ele>96</ele>
        <time>2011-09-25T10:54:21Z</time>
      </trkpt>
      <trkpt lat="48.99146" lon="1.1187">
        <ele>96</ele>
        <time>2011-09-25T10:54:22Z</time>
      </trkpt>
      <trkpt lat="48.99151" lon="1.11872">
        <ele>96</ele>
        <time>2011-09-25T10:54:23Z</time>
      </trkpt>
      <trkpt lat="48.99155" lon="1.11873">
        <ele>96</ele>
        <time>2011-09-25T10:54:24Z</time>
      </trkpt>
      <trkpt lat="48.9916" lon="1.11874">
        <ele>95</ele>
        <time>2011-09-25T10:54:25Z</time>
      </trkpt>
      <trkpt lat="48.99164" lon="1.11875">
        <ele>95</ele>
        <time>2011-09-25T10:54:26Z</time>
      </trkpt>
      <trkpt lat="48.99169" lon="1.11876">
        <ele>93</ele>
        <time>2011-09-25T10:54:27Z</time>
      </trkpt>
      <trkpt lat="48.99173" lon="1.11877">
        <ele>93</ele>
        <time>2011-09-25T10:54:28Z</time>
      </trkpt>
      <trkpt lat="48.99178" lon="1.11877">
        <ele>93</ele>
        <time>2011-09-25T10:54:29Z</time>
      </trkpt>
      <trkpt lat="48.99182" lon="1.11877">
        <ele>93</ele>
        <time>2011-09-25T10:54:30Z</time>
      </trkpt>
      <trkpt lat="48.99187" lon="1.11877">
        <ele>94</ele>
        <time>2011-09-25T10:54:31Z</time>
      </trkpt>
      <trkpt lat="48.99191" lon="1.11876">
        <ele>94</ele>
        <time>2011-09-25T10:54:32Z</time>
      </trkpt>
      <trkpt lat="48.99196" lon="1.11874">
        <ele>93</ele>
        <time>2011-09-25T10:54:33Z</time>
      </trkpt>
      <trkpt lat="48.99201" lon="1.11872">
        <ele>93</ele>
        <time>2011-09-25T10:54:34Z</time>
      </trkpt>
      <trkpt lat="48.99206" lon="1.1187">
        <ele>93</ele>
        <time>2011-09-25T10:54:35Z</time>
      </trkpt>
      <trkpt lat="48.99211" lon="1.11868">
        <ele>93</ele>
        <time>2011-09-25T10:54:36Z</time>
      </trkpt>
      <trkpt lat="48.99216" lon="1.11866">
        <ele>93</ele>
        <time>2011-09-25T10:54:37Z</time>
      </trkpt>
      <trkpt lat="48.99224" lon="1.11861">
        <ele>93</ele>
        <time>2011-09-25T10:54:39Z</time>
      </trkpt>
      <trkpt lat="48.99231" lon="1.11854">
        <ele>92</ele>
        <time>2011-09-25T10:54:41Z</time>
      </trkpt>
      <trkpt lat="48.99238" lon="1.11847">
        <ele>91</ele>
        <time>2011-09-25T10:54:43Z</time>
      </trkpt>
      <trkpt lat="48.99244" lon="1.11839">
        <ele>90</ele>
        <time>2011-09-25T10:54:45Z</time>
      </trkpt>
      <trkpt lat="48.99251" lon="1.1183">
        <ele>89</ele>
        <time>2011-09-25T10:54:47Z</time>
      </trkpt>
      <trkpt lat="48.99254" lon="1.11825">
        <ele>89</ele>
        <time>2011-09-25T10:54:48Z</time>
      </trkpt>
      <trkpt lat="48.99257" lon="1.11818">
        <ele>90</ele>
        <time>2011-09-25T10:54:49Z</time>
      </trkpt>
      <trkpt lat="48.99259" lon="1.11812">
        <ele>91</ele>
        <time>2011-09-25T10:54:50Z</time>
      </trkpt>
      <trkpt lat="48.99262" lon="1.11805">
        <ele>91</ele>
        <time>2011-09-25T10:54:51Z</time>
      </trkpt>
      <trkpt lat="48.99265" lon="1.11798">
        <ele>91</ele>
        <time>2011-09-25T10:54:52Z</time>
      </trkpt>
      <trkpt lat="48.99268" lon="1.11792">
        <ele>91</ele>
        <time>2011-09-25T10:54:53Z</time>
      </trkpt>
      <trkpt lat="48.99271" lon="1.11786">
        <ele>91</ele>
        <time>2011-09-25T10:54:54Z</time>
      </trkpt>
      <trkpt lat="48.99275" lon="1.1178">
        <ele>91</ele>
        <time>2011-09-25T10:54:55Z</time>
      </trkpt>
      <trkpt lat="48.99279" lon="1.11775">
        <ele>91</ele>
        <time>2011-09-25T10:54:56Z</time>
      </trkpt>
      <trkpt lat="48.99283" lon="1.11769">
        <ele>91</ele>
        <time>2011-09-25T10:54:57Z</time>
      </trkpt>
      <trkpt lat="48.99287" lon="1.11764">
        <ele>91</ele>
        <time>2011-09-25T10:54:58Z</time>
      </trkpt>
      <trkpt lat="48.99291" lon="1.11759">
        <ele>91</ele>
        <time>2011-09-25T10:54:59Z</time>
      </trkpt>
      <trkpt lat="48.99295" lon="1.11754">
        <ele>91</ele>
        <time>2011-09-25T10:55:00Z</time>
      </trkpt>
      <trkpt lat="48.99298" lon="1.11748">
        <ele>87</ele>
        <time>2011-09-25T10:55:01Z</time>
      </trkpt>
      <trkpt lat="48.99302" lon="1.11742">
        <ele>88</ele>
        <time>2011-09-25T10:55:02Z</time>
      </trkpt>
      <trkpt lat="48.99305" lon="1.11735">
        <ele>88</ele>
        <time>2011-09-25T10:55:03Z</time>
      </trkpt>
      <trkpt lat="48.99308" lon="1.11729">
        <ele>88</ele>
        <time>2011-09-25T10:55:04Z</time>
      </trkpt>
      <trkpt lat="48.99312" lon="1.11723">
        <ele>87</ele>
        <time>2011-09-25T10:55:05Z</time>
      </trkpt>
      <trkpt lat="48.99316" lon="1.11717">
        <ele>87</ele>
        <time>2011-09-25T10:55:06Z</time>
      </trkpt>
      <trkpt lat="48.99319" lon="1.1171">
        <ele>87</ele>
        <time>2011-09-25T10:55:07Z</time>
      </trkpt>
      <trkpt lat="48.99323" lon="1.11704">
        <ele>87</ele>
        <time>2011-09-25T10:55:08Z</time>
      </trkpt>
      <trkpt lat="48.99326" lon="1.11698">
        <ele>87</ele>
        <time>2011-09-25T10:55:09Z</time>
      </trkpt>
      <trkpt lat="48.9933" lon="1.11692">
        <ele>86</ele>
        <time>2011-09-25T10:55:10Z</time>
      </trkpt>
      <trkpt lat="48.99333" lon="1.11686">
        <ele>86</ele>
        <time>2011-09-25T10:55:11Z</time>
      </trkpt>
      <trkpt lat="48.99337" lon="1.1168">
        <ele>91</ele>
        <time>2011-09-25T10:55:12Z</time>
      </trkpt>
      <trkpt lat="48.9934" lon="1.11673">
        <ele>90</ele>
        <time>2011-09-25T10:55:13Z</time>
      </trkpt>
      <trkpt lat="48.99343" lon="1.11667">
        <ele>90</ele>
        <time>2011-09-25T10:55:14Z</time>
      </trkpt>
      <trkpt lat="48.99346" lon="1.1166">
        <ele>89</ele>
        <time>2011-09-25T10:55:15Z</time>
      </trkpt>
      <trkpt lat="48.99349" lon="1.11654">
        <ele>90</ele>
        <time>2011-09-25T10:55:16Z</time>
      </trkpt>
      <trkpt lat="48.99352" lon="1.11647">
        <ele>91</ele>
        <time>2011-09-25T10:55:17Z</time>
      </trkpt>
      <trkpt lat="48.99356" lon="1.11641">
        <ele>91</ele>
        <time>2011-09-25T10:55:18Z</time>
      </trkpt>
      <trkpt lat="48.99359" lon="1.11634">
        <ele>92</ele>
        <time>2011-09-25T10:55:19Z</time>
      </trkpt>
      <trkpt lat="48.99362" lon="1.11628">
        <ele>92</ele>
        <time>2011-09-25T10:55:20Z</time>
      </trkpt>
      <trkpt lat="48.99364" lon="1.11621">
        <ele>92</ele>
        <time>2011-09-25T10:55:21Z</time>
      </trkpt>
      <trkpt lat="48.99366" lon="1.11614">
        <ele>92</ele>
        <time>2011-09-25T10:55:22Z</time>
      </trkpt>
      <trkpt lat="48.99369" lon="1.11607">
        <ele>92</ele>
        <time>2011-09-25T10:55:23Z</time>
      </trkpt>
      <trkpt lat="48.99371" lon="1.116">
        <ele>92</ele>
        <time>2011-09-25T10:55:24Z</time>
      </trkpt>
      <trkpt lat="48.99373" lon="1.11592">
        <ele>92</ele>
        <time>2011-09-25T10:55:25Z</time>
      </trkpt>
      <trkpt lat="48.99375" lon="1.11584">
        <ele>92</ele>
        <time>2011-09-25T10:55:26Z</time>
      </trkpt>
      <trkpt lat="48.99377" lon="1.11577">
        <ele>92</ele>
        <time>2011-09-25T10:55:27Z</time>
      </trkpt>
      <trkpt lat="48.99378" lon="1.11569">
        <ele>92</ele>
        <time>2011-09-25T10:55:28Z</time>
      </trkpt>
      <trkpt lat="48.9938" lon="1.11562">
        <ele>92</ele>
        <time>2011-09-25T10:55:29Z</time>
      </trkpt>
      <trkpt lat="48.99384" lon="1.11554">
        <ele>92</ele>
        <time>2011-09-25T10:55:31Z</time>
      </trkpt>
      <trkpt lat="48.99388" lon="1.11546">
        <ele>93</ele>
        <time>2011-09-25T10:55:33Z</time>
      </trkpt>
      <trkpt lat="48.9939" lon="1.11535">
        <ele>93</ele>
        <time>2011-09-25T10:55:35Z</time>
      </trkpt>
      <trkpt lat="48.99389" lon="1.11522">
        <ele>93</ele>
        <time>2011-09-25T10:55:37Z</time>
      </trkpt>
      <trkpt lat="48.99386" lon="1.11509">
        <ele>93</ele>
        <time>2011-09-25T10:55:39Z</time>
      </trkpt>
      <trkpt lat="48.99384" lon="1.11502">
        <ele>93</ele>
        <time>2011-09-25T10:55:40Z</time>
      </trkpt>
      <trkpt lat="48.99383" lon="1.11495">
        <ele>93</ele>
        <time>2011-09-25T10:55:41Z</time>
      </trkpt>
      <trkpt lat="48.99381" lon="1.11488">
        <ele>93</ele>
        <time>2011-09-25T10:55:42Z</time>
      </trkpt>
      <trkpt lat="48.99379" lon="1.11481">
        <ele>93</ele>
        <time>2011-09-25T10:55:43Z</time>
      </trkpt>
      <trkpt lat="48.99377" lon="1.11475">
        <ele>92</ele>
        <time>2011-09-25T10:55:44Z</time>
      </trkpt>
      <trkpt lat="48.99375" lon="1.11469">
        <ele>92</ele>
        <time>2011-09-25T10:55:45Z</time>
      </trkpt>
      <trkpt lat="48.99372" lon="1.11462">
        <ele>92</ele>
        <time>2011-09-25T10:55:46Z</time>
      </trkpt>
      <trkpt lat="48.99369" lon="1.11456">
        <ele>91</ele>
        <time>2011-09-25T10:55:47Z</time>
      </trkpt>
      <trkpt lat="48.99366" lon="1.1145">
        <ele>91</ele>
        <time>2011-09-25T10:55:48Z</time>
      </trkpt>
      <trkpt lat="48.99363" lon="1.11444">
        <ele>91</ele>
        <time>2011-09-25T10:55:49Z</time>
      </trkpt>
      <trkpt lat="48.99358" lon="1.11433">
        <ele>90</ele>
        <time>2011-09-25T10:55:51Z</time>
      </trkpt>
      <trkpt lat="48.99355" lon="1.11424">
        <ele>89</ele>
        <time>2011-09-25T10:55:53Z</time>
      </trkpt>
      <trkpt lat="48.99353" lon="1.11417">
        <ele>89</ele>
        <time>2011-09-25T10:55:55Z</time>
      </trkpt>
      <trkpt lat="48.99352" lon="1.1141">
        <ele>87</ele>
        <time>2011-09-25T10:55:57Z</time>
      </trkpt>
      <trkpt lat="48.99351" lon="1.11402">
        <ele>87</ele>
        <time>2011-09-25T10:55:59Z</time>
      </trkpt>
      <trkpt lat="48.99353" lon="1.11393">
        <ele>87</ele>
        <time>2011-09-25T10:56:02Z</time>
      </trkpt>
      <trkpt lat="48.99356" lon="1.11386">
        <ele>87</ele>
        <time>2011-09-25T10:56:05Z</time>
      </trkpt>
      <trkpt lat="48.99359" lon="1.11378">
        <ele>87</ele>
        <time>2011-09-25T10:56:08Z</time>
      </trkpt>
      <trkpt lat="48.99366" lon="1.11376">
        <ele>88</ele>
        <time>2011-09-25T10:56:11Z</time>
      </trkpt>
      <trkpt lat="48.99372" lon="1.11377">
        <ele>88</ele>
        <time>2011-09-25T10:56:13Z</time>
      </trkpt>
      <trkpt lat="48.99377" lon="1.1138">
        <ele>89</ele>
        <time>2011-09-25T10:56:15Z</time>
      </trkpt>
      <trkpt lat="48.99383" lon="1.11383">
        <ele>89</ele>
        <time>2011-09-25T10:56:17Z</time>
      </trkpt>
      <trkpt lat="48.99388" lon="1.11386">
        <ele>90</ele>
        <time>2011-09-25T10:56:19Z</time>
      </trkpt>
      <trkpt lat="48.99392" lon="1.11388">
        <ele>90</ele>
        <time>2011-09-25T10:56:22Z</time>
      </trkpt>
      <trkpt lat="48.99398" lon="1.1139">
        <ele>91</ele>
        <time>2011-09-25T10:56:25Z</time>
      </trkpt>
      <trkpt lat="48.99405" lon="1.11394">
        <ele>92</ele>
        <time>2011-09-25T10:56:39Z</time>
      </trkpt>
      <trkpt lat="48.9941" lon="1.11395">
        <ele>93</ele>
        <time>2011-09-25T10:56:42Z</time>
      </trkpt>
      <trkpt lat="48.9941" lon="1.11395">
        <ele>93</ele>
        <time>2011-09-25T10:56:42Z</time>
      </trkpt>
      <trkpt lat="48.9941" lon="1.11395">
        <ele>93</ele>
        <time>2011-09-25T10:56:44Z</time>
      </trkpt>
      <trkpt lat="48.99415" lon="1.11396">
        <ele>93</ele>
        <time>2011-09-25T10:56:45Z</time>
      </trkpt>
      <trkpt lat="48.9942" lon="1.11397">
        <ele>99</ele>
        <time>2011-09-25T10:56:48Z</time>
      </trkpt>
      <trkpt lat="48.99425" lon="1.11398">
        <ele>99</ele>
        <time>2011-09-25T10:56:51Z</time>
      </trkpt>
      <trkpt lat="48.99431" lon="1.11399">
        <ele>99</ele>
        <time>2011-09-25T10:56:54Z</time>
      </trkpt>
      <trkpt lat="48.99436" lon="1.114">
        <ele>100</ele>
        <time>2011-09-25T10:56:57Z</time>
      </trkpt>
      <trkpt lat="48.99441" lon="1.11401">
        <ele>100</ele>
        <time>2011-09-25T10:57:00Z</time>
      </trkpt>
      <trkpt lat="48.99446" lon="1.11402">
        <ele>100</ele>
        <time>2011-09-25T10:57:03Z</time>
      </trkpt>
      <trkpt lat="48.99446" lon="1.11402">
        <ele>100</ele>
        <time>2011-09-25T10:57:03Z</time>
      </trkpt>
      <trkpt lat="48.99446" lon="1.11402">
        <ele>100</ele>
        <time>2011-09-25T10:57:04Z</time>
      </trkpt>
      <trkpt lat="48.99452" lon="1.11404">
        <ele>101</ele>
        <time>2011-09-25T10:57:07Z</time>
      </trkpt>
      <trkpt lat="48.99459" lon="1.11407">
        <ele>102</ele>
        <time>2011-09-25T10:57:12Z</time>
      </trkpt>
      <trkpt lat="48.99472" lon="1.11409">
        <ele>104</ele>
        <time>2011-09-25T10:57:21Z</time>
      </trkpt>
      <trkpt lat="48.99472" lon="1.11409">
        <ele>104</ele>
        <time>2011-09-25T10:57:21Z</time>
      </trkpt>
      <trkpt lat="48.99472" lon="1.11409">
        <ele>104</ele>
        <time>2011-09-25T10:57:26Z</time>
      </trkpt>
      <trkpt lat="48.99482" lon="1.11411">
        <ele>107</ele>
        <time>2011-09-25T10:57:27Z</time>
      </trkpt>
      <trkpt lat="48.99482" lon="1.11411">
        <ele>107</ele>
        <time>2011-09-25T10:57:27Z</time>
      </trkpt>
      <trkpt lat="48.99482" lon="1.11411">
        <ele>107</ele>
        <time>2011-09-25T10:57:29Z</time>
      </trkpt>
      <trkpt lat="48.99487" lon="1.11413">
        <ele>109</ele>
        <time>2011-09-25T10:57:31Z</time>
      </trkpt>
      <trkpt lat="48.99487" lon="1.11413">
        <ele>109</ele>
        <time>2011-09-25T10:57:31Z</time>
      </trkpt>
      <trkpt lat="48.99487" lon="1.11413">
        <ele>109</ele>
        <time>2011-09-25T10:57:32Z</time>
      </trkpt>
      <trkpt lat="48.99493" lon="1.11413">
        <ele>111</ele>
        <time>2011-09-25T10:57:35Z</time>
      </trkpt>
      <trkpt lat="48.99499" lon="1.11414">
        <ele>114</ele>
        <time>2011-09-25T10:57:39Z</time>
      </trkpt>
      <trkpt lat="48.99499" lon="1.11414">
        <ele>114</ele>
        <time>2011-09-25T10:57:39Z</time>
      </trkpt>
      <trkpt lat="48.99499" lon="1.11414">
        <ele>114</ele>
        <time>2011-09-25T10:57:41Z</time>
      </trkpt>
      <trkpt lat="48.99506" lon="1.11416">
        <ele>115</ele>
        <time>2011-09-25T10:57:42Z</time>
      </trkpt>
      <trkpt lat="48.99511" lon="1.11418">
        <ele>120</ele>
        <time>2011-09-25T10:57:45Z</time>
      </trkpt>
      <trkpt lat="48.99511" lon="1.11418">
        <ele>120</ele>
        <time>2011-09-25T10:57:45Z</time>
      </trkpt>
      <trkpt lat="48.99511" lon="1.11418">
        <ele>120</ele>
        <time>2011-09-25T10:57:48Z</time>
      </trkpt>
      <trkpt lat="48.99517" lon="1.1142">
        <ele>121</ele>
        <time>2011-09-25T10:57:49Z</time>
      </trkpt>
      <trkpt lat="48.99517" lon="1.1142">
        <ele>121</ele>
        <time>2011-09-25T10:57:49Z</time>
      </trkpt>
      <trkpt lat="48.99517" lon="1.1142">
        <ele>121</ele>
        <time>2011-09-25T10:57:51Z</time>
      </trkpt>
      <trkpt lat="48.99522" lon="1.1142">
        <ele>122</ele>
        <time>2011-09-25T10:57:52Z</time>
      </trkpt>
      <trkpt lat="48.99527" lon="1.11421">
        <ele>122</ele>
        <time>2011-09-25T10:57:56Z</time>
      </trkpt>
      <trkpt lat="48.99534" lon="1.11427">
        <ele>124</ele>
        <time>2011-09-25T10:58:03Z</time>
      </trkpt>
      <trkpt lat="48.99534" lon="1.11427">
        <ele>124</ele>
        <time>2011-09-25T10:58:03Z</time>
      </trkpt>
      <trkpt lat="48.99534" lon="1.11427">
        <ele>124</ele>
        <time>2011-09-25T10:58:05Z</time>
      </trkpt>
      <trkpt lat="48.99538" lon="1.11431">
        <ele>124</ele>
        <time>2011-09-25T10:58:07Z</time>
      </trkpt>
      <trkpt lat="48.99542" lon="1.11438">
        <ele>125</ele>
        <time>2011-09-25T10:58:12Z</time>
      </trkpt>
      <trkpt lat="48.99545" lon="1.11445">
        <ele>125</ele>
        <time>2011-09-25T10:58:16Z</time>
      </trkpt>
      <trkpt lat="48.99551" lon="1.11451">
        <ele>126</ele>
        <time>2011-09-25T10:58:23Z</time>
      </trkpt>
      <trkpt lat="48.99554" lon="1.11456">
        <ele>126</ele>
        <time>2011-09-25T10:58:29Z</time>
      </trkpt>
      <trkpt lat="48.99554" lon="1.11456">
        <ele>126</ele>
        <time>2011-09-25T10:58:29Z</time>
      </trkpt>
      <trkpt lat="48.99554" lon="1.11456">
        <ele>126</ele>
        <time>2011-09-25T10:58:32Z</time>
      </trkpt>
      <trkpt lat="48.99551" lon="1.11463">
        <ele>126</ele>
        <time>2011-09-25T10:58:34Z</time>
      </trkpt>
      <trkpt lat="48.99551" lon="1.11463">
        <ele>126</ele>
        <time>2011-09-25T10:58:34Z</time>
      </trkpt>
      <trkpt lat="48.99551" lon="1.11463">
        <ele>126</ele>
        <time>2011-09-25T10:58:35Z</time>
      </trkpt>
      <trkpt lat="48.99551" lon="1.1147">
        <ele>127</ele>
        <time>2011-09-25T10:58:38Z</time>
      </trkpt>
      <trkpt lat="48.99553" lon="1.11477">
        <ele>127</ele>
        <time>2011-09-25T10:58:43Z</time>
      </trkpt>
      <trkpt lat="48.99565" lon="1.11474">
        <ele>128</ele>
        <time>2011-09-25T10:58:49Z</time>
      </trkpt>
      <trkpt lat="48.99572" lon="1.11469">
        <ele>128</ele>
        <time>2011-09-25T10:58:51Z</time>
      </trkpt>
      <trkpt lat="48.99578" lon="1.11464">
        <ele>127</ele>
        <time>2011-09-25T10:58:53Z</time>
      </trkpt>
      <trkpt lat="48.99584" lon="1.11458">
        <ele>130</ele>
        <time>2011-09-25T10:58:55Z</time>
      </trkpt>
      <trkpt lat="48.9959" lon="1.11452">
        <ele>129</ele>
        <time>2011-09-25T10:58:57Z</time>
      </trkpt>
      <trkpt lat="48.99597" lon="1.11446">
        <ele>129</ele>
        <time>2011-09-25T10:58:59Z</time>
      </trkpt>
      <trkpt lat="48.99602" lon="1.11439">
        <ele>129</ele>
        <time>2011-09-25T10:59:01Z</time>
      </trkpt>
      <trkpt lat="48.99607" lon="1.11432">
        <ele>129</ele>
        <time>2011-09-25T10:59:03Z</time>
      </trkpt>
      <trkpt lat="48.99612" lon="1.11427">
        <ele>129</ele>
        <time>2011-09-25T10:59:05Z</time>
      </trkpt>
      <trkpt lat="48.99617" lon="1.11423">
        <ele>129</ele>
        <time>2011-09-25T10:59:07Z</time>
      </trkpt>
      <trkpt lat="48.99623" lon="1.11417">
        <ele>129</ele>
        <time>2011-09-25T10:59:09Z</time>
      </trkpt>
      <trkpt lat="48.99628" lon="1.1141">
        <ele>124</ele>
        <time>2011-09-25T10:59:11Z</time>
      </trkpt>
      <trkpt lat="48.99634" lon="1.11402">
        <ele>124</ele>
        <time>2011-09-25T10:59:13Z</time>
      </trkpt>
      <trkpt lat="48.9964" lon="1.11394">
        <ele>124</ele>
        <time>2011-09-25T10:59:15Z</time>
      </trkpt>
      <trkpt lat="48.99646" lon="1.11386">
        <ele>124</ele>
        <time>2011-09-25T10:59:17Z</time>
      </trkpt>
      <trkpt lat="48.99654" lon="1.1138">
        <ele>124</ele>
        <time>2011-09-25T10:59:19Z</time>
      </trkpt>
      <trkpt lat="48.9966" lon="1.11374">
        <ele>123</ele>
        <time>2011-09-25T10:59:21Z</time>
      </trkpt>
      <trkpt lat="48.99666" lon="1.11368">
        <ele>123</ele>
        <time>2011-09-25T10:59:23Z</time>
      </trkpt>
      <trkpt lat="48.99671" lon="1.11361">
        <ele>127</ele>
        <time>2011-09-25T10:59:25Z</time>
      </trkpt>
      <trkpt lat="48.99677" lon="1.11353">
        <ele>126</ele>
        <time>2011-09-25T10:59:27Z</time>
      </trkpt>
      <trkpt lat="48.99684" lon="1.11345">
        <ele>126</ele>
        <time>2011-09-25T10:59:29Z</time>
      </trkpt>
      <trkpt lat="48.99692" lon="1.1134">
        <ele>126</ele>
        <time>2011-09-25T10:59:31Z</time>
      </trkpt>
      <trkpt lat="48.99699" lon="1.11333">
        <ele>121</ele>
        <time>2011-09-25T10:59:33Z</time>
      </trkpt>
      <trkpt lat="48.99706" lon="1.11324">
        <ele>120</ele>
        <time>2011-09-25T10:59:35Z</time>
      </trkpt>
      <trkpt lat="48.99711" lon="1.11319">
        <ele>121</ele>
        <time>2011-09-25T10:59:36Z</time>
      </trkpt>
      <trkpt lat="48.99715" lon="1.11314">
        <ele>121</ele>
        <time>2011-09-25T10:59:37Z</time>
      </trkpt>
      <trkpt lat="48.99719" lon="1.11307">
        <ele>120</ele>
        <time>2011-09-25T10:59:38Z</time>
      </trkpt>
      <trkpt lat="48.99723" lon="1.113">
        <ele>120</ele>
        <time>2011-09-25T10:59:39Z</time>
      </trkpt>
      <trkpt lat="48.99728" lon="1.11292">
        <ele>120</ele>
        <time>2011-09-25T10:59:40Z</time>
      </trkpt>
      <trkpt lat="48.99732" lon="1.11284">
        <ele>119</ele>
        <time>2011-09-25T10:59:41Z</time>
      </trkpt>
      <trkpt lat="48.99736" lon="1.11276">
        <ele>119</ele>
        <time>2011-09-25T10:59:42Z</time>
      </trkpt>
      <trkpt lat="48.99741" lon="1.11269">
        <ele>119</ele>
        <time>2011-09-25T10:59:43Z</time>
      </trkpt>
      <trkpt lat="48.99745" lon="1.11261">
        <ele>119</ele>
        <time>2011-09-25T10:59:44Z</time>
      </trkpt>
      <trkpt lat="48.99749" lon="1.11253">
        <ele>120</ele>
        <time>2011-09-25T10:59:45Z</time>
      </trkpt>
      <trkpt lat="48.99754" lon="1.11245">
        <ele>120</ele>
        <time>2011-09-25T10:59:46Z</time>
      </trkpt>
      <trkpt lat="48.99759" lon="1.11239">
        <ele>119</ele>
        <time>2011-09-25T10:59:47Z</time>
      </trkpt>
      <trkpt lat="48.99764" lon="1.11232">
        <ele>119</ele>
        <time>2011-09-25T10:59:48Z</time>
      </trkpt>
      <trkpt lat="48.99768" lon="1.11226">
        <ele>118</ele>
        <time>2011-09-25T10:59:49Z</time>
      </trkpt>
      <trkpt lat="48.99773" lon="1.1122">
        <ele>118</ele>
        <time>2011-09-25T10:59:50Z</time>
      </trkpt>
      <trkpt lat="48.99778" lon="1.11214">
        <ele>118</ele>
        <time>2011-09-25T10:59:51Z</time>
      </trkpt>
      <trkpt lat="48.99782" lon="1.11208">
        <ele>118</ele>
        <time>2011-09-25T10:59:52Z</time>
      </trkpt>
      <trkpt lat="48.99786" lon="1.11202">
        <ele>118</ele>
        <time>2011-09-25T10:59:53Z</time>
      </trkpt>
      <trkpt lat="48.99791" lon="1.11196">
        <ele>118</ele>
        <time>2011-09-25T10:59:54Z</time>
      </trkpt>
      <trkpt lat="48.99794" lon="1.1119">
        <ele>118</ele>
        <time>2011-09-25T10:59:55Z</time>
      </trkpt>
      <trkpt lat="48.99798" lon="1.11184">
        <ele>118</ele>
        <time>2011-09-25T10:59:56Z</time>
      </trkpt>
      <trkpt lat="48.99803" lon="1.11178">
        <ele>118</ele>
        <time>2011-09-25T10:59:57Z</time>
      </trkpt>
      <trkpt lat="48.99807" lon="1.11172">
        <ele>119</ele>
        <time>2011-09-25T10:59:58Z</time>
      </trkpt>
      <trkpt lat="48.99812" lon="1.11166">
        <ele>112</ele>
        <time>2011-09-25T10:59:59Z</time>
      </trkpt>
      <trkpt lat="48.99816" lon="1.1116">
        <ele>113</ele>
        <time>2011-09-25T11:00:00Z</time>
      </trkpt>
      <trkpt lat="48.99821" lon="1.11154">
        <ele>113</ele>
        <time>2011-09-25T11:00:01Z</time>
      </trkpt>
      <trkpt lat="48.99826" lon="1.11147">
        <ele>112</ele>
        <time>2011-09-25T11:00:02Z</time>
      </trkpt>
      <trkpt lat="48.99831" lon="1.11139">
        <ele>110</ele>
        <time>2011-09-25T11:00:03Z</time>
      </trkpt>
      <trkpt lat="48.99836" lon="1.11132">
        <ele>115</ele>
        <time>2011-09-25T11:00:04Z</time>
      </trkpt>
      <trkpt lat="48.99842" lon="1.11126">
        <ele>114</ele>
        <time>2011-09-25T11:00:05Z</time>
      </trkpt>
      <trkpt lat="48.99847" lon="1.11118">
        <ele>113</ele>
        <time>2011-09-25T11:00:06Z</time>
      </trkpt>
      <trkpt lat="48.99852" lon="1.11111">
        <ele>112</ele>
        <time>2011-09-25T11:00:07Z</time>
      </trkpt>
      <trkpt lat="48.99857" lon="1.11104">
        <ele>112</ele>
        <time>2011-09-25T11:00:08Z</time>
      </trkpt>
      <trkpt lat="48.99862" lon="1.11098">
        <ele>111</ele>
        <time>2011-09-25T11:00:09Z</time>
      </trkpt>
      <trkpt lat="48.99866" lon="1.11092">
        <ele>111</ele>
        <time>2011-09-25T11:00:10Z</time>
      </trkpt>
      <trkpt lat="48.99871" lon="1.11087">
        <ele>111</ele>
        <time>2011-09-25T11:00:11Z</time>
      </trkpt>
      <trkpt lat="48.99875" lon="1.11083">
        <ele>102</ele>
        <time>2011-09-25T11:00:12Z</time>
      </trkpt>
      <trkpt lat="48.9988" lon="1.11081">
        <ele>102</ele>
        <time>2011-09-25T11:00:13Z</time>
      </trkpt>
      <trkpt lat="48.99885" lon="1.1108">
        <ele>103</ele>
        <time>2011-09-25T11:00:14Z</time>
      </trkpt>
      <trkpt lat="48.9989" lon="1.1108">
        <ele>103</ele>
        <time>2011-09-25T11:00:15Z</time>
      </trkpt>
      <trkpt lat="48.99894" lon="1.11081">
        <ele>104</ele>
        <time>2011-09-25T11:00:16Z</time>
      </trkpt>
      <trkpt lat="48.99899" lon="1.11083">
        <ele>105</ele>
        <time>2011-09-25T11:00:17Z</time>
      </trkpt>
      <trkpt lat="48.99905" lon="1.11084">
        <ele>111</ele>
        <time>2011-09-25T11:00:18Z</time>
      </trkpt>
      <trkpt lat="48.99911" lon="1.11084">
        <ele>111</ele>
        <time>2011-09-25T11:00:19Z</time>
      </trkpt>
      <trkpt lat="48.99916" lon="1.11085">
        <ele>110</ele>
        <time>2011-09-25T11:00:20Z</time>
      </trkpt>
      <trkpt lat="48.99921" lon="1.11087">
        <ele>110</ele>
        <time>2011-09-25T11:00:21Z</time>
      </trkpt>
      <trkpt lat="48.99925" lon="1.1109">
        <ele>110</ele>
        <time>2011-09-25T11:00:22Z</time>
      </trkpt>
      <trkpt lat="48.99932" lon="1.11096">
        <ele>110</ele>
        <time>2011-09-25T11:00:24Z</time>
      </trkpt>
      <trkpt lat="48.99939" lon="1.11102">
        <ele>110</ele>
        <time>2011-09-25T11:00:26Z</time>
      </trkpt>
      <trkpt lat="48.99946" lon="1.11108">
        <ele>110</ele>
        <time>2011-09-25T11:00:28Z</time>
      </trkpt>
      <trkpt lat="48.99953" lon="1.11114">
        <ele>110</ele>
        <time>2011-09-25T11:00:30Z</time>
      </trkpt>
      <trkpt lat="48.99959" lon="1.11118">
        <ele>110</ele>
        <time>2011-09-25T11:00:32Z</time>
      </trkpt>
      <trkpt lat="48.99965" lon="1.11122">
        <ele>110</ele>
        <time>2011-09-25T11:00:34Z</time>
      </trkpt>
      <trkpt lat="48.99971" lon="1.11127">
        <ele>110</ele>
        <time>2011-09-25T11:00:36Z</time>
      </trkpt>
      <trkpt lat="48.99978" lon="1.11132">
        <ele>110</ele>
        <time>2011-09-25T11:00:38Z</time>
      </trkpt>
      <trkpt lat="48.99984" lon="1.11135">
        <ele>110</ele>
        <time>2011-09-25T11:00:40Z</time>
      </trkpt>
      <trkpt lat="48.9999" lon="1.11138">
        <ele>111</ele>
        <time>2011-09-25T11:00:42Z</time>
      </trkpt>
      <trkpt lat="48.99993" lon="1.11146">
        <ele>111</ele>
        <time>2011-09-25T11:00:44Z</time>
      </trkpt>
      <trkpt lat="48.99997" lon="1.11153">
        <ele>112</ele>
        <time>2011-09-25T11:00:46Z</time>
      </trkpt>
      <trkpt lat="49.00004" lon="1.11154">
        <ele>108</ele>
        <time>2011-09-25T11:00:48Z</time>
      </trkpt>
      <trkpt lat="49.00012" lon="1.11156">
        <ele>107</ele>
        <time>2011-09-25T11:00:50Z</time>
      </trkpt>
      <trkpt lat="49.00017" lon="1.11157">
        <ele>107</ele>
        <time>2011-09-25T11:00:51Z</time>
      </trkpt>
      <trkpt lat="49.00022" lon="1.11159">
        <ele>106</ele>
        <time>2011-09-25T11:00:52Z</time>
      </trkpt>
      <trkpt lat="49.00027" lon="1.1116">
        <ele>105</ele>
        <time>2011-09-25T11:00:53Z</time>
      </trkpt>
      <trkpt lat="49.00031" lon="1.11162">
        <ele>105</ele>
        <time>2011-09-25T11:00:54Z</time>
      </trkpt>
      <trkpt lat="49.00037" lon="1.11165">
        <ele>104</ele>
        <time>2011-09-25T11:00:55Z</time>
      </trkpt>
      <trkpt lat="49.00042" lon="1.11168">
        <ele>112</ele>
        <time>2011-09-25T11:00:56Z</time>
      </trkpt>
      <trkpt lat="49.00048" lon="1.11171">
        <ele>111</ele>
        <time>2011-09-25T11:00:57Z</time>
      </trkpt>
      <trkpt lat="49.00053" lon="1.11174">
        <ele>111</ele>
        <time>2011-09-25T11:00:58Z</time>
      </trkpt>
      <trkpt lat="49.00058" lon="1.11176">
        <ele>110</ele>
        <time>2011-09-25T11:00:59Z</time>
      </trkpt>
      <trkpt lat="49.00063" lon="1.11177">
        <ele>110</ele>
        <time>2011-09-25T11:01:00Z</time>
      </trkpt>
      <trkpt lat="49.00069" lon="1.11178">
        <ele>109</ele>
        <time>2011-09-25T11:01:01Z</time>
      </trkpt>
      <trkpt lat="49.00074" lon="1.11179">
        <ele>109</ele>
        <time>2011-09-25T11:01:02Z</time>
      </trkpt>
      <trkpt lat="49.00079" lon="1.11181">
        <ele>108</ele>
        <time>2011-09-25T11:01:03Z</time>
      </trkpt>
      <trkpt lat="49.00084" lon="1.11182">
        <ele>104</ele>
        <time>2011-09-25T11:01:04Z</time>
      </trkpt>
      <trkpt lat="49.00089" lon="1.11184">
        <ele>104</ele>
        <time>2011-09-25T11:01:05Z</time>
      </trkpt>
      <trkpt lat="49.00096" lon="1.11186">
        <ele>103</ele>
        <time>2011-09-25T11:01:06Z</time>
      </trkpt>
      <trkpt lat="49.00103" lon="1.1119">
        <ele>103</ele>
        <time>2011-09-25T11:01:07Z</time>
      </trkpt>
      <trkpt lat="49.00112" lon="1.11194">
        <ele>103</ele>
        <time>2011-09-25T11:01:08Z</time>
      </trkpt>
      <trkpt lat="49.0012" lon="1.11198">
        <ele>102</ele>
        <time>2011-09-25T11:01:09Z</time>
      </trkpt>
      <trkpt lat="49.00128" lon="1.11203">
        <ele>102</ele>
        <time>2011-09-25T11:01:10Z</time>
      </trkpt>
      <trkpt lat="49.00137" lon="1.11206">
        <ele>101</ele>
        <time>2011-09-25T11:01:11Z</time>
      </trkpt>
      <trkpt lat="49.00145" lon="1.11211">
        <ele>101</ele>
        <time>2011-09-25T11:01:12Z</time>
      </trkpt>
      <trkpt lat="49.00152" lon="1.11215">
        <ele>101</ele>
        <time>2011-09-25T11:01:13Z</time>
      </trkpt>
      <trkpt lat="49.00161" lon="1.11221">
        <ele>101</ele>
        <time>2011-09-25T11:01:14Z</time>
      </trkpt>
      <trkpt lat="49.00169" lon="1.11226">
        <ele>95</ele>
        <time>2011-09-25T11:01:15Z</time>
      </trkpt>
      <trkpt lat="49.00177" lon="1.11232">
        <ele>96</ele>
        <time>2011-09-25T11:01:16Z</time>
      </trkpt>
      <trkpt lat="49.00186" lon="1.11236">
        <ele>96</ele>
        <time>2011-09-25T11:01:17Z</time>
      </trkpt>
      <trkpt lat="49.00193" lon="1.1124">
        <ele>95</ele>
        <time>2011-09-25T11:01:18Z</time>
      </trkpt>
      <trkpt lat="49.00201" lon="1.11242">
        <ele>94</ele>
        <time>2011-09-25T11:01:19Z</time>
      </trkpt>
      <trkpt lat="49.00209" lon="1.11244">
        <ele>93</ele>
        <time>2011-09-25T11:01:20Z</time>
      </trkpt>
      <trkpt lat="49.00217" lon="1.11245">
        <ele>93</ele>
        <time>2011-09-25T11:01:21Z</time>
      </trkpt>
      <trkpt lat="49.00224" lon="1.11248">
        <ele>92</ele>
        <time>2011-09-25T11:01:22Z</time>
      </trkpt>
      <trkpt lat="49.0023" lon="1.11251">
        <ele>99</ele>
        <time>2011-09-25T11:01:23Z</time>
      </trkpt>
      <trkpt lat="49.00236" lon="1.11254">
        <ele>98</ele>
        <time>2011-09-25T11:01:24Z</time>
      </trkpt>
      <trkpt lat="49.00241" lon="1.11256">
        <ele>97</ele>
        <time>2011-09-25T11:01:25Z</time>
      </trkpt>
      <trkpt lat="49.00246" lon="1.11258">
        <ele>96</ele>
        <time>2011-09-25T11:01:26Z</time>
      </trkpt>
      <trkpt lat="49.00251" lon="1.11258">
        <ele>93</ele>
        <time>2011-09-25T11:01:27Z</time>
      </trkpt>
      <trkpt lat="49.00256" lon="1.11259">
        <ele>93</ele>
        <time>2011-09-25T11:01:28Z</time>
      </trkpt>
      <trkpt lat="49.00261" lon="1.1126">
        <ele>94</ele>
        <time>2011-09-25T11:01:29Z</time>
      </trkpt>
      <trkpt lat="49.00265" lon="1.11262">
        <ele>94</ele>
        <time>2011-09-25T11:01:30Z</time>
      </trkpt>
      <trkpt lat="49.0027" lon="1.11263">
        <ele>94</ele>
        <time>2011-09-25T11:01:31Z</time>
      </trkpt>
      <trkpt lat="49.00278" lon="1.11268">
        <ele>94</ele>
        <time>2011-09-25T11:01:33Z</time>
      </trkpt>
      <trkpt lat="49.00287" lon="1.11272">
        <ele>94</ele>
        <time>2011-09-25T11:01:35Z</time>
      </trkpt>
      <trkpt lat="49.00291" lon="1.11275">
        <ele>94</ele>
        <time>2011-09-25T11:01:36Z</time>
      </trkpt>
      <trkpt lat="49.00298" lon="1.11282">
        <ele>94</ele>
        <time>2011-09-25T11:01:38Z</time>
      </trkpt>
      <trkpt lat="49.00303" lon="1.11286">
        <ele>94</ele>
        <time>2011-09-25T11:01:40Z</time>
      </trkpt>
      <trkpt lat="49.0031" lon="1.11286">
        <ele>94</ele>
        <time>2011-09-25T11:01:42Z</time>
      </trkpt>
      <trkpt lat="49.00316" lon="1.11286">
        <ele>94</ele>
        <time>2011-09-25T11:01:44Z</time>
      </trkpt>
      <trkpt lat="49.0032" lon="1.11288">
        <ele>94</ele>
        <time>2011-09-25T11:01:45Z</time>
      </trkpt>
      <trkpt lat="49.00327" lon="1.11292">
        <ele>94</ele>
        <time>2011-09-25T11:01:46Z</time>
      </trkpt>
      <trkpt lat="49.00333" lon="1.11296">
        <ele>94</ele>
        <time>2011-09-25T11:01:47Z</time>
      </trkpt>
      <trkpt lat="49.0034" lon="1.11301">
        <ele>89</ele>
        <time>2011-09-25T11:01:48Z</time>
      </trkpt>
      <trkpt lat="49.00347" lon="1.11305">
        <ele>89</ele>
        <time>2011-09-25T11:01:49Z</time>
      </trkpt>
      <trkpt lat="49.00354" lon="1.11309">
        <ele>89</ele>
        <time>2011-09-25T11:01:50Z</time>
      </trkpt>
      <trkpt lat="49.0036" lon="1.11312">
        <ele>88</ele>
        <time>2011-09-25T11:01:51Z</time>
      </trkpt>
      <trkpt lat="49.00364" lon="1.11315">
        <ele>88</ele>
        <time>2011-09-25T11:01:52Z</time>
      </trkpt>
      <trkpt lat="49.0037" lon="1.11319">
        <ele>88</ele>
        <time>2011-09-25T11:01:54Z</time>
      </trkpt>
      <trkpt lat="49.00376" lon="1.11323">
        <ele>87</ele>
        <time>2011-09-25T11:01:56Z</time>
      </trkpt>
      <trkpt lat="49.00383" lon="1.11327">
        <ele>87</ele>
        <time>2011-09-25T11:01:58Z</time>
      </trkpt>
      <trkpt lat="49.00388" lon="1.11331">
        <ele>86</ele>
        <time>2011-09-25T11:02:00Z</time>
      </trkpt>
      <trkpt lat="49.0039" lon="1.11337">
        <ele>91</ele>
        <time>2011-09-25T11:02:03Z</time>
      </trkpt>
      <trkpt lat="49.00389" lon="1.11344">
        <ele>91</ele>
        <time>2011-09-25T11:02:06Z</time>
      </trkpt>
      <trkpt lat="49.0038" lon="1.11351">
        <ele>93</ele>
        <time>2011-09-25T11:02:27Z</time>
      </trkpt>
      <trkpt lat="49.00374" lon="1.11354">
        <ele>94</ele>
        <time>2011-09-25T11:02:29Z</time>
      </trkpt>
      <trkpt lat="49.0037" lon="1.11355">
        <ele>94</ele>
        <time>2011-09-25T11:02:31Z</time>
      </trkpt>
      <trkpt lat="49.00364" lon="1.11357">
        <ele>95</ele>
        <time>2011-09-25T11:02:34Z</time>
      </trkpt>
      <trkpt lat="49.00364" lon="1.11357">
        <ele>95</ele>
        <time>2011-09-25T11:02:34Z</time>
      </trkpt>
      <trkpt lat="49.00364" lon="1.11357">
        <ele>95</ele>
        <time>2011-09-25T11:02:35Z</time>
      </trkpt>
      <trkpt lat="49.00358" lon="1.11359">
        <ele>95</ele>
        <time>2011-09-25T11:02:37Z</time>
      </trkpt>
      <trkpt lat="49.00353" lon="1.11361">
        <ele>96</ele>
        <time>2011-09-25T11:02:40Z</time>
      </trkpt>
      <trkpt lat="49.00346" lon="1.11364">
        <ele>96</ele>
        <time>2011-09-25T11:02:44Z</time>
      </trkpt>
      <trkpt lat="49.0034" lon="1.11366">
        <ele>96</ele>
        <time>2011-09-25T11:02:47Z</time>
      </trkpt>
      <trkpt lat="49.00329" lon="1.11371">
        <ele>105</ele>
        <time>2011-09-25T11:02:54Z</time>
      </trkpt>
      <trkpt lat="49.00324" lon="1.11372">
        <ele>105</ele>
        <time>2011-09-25T11:02:57Z</time>
      </trkpt>
      <trkpt lat="49.00314" lon="1.11373">
        <ele>106</ele>
        <time>2011-09-25T11:03:03Z</time>
      </trkpt>
      <trkpt lat="49.00309" lon="1.11375">
        <ele>106</ele>
        <time>2011-09-25T11:03:07Z</time>
      </trkpt>
      <trkpt lat="49.00309" lon="1.11375">
        <ele>106</ele>
        <time>2011-09-25T11:03:07Z</time>
      </trkpt>
      <trkpt lat="49.00309" lon="1.11375">
        <ele>106</ele>
        <time>2011-09-25T11:03:08Z</time>
      </trkpt>
      <trkpt lat="49.00304" lon="1.11377">
        <ele>107</ele>
        <time>2011-09-25T11:03:11Z</time>
      </trkpt>
      <trkpt lat="49.00296" lon="1.11381">
        <ele>108</ele>
        <time>2011-09-25T11:03:19Z</time>
      </trkpt>
      <trkpt lat="49.00289" lon="1.11383">
        <ele>108</ele>
        <time>2011-09-25T11:03:23Z</time>
      </trkpt>
      <trkpt lat="49.00289" lon="1.11383">
        <ele>108</ele>
        <time>2011-09-25T11:03:23Z</time>
      </trkpt>
      <trkpt lat="49.00289" lon="1.11383">
        <ele>108</ele>
        <time>2011-09-25T11:03:27Z</time>
      </trkpt>
      <trkpt lat="49.00282" lon="1.11384">
        <ele>109</ele>
        <time>2011-09-25T11:03:28Z</time>
      </trkpt>
      <trkpt lat="49.00282" lon="1.11384">
        <ele>109</ele>
        <time>2011-09-25T11:03:28Z</time>
      </trkpt>
      <trkpt lat="49.00282" lon="1.11384">
        <ele>109</ele>
        <time>2011-09-25T11:03:32Z</time>
      </trkpt>
      <trkpt lat="49.00272" lon="1.11387">
        <ele>110</ele>
        <time>2011-09-25T11:03:33Z</time>
      </trkpt>
      <trkpt lat="49.00272" lon="1.11387">
        <ele>110</ele>
        <time>2011-09-25T11:03:33Z</time>
      </trkpt>
      <trkpt lat="49.00272" lon="1.11387">
        <ele>110</ele>
        <time>2011-09-25T11:03:37Z</time>
      </trkpt>
      <trkpt lat="49.00263" lon="1.1139">
        <ele>111</ele>
        <time>2011-09-25T11:03:38Z</time>
      </trkpt>
      <trkpt lat="49.00263" lon="1.1139">
        <ele>111</ele>
        <time>2011-09-25T11:03:38Z</time>
      </trkpt>
      <trkpt lat="49.00263" lon="1.1139">
        <ele>111</ele>
        <time>2011-09-25T11:03:40Z</time>
      </trkpt>
      <trkpt lat="49.00258" lon="1.11392">
        <ele>111</ele>
        <time>2011-09-25T11:03:41Z</time>
      </trkpt>
      <trkpt lat="49.00246" lon="1.11397">
        <ele>117</ele>
        <time>2011-09-25T11:03:47Z</time>
      </trkpt>
      <trkpt lat="49.00241" lon="1.11399">
        <ele>117</ele>
        <time>2011-09-25T11:03:50Z</time>
      </trkpt>
      <trkpt lat="49.00234" lon="1.11404">
        <ele>117</ele>
        <time>2011-09-25T11:03:56Z</time>
      </trkpt>
      <trkpt lat="49.00234" lon="1.11404">
        <ele>117</ele>
        <time>2011-09-25T11:03:56Z</time>
      </trkpt>
      <trkpt lat="49.00234" lon="1.11404">
        <ele>117</ele>
        <time>2011-09-25T11:03:57Z</time>
      </trkpt>
      <trkpt lat="49.00222" lon="1.11412">
        <ele>118</ele>
        <time>2011-09-25T11:04:05Z</time>
      </trkpt>
      <trkpt lat="49.00222" lon="1.11412">
        <ele>118</ele>
        <time>2011-09-25T11:04:05Z</time>
      </trkpt>
      <trkpt lat="49.00222" lon="1.11412">
        <ele>118</ele>
        <time>2011-09-25T11:04:06Z</time>
      </trkpt>
      <trkpt lat="49.0021" lon="1.11414">
        <ele>118</ele>
        <time>2011-09-25T11:04:11Z</time>
      </trkpt>
      <trkpt lat="49.0021" lon="1.11414">
        <ele>118</ele>
        <time>2011-09-25T11:04:11Z</time>
      </trkpt>
      <trkpt lat="49.0021" lon="1.11414">
        <ele>118</ele>
        <time>2011-09-25T11:04:15Z</time>
      </trkpt>
      <trkpt lat="49.002" lon="1.11418">
        <ele>123</ele>
        <time>2011-09-25T11:04:16Z</time>
      </trkpt>
      <trkpt lat="49.002" lon="1.11418">
        <ele>123</ele>
        <time>2011-09-25T11:04:16Z</time>
      </trkpt>
      <trkpt lat="49.002" lon="1.11418">
        <ele>123</ele>
        <time>2011-09-25T11:04:20Z</time>
      </trkpt>
      <trkpt lat="49.0019" lon="1.1142">
        <ele>123</ele>
        <time>2011-09-25T11:04:21Z</time>
      </trkpt>
      <trkpt lat="49.0019" lon="1.1142">
        <ele>123</ele>
        <time>2011-09-25T11:04:21Z</time>
      </trkpt>
      <trkpt lat="49.0019" lon="1.1142">
        <ele>123</ele>
        <time>2011-09-25T11:04:25Z</time>
      </trkpt>
      <trkpt lat="49.00179" lon="1.11424">
        <ele>124</ele>
        <time>2011-09-25T11:04:26Z</time>
      </trkpt>
      <trkpt lat="49.00179" lon="1.11424">
        <ele>124</ele>
        <time>2011-09-25T11:04:26Z</time>
      </trkpt>
      <trkpt lat="49.00179" lon="1.11424">
        <ele>124</ele>
        <time>2011-09-25T11:04:29Z</time>
      </trkpt>
      <trkpt lat="49.00169" lon="1.11428">
        <ele>124</ele>
        <time>2011-09-25T11:04:30Z</time>
      </trkpt>
      <trkpt lat="49.00169" lon="1.11428">
        <ele>124</ele>
        <time>2011-09-25T11:04:30Z</time>
      </trkpt>
      <trkpt lat="49.00169" lon="1.11428">
        <ele>124</ele>
        <time>2011-09-25T11:04:33Z</time>
      </trkpt>
      <trkpt lat="49.00161" lon="1.1143">
        <ele>126</ele>
        <time>2011-09-25T11:04:34Z</time>
      </trkpt>
      <trkpt lat="49.00161" lon="1.1143">
        <ele>126</ele>
        <time>2011-09-25T11:04:34Z</time>
      </trkpt>
      <trkpt lat="49.00161" lon="1.1143">
        <ele>126</ele>
        <time>2011-09-25T11:04:37Z</time>
      </trkpt>
      <trkpt lat="49.00152" lon="1.11434">
        <ele>127</ele>
        <time>2011-09-25T11:04:38Z</time>
      </trkpt>
      <trkpt lat="49.00152" lon="1.11434">
        <ele>127</ele>
        <time>2011-09-25T11:04:38Z</time>
      </trkpt>
      <trkpt lat="49.00152" lon="1.11434">
        <ele>127</ele>
        <time>2011-09-25T11:04:41Z</time>
      </trkpt>
      <trkpt lat="49.00143" lon="1.11438">
        <ele>127</ele>
        <time>2011-09-25T11:04:42Z</time>
      </trkpt>
      <trkpt lat="49.00143" lon="1.11438">
        <ele>127</ele>
        <time>2011-09-25T11:04:42Z</time>
      </trkpt>
      <trkpt lat="49.00143" lon="1.11438">
        <ele>127</ele>
        <time>2011-09-25T11:04:45Z</time>
      </trkpt>
      <trkpt lat="49.00134" lon="1.11442">
        <ele>128</ele>
        <time>2011-09-25T11:04:46Z</time>
      </trkpt>
      <trkpt lat="49.00134" lon="1.11442">
        <ele>128</ele>
        <time>2011-09-25T11:04:46Z</time>
      </trkpt>
      <trkpt lat="49.00134" lon="1.11442">
        <ele>128</ele>
        <time>2011-09-25T11:04:48Z</time>
      </trkpt>
      <trkpt lat="49.00127" lon="1.11445">
        <ele>128</ele>
        <time>2011-09-25T11:04:49Z</time>
      </trkpt>
      <trkpt lat="49.00121" lon="1.11447">
        <ele>128</ele>
        <time>2011-09-25T11:04:52Z</time>
      </trkpt>
      <trkpt lat="49.00116" lon="1.11449">
        <ele>129</ele>
        <time>2011-09-25T11:04:54Z</time>
      </trkpt>
      <trkpt lat="49.00112" lon="1.11452">
        <ele>129</ele>
        <time>2011-09-25T11:04:56Z</time>
      </trkpt>
      <trkpt lat="49.00107" lon="1.11453">
        <ele>129</ele>
        <time>2011-09-25T11:04:58Z</time>
      </trkpt>
      <trkpt lat="49.00102" lon="1.11454">
        <ele>129</ele>
        <time>2011-09-25T11:05:00Z</time>
      </trkpt>
      <trkpt lat="49.00098" lon="1.11455">
        <ele>129</ele>
        <time>2011-09-25T11:05:02Z</time>
      </trkpt>
      <trkpt lat="49.00093" lon="1.11458">
        <ele>129</ele>
        <time>2011-09-25T11:05:04Z</time>
      </trkpt>
      <trkpt lat="49.00087" lon="1.1146">
        <ele>129</ele>
        <time>2011-09-25T11:05:06Z</time>
      </trkpt>
      <trkpt lat="49.00083" lon="1.11462">
        <ele>132</ele>
        <time>2011-09-25T11:05:08Z</time>
      </trkpt>
      <trkpt lat="49.00078" lon="1.11464">
        <ele>132</ele>
        <time>2011-09-25T11:05:10Z</time>
      </trkpt>
      <trkpt lat="49.00072" lon="1.11466">
        <ele>132</ele>
        <time>2011-09-25T11:05:12Z</time>
      </trkpt>
      <trkpt lat="49.00067" lon="1.11467">
        <ele>132</ele>
        <time>2011-09-25T11:05:14Z</time>
      </trkpt>
      <trkpt lat="49.00061" lon="1.1147">
        <ele>132</ele>
        <time>2011-09-25T11:05:16Z</time>
      </trkpt>
      <trkpt lat="49.00056" lon="1.11471">
        <ele>132</ele>
        <time>2011-09-25T11:05:18Z</time>
      </trkpt>
      <trkpt lat="49.0005" lon="1.11474">
        <ele>132</ele>
        <time>2011-09-25T11:05:20Z</time>
      </trkpt>
      <trkpt lat="49.00043" lon="1.11477">
        <ele>132</ele>
        <time>2011-09-25T11:05:22Z</time>
      </trkpt>
      <trkpt lat="49.00036" lon="1.1148">
        <ele>132</ele>
        <time>2011-09-25T11:05:24Z</time>
      </trkpt>
      <trkpt lat="49.0003" lon="1.11484">
        <ele>132</ele>
        <time>2011-09-25T11:05:26Z</time>
      </trkpt>
      <trkpt lat="49.00022" lon="1.11486">
        <ele>132</ele>
        <time>2011-09-25T11:05:28Z</time>
      </trkpt>
      <trkpt lat="49.00015" lon="1.1149">
        <ele>132</ele>
        <time>2011-09-25T11:05:30Z</time>
      </trkpt>
      <trkpt lat="49.00007" lon="1.11494">
        <ele>133</ele>
        <time>2011-09-25T11:05:32Z</time>
      </trkpt>
      <trkpt lat="49" lon="1.115">
        <ele>133</ele>
        <time>2011-09-25T11:05:34Z</time>
      </trkpt>
      <trkpt lat="48.99993" lon="1.11502">
        <ele>133</ele>
        <time>2011-09-25T11:05:36Z</time>
      </trkpt>
      <trkpt lat="48.99985" lon="1.11507">
        <ele>133</ele>
        <time>2011-09-25T11:05:38Z</time>
      </trkpt>
      <trkpt lat="48.9998" lon="1.11514">
        <ele>133</ele>
        <time>2011-09-25T11:05:40Z</time>
      </trkpt>
      <trkpt lat="48.9997" lon="1.11522">
        <ele>133</ele>
        <time>2011-09-25T11:05:45Z</time>
      </trkpt>
      <trkpt lat="48.99964" lon="1.11523">
        <ele>133</ele>
        <time>2011-09-25T11:05:47Z</time>
      </trkpt>
      <trkpt lat="48.99958" lon="1.11525">
        <ele>133</ele>
        <time>2011-09-25T11:05:49Z</time>
      </trkpt>
      <trkpt lat="48.9995" lon="1.11528">
        <ele>133</ele>
        <time>2011-09-25T11:05:51Z</time>
      </trkpt>
      <trkpt lat="48.99942" lon="1.11534">
        <ele>133</ele>
        <time>2011-09-25T11:05:53Z</time>
      </trkpt>
      <trkpt lat="48.99935" lon="1.11538">
        <ele>133</ele>
        <time>2011-09-25T11:05:55Z</time>
      </trkpt>
      <trkpt lat="48.99928" lon="1.11542">
        <ele>133</ele>
        <time>2011-09-25T11:05:57Z</time>
      </trkpt>
      <trkpt lat="48.99922" lon="1.11545">
        <ele>132</ele>
        <time>2011-09-25T11:05:59Z</time>
      </trkpt>
      <trkpt lat="48.99916" lon="1.11547">
        <ele>132</ele>
        <time>2011-09-25T11:06:01Z</time>
      </trkpt>
      <trkpt lat="48.99911" lon="1.11548">
        <ele>132</ele>
        <time>2011-09-25T11:06:03Z</time>
      </trkpt>
      <trkpt lat="48.99905" lon="1.1155">
        <ele>132</ele>
        <time>2011-09-25T11:06:05Z</time>
      </trkpt>
      <trkpt lat="48.99899" lon="1.11553">
        <ele>132</ele>
        <time>2011-09-25T11:06:07Z</time>
      </trkpt>
      <trkpt lat="48.99893" lon="1.11556">
        <ele>132</ele>
        <time>2011-09-25T11:06:09Z</time>
      </trkpt>
      <trkpt lat="48.99885" lon="1.11559">
        <ele>132</ele>
        <time>2011-09-25T11:06:11Z</time>
      </trkpt>
      <trkpt lat="48.9988" lon="1.11561">
        <ele>132</ele>
        <time>2011-09-25T11:06:12Z</time>
      </trkpt>
      <trkpt lat="48.99876" lon="1.11564">
        <ele>132</ele>
        <time>2011-09-25T11:06:13Z</time>
      </trkpt>
      <trkpt lat="48.99871" lon="1.11567">
        <ele>132</ele>
        <time>2011-09-25T11:06:14Z</time>
      </trkpt>
      <trkpt lat="48.99863" lon="1.11571">
        <ele>132</ele>
        <time>2011-09-25T11:06:16Z</time>
      </trkpt>
      <trkpt lat="48.99854" lon="1.11575">
        <ele>132</ele>
        <time>2011-09-25T11:06:18Z</time>
      </trkpt>
      <trkpt lat="48.99846" lon="1.11579">
        <ele>132</ele>
        <time>2011-09-25T11:06:20Z</time>
      </trkpt>
      <trkpt lat="48.99841" lon="1.11582">
        <ele>132</ele>
        <time>2011-09-25T11:06:21Z</time>
      </trkpt>
      <trkpt lat="48.99837" lon="1.11584">
        <ele>132</ele>
        <time>2011-09-25T11:06:22Z</time>
      </trkpt>
      <trkpt lat="48.99832" lon="1.11586">
        <ele>132</ele>
        <time>2011-09-25T11:06:23Z</time>
      </trkpt>
      <trkpt lat="48.99823" lon="1.1159">
        <ele>132</ele>
        <time>2011-09-25T11:06:25Z</time>
      </trkpt>
      <trkpt lat="48.99818" lon="1.11591">
        <ele>131</ele>
        <time>2011-09-25T11:06:26Z</time>
      </trkpt>
      <trkpt lat="48.99813" lon="1.11593">
        <ele>131</ele>
        <time>2011-09-25T11:06:27Z</time>
      </trkpt>
      <trkpt lat="48.99805" lon="1.11597">
        <ele>131</ele>
        <time>2011-09-25T11:06:29Z</time>
      </trkpt>
      <trkpt lat="48.99798" lon="1.11603">
        <ele>131</ele>
        <time>2011-09-25T11:06:31Z</time>
      </trkpt>
      <trkpt lat="48.9979" lon="1.11605">
        <ele>131</ele>
        <time>2011-09-25T11:06:33Z</time>
      </trkpt>
      <trkpt lat="48.9978" lon="1.1161">
        <ele>131</ele>
        <time>2011-09-25T11:06:35Z</time>
      </trkpt>
      <trkpt lat="48.99776" lon="1.11614">
        <ele>131</ele>
        <time>2011-09-25T11:06:36Z</time>
      </trkpt>
      <trkpt lat="48.99771" lon="1.11618">
        <ele>131</ele>
        <time>2011-09-25T11:06:37Z</time>
      </trkpt>
      <trkpt lat="48.99767" lon="1.11623">
        <ele>131</ele>
        <time>2011-09-25T11:06:38Z</time>
      </trkpt>
      <trkpt lat="48.99763" lon="1.1163">
        <ele>131</ele>
        <time>2011-09-25T11:06:39Z</time>
      </trkpt>
      <trkpt lat="48.99759" lon="1.11637">
        <ele>131</ele>
        <time>2011-09-25T11:06:40Z</time>
      </trkpt>
      <trkpt lat="48.99756" lon="1.11644">
        <ele>131</ele>
        <time>2011-09-25T11:06:41Z</time>
      </trkpt>
      <trkpt lat="48.99753" lon="1.11651">
        <ele>130</ele>
        <time>2011-09-25T11:06:42Z</time>
      </trkpt>
      <trkpt lat="48.9975" lon="1.11657">
        <ele>130</ele>
        <time>2011-09-25T11:06:43Z</time>
      </trkpt>
      <trkpt lat="48.99746" lon="1.11664">
        <ele>130</ele>
        <time>2011-09-25T11:06:44Z</time>
      </trkpt>
      <trkpt lat="48.99744" lon="1.11671">
        <ele>129</ele>
        <time>2011-09-25T11:06:45Z</time>
      </trkpt>
      <trkpt lat="48.99742" lon="1.11679">
        <ele>129</ele>
        <time>2011-09-25T11:06:46Z</time>
      </trkpt>
      <trkpt lat="48.9974" lon="1.11686">
        <ele>129</ele>
        <time>2011-09-25T11:06:47Z</time>
      </trkpt>
      <trkpt lat="48.99738" lon="1.11695">
        <ele>128</ele>
        <time>2011-09-25T11:06:48Z</time>
      </trkpt>
      <trkpt lat="48.99737" lon="1.11703">
        <ele>128</ele>
        <time>2011-09-25T11:06:49Z</time>
      </trkpt>
      <trkpt lat="48.99736" lon="1.11711">
        <ele>128</ele>
        <time>2011-09-25T11:06:50Z</time>
      </trkpt>
      <trkpt lat="48.99735" lon="1.11719">
        <ele>128</ele>
        <time>2011-09-25T11:06:51Z</time>
      </trkpt>
      <trkpt lat="48.99735" lon="1.11727">
        <ele>128</ele>
        <time>2011-09-25T11:06:52Z</time>
      </trkpt>
      <trkpt lat="48.99735" lon="1.11735">
        <ele>128</ele>
        <time>2011-09-25T11:06:53Z</time>
      </trkpt>
      <trkpt lat="48.99734" lon="1.11743">
        <ele>128</ele>
        <time>2011-09-25T11:06:54Z</time>
      </trkpt>
      <trkpt lat="48.99734" lon="1.11752">
        <ele>127</ele>
        <time>2011-09-25T11:06:55Z</time>
      </trkpt>
      <trkpt lat="48.99735" lon="1.1176">
        <ele>127</ele>
        <time>2011-09-25T11:06:56Z</time>
      </trkpt>
      <trkpt lat="48.99735" lon="1.11768">
        <ele>127</ele>
        <time>2011-09-25T11:06:57Z</time>
      </trkpt>
      <trkpt lat="48.99735" lon="1.11777">
        <ele>126</ele>
        <time>2011-09-25T11:06:58Z</time>
      </trkpt>
      <trkpt lat="48.99734" lon="1.11785">
        <ele>126</ele>
        <time>2011-09-25T11:06:59Z</time>
      </trkpt>
      <trkpt lat="48.99734" lon="1.11794">
        <ele>125</ele>
        <time>2011-09-25T11:07:00Z</time>
      </trkpt>
      <trkpt lat="48.99734" lon="1.11803">
        <ele>125</ele>
        <time>2011-09-25T11:07:01Z</time>
      </trkpt>
      <trkpt lat="48.99734" lon="1.11812">
        <ele>125</ele>
        <time>2011-09-25T11:07:02Z</time>
      </trkpt>
      <trkpt lat="48.99734" lon="1.11821">
        <ele>125</ele>
        <time>2011-09-25T11:07:03Z</time>
      </trkpt>
      <trkpt lat="48.99734" lon="1.1183">
        <ele>124</ele>
        <time>2011-09-25T11:07:04Z</time>
      </trkpt>
      <trkpt lat="48.99734" lon="1.11838">
        <ele>124</ele>
        <time>2011-09-25T11:07:05Z</time>
      </trkpt>
      <trkpt lat="48.99734" lon="1.11846">
        <ele>124</ele>
        <time>2011-09-25T11:07:06Z</time>
      </trkpt>
      <trkpt lat="48.99735" lon="1.11854">
        <ele>124</ele>
        <time>2011-09-25T11:07:07Z</time>
      </trkpt>
      <trkpt lat="48.99734" lon="1.11862">
        <ele>124</ele>
        <time>2011-09-25T11:07:08Z</time>
      </trkpt>
      <trkpt lat="48.99734" lon="1.1187">
        <ele>124</ele>
        <time>2011-09-25T11:07:09Z</time>
      </trkpt>
      <trkpt lat="48.99734" lon="1.11881">
        <ele>124</ele>
        <time>2011-09-25T11:07:11Z</time>
      </trkpt>
      <trkpt lat="48.99733" lon="1.11889">
        <ele>124</ele>
        <time>2011-09-25T11:07:13Z</time>
      </trkpt>
      <trkpt lat="48.99738" lon="1.11896">
        <ele>124</ele>
        <time>2011-09-25T11:07:15Z</time>
      </trkpt>
      <trkpt lat="48.99742" lon="1.11902">
        <ele>124</ele>
        <time>2011-09-25T11:07:17Z</time>
      </trkpt>
      <trkpt lat="48.99746" lon="1.11907">
        <ele>124</ele>
        <time>2011-09-25T11:07:19Z</time>
      </trkpt>
      <trkpt lat="48.9975" lon="1.11916">
        <ele>124</ele>
        <time>2011-09-25T11:07:22Z</time>
      </trkpt>
      <trkpt lat="48.99753" lon="1.11924">
        <ele>125</ele>
        <time>2011-09-25T11:07:24Z</time>
      </trkpt>
      <trkpt lat="48.99759" lon="1.1193">
        <ele>125</ele>
        <time>2011-09-25T11:07:26Z</time>
      </trkpt>
      <trkpt lat="48.99766" lon="1.11935">
        <ele>126</ele>
        <time>2011-09-25T11:07:28Z</time>
      </trkpt>
      <trkpt lat="48.99771" lon="1.11942">
        <ele>126</ele>
        <time>2011-09-25T11:07:30Z</time>
      </trkpt>
      <trkpt lat="48.99775" lon="1.11948">
        <ele>126</ele>
        <time>2011-09-25T11:07:32Z</time>
      </trkpt>
      <trkpt lat="48.99779" lon="1.11955">
        <ele>127</ele>
        <time>2011-09-25T11:07:34Z</time>
      </trkpt>
      <trkpt lat="48.99782" lon="1.1196">
        <ele>127</ele>
        <time>2011-09-25T11:07:36Z</time>
      </trkpt>
      <trkpt lat="48.99788" lon="1.11965">
        <ele>127</ele>
        <time>2011-09-25T11:07:38Z</time>
      </trkpt>
      <trkpt lat="48.99794" lon="1.1197">
        <ele>127</ele>
        <time>2011-09-25T11:07:40Z</time>
      </trkpt>
      <trkpt lat="48.99799" lon="1.11976">
        <ele>127</ele>
        <time>2011-09-25T11:07:42Z</time>
      </trkpt>
      <trkpt lat="48.99803" lon="1.11982">
        <ele>127</ele>
        <time>2011-09-25T11:07:44Z</time>
      </trkpt>
      <trkpt lat="48.99806" lon="1.11989">
        <ele>127</ele>
        <time>2011-09-25T11:07:46Z</time>
      </trkpt>
      <trkpt lat="48.9981" lon="1.11998">
        <ele>127</ele>
        <time>2011-09-25T11:07:50Z</time>
      </trkpt>
      <trkpt lat="48.9981" lon="1.11998">
        <ele>127</ele>
        <time>2011-09-25T11:07:50Z</time>
      </trkpt>
      <trkpt lat="48.9981" lon="1.11998">
        <ele>127</ele>
        <time>2011-09-25T11:07:51Z</time>
      </trkpt>
      <trkpt lat="48.99814" lon="1.12">
        <ele>129</ele>
        <time>2011-09-25T11:07:55Z</time>
      </trkpt>
      <trkpt lat="48.9982" lon="1.12003">
        <ele>129</ele>
        <time>2011-09-25T11:07:59Z</time>
      </trkpt>
      <trkpt lat="48.99826" lon="1.12004">
        <ele>129</ele>
        <time>2011-09-25T11:08:02Z</time>
      </trkpt>
      <trkpt lat="48.99832" lon="1.12002">
        <ele>128</ele>
        <time>2011-09-25T11:08:04Z</time>
      </trkpt>
      <trkpt lat="48.9984" lon="1.12">
        <ele>128</ele>
        <time>2011-09-25T11:08:06Z</time>
      </trkpt>
      <trkpt lat="48.99848" lon="1.11997">
        <ele>127</ele>
        <time>2011-09-25T11:08:08Z</time>
      </trkpt>
      <trkpt lat="48.99855" lon="1.11994">
        <ele>126</ele>
        <time>2011-09-25T11:08:10Z</time>
      </trkpt>
      <trkpt lat="48.99861" lon="1.11988">
        <ele>126</ele>
        <time>2011-09-25T11:08:12Z</time>
      </trkpt>
      <trkpt lat="48.99866" lon="1.11986">
        <ele>125</ele>
        <time>2011-09-25T11:08:13Z</time>
      </trkpt>
      <trkpt lat="48.99871" lon="1.11984">
        <ele>125</ele>
        <time>2011-09-25T11:08:14Z</time>
      </trkpt>
      <trkpt lat="48.99876" lon="1.11983">
        <ele>125</ele>
        <time>2011-09-25T11:08:15Z</time>
      </trkpt>
      <trkpt lat="48.99881" lon="1.11984">
        <ele>125</ele>
        <time>2011-09-25T11:08:16Z</time>
      </trkpt>
      <trkpt lat="48.99886" lon="1.11985">
        <ele>125</ele>
        <time>2011-09-25T11:08:17Z</time>
      </trkpt>
      <trkpt lat="48.99891" lon="1.11988">
        <ele>125</ele>
        <time>2011-09-25T11:08:18Z</time>
      </trkpt>
      <trkpt lat="48.99895" lon="1.11993">
        <ele>125</ele>
        <time>2011-09-25T11:08:19Z</time>
      </trkpt>
      <trkpt lat="48.99899" lon="1.11999">
        <ele>125</ele>
        <time>2011-09-25T11:08:20Z</time>
      </trkpt>
      <trkpt lat="48.99903" lon="1.12005">
        <ele>126</ele>
        <time>2011-09-25T11:08:21Z</time>
      </trkpt>
      <trkpt lat="48.99906" lon="1.1201">
        <ele>126</ele>
        <time>2011-09-25T11:08:22Z</time>
      </trkpt>
      <trkpt lat="48.99911" lon="1.12015">
        <ele>126</ele>
        <time>2011-09-25T11:08:23Z</time>
      </trkpt>
      <trkpt lat="48.99916" lon="1.12018">
        <ele>126</ele>
        <time>2011-09-25T11:08:24Z</time>
      </trkpt>
      <trkpt lat="48.99921" lon="1.12021">
        <ele>124</ele>
        <time>2011-09-25T11:08:25Z</time>
      </trkpt>
      <trkpt lat="48.99925" lon="1.12024">
        <ele>124</ele>
        <time>2011-09-25T11:08:26Z</time>
      </trkpt>
      <trkpt lat="48.99929" lon="1.12028">
        <ele>124</ele>
        <time>2011-09-25T11:08:27Z</time>
      </trkpt>
      <trkpt lat="48.99933" lon="1.12032">
        <ele>124</ele>
        <time>2011-09-25T11:08:28Z</time>
      </trkpt>
      <trkpt lat="48.99937" lon="1.12034">
        <ele>124</ele>
        <time>2011-09-25T11:08:29Z</time>
      </trkpt>
      <trkpt lat="48.99942" lon="1.12036">
        <ele>124</ele>
        <time>2011-09-25T11:08:30Z</time>
      </trkpt>
      <trkpt lat="48.99948" lon="1.12036">
        <ele>124</ele>
        <time>2011-09-25T11:08:31Z</time>
      </trkpt>
      <trkpt lat="48.99954" lon="1.12035">
        <ele>123</ele>
        <time>2011-09-25T11:08:32Z</time>
      </trkpt>
      <trkpt lat="48.99959" lon="1.12032">
        <ele>123</ele>
        <time>2011-09-25T11:08:33Z</time>
      </trkpt>
      <trkpt lat="48.99964" lon="1.12028">
        <ele>123</ele>
        <time>2011-09-25T11:08:34Z</time>
      </trkpt>
      <trkpt lat="48.99969" lon="1.12024">
        <ele>123</ele>
        <time>2011-09-25T11:08:35Z</time>
      </trkpt>
      <trkpt lat="48.99973" lon="1.1202">
        <ele>122</ele>
        <time>2011-09-25T11:08:36Z</time>
      </trkpt>
      <trkpt lat="48.99978" lon="1.12016">
        <ele>122</ele>
        <time>2011-09-25T11:08:37Z</time>
      </trkpt>
      <trkpt lat="48.99982" lon="1.12012">
        <ele>121</ele>
        <time>2011-09-25T11:08:38Z</time>
      </trkpt>
      <trkpt lat="48.99986" lon="1.12009">
        <ele>121</ele>
        <time>2011-09-25T11:08:39Z</time>
      </trkpt>
      <trkpt lat="48.9999" lon="1.12004">
        <ele>120</ele>
        <time>2011-09-25T11:08:40Z</time>
      </trkpt>
      <trkpt lat="48.99994" lon="1.11998">
        <ele>119</ele>
        <time>2011-09-25T11:08:41Z</time>
      </trkpt>
      <trkpt lat="48.99996" lon="1.11991">
        <ele>119</ele>
        <time>2011-09-25T11:08:42Z</time>
      </trkpt>
      <trkpt lat="48.99998" lon="1.11984">
        <ele>119</ele>
        <time>2011-09-25T11:08:43Z</time>
      </trkpt>
      <trkpt lat="49" lon="1.11977">
        <ele>117</ele>
        <time>2011-09-25T11:08:44Z</time>
      </trkpt>
      <trkpt lat="49.00002" lon="1.1197">
        <ele>116</ele>
        <time>2011-09-25T11:08:45Z</time>
      </trkpt>
      <trkpt lat="49.00003" lon="1.11963">
        <ele>116</ele>
        <time>2011-09-25T11:08:46Z</time>
      </trkpt>
      <trkpt lat="49.00001" lon="1.11955">
        <ele>116</ele>
        <time>2011-09-25T11:08:47Z</time>
      </trkpt>
      <trkpt lat="49.00001" lon="1.11948">
        <ele>116</ele>
        <time>2011-09-25T11:08:48Z</time>
      </trkpt>
      <trkpt lat="49.00003" lon="1.11941">
        <ele>116</ele>
        <time>2011-09-25T11:08:49Z</time>
      </trkpt>
      <trkpt lat="49.00008" lon="1.11938">
        <ele>116</ele>
        <time>2011-09-25T11:08:50Z</time>
      </trkpt>
      <trkpt lat="49.00013" lon="1.11938">
        <ele>116</ele>
        <time>2011-09-25T11:08:51Z</time>
      </trkpt>
      <trkpt lat="49.00019" lon="1.1194">
        <ele>116</ele>
        <time>2011-09-25T11:08:52Z</time>
      </trkpt>
      <trkpt lat="49.00023" lon="1.11941">
        <ele>116</ele>
        <time>2011-09-25T11:08:53Z</time>
      </trkpt>
      <trkpt lat="49.00028" lon="1.11943">
        <ele>116</ele>
        <time>2011-09-25T11:08:54Z</time>
      </trkpt>
      <trkpt lat="49.00032" lon="1.11945">
        <ele>116</ele>
        <time>2011-09-25T11:08:55Z</time>
      </trkpt>
      <trkpt lat="49.00038" lon="1.11947">
        <ele>116</ele>
        <time>2011-09-25T11:08:56Z</time>
      </trkpt>
      <trkpt lat="49.00044" lon="1.1195">
        <ele>116</ele>
        <time>2011-09-25T11:08:57Z</time>
      </trkpt>
      <trkpt lat="49.00051" lon="1.11951">
        <ele>115</ele>
        <time>2011-09-25T11:08:58Z</time>
      </trkpt>
      <trkpt lat="49.00061" lon="1.11954">
        <ele>115</ele>
        <time>2011-09-25T11:08:59Z</time>
      </trkpt>
      <trkpt lat="49.00071" lon="1.11956">
        <ele>115</ele>
        <time>2011-09-25T11:09:00Z</time>
      </trkpt>
      <trkpt lat="49.00081" lon="1.11959">
        <ele>115</ele>
        <time>2011-09-25T11:09:01Z</time>
      </trkpt>
      <trkpt lat="49.00092" lon="1.11962">
        <ele>113</ele>
        <time>2011-09-25T11:09:02Z</time>
      </trkpt>
      <trkpt lat="49.00102" lon="1.11966">
        <ele>113</ele>
        <time>2011-09-25T11:09:03Z</time>
      </trkpt>
      <trkpt lat="49.00111" lon="1.1197">
        <ele>113</ele>
        <time>2011-09-25T11:09:04Z</time>
      </trkpt>
      <trkpt lat="49.00118" lon="1.11973">
        <ele>113</ele>
        <time>2011-09-25T11:09:05Z</time>
      </trkpt>
      <trkpt lat="49.00127" lon="1.11977">
        <ele>113</ele>
        <time>2011-09-25T11:09:07Z</time>
      </trkpt>
      <trkpt lat="49.00131" lon="1.1198">
        <ele>112</ele>
        <time>2011-09-25T11:09:08Z</time>
      </trkpt>
      <trkpt lat="49.00136" lon="1.11982">
        <ele>112</ele>
        <time>2011-09-25T11:09:09Z</time>
      </trkpt>
      <trkpt lat="49.0014" lon="1.11984">
        <ele>112</ele>
        <time>2011-09-25T11:09:10Z</time>
      </trkpt>
      <trkpt lat="49.00147" lon="1.11988">
        <ele>112</ele>
        <time>2011-09-25T11:09:11Z</time>
      </trkpt>
      <trkpt lat="49.00156" lon="1.11991">
        <ele>111</ele>
        <time>2011-09-25T11:09:12Z</time>
      </trkpt>
      <trkpt lat="49.00166" lon="1.11995">
        <ele>110</ele>
        <time>2011-09-25T11:09:13Z</time>
      </trkpt>
      <trkpt lat="49.00175" lon="1.11999">
        <ele>109</ele>
        <time>2011-09-25T11:09:14Z</time>
      </trkpt>
      <trkpt lat="49.00182" lon="1.12002">
        <ele>108</ele>
        <time>2011-09-25T11:09:15Z</time>
      </trkpt>
      <trkpt lat="49.00187" lon="1.12005">
        <ele>108</ele>
        <time>2011-09-25T11:09:16Z</time>
      </trkpt>
      <trkpt lat="49.00193" lon="1.12008">
        <ele>108</ele>
        <time>2011-09-25T11:09:17Z</time>
      </trkpt>
      <trkpt lat="49.00199" lon="1.12012">
        <ele>108</ele>
        <time>2011-09-25T11:09:18Z</time>
      </trkpt>
      <trkpt lat="49.00204" lon="1.12015">
        <ele>108</ele>
        <time>2011-09-25T11:09:19Z</time>
      </trkpt>
      <trkpt lat="49.00208" lon="1.12019">
        <ele>108</ele>
        <time>2011-09-25T11:09:21Z</time>
      </trkpt>
      <trkpt lat="49.00213" lon="1.12023">
        <ele>107</ele>
        <time>2011-09-25T11:09:23Z</time>
      </trkpt>
      <trkpt lat="49.00219" lon="1.12027">
        <ele>107</ele>
        <time>2011-09-25T11:09:25Z</time>
      </trkpt>
      <trkpt lat="49.00225" lon="1.1203">
        <ele>107</ele>
        <time>2011-09-25T11:09:27Z</time>
      </trkpt>
      <trkpt lat="49.0023" lon="1.12033">
        <ele>107</ele>
        <time>2011-09-25T11:09:29Z</time>
      </trkpt>
      <trkpt lat="49.00233" lon="1.12038">
        <ele>107</ele>
        <time>2011-09-25T11:09:31Z</time>
      </trkpt>
      <trkpt lat="49.00238" lon="1.12042">
        <ele>108</ele>
        <time>2011-09-25T11:09:34Z</time>
      </trkpt>
      <trkpt lat="49.00243" lon="1.12046">
        <ele>108</ele>
        <time>2011-09-25T11:09:36Z</time>
      </trkpt>
      <trkpt lat="49.00246" lon="1.12049">
        <ele>108</ele>
        <time>2011-09-25T11:09:38Z</time>
      </trkpt>
      <trkpt lat="49.00252" lon="1.12055">
        <ele>111</ele>
        <time>2011-09-25T11:09:40Z</time>
      </trkpt>
      <trkpt lat="49.00257" lon="1.12062">
        <ele>111</ele>
        <time>2011-09-25T11:09:42Z</time>
      </trkpt>
      <trkpt lat="49.00263" lon="1.12069">
        <ele>111</ele>
        <time>2011-09-25T11:09:44Z</time>
      </trkpt>
      <trkpt lat="49.00269" lon="1.12075">
        <ele>111</ele>
        <time>2011-09-25T11:09:46Z</time>
      </trkpt>
      <trkpt lat="49.00275" lon="1.1208">
        <ele>111</ele>
        <time>2011-09-25T11:09:48Z</time>
      </trkpt>
      <trkpt lat="49.00281" lon="1.12086">
        <ele>115</ele>
        <time>2011-09-25T11:09:50Z</time>
      </trkpt>
      <trkpt lat="49.00286" lon="1.12092">
        <ele>116</ele>
        <time>2011-09-25T11:09:52Z</time>
      </trkpt>
      <trkpt lat="49.00291" lon="1.12096">
        <ele>116</ele>
        <time>2011-09-25T11:09:54Z</time>
      </trkpt>
      <trkpt lat="49.00296" lon="1.121">
        <ele>116</ele>
        <time>2011-09-25T11:09:56Z</time>
      </trkpt>
      <trkpt lat="49.00302" lon="1.12108">
        <ele>117</ele>
        <time>2011-09-25T11:09:58Z</time>
      </trkpt>
      <trkpt lat="49.00304" lon="1.12114">
        <ele>117</ele>
        <time>2011-09-25T11:10:00Z</time>
      </trkpt>
      <trkpt lat="49.00309" lon="1.12119">
        <ele>118</ele>
        <time>2011-09-25T11:10:02Z</time>
      </trkpt>
      <trkpt lat="49.00313" lon="1.12124">
        <ele>118</ele>
        <time>2011-09-25T11:10:04Z</time>
      </trkpt>
      <trkpt lat="49.00317" lon="1.1213">
        <ele>118</ele>
        <time>2011-09-25T11:10:08Z</time>
      </trkpt>
      <trkpt lat="49.00321" lon="1.12134">
        <ele>119</ele>
        <time>2011-09-25T11:10:13Z</time>
      </trkpt>
      <trkpt lat="49.00326" lon="1.12137">
        <ele>119</ele>
        <time>2011-09-25T11:10:20Z</time>
      </trkpt>
      <trkpt lat="49.0033" lon="1.12141">
        <ele>119</ele>
        <time>2011-09-25T11:10:23Z</time>
      </trkpt>
      <trkpt lat="49.0033" lon="1.12148">
        <ele>120</ele>
        <time>2011-09-25T11:10:28Z</time>
      </trkpt>
      <trkpt lat="49.00335" lon="1.12151">
        <ele>124</ele>
        <time>2011-09-25T11:10:32Z</time>
      </trkpt>
      <trkpt lat="49.00336" lon="1.12158">
        <ele>124</ele>
        <time>2011-09-25T11:10:34Z</time>
      </trkpt>
      <trkpt lat="49.00336" lon="1.12158">
        <ele>124</ele>
        <time>2011-09-25T11:10:34Z</time>
      </trkpt>
      <trkpt lat="49.00336" lon="1.12158">
        <ele>124</ele>
        <time>2011-09-25T11:10:35Z</time>
      </trkpt>
      <trkpt lat="49.0034" lon="1.12162">
        <ele>124</ele>
        <time>2011-09-25T11:10:36Z</time>
      </trkpt>
      <trkpt lat="49.00343" lon="1.12167">
        <ele>124</ele>
        <time>2011-09-25T11:10:40Z</time>
      </trkpt>
      <trkpt lat="49.00348" lon="1.12169">
        <ele>125</ele>
        <time>2011-09-25T11:10:45Z</time>
      </trkpt>
      <trkpt lat="49.00359" lon="1.12176">
        <ele>126</ele>
        <time>2011-09-25T11:10:52Z</time>
      </trkpt>
      <trkpt lat="49.00359" lon="1.12176">
        <ele>126</ele>
        <time>2011-09-25T11:10:52Z</time>
      </trkpt>
      <trkpt lat="49.00359" lon="1.12176">
        <ele>126</ele>
        <time>2011-09-25T11:10:53Z</time>
      </trkpt>
      <trkpt lat="49.00365" lon="1.12179">
        <ele>126</ele>
        <time>2011-09-25T11:10:54Z</time>
      </trkpt>
      <trkpt lat="49.00365" lon="1.12179">
        <ele>126</ele>
        <time>2011-09-25T11:10:54Z</time>
      </trkpt>
      <trkpt lat="49.00365" lon="1.12179">
        <ele>126</ele>
        <time>2011-09-25T11:10:55Z</time>
      </trkpt>
      <trkpt lat="49.00371" lon="1.12182">
        <ele>127</ele>
        <time>2011-09-25T11:10:56Z</time>
      </trkpt>
      <trkpt lat="49.00376" lon="1.12184">
        <ele>127</ele>
        <time>2011-09-25T11:10:58Z</time>
      </trkpt>
      <trkpt lat="49.00381" lon="1.12186">
        <ele>127</ele>
        <time>2011-09-25T11:11:00Z</time>
      </trkpt>
      <trkpt lat="49.00386" lon="1.12192">
        <ele>127</ele>
        <time>2011-09-25T11:11:02Z</time>
      </trkpt>
      <trkpt lat="49.0039" lon="1.12195">
        <ele>128</ele>
        <time>2011-09-25T11:11:03Z</time>
      </trkpt>
      <trkpt lat="49.00397" lon="1.12202">
        <ele>128</ele>
        <time>2011-09-25T11:11:05Z</time>
      </trkpt>
      <trkpt lat="49.00401" lon="1.12207">
        <ele>128</ele>
        <time>2011-09-25T11:11:07Z</time>
      </trkpt>
      <trkpt lat="49.00406" lon="1.12209">
        <ele>128</ele>
        <time>2011-09-25T11:11:11Z</time>
      </trkpt>
      <trkpt lat="49.00411" lon="1.12212">
        <ele>128</ele>
        <time>2011-09-25T11:11:15Z</time>
      </trkpt>
      <trkpt lat="49.00416" lon="1.12215">
        <ele>128</ele>
        <time>2011-09-25T11:11:18Z</time>
      </trkpt>
      <trkpt lat="49.00421" lon="1.1222">
        <ele>130</ele>
        <time>2011-09-25T11:11:21Z</time>
      </trkpt>
      <trkpt lat="49.00426" lon="1.12224">
        <ele>130</ele>
        <time>2011-09-25T11:11:25Z</time>
      </trkpt>
      <trkpt lat="49.00431" lon="1.12226">
        <ele>130</ele>
        <time>2011-09-25T11:11:28Z</time>
      </trkpt>
      <trkpt lat="49.0044" lon="1.12232">
        <ele>131</ele>
        <time>2011-09-25T11:11:36Z</time>
      </trkpt>
      <trkpt lat="49.00438" lon="1.12239">
        <ele>130</ele>
        <time>2011-09-25T11:11:40Z</time>
      </trkpt>
      <trkpt lat="49.00444" lon="1.12235">
        <ele>131</ele>
        <time>2011-09-25T11:11:48Z</time>
      </trkpt>
      <trkpt lat="49.00447" lon="1.12229">
        <ele>131</ele>
        <time>2011-09-25T11:11:51Z</time>
      </trkpt>
      <trkpt lat="49.0045" lon="1.12222">
        <ele>131</ele>
        <time>2011-09-25T11:11:53Z</time>
      </trkpt>
      <trkpt lat="49.00452" lon="1.12215">
        <ele>131</ele>
        <time>2011-09-25T11:11:55Z</time>
      </trkpt>
      <trkpt lat="49.00454" lon="1.12207">
        <ele>131</ele>
        <time>2011-09-25T11:11:57Z</time>
      </trkpt>
      <trkpt lat="49.00456" lon="1.12198">
        <ele>131</ele>
        <time>2011-09-25T11:11:59Z</time>
      </trkpt>
      <trkpt lat="49.00458" lon="1.12188">
        <ele>131</ele>
        <time>2011-09-25T11:12:01Z</time>
      </trkpt>
      <trkpt lat="49.00459" lon="1.12177">
        <ele>131</ele>
        <time>2011-09-25T11:12:03Z</time>
      </trkpt>
      <trkpt lat="49.00459" lon="1.12167">
        <ele>131</ele>
        <time>2011-09-25T11:12:05Z</time>
      </trkpt>
      <trkpt lat="49.0046" lon="1.12158">
        <ele>131</ele>
        <time>2011-09-25T11:12:07Z</time>
      </trkpt>
      <trkpt lat="49.00463" lon="1.1215">
        <ele>131</ele>
        <time>2011-09-25T11:12:09Z</time>
      </trkpt>
      <trkpt lat="49.00467" lon="1.12142">
        <ele>131</ele>
        <time>2011-09-25T11:12:11Z</time>
      </trkpt>
      <trkpt lat="49.00467" lon="1.12129">
        <ele>131</ele>
        <time>2011-09-25T11:12:13Z</time>
      </trkpt>
      <trkpt lat="49.00468" lon="1.12117">
        <ele>131</ele>
        <time>2011-09-25T11:12:15Z</time>
      </trkpt>
      <trkpt lat="49.00468" lon="1.12106">
        <ele>131</ele>
        <time>2011-09-25T11:12:17Z</time>
      </trkpt>
      <trkpt lat="49.00469" lon="1.12095">
        <ele>131</ele>
        <time>2011-09-25T11:12:19Z</time>
      </trkpt>
      <trkpt lat="49.0047" lon="1.12084">
        <ele>131</ele>
        <time>2011-09-25T11:12:21Z</time>
      </trkpt>
      <trkpt lat="49.00471" lon="1.12072">
        <ele>131</ele>
        <time>2011-09-25T11:12:23Z</time>
      </trkpt>
      <trkpt lat="49.00471" lon="1.1206">
        <ele>131</ele>
        <time>2011-09-25T11:12:25Z</time>
      </trkpt>
      <trkpt lat="49.0047" lon="1.12047">
        <ele>131</ele>
        <time>2011-09-25T11:12:27Z</time>
      </trkpt>
      <trkpt lat="49.0047" lon="1.1204">
        <ele>131</ele>
        <time>2011-09-25T11:12:28Z</time>
      </trkpt>
      <trkpt lat="49.00469" lon="1.12033">
        <ele>131</ele>
        <time>2011-09-25T11:12:29Z</time>
      </trkpt>
      <trkpt lat="49.00469" lon="1.12026">
        <ele>131</ele>
        <time>2011-09-25T11:12:30Z</time>
      </trkpt>
      <trkpt lat="49.00469" lon="1.12018">
        <ele>131</ele>
        <time>2011-09-25T11:12:31Z</time>
      </trkpt>
      <trkpt lat="49.0047" lon="1.1201">
        <ele>131</ele>
        <time>2011-09-25T11:12:32Z</time>
      </trkpt>
      <trkpt lat="49.0047" lon="1.12002">
        <ele>131</ele>
        <time>2011-09-25T11:12:33Z</time>
      </trkpt>
      <trkpt lat="49.0047" lon="1.11993">
        <ele>130</ele>
        <time>2011-09-25T11:12:34Z</time>
      </trkpt>
      <trkpt lat="49.0047" lon="1.11985">
        <ele>130</ele>
        <time>2011-09-25T11:12:35Z</time>
      </trkpt>
      <trkpt lat="49.00471" lon="1.11976">
        <ele>130</ele>
        <time>2011-09-25T11:12:36Z</time>
      </trkpt>
      <trkpt lat="49.00471" lon="1.11968">
        <ele>129</ele>
        <time>2011-09-25T11:12:37Z</time>
      </trkpt>
      <trkpt lat="49.00472" lon="1.11961">
        <ele>129</ele>
        <time>2011-09-25T11:12:38Z</time>
      </trkpt>
      <trkpt lat="49.00472" lon="1.11953">
        <ele>129</ele>
        <time>2011-09-25T11:12:39Z</time>
      </trkpt>
      <trkpt lat="49.00471" lon="1.11945">
        <ele>129</ele>
        <time>2011-09-25T11:12:40Z</time>
      </trkpt>
      <trkpt lat="49.00472" lon="1.11937">
        <ele>129</ele>
        <time>2011-09-25T11:12:41Z</time>
      </trkpt>
      <trkpt lat="49.00472" lon="1.11929">
        <ele>129</ele>
        <time>2011-09-25T11:12:42Z</time>
      </trkpt>
      <trkpt lat="49.00473" lon="1.1192">
        <ele>129</ele>
        <time>2011-09-25T11:12:43Z</time>
      </trkpt>
      <trkpt lat="49.00473" lon="1.11912">
        <ele>128</ele>
        <time>2011-09-25T11:12:44Z</time>
      </trkpt>
      <trkpt lat="49.00472" lon="1.11904">
        <ele>127</ele>
        <time>2011-09-25T11:12:45Z</time>
      </trkpt>
      <trkpt lat="49.00471" lon="1.11896">
        <ele>127</ele>
        <time>2011-09-25T11:12:46Z</time>
      </trkpt>
      <trkpt lat="49.00471" lon="1.11887">
        <ele>127</ele>
        <time>2011-09-25T11:12:47Z</time>
      </trkpt>
      <trkpt lat="49.00471" lon="1.11878">
        <ele>126</ele>
        <time>2011-09-25T11:12:48Z</time>
      </trkpt>
      <trkpt lat="49.00472" lon="1.1187">
        <ele>126</ele>
        <time>2011-09-25T11:12:49Z</time>
      </trkpt>
      <trkpt lat="49.00472" lon="1.11863">
        <ele>126</ele>
        <time>2011-09-25T11:12:50Z</time>
      </trkpt>
      <trkpt lat="49.00472" lon="1.11855">
        <ele>126</ele>
        <time>2011-09-25T11:12:51Z</time>
      </trkpt>
      <trkpt lat="49.00474" lon="1.11847">
        <ele>127</ele>
        <time>2011-09-25T11:12:52Z</time>
      </trkpt>
      <trkpt lat="49.00476" lon="1.1184">
        <ele>127</ele>
        <time>2011-09-25T11:12:53Z</time>
      </trkpt>
      <trkpt lat="49.00477" lon="1.11832">
        <ele>125</ele>
        <time>2011-09-25T11:12:54Z</time>
      </trkpt>
      <trkpt lat="49.00478" lon="1.11824">
        <ele>125</ele>
        <time>2011-09-25T11:12:55Z</time>
      </trkpt>
      <trkpt lat="49.0048" lon="1.11816">
        <ele>125</ele>
        <time>2011-09-25T11:12:56Z</time>
      </trkpt>
      <trkpt lat="49.00482" lon="1.11808">
        <ele>124</ele>
        <time>2011-09-25T11:12:57Z</time>
      </trkpt>
      <trkpt lat="49.00484" lon="1.118">
        <ele>124</ele>
        <time>2011-09-25T11:12:58Z</time>
      </trkpt>
      <trkpt lat="49.00486" lon="1.11793">
        <ele>124</ele>
        <time>2011-09-25T11:12:59Z</time>
      </trkpt>
      <trkpt lat="49.00487" lon="1.11785">
        <ele>124</ele>
        <time>2011-09-25T11:13:00Z</time>
      </trkpt>
      <trkpt lat="49.00489" lon="1.11778">
        <ele>124</ele>
        <time>2011-09-25T11:13:01Z</time>
      </trkpt>
      <trkpt lat="49.00491" lon="1.11771">
        <ele>124</ele>
        <time>2011-09-25T11:13:02Z</time>
      </trkpt>
      <trkpt lat="49.00493" lon="1.11763">
        <ele>125</ele>
        <time>2011-09-25T11:13:03Z</time>
      </trkpt>
      <trkpt lat="49.00494" lon="1.11756">
        <ele>127</ele>
        <time>2011-09-25T11:13:04Z</time>
      </trkpt>
      <trkpt lat="49.00496" lon="1.11748">
        <ele>127</ele>
        <time>2011-09-25T11:13:05Z</time>
      </trkpt>
      <trkpt lat="49.00497" lon="1.1174">
        <ele>124</ele>
        <time>2011-09-25T11:13:06Z</time>
      </trkpt>
      <trkpt lat="49.00498" lon="1.11732">
        <ele>122</ele>
        <time>2011-09-25T11:13:07Z</time>
      </trkpt>
      <trkpt lat="49.00499" lon="1.11725">
        <ele>121</ele>
        <time>2011-09-25T11:13:08Z</time>
      </trkpt>
      <trkpt lat="49.00501" lon="1.11718">
        <ele>127</ele>
        <time>2011-09-25T11:13:09Z</time>
      </trkpt>
      <trkpt lat="49.00505" lon="1.11712">
        <ele>127</ele>
        <time>2011-09-25T11:13:10Z</time>
      </trkpt>
      <trkpt lat="49.00511" lon="1.11705">
        <ele>127</ele>
        <time>2011-09-25T11:13:12Z</time>
      </trkpt>
      <trkpt lat="49.00519" lon="1.117">
        <ele>127</ele>
        <time>2011-09-25T11:13:14Z</time>
      </trkpt>
      <trkpt lat="49.00527" lon="1.11698">
        <ele>127</ele>
        <time>2011-09-25T11:13:16Z</time>
      </trkpt>
      <trkpt lat="49.00536" lon="1.11698">
        <ele>127</ele>
        <time>2011-09-25T11:13:18Z</time>
      </trkpt>
      <trkpt lat="49.00544" lon="1.11698">
        <ele>128</ele>
        <time>2011-09-25T11:13:20Z</time>
      </trkpt>
      <trkpt lat="49.00551" lon="1.117">
        <ele>128</ele>
        <time>2011-09-25T11:13:22Z</time>
      </trkpt>
      <trkpt lat="49.00557" lon="1.11705">
        <ele>128</ele>
        <time>2011-09-25T11:13:24Z</time>
      </trkpt>
      <trkpt lat="49.00564" lon="1.11699">
        <ele>128</ele>
        <time>2011-09-25T11:13:26Z</time>
      </trkpt>
      <trkpt lat="49.00568" lon="1.11696">
        <ele>128</ele>
        <time>2011-09-25T11:13:27Z</time>
      </trkpt>
      <trkpt lat="49.00574" lon="1.11694">
        <ele>128</ele>
        <time>2011-09-25T11:13:28Z</time>
      </trkpt>
      <trkpt lat="49.00581" lon="1.11693">
        <ele>129</ele>
        <time>2011-09-25T11:13:29Z</time>
      </trkpt>
      <trkpt lat="49.00587" lon="1.11694">
        <ele>129</ele>
        <time>2011-09-25T11:13:30Z</time>
      </trkpt>
      <trkpt lat="49.00592" lon="1.11696">
        <ele>129</ele>
        <time>2011-09-25T11:13:31Z</time>
      </trkpt>
      <trkpt lat="49.00596" lon="1.117">
        <ele>129</ele>
        <time>2011-09-25T11:13:32Z</time>
      </trkpt>
      <trkpt lat="49.00601" lon="1.11704">
        <ele>130</ele>
        <time>2011-09-25T11:13:33Z</time>
      </trkpt>
      <trkpt lat="49.00607" lon="1.11714">
        <ele>130</ele>
        <time>2011-09-25T11:13:35Z</time>
      </trkpt>
      <trkpt lat="49.00612" lon="1.11722">
        <ele>130</ele>
        <time>2011-09-25T11:13:37Z</time>
      </trkpt>
      <trkpt lat="49.00617" lon="1.11727">
        <ele>130</ele>
        <time>2011-09-25T11:13:39Z</time>
      </trkpt>
      <trkpt lat="49.00622" lon="1.11733">
        <ele>131</ele>
        <time>2011-09-25T11:13:41Z</time>
      </trkpt>
      <trkpt lat="49.00629" lon="1.11736">
        <ele>131</ele>
        <time>2011-09-25T11:13:43Z</time>
      </trkpt>
      <trkpt lat="49.00636" lon="1.11737">
        <ele>131</ele>
        <time>2011-09-25T11:13:45Z</time>
      </trkpt>
      <trkpt lat="49.00644" lon="1.11735">
        <ele>131</ele>
        <time>2011-09-25T11:13:47Z</time>
      </trkpt>
      <trkpt lat="49.0065" lon="1.11736">
        <ele>131</ele>
        <time>2011-09-25T11:13:48Z</time>
      </trkpt>
      <trkpt lat="49.00656" lon="1.11737">
        <ele>131</ele>
        <time>2011-09-25T11:13:49Z</time>
      </trkpt>
      <trkpt lat="49.00661" lon="1.11738">
        <ele>131</ele>
        <time>2011-09-25T11:13:50Z</time>
      </trkpt>
      <trkpt lat="49.00667" lon="1.11741">
        <ele>130</ele>
        <time>2011-09-25T11:13:51Z</time>
      </trkpt>
      <trkpt lat="49.00671" lon="1.1174">
        <ele>129</ele>
        <time>2011-09-25T11:13:52Z</time>
      </trkpt>
      <trkpt lat="49.00676" lon="1.11741">
        <ele>128</ele>
        <time>2011-09-25T11:13:53Z</time>
      </trkpt>
      <trkpt lat="49.00681" lon="1.11741">
        <ele>127</ele>
        <time>2011-09-25T11:13:54Z</time>
      </trkpt>
      <trkpt lat="49.00686" lon="1.11741">
        <ele>127</ele>
        <time>2011-09-25T11:13:55Z</time>
      </trkpt>
      <trkpt lat="49.00691" lon="1.11741">
        <ele>126</ele>
        <time>2011-09-25T11:13:56Z</time>
      </trkpt>
      <trkpt lat="49.00695" lon="1.11742">
        <ele>125</ele>
        <time>2011-09-25T11:13:57Z</time>
      </trkpt>
      <trkpt lat="49.00703" lon="1.11746">
        <ele>125</ele>
        <time>2011-09-25T11:13:59Z</time>
      </trkpt>
      <trkpt lat="49.00711" lon="1.11752">
        <ele>131</ele>
        <time>2011-09-25T11:14:01Z</time>
      </trkpt>
      <trkpt lat="49.00716" lon="1.11754">
        <ele>130</ele>
        <time>2011-09-25T11:14:02Z</time>
      </trkpt>
      <trkpt lat="49.0072" lon="1.11756">
        <ele>130</ele>
        <time>2011-09-25T11:14:03Z</time>
      </trkpt>
      <trkpt lat="49.00725" lon="1.11759">
        <ele>130</ele>
        <time>2011-09-25T11:14:04Z</time>
      </trkpt>
      <trkpt lat="49.0073" lon="1.11762">
        <ele>129</ele>
        <time>2011-09-25T11:14:05Z</time>
      </trkpt>
      <trkpt lat="49.00735" lon="1.11767">
        <ele>129</ele>
        <time>2011-09-25T11:14:06Z</time>
      </trkpt>
      <trkpt lat="49.00741" lon="1.11772">
        <ele>129</ele>
        <time>2011-09-25T11:14:07Z</time>
      </trkpt>
      <trkpt lat="49.00747" lon="1.11777">
        <ele>130</ele>
        <time>2011-09-25T11:14:08Z</time>
      </trkpt>
      <trkpt lat="49.00753" lon="1.11781">
        <ele>126</ele>
        <time>2011-09-25T11:14:09Z</time>
      </trkpt>
      <trkpt lat="49.00758" lon="1.11784">
        <ele>126</ele>
        <time>2011-09-25T11:14:10Z</time>
      </trkpt>
      <trkpt lat="49.00764" lon="1.11785">
        <ele>126</ele>
        <time>2011-09-25T11:14:11Z</time>
      </trkpt>
      <trkpt lat="49.00772" lon="1.11784">
        <ele>126</ele>
        <time>2011-09-25T11:14:13Z</time>
      </trkpt>
      <trkpt lat="49.0078" lon="1.11781">
        <ele>125</ele>
        <time>2011-09-25T11:14:15Z</time>
      </trkpt>
      <trkpt lat="49.00787" lon="1.1178">
        <ele>125</ele>
        <time>2011-09-25T11:14:17Z</time>
      </trkpt>
      <trkpt lat="49.00794" lon="1.11785">
        <ele>125</ele>
        <time>2011-09-25T11:14:19Z</time>
      </trkpt>
      <trkpt lat="49.00802" lon="1.11789">
        <ele>125</ele>
        <time>2011-09-25T11:14:21Z</time>
      </trkpt>
      <trkpt lat="49.0081" lon="1.11792">
        <ele>125</ele>
        <time>2011-09-25T11:14:23Z</time>
      </trkpt>
      <trkpt lat="49.00819" lon="1.11797">
        <ele>125</ele>
        <time>2011-09-25T11:14:25Z</time>
      </trkpt>
      <trkpt lat="49.00824" lon="1.118">
        <ele>125</ele>
        <time>2011-09-25T11:14:26Z</time>
      </trkpt>
      <trkpt lat="49.0083" lon="1.11803">
        <ele>125</ele>
        <time>2011-09-25T11:14:27Z</time>
      </trkpt>
      <trkpt lat="49.00834" lon="1.11806">
        <ele>121</ele>
        <time>2011-09-25T11:14:28Z</time>
      </trkpt>
      <trkpt lat="49.00838" lon="1.11808">
        <ele>121</ele>
        <time>2011-09-25T11:14:29Z</time>
      </trkpt>
      <trkpt lat="49.00843" lon="1.11811">
        <ele>121</ele>
        <time>2011-09-25T11:14:30Z</time>
      </trkpt>
      <trkpt lat="49.00847" lon="1.11815">
        <ele>121</ele>
        <time>2011-09-25T11:14:31Z</time>
      </trkpt>
      <trkpt lat="49.00851" lon="1.11818">
        <ele>121</ele>
        <time>2011-09-25T11:14:32Z</time>
      </trkpt>
      <trkpt lat="49.0086" lon="1.11825">
        <ele>121</ele>
        <time>2011-09-25T11:14:34Z</time>
      </trkpt>
      <trkpt lat="49.00865" lon="1.11828">
        <ele>120</ele>
        <time>2011-09-25T11:14:35Z</time>
      </trkpt>
      <trkpt lat="49.00873" lon="1.11832">
        <ele>120</ele>
        <time>2011-09-25T11:14:37Z</time>
      </trkpt>
      <trkpt lat="49.0088" lon="1.11836">
        <ele>127</ele>
        <time>2011-09-25T11:14:39Z</time>
      </trkpt>
      <trkpt lat="49.00888" lon="1.11842">
        <ele>126</ele>
        <time>2011-09-25T11:14:41Z</time>
      </trkpt>
      <trkpt lat="49.00896" lon="1.11845">
        <ele>126</ele>
        <time>2011-09-25T11:14:43Z</time>
      </trkpt>
      <trkpt lat="49.00904" lon="1.11847">
        <ele>125</ele>
        <time>2011-09-25T11:14:45Z</time>
      </trkpt>
      <trkpt lat="49.00912" lon="1.11847">
        <ele>125</ele>
        <time>2011-09-25T11:14:47Z</time>
      </trkpt>
      <trkpt lat="49.0092" lon="1.1185">
        <ele>122</ele>
        <time>2011-09-25T11:14:49Z</time>
      </trkpt>
      <trkpt lat="49.00927" lon="1.11854">
        <ele>122</ele>
        <time>2011-09-25T11:14:51Z</time>
      </trkpt>
      <trkpt lat="49.00935" lon="1.11858">
        <ele>122</ele>
        <time>2011-09-25T11:14:53Z</time>
      </trkpt>
      <trkpt lat="49.00939" lon="1.1186">
        <ele>122</ele>
        <time>2011-09-25T11:14:54Z</time>
      </trkpt>
      <trkpt lat="49.00944" lon="1.11861">
        <ele>122</ele>
        <time>2011-09-25T11:14:55Z</time>
      </trkpt>
      <trkpt lat="49.00951" lon="1.11866">
        <ele>122</ele>
        <time>2011-09-25T11:14:57Z</time>
      </trkpt>
      <trkpt lat="49.00955" lon="1.1187">
        <ele>122</ele>
        <time>2011-09-25T11:14:58Z</time>
      </trkpt>
      <trkpt lat="49.00959" lon="1.11873">
        <ele>122</ele>
        <time>2011-09-25T11:14:59Z</time>
      </trkpt>
      <trkpt lat="49.00966" lon="1.11879">
        <ele>123</ele>
        <time>2011-09-25T11:15:01Z</time>
      </trkpt>
      <trkpt lat="49.00973" lon="1.1188">
        <ele>123</ele>
        <time>2011-09-25T11:15:03Z</time>
      </trkpt>
      <trkpt lat="49.00982" lon="1.11881">
        <ele>122</ele>
        <time>2011-09-25T11:15:05Z</time>
      </trkpt>
      <trkpt lat="49.00986" lon="1.11882">
        <ele>123</ele>
        <time>2011-09-25T11:15:06Z</time>
      </trkpt>
      <trkpt lat="49.00991" lon="1.11882">
        <ele>123</ele>
        <time>2011-09-25T11:15:07Z</time>
      </trkpt>
      <trkpt lat="49.00996" lon="1.11883">
        <ele>123</ele>
        <time>2011-09-25T11:15:08Z</time>
      </trkpt>
      <trkpt lat="49.01" lon="1.11885">
        <ele>123</ele>
        <time>2011-09-25T11:15:09Z</time>
      </trkpt>
      <trkpt lat="49.01005" lon="1.11886">
        <ele>118</ele>
        <time>2011-09-25T11:15:10Z</time>
      </trkpt>
      <trkpt lat="49.01012" lon="1.1189">
        <ele>118</ele>
        <time>2011-09-25T11:15:12Z</time>
      </trkpt>
      <trkpt lat="49.01017" lon="1.11892">
        <ele>118</ele>
        <time>2011-09-25T11:15:14Z</time>
      </trkpt>
      <trkpt lat="49.01023" lon="1.11894">
        <ele>117</ele>
        <time>2011-09-25T11:15:16Z</time>
      </trkpt>
      <trkpt lat="49.01029" lon="1.11895">
        <ele>117</ele>
        <time>2011-09-25T11:15:18Z</time>
      </trkpt>
      <trkpt lat="49.01033" lon="1.11896">
        <ele>117</ele>
        <time>2011-09-25T11:15:20Z</time>
      </trkpt>
      <trkpt lat="49.01039" lon="1.11897">
        <ele>116</ele>
        <time>2011-09-25T11:15:23Z</time>
      </trkpt>
      <trkpt lat="49.01039" lon="1.11897">
        <ele>116</ele>
        <time>2011-09-25T11:15:23Z</time>
      </trkpt>
      <trkpt lat="49.01039" lon="1.11897">
        <ele>116</ele>
        <time>2011-09-25T11:15:25Z</time>
      </trkpt>
      <trkpt lat="49.01045" lon="1.119">
        <ele>116</ele>
        <time>2011-09-25T11:15:27Z</time>
      </trkpt>
      <trkpt lat="49.01052" lon="1.11902">
        <ele>116</ele>
        <time>2011-09-25T11:15:30Z</time>
      </trkpt>
      <trkpt lat="49.01056" lon="1.11904">
        <ele>116</ele>
        <time>2011-09-25T11:15:32Z</time>
      </trkpt>
      <trkpt lat="49.01062" lon="1.11904">
        <ele>116</ele>
        <time>2011-09-25T11:15:34Z</time>
      </trkpt>
      <trkpt lat="49.01067" lon="1.11908">
        <ele>117</ele>
        <time>2011-09-25T11:15:36Z</time>
      </trkpt>
      <trkpt lat="49.01074" lon="1.11912">
        <ele>118</ele>
        <time>2011-09-25T11:15:38Z</time>
      </trkpt>
      <trkpt lat="49.01081" lon="1.11912">
        <ele>119</ele>
        <time>2011-09-25T11:15:40Z</time>
      </trkpt>
      <trkpt lat="49.01086" lon="1.11914">
        <ele>117</ele>
        <time>2011-09-25T11:15:41Z</time>
      </trkpt>
      <trkpt lat="49.01091" lon="1.11916">
        <ele>114</ele>
        <time>2011-09-25T11:15:42Z</time>
      </trkpt>
      <trkpt lat="49.01095" lon="1.1192">
        <ele>119</ele>
        <time>2011-09-25T11:15:43Z</time>
      </trkpt>
      <trkpt lat="49.01098" lon="1.11925">
        <ele>118</ele>
        <time>2011-09-25T11:15:44Z</time>
      </trkpt>
      <trkpt lat="49.01101" lon="1.1193">
        <ele>118</ele>
        <time>2011-09-25T11:15:45Z</time>
      </trkpt>
      <trkpt lat="49.01104" lon="1.11936">
        <ele>118</ele>
        <time>2011-09-25T11:15:46Z</time>
      </trkpt>
      <trkpt lat="49.01107" lon="1.11942">
        <ele>118</ele>
        <time>2011-09-25T11:15:47Z</time>
      </trkpt>
      <trkpt lat="49.0111" lon="1.11948">
        <ele>118</ele>
        <time>2011-09-25T11:15:48Z</time>
      </trkpt>
      <trkpt lat="49.01112" lon="1.11955">
        <ele>119</ele>
        <time>2011-09-25T11:15:49Z</time>
      </trkpt>
      <trkpt lat="49.01114" lon="1.11966">
        <ele>119</ele>
        <time>2011-09-25T11:15:51Z</time>
      </trkpt>
      <trkpt lat="49.01117" lon="1.11977">
        <ele>120</ele>
        <time>2011-09-25T11:15:53Z</time>
      </trkpt>
      <trkpt lat="49.01123" lon="1.11982">
        <ele>120</ele>
        <time>2011-09-25T11:15:55Z</time>
      </trkpt>
      <trkpt lat="49.0113" lon="1.11983">
        <ele>120</ele>
        <time>2011-09-25T11:15:57Z</time>
      </trkpt>
      <trkpt lat="49.01136" lon="1.11984">
        <ele>119</ele>
        <time>2011-09-25T11:15:59Z</time>
      </trkpt>
      <trkpt lat="49.01142" lon="1.11982">
        <ele>119</ele>
        <time>2011-09-25T11:16:01Z</time>
      </trkpt>
      <trkpt lat="49.01148" lon="1.11982">
        <ele>119</ele>
        <time>2011-09-25T11:16:03Z</time>
      </trkpt>
      <trkpt lat="49.01155" lon="1.11981">
        <ele>118</ele>
        <time>2011-09-25T11:16:05Z</time>
      </trkpt>
      <trkpt lat="49.01162" lon="1.11981">
        <ele>118</ele>
        <time>2011-09-25T11:16:07Z</time>
      </trkpt>
      <trkpt lat="49.0117" lon="1.1198">
        <ele>112</ele>
        <time>2011-09-25T11:16:09Z</time>
      </trkpt>
      <trkpt lat="49.01177" lon="1.11978">
        <ele>111</ele>
        <time>2011-09-25T11:16:11Z</time>
      </trkpt>
      <trkpt lat="49.01184" lon="1.11976">
        <ele>110</ele>
        <time>2011-09-25T11:16:13Z</time>
      </trkpt>
      <trkpt lat="49.01192" lon="1.11978">
        <ele>110</ele>
        <time>2011-09-25T11:16:15Z</time>
      </trkpt>
      <trkpt lat="49.012" lon="1.1198">
        <ele>109</ele>
        <time>2011-09-25T11:16:17Z</time>
      </trkpt>
      <trkpt lat="49.01207" lon="1.11983">
        <ele>109</ele>
        <time>2011-09-25T11:16:19Z</time>
      </trkpt>
      <trkpt lat="49.01214" lon="1.1199">
        <ele>109</ele>
        <time>2011-09-25T11:16:21Z</time>
      </trkpt>
      <trkpt lat="49.0122" lon="1.11997">
        <ele>110</ele>
        <time>2011-09-25T11:16:23Z</time>
      </trkpt>
      <trkpt lat="49.01225" lon="1.12004">
        <ele>120</ele>
        <time>2011-09-25T11:16:25Z</time>
      </trkpt>
      <trkpt lat="49.01228" lon="1.12012">
        <ele>120</ele>
        <time>2011-09-25T11:16:27Z</time>
      </trkpt>
      <trkpt lat="49.01232" lon="1.12021">
        <ele>120</ele>
        <time>2011-09-25T11:16:29Z</time>
      </trkpt>
      <trkpt lat="49.01236" lon="1.12029">
        <ele>121</ele>
        <time>2011-09-25T11:16:31Z</time>
      </trkpt>
      <trkpt lat="49.01239" lon="1.12038">
        <ele>122</ele>
        <time>2011-09-25T11:16:33Z</time>
      </trkpt>
      <trkpt lat="49.01243" lon="1.12046">
        <ele>122</ele>
        <time>2011-09-25T11:16:35Z</time>
      </trkpt>
      <trkpt lat="49.01249" lon="1.12053">
        <ele>123</ele>
        <time>2011-09-25T11:16:37Z</time>
      </trkpt>
      <trkpt lat="49.01256" lon="1.12061">
        <ele>120</ele>
        <time>2011-09-25T11:16:39Z</time>
      </trkpt>
      <trkpt lat="49.01257" lon="1.12071">
        <ele>122</ele>
        <time>2011-09-25T11:16:41Z</time>
      </trkpt>
      <trkpt lat="49.01258" lon="1.1208">
        <ele>123</ele>
        <time>2011-09-25T11:16:43Z</time>
      </trkpt>
      <trkpt lat="49.01256" lon="1.12088">
        <ele>126</ele>
        <time>2011-09-25T11:16:45Z</time>
      </trkpt>
      <trkpt lat="49.01254" lon="1.12096">
        <ele>126</ele>
        <time>2011-09-25T11:16:47Z</time>
      </trkpt>
      <trkpt lat="49.01252" lon="1.12105">
        <ele>125</ele>
        <time>2011-09-25T11:16:49Z</time>
      </trkpt>
      <trkpt lat="49.01248" lon="1.12116">
        <ele>128</ele>
        <time>2011-09-25T11:16:51Z</time>
      </trkpt>
      <trkpt lat="49.01245" lon="1.12126">
        <ele>128</ele>
        <time>2011-09-25T11:16:53Z</time>
      </trkpt>
      <trkpt lat="49.01241" lon="1.12135">
        <ele>128</ele>
        <time>2011-09-25T11:16:55Z</time>
      </trkpt>
      <trkpt lat="49.01239" lon="1.12143">
        <ele>128</ele>
        <time>2011-09-25T11:16:57Z</time>
      </trkpt>
      <trkpt lat="49.01236" lon="1.12151">
        <ele>129</ele>
        <time>2011-09-25T11:16:59Z</time>
      </trkpt>
      <trkpt lat="49.01234" lon="1.12159">
        <ele>129</ele>
        <time>2011-09-25T11:17:01Z</time>
      </trkpt>
      <trkpt lat="49.01232" lon="1.12167">
        <ele>130</ele>
        <time>2011-09-25T11:17:03Z</time>
      </trkpt>
      <trkpt lat="49.01231" lon="1.12175">
        <ele>130</ele>
        <time>2011-09-25T11:17:05Z</time>
      </trkpt>
      <trkpt lat="49.01228" lon="1.12184">
        <ele>130</ele>
        <time>2011-09-25T11:17:07Z</time>
      </trkpt>
      <trkpt lat="49.01225" lon="1.12194">
        <ele>130</ele>
        <time>2011-09-25T11:17:09Z</time>
      </trkpt>
      <trkpt lat="49.01223" lon="1.12204">
        <ele>130</ele>
        <time>2011-09-25T11:17:11Z</time>
      </trkpt>
      <trkpt lat="49.01222" lon="1.12215">
        <ele>130</ele>
        <time>2011-09-25T11:17:13Z</time>
      </trkpt>
      <trkpt lat="49.01224" lon="1.12223">
        <ele>130</ele>
        <time>2011-09-25T11:17:16Z</time>
      </trkpt>
      <trkpt lat="49.01228" lon="1.12227">
        <ele>130</ele>
        <time>2011-09-25T11:17:18Z</time>
      </trkpt>
      <trkpt lat="49.01233" lon="1.1223">
        <ele>130</ele>
        <time>2011-09-25T11:17:20Z</time>
      </trkpt>
      <trkpt lat="49.01239" lon="1.12235">
        <ele>130</ele>
        <time>2011-09-25T11:17:22Z</time>
      </trkpt>
      <trkpt lat="49.01245" lon="1.12238">
        <ele>131</ele>
        <time>2011-09-25T11:17:24Z</time>
      </trkpt>
      <trkpt lat="49.01251" lon="1.12243">
        <ele>130</ele>
        <time>2011-09-25T11:17:26Z</time>
      </trkpt>
      <trkpt lat="49.01258" lon="1.12248">
        <ele>130</ele>
        <time>2011-09-25T11:17:28Z</time>
      </trkpt>
      <trkpt lat="49.01265" lon="1.12253">
        <ele>130</ele>
        <time>2011-09-25T11:17:30Z</time>
      </trkpt>
      <trkpt lat="49.01272" lon="1.12258">
        <ele>129</ele>
        <time>2011-09-25T11:17:32Z</time>
      </trkpt>
      <trkpt lat="49.01279" lon="1.12263">
        <ele>129</ele>
        <time>2011-09-25T11:17:34Z</time>
      </trkpt>
      <trkpt lat="49.01288" lon="1.12269">
        <ele>128</ele>
        <time>2011-09-25T11:17:36Z</time>
      </trkpt>
      <trkpt lat="49.01292" lon="1.12273">
        <ele>128</ele>
        <time>2011-09-25T11:17:37Z</time>
      </trkpt>
      <trkpt lat="49.01296" lon="1.12278">
        <ele>128</ele>
        <time>2011-09-25T11:17:38Z</time>
      </trkpt>
      <trkpt lat="49.01301" lon="1.12283">
        <ele>128</ele>
        <time>2011-09-25T11:17:39Z</time>
      </trkpt>
      <trkpt lat="49.01307" lon="1.1229">
        <ele>128</ele>
        <time>2011-09-25T11:17:40Z</time>
      </trkpt>
      <trkpt lat="49.01311" lon="1.12298">
        <ele>128</ele>
        <time>2011-09-25T11:17:41Z</time>
      </trkpt>
      <trkpt lat="49.01311" lon="1.12307">
        <ele>128</ele>
        <time>2011-09-25T11:17:42Z</time>
      </trkpt>
      <trkpt lat="49.01312" lon="1.12316">
        <ele>128</ele>
        <time>2011-09-25T11:17:43Z</time>
      </trkpt>
      <trkpt lat="49.01314" lon="1.12322">
        <ele>128</ele>
        <time>2011-09-25T11:17:44Z</time>
      </trkpt>
      <trkpt lat="49.01317" lon="1.12327">
        <ele>128</ele>
        <time>2011-09-25T11:17:45Z</time>
      </trkpt>
      <trkpt lat="49.01324" lon="1.12336">
        <ele>128</ele>
        <time>2011-09-25T11:17:47Z</time>
      </trkpt>
      <trkpt lat="49.01328" lon="1.12339">
        <ele>128</ele>
        <time>2011-09-25T11:17:48Z</time>
      </trkpt>
      <trkpt lat="49.01332" lon="1.12342">
        <ele>128</ele>
        <time>2011-09-25T11:17:49Z</time>
      </trkpt>
      <trkpt lat="49.01337" lon="1.12346">
        <ele>123</ele>
        <time>2011-09-25T11:17:50Z</time>
      </trkpt>
      <trkpt lat="49.01342" lon="1.12351">
        <ele>121</ele>
        <time>2011-09-25T11:17:51Z</time>
      </trkpt>
      <trkpt lat="49.01346" lon="1.12355">
        <ele>120</ele>
        <time>2011-09-25T11:17:52Z</time>
      </trkpt>
      <trkpt lat="49.0135" lon="1.12359">
        <ele>119</ele>
        <time>2011-09-25T11:17:53Z</time>
      </trkpt>
      <trkpt lat="49.01355" lon="1.12363">
        <ele>119</ele>
        <time>2011-09-25T11:17:54Z</time>
      </trkpt>
      <trkpt lat="49.01359" lon="1.12368">
        <ele>118</ele>
        <time>2011-09-25T11:17:55Z</time>
      </trkpt>
      <trkpt lat="49.01363" lon="1.12371">
        <ele>118</ele>
        <time>2011-09-25T11:17:56Z</time>
      </trkpt>
      <trkpt lat="49.01368" lon="1.12376">
        <ele>117</ele>
        <time>2011-09-25T11:17:57Z</time>
      </trkpt>
      <trkpt lat="49.01373" lon="1.12381">
        <ele>116</ele>
        <time>2011-09-25T11:17:58Z</time>
      </trkpt>
      <trkpt lat="49.01378" lon="1.12385">
        <ele>116</ele>
        <time>2011-09-25T11:17:59Z</time>
      </trkpt>
      <trkpt lat="49.01384" lon="1.1239">
        <ele>115</ele>
        <time>2011-09-25T11:18:00Z</time>
      </trkpt>
      <trkpt lat="49.01388" lon="1.12395">
        <ele>114</ele>
        <time>2011-09-25T11:18:01Z</time>
      </trkpt>
      <trkpt lat="49.01391" lon="1.12401">
        <ele>114</ele>
        <time>2011-09-25T11:18:02Z</time>
      </trkpt>
      <trkpt lat="49.01395" lon="1.12406">
        <ele>113</ele>
        <time>2011-09-25T11:18:03Z</time>
      </trkpt>
      <trkpt lat="49.014" lon="1.1241">
        <ele>112</ele>
        <time>2011-09-25T11:18:04Z</time>
      </trkpt>
      <trkpt lat="49.01405" lon="1.12414">
        <ele>110</ele>
        <time>2011-09-25T11:18:05Z</time>
      </trkpt>
      <trkpt lat="49.0141" lon="1.12419">
        <ele>110</ele>
        <time>2011-09-25T11:18:06Z</time>
      </trkpt>
      <trkpt lat="49.01414" lon="1.12426">
        <ele>111</ele>
        <time>2011-09-25T11:18:07Z</time>
      </trkpt>
      <trkpt lat="49.01418" lon="1.12432">
        <ele>104</ele>
        <time>2011-09-25T11:18:08Z</time>
      </trkpt>
      <trkpt lat="49.01422" lon="1.12438">
        <ele>103</ele>
        <time>2011-09-25T11:18:09Z</time>
      </trkpt>
      <trkpt lat="49.01425" lon="1.12444">
        <ele>102</ele>
        <time>2011-09-25T11:18:10Z</time>
      </trkpt>
      <trkpt lat="49.01428" lon="1.1245">
        <ele>102</ele>
        <time>2011-09-25T11:18:11Z</time>
      </trkpt>
      <trkpt lat="49.0143" lon="1.12457">
        <ele>102</ele>
        <time>2011-09-25T11:18:12Z</time>
      </trkpt>
      <trkpt lat="49.01433" lon="1.12465">
        <ele>102</ele>
        <time>2011-09-25T11:18:13Z</time>
      </trkpt>
      <trkpt lat="49.01436" lon="1.12472">
        <ele>102</ele>
        <time>2011-09-25T11:18:14Z</time>
      </trkpt>
      <trkpt lat="49.01438" lon="1.12479">
        <ele>103</ele>
        <time>2011-09-25T11:18:15Z</time>
      </trkpt>
      <trkpt lat="49.01442" lon="1.12485">
        <ele>102</ele>
        <time>2011-09-25T11:18:16Z</time>
      </trkpt>
      <trkpt lat="49.01446" lon="1.12491">
        <ele>102</ele>
        <time>2011-09-25T11:18:17Z</time>
      </trkpt>
      <trkpt lat="49.01448" lon="1.12498">
        <ele>102</ele>
        <time>2011-09-25T11:18:18Z</time>
      </trkpt>
      <trkpt lat="49.01453" lon="1.12502">
        <ele>103</ele>
        <time>2011-09-25T11:18:19Z</time>
      </trkpt>
      <trkpt lat="49.01458" lon="1.12506">
        <ele>102</ele>
        <time>2011-09-25T11:18:20Z</time>
      </trkpt>
      <trkpt lat="49.01462" lon="1.12512">
        <ele>101</ele>
        <time>2011-09-25T11:18:21Z</time>
      </trkpt>
      <trkpt lat="49.01466" lon="1.12516">
        <ele>100</ele>
        <time>2011-09-25T11:18:22Z</time>
      </trkpt>
      <trkpt lat="49.01472" lon="1.12521">
        <ele>99</ele>
        <time>2011-09-25T11:18:23Z</time>
      </trkpt>
      <trkpt lat="49.01478" lon="1.12523">
        <ele>98</ele>
        <time>2011-09-25T11:18:24Z</time>
      </trkpt>
      <trkpt lat="49.01483" lon="1.12524">
        <ele>98</ele>
        <time>2011-09-25T11:18:25Z</time>
      </trkpt>
      <trkpt lat="49.01488" lon="1.12526">
        <ele>97</ele>
        <time>2011-09-25T11:18:26Z</time>
      </trkpt>
      <trkpt lat="49.01492" lon="1.1253">
        <ele>97</ele>
        <time>2011-09-25T11:18:27Z</time>
      </trkpt>
      <trkpt lat="49.01496" lon="1.12534">
        <ele>97</ele>
        <time>2011-09-25T11:18:28Z</time>
      </trkpt>
      <trkpt lat="49.015" lon="1.1254">
        <ele>84</ele>
        <time>2011-09-25T11:18:29Z</time>
      </trkpt>
      <trkpt lat="49.01503" lon="1.12551">
        <ele>84</ele>
        <time>2011-09-25T11:18:31Z</time>
      </trkpt>
      <trkpt lat="49.0151" lon="1.12558">
        <ele>84</ele>
        <time>2011-09-25T11:18:33Z</time>
      </trkpt>
      <trkpt lat="49.01514" lon="1.12562">
        <ele>84</ele>
        <time>2011-09-25T11:18:34Z</time>
      </trkpt>
      <trkpt lat="49.01516" lon="1.1257">
        <ele>85</ele>
        <time>2011-09-25T11:18:36Z</time>
      </trkpt>
      <trkpt lat="49.0152" lon="1.12577">
        <ele>85</ele>
        <time>2011-09-25T11:18:38Z</time>
      </trkpt>
      <trkpt lat="49.01524" lon="1.12584">
        <ele>85</ele>
        <time>2011-09-25T11:18:40Z</time>
      </trkpt>
      <trkpt lat="49.01526" lon="1.12594">
        <ele>85</ele>
        <time>2011-09-25T11:18:42Z</time>
      </trkpt>
      <trkpt lat="49.01527" lon="1.12603">
        <ele>84</ele>
        <time>2011-09-25T11:18:44Z</time>
      </trkpt>
      <trkpt lat="49.0153" lon="1.12612">
        <ele>84</ele>
        <time>2011-09-25T11:18:46Z</time>
      </trkpt>
      <trkpt lat="49.01531" lon="1.12622">
        <ele>84</ele>
        <time>2011-09-25T11:18:48Z</time>
      </trkpt>
      <trkpt lat="49.01533" lon="1.12631">
        <ele>84</ele>
        <time>2011-09-25T11:18:50Z</time>
      </trkpt>
      <trkpt lat="49.01535" lon="1.1264">
        <ele>84</ele>
        <time>2011-09-25T11:18:52Z</time>
      </trkpt>
      <trkpt lat="49.01536" lon="1.1265">
        <ele>84</ele>
        <time>2011-09-25T11:18:54Z</time>
      </trkpt>
      <trkpt lat="49.01535" lon="1.12658">
        <ele>84</ele>
        <time>2011-09-25T11:18:56Z</time>
      </trkpt>
      <trkpt lat="49.01533" lon="1.12667">
        <ele>85</ele>
        <time>2011-09-25T11:18:58Z</time>
      </trkpt>
      <trkpt lat="49.01528" lon="1.12675">
        <ele>85</ele>
        <time>2011-09-25T11:19:00Z</time>
      </trkpt>
      <trkpt lat="49.01522" lon="1.12683">
        <ele>86</ele>
        <time>2011-09-25T11:19:02Z</time>
      </trkpt>
      <trkpt lat="49.01517" lon="1.12694">
        <ele>86</ele>
        <time>2011-09-25T11:19:04Z</time>
      </trkpt>
      <trkpt lat="49.01516" lon="1.12701">
        <ele>86</ele>
        <time>2011-09-25T11:19:05Z</time>
      </trkpt>
      <trkpt lat="49.01516" lon="1.12701">
        <ele>86</ele>
        <time>2011-09-25T11:19:05Z</time>
      </trkpt>
      <trkpt lat="49.01516" lon="1.12701">
        <ele>86</ele>
        <time>2011-09-25T11:19:06Z</time>
      </trkpt>
      <trkpt lat="49.01515" lon="1.1271">
        <ele>86</ele>
        <time>2011-09-25T11:19:07Z</time>
      </trkpt>
      <trkpt lat="49.01514" lon="1.12718">
        <ele>86</ele>
        <time>2011-09-25T11:19:09Z</time>
      </trkpt>
      <trkpt lat="49.01515" lon="1.12729">
        <ele>86</ele>
        <time>2011-09-25T11:19:13Z</time>
      </trkpt>
      <trkpt lat="49.01515" lon="1.12738">
        <ele>87</ele>
        <time>2011-09-25T11:19:16Z</time>
      </trkpt>
      <trkpt lat="49.01515" lon="1.12738">
        <ele>87</ele>
        <time>2011-09-25T11:19:16Z</time>
      </trkpt>
      <trkpt lat="49.01515" lon="1.12738">
        <ele>87</ele>
        <time>2011-09-25T11:19:17Z</time>
      </trkpt>
      <trkpt lat="49.01515" lon="1.12747">
        <ele>88</ele>
        <time>2011-09-25T11:19:19Z</time>
      </trkpt>
      <trkpt lat="49.01515" lon="1.12758">
        <ele>87</ele>
        <time>2011-09-25T11:19:21Z</time>
      </trkpt>
      <trkpt lat="49.01515" lon="1.12758">
        <ele>87</ele>
        <time>2011-09-25T11:19:21Z</time>
      </trkpt>
      <trkpt lat="49.01515" lon="1.12758">
        <ele>87</ele>
        <time>2011-09-25T11:19:22Z</time>
      </trkpt>
      <trkpt lat="49.0151" lon="1.12769">
        <ele>87</ele>
        <time>2011-09-25T11:19:23Z</time>
      </trkpt>
      <trkpt lat="49.0151" lon="1.12769">
        <ele>87</ele>
        <time>2011-09-25T11:19:23Z</time>
      </trkpt>
      <trkpt lat="49.0151" lon="1.12769">
        <ele>87</ele>
        <time>2011-09-25T11:19:24Z</time>
      </trkpt>
      <trkpt lat="49.01508" lon="1.12778">
        <ele>86</ele>
        <time>2011-09-25T11:19:25Z</time>
      </trkpt>
      <trkpt lat="49.01506" lon="1.12786">
        <ele>86</ele>
        <time>2011-09-25T11:19:27Z</time>
      </trkpt>
      <trkpt lat="49.01502" lon="1.12796">
        <ele>87</ele>
        <time>2011-09-25T11:19:29Z</time>
      </trkpt>
      <trkpt lat="49.015" lon="1.12806">
        <ele>87</ele>
        <time>2011-09-25T11:19:31Z</time>
      </trkpt>
      <trkpt lat="49.01496" lon="1.12812">
        <ele>100</ele>
        <time>2011-09-25T11:19:33Z</time>
      </trkpt>
      <trkpt lat="49.01495" lon="1.12819">
        <ele>99</ele>
        <time>2011-09-25T11:19:35Z</time>
      </trkpt>
      <trkpt lat="49.01494" lon="1.12831">
        <ele>97</ele>
        <time>2011-09-25T11:19:39Z</time>
      </trkpt>
      <trkpt lat="49.01494" lon="1.12831">
        <ele>97</ele>
        <time>2011-09-25T11:19:39Z</time>
      </trkpt>
      <trkpt lat="49.01494" lon="1.12831">
        <ele>97</ele>
        <time>2011-09-25T11:19:40Z</time>
      </trkpt>
      <trkpt lat="49.01493" lon="1.12843">
        <ele>99</ele>
        <time>2011-09-25T11:19:44Z</time>
      </trkpt>
      <trkpt lat="49.01493" lon="1.12843">
        <ele>99</ele>
        <time>2011-09-25T11:19:44Z</time>
      </trkpt>
      <trkpt lat="49.01493" lon="1.12843">
        <ele>99</ele>
        <time>2011-09-25T11:19:46Z</time>
      </trkpt>
      <trkpt lat="49.01492" lon="1.12851">
        <ele>100</ele>
        <time>2011-09-25T11:19:47Z</time>
      </trkpt>
      <trkpt lat="49.0149" lon="1.12864">
        <ele>102</ele>
        <time>2011-09-25T11:19:51Z</time>
      </trkpt>
      <trkpt lat="49.0149" lon="1.12874">
        <ele>102</ele>
        <time>2011-09-25T11:19:53Z</time>
      </trkpt>
      <trkpt lat="49.0149" lon="1.12882">
        <ele>102</ele>
        <time>2011-09-25T11:19:55Z</time>
      </trkpt>
      <trkpt lat="49.01489" lon="1.12889">
        <ele>102</ele>
        <time>2011-09-25T11:19:57Z</time>
      </trkpt>
      <trkpt lat="49.0149" lon="1.12896">
        <ele>101</ele>
        <time>2011-09-25T11:19:59Z</time>
      </trkpt>
      <trkpt lat="49.01492" lon="1.12905">
        <ele>99</ele>
        <time>2011-09-25T11:20:03Z</time>
      </trkpt>
      <trkpt lat="49.01487" lon="1.12914">
        <ele>99</ele>
        <time>2011-09-25T11:20:06Z</time>
      </trkpt>
      <trkpt lat="49.01487" lon="1.12914">
        <ele>99</ele>
        <time>2011-09-25T11:20:06Z</time>
      </trkpt>
      <trkpt lat="49.01487" lon="1.12914">
        <ele>99</ele>
        <time>2011-09-25T11:20:08Z</time>
      </trkpt>
      <trkpt lat="49.0148" lon="1.12922">
        <ele>101</ele>
        <time>2011-09-25T11:20:09Z</time>
      </trkpt>
      <trkpt lat="49.0148" lon="1.12922">
        <ele>101</ele>
        <time>2011-09-25T11:20:09Z</time>
      </trkpt>
      <trkpt lat="49.0148" lon="1.12922">
        <ele>101</ele>
        <time>2011-09-25T11:20:10Z</time>
      </trkpt>
      <trkpt lat="49.01476" lon="1.1292">
        <ele>102</ele>
        <time>2011-09-25T11:20:11Z</time>
      </trkpt>
      <trkpt lat="49.01476" lon="1.1292">
        <ele>102</ele>
        <time>2011-09-25T11:20:11Z</time>
      </trkpt>
      <trkpt lat="49.01476" lon="1.1292">
        <ele>102</ele>
        <time>2011-09-25T11:20:12Z</time>
      </trkpt>
      <trkpt lat="49.01472" lon="1.12915">
        <ele>103</ele>
        <time>2011-09-25T11:20:13Z</time>
      </trkpt>
      <trkpt lat="49.01472" lon="1.12915">
        <ele>103</ele>
        <time>2011-09-25T11:20:13Z</time>
      </trkpt>
      <trkpt lat="49.01472" lon="1.12915">
        <ele>103</ele>
        <time>2011-09-25T11:20:14Z</time>
      </trkpt>
      <trkpt lat="49.01469" lon="1.1291">
        <ele>104</ele>
        <time>2011-09-25T11:20:15Z</time>
      </trkpt>
      <trkpt lat="49.01464" lon="1.12902">
        <ele>105</ele>
        <time>2011-09-25T11:20:18Z</time>
      </trkpt>
      <trkpt lat="49.01463" lon="1.12896">
        <ele>105</ele>
        <time>2011-09-25T11:20:21Z</time>
      </trkpt>
      <trkpt lat="49.0146" lon="1.12888">
        <ele>106</ele>
        <time>2011-09-25T11:20:25Z</time>
      </trkpt>
      <trkpt lat="49.0146" lon="1.12888">
        <ele>106</ele>
        <time>2011-09-25T11:20:25Z</time>
      </trkpt>
      <trkpt lat="49.0146" lon="1.12888">
        <ele>106</ele>
        <time>2011-09-25T11:20:26Z</time>
      </trkpt>
      <trkpt lat="49.01458" lon="1.1288">
        <ele>106</ele>
        <time>2011-09-25T11:20:29Z</time>
      </trkpt>
      <trkpt lat="49.01458" lon="1.1288">
        <ele>106</ele>
        <time>2011-09-25T11:20:29Z</time>
      </trkpt>
      <trkpt lat="49.01458" lon="1.1288">
        <ele>106</ele>
        <time>2011-09-25T11:20:33Z</time>
      </trkpt>
      <trkpt lat="49.01455" lon="1.1287">
        <ele>107</ele>
        <time>2011-09-25T11:20:34Z</time>
      </trkpt>
      <trkpt lat="49.01455" lon="1.1287">
        <ele>107</ele>
        <time>2011-09-25T11:20:34Z</time>
      </trkpt>
      <trkpt lat="49.01455" lon="1.1287">
        <ele>107</ele>
        <time>2011-09-25T11:20:36Z</time>
      </trkpt>
      <trkpt lat="49.01452" lon="1.12863">
        <ele>107</ele>
        <time>2011-09-25T11:20:37Z</time>
      </trkpt>
      <trkpt lat="49.0145" lon="1.12849">
        <ele>108</ele>
        <time>2011-09-25T11:20:43Z</time>
      </trkpt>
      <trkpt lat="49.01448" lon="1.12842">
        <ele>109</ele>
        <time>2011-09-25T11:20:46Z</time>
      </trkpt>
      <trkpt lat="49.01448" lon="1.12842">
        <ele>109</ele>
        <time>2011-09-25T11:20:46Z</time>
      </trkpt>
      <trkpt lat="49.01448" lon="1.12842">
        <ele>109</ele>
        <time>2011-09-25T11:20:47Z</time>
      </trkpt>
      <trkpt lat="49.01445" lon="1.12831">
        <ele>109</ele>
        <time>2011-09-25T11:20:50Z</time>
      </trkpt>
      <trkpt lat="49.01441" lon="1.12823">
        <ele>110</ele>
        <time>2011-09-25T11:20:53Z</time>
      </trkpt>
      <trkpt lat="49.01439" lon="1.12816">
        <ele>110</ele>
        <time>2011-09-25T11:20:55Z</time>
      </trkpt>
      <trkpt lat="49.01437" lon="1.12808">
        <ele>109</ele>
        <time>2011-09-25T11:20:57Z</time>
      </trkpt>
      <trkpt lat="49.01436" lon="1.12801">
        <ele>109</ele>
        <time>2011-09-25T11:20:59Z</time>
      </trkpt>
      <trkpt lat="49.01434" lon="1.12792">
        <ele>109</ele>
        <time>2011-09-25T11:21:02Z</time>
      </trkpt>
      <trkpt lat="49.01433" lon="1.12786">
        <ele>109</ele>
        <time>2011-09-25T11:21:04Z</time>
      </trkpt>
      <trkpt lat="49.01432" lon="1.12778">
        <ele>110</ele>
        <time>2011-09-25T11:21:06Z</time>
      </trkpt>
      <trkpt lat="49.0143" lon="1.12769">
        <ele>111</ele>
        <time>2011-09-25T11:21:09Z</time>
      </trkpt>
      <trkpt lat="49.01428" lon="1.12762">
        <ele>112</ele>
        <time>2011-09-25T11:21:11Z</time>
      </trkpt>
      <trkpt lat="49.01426" lon="1.12755">
        <ele>114</ele>
        <time>2011-09-25T11:21:13Z</time>
      </trkpt>
      <trkpt lat="49.01424" lon="1.12748">
        <ele>115</ele>
        <time>2011-09-25T11:21:15Z</time>
      </trkpt>
      <trkpt lat="49.01423" lon="1.12738">
        <ele>113</ele>
        <time>2011-09-25T11:21:18Z</time>
      </trkpt>
      <trkpt lat="49.01421" lon="1.12731">
        <ele>112</ele>
        <time>2011-09-25T11:21:20Z</time>
      </trkpt>
      <trkpt lat="49.01419" lon="1.12724">
        <ele>111</ele>
        <time>2011-09-25T11:21:22Z</time>
      </trkpt>
      <trkpt lat="49.01417" lon="1.12717">
        <ele>111</ele>
        <time>2011-09-25T11:21:24Z</time>
      </trkpt>
      <trkpt lat="49.01417" lon="1.12717">
        <ele>111</ele>
        <time>2011-09-25T11:21:24Z</time>
      </trkpt>
      <trkpt lat="49.01417" lon="1.12717">
        <ele>111</ele>
        <time>2011-09-25T11:21:25Z</time>
      </trkpt>
      <trkpt lat="49.01415" lon="1.12709">
        <ele>122</ele>
        <time>2011-09-25T11:21:26Z</time>
      </trkpt>
      <trkpt lat="49.01413" lon="1.12697">
        <ele>122</ele>
        <time>2011-09-25T11:21:29Z</time>
      </trkpt>
      <trkpt lat="49.01411" lon="1.12689">
        <ele>122</ele>
        <time>2011-09-25T11:21:31Z</time>
      </trkpt>
      <trkpt lat="49.01409" lon="1.12681">
        <ele>122</ele>
        <time>2011-09-25T11:21:33Z</time>
      </trkpt>
      <trkpt lat="49.01406" lon="1.12671">
        <ele>122</ele>
        <time>2011-09-25T11:21:35Z</time>
      </trkpt>
      <trkpt lat="49.01402" lon="1.1266">
        <ele>122</ele>
        <time>2011-09-25T11:21:37Z</time>
      </trkpt>
      <trkpt lat="49.01399" lon="1.12649">
        <ele>122</ele>
        <time>2011-09-25T11:21:39Z</time>
      </trkpt>
      <trkpt lat="49.01396" lon="1.12636">
        <ele>123</ele>
        <time>2011-09-25T11:21:41Z</time>
      </trkpt>
      <trkpt lat="49.01394" lon="1.12624">
        <ele>123</ele>
        <time>2011-09-25T11:21:43Z</time>
      </trkpt>
      <trkpt lat="49.0139" lon="1.12613">
        <ele>123</ele>
        <time>2011-09-25T11:21:45Z</time>
      </trkpt>
      <trkpt lat="49.01389" lon="1.12606">
        <ele>123</ele>
        <time>2011-09-25T11:21:46Z</time>
      </trkpt>
      <trkpt lat="49.01386" lon="1.12594">
        <ele>123</ele>
        <time>2011-09-25T11:21:48Z</time>
      </trkpt>
      <trkpt lat="49.01384" lon="1.12581">
        <ele>121</ele>
        <time>2011-09-25T11:21:50Z</time>
      </trkpt>
      <trkpt lat="49.01382" lon="1.12575">
        <ele>121</ele>
        <time>2011-09-25T11:21:51Z</time>
      </trkpt>
      <trkpt lat="49.0138" lon="1.12568">
        <ele>122</ele>
        <time>2011-09-25T11:21:52Z</time>
      </trkpt>
      <trkpt lat="49.01377" lon="1.12561">
        <ele>122</ele>
        <time>2011-09-25T11:21:53Z</time>
      </trkpt>
      <trkpt lat="49.01375" lon="1.12554">
        <ele>122</ele>
        <time>2011-09-25T11:21:54Z</time>
      </trkpt>
      <trkpt lat="49.01372" lon="1.12548">
        <ele>122</ele>
        <time>2011-09-25T11:21:55Z</time>
      </trkpt>
      <trkpt lat="49.01371" lon="1.12542">
        <ele>122</ele>
        <time>2011-09-25T11:21:56Z</time>
      </trkpt>
      <trkpt lat="49.01368" lon="1.12535">
        <ele>122</ele>
        <time>2011-09-25T11:21:57Z</time>
      </trkpt>
      <trkpt lat="49.01365" lon="1.12522">
        <ele>122</ele>
        <time>2011-09-25T11:21:59Z</time>
      </trkpt>
      <trkpt lat="49.01362" lon="1.1251">
        <ele>123</ele>
        <time>2011-09-25T11:22:01Z</time>
      </trkpt>
      <trkpt lat="49.0136" lon="1.12498">
        <ele>122</ele>
        <time>2011-09-25T11:22:03Z</time>
      </trkpt>
      <trkpt lat="49.01357" lon="1.12486">
        <ele>122</ele>
        <time>2011-09-25T11:22:05Z</time>
      </trkpt>
      <trkpt lat="49.01353" lon="1.12474">
        <ele>121</ele>
        <time>2011-09-25T11:22:07Z</time>
      </trkpt>
      <trkpt lat="49.01351" lon="1.12468">
        <ele>121</ele>
        <time>2011-09-25T11:22:08Z</time>
      </trkpt>
      <trkpt lat="49.0135" lon="1.12461">
        <ele>121</ele>
        <time>2011-09-25T11:22:09Z</time>
      </trkpt>
      <trkpt lat="49.01347" lon="1.12449">
        <ele>121</ele>
        <time>2011-09-25T11:22:11Z</time>
      </trkpt>
      <trkpt lat="49.01346" lon="1.12438">
        <ele>122</ele>
        <time>2011-09-25T11:22:13Z</time>
      </trkpt>
      <trkpt lat="49.01346" lon="1.12428">
        <ele>123</ele>
        <time>2011-09-25T11:22:15Z</time>
      </trkpt>
      <trkpt lat="49.01344" lon="1.12421">
        <ele>124</ele>
        <time>2011-09-25T11:22:17Z</time>
      </trkpt>
      <trkpt lat="49.01339" lon="1.12403">
        <ele>122</ele>
        <time>2011-09-25T11:22:23Z</time>
      </trkpt>
      <trkpt lat="49.01337" lon="1.12398">
        <ele>122</ele>
        <time>2011-09-25T11:22:25Z</time>
      </trkpt>
      <trkpt lat="49.01337" lon="1.12398">
        <ele>122</ele>
        <time>2011-09-25T11:22:25Z</time>
      </trkpt>
      <trkpt lat="49.01337" lon="1.12398">
        <ele>122</ele>
        <time>2011-09-25T11:22:26Z</time>
      </trkpt>
      <trkpt lat="49.01334" lon="1.12392">
        <ele>121</ele>
        <time>2011-09-25T11:22:27Z</time>
      </trkpt>
      <trkpt lat="49.01339" lon="1.12383">
        <ele>120</ele>
        <time>2011-09-25T11:22:31Z</time>
      </trkpt>
      <trkpt lat="49.01339" lon="1.12383">
        <ele>120</ele>
        <time>2011-09-25T11:22:31Z</time>
      </trkpt>
      <trkpt lat="49.01339" lon="1.12383">
        <ele>120</ele>
        <time>2011-09-25T11:22:32Z</time>
      </trkpt>
      <trkpt lat="49.01344" lon="1.12381">
        <ele>120</ele>
        <time>2011-09-25T11:22:34Z</time>
      </trkpt>
      <trkpt lat="49.01348" lon="1.12384">
        <ele>119</ele>
        <time>2011-09-25T11:22:36Z</time>
      </trkpt>
      <trkpt lat="49.01353" lon="1.12389">
        <ele>119</ele>
        <time>2011-09-25T11:22:38Z</time>
      </trkpt>
      <trkpt lat="49.01359" lon="1.12392">
        <ele>118</ele>
        <time>2011-09-25T11:22:40Z</time>
      </trkpt>
      <trkpt lat="49.01363" lon="1.12395">
        <ele>118</ele>
        <time>2011-09-25T11:22:42Z</time>
      </trkpt>
      <trkpt lat="49.01368" lon="1.12398">
        <ele>117</ele>
        <time>2011-09-25T11:22:44Z</time>
      </trkpt>
      <trkpt lat="49.01373" lon="1.12399">
        <ele>117</ele>
        <time>2011-09-25T11:22:45Z</time>
      </trkpt>
      <trkpt lat="49.0138" lon="1.12406">
        <ele>115</ele>
        <time>2011-09-25T11:22:47Z</time>
      </trkpt>
      <trkpt lat="49.01385" lon="1.12415">
        <ele>115</ele>
        <time>2011-09-25T11:22:49Z</time>
      </trkpt>
      <trkpt lat="49.01389" lon="1.12419">
        <ele>115</ele>
        <time>2011-09-25T11:22:50Z</time>
      </trkpt>
      <trkpt lat="49.01393" lon="1.12424">
        <ele>115</ele>
        <time>2011-09-25T11:22:51Z</time>
      </trkpt>
      <trkpt lat="49.01397" lon="1.12427">
        <ele>114</ele>
        <time>2011-09-25T11:22:52Z</time>
      </trkpt>
      <trkpt lat="49.01401" lon="1.1243">
        <ele>114</ele>
        <time>2011-09-25T11:22:53Z</time>
      </trkpt>
      <trkpt lat="49.01406" lon="1.12433">
        <ele>113</ele>
        <time>2011-09-25T11:22:54Z</time>
      </trkpt>
      <trkpt lat="49.0141" lon="1.12438">
        <ele>114</ele>
        <time>2011-09-25T11:22:55Z</time>
      </trkpt>
      <trkpt lat="49.01414" lon="1.12443">
        <ele>114</ele>
        <time>2011-09-25T11:22:56Z</time>
      </trkpt>
      <trkpt lat="49.01417" lon="1.12448">
        <ele>103</ele>
        <time>2011-09-25T11:22:57Z</time>
      </trkpt>
      <trkpt lat="49.01422" lon="1.12454">
        <ele>102</ele>
        <time>2011-09-25T11:22:58Z</time>
      </trkpt>
      <trkpt lat="49.01425" lon="1.1246">
        <ele>102</ele>
        <time>2011-09-25T11:22:59Z</time>
      </trkpt>
      <trkpt lat="49.01428" lon="1.12466">
        <ele>103</ele>
        <time>2011-09-25T11:23:00Z</time>
      </trkpt>
      <trkpt lat="49.01431" lon="1.12473">
        <ele>103</ele>
        <time>2011-09-25T11:23:01Z</time>
      </trkpt>
      <trkpt lat="49.01434" lon="1.12479">
        <ele>103</ele>
        <time>2011-09-25T11:23:02Z</time>
      </trkpt>
      <trkpt lat="49.01437" lon="1.12485">
        <ele>103</ele>
        <time>2011-09-25T11:23:03Z</time>
      </trkpt>
      <trkpt lat="49.0144" lon="1.12492">
        <ele>103</ele>
        <time>2011-09-25T11:23:04Z</time>
      </trkpt>
      <trkpt lat="49.01444" lon="1.12498">
        <ele>103</ele>
        <time>2011-09-25T11:23:05Z</time>
      </trkpt>
      <trkpt lat="49.01447" lon="1.12505">
        <ele>104</ele>
        <time>2011-09-25T11:23:06Z</time>
      </trkpt>
      <trkpt lat="49.0145" lon="1.12511">
        <ele>103</ele>
        <time>2011-09-25T11:23:07Z</time>
      </trkpt>
      <trkpt lat="49.01456" lon="1.12519">
        <ele>102</ele>
        <time>2011-09-25T11:23:09Z</time>
      </trkpt>
      <trkpt lat="49.0146" lon="1.12522">
        <ele>102</ele>
        <time>2011-09-25T11:23:10Z</time>
      </trkpt>
      <trkpt lat="49.01467" lon="1.1253">
        <ele>101</ele>
        <time>2011-09-25T11:23:12Z</time>
      </trkpt>
      <trkpt lat="49.01474" lon="1.12536">
        <ele>100</ele>
        <time>2011-09-25T11:23:14Z</time>
      </trkpt>
      <trkpt lat="49.01481" lon="1.12543">
        <ele>99</ele>
        <time>2011-09-25T11:23:16Z</time>
      </trkpt>
      <trkpt lat="49.01485" lon="1.12553">
        <ele>99</ele>
        <time>2011-09-25T11:23:18Z</time>
      </trkpt>
      <trkpt lat="49.01489" lon="1.12562">
        <ele>97</ele>
        <time>2011-09-25T11:23:20Z</time>
      </trkpt>
      <trkpt lat="49.01494" lon="1.1257">
        <ele>96</ele>
        <time>2011-09-25T11:23:22Z</time>
      </trkpt>
      <trkpt lat="49.01496" lon="1.12577">
        <ele>94</ele>
        <time>2011-09-25T11:23:24Z</time>
      </trkpt>
      <trkpt lat="49.015" lon="1.12583">
        <ele>91</ele>
        <time>2011-09-25T11:23:26Z</time>
      </trkpt>
      <trkpt lat="49.01503" lon="1.12591">
        <ele>89</ele>
        <time>2011-09-25T11:23:28Z</time>
      </trkpt>
      <trkpt lat="49.01505" lon="1.12601">
        <ele>87</ele>
        <time>2011-09-25T11:23:30Z</time>
      </trkpt>
      <trkpt lat="49.01507" lon="1.12612">
        <ele>86</ele>
        <time>2011-09-25T11:23:32Z</time>
      </trkpt>
      <trkpt lat="49.01509" lon="1.12622">
        <ele>86</ele>
        <time>2011-09-25T11:23:34Z</time>
      </trkpt>
      <trkpt lat="49.01512" lon="1.12631">
        <ele>86</ele>
        <time>2011-09-25T11:23:36Z</time>
      </trkpt>
      <trkpt lat="49.01513" lon="1.12641">
        <ele>86</ele>
        <time>2011-09-25T11:23:38Z</time>
      </trkpt>
      <trkpt lat="49.01512" lon="1.1265">
        <ele>87</ele>
        <time>2011-09-25T11:23:40Z</time>
      </trkpt>
      <trkpt lat="49.01514" lon="1.12659">
        <ele>88</ele>
        <time>2011-09-25T11:23:42Z</time>
      </trkpt>
      <trkpt lat="49.01515" lon="1.12667">
        <ele>88</ele>
        <time>2011-09-25T11:23:44Z</time>
      </trkpt>
      <trkpt lat="49.01514" lon="1.12674">
        <ele>88</ele>
        <time>2011-09-25T11:23:46Z</time>
      </trkpt>
      <trkpt lat="49.01512" lon="1.12685">
        <ele>87</ele>
        <time>2011-09-25T11:23:50Z</time>
      </trkpt>
      <trkpt lat="49.01511" lon="1.12692">
        <ele>87</ele>
        <time>2011-09-25T11:23:52Z</time>
      </trkpt>
      <trkpt lat="49.0151" lon="1.127">
        <ele>86</ele>
        <time>2011-09-25T11:23:54Z</time>
      </trkpt>
      <trkpt lat="49.0151" lon="1.127">
        <ele>86</ele>
        <time>2011-09-25T11:23:54Z</time>
      </trkpt>
      <trkpt lat="49.0151" lon="1.127">
        <ele>86</ele>
        <time>2011-09-25T11:23:55Z</time>
      </trkpt>
      <trkpt lat="49.0151" lon="1.12707">
        <ele>86</ele>
        <time>2011-09-25T11:23:56Z</time>
      </trkpt>
      <trkpt lat="49.0151" lon="1.12707">
        <ele>86</ele>
        <time>2011-09-25T11:23:56Z</time>
      </trkpt>
      <trkpt lat="49.0151" lon="1.12707">
        <ele>86</ele>
        <time>2011-09-25T11:24:00Z</time>
      </trkpt>
      <trkpt lat="49.01507" lon="1.12722">
        <ele>87</ele>
        <time>2011-09-25T11:24:01Z</time>
      </trkpt>
      <trkpt lat="49.01507" lon="1.12722">
        <ele>87</ele>
        <time>2011-09-25T11:24:01Z</time>
      </trkpt>
      <trkpt lat="49.01507" lon="1.12722">
        <ele>87</ele>
        <time>2011-09-25T11:24:02Z</time>
      </trkpt>
      <trkpt lat="49.0151" lon="1.12728">
        <ele>87</ele>
        <time>2011-09-25T11:24:04Z</time>
      </trkpt>
      <trkpt lat="49.0151" lon="1.12728">
        <ele>87</ele>
        <time>2011-09-25T11:24:04Z</time>
      </trkpt>
      <trkpt lat="49.0151" lon="1.12728">
        <ele>87</ele>
        <time>2011-09-25T11:24:07Z</time>
      </trkpt>
      <trkpt lat="49.01511" lon="1.12743">
        <ele>88</ele>
        <time>2011-09-25T11:24:08Z</time>
      </trkpt>
      <trkpt lat="49.01509" lon="1.12752">
        <ele>89</ele>
        <time>2011-09-25T11:24:10Z</time>
      </trkpt>
      <trkpt lat="49.01509" lon="1.12752">
        <ele>89</ele>
        <time>2011-09-25T11:24:10Z</time>
      </trkpt>
      <trkpt lat="49.01509" lon="1.12752">
        <ele>89</ele>
        <time>2011-09-25T11:24:12Z</time>
      </trkpt>
      <trkpt lat="49.01506" lon="1.12762">
        <ele>88</ele>
        <time>2011-09-25T11:24:13Z</time>
      </trkpt>
      <trkpt lat="49.01503" lon="1.12771">
        <ele>87</ele>
        <time>2011-09-25T11:24:15Z</time>
      </trkpt>
      <trkpt lat="49.015" lon="1.12781">
        <ele>87</ele>
        <time>2011-09-25T11:24:17Z</time>
      </trkpt>
      <trkpt lat="49.01498" lon="1.1279">
        <ele>101</ele>
        <time>2011-09-25T11:24:19Z</time>
      </trkpt>
      <trkpt lat="49.01497" lon="1.12799">
        <ele>101</ele>
        <time>2011-09-25T11:24:21Z</time>
      </trkpt>
      <trkpt lat="49.01497" lon="1.12799">
        <ele>101</ele>
        <time>2011-09-25T11:24:21Z</time>
      </trkpt>
      <trkpt lat="49.01497" lon="1.12799">
        <ele>101</ele>
        <time>2011-09-25T11:24:23Z</time>
      </trkpt>
      <trkpt lat="49.01494" lon="1.1281">
        <ele>100</ele>
        <time>2011-09-25T11:24:24Z</time>
      </trkpt>
      <trkpt lat="49.01494" lon="1.1281">
        <ele>100</ele>
        <time>2011-09-25T11:24:24Z</time>
      </trkpt>
      <trkpt lat="49.01494" lon="1.1281">
        <ele>100</ele>
        <time>2011-09-25T11:24:26Z</time>
      </trkpt>
      <trkpt lat="49.01494" lon="1.12818">
        <ele>99</ele>
        <time>2011-09-25T11:24:27Z</time>
      </trkpt>
      <trkpt lat="49.01486" lon="1.12833">
        <ele>99</ele>
        <time>2011-09-25T11:24:33Z</time>
      </trkpt>
      <trkpt lat="49.01487" lon="1.1284">
        <ele>100</ele>
        <time>2011-09-25T11:24:36Z</time>
      </trkpt>
      <trkpt lat="49.01487" lon="1.1284">
        <ele>100</ele>
        <time>2011-09-25T11:24:36Z</time>
      </trkpt>
      <trkpt lat="49.01487" lon="1.1284">
        <ele>100</ele>
        <time>2011-09-25T11:24:38Z</time>
      </trkpt>
      <trkpt lat="49.01487" lon="1.12849">
        <ele>101</ele>
        <time>2011-09-25T11:24:39Z</time>
      </trkpt>
      <trkpt lat="49.01486" lon="1.12856">
        <ele>102</ele>
        <time>2011-09-25T11:24:41Z</time>
      </trkpt>
      <trkpt lat="49.01486" lon="1.12869">
        <ele>103</ele>
        <time>2011-09-25T11:24:44Z</time>
      </trkpt>
      <trkpt lat="49.01483" lon="1.12876">
        <ele>103</ele>
        <time>2011-09-25T11:24:46Z</time>
      </trkpt>
      <trkpt lat="49.01482" lon="1.12883">
        <ele>103</ele>
        <time>2011-09-25T11:24:48Z</time>
      </trkpt>
      <trkpt lat="49.01481" lon="1.1289">
        <ele>103</ele>
        <time>2011-09-25T11:24:50Z</time>
      </trkpt>
      <trkpt lat="49.01479" lon="1.12899">
        <ele>102</ele>
        <time>2011-09-25T11:24:53Z</time>
      </trkpt>
      <trkpt lat="49.01479" lon="1.12899">
        <ele>102</ele>
        <time>2011-09-25T11:24:53Z</time>
      </trkpt>
      <trkpt lat="49.01479" lon="1.12899">
        <ele>102</ele>
        <time>2011-09-25T11:24:54Z</time>
      </trkpt>
      <trkpt lat="49.01477" lon="1.12906">
        <ele>102</ele>
        <time>2011-09-25T11:24:55Z</time>
      </trkpt>
      <trkpt lat="49.01466" lon="1.12914">
        <ele>104</ele>
        <time>2011-09-25T11:25:01Z</time>
      </trkpt>
      <trkpt lat="49.01461" lon="1.12911">
        <ele>106</ele>
        <time>2011-09-25T11:25:03Z</time>
      </trkpt>
      <trkpt lat="49.01457" lon="1.12906">
        <ele>106</ele>
        <time>2011-09-25T11:25:05Z</time>
      </trkpt>
      <trkpt lat="49.01457" lon="1.12906">
        <ele>106</ele>
        <time>2011-09-25T11:25:05Z</time>
      </trkpt>
      <trkpt lat="49.01457" lon="1.12906">
        <ele>106</ele>
        <time>2011-09-25T11:25:06Z</time>
      </trkpt>
      <trkpt lat="49.01452" lon="1.12895">
        <ele>107</ele>
        <time>2011-09-25T11:25:09Z</time>
      </trkpt>
      <trkpt lat="49.0145" lon="1.12885">
        <ele>107</ele>
        <time>2011-09-25T11:25:13Z</time>
      </trkpt>
      <trkpt lat="49.01451" lon="1.12877">
        <ele>107</ele>
        <time>2011-09-25T11:25:16Z</time>
      </trkpt>
      <trkpt lat="49.0145" lon="1.12869">
        <ele>108</ele>
        <time>2011-09-25T11:25:20Z</time>
      </trkpt>
      <trkpt lat="49.0145" lon="1.12869">
        <ele>108</ele>
        <time>2011-09-25T11:25:20Z</time>
      </trkpt>
      <trkpt lat="49.0145" lon="1.12869">
        <ele>108</ele>
        <time>2011-09-25T11:25:24Z</time>
      </trkpt>
      <trkpt lat="49.01446" lon="1.12855">
        <ele>109</ele>
        <time>2011-09-25T11:25:25Z</time>
      </trkpt>
      <trkpt lat="49.01443" lon="1.12843">
        <ele>110</ele>
        <time>2011-09-25T11:25:29Z</time>
      </trkpt>
      <trkpt lat="49.01442" lon="1.12834">
        <ele>110</ele>
        <time>2011-09-25T11:25:32Z</time>
      </trkpt>
      <trkpt lat="49.0144" lon="1.12825">
        <ele>110</ele>
        <time>2011-09-25T11:25:35Z</time>
      </trkpt>
      <trkpt lat="49.01438" lon="1.12816">
        <ele>110</ele>
        <time>2011-09-25T11:25:38Z</time>
      </trkpt>
      <trkpt lat="49.01437" lon="1.12807">
        <ele>109</ele>
        <time>2011-09-25T11:25:41Z</time>
      </trkpt>
      <trkpt lat="49.01436" lon="1.12797">
        <ele>109</ele>
        <time>2011-09-25T11:25:44Z</time>
      </trkpt>
      <trkpt lat="49.01434" lon="1.1279">
        <ele>109</ele>
        <time>2011-09-25T11:25:46Z</time>
      </trkpt>
      <trkpt lat="49.01432" lon="1.12781">
        <ele>110</ele>
        <time>2011-09-25T11:25:49Z</time>
      </trkpt>
      <trkpt lat="49.0143" lon="1.12772">
        <ele>110</ele>
        <time>2011-09-25T11:25:52Z</time>
      </trkpt>
      <trkpt lat="49.01427" lon="1.12763">
        <ele>112</ele>
        <time>2011-09-25T11:25:55Z</time>
      </trkpt>
      <trkpt lat="49.01423" lon="1.12757">
        <ele>114</ele>
        <time>2011-09-25T11:25:57Z</time>
      </trkpt>
      <trkpt lat="49.01418" lon="1.12753">
        <ele>116</ele>
        <time>2011-09-25T11:25:59Z</time>
      </trkpt>
      <trkpt lat="49.01413" lon="1.12753">
        <ele>119</ele>
        <time>2011-09-25T11:26:01Z</time>
      </trkpt>
      <trkpt lat="49.014" lon="1.12762">
        <ele>121</ele>
        <time>2011-09-25T11:26:10Z</time>
      </trkpt>
      <trkpt lat="49.014" lon="1.12762">
        <ele>121</ele>
        <time>2011-09-25T11:26:10Z</time>
      </trkpt>
      <trkpt lat="49.014" lon="1.12762">
        <ele>121</ele>
        <time>2011-09-25T11:26:12Z</time>
      </trkpt>
      <trkpt lat="49.01394" lon="1.12766">
        <ele>122</ele>
        <time>2011-09-25T11:26:13Z</time>
      </trkpt>
      <trkpt lat="49.01387" lon="1.12773">
        <ele>122</ele>
        <time>2011-09-25T11:26:18Z</time>
      </trkpt>
      <trkpt lat="49.01381" lon="1.12778">
        <ele>123</ele>
        <time>2011-09-25T11:26:21Z</time>
      </trkpt>
      <trkpt lat="49.01381" lon="1.12778">
        <ele>123</ele>
        <time>2011-09-25T11:26:21Z</time>
      </trkpt>
      <trkpt lat="49.01381" lon="1.12778">
        <ele>123</ele>
        <time>2011-09-25T11:26:22Z</time>
      </trkpt>
      <trkpt lat="49.01376" lon="1.12783">
        <ele>123</ele>
        <time>2011-09-25T11:26:24Z</time>
      </trkpt>
      <trkpt lat="49.01371" lon="1.12789">
        <ele>123</ele>
        <time>2011-09-25T11:26:27Z</time>
      </trkpt>
      <trkpt lat="49.01371" lon="1.12789">
        <ele>123</ele>
        <time>2011-09-25T11:26:27Z</time>
      </trkpt>
      <trkpt lat="49.01371" lon="1.12789">
        <ele>123</ele>
        <time>2011-09-25T11:26:29Z</time>
      </trkpt>
      <trkpt lat="49.01366" lon="1.12795">
        <ele>123</ele>
        <time>2011-09-25T11:26:30Z</time>
      </trkpt>
      <trkpt lat="49.01362" lon="1.128">
        <ele>124</ele>
        <time>2011-09-25T11:26:33Z</time>
      </trkpt>
      <trkpt lat="49.01362" lon="1.128">
        <ele>124</ele>
        <time>2011-09-25T11:26:33Z</time>
      </trkpt>
      <trkpt lat="49.01362" lon="1.128">
        <ele>124</ele>
        <time>2011-09-25T11:26:34Z</time>
      </trkpt>
      <trkpt lat="49.01355" lon="1.12809">
        <ele>124</ele>
        <time>2011-09-25T11:26:37Z</time>
      </trkpt>
      <trkpt lat="49.0135" lon="1.12812">
        <ele>124</ele>
        <time>2011-09-25T11:26:39Z</time>
      </trkpt>
      <trkpt lat="49.01346" lon="1.12816">
        <ele>125</ele>
        <time>2011-09-25T11:26:41Z</time>
      </trkpt>
      <trkpt lat="49.01342" lon="1.12822">
        <ele>125</ele>
        <time>2011-09-25T11:26:43Z</time>
      </trkpt>
      <trkpt lat="49.01337" lon="1.12827">
        <ele>126</ele>
        <time>2011-09-25T11:26:45Z</time>
      </trkpt>
      <trkpt lat="49.01332" lon="1.1283">
        <ele>127</ele>
        <time>2011-09-25T11:26:47Z</time>
      </trkpt>
      <trkpt lat="49.01327" lon="1.12834">
        <ele>127</ele>
        <time>2011-09-25T11:26:49Z</time>
      </trkpt>
      <trkpt lat="49.01322" lon="1.1284">
        <ele>128</ele>
        <time>2011-09-25T11:26:51Z</time>
      </trkpt>
      <trkpt lat="49.01317" lon="1.12847">
        <ele>128</ele>
        <time>2011-09-25T11:26:53Z</time>
      </trkpt>
      <trkpt lat="49.0131" lon="1.12854">
        <ele>128</ele>
        <time>2011-09-25T11:26:55Z</time>
      </trkpt>
      <trkpt lat="49.01304" lon="1.12863">
        <ele>128</ele>
        <time>2011-09-25T11:26:57Z</time>
      </trkpt>
      <trkpt lat="49.01298" lon="1.12872">
        <ele>128</ele>
        <time>2011-09-25T11:26:59Z</time>
      </trkpt>
      <trkpt lat="49.01294" lon="1.12877">
        <ele>128</ele>
        <time>2011-09-25T11:27:00Z</time>
      </trkpt>
      <trkpt lat="49.01291" lon="1.12882">
        <ele>128</ele>
        <time>2011-09-25T11:27:01Z</time>
      </trkpt>
      <trkpt lat="49.01287" lon="1.12887">
        <ele>128</ele>
        <time>2011-09-25T11:27:02Z</time>
      </trkpt>
      <trkpt lat="49.01281" lon="1.12894">
        <ele>128</ele>
        <time>2011-09-25T11:27:04Z</time>
      </trkpt>
      <trkpt lat="49.01275" lon="1.12901">
        <ele>128</ele>
        <time>2011-09-25T11:27:06Z</time>
      </trkpt>
      <trkpt lat="49.01269" lon="1.12909">
        <ele>129</ele>
        <time>2011-09-25T11:27:08Z</time>
      </trkpt>
      <trkpt lat="49.01263" lon="1.12917">
        <ele>128</ele>
        <time>2011-09-25T11:27:10Z</time>
      </trkpt>
      <trkpt lat="49.01256" lon="1.12924">
        <ele>128</ele>
        <time>2011-09-25T11:27:12Z</time>
      </trkpt>
      <trkpt lat="49.0125" lon="1.1293">
        <ele>128</ele>
        <time>2011-09-25T11:27:14Z</time>
      </trkpt>
      <trkpt lat="49.01243" lon="1.12938">
        <ele>130</ele>
        <time>2011-09-25T11:27:16Z</time>
      </trkpt>
      <trkpt lat="49.01237" lon="1.12946">
        <ele>130</ele>
        <time>2011-09-25T11:27:18Z</time>
      </trkpt>
      <trkpt lat="49.0123" lon="1.12954">
        <ele>130</ele>
        <time>2011-09-25T11:27:20Z</time>
      </trkpt>
      <trkpt lat="49.01224" lon="1.12962">
        <ele>130</ele>
        <time>2011-09-25T11:27:22Z</time>
      </trkpt>
      <trkpt lat="49.01217" lon="1.12972">
        <ele>131</ele>
        <time>2011-09-25T11:27:24Z</time>
      </trkpt>
      <trkpt lat="49.01214" lon="1.12976">
        <ele>131</ele>
        <time>2011-09-25T11:27:25Z</time>
      </trkpt>
      <trkpt lat="49.0121" lon="1.12981">
        <ele>131</ele>
        <time>2011-09-25T11:27:26Z</time>
      </trkpt>
      <trkpt lat="49.01206" lon="1.12987">
        <ele>131</ele>
        <time>2011-09-25T11:27:27Z</time>
      </trkpt>
      <trkpt lat="49.01202" lon="1.12992">
        <ele>131</ele>
        <time>2011-09-25T11:27:28Z</time>
      </trkpt>
      <trkpt lat="49.01199" lon="1.12998">
        <ele>131</ele>
        <time>2011-09-25T11:27:29Z</time>
      </trkpt>
      <trkpt lat="49.01196" lon="1.13004">
        <ele>131</ele>
        <time>2011-09-25T11:27:30Z</time>
      </trkpt>
      <trkpt lat="49.01192" lon="1.1301">
        <ele>131</ele>
        <time>2011-09-25T11:27:31Z</time>
      </trkpt>
      <trkpt lat="49.0119" lon="1.13016">
        <ele>131</ele>
        <time>2011-09-25T11:27:32Z</time>
      </trkpt>
      <trkpt lat="49.01187" lon="1.13022">
        <ele>131</ele>
        <time>2011-09-25T11:27:33Z</time>
      </trkpt>
      <trkpt lat="49.01184" lon="1.13028">
        <ele>131</ele>
        <time>2011-09-25T11:27:34Z</time>
      </trkpt>
      <trkpt lat="49.01181" lon="1.13035">
        <ele>131</ele>
        <time>2011-09-25T11:27:35Z</time>
      </trkpt>
      <trkpt lat="49.01178" lon="1.13041">
        <ele>130</ele>
        <time>2011-09-25T11:27:36Z</time>
      </trkpt>
      <trkpt lat="49.01176" lon="1.13046">
        <ele>130</ele>
        <time>2011-09-25T11:27:37Z</time>
      </trkpt>
      <trkpt lat="49.0117" lon="1.13056">
        <ele>130</ele>
        <time>2011-09-25T11:27:39Z</time>
      </trkpt>
      <trkpt lat="49.01164" lon="1.13065">
        <ele>131</ele>
        <time>2011-09-25T11:27:41Z</time>
      </trkpt>
      <trkpt lat="49.0116" lon="1.13071">
        <ele>131</ele>
        <time>2011-09-25T11:27:42Z</time>
      </trkpt>
      <trkpt lat="49.01156" lon="1.13076">
        <ele>131</ele>
        <time>2011-09-25T11:27:43Z</time>
      </trkpt>
      <trkpt lat="49.01152" lon="1.13082">
        <ele>131</ele>
        <time>2011-09-25T11:27:44Z</time>
      </trkpt>
      <trkpt lat="49.01147" lon="1.13087">
        <ele>131</ele>
        <time>2011-09-25T11:27:45Z</time>
      </trkpt>
      <trkpt lat="49.01144" lon="1.13093">
        <ele>131</ele>
        <time>2011-09-25T11:27:46Z</time>
      </trkpt>
      <trkpt lat="49.0114" lon="1.13099">
        <ele>132</ele>
        <time>2011-09-25T11:27:47Z</time>
      </trkpt>
      <trkpt lat="49.01136" lon="1.13106">
        <ele>132</ele>
        <time>2011-09-25T11:27:48Z</time>
      </trkpt>
      <trkpt lat="49.01132" lon="1.13111">
        <ele>132</ele>
        <time>2011-09-25T11:27:49Z</time>
      </trkpt>
      <trkpt lat="49.01128" lon="1.13117">
        <ele>132</ele>
        <time>2011-09-25T11:27:50Z</time>
      </trkpt>
      <trkpt lat="49.01123" lon="1.13122">
        <ele>132</ele>
        <time>2011-09-25T11:27:51Z</time>
      </trkpt>
      <trkpt lat="49.01119" lon="1.13127">
        <ele>132</ele>
        <time>2011-09-25T11:27:52Z</time>
      </trkpt>
      <trkpt lat="49.01115" lon="1.13133">
        <ele>132</ele>
        <time>2011-09-25T11:27:53Z</time>
      </trkpt>
      <trkpt lat="49.01111" lon="1.13138">
        <ele>132</ele>
        <time>2011-09-25T11:27:54Z</time>
      </trkpt>
      <trkpt lat="49.01107" lon="1.13142">
        <ele>132</ele>
        <time>2011-09-25T11:27:55Z</time>
      </trkpt>
      <trkpt lat="49.01104" lon="1.13147">
        <ele>132</ele>
        <time>2011-09-25T11:27:56Z</time>
      </trkpt>
      <trkpt lat="49.011" lon="1.13152">
        <ele>132</ele>
        <time>2011-09-25T11:27:57Z</time>
      </trkpt>
      <trkpt lat="49.01094" lon="1.13161">
        <ele>132</ele>
        <time>2011-09-25T11:27:59Z</time>
      </trkpt>
      <trkpt lat="49.01089" lon="1.1317">
        <ele>132</ele>
        <time>2011-09-25T11:28:01Z</time>
      </trkpt>
      <trkpt lat="49.01083" lon="1.13179">
        <ele>132</ele>
        <time>2011-09-25T11:28:03Z</time>
      </trkpt>
      <trkpt lat="49.01077" lon="1.13188">
        <ele>132</ele>
        <time>2011-09-25T11:28:05Z</time>
      </trkpt>
      <trkpt lat="49.01071" lon="1.13197">
        <ele>132</ele>
        <time>2011-09-25T11:28:07Z</time>
      </trkpt>
      <trkpt lat="49.01065" lon="1.13205">
        <ele>132</ele>
        <time>2011-09-25T11:28:09Z</time>
      </trkpt>
      <trkpt lat="49.01059" lon="1.13216">
        <ele>133</ele>
        <time>2011-09-25T11:28:11Z</time>
      </trkpt>
      <trkpt lat="49.01055" lon="1.13222">
        <ele>133</ele>
        <time>2011-09-25T11:28:12Z</time>
      </trkpt>
      <trkpt lat="49.01051" lon="1.13228">
        <ele>133</ele>
        <time>2011-09-25T11:28:13Z</time>
      </trkpt>
      <trkpt lat="49.01048" lon="1.13233">
        <ele>133</ele>
        <time>2011-09-25T11:28:14Z</time>
      </trkpt>
      <trkpt lat="49.01044" lon="1.13239">
        <ele>133</ele>
        <time>2011-09-25T11:28:15Z</time>
      </trkpt>
      <trkpt lat="49.0104" lon="1.13246">
        <ele>132</ele>
        <time>2011-09-25T11:28:16Z</time>
      </trkpt>
      <trkpt lat="49.01037" lon="1.13252">
        <ele>133</ele>
        <time>2011-09-25T11:28:17Z</time>
      </trkpt>
      <trkpt lat="49.01034" lon="1.13258">
        <ele>133</ele>
        <time>2011-09-25T11:28:18Z</time>
      </trkpt>
      <trkpt lat="49.01031" lon="1.13265">
        <ele>133</ele>
        <time>2011-09-25T11:28:19Z</time>
      </trkpt>
      <trkpt lat="49.01027" lon="1.1327">
        <ele>133</ele>
        <time>2011-09-25T11:28:20Z</time>
      </trkpt>
      <trkpt lat="49.01023" lon="1.13275">
        <ele>133</ele>
        <time>2011-09-25T11:28:21Z</time>
      </trkpt>
      <trkpt lat="49.01019" lon="1.13281">
        <ele>133</ele>
        <time>2011-09-25T11:28:22Z</time>
      </trkpt>
      <trkpt lat="49.01015" lon="1.13286">
        <ele>133</ele>
        <time>2011-09-25T11:28:23Z</time>
      </trkpt>
      <trkpt lat="49.0101" lon="1.13292">
        <ele>133</ele>
        <time>2011-09-25T11:28:24Z</time>
      </trkpt>
      <trkpt lat="49.01006" lon="1.13297">
        <ele>133</ele>
        <time>2011-09-25T11:28:25Z</time>
      </trkpt>
      <trkpt lat="49.01002" lon="1.13302">
        <ele>133</ele>
        <time>2011-09-25T11:28:26Z</time>
      </trkpt>
      <trkpt lat="49.00996" lon="1.13308">
        <ele>133</ele>
        <time>2011-09-25T11:28:27Z</time>
      </trkpt>
      <trkpt lat="49.0099" lon="1.13313">
        <ele>133</ele>
        <time>2011-09-25T11:28:28Z</time>
      </trkpt>
      <trkpt lat="49.00985" lon="1.13318">
        <ele>133</ele>
        <time>2011-09-25T11:28:29Z</time>
      </trkpt>
      <trkpt lat="49.0098" lon="1.13323">
        <ele>133</ele>
        <time>2011-09-25T11:28:30Z</time>
      </trkpt>
      <trkpt lat="49.00975" lon="1.13328">
        <ele>133</ele>
        <time>2011-09-25T11:28:31Z</time>
      </trkpt>
      <trkpt lat="49.00971" lon="1.13335">
        <ele>133</ele>
        <time>2011-09-25T11:28:32Z</time>
      </trkpt>
      <trkpt lat="49.00967" lon="1.1334">
        <ele>133</ele>
        <time>2011-09-25T11:28:33Z</time>
      </trkpt>
      <trkpt lat="49.00963" lon="1.13346">
        <ele>133</ele>
        <time>2011-09-25T11:28:34Z</time>
      </trkpt>
      <trkpt lat="49.00959" lon="1.13351">
        <ele>133</ele>
        <time>2011-09-25T11:28:35Z</time>
      </trkpt>
      <trkpt lat="49.00954" lon="1.13356">
        <ele>133</ele>
        <time>2011-09-25T11:28:36Z</time>
      </trkpt>
      <trkpt lat="49.0095" lon="1.13361">
        <ele>134</ele>
        <time>2011-09-25T11:28:37Z</time>
      </trkpt>
      <trkpt lat="49.00946" lon="1.13366">
        <ele>134</ele>
        <time>2011-09-25T11:28:38Z</time>
      </trkpt>
      <trkpt lat="49.00943" lon="1.13371">
        <ele>134</ele>
        <time>2011-09-25T11:28:39Z</time>
      </trkpt>
      <trkpt lat="49.0094" lon="1.13377">
        <ele>133</ele>
        <time>2011-09-25T11:28:40Z</time>
      </trkpt>
      <trkpt lat="49.00937" lon="1.13382">
        <ele>133</ele>
        <time>2011-09-25T11:28:41Z</time>
      </trkpt>
      <trkpt lat="49.00933" lon="1.13388">
        <ele>134</ele>
        <time>2011-09-25T11:28:42Z</time>
      </trkpt>
      <trkpt lat="49.00929" lon="1.13392">
        <ele>134</ele>
        <time>2011-09-25T11:28:43Z</time>
      </trkpt>
      <trkpt lat="49.00926" lon="1.13398">
        <ele>134</ele>
        <time>2011-09-25T11:28:44Z</time>
      </trkpt>
      <trkpt lat="49.00922" lon="1.13403">
        <ele>134</ele>
        <time>2011-09-25T11:28:45Z</time>
      </trkpt>
      <trkpt lat="49.00918" lon="1.13408">
        <ele>134</ele>
        <time>2011-09-25T11:28:46Z</time>
      </trkpt>
      <trkpt lat="49.00914" lon="1.13413">
        <ele>134</ele>
        <time>2011-09-25T11:28:47Z</time>
      </trkpt>
      <trkpt lat="49.0091" lon="1.13418">
        <ele>134</ele>
        <time>2011-09-25T11:28:48Z</time>
      </trkpt>
      <trkpt lat="49.00906" lon="1.13422">
        <ele>135</ele>
        <time>2011-09-25T11:28:49Z</time>
      </trkpt>
      <trkpt lat="49.00902" lon="1.13426">
        <ele>135</ele>
        <time>2011-09-25T11:28:50Z</time>
      </trkpt>
      <trkpt lat="49.00898" lon="1.13429">
        <ele>135</ele>
        <time>2011-09-25T11:28:51Z</time>
      </trkpt>
      <trkpt lat="49.00893" lon="1.13431">
        <ele>135</ele>
        <time>2011-09-25T11:28:52Z</time>
      </trkpt>
      <trkpt lat="49.00888" lon="1.13435">
        <ele>135</ele>
        <time>2011-09-25T11:28:53Z</time>
      </trkpt>
      <trkpt lat="49.00883" lon="1.13437">
        <ele>135</ele>
        <time>2011-09-25T11:28:54Z</time>
      </trkpt>
      <trkpt lat="49.00878" lon="1.1344">
        <ele>135</ele>
        <time>2011-09-25T11:28:55Z</time>
      </trkpt>
      <trkpt lat="49.00873" lon="1.13444">
        <ele>135</ele>
        <time>2011-09-25T11:28:56Z</time>
      </trkpt>
      <trkpt lat="49.00868" lon="1.13448">
        <ele>135</ele>
        <time>2011-09-25T11:28:57Z</time>
      </trkpt>
      <trkpt lat="49.00862" lon="1.13452">
        <ele>135</ele>
        <time>2011-09-25T11:28:58Z</time>
      </trkpt>
      <trkpt lat="49.00858" lon="1.13456">
        <ele>136</ele>
        <time>2011-09-25T11:28:59Z</time>
      </trkpt>
      <trkpt lat="49.00853" lon="1.13459">
        <ele>136</ele>
        <time>2011-09-25T11:29:00Z</time>
      </trkpt>
      <trkpt lat="49.00847" lon="1.13462">
        <ele>136</ele>
        <time>2011-09-25T11:29:01Z</time>
      </trkpt>
      <trkpt lat="49.00841" lon="1.13465">
        <ele>136</ele>
        <time>2011-09-25T11:29:02Z</time>
      </trkpt>
      <trkpt lat="49.00835" lon="1.13469">
        <ele>136</ele>
        <time>2011-09-25T11:29:03Z</time>
      </trkpt>
      <trkpt lat="49.0083" lon="1.13473">
        <ele>136</ele>
        <time>2011-09-25T11:29:04Z</time>
      </trkpt>
      <trkpt lat="49.00824" lon="1.13477">
        <ele>136</ele>
        <time>2011-09-25T11:29:05Z</time>
      </trkpt>
      <trkpt lat="49.0082" lon="1.1348">
        <ele>136</ele>
        <time>2011-09-25T11:29:06Z</time>
      </trkpt>
      <trkpt lat="49.00815" lon="1.13483">
        <ele>136</ele>
        <time>2011-09-25T11:29:07Z</time>
      </trkpt>
      <trkpt lat="49.0081" lon="1.13487">
        <ele>136</ele>
        <time>2011-09-25T11:29:08Z</time>
      </trkpt>
      <trkpt lat="49.00805" lon="1.1349">
        <ele>136</ele>
        <time>2011-09-25T11:29:09Z</time>
      </trkpt>
      <trkpt lat="49.008" lon="1.13493">
        <ele>136</ele>
        <time>2011-09-25T11:29:10Z</time>
      </trkpt>
      <trkpt lat="49.00794" lon="1.13496">
        <ele>136</ele>
        <time>2011-09-25T11:29:11Z</time>
      </trkpt>
      <trkpt lat="49.00788" lon="1.13498">
        <ele>136</ele>
        <time>2011-09-25T11:29:12Z</time>
      </trkpt>
      <trkpt lat="49.00782" lon="1.13501">
        <ele>135</ele>
        <time>2011-09-25T11:29:13Z</time>
      </trkpt>
      <trkpt lat="49.00777" lon="1.13504">
        <ele>135</ele>
        <time>2011-09-25T11:29:14Z</time>
      </trkpt>
      <trkpt lat="49.00772" lon="1.13508">
        <ele>135</ele>
        <time>2011-09-25T11:29:15Z</time>
      </trkpt>
      <trkpt lat="49.00767" lon="1.13513">
        <ele>135</ele>
        <time>2011-09-25T11:29:16Z</time>
      </trkpt>
      <trkpt lat="49.00762" lon="1.13515">
        <ele>135</ele>
        <time>2011-09-25T11:29:17Z</time>
      </trkpt>
      <trkpt lat="49.00756" lon="1.13518">
        <ele>135</ele>
        <time>2011-09-25T11:29:18Z</time>
      </trkpt>
      <trkpt lat="49.0075" lon="1.13522">
        <ele>135</ele>
        <time>2011-09-25T11:29:19Z</time>
      </trkpt>
      <trkpt lat="49.00745" lon="1.13526">
        <ele>135</ele>
        <time>2011-09-25T11:29:20Z</time>
      </trkpt>
      <trkpt lat="49.00739" lon="1.13529">
        <ele>135</ele>
        <time>2011-09-25T11:29:21Z</time>
      </trkpt>
      <trkpt lat="49.00733" lon="1.13532">
        <ele>135</ele>
        <time>2011-09-25T11:29:22Z</time>
      </trkpt>
      <trkpt lat="49.00727" lon="1.13535">
        <ele>135</ele>
        <time>2011-09-25T11:29:23Z</time>
      </trkpt>
      <trkpt lat="49.00721" lon="1.13539">
        <ele>135</ele>
        <time>2011-09-25T11:29:24Z</time>
      </trkpt>
      <trkpt lat="49.00715" lon="1.13541">
        <ele>135</ele>
        <time>2011-09-25T11:29:25Z</time>
      </trkpt>
      <trkpt lat="49.00709" lon="1.13545">
        <ele>134</ele>
        <time>2011-09-25T11:29:26Z</time>
      </trkpt>
      <trkpt lat="49.00704" lon="1.13548">
        <ele>134</ele>
        <time>2011-09-25T11:29:27Z</time>
      </trkpt>
      <trkpt lat="49.00698" lon="1.13551">
        <ele>134</ele>
        <time>2011-09-25T11:29:28Z</time>
      </trkpt>
      <trkpt lat="49.00692" lon="1.13554">
        <ele>134</ele>
        <time>2011-09-25T11:29:29Z</time>
      </trkpt>
      <trkpt lat="49.00686" lon="1.13558">
        <ele>134</ele>
        <time>2011-09-25T11:29:30Z</time>
      </trkpt>
      <trkpt lat="49.0068" lon="1.13561">
        <ele>134</ele>
        <time>2011-09-25T11:29:31Z</time>
      </trkpt>
      <trkpt lat="49.00674" lon="1.13564">
        <ele>134</ele>
        <time>2011-09-25T11:29:32Z</time>
      </trkpt>
      <trkpt lat="49.00668" lon="1.13567">
        <ele>134</ele>
        <time>2011-09-25T11:29:33Z</time>
      </trkpt>
      <trkpt lat="49.00662" lon="1.13572">
        <ele>134</ele>
        <time>2011-09-25T11:29:34Z</time>
      </trkpt>
      <trkpt lat="49.00656" lon="1.13574">
        <ele>134</ele>
        <time>2011-09-25T11:29:35Z</time>
      </trkpt>
      <trkpt lat="49.00651" lon="1.13578">
        <ele>134</ele>
        <time>2011-09-25T11:29:36Z</time>
      </trkpt>
      <trkpt lat="49.00644" lon="1.1358">
        <ele>134</ele>
        <time>2011-09-25T11:29:37Z</time>
      </trkpt>
      <trkpt lat="49.00639" lon="1.13583">
        <ele>134</ele>
        <time>2011-09-25T11:29:38Z</time>
      </trkpt>
      <trkpt lat="49.00632" lon="1.13587">
        <ele>133</ele>
        <time>2011-09-25T11:29:39Z</time>
      </trkpt>
      <trkpt lat="49.00624" lon="1.13591">
        <ele>132</ele>
        <time>2011-09-25T11:29:40Z</time>
      </trkpt>
      <trkpt lat="49.00616" lon="1.13595">
        <ele>132</ele>
        <time>2011-09-25T11:29:41Z</time>
      </trkpt>
      <trkpt lat="49.00609" lon="1.13599">
        <ele>132</ele>
        <time>2011-09-25T11:29:42Z</time>
      </trkpt>
      <trkpt lat="49.00602" lon="1.13603">
        <ele>132</ele>
        <time>2011-09-25T11:29:43Z</time>
      </trkpt>
      <trkpt lat="49.00595" lon="1.13607">
        <ele>132</ele>
        <time>2011-09-25T11:29:44Z</time>
      </trkpt>
      <trkpt lat="49.00589" lon="1.13612">
        <ele>132</ele>
        <time>2011-09-25T11:29:45Z</time>
      </trkpt>
      <trkpt lat="49.00582" lon="1.13615">
        <ele>132</ele>
        <time>2011-09-25T11:29:46Z</time>
      </trkpt>
      <trkpt lat="49.00577" lon="1.13619">
        <ele>132</ele>
        <time>2011-09-25T11:29:47Z</time>
      </trkpt>
      <trkpt lat="49.0057" lon="1.13623">
        <ele>133</ele>
        <time>2011-09-25T11:29:48Z</time>
      </trkpt>
      <trkpt lat="49.00564" lon="1.13627">
        <ele>133</ele>
        <time>2011-09-25T11:29:49Z</time>
      </trkpt>
      <trkpt lat="49.00557" lon="1.13632">
        <ele>133</ele>
        <time>2011-09-25T11:29:50Z</time>
      </trkpt>
      <trkpt lat="49.0055" lon="1.13636">
        <ele>133</ele>
        <time>2011-09-25T11:29:51Z</time>
      </trkpt>
      <trkpt lat="49.00543" lon="1.13638">
        <ele>133</ele>
        <time>2011-09-25T11:29:52Z</time>
      </trkpt>
      <trkpt lat="49.00537" lon="1.13643">
        <ele>133</ele>
        <time>2011-09-25T11:29:53Z</time>
      </trkpt>
      <trkpt lat="49.0053" lon="1.13647">
        <ele>133</ele>
        <time>2011-09-25T11:29:54Z</time>
      </trkpt>
      <trkpt lat="49.00524" lon="1.1365">
        <ele>133</ele>
        <time>2011-09-25T11:29:55Z</time>
      </trkpt>
      <trkpt lat="49.00518" lon="1.13654">
        <ele>133</ele>
        <time>2011-09-25T11:29:56Z</time>
      </trkpt>
      <trkpt lat="49.00512" lon="1.13658">
        <ele>133</ele>
        <time>2011-09-25T11:29:57Z</time>
      </trkpt>
      <trkpt lat="49.00507" lon="1.13661">
        <ele>133</ele>
        <time>2011-09-25T11:29:58Z</time>
      </trkpt>
      <trkpt lat="49.00502" lon="1.13664">
        <ele>133</ele>
        <time>2011-09-25T11:29:59Z</time>
      </trkpt>
      <trkpt lat="49.00497" lon="1.13666">
        <ele>133</ele>
        <time>2011-09-25T11:30:00Z</time>
      </trkpt>
      <trkpt lat="49.00492" lon="1.13667">
        <ele>133</ele>
        <time>2011-09-25T11:30:01Z</time>
      </trkpt>
      <trkpt lat="49.00487" lon="1.13669">
        <ele>133</ele>
        <time>2011-09-25T11:30:02Z</time>
      </trkpt>
      <trkpt lat="49.00482" lon="1.13671">
        <ele>133</ele>
        <time>2011-09-25T11:30:03Z</time>
      </trkpt>
      <trkpt lat="49.00478" lon="1.13674">
        <ele>133</ele>
        <time>2011-09-25T11:30:04Z</time>
      </trkpt>
      <trkpt lat="49.00473" lon="1.13678">
        <ele>133</ele>
        <time>2011-09-25T11:30:05Z</time>
      </trkpt>
      <trkpt lat="49.00465" lon="1.13679">
        <ele>133</ele>
        <time>2011-09-25T11:30:07Z</time>
      </trkpt>
      <trkpt lat="49.00458" lon="1.1368">
        <ele>133</ele>
        <time>2011-09-25T11:30:09Z</time>
      </trkpt>
      <trkpt lat="49.00454" lon="1.13676">
        <ele>133</ele>
        <time>2011-09-25T11:30:11Z</time>
      </trkpt>
      <trkpt lat="49.0045" lon="1.13666">
        <ele>133</ele>
        <time>2011-09-25T11:30:13Z</time>
      </trkpt>
      <trkpt lat="49.00447" lon="1.13654">
        <ele>134</ele>
        <time>2011-09-25T11:30:15Z</time>
      </trkpt>
      <trkpt lat="49.00443" lon="1.13643">
        <ele>134</ele>
        <time>2011-09-25T11:30:17Z</time>
      </trkpt>
      <trkpt lat="49.00438" lon="1.13632">
        <ele>134</ele>
        <time>2011-09-25T11:30:19Z</time>
      </trkpt>
      <trkpt lat="49.00434" lon="1.1362">
        <ele>134</ele>
        <time>2011-09-25T11:30:21Z</time>
      </trkpt>
      <trkpt lat="49.00431" lon="1.13613">
        <ele>134</ele>
        <time>2011-09-25T11:30:22Z</time>
      </trkpt>
      <trkpt lat="49.00429" lon="1.13607">
        <ele>134</ele>
        <time>2011-09-25T11:30:23Z</time>
      </trkpt>
      <trkpt lat="49.00428" lon="1.13599">
        <ele>134</ele>
        <time>2011-09-25T11:30:24Z</time>
      </trkpt>
      <trkpt lat="49.00426" lon="1.13592">
        <ele>134</ele>
        <time>2011-09-25T11:30:25Z</time>
      </trkpt>
      <trkpt lat="49.00424" lon="1.13585">
        <ele>135</ele>
        <time>2011-09-25T11:30:26Z</time>
      </trkpt>
      <trkpt lat="49.00422" lon="1.13578">
        <ele>135</ele>
        <time>2011-09-25T11:30:27Z</time>
      </trkpt>
      <trkpt lat="49.0042" lon="1.13571">
        <ele>135</ele>
        <time>2011-09-25T11:30:28Z</time>
      </trkpt>
      <trkpt lat="49.00419" lon="1.13564">
        <ele>135</ele>
        <time>2011-09-25T11:30:29Z</time>
      </trkpt>
      <trkpt lat="49.00418" lon="1.13556">
        <ele>136</ele>
        <time>2011-09-25T11:30:30Z</time>
      </trkpt>
      <trkpt lat="49.00417" lon="1.13549">
        <ele>136</ele>
        <time>2011-09-25T11:30:31Z</time>
      </trkpt>
      <trkpt lat="49.00415" lon="1.13542">
        <ele>136</ele>
        <time>2011-09-25T11:30:32Z</time>
      </trkpt>
      <trkpt lat="49.00414" lon="1.13534">
        <ele>136</ele>
        <time>2011-09-25T11:30:33Z</time>
      </trkpt>
      <trkpt lat="49.00412" lon="1.13527">
        <ele>137</ele>
        <time>2011-09-25T11:30:34Z</time>
      </trkpt>
      <trkpt lat="49.0041" lon="1.1352">
        <ele>137</ele>
        <time>2011-09-25T11:30:35Z</time>
      </trkpt>
      <trkpt lat="49.00409" lon="1.13512">
        <ele>137</ele>
        <time>2011-09-25T11:30:36Z</time>
      </trkpt>
      <trkpt lat="49.00407" lon="1.13505">
        <ele>137</ele>
        <time>2011-09-25T11:30:37Z</time>
      </trkpt>
      <trkpt lat="49.00406" lon="1.13498">
        <ele>138</ele>
        <time>2011-09-25T11:30:38Z</time>
      </trkpt>
      <trkpt lat="49.00404" lon="1.13491">
        <ele>138</ele>
        <time>2011-09-25T11:30:39Z</time>
      </trkpt>
      <trkpt lat="49.00402" lon="1.13485">
        <ele>137</ele>
        <time>2011-09-25T11:30:40Z</time>
      </trkpt>
      <trkpt lat="49.004" lon="1.13478">
        <ele>137</ele>
        <time>2011-09-25T11:30:41Z</time>
      </trkpt>
      <trkpt lat="49.00398" lon="1.13472">
        <ele>137</ele>
        <time>2011-09-25T11:30:42Z</time>
      </trkpt>
      <trkpt lat="49.00396" lon="1.13464">
        <ele>137</ele>
        <time>2011-09-25T11:30:43Z</time>
      </trkpt>
      <trkpt lat="49.00394" lon="1.13458">
        <ele>137</ele>
        <time>2011-09-25T11:30:44Z</time>
      </trkpt>
      <trkpt lat="49.00393" lon="1.13451">
        <ele>137</ele>
        <time>2011-09-25T11:30:45Z</time>
      </trkpt>
      <trkpt lat="49.0039" lon="1.13444">
        <ele>137</ele>
        <time>2011-09-25T11:30:46Z</time>
      </trkpt>
      <trkpt lat="49.00388" lon="1.13437">
        <ele>137</ele>
        <time>2011-09-25T11:30:47Z</time>
      </trkpt>
      <trkpt lat="49.00385" lon="1.1343">
        <ele>137</ele>
        <time>2011-09-25T11:30:48Z</time>
      </trkpt>
      <trkpt lat="49.00383" lon="1.13424">
        <ele>137</ele>
        <time>2011-09-25T11:30:49Z</time>
      </trkpt>
      <trkpt lat="49.00381" lon="1.13417">
        <ele>137</ele>
        <time>2011-09-25T11:30:50Z</time>
      </trkpt>
      <trkpt lat="49.0038" lon="1.1341">
        <ele>137</ele>
        <time>2011-09-25T11:30:51Z</time>
      </trkpt>
      <trkpt lat="49.00379" lon="1.13402">
        <ele>137</ele>
        <time>2011-09-25T11:30:52Z</time>
      </trkpt>
      <trkpt lat="49.00377" lon="1.13395">
        <ele>137</ele>
        <time>2011-09-25T11:30:53Z</time>
      </trkpt>
      <trkpt lat="49.00375" lon="1.13389">
        <ele>137</ele>
        <time>2011-09-25T11:30:54Z</time>
      </trkpt>
      <trkpt lat="49.00373" lon="1.13382">
        <ele>137</ele>
        <time>2011-09-25T11:30:55Z</time>
      </trkpt>
      <trkpt lat="49.0037" lon="1.13376">
        <ele>137</ele>
        <time>2011-09-25T11:30:56Z</time>
      </trkpt>
      <trkpt lat="49.00368" lon="1.13369">
        <ele>137</ele>
        <time>2011-09-25T11:30:57Z</time>
      </trkpt>
      <trkpt lat="49.00366" lon="1.13363">
        <ele>137</ele>
        <time>2011-09-25T11:30:58Z</time>
      </trkpt>
      <trkpt lat="49.00364" lon="1.13356">
        <ele>137</ele>
        <time>2011-09-25T11:30:59Z</time>
      </trkpt>
      <trkpt lat="49.00363" lon="1.13349">
        <ele>137</ele>
        <time>2011-09-25T11:31:00Z</time>
      </trkpt>
      <trkpt lat="49.00361" lon="1.13343">
        <ele>137</ele>
        <time>2011-09-25T11:31:01Z</time>
      </trkpt>
      <trkpt lat="49.00359" lon="1.13329">
        <ele>137</ele>
        <time>2011-09-25T11:31:03Z</time>
      </trkpt>
      <trkpt lat="49.00357" lon="1.13322">
        <ele>137</ele>
        <time>2011-09-25T11:31:04Z</time>
      </trkpt>
      <trkpt lat="49.00356" lon="1.13315">
        <ele>137</ele>
        <time>2011-09-25T11:31:05Z</time>
      </trkpt>
      <trkpt lat="49.00355" lon="1.13308">
        <ele>137</ele>
        <time>2011-09-25T11:31:06Z</time>
      </trkpt>
      <trkpt lat="49.00354" lon="1.133">
        <ele>137</ele>
        <time>2011-09-25T11:31:07Z</time>
      </trkpt>
      <trkpt lat="49.00354" lon="1.13292">
        <ele>137</ele>
        <time>2011-09-25T11:31:08Z</time>
      </trkpt>
      <trkpt lat="49.00352" lon="1.13285">
        <ele>137</ele>
        <time>2011-09-25T11:31:09Z</time>
      </trkpt>
      <trkpt lat="49.00351" lon="1.13278">
        <ele>137</ele>
        <time>2011-09-25T11:31:10Z</time>
      </trkpt>
      <trkpt lat="49.0035" lon="1.13271">
        <ele>137</ele>
        <time>2011-09-25T11:31:11Z</time>
      </trkpt>
      <trkpt lat="49.00348" lon="1.13264">
        <ele>137</ele>
        <time>2011-09-25T11:31:12Z</time>
      </trkpt>
      <trkpt lat="49.00347" lon="1.13257">
        <ele>137</ele>
        <time>2011-09-25T11:31:13Z</time>
      </trkpt>
      <trkpt lat="49.00346" lon="1.1325">
        <ele>137</ele>
        <time>2011-09-25T11:31:14Z</time>
      </trkpt>
      <trkpt lat="49.00344" lon="1.13243">
        <ele>137</ele>
        <time>2011-09-25T11:31:15Z</time>
      </trkpt>
      <trkpt lat="49.00343" lon="1.13236">
        <ele>137</ele>
        <time>2011-09-25T11:31:16Z</time>
      </trkpt>
      <trkpt lat="49.00342" lon="1.13228">
        <ele>137</ele>
        <time>2011-09-25T11:31:17Z</time>
      </trkpt>
      <trkpt lat="49.00341" lon="1.13219">
        <ele>137</ele>
        <time>2011-09-25T11:31:18Z</time>
      </trkpt>
      <trkpt lat="49.00341" lon="1.1321">
        <ele>137</ele>
        <time>2011-09-25T11:31:19Z</time>
      </trkpt>
      <trkpt lat="49.00342" lon="1.13201">
        <ele>138</ele>
        <time>2011-09-25T11:31:20Z</time>
      </trkpt>
      <trkpt lat="49.00344" lon="1.13192">
        <ele>138</ele>
        <time>2011-09-25T11:31:21Z</time>
      </trkpt>
      <trkpt lat="49.0035" lon="1.13184">
        <ele>138</ele>
        <time>2011-09-25T11:31:22Z</time>
      </trkpt>
      <trkpt lat="49.00353" lon="1.13174">
        <ele>138</ele>
        <time>2011-09-25T11:31:23Z</time>
      </trkpt>
      <trkpt lat="49.00353" lon="1.13164">
        <ele>138</ele>
        <time>2011-09-25T11:31:24Z</time>
      </trkpt>
      <trkpt lat="49.00355" lon="1.13154">
        <ele>138</ele>
        <time>2011-09-25T11:31:25Z</time>
      </trkpt>
      <trkpt lat="49.00355" lon="1.13144">
        <ele>138</ele>
        <time>2011-09-25T11:31:26Z</time>
      </trkpt>
      <trkpt lat="49.00355" lon="1.13134">
        <ele>138</ele>
        <time>2011-09-25T11:31:27Z</time>
      </trkpt>
      <trkpt lat="49.00355" lon="1.13124">
        <ele>138</ele>
        <time>2011-09-25T11:31:28Z</time>
      </trkpt>
      <trkpt lat="49.00356" lon="1.13114">
        <ele>138</ele>
        <time>2011-09-25T11:31:29Z</time>
      </trkpt>
      <trkpt lat="49.00356" lon="1.13104">
        <ele>138</ele>
        <time>2011-09-25T11:31:30Z</time>
      </trkpt>
      <trkpt lat="49.00356" lon="1.13093">
        <ele>138</ele>
        <time>2011-09-25T11:31:31Z</time>
      </trkpt>
      <trkpt lat="49.00356" lon="1.13083">
        <ele>138</ele>
        <time>2011-09-25T11:31:32Z</time>
      </trkpt>
      <trkpt lat="49.00357" lon="1.13072">
        <ele>138</ele>
        <time>2011-09-25T11:31:33Z</time>
      </trkpt>
      <trkpt lat="49.00358" lon="1.13061">
        <ele>137</ele>
        <time>2011-09-25T11:31:34Z</time>
      </trkpt>
      <trkpt lat="49.00358" lon="1.13051">
        <ele>137</ele>
        <time>2011-09-25T11:31:35Z</time>
      </trkpt>
      <trkpt lat="49.00358" lon="1.1304">
        <ele>137</ele>
        <time>2011-09-25T11:31:36Z</time>
      </trkpt>
      <trkpt lat="49.00358" lon="1.1303">
        <ele>137</ele>
        <time>2011-09-25T11:31:37Z</time>
      </trkpt>
      <trkpt lat="49.00358" lon="1.13019">
        <ele>137</ele>
        <time>2011-09-25T11:31:38Z</time>
      </trkpt>
      <trkpt lat="49.00358" lon="1.13009">
        <ele>137</ele>
        <time>2011-09-25T11:31:39Z</time>
      </trkpt>
      <trkpt lat="49.00358" lon="1.12999">
        <ele>137</ele>
        <time>2011-09-25T11:31:40Z</time>
      </trkpt>
      <trkpt lat="49.00357" lon="1.1299">
        <ele>137</ele>
        <time>2011-09-25T11:31:41Z</time>
      </trkpt>
      <trkpt lat="49.00357" lon="1.12979">
        <ele>137</ele>
        <time>2011-09-25T11:31:42Z</time>
      </trkpt>
      <trkpt lat="49.00356" lon="1.12968">
        <ele>137</ele>
        <time>2011-09-25T11:31:43Z</time>
      </trkpt>
      <trkpt lat="49.00356" lon="1.12958">
        <ele>138</ele>
        <time>2011-09-25T11:31:44Z</time>
      </trkpt>
      <trkpt lat="49.00358" lon="1.12948">
        <ele>138</ele>
        <time>2011-09-25T11:31:45Z</time>
      </trkpt>
      <trkpt lat="49.00359" lon="1.12937">
        <ele>138</ele>
        <time>2011-09-25T11:31:46Z</time>
      </trkpt>
      <trkpt lat="49.00361" lon="1.12928">
        <ele>138</ele>
        <time>2011-09-25T11:31:47Z</time>
      </trkpt>
      <trkpt lat="49.00362" lon="1.12918">
        <ele>138</ele>
        <time>2011-09-25T11:31:48Z</time>
      </trkpt>
      <trkpt lat="49.00364" lon="1.12908">
        <ele>138</ele>
        <time>2011-09-25T11:31:49Z</time>
      </trkpt>
      <trkpt lat="49.00365" lon="1.12898">
        <ele>138</ele>
        <time>2011-09-25T11:31:50Z</time>
      </trkpt>
      <trkpt lat="49.00365" lon="1.12887">
        <ele>137</ele>
        <time>2011-09-25T11:31:51Z</time>
      </trkpt>
      <trkpt lat="49.00366" lon="1.12877">
        <ele>137</ele>
        <time>2011-09-25T11:31:52Z</time>
      </trkpt>
      <trkpt lat="49.00367" lon="1.12866">
        <ele>137</ele>
        <time>2011-09-25T11:31:53Z</time>
      </trkpt>
      <trkpt lat="49.00369" lon="1.12856">
        <ele>137</ele>
        <time>2011-09-25T11:31:54Z</time>
      </trkpt>
      <trkpt lat="49.00369" lon="1.12846">
        <ele>137</ele>
        <time>2011-09-25T11:31:55Z</time>
      </trkpt>
      <trkpt lat="49.0037" lon="1.12835">
        <ele>137</ele>
        <time>2011-09-25T11:31:56Z</time>
      </trkpt>
      <trkpt lat="49.00371" lon="1.12824">
        <ele>137</ele>
        <time>2011-09-25T11:31:57Z</time>
      </trkpt>
      <trkpt lat="49.00373" lon="1.12814">
        <ele>137</ele>
        <time>2011-09-25T11:31:58Z</time>
      </trkpt>
      <trkpt lat="49.00374" lon="1.12804">
        <ele>137</ele>
        <time>2011-09-25T11:31:59Z</time>
      </trkpt>
      <trkpt lat="49.00375" lon="1.12793">
        <ele>137</ele>
        <time>2011-09-25T11:32:00Z</time>
      </trkpt>
      <trkpt lat="49.00377" lon="1.12783">
        <ele>136</ele>
        <time>2011-09-25T11:32:01Z</time>
      </trkpt>
      <trkpt lat="49.00378" lon="1.12772">
        <ele>136</ele>
        <time>2011-09-25T11:32:02Z</time>
      </trkpt>
      <trkpt lat="49.0038" lon="1.12762">
        <ele>136</ele>
        <time>2011-09-25T11:32:03Z</time>
      </trkpt>
      <trkpt lat="49.00382" lon="1.12751">
        <ele>136</ele>
        <time>2011-09-25T11:32:04Z</time>
      </trkpt>
      <trkpt lat="49.00383" lon="1.1274">
        <ele>136</ele>
        <time>2011-09-25T11:32:05Z</time>
      </trkpt>
      <trkpt lat="49.00385" lon="1.1273">
        <ele>136</ele>
        <time>2011-09-25T11:32:06Z</time>
      </trkpt>
      <trkpt lat="49.00387" lon="1.1272">
        <ele>136</ele>
        <time>2011-09-25T11:32:07Z</time>
      </trkpt>
      <trkpt lat="49.00389" lon="1.12709">
        <ele>136</ele>
        <time>2011-09-25T11:32:08Z</time>
      </trkpt>
      <trkpt lat="49.00392" lon="1.12698">
        <ele>136</ele>
        <time>2011-09-25T11:32:09Z</time>
      </trkpt>
      <trkpt lat="49.00392" lon="1.12687">
        <ele>136</ele>
        <time>2011-09-25T11:32:10Z</time>
      </trkpt>
      <trkpt lat="49.00394" lon="1.12676">
        <ele>135</ele>
        <time>2011-09-25T11:32:11Z</time>
      </trkpt>
      <trkpt lat="49.00395" lon="1.12666">
        <ele>135</ele>
        <time>2011-09-25T11:32:12Z</time>
      </trkpt>
      <trkpt lat="49.00396" lon="1.12656">
        <ele>135</ele>
        <time>2011-09-25T11:32:13Z</time>
      </trkpt>
      <trkpt lat="49.00396" lon="1.12646">
        <ele>135</ele>
        <time>2011-09-25T11:32:14Z</time>
      </trkpt>
      <trkpt lat="49.00398" lon="1.12636">
        <ele>135</ele>
        <time>2011-09-25T11:32:15Z</time>
      </trkpt>
      <trkpt lat="49.00398" lon="1.12626">
        <ele>135</ele>
        <time>2011-09-25T11:32:16Z</time>
      </trkpt>
      <trkpt lat="49.00399" lon="1.12616">
        <ele>135</ele>
        <time>2011-09-25T11:32:17Z</time>
      </trkpt>
      <trkpt lat="49.004" lon="1.12606">
        <ele>135</ele>
        <time>2011-09-25T11:32:18Z</time>
      </trkpt>
      <trkpt lat="49.00402" lon="1.12597">
        <ele>135</ele>
        <time>2011-09-25T11:32:19Z</time>
      </trkpt>
      <trkpt lat="49.00403" lon="1.12587">
        <ele>135</ele>
        <time>2011-09-25T11:32:20Z</time>
      </trkpt>
      <trkpt lat="49.00403" lon="1.12577">
        <ele>134</ele>
        <time>2011-09-25T11:32:21Z</time>
      </trkpt>
      <trkpt lat="49.00405" lon="1.12567">
        <ele>135</ele>
        <time>2011-09-25T11:32:22Z</time>
      </trkpt>
      <trkpt lat="49.00408" lon="1.12557">
        <ele>135</ele>
        <time>2011-09-25T11:32:23Z</time>
      </trkpt>
      <trkpt lat="49.00409" lon="1.12547">
        <ele>135</ele>
        <time>2011-09-25T11:32:24Z</time>
      </trkpt>
      <trkpt lat="49.00411" lon="1.12537">
        <ele>135</ele>
        <time>2011-09-25T11:32:25Z</time>
      </trkpt>
      <trkpt lat="49.00412" lon="1.12528">
        <ele>135</ele>
        <time>2011-09-25T11:32:26Z</time>
      </trkpt>
      <trkpt lat="49.00413" lon="1.12518">
        <ele>134</ele>
        <time>2011-09-25T11:32:27Z</time>
      </trkpt>
      <trkpt lat="49.00414" lon="1.12508">
        <ele>134</ele>
        <time>2011-09-25T11:32:28Z</time>
      </trkpt>
      <trkpt lat="49.00416" lon="1.12497">
        <ele>134</ele>
        <time>2011-09-25T11:32:29Z</time>
      </trkpt>
      <trkpt lat="49.00416" lon="1.12487">
        <ele>134</ele>
        <time>2011-09-25T11:32:30Z</time>
      </trkpt>
      <trkpt lat="49.00417" lon="1.12476">
        <ele>134</ele>
        <time>2011-09-25T11:32:31Z</time>
      </trkpt>
      <trkpt lat="49.00417" lon="1.12465">
        <ele>134</ele>
        <time>2011-09-25T11:32:32Z</time>
      </trkpt>
      <trkpt lat="49.00419" lon="1.12455">
        <ele>134</ele>
        <time>2011-09-25T11:32:33Z</time>
      </trkpt>
      <trkpt lat="49.0042" lon="1.12444">
        <ele>134</ele>
        <time>2011-09-25T11:32:34Z</time>
      </trkpt>
      <trkpt lat="49.00421" lon="1.12432">
        <ele>134</ele>
        <time>2011-09-25T11:32:35Z</time>
      </trkpt>
      <trkpt lat="49.00422" lon="1.1242">
        <ele>134</ele>
        <time>2011-09-25T11:32:36Z</time>
      </trkpt>
      <trkpt lat="49.00425" lon="1.12408">
        <ele>133</ele>
        <time>2011-09-25T11:32:37Z</time>
      </trkpt>
      <trkpt lat="49.00426" lon="1.12396">
        <ele>133</ele>
        <time>2011-09-25T11:32:38Z</time>
      </trkpt>
      <trkpt lat="49.00427" lon="1.12385">
        <ele>133</ele>
        <time>2011-09-25T11:32:39Z</time>
      </trkpt>
      <trkpt lat="49.00427" lon="1.12374">
        <ele>132</ele>
        <time>2011-09-25T11:32:40Z</time>
      </trkpt>
      <trkpt lat="49.00428" lon="1.12364">
        <ele>132</ele>
        <time>2011-09-25T11:32:41Z</time>
      </trkpt>
      <trkpt lat="49.00429" lon="1.12353">
        <ele>132</ele>
        <time>2011-09-25T11:32:42Z</time>
      </trkpt>
      <trkpt lat="49.0043" lon="1.12343">
        <ele>131</ele>
        <time>2011-09-25T11:32:43Z</time>
      </trkpt>
      <trkpt lat="49.00431" lon="1.12332">
        <ele>130</ele>
        <time>2011-09-25T11:32:44Z</time>
      </trkpt>
      <trkpt lat="49.00433" lon="1.12322">
        <ele>130</ele>
        <time>2011-09-25T11:32:45Z</time>
      </trkpt>
      <trkpt lat="49.00434" lon="1.12314">
        <ele>131</ele>
        <time>2011-09-25T11:32:46Z</time>
      </trkpt>
      <trkpt lat="49.00434" lon="1.12306">
        <ele>131</ele>
        <time>2011-09-25T11:32:47Z</time>
      </trkpt>
      <trkpt lat="49.00434" lon="1.12298">
        <ele>131</ele>
        <time>2011-09-25T11:32:48Z</time>
      </trkpt>
      <trkpt lat="49.00429" lon="1.1229">
        <ele>131</ele>
        <time>2011-09-25T11:32:50Z</time>
      </trkpt>
      <trkpt lat="49.00422" lon="1.12284">
        <ele>130</ele>
        <time>2011-09-25T11:32:52Z</time>
      </trkpt>
      <trkpt lat="49.00417" lon="1.12282">
        <ele>130</ele>
        <time>2011-09-25T11:32:53Z</time>
      </trkpt>
      <trkpt lat="49.00411" lon="1.12281">
        <ele>129</ele>
        <time>2011-09-25T11:32:54Z</time>
      </trkpt>
      <trkpt lat="49.00405" lon="1.1228">
        <ele>129</ele>
        <time>2011-09-25T11:32:55Z</time>
      </trkpt>
      <trkpt lat="49.00399" lon="1.12279">
        <ele>129</ele>
        <time>2011-09-25T11:32:56Z</time>
      </trkpt>
      <trkpt lat="49.00394" lon="1.12278">
        <ele>128</ele>
        <time>2011-09-25T11:32:57Z</time>
      </trkpt>
      <trkpt lat="49.00388" lon="1.12276">
        <ele>128</ele>
        <time>2011-09-25T11:32:58Z</time>
      </trkpt>
      <trkpt lat="49.00382" lon="1.12273">
        <ele>128</ele>
        <time>2011-09-25T11:32:59Z</time>
      </trkpt>
      <trkpt lat="49.00375" lon="1.1227">
        <ele>128</ele>
        <time>2011-09-25T11:33:00Z</time>
      </trkpt>
      <trkpt lat="49.00368" lon="1.12268">
        <ele>128</ele>
        <time>2011-09-25T11:33:01Z</time>
      </trkpt>
      <trkpt lat="49.00361" lon="1.12264">
        <ele>127</ele>
        <time>2011-09-25T11:33:02Z</time>
      </trkpt>
      <trkpt lat="49.00354" lon="1.12259">
        <ele>127</ele>
        <time>2011-09-25T11:33:03Z</time>
      </trkpt>
      <trkpt lat="49.00347" lon="1.12254">
        <ele>126</ele>
        <time>2011-09-25T11:33:04Z</time>
      </trkpt>
      <trkpt lat="49.0034" lon="1.1225">
        <ele>126</ele>
        <time>2011-09-25T11:33:05Z</time>
      </trkpt>
      <trkpt lat="49.00334" lon="1.12245">
        <ele>125</ele>
        <time>2011-09-25T11:33:06Z</time>
      </trkpt>
      <trkpt lat="49.00327" lon="1.12241">
        <ele>124</ele>
        <time>2011-09-25T11:33:07Z</time>
      </trkpt>
      <trkpt lat="49.0032" lon="1.12237">
        <ele>124</ele>
        <time>2011-09-25T11:33:08Z</time>
      </trkpt>
      <trkpt lat="49.00314" lon="1.12234">
        <ele>123</ele>
        <time>2011-09-25T11:33:09Z</time>
      </trkpt>
      <trkpt lat="49.00307" lon="1.12231">
        <ele>123</ele>
        <time>2011-09-25T11:33:10Z</time>
      </trkpt>
      <trkpt lat="49.003" lon="1.12226">
        <ele>123</ele>
        <time>2011-09-25T11:33:11Z</time>
      </trkpt>
      <trkpt lat="49.00292" lon="1.12222">
        <ele>123</ele>
        <time>2011-09-25T11:33:12Z</time>
      </trkpt>
      <trkpt lat="49.00284" lon="1.12215">
        <ele>122</ele>
        <time>2011-09-25T11:33:13Z</time>
      </trkpt>
      <trkpt lat="49.00276" lon="1.1221">
        <ele>122</ele>
        <time>2011-09-25T11:33:14Z</time>
      </trkpt>
      <trkpt lat="49.00268" lon="1.12205">
        <ele>122</ele>
        <time>2011-09-25T11:33:15Z</time>
      </trkpt>
      <trkpt lat="49.0026" lon="1.12201">
        <ele>121</ele>
        <time>2011-09-25T11:33:16Z</time>
      </trkpt>
      <trkpt lat="49.00253" lon="1.12196">
        <ele>121</ele>
        <time>2011-09-25T11:33:17Z</time>
      </trkpt>
      <trkpt lat="49.00246" lon="1.12191">
        <ele>118</ele>
        <time>2011-09-25T11:33:18Z</time>
      </trkpt>
      <trkpt lat="49.00239" lon="1.12186">
        <ele>118</ele>
        <time>2011-09-25T11:33:19Z</time>
      </trkpt>
      <trkpt lat="49.00234" lon="1.12182">
        <ele>118</ele>
        <time>2011-09-25T11:33:20Z</time>
      </trkpt>
      <trkpt lat="49.00229" lon="1.12176">
        <ele>118</ele>
        <time>2011-09-25T11:33:21Z</time>
      </trkpt>
      <trkpt lat="49.00224" lon="1.12171">
        <ele>118</ele>
        <time>2011-09-25T11:33:22Z</time>
      </trkpt>
      <trkpt lat="49.0022" lon="1.12162">
        <ele>113</ele>
        <time>2011-09-25T11:33:23Z</time>
      </trkpt>
      <trkpt lat="49.00217" lon="1.12154">
        <ele>113</ele>
        <time>2011-09-25T11:33:24Z</time>
      </trkpt>
      <trkpt lat="49.00214" lon="1.12148">
        <ele>113</ele>
        <time>2011-09-25T11:33:25Z</time>
      </trkpt>
      <trkpt lat="49.00208" lon="1.12138">
        <ele>112</ele>
        <time>2011-09-25T11:33:27Z</time>
      </trkpt>
      <trkpt lat="49.00204" lon="1.12125">
        <ele>112</ele>
        <time>2011-09-25T11:33:29Z</time>
      </trkpt>
      <trkpt lat="49.00204" lon="1.12113">
        <ele>111</ele>
        <time>2011-09-25T11:33:31Z</time>
      </trkpt>
      <trkpt lat="49.00206" lon="1.12106">
        <ele>111</ele>
        <time>2011-09-25T11:33:33Z</time>
      </trkpt>
      <trkpt lat="49.00206" lon="1.12106">
        <ele>111</ele>
        <time>2011-09-25T11:33:33Z</time>
      </trkpt>
    </trkseg>
  </trk>
</gpx>